<?xml version="1.0" encoding="UTF-8" standalone="no" ?>
<gpx xmlns="http://www.topografix.com/GPX/1/1" xmlns:xsi="http://www.w3.org/2001/XMLSchema-instance" xsi:schemaLocation="http://www.topografix.com/GPX/1/1 http://www.topografix.com/GPX/1/1/gpx.xsd" version="1.1" creator="VisuGPX - https://www.visugpx.com">
  <metadata>
    <name>2016-09-14 Bike ride-Ain Circuit No 6</name>
    <desc><![CDATA[2016-09-14 Bike ride-Ain Circuit No 6]]></desc>
  </metadata>
  <wpt lat="45.92455" lon="4.73715">
    <ele>174</ele>
    <name><![CDATA[2016-09-14 09:59 (Start)]]></name>
  </wpt>
  <wpt lat="45.92464" lon="4.73709">
    <ele>174</ele>
    <name><![CDATA[2016-09-14 09:59 (End)]]></name>
    <desc><![CDATA[Created by Google My Tracks on Android  Name: 2016-09-14 09:59 Activity type: biking Description: - Total distance: 65.42 km (40.7 mi) Total time: 3:11:53 Moving time: 3:05:24 Average speed: 20.46 km/h (12.7 mi/h) Average moving speed: 21.17 km/h (13.2 mi/h) Max speed: 40.03 km/h (24.9 mi/h) Average pace: 2:56 min/km (4:43 min/mi) Average moving pace: 2:50 min/km (4:34 min/mi) Fastest pace: 1:30 min/km (2:25 min/mi) Max elevation: 321 m (1052 ft) Min elevation: 168 m (550 ft) Elevation gain: 810 m (2658 ft) Max grade: 10 % Min grade: -13 % Recorded: 14/09/2016 09:59]]></desc>
  </wpt>
  <trk>
    <name><![CDATA[2016-09-14 09:59]]></name>
    <trkseg>
      <trkpt lat="45.92455" lon="4.73715">
        <ele>174</ele>
        <time>2016-09-14T07:59:26.702Z</time>
      </trkpt>
      <trkpt lat="45.92457" lon="4.73703">
        <ele>174</ele>
        <time>2016-09-14T08:00:15Z</time>
      </trkpt>
      <trkpt lat="45.92457" lon="4.73702">
        <ele>174</ele>
        <time>2016-09-14T08:00:16Z</time>
      </trkpt>
      <trkpt lat="45.92464" lon="4.73707">
        <ele>174</ele>
        <time>2016-09-14T08:00:57Z</time>
      </trkpt>
      <trkpt lat="45.92465" lon="4.73706">
        <ele>174</ele>
        <time>2016-09-14T08:00:58Z</time>
      </trkpt>
      <trkpt lat="45.92467" lon="4.73695">
        <ele>174</ele>
        <time>2016-09-14T08:01:03Z</time>
      </trkpt>
      <trkpt lat="45.92466" lon="4.73692">
        <ele>174</ele>
        <time>2016-09-14T08:01:04Z</time>
      </trkpt>
      <trkpt lat="45.92467" lon="4.73682">
        <ele>174</ele>
        <time>2016-09-14T08:01:07Z</time>
      </trkpt>
      <trkpt lat="45.92468" lon="4.73678">
        <ele>174</ele>
        <time>2016-09-14T08:01:08Z</time>
      </trkpt>
      <trkpt lat="45.9247" lon="4.73668">
        <ele>174</ele>
        <time>2016-09-14T08:01:10Z</time>
      </trkpt>
      <trkpt lat="45.92471" lon="4.73663">
        <ele>174</ele>
        <time>2016-09-14T08:01:11Z</time>
      </trkpt>
      <trkpt lat="45.92471" lon="4.73653">
        <ele>174</ele>
        <time>2016-09-14T08:01:13Z</time>
      </trkpt>
      <trkpt lat="45.92472" lon="4.73648">
        <ele>174</ele>
        <time>2016-09-14T08:01:14Z</time>
      </trkpt>
      <trkpt lat="45.92477" lon="4.73642">
        <ele>174</ele>
        <time>2016-09-14T08:01:16Z</time>
      </trkpt>
      <trkpt lat="45.9248" lon="4.73641">
        <ele>174</ele>
        <time>2016-09-14T08:01:17Z</time>
      </trkpt>
      <trkpt lat="45.92488" lon="4.73641">
        <ele>174</ele>
        <time>2016-09-14T08:01:19Z</time>
      </trkpt>
      <trkpt lat="45.92491" lon="4.73642">
        <ele>174</ele>
        <time>2016-09-14T08:01:20Z</time>
      </trkpt>
      <trkpt lat="45.92499" lon="4.73643">
        <ele>174</ele>
        <time>2016-09-14T08:01:22Z</time>
      </trkpt>
      <trkpt lat="45.92503" lon="4.73643">
        <ele>174</ele>
        <time>2016-09-14T08:01:23Z</time>
      </trkpt>
      <trkpt lat="45.92511" lon="4.73643">
        <ele>174</ele>
        <time>2016-09-14T08:01:25Z</time>
      </trkpt>
      <trkpt lat="45.92516" lon="4.73643">
        <ele>174</ele>
        <time>2016-09-14T08:01:26Z</time>
      </trkpt>
      <trkpt lat="45.9252" lon="4.73642">
        <ele>173</ele>
        <time>2016-09-14T08:01:27Z</time>
      </trkpt>
      <trkpt lat="45.92525" lon="4.73641">
        <ele>173</ele>
        <time>2016-09-14T08:01:28Z</time>
      </trkpt>
      <trkpt lat="45.9253" lon="4.7364">
        <ele>173</ele>
        <time>2016-09-14T08:01:29Z</time>
      </trkpt>
      <trkpt lat="45.92535" lon="4.73639">
        <ele>173</ele>
        <time>2016-09-14T08:01:30Z</time>
      </trkpt>
      <trkpt lat="45.9254" lon="4.73637">
        <ele>173</ele>
        <time>2016-09-14T08:01:31Z</time>
      </trkpt>
      <trkpt lat="45.92545" lon="4.73636">
        <ele>173</ele>
        <time>2016-09-14T08:01:32Z</time>
      </trkpt>
      <trkpt lat="45.9255" lon="4.73635">
        <ele>173</ele>
        <time>2016-09-14T08:01:33Z</time>
      </trkpt>
      <trkpt lat="45.92555" lon="4.73633">
        <ele>173</ele>
        <time>2016-09-14T08:01:34Z</time>
      </trkpt>
      <trkpt lat="45.92562" lon="4.73633">
        <ele>173</ele>
        <time>2016-09-14T08:01:35Z</time>
      </trkpt>
      <trkpt lat="45.92567" lon="4.73631">
        <ele>173</ele>
        <time>2016-09-14T08:01:36Z</time>
      </trkpt>
      <trkpt lat="45.92572" lon="4.73629">
        <ele>173</ele>
        <time>2016-09-14T08:01:37Z</time>
      </trkpt>
      <trkpt lat="45.92576" lon="4.73626">
        <ele>173</ele>
        <time>2016-09-14T08:01:38Z</time>
      </trkpt>
      <trkpt lat="45.92581" lon="4.73626">
        <ele>173</ele>
        <time>2016-09-14T08:01:39Z</time>
      </trkpt>
      <trkpt lat="45.92586" lon="4.73625">
        <ele>172</ele>
        <time>2016-09-14T08:01:40Z</time>
      </trkpt>
      <trkpt lat="45.92592" lon="4.73624">
        <ele>173</ele>
        <time>2016-09-14T08:01:41Z</time>
      </trkpt>
      <trkpt lat="45.92597" lon="4.73623">
        <ele>173</ele>
        <time>2016-09-14T08:01:42Z</time>
      </trkpt>
      <trkpt lat="45.92601" lon="4.73624">
        <ele>173</ele>
        <time>2016-09-14T08:01:43Z</time>
      </trkpt>
      <trkpt lat="45.92606" lon="4.73624">
        <ele>173</ele>
        <time>2016-09-14T08:01:44Z</time>
      </trkpt>
      <trkpt lat="45.92611" lon="4.73626">
        <ele>173</ele>
        <time>2016-09-14T08:01:45Z</time>
      </trkpt>
      <trkpt lat="45.92616" lon="4.73629">
        <ele>173</ele>
        <time>2016-09-14T08:01:46Z</time>
      </trkpt>
      <trkpt lat="45.92621" lon="4.73632">
        <ele>173</ele>
        <time>2016-09-14T08:01:47Z</time>
      </trkpt>
      <trkpt lat="45.92625" lon="4.73637">
        <ele>173</ele>
        <time>2016-09-14T08:01:48Z</time>
      </trkpt>
      <trkpt lat="45.92628" lon="4.73642">
        <ele>173</ele>
        <time>2016-09-14T08:01:49Z</time>
      </trkpt>
      <trkpt lat="45.92631" lon="4.73648">
        <ele>173</ele>
        <time>2016-09-14T08:01:50Z</time>
      </trkpt>
      <trkpt lat="45.92633" lon="4.73655">
        <ele>173</ele>
        <time>2016-09-14T08:01:51Z</time>
      </trkpt>
      <trkpt lat="45.92635" lon="4.73662">
        <ele>173</ele>
        <time>2016-09-14T08:01:52Z</time>
      </trkpt>
      <trkpt lat="45.9264" lon="4.73672">
        <ele>173</ele>
        <time>2016-09-14T08:01:54Z</time>
      </trkpt>
      <trkpt lat="45.92643" lon="4.73677">
        <ele>173</ele>
        <time>2016-09-14T08:01:55Z</time>
      </trkpt>
      <trkpt lat="45.92647" lon="4.73683">
        <ele>173</ele>
        <time>2016-09-14T08:01:56Z</time>
      </trkpt>
      <trkpt lat="45.92651" lon="4.73687">
        <ele>173</ele>
        <time>2016-09-14T08:01:57Z</time>
      </trkpt>
      <trkpt lat="45.92655" lon="4.73691">
        <ele>173</ele>
        <time>2016-09-14T08:01:58Z</time>
      </trkpt>
      <trkpt lat="45.92659" lon="4.73696">
        <ele>173</ele>
        <time>2016-09-14T08:01:59Z</time>
      </trkpt>
      <trkpt lat="45.92664" lon="4.73699">
        <ele>173</ele>
        <time>2016-09-14T08:02:00Z</time>
      </trkpt>
      <trkpt lat="45.92669" lon="4.73701">
        <ele>174</ele>
        <time>2016-09-14T08:02:01Z</time>
      </trkpt>
      <trkpt lat="45.92674" lon="4.73704">
        <ele>174</ele>
        <time>2016-09-14T08:02:02Z</time>
      </trkpt>
      <trkpt lat="45.92679" lon="4.73707">
        <ele>173</ele>
        <time>2016-09-14T08:02:03Z</time>
      </trkpt>
      <trkpt lat="45.92684" lon="4.7371">
        <ele>173</ele>
        <time>2016-09-14T08:02:04Z</time>
      </trkpt>
      <trkpt lat="45.92689" lon="4.73712">
        <ele>173</ele>
        <time>2016-09-14T08:02:05Z</time>
      </trkpt>
      <trkpt lat="45.92694" lon="4.73714">
        <ele>173</ele>
        <time>2016-09-14T08:02:06Z</time>
      </trkpt>
      <trkpt lat="45.92699" lon="4.73716">
        <ele>173</ele>
        <time>2016-09-14T08:02:07Z</time>
      </trkpt>
      <trkpt lat="45.92706" lon="4.73719">
        <ele>173</ele>
        <time>2016-09-14T08:02:08Z</time>
      </trkpt>
      <trkpt lat="45.92712" lon="4.73721">
        <ele>173</ele>
        <time>2016-09-14T08:02:09Z</time>
      </trkpt>
      <trkpt lat="45.92718" lon="4.73722">
        <ele>173</ele>
        <time>2016-09-14T08:02:10Z</time>
      </trkpt>
      <trkpt lat="45.92724" lon="4.73723">
        <ele>173</ele>
        <time>2016-09-14T08:02:11Z</time>
      </trkpt>
      <trkpt lat="45.92729" lon="4.73725">
        <ele>173</ele>
        <time>2016-09-14T08:02:12Z</time>
      </trkpt>
      <trkpt lat="45.92734" lon="4.73726">
        <ele>173</ele>
        <time>2016-09-14T08:02:13Z</time>
      </trkpt>
      <trkpt lat="45.92739" lon="4.73727">
        <ele>173</ele>
        <time>2016-09-14T08:02:14Z</time>
      </trkpt>
      <trkpt lat="45.92743" lon="4.73728">
        <ele>173</ele>
        <time>2016-09-14T08:02:15Z</time>
      </trkpt>
      <trkpt lat="45.92752" lon="4.73729">
        <ele>172</ele>
        <time>2016-09-14T08:02:17Z</time>
      </trkpt>
      <trkpt lat="45.92756" lon="4.73731">
        <ele>172</ele>
        <time>2016-09-14T08:02:18Z</time>
      </trkpt>
      <trkpt lat="45.92764" lon="4.73734">
        <ele>172</ele>
        <time>2016-09-14T08:02:20Z</time>
      </trkpt>
      <trkpt lat="45.92767" lon="4.73735">
        <ele>172</ele>
        <time>2016-09-14T08:02:21Z</time>
      </trkpt>
      <trkpt lat="45.92774" lon="4.73735">
        <ele>172</ele>
        <time>2016-09-14T08:02:23Z</time>
      </trkpt>
      <trkpt lat="45.92778" lon="4.73736">
        <ele>172</ele>
        <time>2016-09-14T08:02:24Z</time>
      </trkpt>
      <trkpt lat="45.92786" lon="4.73734">
        <ele>172</ele>
        <time>2016-09-14T08:02:26Z</time>
      </trkpt>
      <trkpt lat="45.92788" lon="4.73729">
        <ele>172</ele>
        <time>2016-09-14T08:02:27Z</time>
      </trkpt>
      <trkpt lat="45.92791" lon="4.73717">
        <ele>172</ele>
        <time>2016-09-14T08:02:29Z</time>
      </trkpt>
      <trkpt lat="45.92792" lon="4.73711">
        <ele>172</ele>
        <time>2016-09-14T08:02:30Z</time>
      </trkpt>
      <trkpt lat="45.92793" lon="4.73704">
        <ele>172</ele>
        <time>2016-09-14T08:02:31Z</time>
      </trkpt>
      <trkpt lat="45.92794" lon="4.73697">
        <ele>172</ele>
        <time>2016-09-14T08:02:32Z</time>
      </trkpt>
      <trkpt lat="45.92795" lon="4.7369">
        <ele>172</ele>
        <time>2016-09-14T08:02:33Z</time>
      </trkpt>
      <trkpt lat="45.92796" lon="4.73683">
        <ele>172</ele>
        <time>2016-09-14T08:02:34Z</time>
      </trkpt>
      <trkpt lat="45.92797" lon="4.73676">
        <ele>172</ele>
        <time>2016-09-14T08:02:35Z</time>
      </trkpt>
      <trkpt lat="45.92798" lon="4.73669">
        <ele>172</ele>
        <time>2016-09-14T08:02:36Z</time>
      </trkpt>
      <trkpt lat="45.928" lon="4.73663">
        <ele>172</ele>
        <time>2016-09-14T08:02:37Z</time>
      </trkpt>
      <trkpt lat="45.92802" lon="4.73656">
        <ele>172</ele>
        <time>2016-09-14T08:02:38Z</time>
      </trkpt>
      <trkpt lat="45.92803" lon="4.7365">
        <ele>172</ele>
        <time>2016-09-14T08:02:39Z</time>
      </trkpt>
      <trkpt lat="45.92805" lon="4.73644">
        <ele>172</ele>
        <time>2016-09-14T08:02:40Z</time>
      </trkpt>
      <trkpt lat="45.92811" lon="4.73635">
        <ele>172</ele>
        <time>2016-09-14T08:02:42Z</time>
      </trkpt>
      <trkpt lat="45.92814" lon="4.73631">
        <ele>172</ele>
        <time>2016-09-14T08:02:43Z</time>
      </trkpt>
      <trkpt lat="45.92819" lon="4.73621">
        <ele>172</ele>
        <time>2016-09-14T08:02:45Z</time>
      </trkpt>
      <trkpt lat="45.92821" lon="4.73615">
        <ele>172</ele>
        <time>2016-09-14T08:02:46Z</time>
      </trkpt>
      <trkpt lat="45.92821" lon="4.73602">
        <ele>171</ele>
        <time>2016-09-14T08:02:48Z</time>
      </trkpt>
      <trkpt lat="45.92821" lon="4.73596">
        <ele>171</ele>
        <time>2016-09-14T08:02:49Z</time>
      </trkpt>
      <trkpt lat="45.92821" lon="4.73589">
        <ele>171</ele>
        <time>2016-09-14T08:02:50Z</time>
      </trkpt>
      <trkpt lat="45.92822" lon="4.73582">
        <ele>171</ele>
        <time>2016-09-14T08:02:51Z</time>
      </trkpt>
      <trkpt lat="45.92822" lon="4.73574">
        <ele>171</ele>
        <time>2016-09-14T08:02:52Z</time>
      </trkpt>
      <trkpt lat="45.92822" lon="4.73567">
        <ele>171</ele>
        <time>2016-09-14T08:02:53Z</time>
      </trkpt>
      <trkpt lat="45.92823" lon="4.73559">
        <ele>171</ele>
        <time>2016-09-14T08:02:54Z</time>
      </trkpt>
      <trkpt lat="45.92823" lon="4.73551">
        <ele>171</ele>
        <time>2016-09-14T08:02:55Z</time>
      </trkpt>
      <trkpt lat="45.92824" lon="4.73543">
        <ele>171</ele>
        <time>2016-09-14T08:02:56Z</time>
      </trkpt>
      <trkpt lat="45.92825" lon="4.73536">
        <ele>172</ele>
        <time>2016-09-14T08:02:57Z</time>
      </trkpt>
      <trkpt lat="45.92825" lon="4.73528">
        <ele>172</ele>
        <time>2016-09-14T08:02:58Z</time>
      </trkpt>
      <trkpt lat="45.92826" lon="4.7352">
        <ele>172</ele>
        <time>2016-09-14T08:02:59Z</time>
      </trkpt>
      <trkpt lat="45.92827" lon="4.73512">
        <ele>172</ele>
        <time>2016-09-14T08:03:00Z</time>
      </trkpt>
      <trkpt lat="45.92828" lon="4.73504">
        <ele>172</ele>
        <time>2016-09-14T08:03:01Z</time>
      </trkpt>
      <trkpt lat="45.92829" lon="4.73496">
        <ele>172</ele>
        <time>2016-09-14T08:03:02Z</time>
      </trkpt>
      <trkpt lat="45.9283" lon="4.73488">
        <ele>172</ele>
        <time>2016-09-14T08:03:03Z</time>
      </trkpt>
      <trkpt lat="45.9283" lon="4.7348">
        <ele>172</ele>
        <time>2016-09-14T08:03:04Z</time>
      </trkpt>
      <trkpt lat="45.92831" lon="4.73471">
        <ele>172</ele>
        <time>2016-09-14T08:03:05Z</time>
      </trkpt>
      <trkpt lat="45.92832" lon="4.73463">
        <ele>172</ele>
        <time>2016-09-14T08:03:06Z</time>
      </trkpt>
      <trkpt lat="45.92833" lon="4.73454">
        <ele>172</ele>
        <time>2016-09-14T08:03:07Z</time>
      </trkpt>
      <trkpt lat="45.92834" lon="4.73445">
        <ele>172</ele>
        <time>2016-09-14T08:03:08Z</time>
      </trkpt>
      <trkpt lat="45.92835" lon="4.73436">
        <ele>172</ele>
        <time>2016-09-14T08:03:09Z</time>
      </trkpt>
      <trkpt lat="45.92837" lon="4.73428">
        <ele>172</ele>
        <time>2016-09-14T08:03:10Z</time>
      </trkpt>
      <trkpt lat="45.92838" lon="4.73419">
        <ele>172</ele>
        <time>2016-09-14T08:03:11Z</time>
      </trkpt>
      <trkpt lat="45.92838" lon="4.7341">
        <ele>172</ele>
        <time>2016-09-14T08:03:12Z</time>
      </trkpt>
      <trkpt lat="45.9284" lon="4.73401">
        <ele>172</ele>
        <time>2016-09-14T08:03:13Z</time>
      </trkpt>
      <trkpt lat="45.92841" lon="4.73392">
        <ele>172</ele>
        <time>2016-09-14T08:03:14Z</time>
      </trkpt>
      <trkpt lat="45.92842" lon="4.73384">
        <ele>172</ele>
        <time>2016-09-14T08:03:15Z</time>
      </trkpt>
      <trkpt lat="45.92843" lon="4.73375">
        <ele>171</ele>
        <time>2016-09-14T08:03:16Z</time>
      </trkpt>
      <trkpt lat="45.92844" lon="4.73366">
        <ele>171</ele>
        <time>2016-09-14T08:03:17Z</time>
      </trkpt>
      <trkpt lat="45.92845" lon="4.73357">
        <ele>171</ele>
        <time>2016-09-14T08:03:18Z</time>
      </trkpt>
      <trkpt lat="45.92845" lon="4.73348">
        <ele>171</ele>
        <time>2016-09-14T08:03:19Z</time>
      </trkpt>
      <trkpt lat="45.92847" lon="4.7334">
        <ele>171</ele>
        <time>2016-09-14T08:03:20Z</time>
      </trkpt>
      <trkpt lat="45.92848" lon="4.73331">
        <ele>171</ele>
        <time>2016-09-14T08:03:21Z</time>
      </trkpt>
      <trkpt lat="45.92849" lon="4.73322">
        <ele>171</ele>
        <time>2016-09-14T08:03:22Z</time>
      </trkpt>
      <trkpt lat="45.92849" lon="4.73313">
        <ele>171</ele>
        <time>2016-09-14T08:03:23Z</time>
      </trkpt>
      <trkpt lat="45.9285" lon="4.73305">
        <ele>171</ele>
        <time>2016-09-14T08:03:24Z</time>
      </trkpt>
      <trkpt lat="45.92851" lon="4.73296">
        <ele>171</ele>
        <time>2016-09-14T08:03:25Z</time>
      </trkpt>
      <trkpt lat="45.92852" lon="4.73287">
        <ele>171</ele>
        <time>2016-09-14T08:03:26Z</time>
      </trkpt>
      <trkpt lat="45.92853" lon="4.73279">
        <ele>171</ele>
        <time>2016-09-14T08:03:27Z</time>
      </trkpt>
      <trkpt lat="45.92854" lon="4.7327">
        <ele>171</ele>
        <time>2016-09-14T08:03:28Z</time>
      </trkpt>
      <trkpt lat="45.92855" lon="4.73261">
        <ele>171</ele>
        <time>2016-09-14T08:03:29Z</time>
      </trkpt>
      <trkpt lat="45.92856" lon="4.73252">
        <ele>171</ele>
        <time>2016-09-14T08:03:30Z</time>
      </trkpt>
      <trkpt lat="45.92858" lon="4.73244">
        <ele>171</ele>
        <time>2016-09-14T08:03:31Z</time>
      </trkpt>
      <trkpt lat="45.92859" lon="4.73236">
        <ele>171</ele>
        <time>2016-09-14T08:03:32Z</time>
      </trkpt>
      <trkpt lat="45.9286" lon="4.73228">
        <ele>171</ele>
        <time>2016-09-14T08:03:33Z</time>
      </trkpt>
      <trkpt lat="45.92861" lon="4.73219">
        <ele>171</ele>
        <time>2016-09-14T08:03:34Z</time>
      </trkpt>
      <trkpt lat="45.92862" lon="4.73212">
        <ele>171</ele>
        <time>2016-09-14T08:03:35Z</time>
      </trkpt>
      <trkpt lat="45.92863" lon="4.73205">
        <ele>171</ele>
        <time>2016-09-14T08:03:36Z</time>
      </trkpt>
      <trkpt lat="45.92864" lon="4.73197">
        <ele>171</ele>
        <time>2016-09-14T08:03:37Z</time>
      </trkpt>
      <trkpt lat="45.92865" lon="4.73188">
        <ele>171</ele>
        <time>2016-09-14T08:03:38Z</time>
      </trkpt>
      <trkpt lat="45.92866" lon="4.73179">
        <ele>171</ele>
        <time>2016-09-14T08:03:39Z</time>
      </trkpt>
      <trkpt lat="45.92866" lon="4.73171">
        <ele>171</ele>
        <time>2016-09-14T08:03:40Z</time>
      </trkpt>
      <trkpt lat="45.92867" lon="4.73164">
        <ele>171</ele>
        <time>2016-09-14T08:03:41Z</time>
      </trkpt>
      <trkpt lat="45.92868" lon="4.73157">
        <ele>171</ele>
        <time>2016-09-14T08:03:42Z</time>
      </trkpt>
      <trkpt lat="45.92869" lon="4.73149">
        <ele>171</ele>
        <time>2016-09-14T08:03:43Z</time>
      </trkpt>
      <trkpt lat="45.92871" lon="4.73141">
        <ele>171</ele>
        <time>2016-09-14T08:03:44Z</time>
      </trkpt>
      <trkpt lat="45.92872" lon="4.73132">
        <ele>171</ele>
        <time>2016-09-14T08:03:45Z</time>
      </trkpt>
      <trkpt lat="45.92874" lon="4.73124">
        <ele>171</ele>
        <time>2016-09-14T08:03:46Z</time>
      </trkpt>
      <trkpt lat="45.92876" lon="4.73116">
        <ele>172</ele>
        <time>2016-09-14T08:03:47Z</time>
      </trkpt>
      <trkpt lat="45.92878" lon="4.73107">
        <ele>172</ele>
        <time>2016-09-14T08:03:48Z</time>
      </trkpt>
      <trkpt lat="45.9288" lon="4.731">
        <ele>172</ele>
        <time>2016-09-14T08:03:49Z</time>
      </trkpt>
      <trkpt lat="45.92883" lon="4.73092">
        <ele>172</ele>
        <time>2016-09-14T08:03:50Z</time>
      </trkpt>
      <trkpt lat="45.92885" lon="4.73084">
        <ele>172</ele>
        <time>2016-09-14T08:03:51Z</time>
      </trkpt>
      <trkpt lat="45.92889" lon="4.73077">
        <ele>172</ele>
        <time>2016-09-14T08:03:52Z</time>
      </trkpt>
      <trkpt lat="45.92892" lon="4.7307">
        <ele>172</ele>
        <time>2016-09-14T08:03:53Z</time>
      </trkpt>
      <trkpt lat="45.92896" lon="4.73063">
        <ele>172</ele>
        <time>2016-09-14T08:03:54Z</time>
      </trkpt>
      <trkpt lat="45.929" lon="4.73056">
        <ele>172</ele>
        <time>2016-09-14T08:03:55Z</time>
      </trkpt>
      <trkpt lat="45.92904" lon="4.7305">
        <ele>172</ele>
        <time>2016-09-14T08:03:56Z</time>
      </trkpt>
      <trkpt lat="45.92909" lon="4.73043">
        <ele>172</ele>
        <time>2016-09-14T08:03:57Z</time>
      </trkpt>
      <trkpt lat="45.92913" lon="4.73037">
        <ele>172</ele>
        <time>2016-09-14T08:03:58Z</time>
      </trkpt>
      <trkpt lat="45.92917" lon="4.73031">
        <ele>172</ele>
        <time>2016-09-14T08:03:59Z</time>
      </trkpt>
      <trkpt lat="45.92922" lon="4.73026">
        <ele>171</ele>
        <time>2016-09-14T08:04:00Z</time>
      </trkpt>
      <trkpt lat="45.92927" lon="4.7302">
        <ele>171</ele>
        <time>2016-09-14T08:04:01Z</time>
      </trkpt>
      <trkpt lat="45.92931" lon="4.73014">
        <ele>171</ele>
        <time>2016-09-14T08:04:02Z</time>
      </trkpt>
      <trkpt lat="45.92936" lon="4.73008">
        <ele>171</ele>
        <time>2016-09-14T08:04:03Z</time>
      </trkpt>
      <trkpt lat="45.92941" lon="4.73003">
        <ele>171</ele>
        <time>2016-09-14T08:04:04Z</time>
      </trkpt>
      <trkpt lat="45.92945" lon="4.72998">
        <ele>171</ele>
        <time>2016-09-14T08:04:05Z</time>
      </trkpt>
      <trkpt lat="45.9295" lon="4.72992">
        <ele>171</ele>
        <time>2016-09-14T08:04:06Z</time>
      </trkpt>
      <trkpt lat="45.92955" lon="4.72987">
        <ele>171</ele>
        <time>2016-09-14T08:04:07Z</time>
      </trkpt>
      <trkpt lat="45.92959" lon="4.72981">
        <ele>171</ele>
        <time>2016-09-14T08:04:08Z</time>
      </trkpt>
      <trkpt lat="45.92963" lon="4.72975">
        <ele>171</ele>
        <time>2016-09-14T08:04:09Z</time>
      </trkpt>
      <trkpt lat="45.92968" lon="4.72969">
        <ele>171</ele>
        <time>2016-09-14T08:04:10Z</time>
      </trkpt>
      <trkpt lat="45.92973" lon="4.72964">
        <ele>171</ele>
        <time>2016-09-14T08:04:11Z</time>
      </trkpt>
      <trkpt lat="45.92977" lon="4.72959">
        <ele>171</ele>
        <time>2016-09-14T08:04:12Z</time>
      </trkpt>
      <trkpt lat="45.92982" lon="4.72955">
        <ele>171</ele>
        <time>2016-09-14T08:04:13Z</time>
      </trkpt>
      <trkpt lat="45.92985" lon="4.7295">
        <ele>171</ele>
        <time>2016-09-14T08:04:14Z</time>
      </trkpt>
      <trkpt lat="45.92989" lon="4.72944">
        <ele>171</ele>
        <time>2016-09-14T08:04:15Z</time>
      </trkpt>
      <trkpt lat="45.92993" lon="4.7294">
        <ele>171</ele>
        <time>2016-09-14T08:04:16Z</time>
      </trkpt>
      <trkpt lat="45.92998" lon="4.72936">
        <ele>171</ele>
        <time>2016-09-14T08:04:17Z</time>
      </trkpt>
      <trkpt lat="45.93001" lon="4.72933">
        <ele>170</ele>
        <time>2016-09-14T08:04:18Z</time>
      </trkpt>
      <trkpt lat="45.93005" lon="4.72929">
        <ele>170</ele>
        <time>2016-09-14T08:04:19Z</time>
      </trkpt>
      <trkpt lat="45.93009" lon="4.72925">
        <ele>170</ele>
        <time>2016-09-14T08:04:20Z</time>
      </trkpt>
      <trkpt lat="45.93013" lon="4.72921">
        <ele>170</ele>
        <time>2016-09-14T08:04:21Z</time>
      </trkpt>
      <trkpt lat="45.93017" lon="4.72916">
        <ele>171</ele>
        <time>2016-09-14T08:04:22Z</time>
      </trkpt>
      <trkpt lat="45.93021" lon="4.72912">
        <ele>171</ele>
        <time>2016-09-14T08:04:23Z</time>
      </trkpt>
      <trkpt lat="45.93026" lon="4.72908">
        <ele>172</ele>
        <time>2016-09-14T08:04:24Z</time>
      </trkpt>
      <trkpt lat="45.93029" lon="4.72903">
        <ele>172</ele>
        <time>2016-09-14T08:04:25Z</time>
      </trkpt>
      <trkpt lat="45.93035" lon="4.72895">
        <ele>172</ele>
        <time>2016-09-14T08:04:27Z</time>
      </trkpt>
      <trkpt lat="45.93038" lon="4.72892">
        <ele>172</ele>
        <time>2016-09-14T08:04:28Z</time>
      </trkpt>
      <trkpt lat="45.93043" lon="4.72884">
        <ele>172</ele>
        <time>2016-09-14T08:04:31Z</time>
      </trkpt>
      <trkpt lat="45.93045" lon="4.72882">
        <ele>172</ele>
        <time>2016-09-14T08:04:32Z</time>
      </trkpt>
      <trkpt lat="45.93047" lon="4.72877">
        <ele>172</ele>
        <time>2016-09-14T08:04:39Z</time>
      </trkpt>
      <trkpt lat="45.93047" lon="4.72875">
        <ele>172</ele>
        <time>2016-09-14T08:04:40Z</time>
      </trkpt>
      <trkpt lat="45.93048" lon="4.72873">
        <ele>172</ele>
        <time>2016-09-14T08:04:41Z</time>
      </trkpt>
      <trkpt lat="45.93054" lon="4.72872">
        <ele>172</ele>
        <time>2016-09-14T08:04:42Z</time>
      </trkpt>
      <trkpt lat="45.93059" lon="4.72868">
        <ele>172</ele>
        <time>2016-09-14T08:04:43Z</time>
      </trkpt>
      <trkpt lat="45.93062" lon="4.72865">
        <ele>172</ele>
        <time>2016-09-14T08:04:44Z</time>
      </trkpt>
      <trkpt lat="45.93067" lon="4.72861">
        <ele>172</ele>
        <time>2016-09-14T08:04:45Z</time>
      </trkpt>
      <trkpt lat="45.93071" lon="4.72856">
        <ele>172</ele>
        <time>2016-09-14T08:04:46Z</time>
      </trkpt>
      <trkpt lat="45.93077" lon="4.72849">
        <ele>172</ele>
        <time>2016-09-14T08:04:48Z</time>
      </trkpt>
      <trkpt lat="45.93081" lon="4.72845">
        <ele>173</ele>
        <time>2016-09-14T08:04:49Z</time>
      </trkpt>
      <trkpt lat="45.93087" lon="4.72837">
        <ele>173</ele>
        <time>2016-09-14T08:04:51Z</time>
      </trkpt>
      <trkpt lat="45.93091" lon="4.72832">
        <ele>172</ele>
        <time>2016-09-14T08:04:52Z</time>
      </trkpt>
      <trkpt lat="45.93098" lon="4.72823">
        <ele>172</ele>
        <time>2016-09-14T08:04:53Z</time>
      </trkpt>
      <trkpt lat="45.93101" lon="4.72814">
        <ele>172</ele>
        <time>2016-09-14T08:04:54Z</time>
      </trkpt>
      <trkpt lat="45.93109" lon="4.72809">
        <ele>171</ele>
        <time>2016-09-14T08:04:55Z</time>
      </trkpt>
      <trkpt lat="45.93115" lon="4.72805">
        <ele>171</ele>
        <time>2016-09-14T08:04:56Z</time>
      </trkpt>
      <trkpt lat="45.9312" lon="4.728">
        <ele>171</ele>
        <time>2016-09-14T08:04:57Z</time>
      </trkpt>
      <trkpt lat="45.93125" lon="4.72794">
        <ele>171</ele>
        <time>2016-09-14T08:04:58Z</time>
      </trkpt>
      <trkpt lat="45.9313" lon="4.72788">
        <ele>171</ele>
        <time>2016-09-14T08:04:59Z</time>
      </trkpt>
      <trkpt lat="45.93134" lon="4.72781">
        <ele>171</ele>
        <time>2016-09-14T08:05:00Z</time>
      </trkpt>
      <trkpt lat="45.93138" lon="4.72775">
        <ele>171</ele>
        <time>2016-09-14T08:05:01Z</time>
      </trkpt>
      <trkpt lat="45.93143" lon="4.72769">
        <ele>171</ele>
        <time>2016-09-14T08:05:02Z</time>
      </trkpt>
      <trkpt lat="45.93147" lon="4.72763">
        <ele>171</ele>
        <time>2016-09-14T08:05:03Z</time>
      </trkpt>
      <trkpt lat="45.93152" lon="4.72757">
        <ele>170</ele>
        <time>2016-09-14T08:05:04Z</time>
      </trkpt>
      <trkpt lat="45.93156" lon="4.72751">
        <ele>170</ele>
        <time>2016-09-14T08:05:05Z</time>
      </trkpt>
      <trkpt lat="45.93161" lon="4.72745">
        <ele>170</ele>
        <time>2016-09-14T08:05:06Z</time>
      </trkpt>
      <trkpt lat="45.93166" lon="4.7274">
        <ele>170</ele>
        <time>2016-09-14T08:05:07Z</time>
      </trkpt>
      <trkpt lat="45.93171" lon="4.72735">
        <ele>170</ele>
        <time>2016-09-14T08:05:08Z</time>
      </trkpt>
      <trkpt lat="45.93176" lon="4.72729">
        <ele>170</ele>
        <time>2016-09-14T08:05:09Z</time>
      </trkpt>
      <trkpt lat="45.93181" lon="4.72724">
        <ele>169</ele>
        <time>2016-09-14T08:05:10Z</time>
      </trkpt>
      <trkpt lat="45.93185" lon="4.72718">
        <ele>169</ele>
        <time>2016-09-14T08:05:11Z</time>
      </trkpt>
      <trkpt lat="45.93189" lon="4.72713">
        <ele>169</ele>
        <time>2016-09-14T08:05:12Z</time>
      </trkpt>
      <trkpt lat="45.93194" lon="4.72708">
        <ele>169</ele>
        <time>2016-09-14T08:05:13Z</time>
      </trkpt>
      <trkpt lat="45.93199" lon="4.72704">
        <ele>169</ele>
        <time>2016-09-14T08:05:14Z</time>
      </trkpt>
      <trkpt lat="45.93202" lon="4.727">
        <ele>169</ele>
        <time>2016-09-14T08:05:15Z</time>
      </trkpt>
      <trkpt lat="45.93206" lon="4.72695">
        <ele>169</ele>
        <time>2016-09-14T08:05:16Z</time>
      </trkpt>
      <trkpt lat="45.93207" lon="4.72686">
        <ele>169</ele>
        <time>2016-09-14T08:05:17Z</time>
      </trkpt>
      <trkpt lat="45.93212" lon="4.7268">
        <ele>169</ele>
        <time>2016-09-14T08:05:18Z</time>
      </trkpt>
      <trkpt lat="45.93217" lon="4.72675">
        <ele>169</ele>
        <time>2016-09-14T08:05:19Z</time>
      </trkpt>
      <trkpt lat="45.93222" lon="4.72671">
        <ele>169</ele>
        <time>2016-09-14T08:05:20Z</time>
      </trkpt>
      <trkpt lat="45.93227" lon="4.72666">
        <ele>169</ele>
        <time>2016-09-14T08:05:21Z</time>
      </trkpt>
      <trkpt lat="45.93232" lon="4.72661">
        <ele>169</ele>
        <time>2016-09-14T08:05:22Z</time>
      </trkpt>
      <trkpt lat="45.93236" lon="4.72656">
        <ele>169</ele>
        <time>2016-09-14T08:05:23Z</time>
      </trkpt>
      <trkpt lat="45.93241" lon="4.7265">
        <ele>169</ele>
        <time>2016-09-14T08:05:24Z</time>
      </trkpt>
      <trkpt lat="45.93246" lon="4.72645">
        <ele>170</ele>
        <time>2016-09-14T08:05:25Z</time>
      </trkpt>
      <trkpt lat="45.93251" lon="4.7264">
        <ele>169</ele>
        <time>2016-09-14T08:05:26Z</time>
      </trkpt>
      <trkpt lat="45.93256" lon="4.72634">
        <ele>170</ele>
        <time>2016-09-14T08:05:27Z</time>
      </trkpt>
      <trkpt lat="45.9326" lon="4.72629">
        <ele>170</ele>
        <time>2016-09-14T08:05:28Z</time>
      </trkpt>
      <trkpt lat="45.93264" lon="4.72623">
        <ele>170</ele>
        <time>2016-09-14T08:05:29Z</time>
      </trkpt>
      <trkpt lat="45.93269" lon="4.72618">
        <ele>170</ele>
        <time>2016-09-14T08:05:30Z</time>
      </trkpt>
      <trkpt lat="45.93274" lon="4.72613">
        <ele>170</ele>
        <time>2016-09-14T08:05:31Z</time>
      </trkpt>
      <trkpt lat="45.93279" lon="4.72607">
        <ele>170</ele>
        <time>2016-09-14T08:05:32Z</time>
      </trkpt>
      <trkpt lat="45.93284" lon="4.72601">
        <ele>170</ele>
        <time>2016-09-14T08:05:33Z</time>
      </trkpt>
      <trkpt lat="45.93289" lon="4.72596">
        <ele>170</ele>
        <time>2016-09-14T08:05:34Z</time>
      </trkpt>
      <trkpt lat="45.93294" lon="4.7259">
        <ele>170</ele>
        <time>2016-09-14T08:05:35Z</time>
      </trkpt>
      <trkpt lat="45.93299" lon="4.72584">
        <ele>170</ele>
        <time>2016-09-14T08:05:36Z</time>
      </trkpt>
      <trkpt lat="45.93303" lon="4.72579">
        <ele>171</ele>
        <time>2016-09-14T08:05:37Z</time>
      </trkpt>
      <trkpt lat="45.93308" lon="4.72574">
        <ele>171</ele>
        <time>2016-09-14T08:05:38Z</time>
      </trkpt>
      <trkpt lat="45.93313" lon="4.72569">
        <ele>171</ele>
        <time>2016-09-14T08:05:39Z</time>
      </trkpt>
      <trkpt lat="45.93317" lon="4.72564">
        <ele>171</ele>
        <time>2016-09-14T08:05:40Z</time>
      </trkpt>
      <trkpt lat="45.93321" lon="4.7256">
        <ele>171</ele>
        <time>2016-09-14T08:05:41Z</time>
      </trkpt>
      <trkpt lat="45.93325" lon="4.72555">
        <ele>171</ele>
        <time>2016-09-14T08:05:42Z</time>
      </trkpt>
      <trkpt lat="45.93329" lon="4.7255">
        <ele>172</ele>
        <time>2016-09-14T08:05:43Z</time>
      </trkpt>
      <trkpt lat="45.93332" lon="4.72546">
        <ele>172</ele>
        <time>2016-09-14T08:05:44Z</time>
      </trkpt>
      <trkpt lat="45.93335" lon="4.72542">
        <ele>171</ele>
        <time>2016-09-14T08:05:45Z</time>
      </trkpt>
      <trkpt lat="45.93339" lon="4.72537">
        <ele>171</ele>
        <time>2016-09-14T08:05:46Z</time>
      </trkpt>
      <trkpt lat="45.93344" lon="4.72532">
        <ele>172</ele>
        <time>2016-09-14T08:05:47Z</time>
      </trkpt>
      <trkpt lat="45.93348" lon="4.72527">
        <ele>172</ele>
        <time>2016-09-14T08:05:48Z</time>
      </trkpt>
      <trkpt lat="45.93352" lon="4.72521">
        <ele>172</ele>
        <time>2016-09-14T08:05:49Z</time>
      </trkpt>
      <trkpt lat="45.93357" lon="4.72516">
        <ele>172</ele>
        <time>2016-09-14T08:05:50Z</time>
      </trkpt>
      <trkpt lat="45.93361" lon="4.7251">
        <ele>172</ele>
        <time>2016-09-14T08:05:51Z</time>
      </trkpt>
      <trkpt lat="45.93365" lon="4.72505">
        <ele>172</ele>
        <time>2016-09-14T08:05:52Z</time>
      </trkpt>
      <trkpt lat="45.9337" lon="4.72499">
        <ele>173</ele>
        <time>2016-09-14T08:05:53Z</time>
      </trkpt>
      <trkpt lat="45.93374" lon="4.72494">
        <ele>173</ele>
        <time>2016-09-14T08:05:54Z</time>
      </trkpt>
      <trkpt lat="45.93378" lon="4.72488">
        <ele>173</ele>
        <time>2016-09-14T08:05:55Z</time>
      </trkpt>
      <trkpt lat="45.93383" lon="4.72483">
        <ele>173</ele>
        <time>2016-09-14T08:05:56Z</time>
      </trkpt>
      <trkpt lat="45.93388" lon="4.72478">
        <ele>173</ele>
        <time>2016-09-14T08:05:57Z</time>
      </trkpt>
      <trkpt lat="45.93392" lon="4.72472">
        <ele>173</ele>
        <time>2016-09-14T08:05:58Z</time>
      </trkpt>
      <trkpt lat="45.93395" lon="4.72465">
        <ele>173</ele>
        <time>2016-09-14T08:05:59Z</time>
      </trkpt>
      <trkpt lat="45.93397" lon="4.72457">
        <ele>173</ele>
        <time>2016-09-14T08:06:00Z</time>
      </trkpt>
      <trkpt lat="45.93398" lon="4.7245">
        <ele>173</ele>
        <time>2016-09-14T08:06:01Z</time>
      </trkpt>
      <trkpt lat="45.934" lon="4.72443">
        <ele>173</ele>
        <time>2016-09-14T08:06:02Z</time>
      </trkpt>
      <trkpt lat="45.93403" lon="4.72436">
        <ele>173</ele>
        <time>2016-09-14T08:06:03Z</time>
      </trkpt>
      <trkpt lat="45.93406" lon="4.7243">
        <ele>173</ele>
        <time>2016-09-14T08:06:04Z</time>
      </trkpt>
      <trkpt lat="45.93411" lon="4.72424">
        <ele>174</ele>
        <time>2016-09-14T08:06:05Z</time>
      </trkpt>
      <trkpt lat="45.93415" lon="4.7242">
        <ele>174</ele>
        <time>2016-09-14T08:06:06Z</time>
      </trkpt>
      <trkpt lat="45.9342" lon="4.72417">
        <ele>174</ele>
        <time>2016-09-14T08:06:07Z</time>
      </trkpt>
      <trkpt lat="45.93425" lon="4.72414">
        <ele>174</ele>
        <time>2016-09-14T08:06:08Z</time>
      </trkpt>
      <trkpt lat="45.9343" lon="4.72412">
        <ele>174</ele>
        <time>2016-09-14T08:06:09Z</time>
      </trkpt>
      <trkpt lat="45.93435" lon="4.72409">
        <ele>174</ele>
        <time>2016-09-14T08:06:10Z</time>
      </trkpt>
      <trkpt lat="45.9344" lon="4.72406">
        <ele>173</ele>
        <time>2016-09-14T08:06:11Z</time>
      </trkpt>
      <trkpt lat="45.93446" lon="4.72403">
        <ele>173</ele>
        <time>2016-09-14T08:06:12Z</time>
      </trkpt>
      <trkpt lat="45.93451" lon="4.72399">
        <ele>173</ele>
        <time>2016-09-14T08:06:13Z</time>
      </trkpt>
      <trkpt lat="45.93456" lon="4.72395">
        <ele>173</ele>
        <time>2016-09-14T08:06:14Z</time>
      </trkpt>
      <trkpt lat="45.93461" lon="4.7239">
        <ele>173</ele>
        <time>2016-09-14T08:06:15Z</time>
      </trkpt>
      <trkpt lat="45.93465" lon="4.72384">
        <ele>173</ele>
        <time>2016-09-14T08:06:16Z</time>
      </trkpt>
      <trkpt lat="45.9347" lon="4.72379">
        <ele>173</ele>
        <time>2016-09-14T08:06:17Z</time>
      </trkpt>
      <trkpt lat="45.93474" lon="4.72373">
        <ele>173</ele>
        <time>2016-09-14T08:06:18Z</time>
      </trkpt>
      <trkpt lat="45.93478" lon="4.72367">
        <ele>173</ele>
        <time>2016-09-14T08:06:19Z</time>
      </trkpt>
      <trkpt lat="45.93483" lon="4.72362">
        <ele>173</ele>
        <time>2016-09-14T08:06:20Z</time>
      </trkpt>
      <trkpt lat="45.93486" lon="4.72355">
        <ele>173</ele>
        <time>2016-09-14T08:06:21Z</time>
      </trkpt>
      <trkpt lat="45.9349" lon="4.72349">
        <ele>173</ele>
        <time>2016-09-14T08:06:22Z</time>
      </trkpt>
      <trkpt lat="45.93495" lon="4.72344">
        <ele>173</ele>
        <time>2016-09-14T08:06:23Z</time>
      </trkpt>
      <trkpt lat="45.93499" lon="4.72339">
        <ele>173</ele>
        <time>2016-09-14T08:06:24Z</time>
      </trkpt>
      <trkpt lat="45.93503" lon="4.72333">
        <ele>173</ele>
        <time>2016-09-14T08:06:25Z</time>
      </trkpt>
      <trkpt lat="45.93507" lon="4.72326">
        <ele>173</ele>
        <time>2016-09-14T08:06:26Z</time>
      </trkpt>
      <trkpt lat="45.93512" lon="4.7232">
        <ele>173</ele>
        <time>2016-09-14T08:06:27Z</time>
      </trkpt>
      <trkpt lat="45.93516" lon="4.72315">
        <ele>173</ele>
        <time>2016-09-14T08:06:28Z</time>
      </trkpt>
      <trkpt lat="45.9352" lon="4.72308">
        <ele>173</ele>
        <time>2016-09-14T08:06:29Z</time>
      </trkpt>
      <trkpt lat="45.93524" lon="4.72302">
        <ele>172</ele>
        <time>2016-09-14T08:06:30Z</time>
      </trkpt>
      <trkpt lat="45.93527" lon="4.72295">
        <ele>172</ele>
        <time>2016-09-14T08:06:31Z</time>
      </trkpt>
      <trkpt lat="45.93529" lon="4.72287">
        <ele>172</ele>
        <time>2016-09-14T08:06:32Z</time>
      </trkpt>
      <trkpt lat="45.93532" lon="4.72281">
        <ele>172</ele>
        <time>2016-09-14T08:06:33Z</time>
      </trkpt>
      <trkpt lat="45.93534" lon="4.72274">
        <ele>172</ele>
        <time>2016-09-14T08:06:34Z</time>
      </trkpt>
      <trkpt lat="45.93537" lon="4.72268">
        <ele>172</ele>
        <time>2016-09-14T08:06:35Z</time>
      </trkpt>
      <trkpt lat="45.93539" lon="4.72263">
        <ele>172</ele>
        <time>2016-09-14T08:06:36Z</time>
      </trkpt>
      <trkpt lat="45.93541" lon="4.72257">
        <ele>172</ele>
        <time>2016-09-14T08:06:37Z</time>
      </trkpt>
      <trkpt lat="45.93544" lon="4.72252">
        <ele>172</ele>
        <time>2016-09-14T08:06:38Z</time>
      </trkpt>
      <trkpt lat="45.93546" lon="4.72246">
        <ele>172</ele>
        <time>2016-09-14T08:06:39Z</time>
      </trkpt>
      <trkpt lat="45.93548" lon="4.7224">
        <ele>172</ele>
        <time>2016-09-14T08:06:40Z</time>
      </trkpt>
      <trkpt lat="45.93551" lon="4.72234">
        <ele>172</ele>
        <time>2016-09-14T08:06:41Z</time>
      </trkpt>
      <trkpt lat="45.93554" lon="4.72228">
        <ele>173</ele>
        <time>2016-09-14T08:06:42Z</time>
      </trkpt>
      <trkpt lat="45.93559" lon="4.72225">
        <ele>173</ele>
        <time>2016-09-14T08:06:43Z</time>
      </trkpt>
      <trkpt lat="45.93565" lon="4.72224">
        <ele>173</ele>
        <time>2016-09-14T08:06:44Z</time>
      </trkpt>
      <trkpt lat="45.9357" lon="4.72227">
        <ele>173</ele>
        <time>2016-09-14T08:06:45Z</time>
      </trkpt>
      <trkpt lat="45.93574" lon="4.72232">
        <ele>173</ele>
        <time>2016-09-14T08:06:46Z</time>
      </trkpt>
      <trkpt lat="45.93577" lon="4.72237">
        <ele>173</ele>
        <time>2016-09-14T08:06:47Z</time>
      </trkpt>
      <trkpt lat="45.93581" lon="4.72243">
        <ele>173</ele>
        <time>2016-09-14T08:06:48Z</time>
      </trkpt>
      <trkpt lat="45.93584" lon="4.72247">
        <ele>173</ele>
        <time>2016-09-14T08:06:49Z</time>
      </trkpt>
      <trkpt lat="45.93591" lon="4.72255">
        <ele>173</ele>
        <time>2016-09-14T08:06:51Z</time>
      </trkpt>
      <trkpt lat="45.93595" lon="4.72259">
        <ele>173</ele>
        <time>2016-09-14T08:06:52Z</time>
      </trkpt>
      <trkpt lat="45.93599" lon="4.72263">
        <ele>173</ele>
        <time>2016-09-14T08:06:53Z</time>
      </trkpt>
      <trkpt lat="45.93602" lon="4.72267">
        <ele>173</ele>
        <time>2016-09-14T08:06:54Z</time>
      </trkpt>
      <trkpt lat="45.93607" lon="4.72271">
        <ele>172</ele>
        <time>2016-09-14T08:06:55Z</time>
      </trkpt>
      <trkpt lat="45.93611" lon="4.72275">
        <ele>172</ele>
        <time>2016-09-14T08:06:56Z</time>
      </trkpt>
      <trkpt lat="45.93615" lon="4.72279">
        <ele>172</ele>
        <time>2016-09-14T08:06:57Z</time>
      </trkpt>
      <trkpt lat="45.93619" lon="4.72284">
        <ele>172</ele>
        <time>2016-09-14T08:06:58Z</time>
      </trkpt>
      <trkpt lat="45.93623" lon="4.72288">
        <ele>172</ele>
        <time>2016-09-14T08:06:59Z</time>
      </trkpt>
      <trkpt lat="45.93627" lon="4.72292">
        <ele>172</ele>
        <time>2016-09-14T08:07:00Z</time>
      </trkpt>
      <trkpt lat="45.93632" lon="4.72296">
        <ele>172</ele>
        <time>2016-09-14T08:07:01Z</time>
      </trkpt>
      <trkpt lat="45.93636" lon="4.723">
        <ele>172</ele>
        <time>2016-09-14T08:07:02Z</time>
      </trkpt>
      <trkpt lat="45.93641" lon="4.72304">
        <ele>172</ele>
        <time>2016-09-14T08:07:03Z</time>
      </trkpt>
      <trkpt lat="45.93648" lon="4.72309">
        <ele>172</ele>
        <time>2016-09-14T08:07:04Z</time>
      </trkpt>
      <trkpt lat="45.93653" lon="4.72313">
        <ele>172</ele>
        <time>2016-09-14T08:07:05Z</time>
      </trkpt>
      <trkpt lat="45.93657" lon="4.72317">
        <ele>172</ele>
        <time>2016-09-14T08:07:06Z</time>
      </trkpt>
      <trkpt lat="45.93661" lon="4.7232">
        <ele>172</ele>
        <time>2016-09-14T08:07:07Z</time>
      </trkpt>
      <trkpt lat="45.93664" lon="4.72326">
        <ele>171</ele>
        <time>2016-09-14T08:07:08Z</time>
      </trkpt>
      <trkpt lat="45.93669" lon="4.7233">
        <ele>171</ele>
        <time>2016-09-14T08:07:09Z</time>
      </trkpt>
      <trkpt lat="45.93674" lon="4.72335">
        <ele>171</ele>
        <time>2016-09-14T08:07:10Z</time>
      </trkpt>
      <trkpt lat="45.93678" lon="4.72339">
        <ele>171</ele>
        <time>2016-09-14T08:07:11Z</time>
      </trkpt>
      <trkpt lat="45.93682" lon="4.72343">
        <ele>171</ele>
        <time>2016-09-14T08:07:12Z</time>
      </trkpt>
      <trkpt lat="45.9369" lon="4.72346">
        <ele>171</ele>
        <time>2016-09-14T08:07:14Z</time>
      </trkpt>
      <trkpt lat="45.93694" lon="4.72348">
        <ele>171</ele>
        <time>2016-09-14T08:07:15Z</time>
      </trkpt>
      <trkpt lat="45.93697" lon="4.72352">
        <ele>171</ele>
        <time>2016-09-14T08:07:16Z</time>
      </trkpt>
      <trkpt lat="45.93702" lon="4.72356">
        <ele>171</ele>
        <time>2016-09-14T08:07:17Z</time>
      </trkpt>
      <trkpt lat="45.93709" lon="4.72361">
        <ele>172</ele>
        <time>2016-09-14T08:07:19Z</time>
      </trkpt>
      <trkpt lat="45.93712" lon="4.72362">
        <ele>172</ele>
        <time>2016-09-14T08:07:20Z</time>
      </trkpt>
      <trkpt lat="45.93719" lon="4.72363">
        <ele>172</ele>
        <time>2016-09-14T08:07:22Z</time>
      </trkpt>
      <trkpt lat="45.93725" lon="4.72361">
        <ele>172</ele>
        <time>2016-09-14T08:07:23Z</time>
      </trkpt>
      <trkpt lat="45.93728" lon="4.72357">
        <ele>172</ele>
        <time>2016-09-14T08:07:24Z</time>
      </trkpt>
      <trkpt lat="45.93731" lon="4.72352">
        <ele>172</ele>
        <time>2016-09-14T08:07:25Z</time>
      </trkpt>
      <trkpt lat="45.93735" lon="4.72346">
        <ele>172</ele>
        <time>2016-09-14T08:07:26Z</time>
      </trkpt>
      <trkpt lat="45.93738" lon="4.7234">
        <ele>172</ele>
        <time>2016-09-14T08:07:27Z</time>
      </trkpt>
      <trkpt lat="45.93742" lon="4.72334">
        <ele>172</ele>
        <time>2016-09-14T08:07:28Z</time>
      </trkpt>
      <trkpt lat="45.93746" lon="4.72327">
        <ele>172</ele>
        <time>2016-09-14T08:07:29Z</time>
      </trkpt>
      <trkpt lat="45.9375" lon="4.7232">
        <ele>172</ele>
        <time>2016-09-14T08:07:30Z</time>
      </trkpt>
      <trkpt lat="45.93753" lon="4.72312">
        <ele>172</ele>
        <time>2016-09-14T08:07:31Z</time>
      </trkpt>
      <trkpt lat="45.93757" lon="4.72305">
        <ele>172</ele>
        <time>2016-09-14T08:07:32Z</time>
      </trkpt>
      <trkpt lat="45.9376" lon="4.72298">
        <ele>172</ele>
        <time>2016-09-14T08:07:33Z</time>
      </trkpt>
      <trkpt lat="45.93764" lon="4.7229">
        <ele>172</ele>
        <time>2016-09-14T08:07:34Z</time>
      </trkpt>
      <trkpt lat="45.93767" lon="4.72283">
        <ele>172</ele>
        <time>2016-09-14T08:07:35Z</time>
      </trkpt>
      <trkpt lat="45.9377" lon="4.72276">
        <ele>172</ele>
        <time>2016-09-14T08:07:36Z</time>
      </trkpt>
      <trkpt lat="45.93774" lon="4.72269">
        <ele>172</ele>
        <time>2016-09-14T08:07:37Z</time>
      </trkpt>
      <trkpt lat="45.93778" lon="4.72262">
        <ele>172</ele>
        <time>2016-09-14T08:07:38Z</time>
      </trkpt>
      <trkpt lat="45.93781" lon="4.72255">
        <ele>172</ele>
        <time>2016-09-14T08:07:39Z</time>
      </trkpt>
      <trkpt lat="45.93784" lon="4.72248">
        <ele>172</ele>
        <time>2016-09-14T08:07:40Z</time>
      </trkpt>
      <trkpt lat="45.93787" lon="4.72242">
        <ele>172</ele>
        <time>2016-09-14T08:07:41Z</time>
      </trkpt>
      <trkpt lat="45.93791" lon="4.72236">
        <ele>172</ele>
        <time>2016-09-14T08:07:42Z</time>
      </trkpt>
      <trkpt lat="45.93794" lon="4.72231">
        <ele>172</ele>
        <time>2016-09-14T08:07:43Z</time>
      </trkpt>
      <trkpt lat="45.93797" lon="4.72225">
        <ele>172</ele>
        <time>2016-09-14T08:07:44Z</time>
      </trkpt>
      <trkpt lat="45.938" lon="4.7222">
        <ele>172</ele>
        <time>2016-09-14T08:07:45Z</time>
      </trkpt>
      <trkpt lat="45.93804" lon="4.72215">
        <ele>172</ele>
        <time>2016-09-14T08:07:46Z</time>
      </trkpt>
      <trkpt lat="45.93807" lon="4.72211">
        <ele>172</ele>
        <time>2016-09-14T08:07:47Z</time>
      </trkpt>
      <trkpt lat="45.93813" lon="4.72204">
        <ele>172</ele>
        <time>2016-09-14T08:07:49Z</time>
      </trkpt>
      <trkpt lat="45.93815" lon="4.72198">
        <ele>172</ele>
        <time>2016-09-14T08:07:50Z</time>
      </trkpt>
      <trkpt lat="45.93816" lon="4.72192">
        <ele>172</ele>
        <time>2016-09-14T08:07:51Z</time>
      </trkpt>
      <trkpt lat="45.93817" lon="4.72185">
        <ele>172</ele>
        <time>2016-09-14T08:07:52Z</time>
      </trkpt>
      <trkpt lat="45.93821" lon="4.72174">
        <ele>172</ele>
        <time>2016-09-14T08:07:54Z</time>
      </trkpt>
      <trkpt lat="45.93825" lon="4.72171">
        <ele>171</ele>
        <time>2016-09-14T08:07:55Z</time>
      </trkpt>
      <trkpt lat="45.93832" lon="4.72164">
        <ele>171</ele>
        <time>2016-09-14T08:07:57Z</time>
      </trkpt>
      <trkpt lat="45.93834" lon="4.72161">
        <ele>171</ele>
        <time>2016-09-14T08:07:58Z</time>
      </trkpt>
      <trkpt lat="45.9384" lon="4.72151">
        <ele>171</ele>
        <time>2016-09-14T08:08:01Z</time>
      </trkpt>
      <trkpt lat="45.93841" lon="4.7215">
        <ele>171</ele>
        <time>2016-09-14T08:08:02Z</time>
      </trkpt>
      <trkpt lat="45.93847" lon="4.72144">
        <ele>172</ele>
        <time>2016-09-14T08:08:05Z</time>
      </trkpt>
      <trkpt lat="45.93849" lon="4.72141">
        <ele>172</ele>
        <time>2016-09-14T08:08:06Z</time>
      </trkpt>
      <trkpt lat="45.93855" lon="4.72132">
        <ele>172</ele>
        <time>2016-09-14T08:08:08Z</time>
      </trkpt>
      <trkpt lat="45.93858" lon="4.72128">
        <ele>172</ele>
        <time>2016-09-14T08:08:09Z</time>
      </trkpt>
      <trkpt lat="45.93864" lon="4.7212">
        <ele>172</ele>
        <time>2016-09-14T08:08:11Z</time>
      </trkpt>
      <trkpt lat="45.93867" lon="4.72117">
        <ele>172</ele>
        <time>2016-09-14T08:08:12Z</time>
      </trkpt>
      <trkpt lat="45.93874" lon="4.72109">
        <ele>172</ele>
        <time>2016-09-14T08:08:16Z</time>
      </trkpt>
      <trkpt lat="45.93875" lon="4.72107">
        <ele>172</ele>
        <time>2016-09-14T08:08:17Z</time>
      </trkpt>
      <trkpt lat="45.93879" lon="4.721">
        <ele>172</ele>
        <time>2016-09-14T08:08:19Z</time>
      </trkpt>
      <trkpt lat="45.93882" lon="4.72096">
        <ele>172</ele>
        <time>2016-09-14T08:08:20Z</time>
      </trkpt>
      <trkpt lat="45.93887" lon="4.72088">
        <ele>172</ele>
        <time>2016-09-14T08:08:22Z</time>
      </trkpt>
      <trkpt lat="45.93891" lon="4.72085">
        <ele>172</ele>
        <time>2016-09-14T08:08:23Z</time>
      </trkpt>
      <trkpt lat="45.93897" lon="4.72078">
        <ele>172</ele>
        <time>2016-09-14T08:08:25Z</time>
      </trkpt>
      <trkpt lat="45.939" lon="4.72075">
        <ele>172</ele>
        <time>2016-09-14T08:08:26Z</time>
      </trkpt>
      <trkpt lat="45.93907" lon="4.72068">
        <ele>172</ele>
        <time>2016-09-14T08:08:28Z</time>
      </trkpt>
      <trkpt lat="45.93911" lon="4.72064">
        <ele>172</ele>
        <time>2016-09-14T08:08:29Z</time>
      </trkpt>
      <trkpt lat="45.93916" lon="4.72059">
        <ele>172</ele>
        <time>2016-09-14T08:08:30Z</time>
      </trkpt>
      <trkpt lat="45.93921" lon="4.72055">
        <ele>172</ele>
        <time>2016-09-14T08:08:31Z</time>
      </trkpt>
      <trkpt lat="45.93926" lon="4.72049">
        <ele>172</ele>
        <time>2016-09-14T08:08:32Z</time>
      </trkpt>
      <trkpt lat="45.93931" lon="4.72043">
        <ele>172</ele>
        <time>2016-09-14T08:08:33Z</time>
      </trkpt>
      <trkpt lat="45.93935" lon="4.72037">
        <ele>172</ele>
        <time>2016-09-14T08:08:34Z</time>
      </trkpt>
      <trkpt lat="45.9394" lon="4.72031">
        <ele>172</ele>
        <time>2016-09-14T08:08:35Z</time>
      </trkpt>
      <trkpt lat="45.93944" lon="4.72026">
        <ele>172</ele>
        <time>2016-09-14T08:08:36Z</time>
      </trkpt>
      <trkpt lat="45.93949" lon="4.7202">
        <ele>172</ele>
        <time>2016-09-14T08:08:37Z</time>
      </trkpt>
      <trkpt lat="45.93954" lon="4.72016">
        <ele>172</ele>
        <time>2016-09-14T08:08:38Z</time>
      </trkpt>
      <trkpt lat="45.93959" lon="4.72011">
        <ele>172</ele>
        <time>2016-09-14T08:08:39Z</time>
      </trkpt>
      <trkpt lat="45.93964" lon="4.72007">
        <ele>172</ele>
        <time>2016-09-14T08:08:40Z</time>
      </trkpt>
      <trkpt lat="45.93969" lon="4.72001">
        <ele>172</ele>
        <time>2016-09-14T08:08:41Z</time>
      </trkpt>
      <trkpt lat="45.93974" lon="4.71995">
        <ele>173</ele>
        <time>2016-09-14T08:08:42Z</time>
      </trkpt>
      <trkpt lat="45.93978" lon="4.71988">
        <ele>173</ele>
        <time>2016-09-14T08:08:43Z</time>
      </trkpt>
      <trkpt lat="45.93983" lon="4.71982">
        <ele>173</ele>
        <time>2016-09-14T08:08:44Z</time>
      </trkpt>
      <trkpt lat="45.93987" lon="4.71976">
        <ele>173</ele>
        <time>2016-09-14T08:08:45Z</time>
      </trkpt>
      <trkpt lat="45.93991" lon="4.71971">
        <ele>173</ele>
        <time>2016-09-14T08:08:46Z</time>
      </trkpt>
      <trkpt lat="45.93995" lon="4.71969">
        <ele>173</ele>
        <time>2016-09-14T08:08:47Z</time>
      </trkpt>
      <trkpt lat="45.93999" lon="4.7197">
        <ele>173</ele>
        <time>2016-09-14T08:08:48Z</time>
      </trkpt>
      <trkpt lat="45.94003" lon="4.71974">
        <ele>174</ele>
        <time>2016-09-14T08:08:49Z</time>
      </trkpt>
      <trkpt lat="45.94007" lon="4.71979">
        <ele>174</ele>
        <time>2016-09-14T08:08:50Z</time>
      </trkpt>
      <trkpt lat="45.94011" lon="4.71984">
        <ele>174</ele>
        <time>2016-09-14T08:08:51Z</time>
      </trkpt>
      <trkpt lat="45.94015" lon="4.71989">
        <ele>174</ele>
        <time>2016-09-14T08:08:52Z</time>
      </trkpt>
      <trkpt lat="45.94018" lon="4.71995">
        <ele>174</ele>
        <time>2016-09-14T08:08:53Z</time>
      </trkpt>
      <trkpt lat="45.94022" lon="4.72001">
        <ele>173</ele>
        <time>2016-09-14T08:08:54Z</time>
      </trkpt>
      <trkpt lat="45.94024" lon="4.72005">
        <ele>173</ele>
        <time>2016-09-14T08:08:55Z</time>
      </trkpt>
      <trkpt lat="45.94027" lon="4.72011">
        <ele>173</ele>
        <time>2016-09-14T08:08:56Z</time>
      </trkpt>
      <trkpt lat="45.94031" lon="4.72017">
        <ele>173</ele>
        <time>2016-09-14T08:08:57Z</time>
      </trkpt>
      <trkpt lat="45.94033" lon="4.72024">
        <ele>173</ele>
        <time>2016-09-14T08:08:58Z</time>
      </trkpt>
      <trkpt lat="45.94036" lon="4.7203">
        <ele>173</ele>
        <time>2016-09-14T08:08:59Z</time>
      </trkpt>
      <trkpt lat="45.94039" lon="4.72035">
        <ele>173</ele>
        <time>2016-09-14T08:09:00Z</time>
      </trkpt>
      <trkpt lat="45.94042" lon="4.72039">
        <ele>173</ele>
        <time>2016-09-14T08:09:01Z</time>
      </trkpt>
      <trkpt lat="45.94048" lon="4.72042">
        <ele>173</ele>
        <time>2016-09-14T08:09:03Z</time>
      </trkpt>
      <trkpt lat="45.94052" lon="4.72041">
        <ele>173</ele>
        <time>2016-09-14T08:09:04Z</time>
      </trkpt>
      <trkpt lat="45.94057" lon="4.72037">
        <ele>173</ele>
        <time>2016-09-14T08:09:05Z</time>
      </trkpt>
      <trkpt lat="45.9406" lon="4.72032">
        <ele>174</ele>
        <time>2016-09-14T08:09:06Z</time>
      </trkpt>
      <trkpt lat="45.94064" lon="4.72027">
        <ele>174</ele>
        <time>2016-09-14T08:09:07Z</time>
      </trkpt>
      <trkpt lat="45.94069" lon="4.72023">
        <ele>174</ele>
        <time>2016-09-14T08:09:08Z</time>
      </trkpt>
      <trkpt lat="45.94073" lon="4.72017">
        <ele>174</ele>
        <time>2016-09-14T08:09:09Z</time>
      </trkpt>
      <trkpt lat="45.94078" lon="4.72013">
        <ele>174</ele>
        <time>2016-09-14T08:09:10Z</time>
      </trkpt>
      <trkpt lat="45.94082" lon="4.72008">
        <ele>175</ele>
        <time>2016-09-14T08:09:11Z</time>
      </trkpt>
      <trkpt lat="45.94087" lon="4.72003">
        <ele>175</ele>
        <time>2016-09-14T08:09:12Z</time>
      </trkpt>
      <trkpt lat="45.94091" lon="4.71998">
        <ele>175</ele>
        <time>2016-09-14T08:09:13Z</time>
      </trkpt>
      <trkpt lat="45.94095" lon="4.71993">
        <ele>174</ele>
        <time>2016-09-14T08:09:14Z</time>
      </trkpt>
      <trkpt lat="45.941" lon="4.71988">
        <ele>174</ele>
        <time>2016-09-14T08:09:15Z</time>
      </trkpt>
      <trkpt lat="45.94104" lon="4.71982">
        <ele>174</ele>
        <time>2016-09-14T08:09:16Z</time>
      </trkpt>
      <trkpt lat="45.94108" lon="4.71978">
        <ele>174</ele>
        <time>2016-09-14T08:09:17Z</time>
      </trkpt>
      <trkpt lat="45.94112" lon="4.71974">
        <ele>174</ele>
        <time>2016-09-14T08:09:18Z</time>
      </trkpt>
      <trkpt lat="45.94117" lon="4.71971">
        <ele>174</ele>
        <time>2016-09-14T08:09:19Z</time>
      </trkpt>
      <trkpt lat="45.94123" lon="4.7197">
        <ele>174</ele>
        <time>2016-09-14T08:09:20Z</time>
      </trkpt>
      <trkpt lat="45.94129" lon="4.71971">
        <ele>174</ele>
        <time>2016-09-14T08:09:21Z</time>
      </trkpt>
      <trkpt lat="45.94134" lon="4.71973">
        <ele>174</ele>
        <time>2016-09-14T08:09:22Z</time>
      </trkpt>
      <trkpt lat="45.94139" lon="4.71976">
        <ele>174</ele>
        <time>2016-09-14T08:09:23Z</time>
      </trkpt>
      <trkpt lat="45.94143" lon="4.71981">
        <ele>174</ele>
        <time>2016-09-14T08:09:24Z</time>
      </trkpt>
      <trkpt lat="45.94148" lon="4.71989">
        <ele>173</ele>
        <time>2016-09-14T08:09:26Z</time>
      </trkpt>
      <trkpt lat="45.9415" lon="4.71995">
        <ele>173</ele>
        <time>2016-09-14T08:09:27Z</time>
      </trkpt>
      <trkpt lat="45.94155" lon="4.72005">
        <ele>173</ele>
        <time>2016-09-14T08:09:29Z</time>
      </trkpt>
      <trkpt lat="45.94157" lon="4.72011">
        <ele>173</ele>
        <time>2016-09-14T08:09:30Z</time>
      </trkpt>
      <trkpt lat="45.94161" lon="4.7202">
        <ele>173</ele>
        <time>2016-09-14T08:09:32Z</time>
      </trkpt>
      <trkpt lat="45.94163" lon="4.72025">
        <ele>173</ele>
        <time>2016-09-14T08:09:33Z</time>
      </trkpt>
      <trkpt lat="45.94167" lon="4.72035">
        <ele>173</ele>
        <time>2016-09-14T08:09:35Z</time>
      </trkpt>
      <trkpt lat="45.94169" lon="4.72039">
        <ele>173</ele>
        <time>2016-09-14T08:09:36Z</time>
      </trkpt>
      <trkpt lat="45.94172" lon="4.72048">
        <ele>173</ele>
        <time>2016-09-14T08:09:38Z</time>
      </trkpt>
      <trkpt lat="45.94174" lon="4.72052">
        <ele>173</ele>
        <time>2016-09-14T08:09:39Z</time>
      </trkpt>
      <trkpt lat="45.94178" lon="4.72062">
        <ele>173</ele>
        <time>2016-09-14T08:09:41Z</time>
      </trkpt>
      <trkpt lat="45.9418" lon="4.72067">
        <ele>173</ele>
        <time>2016-09-14T08:09:42Z</time>
      </trkpt>
      <trkpt lat="45.94182" lon="4.72073">
        <ele>173</ele>
        <time>2016-09-14T08:09:43Z</time>
      </trkpt>
      <trkpt lat="45.94185" lon="4.72079">
        <ele>173</ele>
        <time>2016-09-14T08:09:44Z</time>
      </trkpt>
      <trkpt lat="45.94187" lon="4.72085">
        <ele>172</ele>
        <time>2016-09-14T08:09:45Z</time>
      </trkpt>
      <trkpt lat="45.9419" lon="4.72091">
        <ele>172</ele>
        <time>2016-09-14T08:09:46Z</time>
      </trkpt>
      <trkpt lat="45.94193" lon="4.72098">
        <ele>172</ele>
        <time>2016-09-14T08:09:47Z</time>
      </trkpt>
      <trkpt lat="45.94196" lon="4.72104">
        <ele>172</ele>
        <time>2016-09-14T08:09:48Z</time>
      </trkpt>
      <trkpt lat="45.94199" lon="4.72111">
        <ele>172</ele>
        <time>2016-09-14T08:09:49Z</time>
      </trkpt>
      <trkpt lat="45.94203" lon="4.72118">
        <ele>172</ele>
        <time>2016-09-14T08:09:50Z</time>
      </trkpt>
      <trkpt lat="45.94207" lon="4.72126">
        <ele>172</ele>
        <time>2016-09-14T08:09:51Z</time>
      </trkpt>
      <trkpt lat="45.94211" lon="4.72134">
        <ele>172</ele>
        <time>2016-09-14T08:09:52Z</time>
      </trkpt>
      <trkpt lat="45.94216" lon="4.72142">
        <ele>173</ele>
        <time>2016-09-14T08:09:53Z</time>
      </trkpt>
      <trkpt lat="45.94221" lon="4.72151">
        <ele>173</ele>
        <time>2016-09-14T08:09:54Z</time>
      </trkpt>
      <trkpt lat="45.94225" lon="4.7216">
        <ele>173</ele>
        <time>2016-09-14T08:09:55Z</time>
      </trkpt>
      <trkpt lat="45.94229" lon="4.7217">
        <ele>172</ele>
        <time>2016-09-14T08:09:56Z</time>
      </trkpt>
      <trkpt lat="45.94233" lon="4.7218">
        <ele>172</ele>
        <time>2016-09-14T08:09:57Z</time>
      </trkpt>
      <trkpt lat="45.94238" lon="4.72191">
        <ele>172</ele>
        <time>2016-09-14T08:09:58Z</time>
      </trkpt>
      <trkpt lat="45.94243" lon="4.72201">
        <ele>172</ele>
        <time>2016-09-14T08:09:59Z</time>
      </trkpt>
      <trkpt lat="45.94247" lon="4.72212">
        <ele>171</ele>
        <time>2016-09-14T08:10:00Z</time>
      </trkpt>
      <trkpt lat="45.94252" lon="4.72221">
        <ele>172</ele>
        <time>2016-09-14T08:10:01Z</time>
      </trkpt>
      <trkpt lat="45.94256" lon="4.7223">
        <ele>171</ele>
        <time>2016-09-14T08:10:02Z</time>
      </trkpt>
      <trkpt lat="45.9426" lon="4.72239">
        <ele>171</ele>
        <time>2016-09-14T08:10:03Z</time>
      </trkpt>
      <trkpt lat="45.94263" lon="4.72248">
        <ele>171</ele>
        <time>2016-09-14T08:10:04Z</time>
      </trkpt>
      <trkpt lat="45.94267" lon="4.72256">
        <ele>171</ele>
        <time>2016-09-14T08:10:05Z</time>
      </trkpt>
      <trkpt lat="45.94271" lon="4.72264">
        <ele>171</ele>
        <time>2016-09-14T08:10:06Z</time>
      </trkpt>
      <trkpt lat="45.94275" lon="4.72272">
        <ele>171</ele>
        <time>2016-09-14T08:10:07Z</time>
      </trkpt>
      <trkpt lat="45.94278" lon="4.7228">
        <ele>171</ele>
        <time>2016-09-14T08:10:08Z</time>
      </trkpt>
      <trkpt lat="45.94281" lon="4.72288">
        <ele>171</ele>
        <time>2016-09-14T08:10:09Z</time>
      </trkpt>
      <trkpt lat="45.94284" lon="4.72295">
        <ele>171</ele>
        <time>2016-09-14T08:10:10Z</time>
      </trkpt>
      <trkpt lat="45.94287" lon="4.72302">
        <ele>171</ele>
        <time>2016-09-14T08:10:11Z</time>
      </trkpt>
      <trkpt lat="45.94291" lon="4.72308">
        <ele>171</ele>
        <time>2016-09-14T08:10:12Z</time>
      </trkpt>
      <trkpt lat="45.94294" lon="4.72316">
        <ele>171</ele>
        <time>2016-09-14T08:10:13Z</time>
      </trkpt>
      <trkpt lat="45.94297" lon="4.72323">
        <ele>171</ele>
        <time>2016-09-14T08:10:14Z</time>
      </trkpt>
      <trkpt lat="45.943" lon="4.7233">
        <ele>171</ele>
        <time>2016-09-14T08:10:15Z</time>
      </trkpt>
      <trkpt lat="45.94304" lon="4.72337">
        <ele>172</ele>
        <time>2016-09-14T08:10:16Z</time>
      </trkpt>
      <trkpt lat="45.94308" lon="4.72344">
        <ele>172</ele>
        <time>2016-09-14T08:10:17Z</time>
      </trkpt>
      <trkpt lat="45.94311" lon="4.72352">
        <ele>172</ele>
        <time>2016-09-14T08:10:18Z</time>
      </trkpt>
      <trkpt lat="45.94315" lon="4.72359">
        <ele>172</ele>
        <time>2016-09-14T08:10:19Z</time>
      </trkpt>
      <trkpt lat="45.94318" lon="4.72365">
        <ele>172</ele>
        <time>2016-09-14T08:10:20Z</time>
      </trkpt>
      <trkpt lat="45.94322" lon="4.72372">
        <ele>172</ele>
        <time>2016-09-14T08:10:21Z</time>
      </trkpt>
      <trkpt lat="45.94325" lon="4.72379">
        <ele>172</ele>
        <time>2016-09-14T08:10:22Z</time>
      </trkpt>
      <trkpt lat="45.94329" lon="4.72386">
        <ele>172</ele>
        <time>2016-09-14T08:10:23Z</time>
      </trkpt>
      <trkpt lat="45.94332" lon="4.72394">
        <ele>172</ele>
        <time>2016-09-14T08:10:24Z</time>
      </trkpt>
      <trkpt lat="45.94334" lon="4.72401">
        <ele>173</ele>
        <time>2016-09-14T08:10:25Z</time>
      </trkpt>
      <trkpt lat="45.94337" lon="4.72408">
        <ele>173</ele>
        <time>2016-09-14T08:10:26Z</time>
      </trkpt>
      <trkpt lat="45.9434" lon="4.72415">
        <ele>173</ele>
        <time>2016-09-14T08:10:27Z</time>
      </trkpt>
      <trkpt lat="45.94343" lon="4.72421">
        <ele>173</ele>
        <time>2016-09-14T08:10:28Z</time>
      </trkpt>
      <trkpt lat="45.94346" lon="4.72429">
        <ele>173</ele>
        <time>2016-09-14T08:10:29Z</time>
      </trkpt>
      <trkpt lat="45.9435" lon="4.72436">
        <ele>173</ele>
        <time>2016-09-14T08:10:30Z</time>
      </trkpt>
      <trkpt lat="45.94353" lon="4.72443">
        <ele>173</ele>
        <time>2016-09-14T08:10:31Z</time>
      </trkpt>
      <trkpt lat="45.94356" lon="4.7245">
        <ele>173</ele>
        <time>2016-09-14T08:10:32Z</time>
      </trkpt>
      <trkpt lat="45.9436" lon="4.72456">
        <ele>173</ele>
        <time>2016-09-14T08:10:33Z</time>
      </trkpt>
      <trkpt lat="45.94363" lon="4.72463">
        <ele>173</ele>
        <time>2016-09-14T08:10:34Z</time>
      </trkpt>
      <trkpt lat="45.94366" lon="4.7247">
        <ele>173</ele>
        <time>2016-09-14T08:10:35Z</time>
      </trkpt>
      <trkpt lat="45.94369" lon="4.72477">
        <ele>173</ele>
        <time>2016-09-14T08:10:36Z</time>
      </trkpt>
      <trkpt lat="45.94372" lon="4.72484">
        <ele>173</ele>
        <time>2016-09-14T08:10:37Z</time>
      </trkpt>
      <trkpt lat="45.94375" lon="4.72492">
        <ele>173</ele>
        <time>2016-09-14T08:10:38Z</time>
      </trkpt>
      <trkpt lat="45.94377" lon="4.725">
        <ele>173</ele>
        <time>2016-09-14T08:10:39Z</time>
      </trkpt>
      <trkpt lat="45.9438" lon="4.72507">
        <ele>174</ele>
        <time>2016-09-14T08:10:40Z</time>
      </trkpt>
      <trkpt lat="45.94383" lon="4.72515">
        <ele>174</ele>
        <time>2016-09-14T08:10:41Z</time>
      </trkpt>
      <trkpt lat="45.94385" lon="4.72522">
        <ele>174</ele>
        <time>2016-09-14T08:10:42Z</time>
      </trkpt>
      <trkpt lat="45.94387" lon="4.7253">
        <ele>174</ele>
        <time>2016-09-14T08:10:43Z</time>
      </trkpt>
      <trkpt lat="45.94389" lon="4.72537">
        <ele>174</ele>
        <time>2016-09-14T08:10:44Z</time>
      </trkpt>
      <trkpt lat="45.9439" lon="4.72545">
        <ele>173</ele>
        <time>2016-09-14T08:10:45Z</time>
      </trkpt>
      <trkpt lat="45.94392" lon="4.72553">
        <ele>173</ele>
        <time>2016-09-14T08:10:46Z</time>
      </trkpt>
      <trkpt lat="45.94392" lon="4.72561">
        <ele>173</ele>
        <time>2016-09-14T08:10:47Z</time>
      </trkpt>
      <trkpt lat="45.94393" lon="4.72569">
        <ele>173</ele>
        <time>2016-09-14T08:10:48Z</time>
      </trkpt>
      <trkpt lat="45.94394" lon="4.72578">
        <ele>173</ele>
        <time>2016-09-14T08:10:49Z</time>
      </trkpt>
      <trkpt lat="45.94395" lon="4.72587">
        <ele>173</ele>
        <time>2016-09-14T08:10:50Z</time>
      </trkpt>
      <trkpt lat="45.94396" lon="4.72596">
        <ele>173</ele>
        <time>2016-09-14T08:10:51Z</time>
      </trkpt>
      <trkpt lat="45.94397" lon="4.72605">
        <ele>173</ele>
        <time>2016-09-14T08:10:52Z</time>
      </trkpt>
      <trkpt lat="45.94399" lon="4.72613">
        <ele>173</ele>
        <time>2016-09-14T08:10:53Z</time>
      </trkpt>
      <trkpt lat="45.944" lon="4.72621">
        <ele>173</ele>
        <time>2016-09-14T08:10:54Z</time>
      </trkpt>
      <trkpt lat="45.94401" lon="4.72629">
        <ele>174</ele>
        <time>2016-09-14T08:10:55Z</time>
      </trkpt>
      <trkpt lat="45.94402" lon="4.72637">
        <ele>174</ele>
        <time>2016-09-14T08:10:56Z</time>
      </trkpt>
      <trkpt lat="45.94403" lon="4.72645">
        <ele>174</ele>
        <time>2016-09-14T08:10:57Z</time>
      </trkpt>
      <trkpt lat="45.94404" lon="4.72652">
        <ele>174</ele>
        <time>2016-09-14T08:10:58Z</time>
      </trkpt>
      <trkpt lat="45.94404" lon="4.72661">
        <ele>174</ele>
        <time>2016-09-14T08:10:59Z</time>
      </trkpt>
      <trkpt lat="45.94404" lon="4.7267">
        <ele>173</ele>
        <time>2016-09-14T08:11:00Z</time>
      </trkpt>
      <trkpt lat="45.94405" lon="4.72678">
        <ele>173</ele>
        <time>2016-09-14T08:11:01Z</time>
      </trkpt>
      <trkpt lat="45.94406" lon="4.72686">
        <ele>173</ele>
        <time>2016-09-14T08:11:02Z</time>
      </trkpt>
      <trkpt lat="45.94407" lon="4.72695">
        <ele>173</ele>
        <time>2016-09-14T08:11:03Z</time>
      </trkpt>
      <trkpt lat="45.94409" lon="4.72703">
        <ele>172</ele>
        <time>2016-09-14T08:11:04Z</time>
      </trkpt>
      <trkpt lat="45.9441" lon="4.72711">
        <ele>172</ele>
        <time>2016-09-14T08:11:05Z</time>
      </trkpt>
      <trkpt lat="45.94411" lon="4.72719">
        <ele>172</ele>
        <time>2016-09-14T08:11:06Z</time>
      </trkpt>
      <trkpt lat="45.94412" lon="4.72728">
        <ele>172</ele>
        <time>2016-09-14T08:11:07Z</time>
      </trkpt>
      <trkpt lat="45.94412" lon="4.72736">
        <ele>171</ele>
        <time>2016-09-14T08:11:08Z</time>
      </trkpt>
      <trkpt lat="45.94413" lon="4.72744">
        <ele>171</ele>
        <time>2016-09-14T08:11:09Z</time>
      </trkpt>
      <trkpt lat="45.94414" lon="4.72753">
        <ele>171</ele>
        <time>2016-09-14T08:11:10Z</time>
      </trkpt>
      <trkpt lat="45.94415" lon="4.72761">
        <ele>170</ele>
        <time>2016-09-14T08:11:11Z</time>
      </trkpt>
      <trkpt lat="45.94416" lon="4.72769">
        <ele>169</ele>
        <time>2016-09-14T08:11:12Z</time>
      </trkpt>
      <trkpt lat="45.94417" lon="4.72777">
        <ele>169</ele>
        <time>2016-09-14T08:11:13Z</time>
      </trkpt>
      <trkpt lat="45.94417" lon="4.72784">
        <ele>169</ele>
        <time>2016-09-14T08:11:14Z</time>
      </trkpt>
      <trkpt lat="45.94417" lon="4.72792">
        <ele>168</ele>
        <time>2016-09-14T08:11:15Z</time>
      </trkpt>
      <trkpt lat="45.94417" lon="4.72799">
        <ele>167</ele>
        <time>2016-09-14T08:11:16Z</time>
      </trkpt>
      <trkpt lat="45.94418" lon="4.72806">
        <ele>167</ele>
        <time>2016-09-14T08:11:17Z</time>
      </trkpt>
      <trkpt lat="45.94419" lon="4.72813">
        <ele>167</ele>
        <time>2016-09-14T08:11:18Z</time>
      </trkpt>
      <trkpt lat="45.9442" lon="4.7282">
        <ele>167</ele>
        <time>2016-09-14T08:11:19Z</time>
      </trkpt>
      <trkpt lat="45.9442" lon="4.72826">
        <ele>166</ele>
        <time>2016-09-14T08:11:20Z</time>
      </trkpt>
      <trkpt lat="45.94421" lon="4.72833">
        <ele>166</ele>
        <time>2016-09-14T08:11:21Z</time>
      </trkpt>
      <trkpt lat="45.94422" lon="4.72839">
        <ele>166</ele>
        <time>2016-09-14T08:11:22Z</time>
      </trkpt>
      <trkpt lat="45.94424" lon="4.72846">
        <ele>166</ele>
        <time>2016-09-14T08:11:23Z</time>
      </trkpt>
      <trkpt lat="45.94425" lon="4.72852">
        <ele>166</ele>
        <time>2016-09-14T08:11:24Z</time>
      </trkpt>
      <trkpt lat="45.94426" lon="4.72859">
        <ele>166</ele>
        <time>2016-09-14T08:11:25Z</time>
      </trkpt>
      <trkpt lat="45.94427" lon="4.72865">
        <ele>166</ele>
        <time>2016-09-14T08:11:26Z</time>
      </trkpt>
      <trkpt lat="45.94428" lon="4.72877">
        <ele>166</ele>
        <time>2016-09-14T08:11:28Z</time>
      </trkpt>
      <trkpt lat="45.94429" lon="4.72883">
        <ele>166</ele>
        <time>2016-09-14T08:11:29Z</time>
      </trkpt>
      <trkpt lat="45.94431" lon="4.7289">
        <ele>166</ele>
        <time>2016-09-14T08:11:30Z</time>
      </trkpt>
      <trkpt lat="45.94432" lon="4.72897">
        <ele>166</ele>
        <time>2016-09-14T08:11:31Z</time>
      </trkpt>
      <trkpt lat="45.94433" lon="4.72904">
        <ele>166</ele>
        <time>2016-09-14T08:11:32Z</time>
      </trkpt>
      <trkpt lat="45.94434" lon="4.7291">
        <ele>166</ele>
        <time>2016-09-14T08:11:33Z</time>
      </trkpt>
      <trkpt lat="45.94436" lon="4.72918">
        <ele>167</ele>
        <time>2016-09-14T08:11:34Z</time>
      </trkpt>
      <trkpt lat="45.94437" lon="4.72925">
        <ele>167</ele>
        <time>2016-09-14T08:11:35Z</time>
      </trkpt>
      <trkpt lat="45.94438" lon="4.72932">
        <ele>167</ele>
        <time>2016-09-14T08:11:36Z</time>
      </trkpt>
      <trkpt lat="45.94439" lon="4.7294">
        <ele>167</ele>
        <time>2016-09-14T08:11:37Z</time>
      </trkpt>
      <trkpt lat="45.9444" lon="4.72948">
        <ele>167</ele>
        <time>2016-09-14T08:11:38Z</time>
      </trkpt>
      <trkpt lat="45.94442" lon="4.72957">
        <ele>167</ele>
        <time>2016-09-14T08:11:39Z</time>
      </trkpt>
      <trkpt lat="45.94443" lon="4.72966">
        <ele>167</ele>
        <time>2016-09-14T08:11:40Z</time>
      </trkpt>
      <trkpt lat="45.94445" lon="4.72975">
        <ele>167</ele>
        <time>2016-09-14T08:11:41Z</time>
      </trkpt>
      <trkpt lat="45.94446" lon="4.72984">
        <ele>167</ele>
        <time>2016-09-14T08:11:42Z</time>
      </trkpt>
      <trkpt lat="45.94448" lon="4.72994">
        <ele>167</ele>
        <time>2016-09-14T08:11:43Z</time>
      </trkpt>
      <trkpt lat="45.94449" lon="4.73004">
        <ele>169</ele>
        <time>2016-09-14T08:11:44Z</time>
      </trkpt>
      <trkpt lat="45.94451" lon="4.73014">
        <ele>169</ele>
        <time>2016-09-14T08:11:45Z</time>
      </trkpt>
      <trkpt lat="45.94453" lon="4.73024">
        <ele>169</ele>
        <time>2016-09-14T08:11:46Z</time>
      </trkpt>
      <trkpt lat="45.94454" lon="4.73035">
        <ele>169</ele>
        <time>2016-09-14T08:11:47Z</time>
      </trkpt>
      <trkpt lat="45.94456" lon="4.73045">
        <ele>169</ele>
        <time>2016-09-14T08:11:48Z</time>
      </trkpt>
      <trkpt lat="45.94457" lon="4.73056">
        <ele>170</ele>
        <time>2016-09-14T08:11:49Z</time>
      </trkpt>
      <trkpt lat="45.94459" lon="4.73067">
        <ele>170</ele>
        <time>2016-09-14T08:11:50Z</time>
      </trkpt>
      <trkpt lat="45.9446" lon="4.73078">
        <ele>170</ele>
        <time>2016-09-14T08:11:51Z</time>
      </trkpt>
      <trkpt lat="45.94461" lon="4.73088">
        <ele>171</ele>
        <time>2016-09-14T08:11:52Z</time>
      </trkpt>
      <trkpt lat="45.94462" lon="4.73098">
        <ele>171</ele>
        <time>2016-09-14T08:11:53Z</time>
      </trkpt>
      <trkpt lat="45.94463" lon="4.73108">
        <ele>172</ele>
        <time>2016-09-14T08:11:54Z</time>
      </trkpt>
      <trkpt lat="45.94465" lon="4.73117">
        <ele>172</ele>
        <time>2016-09-14T08:11:55Z</time>
      </trkpt>
      <trkpt lat="45.94466" lon="4.73126">
        <ele>172</ele>
        <time>2016-09-14T08:11:56Z</time>
      </trkpt>
      <trkpt lat="45.94468" lon="4.73135">
        <ele>172</ele>
        <time>2016-09-14T08:11:57Z</time>
      </trkpt>
      <trkpt lat="45.94469" lon="4.73144">
        <ele>172</ele>
        <time>2016-09-14T08:11:58Z</time>
      </trkpt>
      <trkpt lat="45.9447" lon="4.73153">
        <ele>172</ele>
        <time>2016-09-14T08:11:59Z</time>
      </trkpt>
      <trkpt lat="45.94471" lon="4.73161">
        <ele>172</ele>
        <time>2016-09-14T08:12:00Z</time>
      </trkpt>
      <trkpt lat="45.94472" lon="4.7317">
        <ele>174</ele>
        <time>2016-09-14T08:12:01Z</time>
      </trkpt>
      <trkpt lat="45.94473" lon="4.7318">
        <ele>174</ele>
        <time>2016-09-14T08:12:02Z</time>
      </trkpt>
      <trkpt lat="45.94474" lon="4.73189">
        <ele>174</ele>
        <time>2016-09-14T08:12:03Z</time>
      </trkpt>
      <trkpt lat="45.94475" lon="4.73197">
        <ele>174</ele>
        <time>2016-09-14T08:12:04Z</time>
      </trkpt>
      <trkpt lat="45.94477" lon="4.73206">
        <ele>175</ele>
        <time>2016-09-14T08:12:05Z</time>
      </trkpt>
      <trkpt lat="45.94478" lon="4.73215">
        <ele>175</ele>
        <time>2016-09-14T08:12:06Z</time>
      </trkpt>
      <trkpt lat="45.94479" lon="4.73223">
        <ele>175</ele>
        <time>2016-09-14T08:12:07Z</time>
      </trkpt>
      <trkpt lat="45.9448" lon="4.73231">
        <ele>175</ele>
        <time>2016-09-14T08:12:08Z</time>
      </trkpt>
      <trkpt lat="45.94481" lon="4.73239">
        <ele>175</ele>
        <time>2016-09-14T08:12:09Z</time>
      </trkpt>
      <trkpt lat="45.9448" lon="4.73247">
        <ele>175</ele>
        <time>2016-09-14T08:12:10Z</time>
      </trkpt>
      <trkpt lat="45.94481" lon="4.73254">
        <ele>176</ele>
        <time>2016-09-14T08:12:11Z</time>
      </trkpt>
      <trkpt lat="45.94481" lon="4.7326">
        <ele>177</ele>
        <time>2016-09-14T08:12:12Z</time>
      </trkpt>
      <trkpt lat="45.94482" lon="4.73267">
        <ele>177</ele>
        <time>2016-09-14T08:12:13Z</time>
      </trkpt>
      <trkpt lat="45.94483" lon="4.73274">
        <ele>177</ele>
        <time>2016-09-14T08:12:14Z</time>
      </trkpt>
      <trkpt lat="45.94483" lon="4.73281">
        <ele>177</ele>
        <time>2016-09-14T08:12:15Z</time>
      </trkpt>
      <trkpt lat="45.94483" lon="4.73288">
        <ele>177</ele>
        <time>2016-09-14T08:12:16Z</time>
      </trkpt>
      <trkpt lat="45.94484" lon="4.73295">
        <ele>177</ele>
        <time>2016-09-14T08:12:17Z</time>
      </trkpt>
      <trkpt lat="45.94485" lon="4.73302">
        <ele>177</ele>
        <time>2016-09-14T08:12:18Z</time>
      </trkpt>
      <trkpt lat="45.94485" lon="4.73309">
        <ele>177</ele>
        <time>2016-09-14T08:12:19Z</time>
      </trkpt>
      <trkpt lat="45.94486" lon="4.73316">
        <ele>177</ele>
        <time>2016-09-14T08:12:20Z</time>
      </trkpt>
      <trkpt lat="45.94486" lon="4.73323">
        <ele>177</ele>
        <time>2016-09-14T08:12:21Z</time>
      </trkpt>
      <trkpt lat="45.94487" lon="4.7333">
        <ele>177</ele>
        <time>2016-09-14T08:12:22Z</time>
      </trkpt>
      <trkpt lat="45.94488" lon="4.73337">
        <ele>178</ele>
        <time>2016-09-14T08:12:23Z</time>
      </trkpt>
      <trkpt lat="45.94488" lon="4.73344">
        <ele>178</ele>
        <time>2016-09-14T08:12:24Z</time>
      </trkpt>
      <trkpt lat="45.94489" lon="4.73351">
        <ele>178</ele>
        <time>2016-09-14T08:12:25Z</time>
      </trkpt>
      <trkpt lat="45.94489" lon="4.73358">
        <ele>179</ele>
        <time>2016-09-14T08:12:26Z</time>
      </trkpt>
      <trkpt lat="45.9449" lon="4.73365">
        <ele>179</ele>
        <time>2016-09-14T08:12:27Z</time>
      </trkpt>
      <trkpt lat="45.9449" lon="4.73372">
        <ele>179</ele>
        <time>2016-09-14T08:12:28Z</time>
      </trkpt>
      <trkpt lat="45.94491" lon="4.73379">
        <ele>179</ele>
        <time>2016-09-14T08:12:29Z</time>
      </trkpt>
      <trkpt lat="45.94491" lon="4.73386">
        <ele>179</ele>
        <time>2016-09-14T08:12:30Z</time>
      </trkpt>
      <trkpt lat="45.94492" lon="4.73393">
        <ele>179</ele>
        <time>2016-09-14T08:12:31Z</time>
      </trkpt>
      <trkpt lat="45.94492" lon="4.734">
        <ele>180</ele>
        <time>2016-09-14T08:12:32Z</time>
      </trkpt>
      <trkpt lat="45.94491" lon="4.73406">
        <ele>180</ele>
        <time>2016-09-14T08:12:33Z</time>
      </trkpt>
      <trkpt lat="45.94493" lon="4.73419">
        <ele>181</ele>
        <time>2016-09-14T08:12:35Z</time>
      </trkpt>
      <trkpt lat="45.94493" lon="4.73426">
        <ele>181</ele>
        <time>2016-09-14T08:12:36Z</time>
      </trkpt>
      <trkpt lat="45.94493" lon="4.73433">
        <ele>181</ele>
        <time>2016-09-14T08:12:37Z</time>
      </trkpt>
      <trkpt lat="45.94493" lon="4.7344">
        <ele>181</ele>
        <time>2016-09-14T08:12:38Z</time>
      </trkpt>
      <trkpt lat="45.94494" lon="4.73447">
        <ele>181</ele>
        <time>2016-09-14T08:12:39Z</time>
      </trkpt>
      <trkpt lat="45.94495" lon="4.73453">
        <ele>182</ele>
        <time>2016-09-14T08:12:40Z</time>
      </trkpt>
      <trkpt lat="45.94496" lon="4.73465">
        <ele>182</ele>
        <time>2016-09-14T08:12:42Z</time>
      </trkpt>
      <trkpt lat="45.94497" lon="4.73472">
        <ele>182</ele>
        <time>2016-09-14T08:12:43Z</time>
      </trkpt>
      <trkpt lat="45.94497" lon="4.73485">
        <ele>182</ele>
        <time>2016-09-14T08:12:45Z</time>
      </trkpt>
      <trkpt lat="45.94497" lon="4.73491">
        <ele>183</ele>
        <time>2016-09-14T08:12:46Z</time>
      </trkpt>
      <trkpt lat="45.94496" lon="4.73498">
        <ele>183</ele>
        <time>2016-09-14T08:12:47Z</time>
      </trkpt>
      <trkpt lat="45.94496" lon="4.73504">
        <ele>183</ele>
        <time>2016-09-14T08:12:48Z</time>
      </trkpt>
      <trkpt lat="45.94496" lon="4.73517">
        <ele>184</ele>
        <time>2016-09-14T08:12:50Z</time>
      </trkpt>
      <trkpt lat="45.94495" lon="4.73523">
        <ele>184</ele>
        <time>2016-09-14T08:12:51Z</time>
      </trkpt>
      <trkpt lat="45.94494" lon="4.73529">
        <ele>184</ele>
        <time>2016-09-14T08:12:52Z</time>
      </trkpt>
      <trkpt lat="45.94493" lon="4.73535">
        <ele>184</ele>
        <time>2016-09-14T08:12:53Z</time>
      </trkpt>
      <trkpt lat="45.94492" lon="4.73542">
        <ele>184</ele>
        <time>2016-09-14T08:12:54Z</time>
      </trkpt>
      <trkpt lat="45.94492" lon="4.73549">
        <ele>185</ele>
        <time>2016-09-14T08:12:55Z</time>
      </trkpt>
      <trkpt lat="45.94492" lon="4.73556">
        <ele>185</ele>
        <time>2016-09-14T08:12:56Z</time>
      </trkpt>
      <trkpt lat="45.94492" lon="4.73563">
        <ele>185</ele>
        <time>2016-09-14T08:12:57Z</time>
      </trkpt>
      <trkpt lat="45.94491" lon="4.73571">
        <ele>185</ele>
        <time>2016-09-14T08:12:58Z</time>
      </trkpt>
      <trkpt lat="45.94491" lon="4.73578">
        <ele>185</ele>
        <time>2016-09-14T08:12:59Z</time>
      </trkpt>
      <trkpt lat="45.9449" lon="4.73586">
        <ele>185</ele>
        <time>2016-09-14T08:13:00Z</time>
      </trkpt>
      <trkpt lat="45.94489" lon="4.73593">
        <ele>185</ele>
        <time>2016-09-14T08:13:01Z</time>
      </trkpt>
      <trkpt lat="45.94488" lon="4.73602">
        <ele>186</ele>
        <time>2016-09-14T08:13:02Z</time>
      </trkpt>
      <trkpt lat="45.94488" lon="4.73612">
        <ele>186</ele>
        <time>2016-09-14T08:13:03Z</time>
      </trkpt>
      <trkpt lat="45.94487" lon="4.7362">
        <ele>186</ele>
        <time>2016-09-14T08:13:04Z</time>
      </trkpt>
      <trkpt lat="45.94486" lon="4.73628">
        <ele>186</ele>
        <time>2016-09-14T08:13:05Z</time>
      </trkpt>
      <trkpt lat="45.94485" lon="4.73636">
        <ele>186</ele>
        <time>2016-09-14T08:13:06Z</time>
      </trkpt>
      <trkpt lat="45.94483" lon="4.73643">
        <ele>186</ele>
        <time>2016-09-14T08:13:07Z</time>
      </trkpt>
      <trkpt lat="45.94482" lon="4.7365">
        <ele>186</ele>
        <time>2016-09-14T08:13:08Z</time>
      </trkpt>
      <trkpt lat="45.94481" lon="4.73658">
        <ele>186</ele>
        <time>2016-09-14T08:13:09Z</time>
      </trkpt>
      <trkpt lat="45.9448" lon="4.73666">
        <ele>186</ele>
        <time>2016-09-14T08:13:10Z</time>
      </trkpt>
      <trkpt lat="45.94478" lon="4.73675">
        <ele>186</ele>
        <time>2016-09-14T08:13:11Z</time>
      </trkpt>
      <trkpt lat="45.94478" lon="4.73683">
        <ele>186</ele>
        <time>2016-09-14T08:13:12Z</time>
      </trkpt>
      <trkpt lat="45.94476" lon="4.7369">
        <ele>186</ele>
        <time>2016-09-14T08:13:13Z</time>
      </trkpt>
      <trkpt lat="45.94475" lon="4.73698">
        <ele>186</ele>
        <time>2016-09-14T08:13:14Z</time>
      </trkpt>
      <trkpt lat="45.94474" lon="4.73706">
        <ele>186</ele>
        <time>2016-09-14T08:13:15Z</time>
      </trkpt>
      <trkpt lat="45.94472" lon="4.73713">
        <ele>186</ele>
        <time>2016-09-14T08:13:16Z</time>
      </trkpt>
      <trkpt lat="45.94472" lon="4.73721">
        <ele>186</ele>
        <time>2016-09-14T08:13:17Z</time>
      </trkpt>
      <trkpt lat="45.94471" lon="4.73729">
        <ele>186</ele>
        <time>2016-09-14T08:13:18Z</time>
      </trkpt>
      <trkpt lat="45.9447" lon="4.73736">
        <ele>186</ele>
        <time>2016-09-14T08:13:19Z</time>
      </trkpt>
      <trkpt lat="45.94469" lon="4.73743">
        <ele>186</ele>
        <time>2016-09-14T08:13:20Z</time>
      </trkpt>
      <trkpt lat="45.94468" lon="4.7375">
        <ele>186</ele>
        <time>2016-09-14T08:13:21Z</time>
      </trkpt>
      <trkpt lat="45.94467" lon="4.73757">
        <ele>186</ele>
        <time>2016-09-14T08:13:22Z</time>
      </trkpt>
      <trkpt lat="45.94468" lon="4.73765">
        <ele>186</ele>
        <time>2016-09-14T08:13:23Z</time>
      </trkpt>
      <trkpt lat="45.94472" lon="4.73771">
        <ele>186</ele>
        <time>2016-09-14T08:13:24Z</time>
      </trkpt>
      <trkpt lat="45.94478" lon="4.73776">
        <ele>186</ele>
        <time>2016-09-14T08:13:25Z</time>
      </trkpt>
      <trkpt lat="45.94483" lon="4.73779">
        <ele>186</ele>
        <time>2016-09-14T08:13:26Z</time>
      </trkpt>
      <trkpt lat="45.94488" lon="4.73782">
        <ele>186</ele>
        <time>2016-09-14T08:13:27Z</time>
      </trkpt>
      <trkpt lat="45.94494" lon="4.73786">
        <ele>186</ele>
        <time>2016-09-14T08:13:28Z</time>
      </trkpt>
      <trkpt lat="45.94498" lon="4.73789">
        <ele>186</ele>
        <time>2016-09-14T08:13:29Z</time>
      </trkpt>
      <trkpt lat="45.94503" lon="4.73793">
        <ele>186</ele>
        <time>2016-09-14T08:13:30Z</time>
      </trkpt>
      <trkpt lat="45.94508" lon="4.73798">
        <ele>186</ele>
        <time>2016-09-14T08:13:31Z</time>
      </trkpt>
      <trkpt lat="45.94513" lon="4.73802">
        <ele>186</ele>
        <time>2016-09-14T08:13:32Z</time>
      </trkpt>
      <trkpt lat="45.94517" lon="4.73807">
        <ele>186</ele>
        <time>2016-09-14T08:13:33Z</time>
      </trkpt>
      <trkpt lat="45.94521" lon="4.73815">
        <ele>186</ele>
        <time>2016-09-14T08:13:34Z</time>
      </trkpt>
      <trkpt lat="45.94527" lon="4.7382">
        <ele>186</ele>
        <time>2016-09-14T08:13:35Z</time>
      </trkpt>
      <trkpt lat="45.94532" lon="4.73825">
        <ele>186</ele>
        <time>2016-09-14T08:13:36Z</time>
      </trkpt>
      <trkpt lat="45.94538" lon="4.7383">
        <ele>186</ele>
        <time>2016-09-14T08:13:37Z</time>
      </trkpt>
      <trkpt lat="45.94542" lon="4.73833">
        <ele>186</ele>
        <time>2016-09-14T08:13:38Z</time>
      </trkpt>
      <trkpt lat="45.94547" lon="4.73837">
        <ele>186</ele>
        <time>2016-09-14T08:13:39Z</time>
      </trkpt>
      <trkpt lat="45.94551" lon="4.73842">
        <ele>186</ele>
        <time>2016-09-14T08:13:40Z</time>
      </trkpt>
      <trkpt lat="45.94555" lon="4.73846">
        <ele>186</ele>
        <time>2016-09-14T08:13:41Z</time>
      </trkpt>
      <trkpt lat="45.94559" lon="4.7385">
        <ele>186</ele>
        <time>2016-09-14T08:13:42Z</time>
      </trkpt>
      <trkpt lat="45.94564" lon="4.73854">
        <ele>186</ele>
        <time>2016-09-14T08:13:43Z</time>
      </trkpt>
      <trkpt lat="45.94568" lon="4.73857">
        <ele>186</ele>
        <time>2016-09-14T08:13:44Z</time>
      </trkpt>
      <trkpt lat="45.94572" lon="4.73861">
        <ele>186</ele>
        <time>2016-09-14T08:13:45Z</time>
      </trkpt>
      <trkpt lat="45.94576" lon="4.73865">
        <ele>186</ele>
        <time>2016-09-14T08:13:46Z</time>
      </trkpt>
      <trkpt lat="45.9458" lon="4.73869">
        <ele>186</ele>
        <time>2016-09-14T08:13:47Z</time>
      </trkpt>
      <trkpt lat="45.94585" lon="4.73874">
        <ele>187</ele>
        <time>2016-09-14T08:13:48Z</time>
      </trkpt>
      <trkpt lat="45.94589" lon="4.73878">
        <ele>187</ele>
        <time>2016-09-14T08:13:49Z</time>
      </trkpt>
      <trkpt lat="45.94593" lon="4.73882">
        <ele>187</ele>
        <time>2016-09-14T08:13:50Z</time>
      </trkpt>
      <trkpt lat="45.94597" lon="4.73887">
        <ele>187</ele>
        <time>2016-09-14T08:13:51Z</time>
      </trkpt>
      <trkpt lat="45.946" lon="4.73891">
        <ele>187</ele>
        <time>2016-09-14T08:13:52Z</time>
      </trkpt>
      <trkpt lat="45.94604" lon="4.73895">
        <ele>187</ele>
        <time>2016-09-14T08:13:53Z</time>
      </trkpt>
      <trkpt lat="45.94611" lon="4.73903">
        <ele>187</ele>
        <time>2016-09-14T08:13:55Z</time>
      </trkpt>
      <trkpt lat="45.94614" lon="4.73908">
        <ele>187</ele>
        <time>2016-09-14T08:13:56Z</time>
      </trkpt>
      <trkpt lat="45.94618" lon="4.73912">
        <ele>187</ele>
        <time>2016-09-14T08:13:57Z</time>
      </trkpt>
      <trkpt lat="45.94621" lon="4.73917">
        <ele>187</ele>
        <time>2016-09-14T08:13:58Z</time>
      </trkpt>
      <trkpt lat="45.94625" lon="4.73921">
        <ele>187</ele>
        <time>2016-09-14T08:13:59Z</time>
      </trkpt>
      <trkpt lat="45.94628" lon="4.73926">
        <ele>187</ele>
        <time>2016-09-14T08:14:00Z</time>
      </trkpt>
      <trkpt lat="45.94632" lon="4.7393">
        <ele>187</ele>
        <time>2016-09-14T08:14:01Z</time>
      </trkpt>
      <trkpt lat="45.94635" lon="4.73935">
        <ele>187</ele>
        <time>2016-09-14T08:14:02Z</time>
      </trkpt>
      <trkpt lat="45.94639" lon="4.73939">
        <ele>187</ele>
        <time>2016-09-14T08:14:03Z</time>
      </trkpt>
      <trkpt lat="45.94643" lon="4.73944">
        <ele>187</ele>
        <time>2016-09-14T08:14:04Z</time>
      </trkpt>
      <trkpt lat="45.94647" lon="4.73949">
        <ele>187</ele>
        <time>2016-09-14T08:14:05Z</time>
      </trkpt>
      <trkpt lat="45.9465" lon="4.73955">
        <ele>187</ele>
        <time>2016-09-14T08:14:06Z</time>
      </trkpt>
      <trkpt lat="45.94654" lon="4.7396">
        <ele>187</ele>
        <time>2016-09-14T08:14:07Z</time>
      </trkpt>
      <trkpt lat="45.94657" lon="4.73965">
        <ele>187</ele>
        <time>2016-09-14T08:14:08Z</time>
      </trkpt>
      <trkpt lat="45.9466" lon="4.7397">
        <ele>187</ele>
        <time>2016-09-14T08:14:09Z</time>
      </trkpt>
      <trkpt lat="45.94664" lon="4.73975">
        <ele>187</ele>
        <time>2016-09-14T08:14:10Z</time>
      </trkpt>
      <trkpt lat="45.94668" lon="4.7398">
        <ele>187</ele>
        <time>2016-09-14T08:14:11Z</time>
      </trkpt>
      <trkpt lat="45.94672" lon="4.73984">
        <ele>187</ele>
        <time>2016-09-14T08:14:12Z</time>
      </trkpt>
      <trkpt lat="45.94675" lon="4.73989">
        <ele>187</ele>
        <time>2016-09-14T08:14:13Z</time>
      </trkpt>
      <trkpt lat="45.94678" lon="4.73993">
        <ele>187</ele>
        <time>2016-09-14T08:14:14Z</time>
      </trkpt>
      <trkpt lat="45.94682" lon="4.73998">
        <ele>187</ele>
        <time>2016-09-14T08:14:15Z</time>
      </trkpt>
      <trkpt lat="45.94685" lon="4.74003">
        <ele>187</ele>
        <time>2016-09-14T08:14:16Z</time>
      </trkpt>
      <trkpt lat="45.94689" lon="4.74008">
        <ele>187</ele>
        <time>2016-09-14T08:14:17Z</time>
      </trkpt>
      <trkpt lat="45.94693" lon="4.74012">
        <ele>187</ele>
        <time>2016-09-14T08:14:18Z</time>
      </trkpt>
      <trkpt lat="45.94697" lon="4.74016">
        <ele>187</ele>
        <time>2016-09-14T08:14:19Z</time>
      </trkpt>
      <trkpt lat="45.947" lon="4.74021">
        <ele>187</ele>
        <time>2016-09-14T08:14:20Z</time>
      </trkpt>
      <trkpt lat="45.94704" lon="4.74026">
        <ele>187</ele>
        <time>2016-09-14T08:14:21Z</time>
      </trkpt>
      <trkpt lat="45.94708" lon="4.7403">
        <ele>187</ele>
        <time>2016-09-14T08:14:22Z</time>
      </trkpt>
      <trkpt lat="45.94712" lon="4.74035">
        <ele>187</ele>
        <time>2016-09-14T08:14:23Z</time>
      </trkpt>
      <trkpt lat="45.94716" lon="4.7404">
        <ele>187</ele>
        <time>2016-09-14T08:14:24Z</time>
      </trkpt>
      <trkpt lat="45.94719" lon="4.74045">
        <ele>187</ele>
        <time>2016-09-14T08:14:25Z</time>
      </trkpt>
      <trkpt lat="45.94723" lon="4.74049">
        <ele>187</ele>
        <time>2016-09-14T08:14:26Z</time>
      </trkpt>
      <trkpt lat="45.94726" lon="4.74055">
        <ele>188</ele>
        <time>2016-09-14T08:14:27Z</time>
      </trkpt>
      <trkpt lat="45.94729" lon="4.74059">
        <ele>188</ele>
        <time>2016-09-14T08:14:28Z</time>
      </trkpt>
      <trkpt lat="45.94732" lon="4.74063">
        <ele>188</ele>
        <time>2016-09-14T08:14:29Z</time>
      </trkpt>
      <trkpt lat="45.94736" lon="4.74068">
        <ele>188</ele>
        <time>2016-09-14T08:14:30Z</time>
      </trkpt>
      <trkpt lat="45.94739" lon="4.74073">
        <ele>188</ele>
        <time>2016-09-14T08:14:31Z</time>
      </trkpt>
      <trkpt lat="45.94743" lon="4.74077">
        <ele>188</ele>
        <time>2016-09-14T08:14:32Z</time>
      </trkpt>
      <trkpt lat="45.94747" lon="4.74082">
        <ele>189</ele>
        <time>2016-09-14T08:14:33Z</time>
      </trkpt>
      <trkpt lat="45.9475" lon="4.74086">
        <ele>189</ele>
        <time>2016-09-14T08:14:34Z</time>
      </trkpt>
      <trkpt lat="45.94754" lon="4.74091">
        <ele>189</ele>
        <time>2016-09-14T08:14:35Z</time>
      </trkpt>
      <trkpt lat="45.94757" lon="4.74095">
        <ele>189</ele>
        <time>2016-09-14T08:14:36Z</time>
      </trkpt>
      <trkpt lat="45.94761" lon="4.741">
        <ele>189</ele>
        <time>2016-09-14T08:14:37Z</time>
      </trkpt>
      <trkpt lat="45.94764" lon="4.74105">
        <ele>189</ele>
        <time>2016-09-14T08:14:38Z</time>
      </trkpt>
      <trkpt lat="45.94768" lon="4.7411">
        <ele>189</ele>
        <time>2016-09-14T08:14:39Z</time>
      </trkpt>
      <trkpt lat="45.9477" lon="4.74116">
        <ele>189</ele>
        <time>2016-09-14T08:14:40Z</time>
      </trkpt>
      <trkpt lat="45.94773" lon="4.74121">
        <ele>189</ele>
        <time>2016-09-14T08:14:41Z</time>
      </trkpt>
      <trkpt lat="45.94777" lon="4.74126">
        <ele>189</ele>
        <time>2016-09-14T08:14:42Z</time>
      </trkpt>
      <trkpt lat="45.94781" lon="4.74131">
        <ele>189</ele>
        <time>2016-09-14T08:14:43Z</time>
      </trkpt>
      <trkpt lat="45.94785" lon="4.74136">
        <ele>189</ele>
        <time>2016-09-14T08:14:44Z</time>
      </trkpt>
      <trkpt lat="45.9479" lon="4.74141">
        <ele>189</ele>
        <time>2016-09-14T08:14:45Z</time>
      </trkpt>
      <trkpt lat="45.94794" lon="4.74146">
        <ele>189</ele>
        <time>2016-09-14T08:14:46Z</time>
      </trkpt>
      <trkpt lat="45.94798" lon="4.74152">
        <ele>189</ele>
        <time>2016-09-14T08:14:47Z</time>
      </trkpt>
      <trkpt lat="45.94801" lon="4.74158">
        <ele>189</ele>
        <time>2016-09-14T08:14:48Z</time>
      </trkpt>
      <trkpt lat="45.94805" lon="4.74163">
        <ele>189</ele>
        <time>2016-09-14T08:14:49Z</time>
      </trkpt>
      <trkpt lat="45.94808" lon="4.74169">
        <ele>189</ele>
        <time>2016-09-14T08:14:50Z</time>
      </trkpt>
      <trkpt lat="45.94812" lon="4.74175">
        <ele>189</ele>
        <time>2016-09-14T08:14:51Z</time>
      </trkpt>
      <trkpt lat="45.94815" lon="4.74182">
        <ele>189</ele>
        <time>2016-09-14T08:14:52Z</time>
      </trkpt>
      <trkpt lat="45.94818" lon="4.74188">
        <ele>189</ele>
        <time>2016-09-14T08:14:53Z</time>
      </trkpt>
      <trkpt lat="45.94821" lon="4.74193">
        <ele>189</ele>
        <time>2016-09-14T08:14:54Z</time>
      </trkpt>
      <trkpt lat="45.94824" lon="4.74199">
        <ele>189</ele>
        <time>2016-09-14T08:14:55Z</time>
      </trkpt>
      <trkpt lat="45.94827" lon="4.74205">
        <ele>189</ele>
        <time>2016-09-14T08:14:56Z</time>
      </trkpt>
      <trkpt lat="45.94829" lon="4.74212">
        <ele>189</ele>
        <time>2016-09-14T08:14:57Z</time>
      </trkpt>
      <trkpt lat="45.94832" lon="4.74217">
        <ele>188</ele>
        <time>2016-09-14T08:14:58Z</time>
      </trkpt>
      <trkpt lat="45.94834" lon="4.74224">
        <ele>190</ele>
        <time>2016-09-14T08:14:59Z</time>
      </trkpt>
      <trkpt lat="45.94837" lon="4.7423">
        <ele>190</ele>
        <time>2016-09-14T08:15:00Z</time>
      </trkpt>
      <trkpt lat="45.9484" lon="4.74236">
        <ele>190</ele>
        <time>2016-09-14T08:15:01Z</time>
      </trkpt>
      <trkpt lat="45.94843" lon="4.74242">
        <ele>190</ele>
        <time>2016-09-14T08:15:02Z</time>
      </trkpt>
      <trkpt lat="45.94847" lon="4.74248">
        <ele>190</ele>
        <time>2016-09-14T08:15:03Z</time>
      </trkpt>
      <trkpt lat="45.9485" lon="4.74253">
        <ele>190</ele>
        <time>2016-09-14T08:15:04Z</time>
      </trkpt>
      <trkpt lat="45.94853" lon="4.74259">
        <ele>190</ele>
        <time>2016-09-14T08:15:05Z</time>
      </trkpt>
      <trkpt lat="45.94856" lon="4.74265">
        <ele>190</ele>
        <time>2016-09-14T08:15:06Z</time>
      </trkpt>
      <trkpt lat="45.9486" lon="4.74272">
        <ele>190</ele>
        <time>2016-09-14T08:15:07Z</time>
      </trkpt>
      <trkpt lat="45.94863" lon="4.74278">
        <ele>191</ele>
        <time>2016-09-14T08:15:08Z</time>
      </trkpt>
      <trkpt lat="45.94867" lon="4.74284">
        <ele>191</ele>
        <time>2016-09-14T08:15:09Z</time>
      </trkpt>
      <trkpt lat="45.9487" lon="4.7429">
        <ele>191</ele>
        <time>2016-09-14T08:15:10Z</time>
      </trkpt>
      <trkpt lat="45.94873" lon="4.74296">
        <ele>191</ele>
        <time>2016-09-14T08:15:11Z</time>
      </trkpt>
      <trkpt lat="45.94875" lon="4.74303">
        <ele>191</ele>
        <time>2016-09-14T08:15:12Z</time>
      </trkpt>
      <trkpt lat="45.94878" lon="4.74308">
        <ele>191</ele>
        <time>2016-09-14T08:15:13Z</time>
      </trkpt>
      <trkpt lat="45.94881" lon="4.74314">
        <ele>191</ele>
        <time>2016-09-14T08:15:14Z</time>
      </trkpt>
      <trkpt lat="45.94884" lon="4.7432">
        <ele>191</ele>
        <time>2016-09-14T08:15:15Z</time>
      </trkpt>
      <trkpt lat="45.94887" lon="4.74326">
        <ele>191</ele>
        <time>2016-09-14T08:15:16Z</time>
      </trkpt>
      <trkpt lat="45.9489" lon="4.74332">
        <ele>191</ele>
        <time>2016-09-14T08:15:17Z</time>
      </trkpt>
      <trkpt lat="45.94893" lon="4.74338">
        <ele>191</ele>
        <time>2016-09-14T08:15:18Z</time>
      </trkpt>
      <trkpt lat="45.94896" lon="4.74344">
        <ele>191</ele>
        <time>2016-09-14T08:15:19Z</time>
      </trkpt>
      <trkpt lat="45.94899" lon="4.7435">
        <ele>191</ele>
        <time>2016-09-14T08:15:20Z</time>
      </trkpt>
      <trkpt lat="45.94902" lon="4.74355">
        <ele>191</ele>
        <time>2016-09-14T08:15:21Z</time>
      </trkpt>
      <trkpt lat="45.94905" lon="4.74361">
        <ele>191</ele>
        <time>2016-09-14T08:15:22Z</time>
      </trkpt>
      <trkpt lat="45.94908" lon="4.74367">
        <ele>191</ele>
        <time>2016-09-14T08:15:23Z</time>
      </trkpt>
      <trkpt lat="45.9491" lon="4.74373">
        <ele>191</ele>
        <time>2016-09-14T08:15:24Z</time>
      </trkpt>
      <trkpt lat="45.94913" lon="4.74379">
        <ele>191</ele>
        <time>2016-09-14T08:15:25Z</time>
      </trkpt>
      <trkpt lat="45.94916" lon="4.74384">
        <ele>191</ele>
        <time>2016-09-14T08:15:26Z</time>
      </trkpt>
      <trkpt lat="45.94919" lon="4.7439">
        <ele>192</ele>
        <time>2016-09-14T08:15:27Z</time>
      </trkpt>
      <trkpt lat="45.94922" lon="4.74396">
        <ele>192</ele>
        <time>2016-09-14T08:15:28Z</time>
      </trkpt>
      <trkpt lat="45.94924" lon="4.74402">
        <ele>192</ele>
        <time>2016-09-14T08:15:29Z</time>
      </trkpt>
      <trkpt lat="45.94928" lon="4.74408">
        <ele>192</ele>
        <time>2016-09-14T08:15:30Z</time>
      </trkpt>
      <trkpt lat="45.94931" lon="4.74414">
        <ele>192</ele>
        <time>2016-09-14T08:15:31Z</time>
      </trkpt>
      <trkpt lat="45.94934" lon="4.7442">
        <ele>192</ele>
        <time>2016-09-14T08:15:32Z</time>
      </trkpt>
      <trkpt lat="45.94937" lon="4.74427">
        <ele>192</ele>
        <time>2016-09-14T08:15:33Z</time>
      </trkpt>
      <trkpt lat="45.9494" lon="4.74433">
        <ele>192</ele>
        <time>2016-09-14T08:15:34Z</time>
      </trkpt>
      <trkpt lat="45.94944" lon="4.74439">
        <ele>192</ele>
        <time>2016-09-14T08:15:35Z</time>
      </trkpt>
      <trkpt lat="45.94947" lon="4.74445">
        <ele>192</ele>
        <time>2016-09-14T08:15:36Z</time>
      </trkpt>
      <trkpt lat="45.9495" lon="4.74452">
        <ele>192</ele>
        <time>2016-09-14T08:15:37Z</time>
      </trkpt>
      <trkpt lat="45.94952" lon="4.74458">
        <ele>192</ele>
        <time>2016-09-14T08:15:38Z</time>
      </trkpt>
      <trkpt lat="45.94955" lon="4.74464">
        <ele>193</ele>
        <time>2016-09-14T08:15:39Z</time>
      </trkpt>
      <trkpt lat="45.94958" lon="4.74469">
        <ele>193</ele>
        <time>2016-09-14T08:15:40Z</time>
      </trkpt>
      <trkpt lat="45.94961" lon="4.74474">
        <ele>193</ele>
        <time>2016-09-14T08:15:41Z</time>
      </trkpt>
      <trkpt lat="45.94964" lon="4.7448">
        <ele>193</ele>
        <time>2016-09-14T08:15:42Z</time>
      </trkpt>
      <trkpt lat="45.94968" lon="4.74486">
        <ele>193</ele>
        <time>2016-09-14T08:15:43Z</time>
      </trkpt>
      <trkpt lat="45.9497" lon="4.74492">
        <ele>193</ele>
        <time>2016-09-14T08:15:44Z</time>
      </trkpt>
      <trkpt lat="45.94974" lon="4.74499">
        <ele>193</ele>
        <time>2016-09-14T08:15:45Z</time>
      </trkpt>
      <trkpt lat="45.94977" lon="4.74505">
        <ele>193</ele>
        <time>2016-09-14T08:15:46Z</time>
      </trkpt>
      <trkpt lat="45.9498" lon="4.74511">
        <ele>193</ele>
        <time>2016-09-14T08:15:47Z</time>
      </trkpt>
      <trkpt lat="45.94983" lon="4.74518">
        <ele>193</ele>
        <time>2016-09-14T08:15:48Z</time>
      </trkpt>
      <trkpt lat="45.94986" lon="4.74524">
        <ele>193</ele>
        <time>2016-09-14T08:15:49Z</time>
      </trkpt>
      <trkpt lat="45.94989" lon="4.7453">
        <ele>193</ele>
        <time>2016-09-14T08:15:50Z</time>
      </trkpt>
      <trkpt lat="45.94992" lon="4.74535">
        <ele>193</ele>
        <time>2016-09-14T08:15:51Z</time>
      </trkpt>
      <trkpt lat="45.94995" lon="4.74541">
        <ele>193</ele>
        <time>2016-09-14T08:15:52Z</time>
      </trkpt>
      <trkpt lat="45.94998" lon="4.74548">
        <ele>193</ele>
        <time>2016-09-14T08:15:53Z</time>
      </trkpt>
      <trkpt lat="45.95002" lon="4.74554">
        <ele>194</ele>
        <time>2016-09-14T08:15:54Z</time>
      </trkpt>
      <trkpt lat="45.95006" lon="4.7456">
        <ele>194</ele>
        <time>2016-09-14T08:15:55Z</time>
      </trkpt>
      <trkpt lat="45.95009" lon="4.74567">
        <ele>194</ele>
        <time>2016-09-14T08:15:56Z</time>
      </trkpt>
      <trkpt lat="45.95013" lon="4.74573">
        <ele>194</ele>
        <time>2016-09-14T08:15:57Z</time>
      </trkpt>
      <trkpt lat="45.95017" lon="4.74579">
        <ele>194</ele>
        <time>2016-09-14T08:15:58Z</time>
      </trkpt>
      <trkpt lat="45.9502" lon="4.74585">
        <ele>194</ele>
        <time>2016-09-14T08:15:59Z</time>
      </trkpt>
      <trkpt lat="45.95024" lon="4.74591">
        <ele>194</ele>
        <time>2016-09-14T08:16:00Z</time>
      </trkpt>
      <trkpt lat="45.95027" lon="4.74598">
        <ele>194</ele>
        <time>2016-09-14T08:16:01Z</time>
      </trkpt>
      <trkpt lat="45.9503" lon="4.74604">
        <ele>194</ele>
        <time>2016-09-14T08:16:02Z</time>
      </trkpt>
      <trkpt lat="45.95034" lon="4.74609">
        <ele>194</ele>
        <time>2016-09-14T08:16:03Z</time>
      </trkpt>
      <trkpt lat="45.95037" lon="4.74615">
        <ele>194</ele>
        <time>2016-09-14T08:16:04Z</time>
      </trkpt>
      <trkpt lat="45.9504" lon="4.74621">
        <ele>194</ele>
        <time>2016-09-14T08:16:05Z</time>
      </trkpt>
      <trkpt lat="45.95043" lon="4.74627">
        <ele>194</ele>
        <time>2016-09-14T08:16:06Z</time>
      </trkpt>
      <trkpt lat="45.95047" lon="4.74633">
        <ele>194</ele>
        <time>2016-09-14T08:16:07Z</time>
      </trkpt>
      <trkpt lat="45.9505" lon="4.74639">
        <ele>194</ele>
        <time>2016-09-14T08:16:08Z</time>
      </trkpt>
      <trkpt lat="45.95054" lon="4.74646">
        <ele>194</ele>
        <time>2016-09-14T08:16:09Z</time>
      </trkpt>
      <trkpt lat="45.95058" lon="4.74653">
        <ele>194</ele>
        <time>2016-09-14T08:16:10Z</time>
      </trkpt>
      <trkpt lat="45.95062" lon="4.7466">
        <ele>195</ele>
        <time>2016-09-14T08:16:11Z</time>
      </trkpt>
      <trkpt lat="45.95066" lon="4.74666">
        <ele>195</ele>
        <time>2016-09-14T08:16:12Z</time>
      </trkpt>
      <trkpt lat="45.9507" lon="4.74673">
        <ele>194</ele>
        <time>2016-09-14T08:16:13Z</time>
      </trkpt>
      <trkpt lat="45.95073" lon="4.7468">
        <ele>194</ele>
        <time>2016-09-14T08:16:14Z</time>
      </trkpt>
      <trkpt lat="45.95076" lon="4.74687">
        <ele>194</ele>
        <time>2016-09-14T08:16:15Z</time>
      </trkpt>
      <trkpt lat="45.9508" lon="4.74693">
        <ele>194</ele>
        <time>2016-09-14T08:16:16Z</time>
      </trkpt>
      <trkpt lat="45.95083" lon="4.74699">
        <ele>194</ele>
        <time>2016-09-14T08:16:17Z</time>
      </trkpt>
      <trkpt lat="45.95086" lon="4.74705">
        <ele>194</ele>
        <time>2016-09-14T08:16:18Z</time>
      </trkpt>
      <trkpt lat="45.95089" lon="4.74711">
        <ele>194</ele>
        <time>2016-09-14T08:16:19Z</time>
      </trkpt>
      <trkpt lat="45.95093" lon="4.74717">
        <ele>194</ele>
        <time>2016-09-14T08:16:20Z</time>
      </trkpt>
      <trkpt lat="45.95097" lon="4.74723">
        <ele>194</ele>
        <time>2016-09-14T08:16:21Z</time>
      </trkpt>
      <trkpt lat="45.951" lon="4.74728">
        <ele>194</ele>
        <time>2016-09-14T08:16:22Z</time>
      </trkpt>
      <trkpt lat="45.95104" lon="4.74734">
        <ele>194</ele>
        <time>2016-09-14T08:16:23Z</time>
      </trkpt>
      <trkpt lat="45.95107" lon="4.74739">
        <ele>194</ele>
        <time>2016-09-14T08:16:24Z</time>
      </trkpt>
      <trkpt lat="45.95111" lon="4.74744">
        <ele>194</ele>
        <time>2016-09-14T08:16:25Z</time>
      </trkpt>
      <trkpt lat="45.95114" lon="4.7475">
        <ele>194</ele>
        <time>2016-09-14T08:16:26Z</time>
      </trkpt>
      <trkpt lat="45.95118" lon="4.74756">
        <ele>194</ele>
        <time>2016-09-14T08:16:27Z</time>
      </trkpt>
      <trkpt lat="45.95121" lon="4.74763">
        <ele>194</ele>
        <time>2016-09-14T08:16:28Z</time>
      </trkpt>
      <trkpt lat="45.95125" lon="4.74768">
        <ele>194</ele>
        <time>2016-09-14T08:16:29Z</time>
      </trkpt>
      <trkpt lat="45.95129" lon="4.74774">
        <ele>194</ele>
        <time>2016-09-14T08:16:30Z</time>
      </trkpt>
      <trkpt lat="45.95132" lon="4.7478">
        <ele>194</ele>
        <time>2016-09-14T08:16:31Z</time>
      </trkpt>
      <trkpt lat="45.95136" lon="4.74786">
        <ele>194</ele>
        <time>2016-09-14T08:16:32Z</time>
      </trkpt>
      <trkpt lat="45.9514" lon="4.74792">
        <ele>194</ele>
        <time>2016-09-14T08:16:33Z</time>
      </trkpt>
      <trkpt lat="45.95144" lon="4.74798">
        <ele>194</ele>
        <time>2016-09-14T08:16:34Z</time>
      </trkpt>
      <trkpt lat="45.95148" lon="4.74805">
        <ele>194</ele>
        <time>2016-09-14T08:16:35Z</time>
      </trkpt>
      <trkpt lat="45.95152" lon="4.74811">
        <ele>194</ele>
        <time>2016-09-14T08:16:36Z</time>
      </trkpt>
      <trkpt lat="45.95156" lon="4.74818">
        <ele>194</ele>
        <time>2016-09-14T08:16:37Z</time>
      </trkpt>
      <trkpt lat="45.95159" lon="4.74824">
        <ele>194</ele>
        <time>2016-09-14T08:16:38Z</time>
      </trkpt>
      <trkpt lat="45.95163" lon="4.7483">
        <ele>194</ele>
        <time>2016-09-14T08:16:39Z</time>
      </trkpt>
      <trkpt lat="45.95167" lon="4.74837">
        <ele>194</ele>
        <time>2016-09-14T08:16:40Z</time>
      </trkpt>
      <trkpt lat="45.95171" lon="4.74844">
        <ele>194</ele>
        <time>2016-09-14T08:16:41Z</time>
      </trkpt>
      <trkpt lat="45.95175" lon="4.7485">
        <ele>194</ele>
        <time>2016-09-14T08:16:42Z</time>
      </trkpt>
      <trkpt lat="45.95178" lon="4.74855">
        <ele>194</ele>
        <time>2016-09-14T08:16:43Z</time>
      </trkpt>
      <trkpt lat="45.95182" lon="4.74861">
        <ele>194</ele>
        <time>2016-09-14T08:16:44Z</time>
      </trkpt>
      <trkpt lat="45.95186" lon="4.74867">
        <ele>194</ele>
        <time>2016-09-14T08:16:45Z</time>
      </trkpt>
      <trkpt lat="45.95189" lon="4.74873">
        <ele>194</ele>
        <time>2016-09-14T08:16:46Z</time>
      </trkpt>
      <trkpt lat="45.95192" lon="4.74878">
        <ele>194</ele>
        <time>2016-09-14T08:16:47Z</time>
      </trkpt>
      <trkpt lat="45.95195" lon="4.74884">
        <ele>194</ele>
        <time>2016-09-14T08:16:48Z</time>
      </trkpt>
      <trkpt lat="45.95198" lon="4.7489">
        <ele>194</ele>
        <time>2016-09-14T08:16:49Z</time>
      </trkpt>
      <trkpt lat="45.95202" lon="4.74896">
        <ele>194</ele>
        <time>2016-09-14T08:16:50Z</time>
      </trkpt>
      <trkpt lat="45.95206" lon="4.74902">
        <ele>194</ele>
        <time>2016-09-14T08:16:51Z</time>
      </trkpt>
      <trkpt lat="45.9521" lon="4.74907">
        <ele>193</ele>
        <time>2016-09-14T08:16:52Z</time>
      </trkpt>
      <trkpt lat="45.95213" lon="4.74913">
        <ele>193</ele>
        <time>2016-09-14T08:16:53Z</time>
      </trkpt>
      <trkpt lat="45.95217" lon="4.74918">
        <ele>192</ele>
        <time>2016-09-14T08:16:54Z</time>
      </trkpt>
      <trkpt lat="45.9522" lon="4.74924">
        <ele>192</ele>
        <time>2016-09-14T08:16:55Z</time>
      </trkpt>
      <trkpt lat="45.95224" lon="4.74929">
        <ele>192</ele>
        <time>2016-09-14T08:16:56Z</time>
      </trkpt>
      <trkpt lat="45.95228" lon="4.74935">
        <ele>192</ele>
        <time>2016-09-14T08:16:57Z</time>
      </trkpt>
      <trkpt lat="45.95232" lon="4.74941">
        <ele>192</ele>
        <time>2016-09-14T08:16:58Z</time>
      </trkpt>
      <trkpt lat="45.95236" lon="4.74947">
        <ele>192</ele>
        <time>2016-09-14T08:16:59Z</time>
      </trkpt>
      <trkpt lat="45.9524" lon="4.74952">
        <ele>192</ele>
        <time>2016-09-14T08:17:00Z</time>
      </trkpt>
      <trkpt lat="45.95244" lon="4.74959">
        <ele>191</ele>
        <time>2016-09-14T08:17:01Z</time>
      </trkpt>
      <trkpt lat="45.95248" lon="4.74966">
        <ele>191</ele>
        <time>2016-09-14T08:17:02Z</time>
      </trkpt>
      <trkpt lat="45.95251" lon="4.74972">
        <ele>192</ele>
        <time>2016-09-14T08:17:03Z</time>
      </trkpt>
      <trkpt lat="45.95255" lon="4.74978">
        <ele>192</ele>
        <time>2016-09-14T08:17:04Z</time>
      </trkpt>
      <trkpt lat="45.95259" lon="4.74984">
        <ele>192</ele>
        <time>2016-09-14T08:17:05Z</time>
      </trkpt>
      <trkpt lat="45.95263" lon="4.74989">
        <ele>192</ele>
        <time>2016-09-14T08:17:06Z</time>
      </trkpt>
      <trkpt lat="45.95266" lon="4.74995">
        <ele>192</ele>
        <time>2016-09-14T08:17:07Z</time>
      </trkpt>
      <trkpt lat="45.9527" lon="4.75001">
        <ele>191</ele>
        <time>2016-09-14T08:17:08Z</time>
      </trkpt>
      <trkpt lat="45.95275" lon="4.75007">
        <ele>191</ele>
        <time>2016-09-14T08:17:09Z</time>
      </trkpt>
      <trkpt lat="45.95279" lon="4.75013">
        <ele>191</ele>
        <time>2016-09-14T08:17:10Z</time>
      </trkpt>
      <trkpt lat="45.95284" lon="4.75019">
        <ele>191</ele>
        <time>2016-09-14T08:17:11Z</time>
      </trkpt>
      <trkpt lat="45.95289" lon="4.75026">
        <ele>191</ele>
        <time>2016-09-14T08:17:12Z</time>
      </trkpt>
      <trkpt lat="45.95293" lon="4.75033">
        <ele>191</ele>
        <time>2016-09-14T08:17:13Z</time>
      </trkpt>
      <trkpt lat="45.95297" lon="4.7504">
        <ele>191</ele>
        <time>2016-09-14T08:17:14Z</time>
      </trkpt>
      <trkpt lat="45.95302" lon="4.75046">
        <ele>191</ele>
        <time>2016-09-14T08:17:15Z</time>
      </trkpt>
      <trkpt lat="45.95306" lon="4.75053">
        <ele>192</ele>
        <time>2016-09-14T08:17:16Z</time>
      </trkpt>
      <trkpt lat="45.9531" lon="4.7506">
        <ele>192</ele>
        <time>2016-09-14T08:17:17Z</time>
      </trkpt>
      <trkpt lat="45.95314" lon="4.75067">
        <ele>192</ele>
        <time>2016-09-14T08:17:18Z</time>
      </trkpt>
      <trkpt lat="45.95318" lon="4.75073">
        <ele>192</ele>
        <time>2016-09-14T08:17:19Z</time>
      </trkpt>
      <trkpt lat="45.95322" lon="4.7508">
        <ele>192</ele>
        <time>2016-09-14T08:17:20Z</time>
      </trkpt>
      <trkpt lat="45.95326" lon="4.75086">
        <ele>192</ele>
        <time>2016-09-14T08:17:21Z</time>
      </trkpt>
      <trkpt lat="45.9533" lon="4.75093">
        <ele>191</ele>
        <time>2016-09-14T08:17:22Z</time>
      </trkpt>
      <trkpt lat="45.95333" lon="4.75099">
        <ele>191</ele>
        <time>2016-09-14T08:17:23Z</time>
      </trkpt>
      <trkpt lat="45.95337" lon="4.75106">
        <ele>192</ele>
        <time>2016-09-14T08:17:24Z</time>
      </trkpt>
      <trkpt lat="45.95341" lon="4.75112">
        <ele>192</ele>
        <time>2016-09-14T08:17:25Z</time>
      </trkpt>
      <trkpt lat="45.95346" lon="4.75118">
        <ele>191</ele>
        <time>2016-09-14T08:17:26Z</time>
      </trkpt>
      <trkpt lat="45.9535" lon="4.75124">
        <ele>191</ele>
        <time>2016-09-14T08:17:27Z</time>
      </trkpt>
      <trkpt lat="45.95354" lon="4.75131">
        <ele>191</ele>
        <time>2016-09-14T08:17:28Z</time>
      </trkpt>
      <trkpt lat="45.95358" lon="4.75137">
        <ele>191</ele>
        <time>2016-09-14T08:17:29Z</time>
      </trkpt>
      <trkpt lat="45.95363" lon="4.75143">
        <ele>191</ele>
        <time>2016-09-14T08:17:30Z</time>
      </trkpt>
      <trkpt lat="45.95367" lon="4.7515">
        <ele>191</ele>
        <time>2016-09-14T08:17:31Z</time>
      </trkpt>
      <trkpt lat="45.95372" lon="4.75157">
        <ele>191</ele>
        <time>2016-09-14T08:17:32Z</time>
      </trkpt>
      <trkpt lat="45.95377" lon="4.75164">
        <ele>191</ele>
        <time>2016-09-14T08:17:33Z</time>
      </trkpt>
      <trkpt lat="45.95381" lon="4.75171">
        <ele>189</ele>
        <time>2016-09-14T08:17:34Z</time>
      </trkpt>
      <trkpt lat="45.95386" lon="4.75178">
        <ele>189</ele>
        <time>2016-09-14T08:17:35Z</time>
      </trkpt>
      <trkpt lat="45.9539" lon="4.75185">
        <ele>189</ele>
        <time>2016-09-14T08:17:36Z</time>
      </trkpt>
      <trkpt lat="45.95394" lon="4.75192">
        <ele>189</ele>
        <time>2016-09-14T08:17:37Z</time>
      </trkpt>
      <trkpt lat="45.95398" lon="4.75199">
        <ele>189</ele>
        <time>2016-09-14T08:17:38Z</time>
      </trkpt>
      <trkpt lat="45.95402" lon="4.75206">
        <ele>189</ele>
        <time>2016-09-14T08:17:39Z</time>
      </trkpt>
      <trkpt lat="45.95406" lon="4.75214">
        <ele>189</ele>
        <time>2016-09-14T08:17:40Z</time>
      </trkpt>
      <trkpt lat="45.9541" lon="4.75222">
        <ele>189</ele>
        <time>2016-09-14T08:17:41Z</time>
      </trkpt>
      <trkpt lat="45.95413" lon="4.7523">
        <ele>189</ele>
        <time>2016-09-14T08:17:42Z</time>
      </trkpt>
      <trkpt lat="45.95416" lon="4.75237">
        <ele>189</ele>
        <time>2016-09-14T08:17:43Z</time>
      </trkpt>
      <trkpt lat="45.9542" lon="4.75245">
        <ele>190</ele>
        <time>2016-09-14T08:17:44Z</time>
      </trkpt>
      <trkpt lat="45.95424" lon="4.75252">
        <ele>189</ele>
        <time>2016-09-14T08:17:45Z</time>
      </trkpt>
      <trkpt lat="45.95429" lon="4.75259">
        <ele>189</ele>
        <time>2016-09-14T08:17:46Z</time>
      </trkpt>
      <trkpt lat="45.95433" lon="4.75266">
        <ele>189</ele>
        <time>2016-09-14T08:17:47Z</time>
      </trkpt>
      <trkpt lat="45.95437" lon="4.75273">
        <ele>189</ele>
        <time>2016-09-14T08:17:48Z</time>
      </trkpt>
      <trkpt lat="45.95441" lon="4.75281">
        <ele>188</ele>
        <time>2016-09-14T08:17:49Z</time>
      </trkpt>
      <trkpt lat="45.95445" lon="4.75289">
        <ele>188</ele>
        <time>2016-09-14T08:17:50Z</time>
      </trkpt>
      <trkpt lat="45.95449" lon="4.75296">
        <ele>188</ele>
        <time>2016-09-14T08:17:51Z</time>
      </trkpt>
      <trkpt lat="45.95453" lon="4.75304">
        <ele>188</ele>
        <time>2016-09-14T08:17:52Z</time>
      </trkpt>
      <trkpt lat="45.95458" lon="4.75311">
        <ele>188</ele>
        <time>2016-09-14T08:17:53Z</time>
      </trkpt>
      <trkpt lat="45.95463" lon="4.75319">
        <ele>188</ele>
        <time>2016-09-14T08:17:54Z</time>
      </trkpt>
      <trkpt lat="45.95467" lon="4.75327">
        <ele>188</ele>
        <time>2016-09-14T08:17:55Z</time>
      </trkpt>
      <trkpt lat="45.95471" lon="4.75335">
        <ele>186</ele>
        <time>2016-09-14T08:17:56Z</time>
      </trkpt>
      <trkpt lat="45.95476" lon="4.75343">
        <ele>186</ele>
        <time>2016-09-14T08:17:57Z</time>
      </trkpt>
      <trkpt lat="45.9548" lon="4.75352">
        <ele>186</ele>
        <time>2016-09-14T08:17:58Z</time>
      </trkpt>
      <trkpt lat="45.95485" lon="4.7536">
        <ele>186</ele>
        <time>2016-09-14T08:17:59Z</time>
      </trkpt>
      <trkpt lat="45.95489" lon="4.75368">
        <ele>186</ele>
        <time>2016-09-14T08:18:00Z</time>
      </trkpt>
      <trkpt lat="45.95493" lon="4.75376">
        <ele>185</ele>
        <time>2016-09-14T08:18:01Z</time>
      </trkpt>
      <trkpt lat="45.95497" lon="4.75384">
        <ele>185</ele>
        <time>2016-09-14T08:18:02Z</time>
      </trkpt>
      <trkpt lat="45.95501" lon="4.75393">
        <ele>188</ele>
        <time>2016-09-14T08:18:03Z</time>
      </trkpt>
      <trkpt lat="45.95504" lon="4.75402">
        <ele>187</ele>
        <time>2016-09-14T08:18:04Z</time>
      </trkpt>
      <trkpt lat="45.95506" lon="4.75412">
        <ele>186</ele>
        <time>2016-09-14T08:18:05Z</time>
      </trkpt>
      <trkpt lat="45.95509" lon="4.75421">
        <ele>186</ele>
        <time>2016-09-14T08:18:06Z</time>
      </trkpt>
      <trkpt lat="45.95511" lon="4.75431">
        <ele>186</ele>
        <time>2016-09-14T08:18:07Z</time>
      </trkpt>
      <trkpt lat="45.95511" lon="4.75441">
        <ele>187</ele>
        <time>2016-09-14T08:18:08Z</time>
      </trkpt>
      <trkpt lat="45.95511" lon="4.75451">
        <ele>187</ele>
        <time>2016-09-14T08:18:09Z</time>
      </trkpt>
      <trkpt lat="45.9551" lon="4.75461">
        <ele>186</ele>
        <time>2016-09-14T08:18:10Z</time>
      </trkpt>
      <trkpt lat="45.9551" lon="4.75471">
        <ele>186</ele>
        <time>2016-09-14T08:18:11Z</time>
      </trkpt>
      <trkpt lat="45.95511" lon="4.75481">
        <ele>186</ele>
        <time>2016-09-14T08:18:12Z</time>
      </trkpt>
      <trkpt lat="45.95515" lon="4.75491">
        <ele>186</ele>
        <time>2016-09-14T08:18:13Z</time>
      </trkpt>
      <trkpt lat="45.95519" lon="4.75498">
        <ele>186</ele>
        <time>2016-09-14T08:18:14Z</time>
      </trkpt>
      <trkpt lat="45.95524" lon="4.75502">
        <ele>185</ele>
        <time>2016-09-14T08:18:15Z</time>
      </trkpt>
      <trkpt lat="45.9553" lon="4.75505">
        <ele>185</ele>
        <time>2016-09-14T08:18:16Z</time>
      </trkpt>
      <trkpt lat="45.95536" lon="4.75509">
        <ele>186</ele>
        <time>2016-09-14T08:18:17Z</time>
      </trkpt>
      <trkpt lat="45.95541" lon="4.75515">
        <ele>186</ele>
        <time>2016-09-14T08:18:18Z</time>
      </trkpt>
      <trkpt lat="45.95546" lon="4.7552">
        <ele>186</ele>
        <time>2016-09-14T08:18:19Z</time>
      </trkpt>
      <trkpt lat="45.95552" lon="4.75526">
        <ele>186</ele>
        <time>2016-09-14T08:18:20Z</time>
      </trkpt>
      <trkpt lat="45.95557" lon="4.75532">
        <ele>186</ele>
        <time>2016-09-14T08:18:21Z</time>
      </trkpt>
      <trkpt lat="45.95563" lon="4.75538">
        <ele>186</ele>
        <time>2016-09-14T08:18:22Z</time>
      </trkpt>
      <trkpt lat="45.95569" lon="4.75543">
        <ele>186</ele>
        <time>2016-09-14T08:18:23Z</time>
      </trkpt>
      <trkpt lat="45.95575" lon="4.75549">
        <ele>186</ele>
        <time>2016-09-14T08:18:24Z</time>
      </trkpt>
      <trkpt lat="45.9558" lon="4.75555">
        <ele>186</ele>
        <time>2016-09-14T08:18:25Z</time>
      </trkpt>
      <trkpt lat="45.95585" lon="4.75562">
        <ele>188</ele>
        <time>2016-09-14T08:18:26Z</time>
      </trkpt>
      <trkpt lat="45.95589" lon="4.75569">
        <ele>188</ele>
        <time>2016-09-14T08:18:27Z</time>
      </trkpt>
      <trkpt lat="45.95594" lon="4.75576">
        <ele>187</ele>
        <time>2016-09-14T08:18:28Z</time>
      </trkpt>
      <trkpt lat="45.95597" lon="4.75584">
        <ele>187</ele>
        <time>2016-09-14T08:18:29Z</time>
      </trkpt>
      <trkpt lat="45.95601" lon="4.75592">
        <ele>187</ele>
        <time>2016-09-14T08:18:30Z</time>
      </trkpt>
      <trkpt lat="45.95604" lon="4.75599">
        <ele>187</ele>
        <time>2016-09-14T08:18:31Z</time>
      </trkpt>
      <trkpt lat="45.95606" lon="4.75606">
        <ele>187</ele>
        <time>2016-09-14T08:18:32Z</time>
      </trkpt>
      <trkpt lat="45.95609" lon="4.75613">
        <ele>188</ele>
        <time>2016-09-14T08:18:33Z</time>
      </trkpt>
      <trkpt lat="45.95612" lon="4.75621">
        <ele>188</ele>
        <time>2016-09-14T08:18:34Z</time>
      </trkpt>
      <trkpt lat="45.95614" lon="4.75629">
        <ele>188</ele>
        <time>2016-09-14T08:18:35Z</time>
      </trkpt>
      <trkpt lat="45.95617" lon="4.75637">
        <ele>188</ele>
        <time>2016-09-14T08:18:36Z</time>
      </trkpt>
      <trkpt lat="45.95618" lon="4.75645">
        <ele>188</ele>
        <time>2016-09-14T08:18:37Z</time>
      </trkpt>
      <trkpt lat="45.9562" lon="4.75654">
        <ele>188</ele>
        <time>2016-09-14T08:18:38Z</time>
      </trkpt>
      <trkpt lat="45.95622" lon="4.75662">
        <ele>188</ele>
        <time>2016-09-14T08:18:39Z</time>
      </trkpt>
      <trkpt lat="45.95622" lon="4.7567">
        <ele>187</ele>
        <time>2016-09-14T08:18:40Z</time>
      </trkpt>
      <trkpt lat="45.95624" lon="4.75678">
        <ele>187</ele>
        <time>2016-09-14T08:18:41Z</time>
      </trkpt>
      <trkpt lat="45.95625" lon="4.75686">
        <ele>187</ele>
        <time>2016-09-14T08:18:42Z</time>
      </trkpt>
      <trkpt lat="45.95626" lon="4.75695">
        <ele>187</ele>
        <time>2016-09-14T08:18:43Z</time>
      </trkpt>
      <trkpt lat="45.95626" lon="4.75703">
        <ele>187</ele>
        <time>2016-09-14T08:18:44Z</time>
      </trkpt>
      <trkpt lat="45.95627" lon="4.75712">
        <ele>187</ele>
        <time>2016-09-14T08:18:45Z</time>
      </trkpt>
      <trkpt lat="45.95629" lon="4.7572">
        <ele>187</ele>
        <time>2016-09-14T08:18:46Z</time>
      </trkpt>
      <trkpt lat="45.9563" lon="4.75729">
        <ele>187</ele>
        <time>2016-09-14T08:18:47Z</time>
      </trkpt>
      <trkpt lat="45.95632" lon="4.75737">
        <ele>187</ele>
        <time>2016-09-14T08:18:48Z</time>
      </trkpt>
      <trkpt lat="45.95633" lon="4.75745">
        <ele>187</ele>
        <time>2016-09-14T08:18:49Z</time>
      </trkpt>
      <trkpt lat="45.95635" lon="4.75752">
        <ele>186</ele>
        <time>2016-09-14T08:18:50Z</time>
      </trkpt>
      <trkpt lat="45.95636" lon="4.7576">
        <ele>186</ele>
        <time>2016-09-14T08:18:51Z</time>
      </trkpt>
      <trkpt lat="45.95637" lon="4.75768">
        <ele>186</ele>
        <time>2016-09-14T08:18:52Z</time>
      </trkpt>
      <trkpt lat="45.95638" lon="4.75776">
        <ele>186</ele>
        <time>2016-09-14T08:18:53Z</time>
      </trkpt>
      <trkpt lat="45.9564" lon="4.75784">
        <ele>185</ele>
        <time>2016-09-14T08:18:54Z</time>
      </trkpt>
      <trkpt lat="45.95641" lon="4.75792">
        <ele>185</ele>
        <time>2016-09-14T08:18:55Z</time>
      </trkpt>
      <trkpt lat="45.95643" lon="4.75801">
        <ele>185</ele>
        <time>2016-09-14T08:18:56Z</time>
      </trkpt>
      <trkpt lat="45.95645" lon="4.75809">
        <ele>185</ele>
        <time>2016-09-14T08:18:57Z</time>
      </trkpt>
      <trkpt lat="45.95647" lon="4.75818">
        <ele>185</ele>
        <time>2016-09-14T08:18:58Z</time>
      </trkpt>
      <trkpt lat="45.95648" lon="4.75827">
        <ele>185</ele>
        <time>2016-09-14T08:18:59Z</time>
      </trkpt>
      <trkpt lat="45.9565" lon="4.75836">
        <ele>185</ele>
        <time>2016-09-14T08:19:00Z</time>
      </trkpt>
      <trkpt lat="45.95653" lon="4.75844">
        <ele>185</ele>
        <time>2016-09-14T08:19:01Z</time>
      </trkpt>
      <trkpt lat="45.95655" lon="4.75853">
        <ele>184</ele>
        <time>2016-09-14T08:19:02Z</time>
      </trkpt>
      <trkpt lat="45.95657" lon="4.75862">
        <ele>184</ele>
        <time>2016-09-14T08:19:03Z</time>
      </trkpt>
      <trkpt lat="45.95659" lon="4.7587">
        <ele>184</ele>
        <time>2016-09-14T08:19:04Z</time>
      </trkpt>
      <trkpt lat="45.95661" lon="4.75879">
        <ele>184</ele>
        <time>2016-09-14T08:19:05Z</time>
      </trkpt>
      <trkpt lat="45.95664" lon="4.75887">
        <ele>184</ele>
        <time>2016-09-14T08:19:06Z</time>
      </trkpt>
      <trkpt lat="45.95667" lon="4.75896">
        <ele>184</ele>
        <time>2016-09-14T08:19:07Z</time>
      </trkpt>
      <trkpt lat="45.9567" lon="4.75904">
        <ele>185</ele>
        <time>2016-09-14T08:19:08Z</time>
      </trkpt>
      <trkpt lat="45.95673" lon="4.75912">
        <ele>185</ele>
        <time>2016-09-14T08:19:09Z</time>
      </trkpt>
      <trkpt lat="45.95676" lon="4.7592">
        <ele>184</ele>
        <time>2016-09-14T08:19:10Z</time>
      </trkpt>
      <trkpt lat="45.95679" lon="4.75928">
        <ele>185</ele>
        <time>2016-09-14T08:19:11Z</time>
      </trkpt>
      <trkpt lat="45.95683" lon="4.75936">
        <ele>185</ele>
        <time>2016-09-14T08:19:12Z</time>
      </trkpt>
      <trkpt lat="45.95686" lon="4.75944">
        <ele>185</ele>
        <time>2016-09-14T08:19:13Z</time>
      </trkpt>
      <trkpt lat="45.95689" lon="4.75952">
        <ele>185</ele>
        <time>2016-09-14T08:19:14Z</time>
      </trkpt>
      <trkpt lat="45.95693" lon="4.7596">
        <ele>185</ele>
        <time>2016-09-14T08:19:15Z</time>
      </trkpt>
      <trkpt lat="45.95696" lon="4.75968">
        <ele>185</ele>
        <time>2016-09-14T08:19:16Z</time>
      </trkpt>
      <trkpt lat="45.95699" lon="4.75976">
        <ele>185</ele>
        <time>2016-09-14T08:19:17Z</time>
      </trkpt>
      <trkpt lat="45.95703" lon="4.75984">
        <ele>185</ele>
        <time>2016-09-14T08:19:18Z</time>
      </trkpt>
      <trkpt lat="45.95707" lon="4.75991">
        <ele>185</ele>
        <time>2016-09-14T08:19:19Z</time>
      </trkpt>
      <trkpt lat="45.95711" lon="4.75999">
        <ele>185</ele>
        <time>2016-09-14T08:19:20Z</time>
      </trkpt>
      <trkpt lat="45.95714" lon="4.76006">
        <ele>184</ele>
        <time>2016-09-14T08:19:21Z</time>
      </trkpt>
      <trkpt lat="45.95718" lon="4.76014">
        <ele>184</ele>
        <time>2016-09-14T08:19:22Z</time>
      </trkpt>
      <trkpt lat="45.95721" lon="4.76021">
        <ele>184</ele>
        <time>2016-09-14T08:19:23Z</time>
      </trkpt>
      <trkpt lat="45.95725" lon="4.76028">
        <ele>184</ele>
        <time>2016-09-14T08:19:24Z</time>
      </trkpt>
      <trkpt lat="45.95728" lon="4.76036">
        <ele>184</ele>
        <time>2016-09-14T08:19:25Z</time>
      </trkpt>
      <trkpt lat="45.95731" lon="4.76043">
        <ele>184</ele>
        <time>2016-09-14T08:19:26Z</time>
      </trkpt>
      <trkpt lat="45.95735" lon="4.7605">
        <ele>184</ele>
        <time>2016-09-14T08:19:27Z</time>
      </trkpt>
      <trkpt lat="45.95738" lon="4.76057">
        <ele>184</ele>
        <time>2016-09-14T08:19:28Z</time>
      </trkpt>
      <trkpt lat="45.95741" lon="4.76064">
        <ele>184</ele>
        <time>2016-09-14T08:19:29Z</time>
      </trkpt>
      <trkpt lat="45.95744" lon="4.76072">
        <ele>185</ele>
        <time>2016-09-14T08:19:30Z</time>
      </trkpt>
      <trkpt lat="45.95747" lon="4.7608">
        <ele>185</ele>
        <time>2016-09-14T08:19:31Z</time>
      </trkpt>
      <trkpt lat="45.95749" lon="4.76087">
        <ele>185</ele>
        <time>2016-09-14T08:19:32Z</time>
      </trkpt>
      <trkpt lat="45.95752" lon="4.76094">
        <ele>186</ele>
        <time>2016-09-14T08:19:33Z</time>
      </trkpt>
      <trkpt lat="45.95753" lon="4.76101">
        <ele>186</ele>
        <time>2016-09-14T08:19:34Z</time>
      </trkpt>
      <trkpt lat="45.95754" lon="4.76108">
        <ele>186</ele>
        <time>2016-09-14T08:19:35Z</time>
      </trkpt>
      <trkpt lat="45.95755" lon="4.76115">
        <ele>186</ele>
        <time>2016-09-14T08:19:36Z</time>
      </trkpt>
      <trkpt lat="45.95756" lon="4.76122">
        <ele>186</ele>
        <time>2016-09-14T08:19:37Z</time>
      </trkpt>
      <trkpt lat="45.95758" lon="4.7613">
        <ele>186</ele>
        <time>2016-09-14T08:19:38Z</time>
      </trkpt>
      <trkpt lat="45.95759" lon="4.76138">
        <ele>186</ele>
        <time>2016-09-14T08:19:39Z</time>
      </trkpt>
      <trkpt lat="45.9576" lon="4.76145">
        <ele>186</ele>
        <time>2016-09-14T08:19:40Z</time>
      </trkpt>
      <trkpt lat="45.95761" lon="4.76154">
        <ele>186</ele>
        <time>2016-09-14T08:19:41Z</time>
      </trkpt>
      <trkpt lat="45.95761" lon="4.76162">
        <ele>186</ele>
        <time>2016-09-14T08:19:42Z</time>
      </trkpt>
      <trkpt lat="45.95761" lon="4.76171">
        <ele>185</ele>
        <time>2016-09-14T08:19:43Z</time>
      </trkpt>
      <trkpt lat="45.95762" lon="4.7618">
        <ele>186</ele>
        <time>2016-09-14T08:19:44Z</time>
      </trkpt>
      <trkpt lat="45.95763" lon="4.76189">
        <ele>186</ele>
        <time>2016-09-14T08:19:45Z</time>
      </trkpt>
      <trkpt lat="45.95763" lon="4.76197">
        <ele>186</ele>
        <time>2016-09-14T08:19:46Z</time>
      </trkpt>
      <trkpt lat="45.95763" lon="4.76204">
        <ele>186</ele>
        <time>2016-09-14T08:19:47Z</time>
      </trkpt>
      <trkpt lat="45.95763" lon="4.76212">
        <ele>186</ele>
        <time>2016-09-14T08:19:48Z</time>
      </trkpt>
      <trkpt lat="45.95763" lon="4.76219">
        <ele>186</ele>
        <time>2016-09-14T08:19:49Z</time>
      </trkpt>
      <trkpt lat="45.95764" lon="4.76227">
        <ele>186</ele>
        <time>2016-09-14T08:19:50Z</time>
      </trkpt>
      <trkpt lat="45.95764" lon="4.76234">
        <ele>186</ele>
        <time>2016-09-14T08:19:51Z</time>
      </trkpt>
      <trkpt lat="45.95764" lon="4.76242">
        <ele>185</ele>
        <time>2016-09-14T08:19:52Z</time>
      </trkpt>
      <trkpt lat="45.95765" lon="4.7625">
        <ele>185</ele>
        <time>2016-09-14T08:19:53Z</time>
      </trkpt>
      <trkpt lat="45.95765" lon="4.76258">
        <ele>185</ele>
        <time>2016-09-14T08:19:54Z</time>
      </trkpt>
      <trkpt lat="45.95765" lon="4.76266">
        <ele>185</ele>
        <time>2016-09-14T08:19:55Z</time>
      </trkpt>
      <trkpt lat="45.95765" lon="4.76274">
        <ele>186</ele>
        <time>2016-09-14T08:19:56Z</time>
      </trkpt>
      <trkpt lat="45.95766" lon="4.76282">
        <ele>186</ele>
        <time>2016-09-14T08:19:57Z</time>
      </trkpt>
      <trkpt lat="45.95767" lon="4.7629">
        <ele>186</ele>
        <time>2016-09-14T08:19:58Z</time>
      </trkpt>
      <trkpt lat="45.95767" lon="4.76298">
        <ele>186</ele>
        <time>2016-09-14T08:19:59Z</time>
      </trkpt>
      <trkpt lat="45.95768" lon="4.76306">
        <ele>186</ele>
        <time>2016-09-14T08:20:00Z</time>
      </trkpt>
      <trkpt lat="45.95768" lon="4.76314">
        <ele>185</ele>
        <time>2016-09-14T08:20:01Z</time>
      </trkpt>
      <trkpt lat="45.95769" lon="4.76323">
        <ele>185</ele>
        <time>2016-09-14T08:20:02Z</time>
      </trkpt>
      <trkpt lat="45.95769" lon="4.76331">
        <ele>185</ele>
        <time>2016-09-14T08:20:03Z</time>
      </trkpt>
      <trkpt lat="45.9577" lon="4.76339">
        <ele>186</ele>
        <time>2016-09-14T08:20:04Z</time>
      </trkpt>
      <trkpt lat="45.9577" lon="4.76346">
        <ele>186</ele>
        <time>2016-09-14T08:20:05Z</time>
      </trkpt>
      <trkpt lat="45.9577" lon="4.76354">
        <ele>186</ele>
        <time>2016-09-14T08:20:06Z</time>
      </trkpt>
      <trkpt lat="45.9577" lon="4.76361">
        <ele>186</ele>
        <time>2016-09-14T08:20:07Z</time>
      </trkpt>
      <trkpt lat="45.95771" lon="4.76369">
        <ele>186</ele>
        <time>2016-09-14T08:20:08Z</time>
      </trkpt>
      <trkpt lat="45.95772" lon="4.76377">
        <ele>186</ele>
        <time>2016-09-14T08:20:09Z</time>
      </trkpt>
      <trkpt lat="45.95772" lon="4.76385">
        <ele>186</ele>
        <time>2016-09-14T08:20:10Z</time>
      </trkpt>
      <trkpt lat="45.95772" lon="4.76393">
        <ele>186</ele>
        <time>2016-09-14T08:20:11Z</time>
      </trkpt>
      <trkpt lat="45.95773" lon="4.76401">
        <ele>186</ele>
        <time>2016-09-14T08:20:12Z</time>
      </trkpt>
      <trkpt lat="45.95774" lon="4.7641">
        <ele>186</ele>
        <time>2016-09-14T08:20:13Z</time>
      </trkpt>
      <trkpt lat="45.95774" lon="4.76418">
        <ele>186</ele>
        <time>2016-09-14T08:20:14Z</time>
      </trkpt>
      <trkpt lat="45.95776" lon="4.76426">
        <ele>186</ele>
        <time>2016-09-14T08:20:15Z</time>
      </trkpt>
      <trkpt lat="45.95777" lon="4.76434">
        <ele>186</ele>
        <time>2016-09-14T08:20:16Z</time>
      </trkpt>
      <trkpt lat="45.95779" lon="4.76442">
        <ele>186</ele>
        <time>2016-09-14T08:20:17Z</time>
      </trkpt>
      <trkpt lat="45.95779" lon="4.76449">
        <ele>186</ele>
        <time>2016-09-14T08:20:18Z</time>
      </trkpt>
      <trkpt lat="45.95781" lon="4.76456">
        <ele>186</ele>
        <time>2016-09-14T08:20:19Z</time>
      </trkpt>
      <trkpt lat="45.95782" lon="4.76463">
        <ele>186</ele>
        <time>2016-09-14T08:20:20Z</time>
      </trkpt>
      <trkpt lat="45.95783" lon="4.76471">
        <ele>186</ele>
        <time>2016-09-14T08:20:21Z</time>
      </trkpt>
      <trkpt lat="45.95784" lon="4.76479">
        <ele>186</ele>
        <time>2016-09-14T08:20:22Z</time>
      </trkpt>
      <trkpt lat="45.95785" lon="4.76486">
        <ele>186</ele>
        <time>2016-09-14T08:20:23Z</time>
      </trkpt>
      <trkpt lat="45.95786" lon="4.76493">
        <ele>186</ele>
        <time>2016-09-14T08:20:24Z</time>
      </trkpt>
      <trkpt lat="45.95787" lon="4.76501">
        <ele>187</ele>
        <time>2016-09-14T08:20:25Z</time>
      </trkpt>
      <trkpt lat="45.95788" lon="4.76508">
        <ele>187</ele>
        <time>2016-09-14T08:20:26Z</time>
      </trkpt>
      <trkpt lat="45.9579" lon="4.76516">
        <ele>187</ele>
        <time>2016-09-14T08:20:27Z</time>
      </trkpt>
      <trkpt lat="45.95791" lon="4.76523">
        <ele>187</ele>
        <time>2016-09-14T08:20:28Z</time>
      </trkpt>
      <trkpt lat="45.95792" lon="4.76531">
        <ele>187</ele>
        <time>2016-09-14T08:20:29Z</time>
      </trkpt>
      <trkpt lat="45.95794" lon="4.76538">
        <ele>187</ele>
        <time>2016-09-14T08:20:30Z</time>
      </trkpt>
      <trkpt lat="45.95795" lon="4.76546">
        <ele>187</ele>
        <time>2016-09-14T08:20:31Z</time>
      </trkpt>
      <trkpt lat="45.95796" lon="4.76554">
        <ele>187</ele>
        <time>2016-09-14T08:20:32Z</time>
      </trkpt>
      <trkpt lat="45.95797" lon="4.76561">
        <ele>187</ele>
        <time>2016-09-14T08:20:33Z</time>
      </trkpt>
      <trkpt lat="45.95799" lon="4.76569">
        <ele>187</ele>
        <time>2016-09-14T08:20:34Z</time>
      </trkpt>
      <trkpt lat="45.958" lon="4.76577">
        <ele>187</ele>
        <time>2016-09-14T08:20:35Z</time>
      </trkpt>
      <trkpt lat="45.95801" lon="4.76585">
        <ele>187</ele>
        <time>2016-09-14T08:20:36Z</time>
      </trkpt>
      <trkpt lat="45.95803" lon="4.76593">
        <ele>187</ele>
        <time>2016-09-14T08:20:37Z</time>
      </trkpt>
      <trkpt lat="45.95804" lon="4.76601">
        <ele>188</ele>
        <time>2016-09-14T08:20:38Z</time>
      </trkpt>
      <trkpt lat="45.95805" lon="4.76609">
        <ele>188</ele>
        <time>2016-09-14T08:20:39Z</time>
      </trkpt>
      <trkpt lat="45.95806" lon="4.76618">
        <ele>188</ele>
        <time>2016-09-14T08:20:40Z</time>
      </trkpt>
      <trkpt lat="45.95807" lon="4.76626">
        <ele>188</ele>
        <time>2016-09-14T08:20:41Z</time>
      </trkpt>
      <trkpt lat="45.95808" lon="4.76635">
        <ele>188</ele>
        <time>2016-09-14T08:20:42Z</time>
      </trkpt>
      <trkpt lat="45.95809" lon="4.76644">
        <ele>188</ele>
        <time>2016-09-14T08:20:43Z</time>
      </trkpt>
      <trkpt lat="45.95811" lon="4.76652">
        <ele>188</ele>
        <time>2016-09-14T08:20:44Z</time>
      </trkpt>
      <trkpt lat="45.95812" lon="4.76661">
        <ele>188</ele>
        <time>2016-09-14T08:20:45Z</time>
      </trkpt>
      <trkpt lat="45.95812" lon="4.76668">
        <ele>189</ele>
        <time>2016-09-14T08:20:46Z</time>
      </trkpt>
      <trkpt lat="45.95813" lon="4.76676">
        <ele>189</ele>
        <time>2016-09-14T08:20:47Z</time>
      </trkpt>
      <trkpt lat="45.95814" lon="4.76684">
        <ele>189</ele>
        <time>2016-09-14T08:20:48Z</time>
      </trkpt>
      <trkpt lat="45.95814" lon="4.76692">
        <ele>189</ele>
        <time>2016-09-14T08:20:49Z</time>
      </trkpt>
      <trkpt lat="45.95815" lon="4.76699">
        <ele>189</ele>
        <time>2016-09-14T08:20:50Z</time>
      </trkpt>
      <trkpt lat="45.95816" lon="4.76705">
        <ele>189</ele>
        <time>2016-09-14T08:20:51Z</time>
      </trkpt>
      <trkpt lat="45.95816" lon="4.76713">
        <ele>189</ele>
        <time>2016-09-14T08:20:52Z</time>
      </trkpt>
      <trkpt lat="45.95817" lon="4.76721">
        <ele>189</ele>
        <time>2016-09-14T08:20:53Z</time>
      </trkpt>
      <trkpt lat="45.95818" lon="4.76729">
        <ele>190</ele>
        <time>2016-09-14T08:20:54Z</time>
      </trkpt>
      <trkpt lat="45.9582" lon="4.76737">
        <ele>190</ele>
        <time>2016-09-14T08:20:55Z</time>
      </trkpt>
      <trkpt lat="45.95822" lon="4.76745">
        <ele>190</ele>
        <time>2016-09-14T08:20:56Z</time>
      </trkpt>
      <trkpt lat="45.95824" lon="4.76752">
        <ele>191</ele>
        <time>2016-09-14T08:20:57Z</time>
      </trkpt>
      <trkpt lat="45.95826" lon="4.76759">
        <ele>191</ele>
        <time>2016-09-14T08:20:58Z</time>
      </trkpt>
      <trkpt lat="45.95827" lon="4.76766">
        <ele>190</ele>
        <time>2016-09-14T08:20:59Z</time>
      </trkpt>
      <trkpt lat="45.95828" lon="4.76773">
        <ele>190</ele>
        <time>2016-09-14T08:21:00Z</time>
      </trkpt>
      <trkpt lat="45.95829" lon="4.7678">
        <ele>190</ele>
        <time>2016-09-14T08:21:01Z</time>
      </trkpt>
      <trkpt lat="45.95829" lon="4.76787">
        <ele>190</ele>
        <time>2016-09-14T08:21:02Z</time>
      </trkpt>
      <trkpt lat="45.95829" lon="4.76794">
        <ele>190</ele>
        <time>2016-09-14T08:21:03Z</time>
      </trkpt>
      <trkpt lat="45.9583" lon="4.76801">
        <ele>190</ele>
        <time>2016-09-14T08:21:04Z</time>
      </trkpt>
      <trkpt lat="45.95829" lon="4.76809">
        <ele>190</ele>
        <time>2016-09-14T08:21:05Z</time>
      </trkpt>
      <trkpt lat="45.95828" lon="4.76817">
        <ele>190</ele>
        <time>2016-09-14T08:21:06Z</time>
      </trkpt>
      <trkpt lat="45.95827" lon="4.76825">
        <ele>190</ele>
        <time>2016-09-14T08:21:07Z</time>
      </trkpt>
      <trkpt lat="45.95826" lon="4.76833">
        <ele>190</ele>
        <time>2016-09-14T08:21:08Z</time>
      </trkpt>
      <trkpt lat="45.95824" lon="4.76841">
        <ele>190</ele>
        <time>2016-09-14T08:21:09Z</time>
      </trkpt>
      <trkpt lat="45.95823" lon="4.76848">
        <ele>190</ele>
        <time>2016-09-14T08:21:10Z</time>
      </trkpt>
      <trkpt lat="45.95821" lon="4.76856">
        <ele>189</ele>
        <time>2016-09-14T08:21:11Z</time>
      </trkpt>
      <trkpt lat="45.95819" lon="4.76864">
        <ele>189</ele>
        <time>2016-09-14T08:21:12Z</time>
      </trkpt>
      <trkpt lat="45.95817" lon="4.76872">
        <ele>189</ele>
        <time>2016-09-14T08:21:13Z</time>
      </trkpt>
      <trkpt lat="45.95816" lon="4.76881">
        <ele>189</ele>
        <time>2016-09-14T08:21:14Z</time>
      </trkpt>
      <trkpt lat="45.95814" lon="4.76889">
        <ele>189</ele>
        <time>2016-09-14T08:21:15Z</time>
      </trkpt>
      <trkpt lat="45.95813" lon="4.76897">
        <ele>189</ele>
        <time>2016-09-14T08:21:16Z</time>
      </trkpt>
      <trkpt lat="45.95811" lon="4.76906">
        <ele>189</ele>
        <time>2016-09-14T08:21:17Z</time>
      </trkpt>
      <trkpt lat="45.95809" lon="4.76914">
        <ele>189</ele>
        <time>2016-09-14T08:21:18Z</time>
      </trkpt>
      <trkpt lat="45.95807" lon="4.76922">
        <ele>189</ele>
        <time>2016-09-14T08:21:19Z</time>
      </trkpt>
      <trkpt lat="45.95805" lon="4.76931">
        <ele>189</ele>
        <time>2016-09-14T08:21:20Z</time>
      </trkpt>
      <trkpt lat="45.95803" lon="4.76939">
        <ele>189</ele>
        <time>2016-09-14T08:21:21Z</time>
      </trkpt>
      <trkpt lat="45.95803" lon="4.76946">
        <ele>189</ele>
        <time>2016-09-14T08:21:22Z</time>
      </trkpt>
      <trkpt lat="45.95802" lon="4.76954">
        <ele>189</ele>
        <time>2016-09-14T08:21:23Z</time>
      </trkpt>
      <trkpt lat="45.958" lon="4.76961">
        <ele>189</ele>
        <time>2016-09-14T08:21:24Z</time>
      </trkpt>
      <trkpt lat="45.95799" lon="4.76969">
        <ele>189</ele>
        <time>2016-09-14T08:21:25Z</time>
      </trkpt>
      <trkpt lat="45.95798" lon="4.76977">
        <ele>189</ele>
        <time>2016-09-14T08:21:26Z</time>
      </trkpt>
      <trkpt lat="45.95798" lon="4.76984">
        <ele>189</ele>
        <time>2016-09-14T08:21:27Z</time>
      </trkpt>
      <trkpt lat="45.95798" lon="4.76992">
        <ele>189</ele>
        <time>2016-09-14T08:21:28Z</time>
      </trkpt>
      <trkpt lat="45.95799" lon="4.77">
        <ele>190</ele>
        <time>2016-09-14T08:21:29Z</time>
      </trkpt>
      <trkpt lat="45.95801" lon="4.77008">
        <ele>190</ele>
        <time>2016-09-14T08:21:30Z</time>
      </trkpt>
      <trkpt lat="45.95803" lon="4.77016">
        <ele>190</ele>
        <time>2016-09-14T08:21:31Z</time>
      </trkpt>
      <trkpt lat="45.95805" lon="4.77023">
        <ele>190</ele>
        <time>2016-09-14T08:21:32Z</time>
      </trkpt>
      <trkpt lat="45.95808" lon="4.77031">
        <ele>190</ele>
        <time>2016-09-14T08:21:33Z</time>
      </trkpt>
      <trkpt lat="45.9581" lon="4.77038">
        <ele>190</ele>
        <time>2016-09-14T08:21:34Z</time>
      </trkpt>
      <trkpt lat="45.95814" lon="4.77045">
        <ele>190</ele>
        <time>2016-09-14T08:21:35Z</time>
      </trkpt>
      <trkpt lat="45.95817" lon="4.77052">
        <ele>190</ele>
        <time>2016-09-14T08:21:36Z</time>
      </trkpt>
      <trkpt lat="45.9582" lon="4.77059">
        <ele>190</ele>
        <time>2016-09-14T08:21:37Z</time>
      </trkpt>
      <trkpt lat="45.95823" lon="4.77066">
        <ele>191</ele>
        <time>2016-09-14T08:21:38Z</time>
      </trkpt>
      <trkpt lat="45.95825" lon="4.77073">
        <ele>191</ele>
        <time>2016-09-14T08:21:39Z</time>
      </trkpt>
      <trkpt lat="45.95828" lon="4.7708">
        <ele>191</ele>
        <time>2016-09-14T08:21:40Z</time>
      </trkpt>
      <trkpt lat="45.9583" lon="4.77087">
        <ele>191</ele>
        <time>2016-09-14T08:21:41Z</time>
      </trkpt>
      <trkpt lat="45.95832" lon="4.77093">
        <ele>191</ele>
        <time>2016-09-14T08:21:42Z</time>
      </trkpt>
      <trkpt lat="45.95834" lon="4.771">
        <ele>193</ele>
        <time>2016-09-14T08:21:43Z</time>
      </trkpt>
      <trkpt lat="45.95836" lon="4.77107">
        <ele>193</ele>
        <time>2016-09-14T08:21:44Z</time>
      </trkpt>
      <trkpt lat="45.95838" lon="4.77115">
        <ele>193</ele>
        <time>2016-09-14T08:21:45Z</time>
      </trkpt>
      <trkpt lat="45.9584" lon="4.77122">
        <ele>193</ele>
        <time>2016-09-14T08:21:46Z</time>
      </trkpt>
      <trkpt lat="45.95842" lon="4.77129">
        <ele>193</ele>
        <time>2016-09-14T08:21:47Z</time>
      </trkpt>
      <trkpt lat="45.95845" lon="4.77136">
        <ele>193</ele>
        <time>2016-09-14T08:21:48Z</time>
      </trkpt>
      <trkpt lat="45.95846" lon="4.77143">
        <ele>192</ele>
        <time>2016-09-14T08:21:49Z</time>
      </trkpt>
      <trkpt lat="45.95848" lon="4.7715">
        <ele>192</ele>
        <time>2016-09-14T08:21:50Z</time>
      </trkpt>
      <trkpt lat="45.9585" lon="4.77157">
        <ele>192</ele>
        <time>2016-09-14T08:21:51Z</time>
      </trkpt>
      <trkpt lat="45.95852" lon="4.77164">
        <ele>192</ele>
        <time>2016-09-14T08:21:52Z</time>
      </trkpt>
      <trkpt lat="45.95855" lon="4.77171">
        <ele>192</ele>
        <time>2016-09-14T08:21:53Z</time>
      </trkpt>
      <trkpt lat="45.95857" lon="4.77177">
        <ele>192</ele>
        <time>2016-09-14T08:21:54Z</time>
      </trkpt>
      <trkpt lat="45.95859" lon="4.77184">
        <ele>192</ele>
        <time>2016-09-14T08:21:55Z</time>
      </trkpt>
      <trkpt lat="45.95861" lon="4.77191">
        <ele>192</ele>
        <time>2016-09-14T08:21:56Z</time>
      </trkpt>
      <trkpt lat="45.95862" lon="4.77198">
        <ele>192</ele>
        <time>2016-09-14T08:21:57Z</time>
      </trkpt>
      <trkpt lat="45.95863" lon="4.77205">
        <ele>193</ele>
        <time>2016-09-14T08:21:58Z</time>
      </trkpt>
      <trkpt lat="45.95865" lon="4.77212">
        <ele>193</ele>
        <time>2016-09-14T08:21:59Z</time>
      </trkpt>
      <trkpt lat="45.95866" lon="4.7722">
        <ele>193</ele>
        <time>2016-09-14T08:22:00Z</time>
      </trkpt>
      <trkpt lat="45.95868" lon="4.77227">
        <ele>193</ele>
        <time>2016-09-14T08:22:01Z</time>
      </trkpt>
      <trkpt lat="45.9587" lon="4.77235">
        <ele>193</ele>
        <time>2016-09-14T08:22:02Z</time>
      </trkpt>
      <trkpt lat="45.95871" lon="4.77243">
        <ele>193</ele>
        <time>2016-09-14T08:22:03Z</time>
      </trkpt>
      <trkpt lat="45.95873" lon="4.7725">
        <ele>193</ele>
        <time>2016-09-14T08:22:04Z</time>
      </trkpt>
      <trkpt lat="45.95875" lon="4.77257">
        <ele>193</ele>
        <time>2016-09-14T08:22:05Z</time>
      </trkpt>
      <trkpt lat="45.95877" lon="4.77265">
        <ele>193</ele>
        <time>2016-09-14T08:22:06Z</time>
      </trkpt>
      <trkpt lat="45.95879" lon="4.77272">
        <ele>193</ele>
        <time>2016-09-14T08:22:07Z</time>
      </trkpt>
      <trkpt lat="45.95882" lon="4.7728">
        <ele>193</ele>
        <time>2016-09-14T08:22:08Z</time>
      </trkpt>
      <trkpt lat="45.95884" lon="4.77287">
        <ele>193</ele>
        <time>2016-09-14T08:22:09Z</time>
      </trkpt>
      <trkpt lat="45.95886" lon="4.77294">
        <ele>193</ele>
        <time>2016-09-14T08:22:10Z</time>
      </trkpt>
      <trkpt lat="45.95888" lon="4.77301">
        <ele>193</ele>
        <time>2016-09-14T08:22:11Z</time>
      </trkpt>
      <trkpt lat="45.9589" lon="4.77308">
        <ele>193</ele>
        <time>2016-09-14T08:22:12Z</time>
      </trkpt>
      <trkpt lat="45.95892" lon="4.77315">
        <ele>193</ele>
        <time>2016-09-14T08:22:13Z</time>
      </trkpt>
      <trkpt lat="45.95895" lon="4.77322">
        <ele>193</ele>
        <time>2016-09-14T08:22:14Z</time>
      </trkpt>
      <trkpt lat="45.95897" lon="4.77328">
        <ele>194</ele>
        <time>2016-09-14T08:22:15Z</time>
      </trkpt>
      <trkpt lat="45.95899" lon="4.77335">
        <ele>193</ele>
        <time>2016-09-14T08:22:16Z</time>
      </trkpt>
      <trkpt lat="45.959" lon="4.77341">
        <ele>193</ele>
        <time>2016-09-14T08:22:17Z</time>
      </trkpt>
      <trkpt lat="45.95903" lon="4.77348">
        <ele>193</ele>
        <time>2016-09-14T08:22:18Z</time>
      </trkpt>
      <trkpt lat="45.95905" lon="4.77354">
        <ele>193</ele>
        <time>2016-09-14T08:22:19Z</time>
      </trkpt>
      <trkpt lat="45.95907" lon="4.77361">
        <ele>193</ele>
        <time>2016-09-14T08:22:20Z</time>
      </trkpt>
      <trkpt lat="45.95908" lon="4.77368">
        <ele>193</ele>
        <time>2016-09-14T08:22:21Z</time>
      </trkpt>
      <trkpt lat="45.95909" lon="4.77375">
        <ele>193</ele>
        <time>2016-09-14T08:22:22Z</time>
      </trkpt>
      <trkpt lat="45.95912" lon="4.77382">
        <ele>193</ele>
        <time>2016-09-14T08:22:23Z</time>
      </trkpt>
      <trkpt lat="45.95913" lon="4.77388">
        <ele>193</ele>
        <time>2016-09-14T08:22:24Z</time>
      </trkpt>
      <trkpt lat="45.95916" lon="4.77395">
        <ele>193</ele>
        <time>2016-09-14T08:22:25Z</time>
      </trkpt>
      <trkpt lat="45.95918" lon="4.77402">
        <ele>195</ele>
        <time>2016-09-14T08:22:26Z</time>
      </trkpt>
      <trkpt lat="45.9592" lon="4.77408">
        <ele>195</ele>
        <time>2016-09-14T08:22:27Z</time>
      </trkpt>
      <trkpt lat="45.95923" lon="4.77415">
        <ele>195</ele>
        <time>2016-09-14T08:22:28Z</time>
      </trkpt>
      <trkpt lat="45.95926" lon="4.77422">
        <ele>195</ele>
        <time>2016-09-14T08:22:29Z</time>
      </trkpt>
      <trkpt lat="45.95928" lon="4.77428">
        <ele>195</ele>
        <time>2016-09-14T08:22:30Z</time>
      </trkpt>
      <trkpt lat="45.9593" lon="4.77434">
        <ele>195</ele>
        <time>2016-09-14T08:22:31Z</time>
      </trkpt>
      <trkpt lat="45.95932" lon="4.7744">
        <ele>195</ele>
        <time>2016-09-14T08:22:32Z</time>
      </trkpt>
      <trkpt lat="45.95934" lon="4.77447">
        <ele>195</ele>
        <time>2016-09-14T08:22:33Z</time>
      </trkpt>
      <trkpt lat="45.95936" lon="4.77454">
        <ele>195</ele>
        <time>2016-09-14T08:22:34Z</time>
      </trkpt>
      <trkpt lat="45.95939" lon="4.7746">
        <ele>195</ele>
        <time>2016-09-14T08:22:35Z</time>
      </trkpt>
      <trkpt lat="45.95941" lon="4.77467">
        <ele>195</ele>
        <time>2016-09-14T08:22:36Z</time>
      </trkpt>
      <trkpt lat="45.95944" lon="4.77473">
        <ele>195</ele>
        <time>2016-09-14T08:22:37Z</time>
      </trkpt>
      <trkpt lat="45.95946" lon="4.7748">
        <ele>195</ele>
        <time>2016-09-14T08:22:38Z</time>
      </trkpt>
      <trkpt lat="45.95948" lon="4.77486">
        <ele>195</ele>
        <time>2016-09-14T08:22:39Z</time>
      </trkpt>
      <trkpt lat="45.9595" lon="4.77492">
        <ele>195</ele>
        <time>2016-09-14T08:22:40Z</time>
      </trkpt>
      <trkpt lat="45.95952" lon="4.77497">
        <ele>195</ele>
        <time>2016-09-14T08:22:41Z</time>
      </trkpt>
      <trkpt lat="45.95955" lon="4.77503">
        <ele>195</ele>
        <time>2016-09-14T08:22:42Z</time>
      </trkpt>
      <trkpt lat="45.95959" lon="4.77514">
        <ele>195</ele>
        <time>2016-09-14T08:22:44Z</time>
      </trkpt>
      <trkpt lat="45.95961" lon="4.77519">
        <ele>195</ele>
        <time>2016-09-14T08:22:45Z</time>
      </trkpt>
      <trkpt lat="45.95967" lon="4.77529">
        <ele>195</ele>
        <time>2016-09-14T08:22:47Z</time>
      </trkpt>
      <trkpt lat="45.95969" lon="4.77533">
        <ele>195</ele>
        <time>2016-09-14T08:22:48Z</time>
      </trkpt>
      <trkpt lat="45.95973" lon="4.77542">
        <ele>195</ele>
        <time>2016-09-14T08:22:50Z</time>
      </trkpt>
      <trkpt lat="45.95975" lon="4.77546">
        <ele>195</ele>
        <time>2016-09-14T08:22:51Z</time>
      </trkpt>
      <trkpt lat="45.95978" lon="4.77552">
        <ele>195</ele>
        <time>2016-09-14T08:22:52Z</time>
      </trkpt>
      <trkpt lat="45.9598" lon="4.77558">
        <ele>196</ele>
        <time>2016-09-14T08:22:53Z</time>
      </trkpt>
      <trkpt lat="45.95983" lon="4.77564">
        <ele>196</ele>
        <time>2016-09-14T08:22:54Z</time>
      </trkpt>
      <trkpt lat="45.95986" lon="4.7757">
        <ele>196</ele>
        <time>2016-09-14T08:22:55Z</time>
      </trkpt>
      <trkpt lat="45.95988" lon="4.77577">
        <ele>196</ele>
        <time>2016-09-14T08:22:56Z</time>
      </trkpt>
      <trkpt lat="45.95989" lon="4.77584">
        <ele>196</ele>
        <time>2016-09-14T08:22:57Z</time>
      </trkpt>
      <trkpt lat="45.95992" lon="4.77591">
        <ele>196</ele>
        <time>2016-09-14T08:22:58Z</time>
      </trkpt>
      <trkpt lat="45.95996" lon="4.77597">
        <ele>195</ele>
        <time>2016-09-14T08:22:59Z</time>
      </trkpt>
      <trkpt lat="45.96" lon="4.77602">
        <ele>195</ele>
        <time>2016-09-14T08:23:00Z</time>
      </trkpt>
      <trkpt lat="45.96004" lon="4.77606">
        <ele>198</ele>
        <time>2016-09-14T08:23:01Z</time>
      </trkpt>
      <trkpt lat="45.96007" lon="4.7761">
        <ele>199</ele>
        <time>2016-09-14T08:23:02Z</time>
      </trkpt>
      <trkpt lat="45.96011" lon="4.77614">
        <ele>199</ele>
        <time>2016-09-14T08:23:03Z</time>
      </trkpt>
      <trkpt lat="45.96014" lon="4.77619">
        <ele>199</ele>
        <time>2016-09-14T08:23:04Z</time>
      </trkpt>
      <trkpt lat="45.96018" lon="4.77624">
        <ele>199</ele>
        <time>2016-09-14T08:23:05Z</time>
      </trkpt>
      <trkpt lat="45.96022" lon="4.77629">
        <ele>199</ele>
        <time>2016-09-14T08:23:06Z</time>
      </trkpt>
      <trkpt lat="45.96026" lon="4.77634">
        <ele>199</ele>
        <time>2016-09-14T08:23:07Z</time>
      </trkpt>
      <trkpt lat="45.96031" lon="4.77637">
        <ele>199</ele>
        <time>2016-09-14T08:23:08Z</time>
      </trkpt>
      <trkpt lat="45.96036" lon="4.77641">
        <ele>199</ele>
        <time>2016-09-14T08:23:09Z</time>
      </trkpt>
      <trkpt lat="45.9604" lon="4.77645">
        <ele>199</ele>
        <time>2016-09-14T08:23:10Z</time>
      </trkpt>
      <trkpt lat="45.96044" lon="4.7765">
        <ele>199</ele>
        <time>2016-09-14T08:23:11Z</time>
      </trkpt>
      <trkpt lat="45.96048" lon="4.77654">
        <ele>200</ele>
        <time>2016-09-14T08:23:12Z</time>
      </trkpt>
      <trkpt lat="45.96052" lon="4.7766">
        <ele>200</ele>
        <time>2016-09-14T08:23:13Z</time>
      </trkpt>
      <trkpt lat="45.96055" lon="4.77664">
        <ele>200</ele>
        <time>2016-09-14T08:23:14Z</time>
      </trkpt>
      <trkpt lat="45.96059" lon="4.77669">
        <ele>198</ele>
        <time>2016-09-14T08:23:15Z</time>
      </trkpt>
      <trkpt lat="45.96063" lon="4.77674">
        <ele>198</ele>
        <time>2016-09-14T08:23:16Z</time>
      </trkpt>
      <trkpt lat="45.96067" lon="4.77679">
        <ele>198</ele>
        <time>2016-09-14T08:23:17Z</time>
      </trkpt>
      <trkpt lat="45.96071" lon="4.77684">
        <ele>198</ele>
        <time>2016-09-14T08:23:18Z</time>
      </trkpt>
      <trkpt lat="45.96074" lon="4.77689">
        <ele>198</ele>
        <time>2016-09-14T08:23:19Z</time>
      </trkpt>
      <trkpt lat="45.96077" lon="4.77694">
        <ele>197</ele>
        <time>2016-09-14T08:23:20Z</time>
      </trkpt>
      <trkpt lat="45.9608" lon="4.777">
        <ele>197</ele>
        <time>2016-09-14T08:23:21Z</time>
      </trkpt>
      <trkpt lat="45.96083" lon="4.77705">
        <ele>197</ele>
        <time>2016-09-14T08:23:22Z</time>
      </trkpt>
      <trkpt lat="45.96086" lon="4.77711">
        <ele>200</ele>
        <time>2016-09-14T08:23:23Z</time>
      </trkpt>
      <trkpt lat="45.96089" lon="4.77717">
        <ele>199</ele>
        <time>2016-09-14T08:23:24Z</time>
      </trkpt>
      <trkpt lat="45.96092" lon="4.77722">
        <ele>199</ele>
        <time>2016-09-14T08:23:25Z</time>
      </trkpt>
      <trkpt lat="45.96094" lon="4.77728">
        <ele>199</ele>
        <time>2016-09-14T08:23:26Z</time>
      </trkpt>
      <trkpt lat="45.96097" lon="4.77733">
        <ele>198</ele>
        <time>2016-09-14T08:23:27Z</time>
      </trkpt>
      <trkpt lat="45.961" lon="4.77739">
        <ele>198</ele>
        <time>2016-09-14T08:23:28Z</time>
      </trkpt>
      <trkpt lat="45.96103" lon="4.77745">
        <ele>198</ele>
        <time>2016-09-14T08:23:29Z</time>
      </trkpt>
      <trkpt lat="45.96109" lon="4.77755">
        <ele>197</ele>
        <time>2016-09-14T08:23:31Z</time>
      </trkpt>
      <trkpt lat="45.96111" lon="4.7776">
        <ele>197</ele>
        <time>2016-09-14T08:23:32Z</time>
      </trkpt>
      <trkpt lat="45.96115" lon="4.77765">
        <ele>197</ele>
        <time>2016-09-14T08:23:33Z</time>
      </trkpt>
      <trkpt lat="45.96118" lon="4.7777">
        <ele>197</ele>
        <time>2016-09-14T08:23:34Z</time>
      </trkpt>
      <trkpt lat="45.96121" lon="4.77775">
        <ele>197</ele>
        <time>2016-09-14T08:23:35Z</time>
      </trkpt>
      <trkpt lat="45.96124" lon="4.7778">
        <ele>197</ele>
        <time>2016-09-14T08:23:36Z</time>
      </trkpt>
      <trkpt lat="45.96126" lon="4.77784">
        <ele>197</ele>
        <time>2016-09-14T08:23:37Z</time>
      </trkpt>
      <trkpt lat="45.9613" lon="4.77789">
        <ele>197</ele>
        <time>2016-09-14T08:23:38Z</time>
      </trkpt>
      <trkpt lat="45.96133" lon="4.77795">
        <ele>198</ele>
        <time>2016-09-14T08:23:39Z</time>
      </trkpt>
      <trkpt lat="45.96136" lon="4.77799">
        <ele>198</ele>
        <time>2016-09-14T08:23:40Z</time>
      </trkpt>
      <trkpt lat="45.96139" lon="4.77804">
        <ele>198</ele>
        <time>2016-09-14T08:23:41Z</time>
      </trkpt>
      <trkpt lat="45.96142" lon="4.77809">
        <ele>198</ele>
        <time>2016-09-14T08:23:42Z</time>
      </trkpt>
      <trkpt lat="45.96145" lon="4.77814">
        <ele>198</ele>
        <time>2016-09-14T08:23:43Z</time>
      </trkpt>
      <trkpt lat="45.96148" lon="4.7782">
        <ele>198</ele>
        <time>2016-09-14T08:23:44Z</time>
      </trkpt>
      <trkpt lat="45.96151" lon="4.77826">
        <ele>198</ele>
        <time>2016-09-14T08:23:45Z</time>
      </trkpt>
      <trkpt lat="45.96155" lon="4.77832">
        <ele>198</ele>
        <time>2016-09-14T08:23:46Z</time>
      </trkpt>
      <trkpt lat="45.96158" lon="4.77838">
        <ele>197</ele>
        <time>2016-09-14T08:23:47Z</time>
      </trkpt>
      <trkpt lat="45.96162" lon="4.77844">
        <ele>197</ele>
        <time>2016-09-14T08:23:48Z</time>
      </trkpt>
      <trkpt lat="45.96165" lon="4.7785">
        <ele>197</ele>
        <time>2016-09-14T08:23:49Z</time>
      </trkpt>
      <trkpt lat="45.96169" lon="4.77855">
        <ele>201</ele>
        <time>2016-09-14T08:23:50Z</time>
      </trkpt>
      <trkpt lat="45.96172" lon="4.77861">
        <ele>201</ele>
        <time>2016-09-14T08:23:51Z</time>
      </trkpt>
      <trkpt lat="45.96176" lon="4.77866">
        <ele>201</ele>
        <time>2016-09-14T08:23:52Z</time>
      </trkpt>
      <trkpt lat="45.96179" lon="4.77871">
        <ele>201</ele>
        <time>2016-09-14T08:23:53Z</time>
      </trkpt>
      <trkpt lat="45.96182" lon="4.77877">
        <ele>201</ele>
        <time>2016-09-14T08:23:54Z</time>
      </trkpt>
      <trkpt lat="45.96185" lon="4.77883">
        <ele>201</ele>
        <time>2016-09-14T08:23:55Z</time>
      </trkpt>
      <trkpt lat="45.96189" lon="4.77888">
        <ele>201</ele>
        <time>2016-09-14T08:23:56Z</time>
      </trkpt>
      <trkpt lat="45.96192" lon="4.77894">
        <ele>201</ele>
        <time>2016-09-14T08:23:57Z</time>
      </trkpt>
      <trkpt lat="45.96196" lon="4.77899">
        <ele>201</ele>
        <time>2016-09-14T08:23:58Z</time>
      </trkpt>
      <trkpt lat="45.96199" lon="4.77904">
        <ele>201</ele>
        <time>2016-09-14T08:23:59Z</time>
      </trkpt>
      <trkpt lat="45.96203" lon="4.77909">
        <ele>202</ele>
        <time>2016-09-14T08:24:00Z</time>
      </trkpt>
      <trkpt lat="45.96207" lon="4.77915">
        <ele>202</ele>
        <time>2016-09-14T08:24:01Z</time>
      </trkpt>
      <trkpt lat="45.96211" lon="4.7792">
        <ele>199</ele>
        <time>2016-09-14T08:24:02Z</time>
      </trkpt>
      <trkpt lat="45.96216" lon="4.77926">
        <ele>200</ele>
        <time>2016-09-14T08:24:03Z</time>
      </trkpt>
      <trkpt lat="45.9622" lon="4.77931">
        <ele>200</ele>
        <time>2016-09-14T08:24:04Z</time>
      </trkpt>
      <trkpt lat="45.96224" lon="4.77936">
        <ele>200</ele>
        <time>2016-09-14T08:24:05Z</time>
      </trkpt>
      <trkpt lat="45.96227" lon="4.77941">
        <ele>200</ele>
        <time>2016-09-14T08:24:06Z</time>
      </trkpt>
      <trkpt lat="45.96231" lon="4.77946">
        <ele>200</ele>
        <time>2016-09-14T08:24:07Z</time>
      </trkpt>
      <trkpt lat="45.96234" lon="4.77951">
        <ele>200</ele>
        <time>2016-09-14T08:24:08Z</time>
      </trkpt>
      <trkpt lat="45.96238" lon="4.77955">
        <ele>199</ele>
        <time>2016-09-14T08:24:09Z</time>
      </trkpt>
      <trkpt lat="45.96242" lon="4.77959">
        <ele>199</ele>
        <time>2016-09-14T08:24:10Z</time>
      </trkpt>
      <trkpt lat="45.96246" lon="4.77964">
        <ele>199</ele>
        <time>2016-09-14T08:24:11Z</time>
      </trkpt>
      <trkpt lat="45.9625" lon="4.77969">
        <ele>198</ele>
        <time>2016-09-14T08:24:12Z</time>
      </trkpt>
      <trkpt lat="45.96254" lon="4.77973">
        <ele>203</ele>
        <time>2016-09-14T08:24:13Z</time>
      </trkpt>
      <trkpt lat="45.96258" lon="4.77977">
        <ele>202</ele>
        <time>2016-09-14T08:24:14Z</time>
      </trkpt>
      <trkpt lat="45.96262" lon="4.77981">
        <ele>202</ele>
        <time>2016-09-14T08:24:15Z</time>
      </trkpt>
      <trkpt lat="45.96266" lon="4.77985">
        <ele>202</ele>
        <time>2016-09-14T08:24:16Z</time>
      </trkpt>
      <trkpt lat="45.96271" lon="4.77989">
        <ele>202</ele>
        <time>2016-09-14T08:24:17Z</time>
      </trkpt>
      <trkpt lat="45.96276" lon="4.77993">
        <ele>203</ele>
        <time>2016-09-14T08:24:18Z</time>
      </trkpt>
      <trkpt lat="45.96281" lon="4.77997">
        <ele>203</ele>
        <time>2016-09-14T08:24:19Z</time>
      </trkpt>
      <trkpt lat="45.96286" lon="4.78001">
        <ele>199</ele>
        <time>2016-09-14T08:24:20Z</time>
      </trkpt>
      <trkpt lat="45.96292" lon="4.78006">
        <ele>199</ele>
        <time>2016-09-14T08:24:21Z</time>
      </trkpt>
      <trkpt lat="45.96296" lon="4.78011">
        <ele>199</ele>
        <time>2016-09-14T08:24:22Z</time>
      </trkpt>
      <trkpt lat="45.963" lon="4.78016">
        <ele>199</ele>
        <time>2016-09-14T08:24:23Z</time>
      </trkpt>
      <trkpt lat="45.96304" lon="4.78021">
        <ele>200</ele>
        <time>2016-09-14T08:24:24Z</time>
      </trkpt>
      <trkpt lat="45.96308" lon="4.78026">
        <ele>200</ele>
        <time>2016-09-14T08:24:25Z</time>
      </trkpt>
      <trkpt lat="45.96312" lon="4.78031">
        <ele>200</ele>
        <time>2016-09-14T08:24:26Z</time>
      </trkpt>
      <trkpt lat="45.96317" lon="4.78036">
        <ele>199</ele>
        <time>2016-09-14T08:24:27Z</time>
      </trkpt>
      <trkpt lat="45.96321" lon="4.78041">
        <ele>199</ele>
        <time>2016-09-14T08:24:28Z</time>
      </trkpt>
      <trkpt lat="45.96326" lon="4.78047">
        <ele>199</ele>
        <time>2016-09-14T08:24:29Z</time>
      </trkpt>
      <trkpt lat="45.9633" lon="4.78053">
        <ele>199</ele>
        <time>2016-09-14T08:24:30Z</time>
      </trkpt>
      <trkpt lat="45.96335" lon="4.78058">
        <ele>202</ele>
        <time>2016-09-14T08:24:31Z</time>
      </trkpt>
      <trkpt lat="45.9634" lon="4.78063">
        <ele>201</ele>
        <time>2016-09-14T08:24:32Z</time>
      </trkpt>
      <trkpt lat="45.96345" lon="4.78069">
        <ele>201</ele>
        <time>2016-09-14T08:24:33Z</time>
      </trkpt>
      <trkpt lat="45.96349" lon="4.78074">
        <ele>201</ele>
        <time>2016-09-14T08:24:34Z</time>
      </trkpt>
      <trkpt lat="45.96354" lon="4.78079">
        <ele>201</ele>
        <time>2016-09-14T08:24:35Z</time>
      </trkpt>
      <trkpt lat="45.96358" lon="4.78083">
        <ele>202</ele>
        <time>2016-09-14T08:24:36Z</time>
      </trkpt>
      <trkpt lat="45.96362" lon="4.78087">
        <ele>199</ele>
        <time>2016-09-14T08:24:37Z</time>
      </trkpt>
      <trkpt lat="45.96365" lon="4.78091">
        <ele>199</ele>
        <time>2016-09-14T08:24:38Z</time>
      </trkpt>
      <trkpt lat="45.96372" lon="4.78098">
        <ele>199</ele>
        <time>2016-09-14T08:24:40Z</time>
      </trkpt>
      <trkpt lat="45.96376" lon="4.78102">
        <ele>200</ele>
        <time>2016-09-14T08:24:41Z</time>
      </trkpt>
      <trkpt lat="45.9638" lon="4.78105">
        <ele>200</ele>
        <time>2016-09-14T08:24:42Z</time>
      </trkpt>
      <trkpt lat="45.96384" lon="4.78108">
        <ele>200</ele>
        <time>2016-09-14T08:24:43Z</time>
      </trkpt>
      <trkpt lat="45.96388" lon="4.78112">
        <ele>200</ele>
        <time>2016-09-14T08:24:44Z</time>
      </trkpt>
      <trkpt lat="45.96392" lon="4.78115">
        <ele>200</ele>
        <time>2016-09-14T08:24:45Z</time>
      </trkpt>
      <trkpt lat="45.96396" lon="4.78119">
        <ele>200</ele>
        <time>2016-09-14T08:24:46Z</time>
      </trkpt>
      <trkpt lat="45.964" lon="4.78123">
        <ele>200</ele>
        <time>2016-09-14T08:24:47Z</time>
      </trkpt>
      <trkpt lat="45.96404" lon="4.78126">
        <ele>200</ele>
        <time>2016-09-14T08:24:48Z</time>
      </trkpt>
      <trkpt lat="45.96408" lon="4.7813">
        <ele>199</ele>
        <time>2016-09-14T08:24:49Z</time>
      </trkpt>
      <trkpt lat="45.96412" lon="4.78134">
        <ele>199</ele>
        <time>2016-09-14T08:24:50Z</time>
      </trkpt>
      <trkpt lat="45.96416" lon="4.78138">
        <ele>199</ele>
        <time>2016-09-14T08:24:51Z</time>
      </trkpt>
      <trkpt lat="45.96421" lon="4.78142">
        <ele>203</ele>
        <time>2016-09-14T08:24:52Z</time>
      </trkpt>
      <trkpt lat="45.96426" lon="4.78147">
        <ele>202</ele>
        <time>2016-09-14T08:24:53Z</time>
      </trkpt>
      <trkpt lat="45.96431" lon="4.78152">
        <ele>202</ele>
        <time>2016-09-14T08:24:54Z</time>
      </trkpt>
      <trkpt lat="45.96435" lon="4.78156">
        <ele>202</ele>
        <time>2016-09-14T08:24:55Z</time>
      </trkpt>
      <trkpt lat="45.96438" lon="4.78162">
        <ele>202</ele>
        <time>2016-09-14T08:24:56Z</time>
      </trkpt>
      <trkpt lat="45.96442" lon="4.78167">
        <ele>199</ele>
        <time>2016-09-14T08:24:57Z</time>
      </trkpt>
      <trkpt lat="45.96447" lon="4.78171">
        <ele>199</ele>
        <time>2016-09-14T08:24:58Z</time>
      </trkpt>
      <trkpt lat="45.96451" lon="4.78174">
        <ele>199</ele>
        <time>2016-09-14T08:24:59Z</time>
      </trkpt>
      <trkpt lat="45.96456" lon="4.78178">
        <ele>200</ele>
        <time>2016-09-14T08:25:00Z</time>
      </trkpt>
      <trkpt lat="45.96461" lon="4.78181">
        <ele>200</ele>
        <time>2016-09-14T08:25:01Z</time>
      </trkpt>
      <trkpt lat="45.96466" lon="4.78184">
        <ele>200</ele>
        <time>2016-09-14T08:25:02Z</time>
      </trkpt>
      <trkpt lat="45.9647" lon="4.78187">
        <ele>200</ele>
        <time>2016-09-14T08:25:03Z</time>
      </trkpt>
      <trkpt lat="45.96475" lon="4.7819">
        <ele>200</ele>
        <time>2016-09-14T08:25:04Z</time>
      </trkpt>
      <trkpt lat="45.9648" lon="4.78192">
        <ele>200</ele>
        <time>2016-09-14T08:25:05Z</time>
      </trkpt>
      <trkpt lat="45.96484" lon="4.78195">
        <ele>200</ele>
        <time>2016-09-14T08:25:06Z</time>
      </trkpt>
      <trkpt lat="45.96489" lon="4.78198">
        <ele>200</ele>
        <time>2016-09-14T08:25:07Z</time>
      </trkpt>
      <trkpt lat="45.96494" lon="4.78201">
        <ele>200</ele>
        <time>2016-09-14T08:25:08Z</time>
      </trkpt>
      <trkpt lat="45.96498" lon="4.78205">
        <ele>200</ele>
        <time>2016-09-14T08:25:09Z</time>
      </trkpt>
      <trkpt lat="45.96501" lon="4.7821">
        <ele>205</ele>
        <time>2016-09-14T08:25:10Z</time>
      </trkpt>
      <trkpt lat="45.96505" lon="4.78215">
        <ele>204</ele>
        <time>2016-09-14T08:25:11Z</time>
      </trkpt>
      <trkpt lat="45.96508" lon="4.7822">
        <ele>204</ele>
        <time>2016-09-14T08:25:12Z</time>
      </trkpt>
      <trkpt lat="45.96511" lon="4.78226">
        <ele>204</ele>
        <time>2016-09-14T08:25:13Z</time>
      </trkpt>
      <trkpt lat="45.96514" lon="4.7823">
        <ele>203</ele>
        <time>2016-09-14T08:25:14Z</time>
      </trkpt>
      <trkpt lat="45.96518" lon="4.78235">
        <ele>203</ele>
        <time>2016-09-14T08:25:15Z</time>
      </trkpt>
      <trkpt lat="45.96521" lon="4.7824">
        <ele>203</ele>
        <time>2016-09-14T08:25:16Z</time>
      </trkpt>
      <trkpt lat="45.96525" lon="4.78245">
        <ele>203</ele>
        <time>2016-09-14T08:25:17Z</time>
      </trkpt>
      <trkpt lat="45.96529" lon="4.78251">
        <ele>200</ele>
        <time>2016-09-14T08:25:18Z</time>
      </trkpt>
      <trkpt lat="45.96532" lon="4.78256">
        <ele>200</ele>
        <time>2016-09-14T08:25:19Z</time>
      </trkpt>
      <trkpt lat="45.96535" lon="4.78262">
        <ele>200</ele>
        <time>2016-09-14T08:25:20Z</time>
      </trkpt>
      <trkpt lat="45.96539" lon="4.78267">
        <ele>200</ele>
        <time>2016-09-14T08:25:21Z</time>
      </trkpt>
      <trkpt lat="45.96543" lon="4.78272">
        <ele>200</ele>
        <time>2016-09-14T08:25:22Z</time>
      </trkpt>
      <trkpt lat="45.96546" lon="4.78278">
        <ele>200</ele>
        <time>2016-09-14T08:25:23Z</time>
      </trkpt>
      <trkpt lat="45.9655" lon="4.78283">
        <ele>200</ele>
        <time>2016-09-14T08:25:24Z</time>
      </trkpt>
      <trkpt lat="45.96554" lon="4.78288">
        <ele>200</ele>
        <time>2016-09-14T08:25:25Z</time>
      </trkpt>
      <trkpt lat="45.96559" lon="4.78292">
        <ele>200</ele>
        <time>2016-09-14T08:25:26Z</time>
      </trkpt>
      <trkpt lat="45.96564" lon="4.78298">
        <ele>200</ele>
        <time>2016-09-14T08:25:27Z</time>
      </trkpt>
      <trkpt lat="45.96569" lon="4.78302">
        <ele>200</ele>
        <time>2016-09-14T08:25:28Z</time>
      </trkpt>
      <trkpt lat="45.96575" lon="4.78308">
        <ele>200</ele>
        <time>2016-09-14T08:25:29Z</time>
      </trkpt>
      <trkpt lat="45.96579" lon="4.78312">
        <ele>199</ele>
        <time>2016-09-14T08:25:30Z</time>
      </trkpt>
      <trkpt lat="45.96584" lon="4.78316">
        <ele>202</ele>
        <time>2016-09-14T08:25:31Z</time>
      </trkpt>
      <trkpt lat="45.96589" lon="4.78321">
        <ele>202</ele>
        <time>2016-09-14T08:25:32Z</time>
      </trkpt>
      <trkpt lat="45.96594" lon="4.78324">
        <ele>202</ele>
        <time>2016-09-14T08:25:33Z</time>
      </trkpt>
      <trkpt lat="45.96598" lon="4.78329">
        <ele>202</ele>
        <time>2016-09-14T08:25:34Z</time>
      </trkpt>
      <trkpt lat="45.96603" lon="4.78333">
        <ele>203</ele>
        <time>2016-09-14T08:25:35Z</time>
      </trkpt>
      <trkpt lat="45.96607" lon="4.78338">
        <ele>200</ele>
        <time>2016-09-14T08:25:36Z</time>
      </trkpt>
      <trkpt lat="45.96611" lon="4.78343">
        <ele>200</ele>
        <time>2016-09-14T08:25:37Z</time>
      </trkpt>
      <trkpt lat="45.96615" lon="4.78347">
        <ele>201</ele>
        <time>2016-09-14T08:25:38Z</time>
      </trkpt>
      <trkpt lat="45.96619" lon="4.78352">
        <ele>201</ele>
        <time>2016-09-14T08:25:39Z</time>
      </trkpt>
      <trkpt lat="45.96624" lon="4.78356">
        <ele>201</ele>
        <time>2016-09-14T08:25:40Z</time>
      </trkpt>
      <trkpt lat="45.96629" lon="4.78361">
        <ele>201</ele>
        <time>2016-09-14T08:25:41Z</time>
      </trkpt>
      <trkpt lat="45.96633" lon="4.78365">
        <ele>201</ele>
        <time>2016-09-14T08:25:42Z</time>
      </trkpt>
      <trkpt lat="45.96637" lon="4.78369">
        <ele>201</ele>
        <time>2016-09-14T08:25:43Z</time>
      </trkpt>
      <trkpt lat="45.96642" lon="4.78374">
        <ele>201</ele>
        <time>2016-09-14T08:25:44Z</time>
      </trkpt>
      <trkpt lat="45.96646" lon="4.78378">
        <ele>201</ele>
        <time>2016-09-14T08:25:45Z</time>
      </trkpt>
      <trkpt lat="45.96651" lon="4.78382">
        <ele>201</ele>
        <time>2016-09-14T08:25:46Z</time>
      </trkpt>
      <trkpt lat="45.96655" lon="4.78385">
        <ele>201</ele>
        <time>2016-09-14T08:25:47Z</time>
      </trkpt>
      <trkpt lat="45.96659" lon="4.78389">
        <ele>201</ele>
        <time>2016-09-14T08:25:48Z</time>
      </trkpt>
      <trkpt lat="45.96664" lon="4.78392">
        <ele>201</ele>
        <time>2016-09-14T08:25:49Z</time>
      </trkpt>
      <trkpt lat="45.96668" lon="4.78396">
        <ele>204</ele>
        <time>2016-09-14T08:25:50Z</time>
      </trkpt>
      <trkpt lat="45.96672" lon="4.784">
        <ele>204</ele>
        <time>2016-09-14T08:25:51Z</time>
      </trkpt>
      <trkpt lat="45.96677" lon="4.78403">
        <ele>204</ele>
        <time>2016-09-14T08:25:52Z</time>
      </trkpt>
      <trkpt lat="45.96681" lon="4.78407">
        <ele>204</ele>
        <time>2016-09-14T08:25:53Z</time>
      </trkpt>
      <trkpt lat="45.96685" lon="4.7841">
        <ele>204</ele>
        <time>2016-09-14T08:25:54Z</time>
      </trkpt>
      <trkpt lat="45.96689" lon="4.78414">
        <ele>204</ele>
        <time>2016-09-14T08:25:55Z</time>
      </trkpt>
      <trkpt lat="45.96696" lon="4.78422">
        <ele>203</ele>
        <time>2016-09-14T08:25:57Z</time>
      </trkpt>
      <trkpt lat="45.96699" lon="4.78425">
        <ele>203</ele>
        <time>2016-09-14T08:25:58Z</time>
      </trkpt>
      <trkpt lat="45.96706" lon="4.78434">
        <ele>203</ele>
        <time>2016-09-14T08:26:00Z</time>
      </trkpt>
      <trkpt lat="45.96709" lon="4.78439">
        <ele>203</ele>
        <time>2016-09-14T08:26:01Z</time>
      </trkpt>
      <trkpt lat="45.96712" lon="4.78447">
        <ele>203</ele>
        <time>2016-09-14T08:26:02Z</time>
      </trkpt>
      <trkpt lat="45.96716" lon="4.78452">
        <ele>203</ele>
        <time>2016-09-14T08:26:03Z</time>
      </trkpt>
      <trkpt lat="45.96722" lon="4.78455">
        <ele>203</ele>
        <time>2016-09-14T08:26:04Z</time>
      </trkpt>
      <trkpt lat="45.96726" lon="4.78461">
        <ele>203</ele>
        <time>2016-09-14T08:26:05Z</time>
      </trkpt>
      <trkpt lat="45.96731" lon="4.78466">
        <ele>203</ele>
        <time>2016-09-14T08:26:06Z</time>
      </trkpt>
      <trkpt lat="45.96736" lon="4.7847">
        <ele>203</ele>
        <time>2016-09-14T08:26:07Z</time>
      </trkpt>
      <trkpt lat="45.96741" lon="4.78475">
        <ele>203</ele>
        <time>2016-09-14T08:26:08Z</time>
      </trkpt>
      <trkpt lat="45.96746" lon="4.78479">
        <ele>203</ele>
        <time>2016-09-14T08:26:09Z</time>
      </trkpt>
      <trkpt lat="45.96751" lon="4.78483">
        <ele>205</ele>
        <time>2016-09-14T08:26:10Z</time>
      </trkpt>
      <trkpt lat="45.96756" lon="4.78488">
        <ele>204</ele>
        <time>2016-09-14T08:26:11Z</time>
      </trkpt>
      <trkpt lat="45.9676" lon="4.78493">
        <ele>204</ele>
        <time>2016-09-14T08:26:12Z</time>
      </trkpt>
      <trkpt lat="45.96764" lon="4.78499">
        <ele>204</ele>
        <time>2016-09-14T08:26:13Z</time>
      </trkpt>
      <trkpt lat="45.96768" lon="4.78504">
        <ele>203</ele>
        <time>2016-09-14T08:26:14Z</time>
      </trkpt>
      <trkpt lat="45.96772" lon="4.7851">
        <ele>203</ele>
        <time>2016-09-14T08:26:15Z</time>
      </trkpt>
      <trkpt lat="45.96775" lon="4.78515">
        <ele>203</ele>
        <time>2016-09-14T08:26:16Z</time>
      </trkpt>
      <trkpt lat="45.96779" lon="4.7852">
        <ele>203</ele>
        <time>2016-09-14T08:26:17Z</time>
      </trkpt>
      <trkpt lat="45.96783" lon="4.78526">
        <ele>203</ele>
        <time>2016-09-14T08:26:18Z</time>
      </trkpt>
      <trkpt lat="45.96786" lon="4.78532">
        <ele>203</ele>
        <time>2016-09-14T08:26:19Z</time>
      </trkpt>
      <trkpt lat="45.9679" lon="4.78538">
        <ele>203</ele>
        <time>2016-09-14T08:26:20Z</time>
      </trkpt>
      <trkpt lat="45.96794" lon="4.78544">
        <ele>203</ele>
        <time>2016-09-14T08:26:21Z</time>
      </trkpt>
      <trkpt lat="45.96799" lon="4.78549">
        <ele>203</ele>
        <time>2016-09-14T08:26:22Z</time>
      </trkpt>
      <trkpt lat="45.96803" lon="4.78555">
        <ele>203</ele>
        <time>2016-09-14T08:26:23Z</time>
      </trkpt>
      <trkpt lat="45.96807" lon="4.78561">
        <ele>203</ele>
        <time>2016-09-14T08:26:24Z</time>
      </trkpt>
      <trkpt lat="45.96811" lon="4.78567">
        <ele>203</ele>
        <time>2016-09-14T08:26:25Z</time>
      </trkpt>
      <trkpt lat="45.96815" lon="4.78573">
        <ele>203</ele>
        <time>2016-09-14T08:26:26Z</time>
      </trkpt>
      <trkpt lat="45.96818" lon="4.78578">
        <ele>203</ele>
        <time>2016-09-14T08:26:27Z</time>
      </trkpt>
      <trkpt lat="45.96821" lon="4.78583">
        <ele>203</ele>
        <time>2016-09-14T08:26:28Z</time>
      </trkpt>
      <trkpt lat="45.96824" lon="4.78589">
        <ele>202</ele>
        <time>2016-09-14T08:26:29Z</time>
      </trkpt>
      <trkpt lat="45.96827" lon="4.78596">
        <ele>202</ele>
        <time>2016-09-14T08:26:30Z</time>
      </trkpt>
      <trkpt lat="45.96829" lon="4.78602">
        <ele>202</ele>
        <time>2016-09-14T08:26:31Z</time>
      </trkpt>
      <trkpt lat="45.96831" lon="4.78609">
        <ele>202</ele>
        <time>2016-09-14T08:26:32Z</time>
      </trkpt>
      <trkpt lat="45.96832" lon="4.78616">
        <ele>202</ele>
        <time>2016-09-14T08:26:33Z</time>
      </trkpt>
      <trkpt lat="45.96834" lon="4.78624">
        <ele>203</ele>
        <time>2016-09-14T08:26:34Z</time>
      </trkpt>
      <trkpt lat="45.96836" lon="4.78631">
        <ele>203</ele>
        <time>2016-09-14T08:26:35Z</time>
      </trkpt>
      <trkpt lat="45.96839" lon="4.78638">
        <ele>203</ele>
        <time>2016-09-14T08:26:36Z</time>
      </trkpt>
      <trkpt lat="45.96842" lon="4.78645">
        <ele>203</ele>
        <time>2016-09-14T08:26:37Z</time>
      </trkpt>
      <trkpt lat="45.96844" lon="4.78653">
        <ele>202</ele>
        <time>2016-09-14T08:26:38Z</time>
      </trkpt>
      <trkpt lat="45.96847" lon="4.78659">
        <ele>202</ele>
        <time>2016-09-14T08:26:39Z</time>
      </trkpt>
      <trkpt lat="45.96851" lon="4.78666">
        <ele>202</ele>
        <time>2016-09-14T08:26:40Z</time>
      </trkpt>
      <trkpt lat="45.96854" lon="4.78672">
        <ele>202</ele>
        <time>2016-09-14T08:26:41Z</time>
      </trkpt>
      <trkpt lat="45.96857" lon="4.78678">
        <ele>202</ele>
        <time>2016-09-14T08:26:42Z</time>
      </trkpt>
      <trkpt lat="45.9686" lon="4.78683">
        <ele>202</ele>
        <time>2016-09-14T08:26:43Z</time>
      </trkpt>
      <trkpt lat="45.96864" lon="4.7869">
        <ele>202</ele>
        <time>2016-09-14T08:26:44Z</time>
      </trkpt>
      <trkpt lat="45.96867" lon="4.78696">
        <ele>202</ele>
        <time>2016-09-14T08:26:45Z</time>
      </trkpt>
      <trkpt lat="45.9687" lon="4.78702">
        <ele>202</ele>
        <time>2016-09-14T08:26:46Z</time>
      </trkpt>
      <trkpt lat="45.96872" lon="4.78708">
        <ele>202</ele>
        <time>2016-09-14T08:26:47Z</time>
      </trkpt>
      <trkpt lat="45.96875" lon="4.78714">
        <ele>202</ele>
        <time>2016-09-14T08:26:48Z</time>
      </trkpt>
      <trkpt lat="45.96878" lon="4.78721">
        <ele>202</ele>
        <time>2016-09-14T08:26:49Z</time>
      </trkpt>
      <trkpt lat="45.96881" lon="4.78726">
        <ele>202</ele>
        <time>2016-09-14T08:26:50Z</time>
      </trkpt>
      <trkpt lat="45.96884" lon="4.78731">
        <ele>202</ele>
        <time>2016-09-14T08:26:51Z</time>
      </trkpt>
      <trkpt lat="45.96886" lon="4.78737">
        <ele>202</ele>
        <time>2016-09-14T08:26:52Z</time>
      </trkpt>
      <trkpt lat="45.96889" lon="4.78743">
        <ele>202</ele>
        <time>2016-09-14T08:26:53Z</time>
      </trkpt>
      <trkpt lat="45.96891" lon="4.78749">
        <ele>202</ele>
        <time>2016-09-14T08:26:54Z</time>
      </trkpt>
      <trkpt lat="45.96893" lon="4.78755">
        <ele>201</ele>
        <time>2016-09-14T08:26:55Z</time>
      </trkpt>
      <trkpt lat="45.96896" lon="4.78761">
        <ele>201</ele>
        <time>2016-09-14T08:26:56Z</time>
      </trkpt>
      <trkpt lat="45.96899" lon="4.78767">
        <ele>201</ele>
        <time>2016-09-14T08:26:57Z</time>
      </trkpt>
      <trkpt lat="45.96902" lon="4.78774">
        <ele>201</ele>
        <time>2016-09-14T08:26:58Z</time>
      </trkpt>
      <trkpt lat="45.96905" lon="4.7878">
        <ele>201</ele>
        <time>2016-09-14T08:26:59Z</time>
      </trkpt>
      <trkpt lat="45.96908" lon="4.78787">
        <ele>201</ele>
        <time>2016-09-14T08:27:00Z</time>
      </trkpt>
      <trkpt lat="45.96912" lon="4.78794">
        <ele>201</ele>
        <time>2016-09-14T08:27:01Z</time>
      </trkpt>
      <trkpt lat="45.96916" lon="4.78801">
        <ele>201</ele>
        <time>2016-09-14T08:27:02Z</time>
      </trkpt>
      <trkpt lat="45.9692" lon="4.78807">
        <ele>203</ele>
        <time>2016-09-14T08:27:03Z</time>
      </trkpt>
      <trkpt lat="45.96923" lon="4.78812">
        <ele>202</ele>
        <time>2016-09-14T08:27:04Z</time>
      </trkpt>
      <trkpt lat="45.96926" lon="4.78818">
        <ele>202</ele>
        <time>2016-09-14T08:27:05Z</time>
      </trkpt>
      <trkpt lat="45.9693" lon="4.78824">
        <ele>202</ele>
        <time>2016-09-14T08:27:06Z</time>
      </trkpt>
      <trkpt lat="45.96934" lon="4.78829">
        <ele>202</ele>
        <time>2016-09-14T08:27:07Z</time>
      </trkpt>
      <trkpt lat="45.96938" lon="4.78834">
        <ele>202</ele>
        <time>2016-09-14T08:27:08Z</time>
      </trkpt>
      <trkpt lat="45.96942" lon="4.78839">
        <ele>202</ele>
        <time>2016-09-14T08:27:09Z</time>
      </trkpt>
      <trkpt lat="45.96946" lon="4.78843">
        <ele>202</ele>
        <time>2016-09-14T08:27:10Z</time>
      </trkpt>
      <trkpt lat="45.9695" lon="4.78848">
        <ele>202</ele>
        <time>2016-09-14T08:27:11Z</time>
      </trkpt>
      <trkpt lat="45.96954" lon="4.78854">
        <ele>203</ele>
        <time>2016-09-14T08:27:12Z</time>
      </trkpt>
      <trkpt lat="45.96958" lon="4.78858">
        <ele>203</ele>
        <time>2016-09-14T08:27:13Z</time>
      </trkpt>
      <trkpt lat="45.96962" lon="4.78864">
        <ele>203</ele>
        <time>2016-09-14T08:27:14Z</time>
      </trkpt>
      <trkpt lat="45.96966" lon="4.78869">
        <ele>203</ele>
        <time>2016-09-14T08:27:15Z</time>
      </trkpt>
      <trkpt lat="45.9697" lon="4.78874">
        <ele>203</ele>
        <time>2016-09-14T08:27:16Z</time>
      </trkpt>
      <trkpt lat="45.96974" lon="4.78879">
        <ele>203</ele>
        <time>2016-09-14T08:27:17Z</time>
      </trkpt>
      <trkpt lat="45.96978" lon="4.78883">
        <ele>203</ele>
        <time>2016-09-14T08:27:18Z</time>
      </trkpt>
      <trkpt lat="45.96982" lon="4.78888">
        <ele>203</ele>
        <time>2016-09-14T08:27:19Z</time>
      </trkpt>
      <trkpt lat="45.96986" lon="4.78892">
        <ele>203</ele>
        <time>2016-09-14T08:27:20Z</time>
      </trkpt>
      <trkpt lat="45.96989" lon="4.78897">
        <ele>203</ele>
        <time>2016-09-14T08:27:21Z</time>
      </trkpt>
      <trkpt lat="45.96993" lon="4.78901">
        <ele>203</ele>
        <time>2016-09-14T08:27:22Z</time>
      </trkpt>
      <trkpt lat="45.96996" lon="4.78905">
        <ele>204</ele>
        <time>2016-09-14T08:27:23Z</time>
      </trkpt>
      <trkpt lat="45.97" lon="4.7891">
        <ele>204</ele>
        <time>2016-09-14T08:27:24Z</time>
      </trkpt>
      <trkpt lat="45.97003" lon="4.78915">
        <ele>205</ele>
        <time>2016-09-14T08:27:25Z</time>
      </trkpt>
      <trkpt lat="45.97007" lon="4.7892">
        <ele>204</ele>
        <time>2016-09-14T08:27:26Z</time>
      </trkpt>
      <trkpt lat="45.97011" lon="4.78925">
        <ele>204</ele>
        <time>2016-09-14T08:27:27Z</time>
      </trkpt>
      <trkpt lat="45.97015" lon="4.7893">
        <ele>205</ele>
        <time>2016-09-14T08:27:28Z</time>
      </trkpt>
      <trkpt lat="45.97019" lon="4.78935">
        <ele>205</ele>
        <time>2016-09-14T08:27:29Z</time>
      </trkpt>
      <trkpt lat="45.97025" lon="4.78944">
        <ele>205</ele>
        <time>2016-09-14T08:27:31Z</time>
      </trkpt>
      <trkpt lat="45.97028" lon="4.78949">
        <ele>205</ele>
        <time>2016-09-14T08:27:32Z</time>
      </trkpt>
      <trkpt lat="45.97034" lon="4.78957">
        <ele>205</ele>
        <time>2016-09-14T08:27:34Z</time>
      </trkpt>
      <trkpt lat="45.97037" lon="4.78962">
        <ele>205</ele>
        <time>2016-09-14T08:27:35Z</time>
      </trkpt>
      <trkpt lat="45.97042" lon="4.78972">
        <ele>205</ele>
        <time>2016-09-14T08:27:37Z</time>
      </trkpt>
      <trkpt lat="45.97044" lon="4.78978">
        <ele>205</ele>
        <time>2016-09-14T08:27:38Z</time>
      </trkpt>
      <trkpt lat="45.97046" lon="4.78984">
        <ele>205</ele>
        <time>2016-09-14T08:27:39Z</time>
      </trkpt>
      <trkpt lat="45.97048" lon="4.7899">
        <ele>205</ele>
        <time>2016-09-14T08:27:40Z</time>
      </trkpt>
      <trkpt lat="45.9705" lon="4.78996">
        <ele>205</ele>
        <time>2016-09-14T08:27:41Z</time>
      </trkpt>
      <trkpt lat="45.97052" lon="4.79003">
        <ele>203</ele>
        <time>2016-09-14T08:27:42Z</time>
      </trkpt>
      <trkpt lat="45.97055" lon="4.79009">
        <ele>203</ele>
        <time>2016-09-14T08:27:43Z</time>
      </trkpt>
      <trkpt lat="45.97056" lon="4.79015">
        <ele>203</ele>
        <time>2016-09-14T08:27:44Z</time>
      </trkpt>
      <trkpt lat="45.97058" lon="4.79021">
        <ele>203</ele>
        <time>2016-09-14T08:27:45Z</time>
      </trkpt>
      <trkpt lat="45.9706" lon="4.79029">
        <ele>203</ele>
        <time>2016-09-14T08:27:46Z</time>
      </trkpt>
      <trkpt lat="45.97063" lon="4.79036">
        <ele>203</ele>
        <time>2016-09-14T08:27:47Z</time>
      </trkpt>
      <trkpt lat="45.97065" lon="4.79043">
        <ele>203</ele>
        <time>2016-09-14T08:27:48Z</time>
      </trkpt>
      <trkpt lat="45.97067" lon="4.79051">
        <ele>203</ele>
        <time>2016-09-14T08:27:49Z</time>
      </trkpt>
      <trkpt lat="45.97069" lon="4.79058">
        <ele>203</ele>
        <time>2016-09-14T08:27:50Z</time>
      </trkpt>
      <trkpt lat="45.97071" lon="4.79066">
        <ele>203</ele>
        <time>2016-09-14T08:27:51Z</time>
      </trkpt>
      <trkpt lat="45.97072" lon="4.79074">
        <ele>204</ele>
        <time>2016-09-14T08:27:52Z</time>
      </trkpt>
      <trkpt lat="45.97074" lon="4.79081">
        <ele>204</ele>
        <time>2016-09-14T08:27:53Z</time>
      </trkpt>
      <trkpt lat="45.97075" lon="4.79088">
        <ele>204</ele>
        <time>2016-09-14T08:27:54Z</time>
      </trkpt>
      <trkpt lat="45.97076" lon="4.79096">
        <ele>204</ele>
        <time>2016-09-14T08:27:55Z</time>
      </trkpt>
      <trkpt lat="45.97078" lon="4.79103">
        <ele>204</ele>
        <time>2016-09-14T08:27:56Z</time>
      </trkpt>
      <trkpt lat="45.9708" lon="4.7911">
        <ele>204</ele>
        <time>2016-09-14T08:27:57Z</time>
      </trkpt>
      <trkpt lat="45.97083" lon="4.79116">
        <ele>204</ele>
        <time>2016-09-14T08:27:58Z</time>
      </trkpt>
      <trkpt lat="45.97086" lon="4.79122">
        <ele>206</ele>
        <time>2016-09-14T08:27:59Z</time>
      </trkpt>
      <trkpt lat="45.97089" lon="4.79127">
        <ele>206</ele>
        <time>2016-09-14T08:28:00Z</time>
      </trkpt>
      <trkpt lat="45.97093" lon="4.79133">
        <ele>206</ele>
        <time>2016-09-14T08:28:01Z</time>
      </trkpt>
      <trkpt lat="45.97098" lon="4.79139">
        <ele>206</ele>
        <time>2016-09-14T08:28:02Z</time>
      </trkpt>
      <trkpt lat="45.97101" lon="4.79145">
        <ele>206</ele>
        <time>2016-09-14T08:28:03Z</time>
      </trkpt>
      <trkpt lat="45.97104" lon="4.79151">
        <ele>206</ele>
        <time>2016-09-14T08:28:04Z</time>
      </trkpt>
      <trkpt lat="45.97107" lon="4.79157">
        <ele>206</ele>
        <time>2016-09-14T08:28:05Z</time>
      </trkpt>
      <trkpt lat="45.9711" lon="4.79164">
        <ele>206</ele>
        <time>2016-09-14T08:28:06Z</time>
      </trkpt>
      <trkpt lat="45.97113" lon="4.79171">
        <ele>205</ele>
        <time>2016-09-14T08:28:07Z</time>
      </trkpt>
      <trkpt lat="45.97115" lon="4.79177">
        <ele>206</ele>
        <time>2016-09-14T08:28:08Z</time>
      </trkpt>
      <trkpt lat="45.97118" lon="4.79184">
        <ele>206</ele>
        <time>2016-09-14T08:28:09Z</time>
      </trkpt>
      <trkpt lat="45.97121" lon="4.79191">
        <ele>206</ele>
        <time>2016-09-14T08:28:10Z</time>
      </trkpt>
      <trkpt lat="45.97124" lon="4.79197">
        <ele>206</ele>
        <time>2016-09-14T08:28:11Z</time>
      </trkpt>
      <trkpt lat="45.97126" lon="4.79203">
        <ele>206</ele>
        <time>2016-09-14T08:28:12Z</time>
      </trkpt>
      <trkpt lat="45.97129" lon="4.79209">
        <ele>206</ele>
        <time>2016-09-14T08:28:13Z</time>
      </trkpt>
      <trkpt lat="45.97132" lon="4.79215">
        <ele>206</ele>
        <time>2016-09-14T08:28:14Z</time>
      </trkpt>
      <trkpt lat="45.97134" lon="4.79221">
        <ele>205</ele>
        <time>2016-09-14T08:28:15Z</time>
      </trkpt>
      <trkpt lat="45.97137" lon="4.79227">
        <ele>205</ele>
        <time>2016-09-14T08:28:16Z</time>
      </trkpt>
      <trkpt lat="45.97139" lon="4.79233">
        <ele>205</ele>
        <time>2016-09-14T08:28:17Z</time>
      </trkpt>
      <trkpt lat="45.97141" lon="4.79239">
        <ele>205</ele>
        <time>2016-09-14T08:28:18Z</time>
      </trkpt>
      <trkpt lat="45.97144" lon="4.79244">
        <ele>205</ele>
        <time>2016-09-14T08:28:19Z</time>
      </trkpt>
      <trkpt lat="45.97147" lon="4.7925">
        <ele>205</ele>
        <time>2016-09-14T08:28:20Z</time>
      </trkpt>
      <trkpt lat="45.97152" lon="4.7926">
        <ele>204</ele>
        <time>2016-09-14T08:28:22Z</time>
      </trkpt>
      <trkpt lat="45.97154" lon="4.79266">
        <ele>204</ele>
        <time>2016-09-14T08:28:23Z</time>
      </trkpt>
      <trkpt lat="45.97156" lon="4.79272">
        <ele>204</ele>
        <time>2016-09-14T08:28:24Z</time>
      </trkpt>
      <trkpt lat="45.97158" lon="4.79279">
        <ele>204</ele>
        <time>2016-09-14T08:28:25Z</time>
      </trkpt>
      <trkpt lat="45.9716" lon="4.79285">
        <ele>204</ele>
        <time>2016-09-14T08:28:26Z</time>
      </trkpt>
      <trkpt lat="45.97162" lon="4.79292">
        <ele>204</ele>
        <time>2016-09-14T08:28:27Z</time>
      </trkpt>
      <trkpt lat="45.97165" lon="4.79298">
        <ele>204</ele>
        <time>2016-09-14T08:28:28Z</time>
      </trkpt>
      <trkpt lat="45.97167" lon="4.79304">
        <ele>207</ele>
        <time>2016-09-14T08:28:29Z</time>
      </trkpt>
      <trkpt lat="45.9717" lon="4.7931">
        <ele>207</ele>
        <time>2016-09-14T08:28:30Z</time>
      </trkpt>
      <trkpt lat="45.97172" lon="4.79316">
        <ele>207</ele>
        <time>2016-09-14T08:28:31Z</time>
      </trkpt>
      <trkpt lat="45.97175" lon="4.79322">
        <ele>206</ele>
        <time>2016-09-14T08:28:32Z</time>
      </trkpt>
      <trkpt lat="45.97178" lon="4.79328">
        <ele>206</ele>
        <time>2016-09-14T08:28:33Z</time>
      </trkpt>
      <trkpt lat="45.97181" lon="4.79335">
        <ele>206</ele>
        <time>2016-09-14T08:28:34Z</time>
      </trkpt>
      <trkpt lat="45.97184" lon="4.79341">
        <ele>207</ele>
        <time>2016-09-14T08:28:35Z</time>
      </trkpt>
      <trkpt lat="45.97187" lon="4.79346">
        <ele>207</ele>
        <time>2016-09-14T08:28:36Z</time>
      </trkpt>
      <trkpt lat="45.9719" lon="4.79352">
        <ele>207</ele>
        <time>2016-09-14T08:28:37Z</time>
      </trkpt>
      <trkpt lat="45.97192" lon="4.79359">
        <ele>207</ele>
        <time>2016-09-14T08:28:38Z</time>
      </trkpt>
      <trkpt lat="45.97194" lon="4.79366">
        <ele>207</ele>
        <time>2016-09-14T08:28:39Z</time>
      </trkpt>
      <trkpt lat="45.97197" lon="4.79372">
        <ele>207</ele>
        <time>2016-09-14T08:28:40Z</time>
      </trkpt>
      <trkpt lat="45.972" lon="4.79378">
        <ele>207</ele>
        <time>2016-09-14T08:28:41Z</time>
      </trkpt>
      <trkpt lat="45.97202" lon="4.79384">
        <ele>207</ele>
        <time>2016-09-14T08:28:42Z</time>
      </trkpt>
      <trkpt lat="45.97204" lon="4.7939">
        <ele>208</ele>
        <time>2016-09-14T08:28:43Z</time>
      </trkpt>
      <trkpt lat="45.97208" lon="4.794">
        <ele>208</ele>
        <time>2016-09-14T08:28:45Z</time>
      </trkpt>
      <trkpt lat="45.9721" lon="4.79406">
        <ele>208</ele>
        <time>2016-09-14T08:28:46Z</time>
      </trkpt>
      <trkpt lat="45.97215" lon="4.79416">
        <ele>208</ele>
        <time>2016-09-14T08:28:48Z</time>
      </trkpt>
      <trkpt lat="45.97217" lon="4.79422">
        <ele>208</ele>
        <time>2016-09-14T08:28:49Z</time>
      </trkpt>
      <trkpt lat="45.97219" lon="4.79428">
        <ele>208</ele>
        <time>2016-09-14T08:28:50Z</time>
      </trkpt>
      <trkpt lat="45.9722" lon="4.79434">
        <ele>208</ele>
        <time>2016-09-14T08:28:51Z</time>
      </trkpt>
      <trkpt lat="45.97222" lon="4.7944">
        <ele>209</ele>
        <time>2016-09-14T08:28:52Z</time>
      </trkpt>
      <trkpt lat="45.97224" lon="4.79446">
        <ele>209</ele>
        <time>2016-09-14T08:28:53Z</time>
      </trkpt>
      <trkpt lat="45.97226" lon="4.79453">
        <ele>209</ele>
        <time>2016-09-14T08:28:54Z</time>
      </trkpt>
      <trkpt lat="45.97228" lon="4.79459">
        <ele>209</ele>
        <time>2016-09-14T08:28:55Z</time>
      </trkpt>
      <trkpt lat="45.97232" lon="4.7947">
        <ele>209</ele>
        <time>2016-09-14T08:28:57Z</time>
      </trkpt>
      <trkpt lat="45.97233" lon="4.79476">
        <ele>209</ele>
        <time>2016-09-14T08:28:58Z</time>
      </trkpt>
      <trkpt lat="45.97237" lon="4.79487">
        <ele>210</ele>
        <time>2016-09-14T08:29:00Z</time>
      </trkpt>
      <trkpt lat="45.97239" lon="4.79492">
        <ele>210</ele>
        <time>2016-09-14T08:29:01Z</time>
      </trkpt>
      <trkpt lat="45.97242" lon="4.79504">
        <ele>210</ele>
        <time>2016-09-14T08:29:03Z</time>
      </trkpt>
      <trkpt lat="45.97243" lon="4.7951">
        <ele>210</ele>
        <time>2016-09-14T08:29:04Z</time>
      </trkpt>
      <trkpt lat="45.97244" lon="4.79516">
        <ele>210</ele>
        <time>2016-09-14T08:29:05Z</time>
      </trkpt>
      <trkpt lat="45.97245" lon="4.79523">
        <ele>210</ele>
        <time>2016-09-14T08:29:06Z</time>
      </trkpt>
      <trkpt lat="45.97247" lon="4.79529">
        <ele>210</ele>
        <time>2016-09-14T08:29:07Z</time>
      </trkpt>
      <trkpt lat="45.97247" lon="4.79536">
        <ele>210</ele>
        <time>2016-09-14T08:29:08Z</time>
      </trkpt>
      <trkpt lat="45.97249" lon="4.79543">
        <ele>210</ele>
        <time>2016-09-14T08:29:09Z</time>
      </trkpt>
      <trkpt lat="45.9725" lon="4.79549">
        <ele>214</ele>
        <time>2016-09-14T08:29:10Z</time>
      </trkpt>
      <trkpt lat="45.97251" lon="4.79556">
        <ele>213</ele>
        <time>2016-09-14T08:29:11Z</time>
      </trkpt>
      <trkpt lat="45.97252" lon="4.79563">
        <ele>213</ele>
        <time>2016-09-14T08:29:12Z</time>
      </trkpt>
      <trkpt lat="45.97253" lon="4.79571">
        <ele>212</ele>
        <time>2016-09-14T08:29:13Z</time>
      </trkpt>
      <trkpt lat="45.97253" lon="4.79578">
        <ele>211</ele>
        <time>2016-09-14T08:29:14Z</time>
      </trkpt>
      <trkpt lat="45.97252" lon="4.79587">
        <ele>211</ele>
        <time>2016-09-14T08:29:15Z</time>
      </trkpt>
      <trkpt lat="45.97252" lon="4.79594">
        <ele>212</ele>
        <time>2016-09-14T08:29:16Z</time>
      </trkpt>
      <trkpt lat="45.97252" lon="4.79602">
        <ele>212</ele>
        <time>2016-09-14T08:29:17Z</time>
      </trkpt>
      <trkpt lat="45.97252" lon="4.79609">
        <ele>213</ele>
        <time>2016-09-14T08:29:18Z</time>
      </trkpt>
      <trkpt lat="45.97252" lon="4.79616">
        <ele>213</ele>
        <time>2016-09-14T08:29:19Z</time>
      </trkpt>
      <trkpt lat="45.97253" lon="4.79623">
        <ele>213</ele>
        <time>2016-09-14T08:29:20Z</time>
      </trkpt>
      <trkpt lat="45.97253" lon="4.7963">
        <ele>213</ele>
        <time>2016-09-14T08:29:21Z</time>
      </trkpt>
      <trkpt lat="45.97254" lon="4.79637">
        <ele>212</ele>
        <time>2016-09-14T08:29:22Z</time>
      </trkpt>
      <trkpt lat="45.97254" lon="4.79649">
        <ele>211</ele>
        <time>2016-09-14T08:29:24Z</time>
      </trkpt>
      <trkpt lat="45.97252" lon="4.79654">
        <ele>211</ele>
        <time>2016-09-14T08:29:25Z</time>
      </trkpt>
      <trkpt lat="45.9725" lon="4.79666">
        <ele>208</ele>
        <time>2016-09-14T08:29:27Z</time>
      </trkpt>
      <trkpt lat="45.97249" lon="4.79672">
        <ele>208</ele>
        <time>2016-09-14T08:29:28Z</time>
      </trkpt>
      <trkpt lat="45.97248" lon="4.79679">
        <ele>208</ele>
        <time>2016-09-14T08:29:29Z</time>
      </trkpt>
      <trkpt lat="45.97247" lon="4.79686">
        <ele>208</ele>
        <time>2016-09-14T08:29:30Z</time>
      </trkpt>
      <trkpt lat="45.97246" lon="4.79693">
        <ele>208</ele>
        <time>2016-09-14T08:29:31Z</time>
      </trkpt>
      <trkpt lat="45.97246" lon="4.797">
        <ele>208</ele>
        <time>2016-09-14T08:29:32Z</time>
      </trkpt>
      <trkpt lat="45.97245" lon="4.79708">
        <ele>208</ele>
        <time>2016-09-14T08:29:33Z</time>
      </trkpt>
      <trkpt lat="45.97244" lon="4.79716">
        <ele>209</ele>
        <time>2016-09-14T08:29:34Z</time>
      </trkpt>
      <trkpt lat="45.97242" lon="4.79725">
        <ele>209</ele>
        <time>2016-09-14T08:29:35Z</time>
      </trkpt>
      <trkpt lat="45.9724" lon="4.79733">
        <ele>209</ele>
        <time>2016-09-14T08:29:36Z</time>
      </trkpt>
      <trkpt lat="45.9724" lon="4.79741">
        <ele>209</ele>
        <time>2016-09-14T08:29:37Z</time>
      </trkpt>
      <trkpt lat="45.97239" lon="4.79748">
        <ele>209</ele>
        <time>2016-09-14T08:29:38Z</time>
      </trkpt>
      <trkpt lat="45.97238" lon="4.79756">
        <ele>209</ele>
        <time>2016-09-14T08:29:39Z</time>
      </trkpt>
      <trkpt lat="45.97237" lon="4.79763">
        <ele>209</ele>
        <time>2016-09-14T08:29:40Z</time>
      </trkpt>
      <trkpt lat="45.97236" lon="4.7977">
        <ele>210</ele>
        <time>2016-09-14T08:29:41Z</time>
      </trkpt>
      <trkpt lat="45.97236" lon="4.79776">
        <ele>210</ele>
        <time>2016-09-14T08:29:42Z</time>
      </trkpt>
      <trkpt lat="45.97234" lon="4.79789">
        <ele>210</ele>
        <time>2016-09-14T08:29:44Z</time>
      </trkpt>
      <trkpt lat="45.97234" lon="4.79795">
        <ele>210</ele>
        <time>2016-09-14T08:29:45Z</time>
      </trkpt>
      <trkpt lat="45.97234" lon="4.79802">
        <ele>210</ele>
        <time>2016-09-14T08:29:46Z</time>
      </trkpt>
      <trkpt lat="45.97233" lon="4.79809">
        <ele>210</ele>
        <time>2016-09-14T08:29:47Z</time>
      </trkpt>
      <trkpt lat="45.97233" lon="4.79815">
        <ele>210</ele>
        <time>2016-09-14T08:29:48Z</time>
      </trkpt>
      <trkpt lat="45.97233" lon="4.79822">
        <ele>211</ele>
        <time>2016-09-14T08:29:49Z</time>
      </trkpt>
      <trkpt lat="45.97232" lon="4.79828">
        <ele>211</ele>
        <time>2016-09-14T08:29:50Z</time>
      </trkpt>
      <trkpt lat="45.97233" lon="4.79835">
        <ele>211</ele>
        <time>2016-09-14T08:29:51Z</time>
      </trkpt>
      <trkpt lat="45.97233" lon="4.79842">
        <ele>211</ele>
        <time>2016-09-14T08:29:52Z</time>
      </trkpt>
      <trkpt lat="45.97234" lon="4.79849">
        <ele>211</ele>
        <time>2016-09-14T08:29:53Z</time>
      </trkpt>
      <trkpt lat="45.97235" lon="4.79857">
        <ele>211</ele>
        <time>2016-09-14T08:29:54Z</time>
      </trkpt>
      <trkpt lat="45.97238" lon="4.79864">
        <ele>211</ele>
        <time>2016-09-14T08:29:55Z</time>
      </trkpt>
      <trkpt lat="45.9724" lon="4.79871">
        <ele>211</ele>
        <time>2016-09-14T08:29:56Z</time>
      </trkpt>
      <trkpt lat="45.97242" lon="4.79877">
        <ele>211</ele>
        <time>2016-09-14T08:29:57Z</time>
      </trkpt>
      <trkpt lat="45.97246" lon="4.79888">
        <ele>211</ele>
        <time>2016-09-14T08:29:59Z</time>
      </trkpt>
      <trkpt lat="45.97248" lon="4.79893">
        <ele>211</ele>
        <time>2016-09-14T08:30:00Z</time>
      </trkpt>
      <trkpt lat="45.9725" lon="4.79904">
        <ele>212</ele>
        <time>2016-09-14T08:30:03Z</time>
      </trkpt>
      <trkpt lat="45.9725" lon="4.79907">
        <ele>212</ele>
        <time>2016-09-14T08:30:04Z</time>
      </trkpt>
      <trkpt lat="45.97253" lon="4.79916">
        <ele>212</ele>
        <time>2016-09-14T08:30:07Z</time>
      </trkpt>
      <trkpt lat="45.97255" lon="4.79918">
        <ele>212</ele>
        <time>2016-09-14T08:30:08Z</time>
      </trkpt>
      <trkpt lat="45.97264" lon="4.79919">
        <ele>212</ele>
        <time>2016-09-14T08:30:11Z</time>
      </trkpt>
      <trkpt lat="45.97267" lon="4.79918">
        <ele>212</ele>
        <time>2016-09-14T08:30:12Z</time>
      </trkpt>
      <trkpt lat="45.97275" lon="4.79917">
        <ele>213</ele>
        <time>2016-09-14T08:30:14Z</time>
      </trkpt>
      <trkpt lat="45.97279" lon="4.79917">
        <ele>212</ele>
        <time>2016-09-14T08:30:15Z</time>
      </trkpt>
      <trkpt lat="45.97284" lon="4.79916">
        <ele>213</ele>
        <time>2016-09-14T08:30:16Z</time>
      </trkpt>
      <trkpt lat="45.97288" lon="4.79915">
        <ele>213</ele>
        <time>2016-09-14T08:30:17Z</time>
      </trkpt>
      <trkpt lat="45.97293" lon="4.79915">
        <ele>213</ele>
        <time>2016-09-14T08:30:18Z</time>
      </trkpt>
      <trkpt lat="45.97298" lon="4.79916">
        <ele>213</ele>
        <time>2016-09-14T08:30:19Z</time>
      </trkpt>
      <trkpt lat="45.97302" lon="4.79915">
        <ele>213</ele>
        <time>2016-09-14T08:30:20Z</time>
      </trkpt>
      <trkpt lat="45.97308" lon="4.79915">
        <ele>213</ele>
        <time>2016-09-14T08:30:21Z</time>
      </trkpt>
      <trkpt lat="45.97317" lon="4.79915">
        <ele>213</ele>
        <time>2016-09-14T08:30:23Z</time>
      </trkpt>
      <trkpt lat="45.97321" lon="4.79915">
        <ele>213</ele>
        <time>2016-09-14T08:30:24Z</time>
      </trkpt>
      <trkpt lat="45.9733" lon="4.79914">
        <ele>213</ele>
        <time>2016-09-14T08:30:26Z</time>
      </trkpt>
      <trkpt lat="45.97334" lon="4.79912">
        <ele>214</ele>
        <time>2016-09-14T08:30:27Z</time>
      </trkpt>
      <trkpt lat="45.97343" lon="4.7991">
        <ele>215</ele>
        <time>2016-09-14T08:30:29Z</time>
      </trkpt>
      <trkpt lat="45.97347" lon="4.79908">
        <ele>215</ele>
        <time>2016-09-14T08:30:30Z</time>
      </trkpt>
      <trkpt lat="45.97354" lon="4.79907">
        <ele>216</ele>
        <time>2016-09-14T08:30:32Z</time>
      </trkpt>
      <trkpt lat="45.97359" lon="4.79907">
        <ele>216</ele>
        <time>2016-09-14T08:30:33Z</time>
      </trkpt>
      <trkpt lat="45.97364" lon="4.79907">
        <ele>216</ele>
        <time>2016-09-14T08:30:34Z</time>
      </trkpt>
      <trkpt lat="45.97368" lon="4.79906">
        <ele>216</ele>
        <time>2016-09-14T08:30:35Z</time>
      </trkpt>
      <trkpt lat="45.97376" lon="4.79903">
        <ele>217</ele>
        <time>2016-09-14T08:30:37Z</time>
      </trkpt>
      <trkpt lat="45.9738" lon="4.79903">
        <ele>217</ele>
        <time>2016-09-14T08:30:38Z</time>
      </trkpt>
      <trkpt lat="45.97388" lon="4.799">
        <ele>217</ele>
        <time>2016-09-14T08:30:40Z</time>
      </trkpt>
      <trkpt lat="45.97393" lon="4.79901">
        <ele>217</ele>
        <time>2016-09-14T08:30:41Z</time>
      </trkpt>
      <trkpt lat="45.97401" lon="4.799">
        <ele>217</ele>
        <time>2016-09-14T08:30:43Z</time>
      </trkpt>
      <trkpt lat="45.97406" lon="4.799">
        <ele>217</ele>
        <time>2016-09-14T08:30:44Z</time>
      </trkpt>
      <trkpt lat="45.97411" lon="4.799">
        <ele>217</ele>
        <time>2016-09-14T08:30:45Z</time>
      </trkpt>
      <trkpt lat="45.97415" lon="4.799">
        <ele>217</ele>
        <time>2016-09-14T08:30:46Z</time>
      </trkpt>
      <trkpt lat="45.97423" lon="4.79899">
        <ele>219</ele>
        <time>2016-09-14T08:30:48Z</time>
      </trkpt>
      <trkpt lat="45.97427" lon="4.79899">
        <ele>219</ele>
        <time>2016-09-14T08:30:49Z</time>
      </trkpt>
      <trkpt lat="45.97435" lon="4.799">
        <ele>219</ele>
        <time>2016-09-14T08:30:51Z</time>
      </trkpt>
      <trkpt lat="45.9744" lon="4.79899">
        <ele>220</ele>
        <time>2016-09-14T08:30:52Z</time>
      </trkpt>
      <trkpt lat="45.97445" lon="4.79899">
        <ele>220</ele>
        <time>2016-09-14T08:30:53Z</time>
      </trkpt>
      <trkpt lat="45.9745" lon="4.79898">
        <ele>220</ele>
        <time>2016-09-14T08:30:54Z</time>
      </trkpt>
      <trkpt lat="45.97458" lon="4.79897">
        <ele>220</ele>
        <time>2016-09-14T08:30:56Z</time>
      </trkpt>
      <trkpt lat="45.97462" lon="4.79896">
        <ele>220</ele>
        <time>2016-09-14T08:30:57Z</time>
      </trkpt>
      <trkpt lat="45.9747" lon="4.79895">
        <ele>221</ele>
        <time>2016-09-14T08:30:59Z</time>
      </trkpt>
      <trkpt lat="45.97475" lon="4.79895">
        <ele>221</ele>
        <time>2016-09-14T08:31:00Z</time>
      </trkpt>
      <trkpt lat="45.97484" lon="4.79894">
        <ele>221</ele>
        <time>2016-09-14T08:31:02Z</time>
      </trkpt>
      <trkpt lat="45.97488" lon="4.79893">
        <ele>221</ele>
        <time>2016-09-14T08:31:03Z</time>
      </trkpt>
      <trkpt lat="45.97495" lon="4.7989">
        <ele>221</ele>
        <time>2016-09-14T08:31:05Z</time>
      </trkpt>
      <trkpt lat="45.97499" lon="4.7989">
        <ele>221</ele>
        <time>2016-09-14T08:31:06Z</time>
      </trkpt>
      <trkpt lat="45.97507" lon="4.7989">
        <ele>221</ele>
        <time>2016-09-14T08:31:08Z</time>
      </trkpt>
      <trkpt lat="45.97511" lon="4.7989">
        <ele>221</ele>
        <time>2016-09-14T08:31:09Z</time>
      </trkpt>
      <trkpt lat="45.97516" lon="4.79889">
        <ele>221</ele>
        <time>2016-09-14T08:31:10Z</time>
      </trkpt>
      <trkpt lat="45.9752" lon="4.79888">
        <ele>221</ele>
        <time>2016-09-14T08:31:11Z</time>
      </trkpt>
      <trkpt lat="45.97529" lon="4.79888">
        <ele>221</ele>
        <time>2016-09-14T08:31:13Z</time>
      </trkpt>
      <trkpt lat="45.97533" lon="4.79888">
        <ele>221</ele>
        <time>2016-09-14T08:31:14Z</time>
      </trkpt>
      <trkpt lat="45.97541" lon="4.79887">
        <ele>221</ele>
        <time>2016-09-14T08:31:16Z</time>
      </trkpt>
      <trkpt lat="45.97546" lon="4.79885">
        <ele>221</ele>
        <time>2016-09-14T08:31:17Z</time>
      </trkpt>
      <trkpt lat="45.97551" lon="4.79884">
        <ele>221</ele>
        <time>2016-09-14T08:31:18Z</time>
      </trkpt>
      <trkpt lat="45.97556" lon="4.79883">
        <ele>221</ele>
        <time>2016-09-14T08:31:19Z</time>
      </trkpt>
      <trkpt lat="45.97564" lon="4.79879">
        <ele>221</ele>
        <time>2016-09-14T08:31:21Z</time>
      </trkpt>
      <trkpt lat="45.97568" lon="4.79877">
        <ele>221</ele>
        <time>2016-09-14T08:31:22Z</time>
      </trkpt>
      <trkpt lat="45.97576" lon="4.79874">
        <ele>222</ele>
        <time>2016-09-14T08:31:24Z</time>
      </trkpt>
      <trkpt lat="45.9758" lon="4.79872">
        <ele>222</ele>
        <time>2016-09-14T08:31:25Z</time>
      </trkpt>
      <trkpt lat="45.97588" lon="4.79869">
        <ele>221</ele>
        <time>2016-09-14T08:31:27Z</time>
      </trkpt>
      <trkpt lat="45.97592" lon="4.79868">
        <ele>221</ele>
        <time>2016-09-14T08:31:28Z</time>
      </trkpt>
      <trkpt lat="45.976" lon="4.79866">
        <ele>221</ele>
        <time>2016-09-14T08:31:30Z</time>
      </trkpt>
      <trkpt lat="45.97604" lon="4.79865">
        <ele>221</ele>
        <time>2016-09-14T08:31:31Z</time>
      </trkpt>
      <trkpt lat="45.97612" lon="4.79862">
        <ele>221</ele>
        <time>2016-09-14T08:31:33Z</time>
      </trkpt>
      <trkpt lat="45.97616" lon="4.7986">
        <ele>221</ele>
        <time>2016-09-14T08:31:34Z</time>
      </trkpt>
      <trkpt lat="45.97621" lon="4.79859">
        <ele>221</ele>
        <time>2016-09-14T08:31:35Z</time>
      </trkpt>
      <trkpt lat="45.97625" lon="4.79857">
        <ele>221</ele>
        <time>2016-09-14T08:31:36Z</time>
      </trkpt>
      <trkpt lat="45.97629" lon="4.79855">
        <ele>221</ele>
        <time>2016-09-14T08:31:37Z</time>
      </trkpt>
      <trkpt lat="45.97634" lon="4.79853">
        <ele>221</ele>
        <time>2016-09-14T08:31:38Z</time>
      </trkpt>
      <trkpt lat="45.97638" lon="4.7985">
        <ele>221</ele>
        <time>2016-09-14T08:31:39Z</time>
      </trkpt>
      <trkpt lat="45.97643" lon="4.79849">
        <ele>221</ele>
        <time>2016-09-14T08:31:40Z</time>
      </trkpt>
      <trkpt lat="45.97647" lon="4.79847">
        <ele>221</ele>
        <time>2016-09-14T08:31:41Z</time>
      </trkpt>
      <trkpt lat="45.97652" lon="4.79846">
        <ele>221</ele>
        <time>2016-09-14T08:31:42Z</time>
      </trkpt>
      <trkpt lat="45.97657" lon="4.79844">
        <ele>221</ele>
        <time>2016-09-14T08:31:43Z</time>
      </trkpt>
      <trkpt lat="45.97662" lon="4.79842">
        <ele>221</ele>
        <time>2016-09-14T08:31:44Z</time>
      </trkpt>
      <trkpt lat="45.97666" lon="4.79841">
        <ele>222</ele>
        <time>2016-09-14T08:31:45Z</time>
      </trkpt>
      <trkpt lat="45.97671" lon="4.7984">
        <ele>221</ele>
        <time>2016-09-14T08:31:46Z</time>
      </trkpt>
      <trkpt lat="45.97676" lon="4.79838">
        <ele>221</ele>
        <time>2016-09-14T08:31:47Z</time>
      </trkpt>
      <trkpt lat="45.97681" lon="4.79837">
        <ele>221</ele>
        <time>2016-09-14T08:31:48Z</time>
      </trkpt>
      <trkpt lat="45.97686" lon="4.79836">
        <ele>221</ele>
        <time>2016-09-14T08:31:49Z</time>
      </trkpt>
      <trkpt lat="45.9769" lon="4.79835">
        <ele>221</ele>
        <time>2016-09-14T08:31:50Z</time>
      </trkpt>
      <trkpt lat="45.97695" lon="4.79834">
        <ele>220</ele>
        <time>2016-09-14T08:31:51Z</time>
      </trkpt>
      <trkpt lat="45.977" lon="4.79833">
        <ele>223</ele>
        <time>2016-09-14T08:31:52Z</time>
      </trkpt>
      <trkpt lat="45.97705" lon="4.79831">
        <ele>223</ele>
        <time>2016-09-14T08:31:53Z</time>
      </trkpt>
      <trkpt lat="45.9771" lon="4.7983">
        <ele>223</ele>
        <time>2016-09-14T08:31:54Z</time>
      </trkpt>
      <trkpt lat="45.97715" lon="4.79829">
        <ele>223</ele>
        <time>2016-09-14T08:31:55Z</time>
      </trkpt>
      <trkpt lat="45.97721" lon="4.79828">
        <ele>223</ele>
        <time>2016-09-14T08:31:56Z</time>
      </trkpt>
      <trkpt lat="45.97726" lon="4.79827">
        <ele>223</ele>
        <time>2016-09-14T08:31:57Z</time>
      </trkpt>
      <trkpt lat="45.97732" lon="4.79826">
        <ele>223</ele>
        <time>2016-09-14T08:31:58Z</time>
      </trkpt>
      <trkpt lat="45.97738" lon="4.79825">
        <ele>223</ele>
        <time>2016-09-14T08:31:59Z</time>
      </trkpt>
      <trkpt lat="45.97744" lon="4.79824">
        <ele>223</ele>
        <time>2016-09-14T08:32:00Z</time>
      </trkpt>
      <trkpt lat="45.97749" lon="4.79822">
        <ele>223</ele>
        <time>2016-09-14T08:32:01Z</time>
      </trkpt>
      <trkpt lat="45.97755" lon="4.79821">
        <ele>223</ele>
        <time>2016-09-14T08:32:02Z</time>
      </trkpt>
      <trkpt lat="45.97761" lon="4.79821">
        <ele>223</ele>
        <time>2016-09-14T08:32:03Z</time>
      </trkpt>
      <trkpt lat="45.97766" lon="4.7982">
        <ele>223</ele>
        <time>2016-09-14T08:32:04Z</time>
      </trkpt>
      <trkpt lat="45.97772" lon="4.79819">
        <ele>223</ele>
        <time>2016-09-14T08:32:05Z</time>
      </trkpt>
      <trkpt lat="45.97777" lon="4.79818">
        <ele>223</ele>
        <time>2016-09-14T08:32:06Z</time>
      </trkpt>
      <trkpt lat="45.97783" lon="4.79817">
        <ele>223</ele>
        <time>2016-09-14T08:32:07Z</time>
      </trkpt>
      <trkpt lat="45.97788" lon="4.79816">
        <ele>223</ele>
        <time>2016-09-14T08:32:08Z</time>
      </trkpt>
      <trkpt lat="45.97793" lon="4.79815">
        <ele>223</ele>
        <time>2016-09-14T08:32:09Z</time>
      </trkpt>
      <trkpt lat="45.97799" lon="4.79814">
        <ele>223</ele>
        <time>2016-09-14T08:32:10Z</time>
      </trkpt>
      <trkpt lat="45.97804" lon="4.79814">
        <ele>223</ele>
        <time>2016-09-14T08:32:11Z</time>
      </trkpt>
      <trkpt lat="45.9781" lon="4.79813">
        <ele>223</ele>
        <time>2016-09-14T08:32:12Z</time>
      </trkpt>
      <trkpt lat="45.97815" lon="4.79812">
        <ele>223</ele>
        <time>2016-09-14T08:32:13Z</time>
      </trkpt>
      <trkpt lat="45.9782" lon="4.7981">
        <ele>223</ele>
        <time>2016-09-14T08:32:14Z</time>
      </trkpt>
      <trkpt lat="45.97825" lon="4.79809">
        <ele>223</ele>
        <time>2016-09-14T08:32:15Z</time>
      </trkpt>
      <trkpt lat="45.9783" lon="4.79808">
        <ele>223</ele>
        <time>2016-09-14T08:32:16Z</time>
      </trkpt>
      <trkpt lat="45.97835" lon="4.79808">
        <ele>224</ele>
        <time>2016-09-14T08:32:17Z</time>
      </trkpt>
      <trkpt lat="45.9784" lon="4.79808">
        <ele>224</ele>
        <time>2016-09-14T08:32:18Z</time>
      </trkpt>
      <trkpt lat="45.97845" lon="4.79807">
        <ele>224</ele>
        <time>2016-09-14T08:32:19Z</time>
      </trkpt>
      <trkpt lat="45.9785" lon="4.79806">
        <ele>224</ele>
        <time>2016-09-14T08:32:20Z</time>
      </trkpt>
      <trkpt lat="45.97856" lon="4.79805">
        <ele>224</ele>
        <time>2016-09-14T08:32:21Z</time>
      </trkpt>
      <trkpt lat="45.97862" lon="4.79805">
        <ele>224</ele>
        <time>2016-09-14T08:32:22Z</time>
      </trkpt>
      <trkpt lat="45.97867" lon="4.79804">
        <ele>224</ele>
        <time>2016-09-14T08:32:23Z</time>
      </trkpt>
      <trkpt lat="45.97872" lon="4.79802">
        <ele>224</ele>
        <time>2016-09-14T08:32:24Z</time>
      </trkpt>
      <trkpt lat="45.97878" lon="4.79802">
        <ele>224</ele>
        <time>2016-09-14T08:32:25Z</time>
      </trkpt>
      <trkpt lat="45.97883" lon="4.79801">
        <ele>224</ele>
        <time>2016-09-14T08:32:26Z</time>
      </trkpt>
      <trkpt lat="45.97888" lon="4.798">
        <ele>224</ele>
        <time>2016-09-14T08:32:27Z</time>
      </trkpt>
      <trkpt lat="45.97894" lon="4.79799">
        <ele>224</ele>
        <time>2016-09-14T08:32:28Z</time>
      </trkpt>
      <trkpt lat="45.979" lon="4.79798">
        <ele>224</ele>
        <time>2016-09-14T08:32:29Z</time>
      </trkpt>
      <trkpt lat="45.97906" lon="4.79797">
        <ele>224</ele>
        <time>2016-09-14T08:32:30Z</time>
      </trkpt>
      <trkpt lat="45.97912" lon="4.79795">
        <ele>224</ele>
        <time>2016-09-14T08:32:31Z</time>
      </trkpt>
      <trkpt lat="45.97918" lon="4.79794">
        <ele>224</ele>
        <time>2016-09-14T08:32:32Z</time>
      </trkpt>
      <trkpt lat="45.97924" lon="4.79792">
        <ele>224</ele>
        <time>2016-09-14T08:32:33Z</time>
      </trkpt>
      <trkpt lat="45.9793" lon="4.79792">
        <ele>224</ele>
        <time>2016-09-14T08:32:34Z</time>
      </trkpt>
      <trkpt lat="45.97936" lon="4.79791">
        <ele>224</ele>
        <time>2016-09-14T08:32:35Z</time>
      </trkpt>
      <trkpt lat="45.97942" lon="4.7979">
        <ele>224</ele>
        <time>2016-09-14T08:32:36Z</time>
      </trkpt>
      <trkpt lat="45.97948" lon="4.7979">
        <ele>224</ele>
        <time>2016-09-14T08:32:37Z</time>
      </trkpt>
      <trkpt lat="45.97954" lon="4.79789">
        <ele>224</ele>
        <time>2016-09-14T08:32:38Z</time>
      </trkpt>
      <trkpt lat="45.9796" lon="4.79788">
        <ele>224</ele>
        <time>2016-09-14T08:32:39Z</time>
      </trkpt>
      <trkpt lat="45.97966" lon="4.79788">
        <ele>224</ele>
        <time>2016-09-14T08:32:40Z</time>
      </trkpt>
      <trkpt lat="45.97972" lon="4.79787">
        <ele>224</ele>
        <time>2016-09-14T08:32:41Z</time>
      </trkpt>
      <trkpt lat="45.97978" lon="4.79785">
        <ele>224</ele>
        <time>2016-09-14T08:32:42Z</time>
      </trkpt>
      <trkpt lat="45.97984" lon="4.79784">
        <ele>224</ele>
        <time>2016-09-14T08:32:43Z</time>
      </trkpt>
      <trkpt lat="45.97991" lon="4.79783">
        <ele>224</ele>
        <time>2016-09-14T08:32:44Z</time>
      </trkpt>
      <trkpt lat="45.97997" lon="4.79782">
        <ele>224</ele>
        <time>2016-09-14T08:32:45Z</time>
      </trkpt>
      <trkpt lat="45.98003" lon="4.7978">
        <ele>223</ele>
        <time>2016-09-14T08:32:46Z</time>
      </trkpt>
      <trkpt lat="45.9801" lon="4.79779">
        <ele>223</ele>
        <time>2016-09-14T08:32:47Z</time>
      </trkpt>
      <trkpt lat="45.98016" lon="4.79778">
        <ele>223</ele>
        <time>2016-09-14T08:32:48Z</time>
      </trkpt>
      <trkpt lat="45.98022" lon="4.79777">
        <ele>223</ele>
        <time>2016-09-14T08:32:49Z</time>
      </trkpt>
      <trkpt lat="45.98029" lon="4.79776">
        <ele>223</ele>
        <time>2016-09-14T08:32:50Z</time>
      </trkpt>
      <trkpt lat="45.98034" lon="4.79775">
        <ele>223</ele>
        <time>2016-09-14T08:32:51Z</time>
      </trkpt>
      <trkpt lat="45.9804" lon="4.79775">
        <ele>223</ele>
        <time>2016-09-14T08:32:52Z</time>
      </trkpt>
      <trkpt lat="45.98046" lon="4.79774">
        <ele>223</ele>
        <time>2016-09-14T08:32:53Z</time>
      </trkpt>
      <trkpt lat="45.98051" lon="4.79773">
        <ele>223</ele>
        <time>2016-09-14T08:32:54Z</time>
      </trkpt>
      <trkpt lat="45.98057" lon="4.79772">
        <ele>223</ele>
        <time>2016-09-14T08:32:55Z</time>
      </trkpt>
      <trkpt lat="45.98062" lon="4.79771">
        <ele>223</ele>
        <time>2016-09-14T08:32:56Z</time>
      </trkpt>
      <trkpt lat="45.98068" lon="4.79771">
        <ele>223</ele>
        <time>2016-09-14T08:32:57Z</time>
      </trkpt>
      <trkpt lat="45.98075" lon="4.7977">
        <ele>223</ele>
        <time>2016-09-14T08:32:58Z</time>
      </trkpt>
      <trkpt lat="45.98081" lon="4.79769">
        <ele>223</ele>
        <time>2016-09-14T08:32:59Z</time>
      </trkpt>
      <trkpt lat="45.98087" lon="4.79768">
        <ele>223</ele>
        <time>2016-09-14T08:33:00Z</time>
      </trkpt>
      <trkpt lat="45.98092" lon="4.79767">
        <ele>223</ele>
        <time>2016-09-14T08:33:01Z</time>
      </trkpt>
      <trkpt lat="45.98098" lon="4.79766">
        <ele>223</ele>
        <time>2016-09-14T08:33:02Z</time>
      </trkpt>
      <trkpt lat="45.98103" lon="4.79766">
        <ele>224</ele>
        <time>2016-09-14T08:33:03Z</time>
      </trkpt>
      <trkpt lat="45.98108" lon="4.79765">
        <ele>224</ele>
        <time>2016-09-14T08:33:04Z</time>
      </trkpt>
      <trkpt lat="45.98113" lon="4.79764">
        <ele>224</ele>
        <time>2016-09-14T08:33:05Z</time>
      </trkpt>
      <trkpt lat="45.98117" lon="4.79763">
        <ele>224</ele>
        <time>2016-09-14T08:33:06Z</time>
      </trkpt>
      <trkpt lat="45.98122" lon="4.79763">
        <ele>224</ele>
        <time>2016-09-14T08:33:07Z</time>
      </trkpt>
      <trkpt lat="45.98127" lon="4.79762">
        <ele>224</ele>
        <time>2016-09-14T08:33:08Z</time>
      </trkpt>
      <trkpt lat="45.98132" lon="4.79762">
        <ele>224</ele>
        <time>2016-09-14T08:33:09Z</time>
      </trkpt>
      <trkpt lat="45.98137" lon="4.79761">
        <ele>224</ele>
        <time>2016-09-14T08:33:10Z</time>
      </trkpt>
      <trkpt lat="45.98142" lon="4.79761">
        <ele>224</ele>
        <time>2016-09-14T08:33:11Z</time>
      </trkpt>
      <trkpt lat="45.98147" lon="4.79762">
        <ele>225</ele>
        <time>2016-09-14T08:33:12Z</time>
      </trkpt>
      <trkpt lat="45.98152" lon="4.79762">
        <ele>225</ele>
        <time>2016-09-14T08:33:13Z</time>
      </trkpt>
      <trkpt lat="45.98157" lon="4.79763">
        <ele>225</ele>
        <time>2016-09-14T08:33:14Z</time>
      </trkpt>
      <trkpt lat="45.98165" lon="4.79768">
        <ele>225</ele>
        <time>2016-09-14T08:33:16Z</time>
      </trkpt>
      <trkpt lat="45.98168" lon="4.79772">
        <ele>226</ele>
        <time>2016-09-14T08:33:17Z</time>
      </trkpt>
      <trkpt lat="45.98171" lon="4.79776">
        <ele>226</ele>
        <time>2016-09-14T08:33:18Z</time>
      </trkpt>
      <trkpt lat="45.98174" lon="4.79781">
        <ele>226</ele>
        <time>2016-09-14T08:33:19Z</time>
      </trkpt>
      <trkpt lat="45.98177" lon="4.79787">
        <ele>226</ele>
        <time>2016-09-14T08:33:20Z</time>
      </trkpt>
      <trkpt lat="45.98179" lon="4.79793">
        <ele>226</ele>
        <time>2016-09-14T08:33:21Z</time>
      </trkpt>
      <trkpt lat="45.9818" lon="4.79799">
        <ele>226</ele>
        <time>2016-09-14T08:33:22Z</time>
      </trkpt>
      <trkpt lat="45.98182" lon="4.79805">
        <ele>225</ele>
        <time>2016-09-14T08:33:23Z</time>
      </trkpt>
      <trkpt lat="45.98185" lon="4.79812">
        <ele>225</ele>
        <time>2016-09-14T08:33:24Z</time>
      </trkpt>
      <trkpt lat="45.98187" lon="4.79819">
        <ele>225</ele>
        <time>2016-09-14T08:33:25Z</time>
      </trkpt>
      <trkpt lat="45.9819" lon="4.79826">
        <ele>225</ele>
        <time>2016-09-14T08:33:26Z</time>
      </trkpt>
      <trkpt lat="45.98192" lon="4.79834">
        <ele>225</ele>
        <time>2016-09-14T08:33:27Z</time>
      </trkpt>
      <trkpt lat="45.98195" lon="4.79842">
        <ele>225</ele>
        <time>2016-09-14T08:33:28Z</time>
      </trkpt>
      <trkpt lat="45.98198" lon="4.7985">
        <ele>225</ele>
        <time>2016-09-14T08:33:29Z</time>
      </trkpt>
      <trkpt lat="45.982" lon="4.79857">
        <ele>225</ele>
        <time>2016-09-14T08:33:30Z</time>
      </trkpt>
      <trkpt lat="45.98203" lon="4.79865">
        <ele>225</ele>
        <time>2016-09-14T08:33:31Z</time>
      </trkpt>
      <trkpt lat="45.98206" lon="4.79873">
        <ele>225</ele>
        <time>2016-09-14T08:33:32Z</time>
      </trkpt>
      <trkpt lat="45.98208" lon="4.79881">
        <ele>225</ele>
        <time>2016-09-14T08:33:33Z</time>
      </trkpt>
      <trkpt lat="45.9821" lon="4.79888">
        <ele>225</ele>
        <time>2016-09-14T08:33:34Z</time>
      </trkpt>
      <trkpt lat="45.98213" lon="4.79896">
        <ele>225</ele>
        <time>2016-09-14T08:33:35Z</time>
      </trkpt>
      <trkpt lat="45.98215" lon="4.79903">
        <ele>225</ele>
        <time>2016-09-14T08:33:36Z</time>
      </trkpt>
      <trkpt lat="45.98218" lon="4.7991">
        <ele>225</ele>
        <time>2016-09-14T08:33:37Z</time>
      </trkpt>
      <trkpt lat="45.98221" lon="4.79918">
        <ele>225</ele>
        <time>2016-09-14T08:33:38Z</time>
      </trkpt>
      <trkpt lat="45.98224" lon="4.79925">
        <ele>225</ele>
        <time>2016-09-14T08:33:39Z</time>
      </trkpt>
      <trkpt lat="45.98226" lon="4.79933">
        <ele>225</ele>
        <time>2016-09-14T08:33:40Z</time>
      </trkpt>
      <trkpt lat="45.98229" lon="4.79939">
        <ele>225</ele>
        <time>2016-09-14T08:33:41Z</time>
      </trkpt>
      <trkpt lat="45.98231" lon="4.79946">
        <ele>225</ele>
        <time>2016-09-14T08:33:42Z</time>
      </trkpt>
      <trkpt lat="45.98234" lon="4.79954">
        <ele>225</ele>
        <time>2016-09-14T08:33:43Z</time>
      </trkpt>
      <trkpt lat="45.98236" lon="4.79962">
        <ele>225</ele>
        <time>2016-09-14T08:33:44Z</time>
      </trkpt>
      <trkpt lat="45.98237" lon="4.79968">
        <ele>225</ele>
        <time>2016-09-14T08:33:45Z</time>
      </trkpt>
      <trkpt lat="45.98241" lon="4.79979">
        <ele>225</ele>
        <time>2016-09-14T08:33:47Z</time>
      </trkpt>
      <trkpt lat="45.98243" lon="4.79984">
        <ele>225</ele>
        <time>2016-09-14T08:33:48Z</time>
      </trkpt>
      <trkpt lat="45.98246" lon="4.79994">
        <ele>226</ele>
        <time>2016-09-14T08:33:50Z</time>
      </trkpt>
      <trkpt lat="45.98248" lon="4.79999">
        <ele>226</ele>
        <time>2016-09-14T08:33:51Z</time>
      </trkpt>
      <trkpt lat="45.98252" lon="4.80007">
        <ele>227</ele>
        <time>2016-09-14T08:33:54Z</time>
      </trkpt>
      <trkpt lat="45.98254" lon="4.80009">
        <ele>227</ele>
        <time>2016-09-14T08:33:55Z</time>
      </trkpt>
      <trkpt lat="45.98258" lon="4.80019">
        <ele>228</ele>
        <time>2016-09-14T08:34:00Z</time>
      </trkpt>
      <trkpt lat="45.98258" lon="4.80023">
        <ele>228</ele>
        <time>2016-09-14T08:34:01Z</time>
      </trkpt>
      <trkpt lat="45.98259" lon="4.80034">
        <ele>228</ele>
        <time>2016-09-14T08:34:03Z</time>
      </trkpt>
      <trkpt lat="45.98261" lon="4.8004">
        <ele>228</ele>
        <time>2016-09-14T08:34:04Z</time>
      </trkpt>
      <trkpt lat="45.98263" lon="4.80047">
        <ele>228</ele>
        <time>2016-09-14T08:34:05Z</time>
      </trkpt>
      <trkpt lat="45.98266" lon="4.80054">
        <ele>228</ele>
        <time>2016-09-14T08:34:06Z</time>
      </trkpt>
      <trkpt lat="45.98269" lon="4.80061">
        <ele>228</ele>
        <time>2016-09-14T08:34:07Z</time>
      </trkpt>
      <trkpt lat="45.98272" lon="4.80068">
        <ele>228</ele>
        <time>2016-09-14T08:34:08Z</time>
      </trkpt>
      <trkpt lat="45.98275" lon="4.80074">
        <ele>228</ele>
        <time>2016-09-14T08:34:09Z</time>
      </trkpt>
      <trkpt lat="45.98277" lon="4.80081">
        <ele>228</ele>
        <time>2016-09-14T08:34:10Z</time>
      </trkpt>
      <trkpt lat="45.9828" lon="4.80087">
        <ele>228</ele>
        <time>2016-09-14T08:34:11Z</time>
      </trkpt>
      <trkpt lat="45.98282" lon="4.80093">
        <ele>228</ele>
        <time>2016-09-14T08:34:12Z</time>
      </trkpt>
      <trkpt lat="45.98284" lon="4.80099">
        <ele>228</ele>
        <time>2016-09-14T08:34:13Z</time>
      </trkpt>
      <trkpt lat="45.98287" lon="4.80106">
        <ele>228</ele>
        <time>2016-09-14T08:34:14Z</time>
      </trkpt>
      <trkpt lat="45.98289" lon="4.80113">
        <ele>228</ele>
        <time>2016-09-14T08:34:15Z</time>
      </trkpt>
      <trkpt lat="45.98291" lon="4.8012">
        <ele>228</ele>
        <time>2016-09-14T08:34:16Z</time>
      </trkpt>
      <trkpt lat="45.98294" lon="4.80127">
        <ele>228</ele>
        <time>2016-09-14T08:34:17Z</time>
      </trkpt>
      <trkpt lat="45.98296" lon="4.80134">
        <ele>228</ele>
        <time>2016-09-14T08:34:18Z</time>
      </trkpt>
      <trkpt lat="45.98298" lon="4.80141">
        <ele>228</ele>
        <time>2016-09-14T08:34:19Z</time>
      </trkpt>
      <trkpt lat="45.98301" lon="4.80147">
        <ele>228</ele>
        <time>2016-09-14T08:34:20Z</time>
      </trkpt>
      <trkpt lat="45.98304" lon="4.80154">
        <ele>228</ele>
        <time>2016-09-14T08:34:21Z</time>
      </trkpt>
      <trkpt lat="45.98306" lon="4.80161">
        <ele>228</ele>
        <time>2016-09-14T08:34:22Z</time>
      </trkpt>
      <trkpt lat="45.98308" lon="4.80169">
        <ele>227</ele>
        <time>2016-09-14T08:34:23Z</time>
      </trkpt>
      <trkpt lat="45.98311" lon="4.80176">
        <ele>227</ele>
        <time>2016-09-14T08:34:24Z</time>
      </trkpt>
      <trkpt lat="45.98313" lon="4.80182">
        <ele>227</ele>
        <time>2016-09-14T08:34:25Z</time>
      </trkpt>
      <trkpt lat="45.98316" lon="4.80188">
        <ele>227</ele>
        <time>2016-09-14T08:34:26Z</time>
      </trkpt>
      <trkpt lat="45.98319" lon="4.80194">
        <ele>227</ele>
        <time>2016-09-14T08:34:27Z</time>
      </trkpt>
      <trkpt lat="45.98321" lon="4.802">
        <ele>227</ele>
        <time>2016-09-14T08:34:28Z</time>
      </trkpt>
      <trkpt lat="45.98323" lon="4.80206">
        <ele>227</ele>
        <time>2016-09-14T08:34:29Z</time>
      </trkpt>
      <trkpt lat="45.98325" lon="4.80212">
        <ele>227</ele>
        <time>2016-09-14T08:34:30Z</time>
      </trkpt>
      <trkpt lat="45.98326" lon="4.80224">
        <ele>227</ele>
        <time>2016-09-14T08:34:32Z</time>
      </trkpt>
      <trkpt lat="45.98325" lon="4.8023">
        <ele>228</ele>
        <time>2016-09-14T08:34:33Z</time>
      </trkpt>
      <trkpt lat="45.98323" lon="4.80237">
        <ele>228</ele>
        <time>2016-09-14T08:34:34Z</time>
      </trkpt>
      <trkpt lat="45.98321" lon="4.80243">
        <ele>228</ele>
        <time>2016-09-14T08:34:35Z</time>
      </trkpt>
      <trkpt lat="45.98319" lon="4.8025">
        <ele>228</ele>
        <time>2016-09-14T08:34:36Z</time>
      </trkpt>
      <trkpt lat="45.98318" lon="4.80257">
        <ele>227</ele>
        <time>2016-09-14T08:34:37Z</time>
      </trkpt>
      <trkpt lat="45.98316" lon="4.80265">
        <ele>227</ele>
        <time>2016-09-14T08:34:38Z</time>
      </trkpt>
      <trkpt lat="45.98314" lon="4.80272">
        <ele>227</ele>
        <time>2016-09-14T08:34:39Z</time>
      </trkpt>
      <trkpt lat="45.98313" lon="4.80279">
        <ele>226</ele>
        <time>2016-09-14T08:34:40Z</time>
      </trkpt>
      <trkpt lat="45.9831" lon="4.80287">
        <ele>226</ele>
        <time>2016-09-14T08:34:41Z</time>
      </trkpt>
      <trkpt lat="45.98309" lon="4.80294">
        <ele>226</ele>
        <time>2016-09-14T08:34:42Z</time>
      </trkpt>
      <trkpt lat="45.98307" lon="4.80303">
        <ele>226</ele>
        <time>2016-09-14T08:34:43Z</time>
      </trkpt>
      <trkpt lat="45.98306" lon="4.80311">
        <ele>226</ele>
        <time>2016-09-14T08:34:44Z</time>
      </trkpt>
      <trkpt lat="45.98304" lon="4.8032">
        <ele>226</ele>
        <time>2016-09-14T08:34:45Z</time>
      </trkpt>
      <trkpt lat="45.98302" lon="4.80328">
        <ele>226</ele>
        <time>2016-09-14T08:34:46Z</time>
      </trkpt>
      <trkpt lat="45.983" lon="4.80337">
        <ele>225</ele>
        <time>2016-09-14T08:34:47Z</time>
      </trkpt>
      <trkpt lat="45.98299" lon="4.80346">
        <ele>225</ele>
        <time>2016-09-14T08:34:48Z</time>
      </trkpt>
      <trkpt lat="45.98298" lon="4.80355">
        <ele>225</ele>
        <time>2016-09-14T08:34:49Z</time>
      </trkpt>
      <trkpt lat="45.98296" lon="4.80364">
        <ele>225</ele>
        <time>2016-09-14T08:34:50Z</time>
      </trkpt>
      <trkpt lat="45.98294" lon="4.80373">
        <ele>224</ele>
        <time>2016-09-14T08:34:51Z</time>
      </trkpt>
      <trkpt lat="45.98292" lon="4.80382">
        <ele>224</ele>
        <time>2016-09-14T08:34:52Z</time>
      </trkpt>
      <trkpt lat="45.98291" lon="4.80392">
        <ele>224</ele>
        <time>2016-09-14T08:34:53Z</time>
      </trkpt>
      <trkpt lat="45.98288" lon="4.80402">
        <ele>224</ele>
        <time>2016-09-14T08:34:54Z</time>
      </trkpt>
      <trkpt lat="45.98287" lon="4.80411">
        <ele>224</ele>
        <time>2016-09-14T08:34:55Z</time>
      </trkpt>
      <trkpt lat="45.98284" lon="4.8042">
        <ele>223</ele>
        <time>2016-09-14T08:34:56Z</time>
      </trkpt>
      <trkpt lat="45.98283" lon="4.80431">
        <ele>223</ele>
        <time>2016-09-14T08:34:57Z</time>
      </trkpt>
      <trkpt lat="45.98282" lon="4.8044">
        <ele>223</ele>
        <time>2016-09-14T08:34:58Z</time>
      </trkpt>
      <trkpt lat="45.98279" lon="4.8045">
        <ele>223</ele>
        <time>2016-09-14T08:34:59Z</time>
      </trkpt>
      <trkpt lat="45.98277" lon="4.8046">
        <ele>223</ele>
        <time>2016-09-14T08:35:00Z</time>
      </trkpt>
      <trkpt lat="45.98274" lon="4.8047">
        <ele>223</ele>
        <time>2016-09-14T08:35:01Z</time>
      </trkpt>
      <trkpt lat="45.98272" lon="4.80479">
        <ele>223</ele>
        <time>2016-09-14T08:35:02Z</time>
      </trkpt>
      <trkpt lat="45.98269" lon="4.80488">
        <ele>223</ele>
        <time>2016-09-14T08:35:03Z</time>
      </trkpt>
      <trkpt lat="45.98267" lon="4.80496">
        <ele>223</ele>
        <time>2016-09-14T08:35:04Z</time>
      </trkpt>
      <trkpt lat="45.98265" lon="4.80504">
        <ele>223</ele>
        <time>2016-09-14T08:35:05Z</time>
      </trkpt>
      <trkpt lat="45.98263" lon="4.80512">
        <ele>223</ele>
        <time>2016-09-14T08:35:06Z</time>
      </trkpt>
      <trkpt lat="45.98261" lon="4.8052">
        <ele>223</ele>
        <time>2016-09-14T08:35:07Z</time>
      </trkpt>
      <trkpt lat="45.98259" lon="4.80528">
        <ele>224</ele>
        <time>2016-09-14T08:35:08Z</time>
      </trkpt>
      <trkpt lat="45.98257" lon="4.80536">
        <ele>224</ele>
        <time>2016-09-14T08:35:09Z</time>
      </trkpt>
      <trkpt lat="45.98254" lon="4.80544">
        <ele>224</ele>
        <time>2016-09-14T08:35:10Z</time>
      </trkpt>
      <trkpt lat="45.98251" lon="4.80553">
        <ele>224</ele>
        <time>2016-09-14T08:35:11Z</time>
      </trkpt>
      <trkpt lat="45.98249" lon="4.80561">
        <ele>223</ele>
        <time>2016-09-14T08:35:12Z</time>
      </trkpt>
      <trkpt lat="45.98247" lon="4.80569">
        <ele>224</ele>
        <time>2016-09-14T08:35:13Z</time>
      </trkpt>
      <trkpt lat="45.98244" lon="4.80577">
        <ele>224</ele>
        <time>2016-09-14T08:35:14Z</time>
      </trkpt>
      <trkpt lat="45.98241" lon="4.80585">
        <ele>224</ele>
        <time>2016-09-14T08:35:15Z</time>
      </trkpt>
      <trkpt lat="45.98239" lon="4.80594">
        <ele>224</ele>
        <time>2016-09-14T08:35:16Z</time>
      </trkpt>
      <trkpt lat="45.98237" lon="4.80602">
        <ele>224</ele>
        <time>2016-09-14T08:35:17Z</time>
      </trkpt>
      <trkpt lat="45.98234" lon="4.80611">
        <ele>224</ele>
        <time>2016-09-14T08:35:18Z</time>
      </trkpt>
      <trkpt lat="45.98232" lon="4.80619">
        <ele>224</ele>
        <time>2016-09-14T08:35:19Z</time>
      </trkpt>
      <trkpt lat="45.98229" lon="4.80627">
        <ele>224</ele>
        <time>2016-09-14T08:35:20Z</time>
      </trkpt>
      <trkpt lat="45.98226" lon="4.80635">
        <ele>224</ele>
        <time>2016-09-14T08:35:21Z</time>
      </trkpt>
      <trkpt lat="45.98223" lon="4.80642">
        <ele>224</ele>
        <time>2016-09-14T08:35:22Z</time>
      </trkpt>
      <trkpt lat="45.98221" lon="4.80649">
        <ele>224</ele>
        <time>2016-09-14T08:35:23Z</time>
      </trkpt>
      <trkpt lat="45.98218" lon="4.80655">
        <ele>224</ele>
        <time>2016-09-14T08:35:24Z</time>
      </trkpt>
      <trkpt lat="45.98215" lon="4.8066">
        <ele>224</ele>
        <time>2016-09-14T08:35:25Z</time>
      </trkpt>
      <trkpt lat="45.98212" lon="4.80664">
        <ele>224</ele>
        <time>2016-09-14T08:35:26Z</time>
      </trkpt>
      <trkpt lat="45.98208" lon="4.80667">
        <ele>224</ele>
        <time>2016-09-14T08:35:27Z</time>
      </trkpt>
      <trkpt lat="45.98203" lon="4.8067">
        <ele>225</ele>
        <time>2016-09-14T08:35:28Z</time>
      </trkpt>
      <trkpt lat="45.98198" lon="4.80672">
        <ele>225</ele>
        <time>2016-09-14T08:35:29Z</time>
      </trkpt>
      <trkpt lat="45.9819" lon="4.80676">
        <ele>225</ele>
        <time>2016-09-14T08:35:31Z</time>
      </trkpt>
      <trkpt lat="45.98186" lon="4.80679">
        <ele>225</ele>
        <time>2016-09-14T08:35:32Z</time>
      </trkpt>
      <trkpt lat="45.98177" lon="4.80683">
        <ele>225</ele>
        <time>2016-09-14T08:35:34Z</time>
      </trkpt>
      <trkpt lat="45.98173" lon="4.80684">
        <ele>225</ele>
        <time>2016-09-14T08:35:35Z</time>
      </trkpt>
      <trkpt lat="45.98165" lon="4.80686">
        <ele>227</ele>
        <time>2016-09-14T08:35:37Z</time>
      </trkpt>
      <trkpt lat="45.98161" lon="4.80687">
        <ele>227</ele>
        <time>2016-09-14T08:35:38Z</time>
      </trkpt>
      <trkpt lat="45.98153" lon="4.80687">
        <ele>227</ele>
        <time>2016-09-14T08:35:40Z</time>
      </trkpt>
      <trkpt lat="45.98149" lon="4.80688">
        <ele>227</ele>
        <time>2016-09-14T08:35:41Z</time>
      </trkpt>
      <trkpt lat="45.98141" lon="4.80687">
        <ele>228</ele>
        <time>2016-09-14T08:35:43Z</time>
      </trkpt>
      <trkpt lat="45.98137" lon="4.80687">
        <ele>228</ele>
        <time>2016-09-14T08:35:44Z</time>
      </trkpt>
      <trkpt lat="45.98128" lon="4.80688">
        <ele>228</ele>
        <time>2016-09-14T08:35:46Z</time>
      </trkpt>
      <trkpt lat="45.98123" lon="4.80687">
        <ele>228</ele>
        <time>2016-09-14T08:35:47Z</time>
      </trkpt>
      <trkpt lat="45.98115" lon="4.80689">
        <ele>228</ele>
        <time>2016-09-14T08:35:49Z</time>
      </trkpt>
      <trkpt lat="45.9811" lon="4.8069">
        <ele>228</ele>
        <time>2016-09-14T08:35:50Z</time>
      </trkpt>
      <trkpt lat="45.98106" lon="4.80691">
        <ele>228</ele>
        <time>2016-09-14T08:35:51Z</time>
      </trkpt>
      <trkpt lat="45.98101" lon="4.80691">
        <ele>228</ele>
        <time>2016-09-14T08:35:52Z</time>
      </trkpt>
      <trkpt lat="45.98092" lon="4.80691">
        <ele>228</ele>
        <time>2016-09-14T08:35:54Z</time>
      </trkpt>
      <trkpt lat="45.98089" lon="4.80691">
        <ele>228</ele>
        <time>2016-09-14T08:35:55Z</time>
      </trkpt>
      <trkpt lat="45.98081" lon="4.80691">
        <ele>230</ele>
        <time>2016-09-14T08:35:57Z</time>
      </trkpt>
      <trkpt lat="45.98078" lon="4.80692">
        <ele>230</ele>
        <time>2016-09-14T08:35:58Z</time>
      </trkpt>
      <trkpt lat="45.9807" lon="4.80691">
        <ele>230</ele>
        <time>2016-09-14T08:36:00Z</time>
      </trkpt>
      <trkpt lat="45.98067" lon="4.80691">
        <ele>230</ele>
        <time>2016-09-14T08:36:01Z</time>
      </trkpt>
      <trkpt lat="45.9806" lon="4.80691">
        <ele>230</ele>
        <time>2016-09-14T08:36:03Z</time>
      </trkpt>
      <trkpt lat="45.98057" lon="4.80691">
        <ele>230</ele>
        <time>2016-09-14T08:36:04Z</time>
      </trkpt>
      <trkpt lat="45.9805" lon="4.80692">
        <ele>230</ele>
        <time>2016-09-14T08:36:06Z</time>
      </trkpt>
      <trkpt lat="45.98047" lon="4.80693">
        <ele>230</ele>
        <time>2016-09-14T08:36:07Z</time>
      </trkpt>
      <trkpt lat="45.98039" lon="4.80696">
        <ele>230</ele>
        <time>2016-09-14T08:36:09Z</time>
      </trkpt>
      <trkpt lat="45.98035" lon="4.80698">
        <ele>230</ele>
        <time>2016-09-14T08:36:10Z</time>
      </trkpt>
      <trkpt lat="45.98029" lon="4.80703">
        <ele>231</ele>
        <time>2016-09-14T08:36:12Z</time>
      </trkpt>
      <trkpt lat="45.98028" lon="4.80707">
        <ele>231</ele>
        <time>2016-09-14T08:36:13Z</time>
      </trkpt>
      <trkpt lat="45.98027" lon="4.80715">
        <ele>231</ele>
        <time>2016-09-14T08:36:15Z</time>
      </trkpt>
      <trkpt lat="45.98028" lon="4.8072">
        <ele>231</ele>
        <time>2016-09-14T08:36:16Z</time>
      </trkpt>
      <trkpt lat="45.9803" lon="4.80729">
        <ele>231</ele>
        <time>2016-09-14T08:36:18Z</time>
      </trkpt>
      <trkpt lat="45.98031" lon="4.80734">
        <ele>231</ele>
        <time>2016-09-14T08:36:19Z</time>
      </trkpt>
      <trkpt lat="45.98034" lon="4.80745">
        <ele>231</ele>
        <time>2016-09-14T08:36:22Z</time>
      </trkpt>
      <trkpt lat="45.98036" lon="4.80749">
        <ele>231</ele>
        <time>2016-09-14T08:36:23Z</time>
      </trkpt>
      <trkpt lat="45.98041" lon="4.80759">
        <ele>233</ele>
        <time>2016-09-14T08:36:26Z</time>
      </trkpt>
      <trkpt lat="45.98042" lon="4.80762">
        <ele>233</ele>
        <time>2016-09-14T08:36:27Z</time>
      </trkpt>
      <trkpt lat="45.98043" lon="4.80771">
        <ele>233</ele>
        <time>2016-09-14T08:36:29Z</time>
      </trkpt>
      <trkpt lat="45.98044" lon="4.80775">
        <ele>233</ele>
        <time>2016-09-14T08:36:30Z</time>
      </trkpt>
      <trkpt lat="45.98045" lon="4.80783">
        <ele>233</ele>
        <time>2016-09-14T08:36:32Z</time>
      </trkpt>
      <trkpt lat="45.98046" lon="4.80788">
        <ele>233</ele>
        <time>2016-09-14T08:36:33Z</time>
      </trkpt>
      <trkpt lat="45.98048" lon="4.80796">
        <ele>234</ele>
        <time>2016-09-14T08:36:35Z</time>
      </trkpt>
      <trkpt lat="45.98049" lon="4.80801">
        <ele>234</ele>
        <time>2016-09-14T08:36:36Z</time>
      </trkpt>
      <trkpt lat="45.9805" lon="4.80809">
        <ele>234</ele>
        <time>2016-09-14T08:36:38Z</time>
      </trkpt>
      <trkpt lat="45.98051" lon="4.80813">
        <ele>234</ele>
        <time>2016-09-14T08:36:39Z</time>
      </trkpt>
      <trkpt lat="45.98054" lon="4.80821">
        <ele>234</ele>
        <time>2016-09-14T08:36:41Z</time>
      </trkpt>
      <trkpt lat="45.98055" lon="4.80825">
        <ele>234</ele>
        <time>2016-09-14T08:36:42Z</time>
      </trkpt>
      <trkpt lat="45.98056" lon="4.80837">
        <ele>236</ele>
        <time>2016-09-14T08:36:45Z</time>
      </trkpt>
      <trkpt lat="45.98057" lon="4.80841">
        <ele>236</ele>
        <time>2016-09-14T08:36:46Z</time>
      </trkpt>
      <trkpt lat="45.98059" lon="4.8085">
        <ele>236</ele>
        <time>2016-09-14T08:36:48Z</time>
      </trkpt>
      <trkpt lat="45.9806" lon="4.80855">
        <ele>236</ele>
        <time>2016-09-14T08:36:49Z</time>
      </trkpt>
      <trkpt lat="45.98063" lon="4.80864">
        <ele>237</ele>
        <time>2016-09-14T08:36:51Z</time>
      </trkpt>
      <trkpt lat="45.98064" lon="4.80868">
        <ele>237</ele>
        <time>2016-09-14T08:36:52Z</time>
      </trkpt>
      <trkpt lat="45.98066" lon="4.80879">
        <ele>237</ele>
        <time>2016-09-14T08:36:55Z</time>
      </trkpt>
      <trkpt lat="45.98067" lon="4.80883">
        <ele>237</ele>
        <time>2016-09-14T08:36:56Z</time>
      </trkpt>
      <trkpt lat="45.9807" lon="4.80895">
        <ele>238</ele>
        <time>2016-09-14T08:36:59Z</time>
      </trkpt>
      <trkpt lat="45.9807" lon="4.80898">
        <ele>238</ele>
        <time>2016-09-14T08:37:00Z</time>
      </trkpt>
      <trkpt lat="45.98072" lon="4.80909">
        <ele>238</ele>
        <time>2016-09-14T08:37:03Z</time>
      </trkpt>
      <trkpt lat="45.98072" lon="4.80913">
        <ele>238</ele>
        <time>2016-09-14T08:37:04Z</time>
      </trkpt>
      <trkpt lat="45.98075" lon="4.80923">
        <ele>240</ele>
        <time>2016-09-14T08:37:07Z</time>
      </trkpt>
      <trkpt lat="45.98076" lon="4.80927">
        <ele>240</ele>
        <time>2016-09-14T08:37:08Z</time>
      </trkpt>
      <trkpt lat="45.9808" lon="4.80938">
        <ele>240</ele>
        <time>2016-09-14T08:37:11Z</time>
      </trkpt>
      <trkpt lat="45.98081" lon="4.80942">
        <ele>240</ele>
        <time>2016-09-14T08:37:12Z</time>
      </trkpt>
      <trkpt lat="45.98083" lon="4.80951">
        <ele>241</ele>
        <time>2016-09-14T08:37:14Z</time>
      </trkpt>
      <trkpt lat="45.98084" lon="4.80955">
        <ele>239</ele>
        <time>2016-09-14T08:37:15Z</time>
      </trkpt>
      <trkpt lat="45.98087" lon="4.80967">
        <ele>239</ele>
        <time>2016-09-14T08:37:18Z</time>
      </trkpt>
      <trkpt lat="45.98089" lon="4.80971">
        <ele>239</ele>
        <time>2016-09-14T08:37:19Z</time>
      </trkpt>
      <trkpt lat="45.98091" lon="4.80978">
        <ele>239</ele>
        <time>2016-09-14T08:37:21Z</time>
      </trkpt>
      <trkpt lat="45.98093" lon="4.80983">
        <ele>240</ele>
        <time>2016-09-14T08:37:22Z</time>
      </trkpt>
      <trkpt lat="45.98096" lon="4.8099">
        <ele>240</ele>
        <time>2016-09-14T08:37:24Z</time>
      </trkpt>
      <trkpt lat="45.98097" lon="4.80995">
        <ele>240</ele>
        <time>2016-09-14T08:37:25Z</time>
      </trkpt>
      <trkpt lat="45.98101" lon="4.81005">
        <ele>242</ele>
        <time>2016-09-14T08:37:27Z</time>
      </trkpt>
      <trkpt lat="45.98103" lon="4.81011">
        <ele>242</ele>
        <time>2016-09-14T08:37:28Z</time>
      </trkpt>
      <trkpt lat="45.98106" lon="4.81016">
        <ele>242</ele>
        <time>2016-09-14T08:37:29Z</time>
      </trkpt>
      <trkpt lat="45.98108" lon="4.81022">
        <ele>242</ele>
        <time>2016-09-14T08:37:30Z</time>
      </trkpt>
      <trkpt lat="45.9811" lon="4.81028">
        <ele>242</ele>
        <time>2016-09-14T08:37:31Z</time>
      </trkpt>
      <trkpt lat="45.98112" lon="4.81034">
        <ele>242</ele>
        <time>2016-09-14T08:37:32Z</time>
      </trkpt>
      <trkpt lat="45.98114" lon="4.8104">
        <ele>242</ele>
        <time>2016-09-14T08:37:33Z</time>
      </trkpt>
      <trkpt lat="45.98116" lon="4.81046">
        <ele>242</ele>
        <time>2016-09-14T08:37:34Z</time>
      </trkpt>
      <trkpt lat="45.9812" lon="4.81057">
        <ele>243</ele>
        <time>2016-09-14T08:37:36Z</time>
      </trkpt>
      <trkpt lat="45.98123" lon="4.81062">
        <ele>243</ele>
        <time>2016-09-14T08:37:37Z</time>
      </trkpt>
      <trkpt lat="45.98127" lon="4.81072">
        <ele>243</ele>
        <time>2016-09-14T08:37:39Z</time>
      </trkpt>
      <trkpt lat="45.98129" lon="4.81078">
        <ele>243</ele>
        <time>2016-09-14T08:37:40Z</time>
      </trkpt>
      <trkpt lat="45.98133" lon="4.81089">
        <ele>245</ele>
        <time>2016-09-14T08:37:42Z</time>
      </trkpt>
      <trkpt lat="45.98135" lon="4.81095">
        <ele>245</ele>
        <time>2016-09-14T08:37:43Z</time>
      </trkpt>
      <trkpt lat="45.98139" lon="4.81105">
        <ele>245</ele>
        <time>2016-09-14T08:37:45Z</time>
      </trkpt>
      <trkpt lat="45.98141" lon="4.8111">
        <ele>245</ele>
        <time>2016-09-14T08:37:46Z</time>
      </trkpt>
      <trkpt lat="45.98146" lon="4.81121">
        <ele>245</ele>
        <time>2016-09-14T08:37:48Z</time>
      </trkpt>
      <trkpt lat="45.98149" lon="4.81126">
        <ele>245</ele>
        <time>2016-09-14T08:37:49Z</time>
      </trkpt>
      <trkpt lat="45.98152" lon="4.81132">
        <ele>245</ele>
        <time>2016-09-14T08:37:50Z</time>
      </trkpt>
      <trkpt lat="45.98154" lon="4.81137">
        <ele>245</ele>
        <time>2016-09-14T08:37:51Z</time>
      </trkpt>
      <trkpt lat="45.98156" lon="4.81149">
        <ele>245</ele>
        <time>2016-09-14T08:37:53Z</time>
      </trkpt>
      <trkpt lat="45.98158" lon="4.81154">
        <ele>245</ele>
        <time>2016-09-14T08:37:54Z</time>
      </trkpt>
      <trkpt lat="45.98162" lon="4.81164">
        <ele>245</ele>
        <time>2016-09-14T08:37:56Z</time>
      </trkpt>
      <trkpt lat="45.98164" lon="4.8117">
        <ele>245</ele>
        <time>2016-09-14T08:37:57Z</time>
      </trkpt>
      <trkpt lat="45.98168" lon="4.8118">
        <ele>245</ele>
        <time>2016-09-14T08:37:59Z</time>
      </trkpt>
      <trkpt lat="45.98168" lon="4.81185">
        <ele>245</ele>
        <time>2016-09-14T08:38:00Z</time>
      </trkpt>
      <trkpt lat="45.98169" lon="4.81196">
        <ele>245</ele>
        <time>2016-09-14T08:38:02Z</time>
      </trkpt>
      <trkpt lat="45.9817" lon="4.81202">
        <ele>245</ele>
        <time>2016-09-14T08:38:03Z</time>
      </trkpt>
      <trkpt lat="45.98171" lon="4.81213">
        <ele>246</ele>
        <time>2016-09-14T08:38:05Z</time>
      </trkpt>
      <trkpt lat="45.98171" lon="4.81218">
        <ele>246</ele>
        <time>2016-09-14T08:38:06Z</time>
      </trkpt>
      <trkpt lat="45.98172" lon="4.8123">
        <ele>246</ele>
        <time>2016-09-14T08:38:08Z</time>
      </trkpt>
      <trkpt lat="45.98172" lon="4.81236">
        <ele>247</ele>
        <time>2016-09-14T08:38:09Z</time>
      </trkpt>
      <trkpt lat="45.98174" lon="4.81247">
        <ele>247</ele>
        <time>2016-09-14T08:38:11Z</time>
      </trkpt>
      <trkpt lat="45.98174" lon="4.81254">
        <ele>248</ele>
        <time>2016-09-14T08:38:12Z</time>
      </trkpt>
      <trkpt lat="45.98175" lon="4.81266">
        <ele>247</ele>
        <time>2016-09-14T08:38:14Z</time>
      </trkpt>
      <trkpt lat="45.98176" lon="4.81272">
        <ele>247</ele>
        <time>2016-09-14T08:38:15Z</time>
      </trkpt>
      <trkpt lat="45.98177" lon="4.81279">
        <ele>247</ele>
        <time>2016-09-14T08:38:16Z</time>
      </trkpt>
      <trkpt lat="45.98178" lon="4.81285">
        <ele>247</ele>
        <time>2016-09-14T08:38:17Z</time>
      </trkpt>
      <trkpt lat="45.9818" lon="4.81296">
        <ele>247</ele>
        <time>2016-09-14T08:38:19Z</time>
      </trkpt>
      <trkpt lat="45.98182" lon="4.81302">
        <ele>247</ele>
        <time>2016-09-14T08:38:20Z</time>
      </trkpt>
      <trkpt lat="45.98184" lon="4.81309">
        <ele>247</ele>
        <time>2016-09-14T08:38:21Z</time>
      </trkpt>
      <trkpt lat="45.98186" lon="4.81316">
        <ele>247</ele>
        <time>2016-09-14T08:38:22Z</time>
      </trkpt>
      <trkpt lat="45.98187" lon="4.81323">
        <ele>247</ele>
        <time>2016-09-14T08:38:23Z</time>
      </trkpt>
      <trkpt lat="45.98189" lon="4.81329">
        <ele>247</ele>
        <time>2016-09-14T08:38:24Z</time>
      </trkpt>
      <trkpt lat="45.98193" lon="4.8134">
        <ele>248</ele>
        <time>2016-09-14T08:38:26Z</time>
      </trkpt>
      <trkpt lat="45.98195" lon="4.81345">
        <ele>248</ele>
        <time>2016-09-14T08:38:27Z</time>
      </trkpt>
      <trkpt lat="45.98197" lon="4.81356">
        <ele>248</ele>
        <time>2016-09-14T08:38:29Z</time>
      </trkpt>
      <trkpt lat="45.98199" lon="4.81361">
        <ele>248</ele>
        <time>2016-09-14T08:38:30Z</time>
      </trkpt>
      <trkpt lat="45.98199" lon="4.8137">
        <ele>248</ele>
        <time>2016-09-14T08:38:32Z</time>
      </trkpt>
      <trkpt lat="45.982" lon="4.81374">
        <ele>248</ele>
        <time>2016-09-14T08:38:33Z</time>
      </trkpt>
      <trkpt lat="45.98201" lon="4.81385">
        <ele>248</ele>
        <time>2016-09-14T08:38:35Z</time>
      </trkpt>
      <trkpt lat="45.98202" lon="4.8139">
        <ele>248</ele>
        <time>2016-09-14T08:38:36Z</time>
      </trkpt>
      <trkpt lat="45.98206" lon="4.814">
        <ele>248</ele>
        <time>2016-09-14T08:38:38Z</time>
      </trkpt>
      <trkpt lat="45.98208" lon="4.81405">
        <ele>248</ele>
        <time>2016-09-14T08:38:39Z</time>
      </trkpt>
      <trkpt lat="45.98213" lon="4.81416">
        <ele>248</ele>
        <time>2016-09-14T08:38:41Z</time>
      </trkpt>
      <trkpt lat="45.98214" lon="4.81422">
        <ele>249</ele>
        <time>2016-09-14T08:38:42Z</time>
      </trkpt>
      <trkpt lat="45.98216" lon="4.81428">
        <ele>249</ele>
        <time>2016-09-14T08:38:43Z</time>
      </trkpt>
      <trkpt lat="45.98218" lon="4.81435">
        <ele>249</ele>
        <time>2016-09-14T08:38:44Z</time>
      </trkpt>
      <trkpt lat="45.9822" lon="4.81441">
        <ele>249</ele>
        <time>2016-09-14T08:38:45Z</time>
      </trkpt>
      <trkpt lat="45.98223" lon="4.81447">
        <ele>249</ele>
        <time>2016-09-14T08:38:46Z</time>
      </trkpt>
      <trkpt lat="45.98225" lon="4.81454">
        <ele>249</ele>
        <time>2016-09-14T08:38:47Z</time>
      </trkpt>
      <trkpt lat="45.98227" lon="4.8146">
        <ele>249</ele>
        <time>2016-09-14T08:38:48Z</time>
      </trkpt>
      <trkpt lat="45.98229" lon="4.81467">
        <ele>249</ele>
        <time>2016-09-14T08:38:49Z</time>
      </trkpt>
      <trkpt lat="45.98231" lon="4.81474">
        <ele>249</ele>
        <time>2016-09-14T08:38:50Z</time>
      </trkpt>
      <trkpt lat="45.98233" lon="4.8148">
        <ele>249</ele>
        <time>2016-09-14T08:38:51Z</time>
      </trkpt>
      <trkpt lat="45.98235" lon="4.81487">
        <ele>249</ele>
        <time>2016-09-14T08:38:52Z</time>
      </trkpt>
      <trkpt lat="45.98237" lon="4.81495">
        <ele>249</ele>
        <time>2016-09-14T08:38:53Z</time>
      </trkpt>
      <trkpt lat="45.98239" lon="4.81501">
        <ele>249</ele>
        <time>2016-09-14T08:38:54Z</time>
      </trkpt>
      <trkpt lat="45.98242" lon="4.81508">
        <ele>249</ele>
        <time>2016-09-14T08:38:55Z</time>
      </trkpt>
      <trkpt lat="45.98245" lon="4.81515">
        <ele>249</ele>
        <time>2016-09-14T08:38:56Z</time>
      </trkpt>
      <trkpt lat="45.98247" lon="4.81522">
        <ele>249</ele>
        <time>2016-09-14T08:38:57Z</time>
      </trkpt>
      <trkpt lat="45.98249" lon="4.81529">
        <ele>249</ele>
        <time>2016-09-14T08:38:58Z</time>
      </trkpt>
      <trkpt lat="45.98251" lon="4.81536">
        <ele>247</ele>
        <time>2016-09-14T08:38:59Z</time>
      </trkpt>
      <trkpt lat="45.98253" lon="4.81543">
        <ele>247</ele>
        <time>2016-09-14T08:39:00Z</time>
      </trkpt>
      <trkpt lat="45.98256" lon="4.81549">
        <ele>247</ele>
        <time>2016-09-14T08:39:01Z</time>
      </trkpt>
      <trkpt lat="45.98258" lon="4.81556">
        <ele>247</ele>
        <time>2016-09-14T08:39:02Z</time>
      </trkpt>
      <trkpt lat="45.9826" lon="4.81562">
        <ele>247</ele>
        <time>2016-09-14T08:39:03Z</time>
      </trkpt>
      <trkpt lat="45.98262" lon="4.81569">
        <ele>247</ele>
        <time>2016-09-14T08:39:04Z</time>
      </trkpt>
      <trkpt lat="45.98265" lon="4.81575">
        <ele>247</ele>
        <time>2016-09-14T08:39:05Z</time>
      </trkpt>
      <trkpt lat="45.98267" lon="4.81581">
        <ele>247</ele>
        <time>2016-09-14T08:39:06Z</time>
      </trkpt>
      <trkpt lat="45.98269" lon="4.81588">
        <ele>247</ele>
        <time>2016-09-14T08:39:07Z</time>
      </trkpt>
      <trkpt lat="45.98272" lon="4.81594">
        <ele>247</ele>
        <time>2016-09-14T08:39:08Z</time>
      </trkpt>
      <trkpt lat="45.98274" lon="4.81601">
        <ele>247</ele>
        <time>2016-09-14T08:39:09Z</time>
      </trkpt>
      <trkpt lat="45.98277" lon="4.81608">
        <ele>247</ele>
        <time>2016-09-14T08:39:10Z</time>
      </trkpt>
      <trkpt lat="45.9828" lon="4.81614">
        <ele>247</ele>
        <time>2016-09-14T08:39:11Z</time>
      </trkpt>
      <trkpt lat="45.98283" lon="4.81621">
        <ele>247</ele>
        <time>2016-09-14T08:39:12Z</time>
      </trkpt>
      <trkpt lat="45.98287" lon="4.81627">
        <ele>247</ele>
        <time>2016-09-14T08:39:13Z</time>
      </trkpt>
      <trkpt lat="45.98292" lon="4.81632">
        <ele>247</ele>
        <time>2016-09-14T08:39:14Z</time>
      </trkpt>
      <trkpt lat="45.98296" lon="4.81637">
        <ele>247</ele>
        <time>2016-09-14T08:39:15Z</time>
      </trkpt>
      <trkpt lat="45.98301" lon="4.81642">
        <ele>246</ele>
        <time>2016-09-14T08:39:16Z</time>
      </trkpt>
      <trkpt lat="45.98306" lon="4.81647">
        <ele>246</ele>
        <time>2016-09-14T08:39:17Z</time>
      </trkpt>
      <trkpt lat="45.98311" lon="4.81652">
        <ele>246</ele>
        <time>2016-09-14T08:39:18Z</time>
      </trkpt>
      <trkpt lat="45.98315" lon="4.81656">
        <ele>246</ele>
        <time>2016-09-14T08:39:19Z</time>
      </trkpt>
      <trkpt lat="45.9832" lon="4.8166">
        <ele>246</ele>
        <time>2016-09-14T08:39:20Z</time>
      </trkpt>
      <trkpt lat="45.98324" lon="4.81664">
        <ele>246</ele>
        <time>2016-09-14T08:39:21Z</time>
      </trkpt>
      <trkpt lat="45.98329" lon="4.81667">
        <ele>246</ele>
        <time>2016-09-14T08:39:22Z</time>
      </trkpt>
      <trkpt lat="45.98334" lon="4.8167">
        <ele>246</ele>
        <time>2016-09-14T08:39:23Z</time>
      </trkpt>
      <trkpt lat="45.98339" lon="4.81672">
        <ele>245</ele>
        <time>2016-09-14T08:39:24Z</time>
      </trkpt>
      <trkpt lat="45.98344" lon="4.81674">
        <ele>245</ele>
        <time>2016-09-14T08:39:25Z</time>
      </trkpt>
      <trkpt lat="45.9835" lon="4.81676">
        <ele>245</ele>
        <time>2016-09-14T08:39:26Z</time>
      </trkpt>
      <trkpt lat="45.98356" lon="4.81677">
        <ele>245</ele>
        <time>2016-09-14T08:39:27Z</time>
      </trkpt>
      <trkpt lat="45.98362" lon="4.81677">
        <ele>244</ele>
        <time>2016-09-14T08:39:28Z</time>
      </trkpt>
      <trkpt lat="45.98368" lon="4.81677">
        <ele>244</ele>
        <time>2016-09-14T08:39:29Z</time>
      </trkpt>
      <trkpt lat="45.98374" lon="4.81676">
        <ele>244</ele>
        <time>2016-09-14T08:39:30Z</time>
      </trkpt>
      <trkpt lat="45.9838" lon="4.81675">
        <ele>244</ele>
        <time>2016-09-14T08:39:31Z</time>
      </trkpt>
      <trkpt lat="45.98386" lon="4.81673">
        <ele>243</ele>
        <time>2016-09-14T08:39:32Z</time>
      </trkpt>
      <trkpt lat="45.98392" lon="4.81672">
        <ele>243</ele>
        <time>2016-09-14T08:39:33Z</time>
      </trkpt>
      <trkpt lat="45.98398" lon="4.81671">
        <ele>243</ele>
        <time>2016-09-14T08:39:34Z</time>
      </trkpt>
      <trkpt lat="45.98404" lon="4.81669">
        <ele>242</ele>
        <time>2016-09-14T08:39:35Z</time>
      </trkpt>
      <trkpt lat="45.98409" lon="4.81668">
        <ele>242</ele>
        <time>2016-09-14T08:39:36Z</time>
      </trkpt>
      <trkpt lat="45.98415" lon="4.81668">
        <ele>241</ele>
        <time>2016-09-14T08:39:37Z</time>
      </trkpt>
      <trkpt lat="45.9842" lon="4.81668">
        <ele>241</ele>
        <time>2016-09-14T08:39:38Z</time>
      </trkpt>
      <trkpt lat="45.98425" lon="4.81669">
        <ele>240</ele>
        <time>2016-09-14T08:39:39Z</time>
      </trkpt>
      <trkpt lat="45.9843" lon="4.8167">
        <ele>240</ele>
        <time>2016-09-14T08:39:40Z</time>
      </trkpt>
      <trkpt lat="45.98435" lon="4.81672">
        <ele>240</ele>
        <time>2016-09-14T08:39:41Z</time>
      </trkpt>
      <trkpt lat="45.98439" lon="4.81675">
        <ele>240</ele>
        <time>2016-09-14T08:39:42Z</time>
      </trkpt>
      <trkpt lat="45.98443" lon="4.8168">
        <ele>239</ele>
        <time>2016-09-14T08:39:43Z</time>
      </trkpt>
      <trkpt lat="45.98447" lon="4.81686">
        <ele>239</ele>
        <time>2016-09-14T08:39:44Z</time>
      </trkpt>
      <trkpt lat="45.98451" lon="4.81693">
        <ele>239</ele>
        <time>2016-09-14T08:39:45Z</time>
      </trkpt>
      <trkpt lat="45.98455" lon="4.81699">
        <ele>239</ele>
        <time>2016-09-14T08:39:46Z</time>
      </trkpt>
      <trkpt lat="45.98458" lon="4.81707">
        <ele>239</ele>
        <time>2016-09-14T08:39:47Z</time>
      </trkpt>
      <trkpt lat="45.98463" lon="4.81713">
        <ele>239</ele>
        <time>2016-09-14T08:39:48Z</time>
      </trkpt>
      <trkpt lat="45.98468" lon="4.8172">
        <ele>239</ele>
        <time>2016-09-14T08:39:49Z</time>
      </trkpt>
      <trkpt lat="45.98473" lon="4.81727">
        <ele>239</ele>
        <time>2016-09-14T08:39:50Z</time>
      </trkpt>
      <trkpt lat="45.98479" lon="4.81733">
        <ele>238</ele>
        <time>2016-09-14T08:39:51Z</time>
      </trkpt>
      <trkpt lat="45.98486" lon="4.81739">
        <ele>238</ele>
        <time>2016-09-14T08:39:52Z</time>
      </trkpt>
      <trkpt lat="45.98492" lon="4.81746">
        <ele>238</ele>
        <time>2016-09-14T08:39:53Z</time>
      </trkpt>
      <trkpt lat="45.98499" lon="4.81753">
        <ele>237</ele>
        <time>2016-09-14T08:39:54Z</time>
      </trkpt>
      <trkpt lat="45.98505" lon="4.8176">
        <ele>237</ele>
        <time>2016-09-14T08:39:55Z</time>
      </trkpt>
      <trkpt lat="45.98511" lon="4.81769">
        <ele>237</ele>
        <time>2016-09-14T08:39:56Z</time>
      </trkpt>
      <trkpt lat="45.98518" lon="4.81778">
        <ele>238</ele>
        <time>2016-09-14T08:39:57Z</time>
      </trkpt>
      <trkpt lat="45.98524" lon="4.81787">
        <ele>238</ele>
        <time>2016-09-14T08:39:58Z</time>
      </trkpt>
      <trkpt lat="45.9853" lon="4.81795">
        <ele>238</ele>
        <time>2016-09-14T08:39:59Z</time>
      </trkpt>
      <trkpt lat="45.98536" lon="4.81802">
        <ele>238</ele>
        <time>2016-09-14T08:40:00Z</time>
      </trkpt>
      <trkpt lat="45.98542" lon="4.81807">
        <ele>238</ele>
        <time>2016-09-14T08:40:01Z</time>
      </trkpt>
      <trkpt lat="45.98549" lon="4.81809">
        <ele>238</ele>
        <time>2016-09-14T08:40:02Z</time>
      </trkpt>
      <trkpt lat="45.98556" lon="4.81808">
        <ele>238</ele>
        <time>2016-09-14T08:40:03Z</time>
      </trkpt>
      <trkpt lat="45.98562" lon="4.81804">
        <ele>238</ele>
        <time>2016-09-14T08:40:04Z</time>
      </trkpt>
      <trkpt lat="45.98567" lon="4.81798">
        <ele>238</ele>
        <time>2016-09-14T08:40:05Z</time>
      </trkpt>
      <trkpt lat="45.98572" lon="4.81792">
        <ele>238</ele>
        <time>2016-09-14T08:40:06Z</time>
      </trkpt>
      <trkpt lat="45.98576" lon="4.81786">
        <ele>238</ele>
        <time>2016-09-14T08:40:07Z</time>
      </trkpt>
      <trkpt lat="45.9858" lon="4.81781">
        <ele>238</ele>
        <time>2016-09-14T08:40:08Z</time>
      </trkpt>
      <trkpt lat="45.98585" lon="4.81777">
        <ele>238</ele>
        <time>2016-09-14T08:40:09Z</time>
      </trkpt>
      <trkpt lat="45.9859" lon="4.81773">
        <ele>238</ele>
        <time>2016-09-14T08:40:10Z</time>
      </trkpt>
      <trkpt lat="45.98595" lon="4.8177">
        <ele>238</ele>
        <time>2016-09-14T08:40:11Z</time>
      </trkpt>
      <trkpt lat="45.986" lon="4.81767">
        <ele>238</ele>
        <time>2016-09-14T08:40:12Z</time>
      </trkpt>
      <trkpt lat="45.98605" lon="4.81765">
        <ele>238</ele>
        <time>2016-09-14T08:40:13Z</time>
      </trkpt>
      <trkpt lat="45.9861" lon="4.81763">
        <ele>238</ele>
        <time>2016-09-14T08:40:14Z</time>
      </trkpt>
      <trkpt lat="45.98616" lon="4.81761">
        <ele>238</ele>
        <time>2016-09-14T08:40:15Z</time>
      </trkpt>
      <trkpt lat="45.98621" lon="4.8176">
        <ele>238</ele>
        <time>2016-09-14T08:40:16Z</time>
      </trkpt>
      <trkpt lat="45.98627" lon="4.81758">
        <ele>238</ele>
        <time>2016-09-14T08:40:17Z</time>
      </trkpt>
      <trkpt lat="45.98633" lon="4.81757">
        <ele>238</ele>
        <time>2016-09-14T08:40:18Z</time>
      </trkpt>
      <trkpt lat="45.98639" lon="4.81755">
        <ele>238</ele>
        <time>2016-09-14T08:40:19Z</time>
      </trkpt>
      <trkpt lat="45.98644" lon="4.81753">
        <ele>238</ele>
        <time>2016-09-14T08:40:20Z</time>
      </trkpt>
      <trkpt lat="45.98649" lon="4.81751">
        <ele>238</ele>
        <time>2016-09-14T08:40:21Z</time>
      </trkpt>
      <trkpt lat="45.98655" lon="4.8175">
        <ele>238</ele>
        <time>2016-09-14T08:40:22Z</time>
      </trkpt>
      <trkpt lat="45.9866" lon="4.8175">
        <ele>238</ele>
        <time>2016-09-14T08:40:23Z</time>
      </trkpt>
      <trkpt lat="45.98664" lon="4.81748">
        <ele>238</ele>
        <time>2016-09-14T08:40:24Z</time>
      </trkpt>
      <trkpt lat="45.98669" lon="4.81747">
        <ele>238</ele>
        <time>2016-09-14T08:40:25Z</time>
      </trkpt>
      <trkpt lat="45.98674" lon="4.81745">
        <ele>238</ele>
        <time>2016-09-14T08:40:26Z</time>
      </trkpt>
      <trkpt lat="45.98679" lon="4.81744">
        <ele>238</ele>
        <time>2016-09-14T08:40:27Z</time>
      </trkpt>
      <trkpt lat="45.98685" lon="4.81742">
        <ele>238</ele>
        <time>2016-09-14T08:40:28Z</time>
      </trkpt>
      <trkpt lat="45.9869" lon="4.81741">
        <ele>238</ele>
        <time>2016-09-14T08:40:29Z</time>
      </trkpt>
      <trkpt lat="45.98695" lon="4.81739">
        <ele>239</ele>
        <time>2016-09-14T08:40:30Z</time>
      </trkpt>
      <trkpt lat="45.987" lon="4.81738">
        <ele>239</ele>
        <time>2016-09-14T08:40:31Z</time>
      </trkpt>
      <trkpt lat="45.98705" lon="4.81737">
        <ele>239</ele>
        <time>2016-09-14T08:40:32Z</time>
      </trkpt>
      <trkpt lat="45.9871" lon="4.81735">
        <ele>239</ele>
        <time>2016-09-14T08:40:33Z</time>
      </trkpt>
      <trkpt lat="45.98715" lon="4.81735">
        <ele>239</ele>
        <time>2016-09-14T08:40:34Z</time>
      </trkpt>
      <trkpt lat="45.98723" lon="4.81734">
        <ele>239</ele>
        <time>2016-09-14T08:40:36Z</time>
      </trkpt>
      <trkpt lat="45.98728" lon="4.81736">
        <ele>239</ele>
        <time>2016-09-14T08:40:37Z</time>
      </trkpt>
      <trkpt lat="45.98732" lon="4.8174">
        <ele>240</ele>
        <time>2016-09-14T08:40:38Z</time>
      </trkpt>
      <trkpt lat="45.98735" lon="4.81745">
        <ele>240</ele>
        <time>2016-09-14T08:40:39Z</time>
      </trkpt>
      <trkpt lat="45.98738" lon="4.8175">
        <ele>240</ele>
        <time>2016-09-14T08:40:40Z</time>
      </trkpt>
      <trkpt lat="45.98741" lon="4.81756">
        <ele>240</ele>
        <time>2016-09-14T08:40:41Z</time>
      </trkpt>
      <trkpt lat="45.98744" lon="4.81762">
        <ele>240</ele>
        <time>2016-09-14T08:40:42Z</time>
      </trkpt>
      <trkpt lat="45.98747" lon="4.81769">
        <ele>240</ele>
        <time>2016-09-14T08:40:43Z</time>
      </trkpt>
      <trkpt lat="45.9875" lon="4.81776">
        <ele>241</ele>
        <time>2016-09-14T08:40:44Z</time>
      </trkpt>
      <trkpt lat="45.98754" lon="4.81783">
        <ele>241</ele>
        <time>2016-09-14T08:40:45Z</time>
      </trkpt>
      <trkpt lat="45.98757" lon="4.8179">
        <ele>241</ele>
        <time>2016-09-14T08:40:46Z</time>
      </trkpt>
      <trkpt lat="45.98761" lon="4.81798">
        <ele>240</ele>
        <time>2016-09-14T08:40:47Z</time>
      </trkpt>
      <trkpt lat="45.98765" lon="4.81806">
        <ele>240</ele>
        <time>2016-09-14T08:40:48Z</time>
      </trkpt>
      <trkpt lat="45.98768" lon="4.81814">
        <ele>240</ele>
        <time>2016-09-14T08:40:49Z</time>
      </trkpt>
      <trkpt lat="45.98772" lon="4.81821">
        <ele>240</ele>
        <time>2016-09-14T08:40:50Z</time>
      </trkpt>
      <trkpt lat="45.98776" lon="4.81829">
        <ele>240</ele>
        <time>2016-09-14T08:40:51Z</time>
      </trkpt>
      <trkpt lat="45.98779" lon="4.81837">
        <ele>239</ele>
        <time>2016-09-14T08:40:52Z</time>
      </trkpt>
      <trkpt lat="45.98783" lon="4.81845">
        <ele>239</ele>
        <time>2016-09-14T08:40:53Z</time>
      </trkpt>
      <trkpt lat="45.98786" lon="4.81853">
        <ele>239</ele>
        <time>2016-09-14T08:40:54Z</time>
      </trkpt>
      <trkpt lat="45.9879" lon="4.81861">
        <ele>239</ele>
        <time>2016-09-14T08:40:55Z</time>
      </trkpt>
      <trkpt lat="45.98792" lon="4.81869">
        <ele>239</ele>
        <time>2016-09-14T08:40:56Z</time>
      </trkpt>
      <trkpt lat="45.98795" lon="4.81877">
        <ele>239</ele>
        <time>2016-09-14T08:40:57Z</time>
      </trkpt>
      <trkpt lat="45.98797" lon="4.81886">
        <ele>239</ele>
        <time>2016-09-14T08:40:58Z</time>
      </trkpt>
      <trkpt lat="45.988" lon="4.81893">
        <ele>239</ele>
        <time>2016-09-14T08:40:59Z</time>
      </trkpt>
      <trkpt lat="45.98802" lon="4.81901">
        <ele>239</ele>
        <time>2016-09-14T08:41:00Z</time>
      </trkpt>
      <trkpt lat="45.98804" lon="4.81909">
        <ele>239</ele>
        <time>2016-09-14T08:41:01Z</time>
      </trkpt>
      <trkpt lat="45.98806" lon="4.81918">
        <ele>239</ele>
        <time>2016-09-14T08:41:02Z</time>
      </trkpt>
      <trkpt lat="45.98807" lon="4.81926">
        <ele>239</ele>
        <time>2016-09-14T08:41:03Z</time>
      </trkpt>
      <trkpt lat="45.98809" lon="4.81933">
        <ele>239</ele>
        <time>2016-09-14T08:41:04Z</time>
      </trkpt>
      <trkpt lat="45.9881" lon="4.81941">
        <ele>239</ele>
        <time>2016-09-14T08:41:05Z</time>
      </trkpt>
      <trkpt lat="45.98811" lon="4.81948">
        <ele>239</ele>
        <time>2016-09-14T08:41:06Z</time>
      </trkpt>
      <trkpt lat="45.98812" lon="4.81956">
        <ele>239</ele>
        <time>2016-09-14T08:41:07Z</time>
      </trkpt>
      <trkpt lat="45.98813" lon="4.81964">
        <ele>239</ele>
        <time>2016-09-14T08:41:08Z</time>
      </trkpt>
      <trkpt lat="45.98814" lon="4.81972">
        <ele>239</ele>
        <time>2016-09-14T08:41:09Z</time>
      </trkpt>
      <trkpt lat="45.98815" lon="4.8198">
        <ele>239</ele>
        <time>2016-09-14T08:41:10Z</time>
      </trkpt>
      <trkpt lat="45.98817" lon="4.81988">
        <ele>238</ele>
        <time>2016-09-14T08:41:11Z</time>
      </trkpt>
      <trkpt lat="45.98818" lon="4.81996">
        <ele>238</ele>
        <time>2016-09-14T08:41:12Z</time>
      </trkpt>
      <trkpt lat="45.98819" lon="4.82004">
        <ele>238</ele>
        <time>2016-09-14T08:41:13Z</time>
      </trkpt>
      <trkpt lat="45.98821" lon="4.82012">
        <ele>238</ele>
        <time>2016-09-14T08:41:14Z</time>
      </trkpt>
      <trkpt lat="45.98822" lon="4.8202">
        <ele>238</ele>
        <time>2016-09-14T08:41:15Z</time>
      </trkpt>
      <trkpt lat="45.98824" lon="4.82029">
        <ele>238</ele>
        <time>2016-09-14T08:41:16Z</time>
      </trkpt>
      <trkpt lat="45.98825" lon="4.82037">
        <ele>238</ele>
        <time>2016-09-14T08:41:17Z</time>
      </trkpt>
      <trkpt lat="45.98826" lon="4.82046">
        <ele>238</ele>
        <time>2016-09-14T08:41:18Z</time>
      </trkpt>
      <trkpt lat="45.98827" lon="4.82055">
        <ele>237</ele>
        <time>2016-09-14T08:41:19Z</time>
      </trkpt>
      <trkpt lat="45.98828" lon="4.82064">
        <ele>237</ele>
        <time>2016-09-14T08:41:20Z</time>
      </trkpt>
      <trkpt lat="45.98829" lon="4.82072">
        <ele>237</ele>
        <time>2016-09-14T08:41:21Z</time>
      </trkpt>
      <trkpt lat="45.9883" lon="4.8208">
        <ele>236</ele>
        <time>2016-09-14T08:41:22Z</time>
      </trkpt>
      <trkpt lat="45.98832" lon="4.82088">
        <ele>236</ele>
        <time>2016-09-14T08:41:23Z</time>
      </trkpt>
      <trkpt lat="45.98833" lon="4.82095">
        <ele>237</ele>
        <time>2016-09-14T08:41:24Z</time>
      </trkpt>
      <trkpt lat="45.98834" lon="4.82103">
        <ele>236</ele>
        <time>2016-09-14T08:41:25Z</time>
      </trkpt>
      <trkpt lat="45.98835" lon="4.8211">
        <ele>236</ele>
        <time>2016-09-14T08:41:26Z</time>
      </trkpt>
      <trkpt lat="45.98837" lon="4.82118">
        <ele>236</ele>
        <time>2016-09-14T08:41:27Z</time>
      </trkpt>
      <trkpt lat="45.98838" lon="4.82127">
        <ele>236</ele>
        <time>2016-09-14T08:41:28Z</time>
      </trkpt>
      <trkpt lat="45.9884" lon="4.82137">
        <ele>236</ele>
        <time>2016-09-14T08:41:29Z</time>
      </trkpt>
      <trkpt lat="45.98842" lon="4.82145">
        <ele>236</ele>
        <time>2016-09-14T08:41:30Z</time>
      </trkpt>
      <trkpt lat="45.98844" lon="4.82154">
        <ele>236</ele>
        <time>2016-09-14T08:41:31Z</time>
      </trkpt>
      <trkpt lat="45.98847" lon="4.82163">
        <ele>236</ele>
        <time>2016-09-14T08:41:32Z</time>
      </trkpt>
      <trkpt lat="45.98851" lon="4.82172">
        <ele>236</ele>
        <time>2016-09-14T08:41:33Z</time>
      </trkpt>
      <trkpt lat="45.98854" lon="4.8218">
        <ele>236</ele>
        <time>2016-09-14T08:41:34Z</time>
      </trkpt>
      <trkpt lat="45.98857" lon="4.82189">
        <ele>236</ele>
        <time>2016-09-14T08:41:35Z</time>
      </trkpt>
      <trkpt lat="45.9886" lon="4.82197">
        <ele>236</ele>
        <time>2016-09-14T08:41:36Z</time>
      </trkpt>
      <trkpt lat="45.98864" lon="4.82204">
        <ele>236</ele>
        <time>2016-09-14T08:41:37Z</time>
      </trkpt>
      <trkpt lat="45.98867" lon="4.82212">
        <ele>236</ele>
        <time>2016-09-14T08:41:38Z</time>
      </trkpt>
      <trkpt lat="45.98871" lon="4.82219">
        <ele>236</ele>
        <time>2016-09-14T08:41:39Z</time>
      </trkpt>
      <trkpt lat="45.98874" lon="4.82225">
        <ele>236</ele>
        <time>2016-09-14T08:41:40Z</time>
      </trkpt>
      <trkpt lat="45.98877" lon="4.82233">
        <ele>236</ele>
        <time>2016-09-14T08:41:41Z</time>
      </trkpt>
      <trkpt lat="45.9888" lon="4.82239">
        <ele>236</ele>
        <time>2016-09-14T08:41:42Z</time>
      </trkpt>
      <trkpt lat="45.98883" lon="4.82246">
        <ele>236</ele>
        <time>2016-09-14T08:41:43Z</time>
      </trkpt>
      <trkpt lat="45.98886" lon="4.82253">
        <ele>236</ele>
        <time>2016-09-14T08:41:44Z</time>
      </trkpt>
      <trkpt lat="45.98889" lon="4.82261">
        <ele>236</ele>
        <time>2016-09-14T08:41:45Z</time>
      </trkpt>
      <trkpt lat="45.98892" lon="4.82268">
        <ele>236</ele>
        <time>2016-09-14T08:41:46Z</time>
      </trkpt>
      <trkpt lat="45.98896" lon="4.82275">
        <ele>236</ele>
        <time>2016-09-14T08:41:47Z</time>
      </trkpt>
      <trkpt lat="45.989" lon="4.82282">
        <ele>236</ele>
        <time>2016-09-14T08:41:48Z</time>
      </trkpt>
      <trkpt lat="45.98906" lon="4.82288">
        <ele>236</ele>
        <time>2016-09-14T08:41:49Z</time>
      </trkpt>
      <trkpt lat="45.98911" lon="4.82294">
        <ele>237</ele>
        <time>2016-09-14T08:41:50Z</time>
      </trkpt>
      <trkpt lat="45.98916" lon="4.823">
        <ele>237</ele>
        <time>2016-09-14T08:41:51Z</time>
      </trkpt>
      <trkpt lat="45.98922" lon="4.82306">
        <ele>234</ele>
        <time>2016-09-14T08:41:52Z</time>
      </trkpt>
      <trkpt lat="45.98928" lon="4.82312">
        <ele>235</ele>
        <time>2016-09-14T08:41:53Z</time>
      </trkpt>
      <trkpt lat="45.98933" lon="4.82318">
        <ele>235</ele>
        <time>2016-09-14T08:41:54Z</time>
      </trkpt>
      <trkpt lat="45.98938" lon="4.82324">
        <ele>235</ele>
        <time>2016-09-14T08:41:55Z</time>
      </trkpt>
      <trkpt lat="45.98943" lon="4.8233">
        <ele>234</ele>
        <time>2016-09-14T08:41:56Z</time>
      </trkpt>
      <trkpt lat="45.98947" lon="4.82337">
        <ele>235</ele>
        <time>2016-09-14T08:41:57Z</time>
      </trkpt>
      <trkpt lat="45.9895" lon="4.82344">
        <ele>235</ele>
        <time>2016-09-14T08:41:58Z</time>
      </trkpt>
      <trkpt lat="45.98954" lon="4.82351">
        <ele>235</ele>
        <time>2016-09-14T08:41:59Z</time>
      </trkpt>
      <trkpt lat="45.98956" lon="4.82359">
        <ele>235</ele>
        <time>2016-09-14T08:42:00Z</time>
      </trkpt>
      <trkpt lat="45.98959" lon="4.82366">
        <ele>235</ele>
        <time>2016-09-14T08:42:01Z</time>
      </trkpt>
      <trkpt lat="45.98962" lon="4.82374">
        <ele>235</ele>
        <time>2016-09-14T08:42:02Z</time>
      </trkpt>
      <trkpt lat="45.98964" lon="4.82381">
        <ele>235</ele>
        <time>2016-09-14T08:42:03Z</time>
      </trkpt>
      <trkpt lat="45.98966" lon="4.8239">
        <ele>235</ele>
        <time>2016-09-14T08:42:04Z</time>
      </trkpt>
      <trkpt lat="45.98968" lon="4.82398">
        <ele>235</ele>
        <time>2016-09-14T08:42:05Z</time>
      </trkpt>
      <trkpt lat="45.9897" lon="4.82407">
        <ele>235</ele>
        <time>2016-09-14T08:42:06Z</time>
      </trkpt>
      <trkpt lat="45.98971" lon="4.82416">
        <ele>235</ele>
        <time>2016-09-14T08:42:07Z</time>
      </trkpt>
      <trkpt lat="45.98974" lon="4.82424">
        <ele>236</ele>
        <time>2016-09-14T08:42:08Z</time>
      </trkpt>
      <trkpt lat="45.98976" lon="4.82432">
        <ele>236</ele>
        <time>2016-09-14T08:42:09Z</time>
      </trkpt>
      <trkpt lat="45.98977" lon="4.8244">
        <ele>236</ele>
        <time>2016-09-14T08:42:10Z</time>
      </trkpt>
      <trkpt lat="45.98979" lon="4.82448">
        <ele>236</ele>
        <time>2016-09-14T08:42:11Z</time>
      </trkpt>
      <trkpt lat="45.9898" lon="4.82455">
        <ele>236</ele>
        <time>2016-09-14T08:42:12Z</time>
      </trkpt>
      <trkpt lat="45.98982" lon="4.82462">
        <ele>236</ele>
        <time>2016-09-14T08:42:13Z</time>
      </trkpt>
      <trkpt lat="45.98984" lon="4.82469">
        <ele>236</ele>
        <time>2016-09-14T08:42:14Z</time>
      </trkpt>
      <trkpt lat="45.98986" lon="4.82475">
        <ele>236</ele>
        <time>2016-09-14T08:42:15Z</time>
      </trkpt>
      <trkpt lat="45.98988" lon="4.82482">
        <ele>236</ele>
        <time>2016-09-14T08:42:16Z</time>
      </trkpt>
      <trkpt lat="45.9899" lon="4.82488">
        <ele>236</ele>
        <time>2016-09-14T08:42:17Z</time>
      </trkpt>
      <trkpt lat="45.98992" lon="4.82494">
        <ele>236</ele>
        <time>2016-09-14T08:42:18Z</time>
      </trkpt>
      <trkpt lat="45.98995" lon="4.82501">
        <ele>236</ele>
        <time>2016-09-14T08:42:19Z</time>
      </trkpt>
      <trkpt lat="45.98998" lon="4.82507">
        <ele>236</ele>
        <time>2016-09-14T08:42:20Z</time>
      </trkpt>
      <trkpt lat="45.99002" lon="4.82514">
        <ele>235</ele>
        <time>2016-09-14T08:42:21Z</time>
      </trkpt>
      <trkpt lat="45.99006" lon="4.8252">
        <ele>235</ele>
        <time>2016-09-14T08:42:22Z</time>
      </trkpt>
      <trkpt lat="45.9901" lon="4.82527">
        <ele>235</ele>
        <time>2016-09-14T08:42:23Z</time>
      </trkpt>
      <trkpt lat="45.99014" lon="4.82534">
        <ele>235</ele>
        <time>2016-09-14T08:42:24Z</time>
      </trkpt>
      <trkpt lat="45.99019" lon="4.8254">
        <ele>235</ele>
        <time>2016-09-14T08:42:25Z</time>
      </trkpt>
      <trkpt lat="45.99023" lon="4.82545">
        <ele>235</ele>
        <time>2016-09-14T08:42:26Z</time>
      </trkpt>
      <trkpt lat="45.99028" lon="4.8255">
        <ele>235</ele>
        <time>2016-09-14T08:42:27Z</time>
      </trkpt>
      <trkpt lat="45.99033" lon="4.82555">
        <ele>235</ele>
        <time>2016-09-14T08:42:28Z</time>
      </trkpt>
      <trkpt lat="45.99039" lon="4.82559">
        <ele>235</ele>
        <time>2016-09-14T08:42:29Z</time>
      </trkpt>
      <trkpt lat="45.99044" lon="4.82563">
        <ele>235</ele>
        <time>2016-09-14T08:42:30Z</time>
      </trkpt>
      <trkpt lat="45.9905" lon="4.82566">
        <ele>235</ele>
        <time>2016-09-14T08:42:31Z</time>
      </trkpt>
      <trkpt lat="45.99055" lon="4.82568">
        <ele>235</ele>
        <time>2016-09-14T08:42:32Z</time>
      </trkpt>
      <trkpt lat="45.99062" lon="4.82571">
        <ele>235</ele>
        <time>2016-09-14T08:42:33Z</time>
      </trkpt>
      <trkpt lat="45.99066" lon="4.82572">
        <ele>235</ele>
        <time>2016-09-14T08:42:34Z</time>
      </trkpt>
      <trkpt lat="45.9907" lon="4.82575">
        <ele>235</ele>
        <time>2016-09-14T08:42:35Z</time>
      </trkpt>
      <trkpt lat="45.99075" lon="4.82582">
        <ele>235</ele>
        <time>2016-09-14T08:42:37Z</time>
      </trkpt>
      <trkpt lat="45.99076" lon="4.82585">
        <ele>235</ele>
        <time>2016-09-14T08:42:38Z</time>
      </trkpt>
      <trkpt lat="45.99074" lon="4.82593">
        <ele>235</ele>
        <time>2016-09-14T08:42:40Z</time>
      </trkpt>
      <trkpt lat="45.99072" lon="4.82597">
        <ele>235</ele>
        <time>2016-09-14T08:42:41Z</time>
      </trkpt>
      <trkpt lat="45.99067" lon="4.82606">
        <ele>236</ele>
        <time>2016-09-14T08:42:43Z</time>
      </trkpt>
      <trkpt lat="45.99064" lon="4.82611">
        <ele>236</ele>
        <time>2016-09-14T08:42:44Z</time>
      </trkpt>
      <trkpt lat="45.99059" lon="4.82621">
        <ele>236</ele>
        <time>2016-09-14T08:42:46Z</time>
      </trkpt>
      <trkpt lat="45.99057" lon="4.82625">
        <ele>236</ele>
        <time>2016-09-14T08:42:47Z</time>
      </trkpt>
      <trkpt lat="45.99053" lon="4.82635">
        <ele>236</ele>
        <time>2016-09-14T08:42:49Z</time>
      </trkpt>
      <trkpt lat="45.99051" lon="4.8264">
        <ele>236</ele>
        <time>2016-09-14T08:42:50Z</time>
      </trkpt>
      <trkpt lat="45.99046" lon="4.82649">
        <ele>236</ele>
        <time>2016-09-14T08:42:52Z</time>
      </trkpt>
      <trkpt lat="45.99044" lon="4.82653">
        <ele>236</ele>
        <time>2016-09-14T08:42:53Z</time>
      </trkpt>
      <trkpt lat="45.99041" lon="4.82662">
        <ele>236</ele>
        <time>2016-09-14T08:42:55Z</time>
      </trkpt>
      <trkpt lat="45.99039" lon="4.82666">
        <ele>236</ele>
        <time>2016-09-14T08:42:56Z</time>
      </trkpt>
      <trkpt lat="45.99035" lon="4.82674">
        <ele>238</ele>
        <time>2016-09-14T08:42:58Z</time>
      </trkpt>
      <trkpt lat="45.99033" lon="4.82679">
        <ele>238</ele>
        <time>2016-09-14T08:42:59Z</time>
      </trkpt>
      <trkpt lat="45.99029" lon="4.82687">
        <ele>238</ele>
        <time>2016-09-14T08:43:01Z</time>
      </trkpt>
      <trkpt lat="45.99027" lon="4.82691">
        <ele>238</ele>
        <time>2016-09-14T08:43:02Z</time>
      </trkpt>
      <trkpt lat="45.99022" lon="4.82699">
        <ele>238</ele>
        <time>2016-09-14T08:43:04Z</time>
      </trkpt>
      <trkpt lat="45.9902" lon="4.82703">
        <ele>238</ele>
        <time>2016-09-14T08:43:05Z</time>
      </trkpt>
      <trkpt lat="45.99017" lon="4.82711">
        <ele>239</ele>
        <time>2016-09-14T08:43:07Z</time>
      </trkpt>
      <trkpt lat="45.99015" lon="4.82715">
        <ele>239</ele>
        <time>2016-09-14T08:43:08Z</time>
      </trkpt>
      <trkpt lat="45.99011" lon="4.82725">
        <ele>239</ele>
        <time>2016-09-14T08:43:11Z</time>
      </trkpt>
      <trkpt lat="45.9901" lon="4.82729">
        <ele>239</ele>
        <time>2016-09-14T08:43:12Z</time>
      </trkpt>
      <trkpt lat="45.99006" lon="4.82738">
        <ele>240</ele>
        <time>2016-09-14T08:43:15Z</time>
      </trkpt>
      <trkpt lat="45.99005" lon="4.82742">
        <ele>240</ele>
        <time>2016-09-14T08:43:16Z</time>
      </trkpt>
      <trkpt lat="45.99" lon="4.82751">
        <ele>241</ele>
        <time>2016-09-14T08:43:19Z</time>
      </trkpt>
      <trkpt lat="45.98999" lon="4.82753">
        <ele>242</ele>
        <time>2016-09-14T08:43:20Z</time>
      </trkpt>
      <trkpt lat="45.98995" lon="4.82764">
        <ele>244</ele>
        <time>2016-09-14T08:43:23Z</time>
      </trkpt>
      <trkpt lat="45.98994" lon="4.82768">
        <ele>245</ele>
        <time>2016-09-14T08:43:24Z</time>
      </trkpt>
      <trkpt lat="45.9899" lon="4.82778">
        <ele>246</ele>
        <time>2016-09-14T08:43:27Z</time>
      </trkpt>
      <trkpt lat="45.98988" lon="4.82781">
        <ele>247</ele>
        <time>2016-09-14T08:43:28Z</time>
      </trkpt>
      <trkpt lat="45.98984" lon="4.82792">
        <ele>247</ele>
        <time>2016-09-14T08:43:31Z</time>
      </trkpt>
      <trkpt lat="45.98982" lon="4.82795">
        <ele>248</ele>
        <time>2016-09-14T08:43:32Z</time>
      </trkpt>
      <trkpt lat="45.98978" lon="4.82805">
        <ele>248</ele>
        <time>2016-09-14T08:43:36Z</time>
      </trkpt>
      <trkpt lat="45.98976" lon="4.82808">
        <ele>248</ele>
        <time>2016-09-14T08:43:37Z</time>
      </trkpt>
      <trkpt lat="45.98972" lon="4.82815">
        <ele>249</ele>
        <time>2016-09-14T08:43:40Z</time>
      </trkpt>
      <trkpt lat="45.9897" lon="4.82818">
        <ele>249</ele>
        <time>2016-09-14T08:43:41Z</time>
      </trkpt>
      <trkpt lat="45.98967" lon="4.82828">
        <ele>249</ele>
        <time>2016-09-14T08:43:44Z</time>
      </trkpt>
      <trkpt lat="45.98966" lon="4.82831">
        <ele>249</ele>
        <time>2016-09-14T08:43:45Z</time>
      </trkpt>
      <trkpt lat="45.98962" lon="4.8284">
        <ele>252</ele>
        <time>2016-09-14T08:43:48Z</time>
      </trkpt>
      <trkpt lat="45.9896" lon="4.82843">
        <ele>252</ele>
        <time>2016-09-14T08:43:49Z</time>
      </trkpt>
      <trkpt lat="45.98956" lon="4.82853">
        <ele>252</ele>
        <time>2016-09-14T08:43:52Z</time>
      </trkpt>
      <trkpt lat="45.98954" lon="4.82856">
        <ele>252</ele>
        <time>2016-09-14T08:43:53Z</time>
      </trkpt>
      <trkpt lat="45.98951" lon="4.82865">
        <ele>253</ele>
        <time>2016-09-14T08:43:56Z</time>
      </trkpt>
      <trkpt lat="45.9895" lon="4.82868">
        <ele>253</ele>
        <time>2016-09-14T08:43:57Z</time>
      </trkpt>
      <trkpt lat="45.98945" lon="4.82879">
        <ele>253</ele>
        <time>2016-09-14T08:44:01Z</time>
      </trkpt>
      <trkpt lat="45.98943" lon="4.82881">
        <ele>253</ele>
        <time>2016-09-14T08:44:02Z</time>
      </trkpt>
      <trkpt lat="45.98938" lon="4.82891">
        <ele>253</ele>
        <time>2016-09-14T08:44:06Z</time>
      </trkpt>
      <trkpt lat="45.98937" lon="4.82894">
        <ele>253</ele>
        <time>2016-09-14T08:44:07Z</time>
      </trkpt>
      <trkpt lat="45.98933" lon="4.82901">
        <ele>254</ele>
        <time>2016-09-14T08:44:10Z</time>
      </trkpt>
      <trkpt lat="45.98932" lon="4.82904">
        <ele>254</ele>
        <time>2016-09-14T08:44:11Z</time>
      </trkpt>
      <trkpt lat="45.98927" lon="4.82913">
        <ele>254</ele>
        <time>2016-09-14T08:44:14Z</time>
      </trkpt>
      <trkpt lat="45.98926" lon="4.82915">
        <ele>254</ele>
        <time>2016-09-14T08:44:15Z</time>
      </trkpt>
      <trkpt lat="45.98922" lon="4.82926">
        <ele>255</ele>
        <time>2016-09-14T08:44:18Z</time>
      </trkpt>
      <trkpt lat="45.98921" lon="4.82929">
        <ele>255</ele>
        <time>2016-09-14T08:44:19Z</time>
      </trkpt>
      <trkpt lat="45.98917" lon="4.8294">
        <ele>258</ele>
        <time>2016-09-14T08:44:23Z</time>
      </trkpt>
      <trkpt lat="45.98915" lon="4.82943">
        <ele>258</ele>
        <time>2016-09-14T08:44:24Z</time>
      </trkpt>
      <trkpt lat="45.9891" lon="4.82952">
        <ele>258</ele>
        <time>2016-09-14T08:44:28Z</time>
      </trkpt>
      <trkpt lat="45.98909" lon="4.82955">
        <ele>258</ele>
        <time>2016-09-14T08:44:29Z</time>
      </trkpt>
      <trkpt lat="45.98905" lon="4.82963">
        <ele>259</ele>
        <time>2016-09-14T08:44:32Z</time>
      </trkpt>
      <trkpt lat="45.98903" lon="4.82966">
        <ele>259</ele>
        <time>2016-09-14T08:44:33Z</time>
      </trkpt>
      <trkpt lat="45.98896" lon="4.82973">
        <ele>259</ele>
        <time>2016-09-14T08:44:36Z</time>
      </trkpt>
      <trkpt lat="45.98894" lon="4.82975">
        <ele>259</ele>
        <time>2016-09-14T08:44:37Z</time>
      </trkpt>
      <trkpt lat="45.98888" lon="4.82981">
        <ele>259</ele>
        <time>2016-09-14T08:44:40Z</time>
      </trkpt>
      <trkpt lat="45.98886" lon="4.82982">
        <ele>259</ele>
        <time>2016-09-14T08:44:41Z</time>
      </trkpt>
      <trkpt lat="45.9888" lon="4.82987">
        <ele>260</ele>
        <time>2016-09-14T08:44:44Z</time>
      </trkpt>
      <trkpt lat="45.98877" lon="4.82988">
        <ele>260</ele>
        <time>2016-09-14T08:44:45Z</time>
      </trkpt>
      <trkpt lat="45.9887" lon="4.82995">
        <ele>260</ele>
        <time>2016-09-14T08:44:49Z</time>
      </trkpt>
      <trkpt lat="45.98868" lon="4.82996">
        <ele>260</ele>
        <time>2016-09-14T08:44:50Z</time>
      </trkpt>
      <trkpt lat="45.98861" lon="4.83">
        <ele>261</ele>
        <time>2016-09-14T08:44:54Z</time>
      </trkpt>
      <trkpt lat="45.98859" lon="4.83001">
        <ele>261</ele>
        <time>2016-09-14T08:44:55Z</time>
      </trkpt>
      <trkpt lat="45.98851" lon="4.83006">
        <ele>261</ele>
        <time>2016-09-14T08:44:59Z</time>
      </trkpt>
      <trkpt lat="45.98849" lon="4.83007">
        <ele>261</ele>
        <time>2016-09-14T08:45:00Z</time>
      </trkpt>
      <trkpt lat="45.98841" lon="4.83013">
        <ele>261</ele>
        <time>2016-09-14T08:45:04Z</time>
      </trkpt>
      <trkpt lat="45.98838" lon="4.83015">
        <ele>261</ele>
        <time>2016-09-14T08:45:05Z</time>
      </trkpt>
      <trkpt lat="45.98832" lon="4.8302">
        <ele>264</ele>
        <time>2016-09-14T08:45:08Z</time>
      </trkpt>
      <trkpt lat="45.9883" lon="4.83022">
        <ele>264</ele>
        <time>2016-09-14T08:45:09Z</time>
      </trkpt>
      <trkpt lat="45.98823" lon="4.83028">
        <ele>264</ele>
        <time>2016-09-14T08:45:12Z</time>
      </trkpt>
      <trkpt lat="45.98821" lon="4.8303">
        <ele>264</ele>
        <time>2016-09-14T08:45:13Z</time>
      </trkpt>
      <trkpt lat="45.98815" lon="4.83034">
        <ele>264</ele>
        <time>2016-09-14T08:45:15Z</time>
      </trkpt>
      <trkpt lat="45.98813" lon="4.83036">
        <ele>264</ele>
        <time>2016-09-14T08:45:16Z</time>
      </trkpt>
      <trkpt lat="45.98805" lon="4.83041">
        <ele>264</ele>
        <time>2016-09-14T08:45:19Z</time>
      </trkpt>
      <trkpt lat="45.98803" lon="4.83044">
        <ele>264</ele>
        <time>2016-09-14T08:45:20Z</time>
      </trkpt>
      <trkpt lat="45.98796" lon="4.8305">
        <ele>265</ele>
        <time>2016-09-14T08:45:23Z</time>
      </trkpt>
      <trkpt lat="45.98794" lon="4.83052">
        <ele>265</ele>
        <time>2016-09-14T08:45:24Z</time>
      </trkpt>
      <trkpt lat="45.98786" lon="4.83058">
        <ele>265</ele>
        <time>2016-09-14T08:45:27Z</time>
      </trkpt>
      <trkpt lat="45.98784" lon="4.8306">
        <ele>265</ele>
        <time>2016-09-14T08:45:28Z</time>
      </trkpt>
      <trkpt lat="45.98777" lon="4.83066">
        <ele>265</ele>
        <time>2016-09-14T08:45:31Z</time>
      </trkpt>
      <trkpt lat="45.98774" lon="4.83068">
        <ele>265</ele>
        <time>2016-09-14T08:45:32Z</time>
      </trkpt>
      <trkpt lat="45.9877" lon="4.83073">
        <ele>266</ele>
        <time>2016-09-14T08:45:34Z</time>
      </trkpt>
      <trkpt lat="45.98767" lon="4.83075">
        <ele>266</ele>
        <time>2016-09-14T08:45:35Z</time>
      </trkpt>
      <trkpt lat="45.98761" lon="4.83082">
        <ele>266</ele>
        <time>2016-09-14T08:45:37Z</time>
      </trkpt>
      <trkpt lat="45.98758" lon="4.83084">
        <ele>266</ele>
        <time>2016-09-14T08:45:38Z</time>
      </trkpt>
      <trkpt lat="45.98753" lon="4.83088">
        <ele>266</ele>
        <time>2016-09-14T08:45:40Z</time>
      </trkpt>
      <trkpt lat="45.9875" lon="4.8309">
        <ele>267</ele>
        <time>2016-09-14T08:45:41Z</time>
      </trkpt>
      <trkpt lat="45.98744" lon="4.83095">
        <ele>267</ele>
        <time>2016-09-14T08:45:43Z</time>
      </trkpt>
      <trkpt lat="45.98741" lon="4.83098">
        <ele>267</ele>
        <time>2016-09-14T08:45:44Z</time>
      </trkpt>
      <trkpt lat="45.98736" lon="4.83103">
        <ele>267</ele>
        <time>2016-09-14T08:45:46Z</time>
      </trkpt>
      <trkpt lat="45.98734" lon="4.83105">
        <ele>267</ele>
        <time>2016-09-14T08:45:47Z</time>
      </trkpt>
      <trkpt lat="45.98729" lon="4.8311">
        <ele>267</ele>
        <time>2016-09-14T08:45:49Z</time>
      </trkpt>
      <trkpt lat="45.98726" lon="4.83112">
        <ele>267</ele>
        <time>2016-09-14T08:45:50Z</time>
      </trkpt>
      <trkpt lat="45.98721" lon="4.83117">
        <ele>267</ele>
        <time>2016-09-14T08:45:52Z</time>
      </trkpt>
      <trkpt lat="45.98718" lon="4.83119">
        <ele>267</ele>
        <time>2016-09-14T08:45:53Z</time>
      </trkpt>
      <trkpt lat="45.98712" lon="4.83124">
        <ele>266</ele>
        <time>2016-09-14T08:45:55Z</time>
      </trkpt>
      <trkpt lat="45.98709" lon="4.83126">
        <ele>266</ele>
        <time>2016-09-14T08:45:56Z</time>
      </trkpt>
      <trkpt lat="45.98703" lon="4.83132">
        <ele>266</ele>
        <time>2016-09-14T08:45:58Z</time>
      </trkpt>
      <trkpt lat="45.987" lon="4.83134">
        <ele>266</ele>
        <time>2016-09-14T08:45:59Z</time>
      </trkpt>
      <trkpt lat="45.98693" lon="4.8314">
        <ele>266</ele>
        <time>2016-09-14T08:46:01Z</time>
      </trkpt>
      <trkpt lat="45.9869" lon="4.83143">
        <ele>266</ele>
        <time>2016-09-14T08:46:02Z</time>
      </trkpt>
      <trkpt lat="45.98684" lon="4.83147">
        <ele>266</ele>
        <time>2016-09-14T08:46:04Z</time>
      </trkpt>
      <trkpt lat="45.98682" lon="4.83148">
        <ele>266</ele>
        <time>2016-09-14T08:46:05Z</time>
      </trkpt>
      <trkpt lat="45.98676" lon="4.83153">
        <ele>266</ele>
        <time>2016-09-14T08:46:07Z</time>
      </trkpt>
      <trkpt lat="45.98673" lon="4.83155">
        <ele>266</ele>
        <time>2016-09-14T08:46:08Z</time>
      </trkpt>
      <trkpt lat="45.98667" lon="4.83159">
        <ele>266</ele>
        <time>2016-09-14T08:46:10Z</time>
      </trkpt>
      <trkpt lat="45.98664" lon="4.8316">
        <ele>266</ele>
        <time>2016-09-14T08:46:11Z</time>
      </trkpt>
      <trkpt lat="45.98658" lon="4.83165">
        <ele>267</ele>
        <time>2016-09-14T08:46:13Z</time>
      </trkpt>
      <trkpt lat="45.98655" lon="4.83168">
        <ele>266</ele>
        <time>2016-09-14T08:46:14Z</time>
      </trkpt>
      <trkpt lat="45.98649" lon="4.83173">
        <ele>267</ele>
        <time>2016-09-14T08:46:16Z</time>
      </trkpt>
      <trkpt lat="45.98646" lon="4.83176">
        <ele>267</ele>
        <time>2016-09-14T08:46:17Z</time>
      </trkpt>
      <trkpt lat="45.98639" lon="4.83182">
        <ele>267</ele>
        <time>2016-09-14T08:46:19Z</time>
      </trkpt>
      <trkpt lat="45.98636" lon="4.83184">
        <ele>267</ele>
        <time>2016-09-14T08:46:20Z</time>
      </trkpt>
      <trkpt lat="45.9863" lon="4.83191">
        <ele>267</ele>
        <time>2016-09-14T08:46:22Z</time>
      </trkpt>
      <trkpt lat="45.98627" lon="4.83194">
        <ele>267</ele>
        <time>2016-09-14T08:46:23Z</time>
      </trkpt>
      <trkpt lat="45.98621" lon="4.83201">
        <ele>267</ele>
        <time>2016-09-14T08:46:25Z</time>
      </trkpt>
      <trkpt lat="45.98618" lon="4.83205">
        <ele>267</ele>
        <time>2016-09-14T08:46:26Z</time>
      </trkpt>
      <trkpt lat="45.98613" lon="4.83212">
        <ele>267</ele>
        <time>2016-09-14T08:46:28Z</time>
      </trkpt>
      <trkpt lat="45.9861" lon="4.83216">
        <ele>267</ele>
        <time>2016-09-14T08:46:29Z</time>
      </trkpt>
      <trkpt lat="45.98605" lon="4.83224">
        <ele>267</ele>
        <time>2016-09-14T08:46:31Z</time>
      </trkpt>
      <trkpt lat="45.98602" lon="4.83228">
        <ele>268</ele>
        <time>2016-09-14T08:46:32Z</time>
      </trkpt>
      <trkpt lat="45.98597" lon="4.83236">
        <ele>268</ele>
        <time>2016-09-14T08:46:34Z</time>
      </trkpt>
      <trkpt lat="45.98594" lon="4.8324">
        <ele>268</ele>
        <time>2016-09-14T08:46:35Z</time>
      </trkpt>
      <trkpt lat="45.98588" lon="4.83247">
        <ele>268</ele>
        <time>2016-09-14T08:46:37Z</time>
      </trkpt>
      <trkpt lat="45.98585" lon="4.83251">
        <ele>268</ele>
        <time>2016-09-14T08:46:38Z</time>
      </trkpt>
      <trkpt lat="45.9858" lon="4.83258">
        <ele>268</ele>
        <time>2016-09-14T08:46:40Z</time>
      </trkpt>
      <trkpt lat="45.98577" lon="4.83262">
        <ele>269</ele>
        <time>2016-09-14T08:46:41Z</time>
      </trkpt>
      <trkpt lat="45.9857" lon="4.8327">
        <ele>269</ele>
        <time>2016-09-14T08:46:43Z</time>
      </trkpt>
      <trkpt lat="45.98567" lon="4.83275">
        <ele>269</ele>
        <time>2016-09-14T08:46:44Z</time>
      </trkpt>
      <trkpt lat="45.98564" lon="4.8328">
        <ele>269</ele>
        <time>2016-09-14T08:46:45Z</time>
      </trkpt>
      <trkpt lat="45.9856" lon="4.83284">
        <ele>269</ele>
        <time>2016-09-14T08:46:46Z</time>
      </trkpt>
      <trkpt lat="45.98554" lon="4.83292">
        <ele>269</ele>
        <time>2016-09-14T08:46:48Z</time>
      </trkpt>
      <trkpt lat="45.98551" lon="4.83296">
        <ele>269</ele>
        <time>2016-09-14T08:46:49Z</time>
      </trkpt>
      <trkpt lat="45.98545" lon="4.83304">
        <ele>269</ele>
        <time>2016-09-14T08:46:51Z</time>
      </trkpt>
      <trkpt lat="45.98542" lon="4.83308">
        <ele>269</ele>
        <time>2016-09-14T08:46:52Z</time>
      </trkpt>
      <trkpt lat="45.98536" lon="4.83316">
        <ele>269</ele>
        <time>2016-09-14T08:46:54Z</time>
      </trkpt>
      <trkpt lat="45.98533" lon="4.8332">
        <ele>269</ele>
        <time>2016-09-14T08:46:55Z</time>
      </trkpt>
      <trkpt lat="45.98528" lon="4.83328">
        <ele>269</ele>
        <time>2016-09-14T08:46:57Z</time>
      </trkpt>
      <trkpt lat="45.98525" lon="4.83332">
        <ele>270</ele>
        <time>2016-09-14T08:46:58Z</time>
      </trkpt>
      <trkpt lat="45.98519" lon="4.8334">
        <ele>270</ele>
        <time>2016-09-14T08:47:00Z</time>
      </trkpt>
      <trkpt lat="45.98515" lon="4.83345">
        <ele>270</ele>
        <time>2016-09-14T08:47:01Z</time>
      </trkpt>
      <trkpt lat="45.98512" lon="4.83349">
        <ele>270</ele>
        <time>2016-09-14T08:47:02Z</time>
      </trkpt>
      <trkpt lat="45.98508" lon="4.83353">
        <ele>270</ele>
        <time>2016-09-14T08:47:03Z</time>
      </trkpt>
      <trkpt lat="45.98502" lon="4.83362">
        <ele>269</ele>
        <time>2016-09-14T08:47:05Z</time>
      </trkpt>
      <trkpt lat="45.98498" lon="4.83367">
        <ele>270</ele>
        <time>2016-09-14T08:47:06Z</time>
      </trkpt>
      <trkpt lat="45.98492" lon="4.83375">
        <ele>270</ele>
        <time>2016-09-14T08:47:08Z</time>
      </trkpt>
      <trkpt lat="45.98489" lon="4.83379">
        <ele>269</ele>
        <time>2016-09-14T08:47:09Z</time>
      </trkpt>
      <trkpt lat="45.98482" lon="4.83387">
        <ele>269</ele>
        <time>2016-09-14T08:47:11Z</time>
      </trkpt>
      <trkpt lat="45.98478" lon="4.83392">
        <ele>269</ele>
        <time>2016-09-14T08:47:12Z</time>
      </trkpt>
      <trkpt lat="45.98475" lon="4.83396">
        <ele>269</ele>
        <time>2016-09-14T08:47:13Z</time>
      </trkpt>
      <trkpt lat="45.98471" lon="4.83401">
        <ele>269</ele>
        <time>2016-09-14T08:47:14Z</time>
      </trkpt>
      <trkpt lat="45.98468" lon="4.83406">
        <ele>269</ele>
        <time>2016-09-14T08:47:15Z</time>
      </trkpt>
      <trkpt lat="45.98465" lon="4.83412">
        <ele>269</ele>
        <time>2016-09-14T08:47:16Z</time>
      </trkpt>
      <trkpt lat="45.98461" lon="4.83417">
        <ele>269</ele>
        <time>2016-09-14T08:47:17Z</time>
      </trkpt>
      <trkpt lat="45.98457" lon="4.83422">
        <ele>269</ele>
        <time>2016-09-14T08:47:18Z</time>
      </trkpt>
      <trkpt lat="45.98454" lon="4.83427">
        <ele>269</ele>
        <time>2016-09-14T08:47:19Z</time>
      </trkpt>
      <trkpt lat="45.9845" lon="4.83433">
        <ele>268</ele>
        <time>2016-09-14T08:47:20Z</time>
      </trkpt>
      <trkpt lat="45.98446" lon="4.83438">
        <ele>268</ele>
        <time>2016-09-14T08:47:21Z</time>
      </trkpt>
      <trkpt lat="45.98442" lon="4.83443">
        <ele>268</ele>
        <time>2016-09-14T08:47:22Z</time>
      </trkpt>
      <trkpt lat="45.98439" lon="4.83448">
        <ele>268</ele>
        <time>2016-09-14T08:47:23Z</time>
      </trkpt>
      <trkpt lat="45.98435" lon="4.83453">
        <ele>268</ele>
        <time>2016-09-14T08:47:24Z</time>
      </trkpt>
      <trkpt lat="45.98431" lon="4.83458">
        <ele>268</ele>
        <time>2016-09-14T08:47:25Z</time>
      </trkpt>
      <trkpt lat="45.98428" lon="4.83463">
        <ele>268</ele>
        <time>2016-09-14T08:47:26Z</time>
      </trkpt>
      <trkpt lat="45.98422" lon="4.83472">
        <ele>268</ele>
        <time>2016-09-14T08:47:28Z</time>
      </trkpt>
      <trkpt lat="45.98418" lon="4.83477">
        <ele>268</ele>
        <time>2016-09-14T08:47:29Z</time>
      </trkpt>
      <trkpt lat="45.98414" lon="4.83481">
        <ele>269</ele>
        <time>2016-09-14T08:47:30Z</time>
      </trkpt>
      <trkpt lat="45.98411" lon="4.83486">
        <ele>269</ele>
        <time>2016-09-14T08:47:31Z</time>
      </trkpt>
      <trkpt lat="45.98407" lon="4.83491">
        <ele>269</ele>
        <time>2016-09-14T08:47:32Z</time>
      </trkpt>
      <trkpt lat="45.98403" lon="4.83497">
        <ele>269</ele>
        <time>2016-09-14T08:47:33Z</time>
      </trkpt>
      <trkpt lat="45.98399" lon="4.83502">
        <ele>269</ele>
        <time>2016-09-14T08:47:34Z</time>
      </trkpt>
      <trkpt lat="45.98396" lon="4.83507">
        <ele>269</ele>
        <time>2016-09-14T08:47:35Z</time>
      </trkpt>
      <trkpt lat="45.9839" lon="4.83515">
        <ele>269</ele>
        <time>2016-09-14T08:47:37Z</time>
      </trkpt>
      <trkpt lat="45.98387" lon="4.83519">
        <ele>269</ele>
        <time>2016-09-14T08:47:38Z</time>
      </trkpt>
      <trkpt lat="45.98381" lon="4.83526">
        <ele>269</ele>
        <time>2016-09-14T08:47:40Z</time>
      </trkpt>
      <trkpt lat="45.98378" lon="4.8353">
        <ele>269</ele>
        <time>2016-09-14T08:47:41Z</time>
      </trkpt>
      <trkpt lat="45.98372" lon="4.83539">
        <ele>269</ele>
        <time>2016-09-14T08:47:43Z</time>
      </trkpt>
      <trkpt lat="45.98368" lon="4.83544">
        <ele>269</ele>
        <time>2016-09-14T08:47:44Z</time>
      </trkpt>
      <trkpt lat="45.98364" lon="4.83549">
        <ele>269</ele>
        <time>2016-09-14T08:47:45Z</time>
      </trkpt>
      <trkpt lat="45.9836" lon="4.83554">
        <ele>269</ele>
        <time>2016-09-14T08:47:46Z</time>
      </trkpt>
      <trkpt lat="45.98357" lon="4.83559">
        <ele>269</ele>
        <time>2016-09-14T08:47:47Z</time>
      </trkpt>
      <trkpt lat="45.98353" lon="4.83563">
        <ele>269</ele>
        <time>2016-09-14T08:47:48Z</time>
      </trkpt>
      <trkpt lat="45.98347" lon="4.83572">
        <ele>269</ele>
        <time>2016-09-14T08:47:50Z</time>
      </trkpt>
      <trkpt lat="45.98344" lon="4.83577">
        <ele>270</ele>
        <time>2016-09-14T08:47:51Z</time>
      </trkpt>
      <trkpt lat="45.98341" lon="4.83581">
        <ele>270</ele>
        <time>2016-09-14T08:47:52Z</time>
      </trkpt>
      <trkpt lat="45.98338" lon="4.83586">
        <ele>270</ele>
        <time>2016-09-14T08:47:53Z</time>
      </trkpt>
      <trkpt lat="45.98334" lon="4.8359">
        <ele>270</ele>
        <time>2016-09-14T08:47:54Z</time>
      </trkpt>
      <trkpt lat="45.98331" lon="4.83594">
        <ele>270</ele>
        <time>2016-09-14T08:47:55Z</time>
      </trkpt>
      <trkpt lat="45.98324" lon="4.83602">
        <ele>271</ele>
        <time>2016-09-14T08:47:57Z</time>
      </trkpt>
      <trkpt lat="45.98322" lon="4.83606">
        <ele>271</ele>
        <time>2016-09-14T08:47:58Z</time>
      </trkpt>
      <trkpt lat="45.98316" lon="4.83615">
        <ele>271</ele>
        <time>2016-09-14T08:48:00Z</time>
      </trkpt>
      <trkpt lat="45.98314" lon="4.83619">
        <ele>271</ele>
        <time>2016-09-14T08:48:01Z</time>
      </trkpt>
      <trkpt lat="45.98308" lon="4.83628">
        <ele>271</ele>
        <time>2016-09-14T08:48:03Z</time>
      </trkpt>
      <trkpt lat="45.98305" lon="4.83633">
        <ele>271</ele>
        <time>2016-09-14T08:48:04Z</time>
      </trkpt>
      <trkpt lat="45.983" lon="4.83644">
        <ele>271</ele>
        <time>2016-09-14T08:48:06Z</time>
      </trkpt>
      <trkpt lat="45.98298" lon="4.83649">
        <ele>271</ele>
        <time>2016-09-14T08:48:07Z</time>
      </trkpt>
      <trkpt lat="45.98295" lon="4.83655">
        <ele>271</ele>
        <time>2016-09-14T08:48:08Z</time>
      </trkpt>
      <trkpt lat="45.98293" lon="4.83661">
        <ele>271</ele>
        <time>2016-09-14T08:48:09Z</time>
      </trkpt>
      <trkpt lat="45.98291" lon="4.83667">
        <ele>272</ele>
        <time>2016-09-14T08:48:10Z</time>
      </trkpt>
      <trkpt lat="45.98288" lon="4.83673">
        <ele>272</ele>
        <time>2016-09-14T08:48:11Z</time>
      </trkpt>
      <trkpt lat="45.98284" lon="4.83683">
        <ele>272</ele>
        <time>2016-09-14T08:48:13Z</time>
      </trkpt>
      <trkpt lat="45.98282" lon="4.83688">
        <ele>272</ele>
        <time>2016-09-14T08:48:14Z</time>
      </trkpt>
      <trkpt lat="45.98278" lon="4.837">
        <ele>272</ele>
        <time>2016-09-14T08:48:16Z</time>
      </trkpt>
      <trkpt lat="45.98276" lon="4.83705">
        <ele>272</ele>
        <time>2016-09-14T08:48:17Z</time>
      </trkpt>
      <trkpt lat="45.98272" lon="4.83716">
        <ele>272</ele>
        <time>2016-09-14T08:48:19Z</time>
      </trkpt>
      <trkpt lat="45.98271" lon="4.83722">
        <ele>272</ele>
        <time>2016-09-14T08:48:20Z</time>
      </trkpt>
      <trkpt lat="45.98267" lon="4.83734">
        <ele>272</ele>
        <time>2016-09-14T08:48:22Z</time>
      </trkpt>
      <trkpt lat="45.98265" lon="4.8374">
        <ele>272</ele>
        <time>2016-09-14T08:48:23Z</time>
      </trkpt>
      <trkpt lat="45.98263" lon="4.83746">
        <ele>272</ele>
        <time>2016-09-14T08:48:24Z</time>
      </trkpt>
      <trkpt lat="45.98261" lon="4.83752">
        <ele>272</ele>
        <time>2016-09-14T08:48:25Z</time>
      </trkpt>
      <trkpt lat="45.98259" lon="4.83758">
        <ele>272</ele>
        <time>2016-09-14T08:48:26Z</time>
      </trkpt>
      <trkpt lat="45.98257" lon="4.83765">
        <ele>272</ele>
        <time>2016-09-14T08:48:27Z</time>
      </trkpt>
      <trkpt lat="45.98255" lon="4.83771">
        <ele>272</ele>
        <time>2016-09-14T08:48:28Z</time>
      </trkpt>
      <trkpt lat="45.98252" lon="4.83777">
        <ele>272</ele>
        <time>2016-09-14T08:48:29Z</time>
      </trkpt>
      <trkpt lat="45.9825" lon="4.83784">
        <ele>272</ele>
        <time>2016-09-14T08:48:30Z</time>
      </trkpt>
      <trkpt lat="45.98248" lon="4.8379">
        <ele>272</ele>
        <time>2016-09-14T08:48:31Z</time>
      </trkpt>
      <trkpt lat="45.98246" lon="4.83796">
        <ele>272</ele>
        <time>2016-09-14T08:48:32Z</time>
      </trkpt>
      <trkpt lat="45.98244" lon="4.83802">
        <ele>272</ele>
        <time>2016-09-14T08:48:33Z</time>
      </trkpt>
      <trkpt lat="45.9824" lon="4.83812">
        <ele>272</ele>
        <time>2016-09-14T08:48:35Z</time>
      </trkpt>
      <trkpt lat="45.98238" lon="4.83817">
        <ele>272</ele>
        <time>2016-09-14T08:48:36Z</time>
      </trkpt>
      <trkpt lat="45.98234" lon="4.83828">
        <ele>272</ele>
        <time>2016-09-14T08:48:38Z</time>
      </trkpt>
      <trkpt lat="45.98232" lon="4.83835">
        <ele>272</ele>
        <time>2016-09-14T08:48:39Z</time>
      </trkpt>
      <trkpt lat="45.9823" lon="4.83841">
        <ele>272</ele>
        <time>2016-09-14T08:48:40Z</time>
      </trkpt>
      <trkpt lat="45.98228" lon="4.83847">
        <ele>272</ele>
        <time>2016-09-14T08:48:41Z</time>
      </trkpt>
      <trkpt lat="45.98224" lon="4.83858">
        <ele>272</ele>
        <time>2016-09-14T08:48:43Z</time>
      </trkpt>
      <trkpt lat="45.98222" lon="4.83863">
        <ele>272</ele>
        <time>2016-09-14T08:48:44Z</time>
      </trkpt>
      <trkpt lat="45.98219" lon="4.83874">
        <ele>272</ele>
        <time>2016-09-14T08:48:46Z</time>
      </trkpt>
      <trkpt lat="45.98217" lon="4.83879">
        <ele>272</ele>
        <time>2016-09-14T08:48:47Z</time>
      </trkpt>
      <trkpt lat="45.98213" lon="4.8389">
        <ele>273</ele>
        <time>2016-09-14T08:48:49Z</time>
      </trkpt>
      <trkpt lat="45.98211" lon="4.83895">
        <ele>273</ele>
        <time>2016-09-14T08:48:50Z</time>
      </trkpt>
      <trkpt lat="45.98206" lon="4.83906">
        <ele>273</ele>
        <time>2016-09-14T08:48:52Z</time>
      </trkpt>
      <trkpt lat="45.98204" lon="4.83912">
        <ele>273</ele>
        <time>2016-09-14T08:48:53Z</time>
      </trkpt>
      <trkpt lat="45.98202" lon="4.83918">
        <ele>273</ele>
        <time>2016-09-14T08:48:54Z</time>
      </trkpt>
      <trkpt lat="45.982" lon="4.83924">
        <ele>273</ele>
        <time>2016-09-14T08:48:55Z</time>
      </trkpt>
      <trkpt lat="45.98198" lon="4.8393">
        <ele>273</ele>
        <time>2016-09-14T08:48:56Z</time>
      </trkpt>
      <trkpt lat="45.98196" lon="4.83936">
        <ele>273</ele>
        <time>2016-09-14T08:48:57Z</time>
      </trkpt>
      <trkpt lat="45.98193" lon="4.83942">
        <ele>273</ele>
        <time>2016-09-14T08:48:58Z</time>
      </trkpt>
      <trkpt lat="45.98191" lon="4.83949">
        <ele>273</ele>
        <time>2016-09-14T08:48:59Z</time>
      </trkpt>
      <trkpt lat="45.98189" lon="4.83955">
        <ele>273</ele>
        <time>2016-09-14T08:49:00Z</time>
      </trkpt>
      <trkpt lat="45.98187" lon="4.83961">
        <ele>273</ele>
        <time>2016-09-14T08:49:01Z</time>
      </trkpt>
      <trkpt lat="45.98185" lon="4.83967">
        <ele>273</ele>
        <time>2016-09-14T08:49:02Z</time>
      </trkpt>
      <trkpt lat="45.98183" lon="4.83973">
        <ele>273</ele>
        <time>2016-09-14T08:49:03Z</time>
      </trkpt>
      <trkpt lat="45.98181" lon="4.83979">
        <ele>273</ele>
        <time>2016-09-14T08:49:04Z</time>
      </trkpt>
      <trkpt lat="45.98179" lon="4.83985">
        <ele>273</ele>
        <time>2016-09-14T08:49:05Z</time>
      </trkpt>
      <trkpt lat="45.98176" lon="4.83991">
        <ele>273</ele>
        <time>2016-09-14T08:49:06Z</time>
      </trkpt>
      <trkpt lat="45.98174" lon="4.83996">
        <ele>273</ele>
        <time>2016-09-14T08:49:07Z</time>
      </trkpt>
      <trkpt lat="45.98171" lon="4.84002">
        <ele>273</ele>
        <time>2016-09-14T08:49:08Z</time>
      </trkpt>
      <trkpt lat="45.98168" lon="4.84008">
        <ele>273</ele>
        <time>2016-09-14T08:49:09Z</time>
      </trkpt>
      <trkpt lat="45.98166" lon="4.84014">
        <ele>273</ele>
        <time>2016-09-14T08:49:10Z</time>
      </trkpt>
      <trkpt lat="45.98163" lon="4.8402">
        <ele>273</ele>
        <time>2016-09-14T08:49:11Z</time>
      </trkpt>
      <trkpt lat="45.9816" lon="4.84025">
        <ele>273</ele>
        <time>2016-09-14T08:49:12Z</time>
      </trkpt>
      <trkpt lat="45.98156" lon="4.84031">
        <ele>273</ele>
        <time>2016-09-14T08:49:13Z</time>
      </trkpt>
      <trkpt lat="45.98153" lon="4.84036">
        <ele>273</ele>
        <time>2016-09-14T08:49:14Z</time>
      </trkpt>
      <trkpt lat="45.9815" lon="4.84042">
        <ele>273</ele>
        <time>2016-09-14T08:49:15Z</time>
      </trkpt>
      <trkpt lat="45.98146" lon="4.84047">
        <ele>273</ele>
        <time>2016-09-14T08:49:16Z</time>
      </trkpt>
      <trkpt lat="45.98143" lon="4.84052">
        <ele>273</ele>
        <time>2016-09-14T08:49:17Z</time>
      </trkpt>
      <trkpt lat="45.98137" lon="4.8406">
        <ele>273</ele>
        <time>2016-09-14T08:49:19Z</time>
      </trkpt>
      <trkpt lat="45.98133" lon="4.84064">
        <ele>273</ele>
        <time>2016-09-14T08:49:20Z</time>
      </trkpt>
      <trkpt lat="45.98127" lon="4.84071">
        <ele>273</ele>
        <time>2016-09-14T08:49:22Z</time>
      </trkpt>
      <trkpt lat="45.98124" lon="4.84075">
        <ele>273</ele>
        <time>2016-09-14T08:49:23Z</time>
      </trkpt>
      <trkpt lat="45.98118" lon="4.84083">
        <ele>273</ele>
        <time>2016-09-14T08:49:25Z</time>
      </trkpt>
      <trkpt lat="45.98114" lon="4.84087">
        <ele>273</ele>
        <time>2016-09-14T08:49:26Z</time>
      </trkpt>
      <trkpt lat="45.9811" lon="4.84091">
        <ele>273</ele>
        <time>2016-09-14T08:49:27Z</time>
      </trkpt>
      <trkpt lat="45.98106" lon="4.84095">
        <ele>273</ele>
        <time>2016-09-14T08:49:28Z</time>
      </trkpt>
      <trkpt lat="45.98101" lon="4.84099">
        <ele>273</ele>
        <time>2016-09-14T08:49:29Z</time>
      </trkpt>
      <trkpt lat="45.98097" lon="4.84103">
        <ele>273</ele>
        <time>2016-09-14T08:49:30Z</time>
      </trkpt>
      <trkpt lat="45.98093" lon="4.84107">
        <ele>273</ele>
        <time>2016-09-14T08:49:31Z</time>
      </trkpt>
      <trkpt lat="45.98089" lon="4.84112">
        <ele>273</ele>
        <time>2016-09-14T08:49:32Z</time>
      </trkpt>
      <trkpt lat="45.98085" lon="4.84116">
        <ele>273</ele>
        <time>2016-09-14T08:49:33Z</time>
      </trkpt>
      <trkpt lat="45.98081" lon="4.8412">
        <ele>273</ele>
        <time>2016-09-14T08:49:34Z</time>
      </trkpt>
      <trkpt lat="45.98077" lon="4.84124">
        <ele>273</ele>
        <time>2016-09-14T08:49:35Z</time>
      </trkpt>
      <trkpt lat="45.98072" lon="4.84128">
        <ele>273</ele>
        <time>2016-09-14T08:49:36Z</time>
      </trkpt>
      <trkpt lat="45.98068" lon="4.84131">
        <ele>273</ele>
        <time>2016-09-14T08:49:37Z</time>
      </trkpt>
      <trkpt lat="45.98063" lon="4.84135">
        <ele>273</ele>
        <time>2016-09-14T08:49:38Z</time>
      </trkpt>
      <trkpt lat="45.98059" lon="4.84139">
        <ele>273</ele>
        <time>2016-09-14T08:49:39Z</time>
      </trkpt>
      <trkpt lat="45.98055" lon="4.84143">
        <ele>273</ele>
        <time>2016-09-14T08:49:40Z</time>
      </trkpt>
      <trkpt lat="45.98051" lon="4.84147">
        <ele>273</ele>
        <time>2016-09-14T08:49:41Z</time>
      </trkpt>
      <trkpt lat="45.98048" lon="4.84151">
        <ele>273</ele>
        <time>2016-09-14T08:49:42Z</time>
      </trkpt>
      <trkpt lat="45.98044" lon="4.84155">
        <ele>273</ele>
        <time>2016-09-14T08:49:43Z</time>
      </trkpt>
      <trkpt lat="45.9804" lon="4.8416">
        <ele>273</ele>
        <time>2016-09-14T08:49:44Z</time>
      </trkpt>
      <trkpt lat="45.98036" lon="4.84165">
        <ele>273</ele>
        <time>2016-09-14T08:49:45Z</time>
      </trkpt>
      <trkpt lat="45.98032" lon="4.84169">
        <ele>273</ele>
        <time>2016-09-14T08:49:46Z</time>
      </trkpt>
      <trkpt lat="45.98027" lon="4.84173">
        <ele>274</ele>
        <time>2016-09-14T08:49:47Z</time>
      </trkpt>
      <trkpt lat="45.98023" lon="4.84177">
        <ele>274</ele>
        <time>2016-09-14T08:49:48Z</time>
      </trkpt>
      <trkpt lat="45.98018" lon="4.84181">
        <ele>274</ele>
        <time>2016-09-14T08:49:49Z</time>
      </trkpt>
      <trkpt lat="45.98014" lon="4.84186">
        <ele>274</ele>
        <time>2016-09-14T08:49:50Z</time>
      </trkpt>
      <trkpt lat="45.98009" lon="4.84191">
        <ele>274</ele>
        <time>2016-09-14T08:49:51Z</time>
      </trkpt>
      <trkpt lat="45.98005" lon="4.84195">
        <ele>274</ele>
        <time>2016-09-14T08:49:52Z</time>
      </trkpt>
      <trkpt lat="45.98" lon="4.84199">
        <ele>274</ele>
        <time>2016-09-14T08:49:53Z</time>
      </trkpt>
      <trkpt lat="45.97996" lon="4.84203">
        <ele>274</ele>
        <time>2016-09-14T08:49:54Z</time>
      </trkpt>
      <trkpt lat="45.97991" lon="4.84207">
        <ele>274</ele>
        <time>2016-09-14T08:49:55Z</time>
      </trkpt>
      <trkpt lat="45.97987" lon="4.84211">
        <ele>274</ele>
        <time>2016-09-14T08:49:56Z</time>
      </trkpt>
      <trkpt lat="45.97982" lon="4.84216">
        <ele>274</ele>
        <time>2016-09-14T08:49:57Z</time>
      </trkpt>
      <trkpt lat="45.97978" lon="4.8422">
        <ele>274</ele>
        <time>2016-09-14T08:49:58Z</time>
      </trkpt>
      <trkpt lat="45.97974" lon="4.84224">
        <ele>274</ele>
        <time>2016-09-14T08:49:59Z</time>
      </trkpt>
      <trkpt lat="45.9797" lon="4.84227">
        <ele>274</ele>
        <time>2016-09-14T08:50:00Z</time>
      </trkpt>
      <trkpt lat="45.97966" lon="4.84231">
        <ele>274</ele>
        <time>2016-09-14T08:50:01Z</time>
      </trkpt>
      <trkpt lat="45.97962" lon="4.84234">
        <ele>274</ele>
        <time>2016-09-14T08:50:02Z</time>
      </trkpt>
      <trkpt lat="45.97957" lon="4.84238">
        <ele>275</ele>
        <time>2016-09-14T08:50:03Z</time>
      </trkpt>
      <trkpt lat="45.97953" lon="4.84242">
        <ele>275</ele>
        <time>2016-09-14T08:50:04Z</time>
      </trkpt>
      <trkpt lat="45.97949" lon="4.84246">
        <ele>275</ele>
        <time>2016-09-14T08:50:05Z</time>
      </trkpt>
      <trkpt lat="45.97945" lon="4.8425">
        <ele>275</ele>
        <time>2016-09-14T08:50:06Z</time>
      </trkpt>
      <trkpt lat="45.9794" lon="4.84255">
        <ele>275</ele>
        <time>2016-09-14T08:50:07Z</time>
      </trkpt>
      <trkpt lat="45.97936" lon="4.84259">
        <ele>275</ele>
        <time>2016-09-14T08:50:08Z</time>
      </trkpt>
      <trkpt lat="45.97931" lon="4.84264">
        <ele>275</ele>
        <time>2016-09-14T08:50:09Z</time>
      </trkpt>
      <trkpt lat="45.97927" lon="4.84268">
        <ele>275</ele>
        <time>2016-09-14T08:50:10Z</time>
      </trkpt>
      <trkpt lat="45.97924" lon="4.84274">
        <ele>275</ele>
        <time>2016-09-14T08:50:11Z</time>
      </trkpt>
      <trkpt lat="45.97922" lon="4.84279">
        <ele>275</ele>
        <time>2016-09-14T08:50:12Z</time>
      </trkpt>
      <trkpt lat="45.9792" lon="4.8429">
        <ele>275</ele>
        <time>2016-09-14T08:50:14Z</time>
      </trkpt>
      <trkpt lat="45.97921" lon="4.84295">
        <ele>275</ele>
        <time>2016-09-14T08:50:15Z</time>
      </trkpt>
      <trkpt lat="45.97924" lon="4.84307">
        <ele>275</ele>
        <time>2016-09-14T08:50:17Z</time>
      </trkpt>
      <trkpt lat="45.97925" lon="4.84313">
        <ele>275</ele>
        <time>2016-09-14T08:50:18Z</time>
      </trkpt>
      <trkpt lat="45.97927" lon="4.84324">
        <ele>275</ele>
        <time>2016-09-14T08:50:20Z</time>
      </trkpt>
      <trkpt lat="45.97928" lon="4.8433">
        <ele>275</ele>
        <time>2016-09-14T08:50:21Z</time>
      </trkpt>
      <trkpt lat="45.97929" lon="4.84337">
        <ele>275</ele>
        <time>2016-09-14T08:50:22Z</time>
      </trkpt>
      <trkpt lat="45.9793" lon="4.84344">
        <ele>275</ele>
        <time>2016-09-14T08:50:23Z</time>
      </trkpt>
      <trkpt lat="45.97931" lon="4.8435">
        <ele>275</ele>
        <time>2016-09-14T08:50:24Z</time>
      </trkpt>
      <trkpt lat="45.97932" lon="4.84357">
        <ele>275</ele>
        <time>2016-09-14T08:50:25Z</time>
      </trkpt>
      <trkpt lat="45.97933" lon="4.84364">
        <ele>275</ele>
        <time>2016-09-14T08:50:26Z</time>
      </trkpt>
      <trkpt lat="45.97934" lon="4.84372">
        <ele>275</ele>
        <time>2016-09-14T08:50:27Z</time>
      </trkpt>
      <trkpt lat="45.97935" lon="4.84379">
        <ele>275</ele>
        <time>2016-09-14T08:50:28Z</time>
      </trkpt>
      <trkpt lat="45.97936" lon="4.84386">
        <ele>275</ele>
        <time>2016-09-14T08:50:29Z</time>
      </trkpt>
      <trkpt lat="45.97937" lon="4.84393">
        <ele>275</ele>
        <time>2016-09-14T08:50:30Z</time>
      </trkpt>
      <trkpt lat="45.97938" lon="4.844">
        <ele>275</ele>
        <time>2016-09-14T08:50:31Z</time>
      </trkpt>
      <trkpt lat="45.97939" lon="4.84407">
        <ele>275</ele>
        <time>2016-09-14T08:50:32Z</time>
      </trkpt>
      <trkpt lat="45.9794" lon="4.84414">
        <ele>275</ele>
        <time>2016-09-14T08:50:33Z</time>
      </trkpt>
      <trkpt lat="45.97941" lon="4.84421">
        <ele>275</ele>
        <time>2016-09-14T08:50:34Z</time>
      </trkpt>
      <trkpt lat="45.97942" lon="4.84428">
        <ele>275</ele>
        <time>2016-09-14T08:50:35Z</time>
      </trkpt>
      <trkpt lat="45.97944" lon="4.84436">
        <ele>275</ele>
        <time>2016-09-14T08:50:36Z</time>
      </trkpt>
      <trkpt lat="45.97945" lon="4.84443">
        <ele>275</ele>
        <time>2016-09-14T08:50:37Z</time>
      </trkpt>
      <trkpt lat="45.97946" lon="4.84451">
        <ele>275</ele>
        <time>2016-09-14T08:50:38Z</time>
      </trkpt>
      <trkpt lat="45.97947" lon="4.84459">
        <ele>275</ele>
        <time>2016-09-14T08:50:39Z</time>
      </trkpt>
      <trkpt lat="45.97948" lon="4.84466">
        <ele>275</ele>
        <time>2016-09-14T08:50:40Z</time>
      </trkpt>
      <trkpt lat="45.9795" lon="4.84474">
        <ele>275</ele>
        <time>2016-09-14T08:50:41Z</time>
      </trkpt>
      <trkpt lat="45.97951" lon="4.84482">
        <ele>275</ele>
        <time>2016-09-14T08:50:42Z</time>
      </trkpt>
      <trkpt lat="45.97952" lon="4.84489">
        <ele>275</ele>
        <time>2016-09-14T08:50:43Z</time>
      </trkpt>
      <trkpt lat="45.97953" lon="4.84496">
        <ele>275</ele>
        <time>2016-09-14T08:50:44Z</time>
      </trkpt>
      <trkpt lat="45.97955" lon="4.84504">
        <ele>275</ele>
        <time>2016-09-14T08:50:45Z</time>
      </trkpt>
      <trkpt lat="45.97956" lon="4.8451">
        <ele>275</ele>
        <time>2016-09-14T08:50:46Z</time>
      </trkpt>
      <trkpt lat="45.97957" lon="4.84517">
        <ele>275</ele>
        <time>2016-09-14T08:50:47Z</time>
      </trkpt>
      <trkpt lat="45.97959" lon="4.84524">
        <ele>275</ele>
        <time>2016-09-14T08:50:48Z</time>
      </trkpt>
      <trkpt lat="45.9796" lon="4.84532">
        <ele>275</ele>
        <time>2016-09-14T08:50:49Z</time>
      </trkpt>
      <trkpt lat="45.97961" lon="4.84539">
        <ele>275</ele>
        <time>2016-09-14T08:50:50Z</time>
      </trkpt>
      <trkpt lat="45.97962" lon="4.84546">
        <ele>275</ele>
        <time>2016-09-14T08:50:51Z</time>
      </trkpt>
      <trkpt lat="45.97963" lon="4.84553">
        <ele>275</ele>
        <time>2016-09-14T08:50:52Z</time>
      </trkpt>
      <trkpt lat="45.97965" lon="4.84561">
        <ele>275</ele>
        <time>2016-09-14T08:50:53Z</time>
      </trkpt>
      <trkpt lat="45.97966" lon="4.84569">
        <ele>275</ele>
        <time>2016-09-14T08:50:54Z</time>
      </trkpt>
      <trkpt lat="45.97967" lon="4.84576">
        <ele>275</ele>
        <time>2016-09-14T08:50:55Z</time>
      </trkpt>
      <trkpt lat="45.97968" lon="4.84584">
        <ele>275</ele>
        <time>2016-09-14T08:50:56Z</time>
      </trkpt>
      <trkpt lat="45.9797" lon="4.84592">
        <ele>275</ele>
        <time>2016-09-14T08:50:57Z</time>
      </trkpt>
      <trkpt lat="45.97971" lon="4.846">
        <ele>275</ele>
        <time>2016-09-14T08:50:58Z</time>
      </trkpt>
      <trkpt lat="45.97972" lon="4.84608">
        <ele>275</ele>
        <time>2016-09-14T08:50:59Z</time>
      </trkpt>
      <trkpt lat="45.97974" lon="4.84617">
        <ele>275</ele>
        <time>2016-09-14T08:51:00Z</time>
      </trkpt>
      <trkpt lat="45.97975" lon="4.84625">
        <ele>275</ele>
        <time>2016-09-14T08:51:01Z</time>
      </trkpt>
      <trkpt lat="45.97977" lon="4.84633">
        <ele>275</ele>
        <time>2016-09-14T08:51:02Z</time>
      </trkpt>
      <trkpt lat="45.97978" lon="4.8464">
        <ele>275</ele>
        <time>2016-09-14T08:51:03Z</time>
      </trkpt>
      <trkpt lat="45.97979" lon="4.84648">
        <ele>275</ele>
        <time>2016-09-14T08:51:04Z</time>
      </trkpt>
      <trkpt lat="45.97981" lon="4.84655">
        <ele>274</ele>
        <time>2016-09-14T08:51:05Z</time>
      </trkpt>
      <trkpt lat="45.97982" lon="4.84662">
        <ele>274</ele>
        <time>2016-09-14T08:51:06Z</time>
      </trkpt>
      <trkpt lat="45.97983" lon="4.8467">
        <ele>275</ele>
        <time>2016-09-14T08:51:07Z</time>
      </trkpt>
      <trkpt lat="45.97984" lon="4.84677">
        <ele>275</ele>
        <time>2016-09-14T08:51:08Z</time>
      </trkpt>
      <trkpt lat="45.97985" lon="4.84684">
        <ele>275</ele>
        <time>2016-09-14T08:51:09Z</time>
      </trkpt>
      <trkpt lat="45.97986" lon="4.84692">
        <ele>275</ele>
        <time>2016-09-14T08:51:10Z</time>
      </trkpt>
      <trkpt lat="45.97987" lon="4.847">
        <ele>275</ele>
        <time>2016-09-14T08:51:11Z</time>
      </trkpt>
      <trkpt lat="45.97988" lon="4.84707">
        <ele>275</ele>
        <time>2016-09-14T08:51:12Z</time>
      </trkpt>
      <trkpt lat="45.97989" lon="4.84714">
        <ele>275</ele>
        <time>2016-09-14T08:51:13Z</time>
      </trkpt>
      <trkpt lat="45.97989" lon="4.84721">
        <ele>275</ele>
        <time>2016-09-14T08:51:14Z</time>
      </trkpt>
      <trkpt lat="45.9799" lon="4.84728">
        <ele>275</ele>
        <time>2016-09-14T08:51:15Z</time>
      </trkpt>
      <trkpt lat="45.97991" lon="4.84741">
        <ele>275</ele>
        <time>2016-09-14T08:51:17Z</time>
      </trkpt>
      <trkpt lat="45.9799" lon="4.84748">
        <ele>275</ele>
        <time>2016-09-14T08:51:18Z</time>
      </trkpt>
      <trkpt lat="45.9799" lon="4.84754">
        <ele>275</ele>
        <time>2016-09-14T08:51:19Z</time>
      </trkpt>
      <trkpt lat="45.9799" lon="4.84761">
        <ele>275</ele>
        <time>2016-09-14T08:51:20Z</time>
      </trkpt>
      <trkpt lat="45.97991" lon="4.84768">
        <ele>275</ele>
        <time>2016-09-14T08:51:21Z</time>
      </trkpt>
      <trkpt lat="45.97991" lon="4.84775">
        <ele>274</ele>
        <time>2016-09-14T08:51:22Z</time>
      </trkpt>
      <trkpt lat="45.97992" lon="4.84782">
        <ele>274</ele>
        <time>2016-09-14T08:51:23Z</time>
      </trkpt>
      <trkpt lat="45.97991" lon="4.8479">
        <ele>274</ele>
        <time>2016-09-14T08:51:24Z</time>
      </trkpt>
      <trkpt lat="45.97992" lon="4.84797">
        <ele>274</ele>
        <time>2016-09-14T08:51:25Z</time>
      </trkpt>
      <trkpt lat="45.97992" lon="4.84804">
        <ele>274</ele>
        <time>2016-09-14T08:51:26Z</time>
      </trkpt>
      <trkpt lat="45.97992" lon="4.84812">
        <ele>273</ele>
        <time>2016-09-14T08:51:27Z</time>
      </trkpt>
      <trkpt lat="45.97993" lon="4.8482">
        <ele>273</ele>
        <time>2016-09-14T08:51:28Z</time>
      </trkpt>
      <trkpt lat="45.97994" lon="4.84828">
        <ele>273</ele>
        <time>2016-09-14T08:51:29Z</time>
      </trkpt>
      <trkpt lat="45.97994" lon="4.84836">
        <ele>272</ele>
        <time>2016-09-14T08:51:30Z</time>
      </trkpt>
      <trkpt lat="45.97995" lon="4.84843">
        <ele>272</ele>
        <time>2016-09-14T08:51:31Z</time>
      </trkpt>
      <trkpt lat="45.97995" lon="4.84851">
        <ele>272</ele>
        <time>2016-09-14T08:51:32Z</time>
      </trkpt>
      <trkpt lat="45.97996" lon="4.84858">
        <ele>272</ele>
        <time>2016-09-14T08:51:33Z</time>
      </trkpt>
      <trkpt lat="45.97997" lon="4.84865">
        <ele>272</ele>
        <time>2016-09-14T08:51:34Z</time>
      </trkpt>
      <trkpt lat="45.97997" lon="4.84873">
        <ele>272</ele>
        <time>2016-09-14T08:51:35Z</time>
      </trkpt>
      <trkpt lat="45.97998" lon="4.84881">
        <ele>272</ele>
        <time>2016-09-14T08:51:36Z</time>
      </trkpt>
      <trkpt lat="45.97999" lon="4.84889">
        <ele>272</ele>
        <time>2016-09-14T08:51:37Z</time>
      </trkpt>
      <trkpt lat="45.98" lon="4.84897">
        <ele>272</ele>
        <time>2016-09-14T08:51:38Z</time>
      </trkpt>
      <trkpt lat="45.98001" lon="4.84905">
        <ele>272</ele>
        <time>2016-09-14T08:51:39Z</time>
      </trkpt>
      <trkpt lat="45.98002" lon="4.84912">
        <ele>272</ele>
        <time>2016-09-14T08:51:40Z</time>
      </trkpt>
      <trkpt lat="45.98003" lon="4.8492">
        <ele>272</ele>
        <time>2016-09-14T08:51:41Z</time>
      </trkpt>
      <trkpt lat="45.98004" lon="4.84928">
        <ele>272</ele>
        <time>2016-09-14T08:51:42Z</time>
      </trkpt>
      <trkpt lat="45.98004" lon="4.84936">
        <ele>272</ele>
        <time>2016-09-14T08:51:43Z</time>
      </trkpt>
      <trkpt lat="45.98005" lon="4.84943">
        <ele>272</ele>
        <time>2016-09-14T08:51:44Z</time>
      </trkpt>
      <trkpt lat="45.98005" lon="4.84951">
        <ele>272</ele>
        <time>2016-09-14T08:51:45Z</time>
      </trkpt>
      <trkpt lat="45.98006" lon="4.84958">
        <ele>272</ele>
        <time>2016-09-14T08:51:46Z</time>
      </trkpt>
      <trkpt lat="45.98007" lon="4.84966">
        <ele>272</ele>
        <time>2016-09-14T08:51:47Z</time>
      </trkpt>
      <trkpt lat="45.98008" lon="4.84973">
        <ele>272</ele>
        <time>2016-09-14T08:51:48Z</time>
      </trkpt>
      <trkpt lat="45.98008" lon="4.8498">
        <ele>272</ele>
        <time>2016-09-14T08:51:49Z</time>
      </trkpt>
      <trkpt lat="45.98009" lon="4.84987">
        <ele>272</ele>
        <time>2016-09-14T08:51:50Z</time>
      </trkpt>
      <trkpt lat="45.98009" lon="4.84994">
        <ele>272</ele>
        <time>2016-09-14T08:51:51Z</time>
      </trkpt>
      <trkpt lat="45.9801" lon="4.85002">
        <ele>272</ele>
        <time>2016-09-14T08:51:52Z</time>
      </trkpt>
      <trkpt lat="45.9801" lon="4.8501">
        <ele>272</ele>
        <time>2016-09-14T08:51:53Z</time>
      </trkpt>
      <trkpt lat="45.98011" lon="4.85019">
        <ele>273</ele>
        <time>2016-09-14T08:51:54Z</time>
      </trkpt>
      <trkpt lat="45.98012" lon="4.85028">
        <ele>273</ele>
        <time>2016-09-14T08:51:55Z</time>
      </trkpt>
      <trkpt lat="45.98012" lon="4.85037">
        <ele>273</ele>
        <time>2016-09-14T08:51:56Z</time>
      </trkpt>
      <trkpt lat="45.98012" lon="4.85045">
        <ele>273</ele>
        <time>2016-09-14T08:51:57Z</time>
      </trkpt>
      <trkpt lat="45.98012" lon="4.85054">
        <ele>273</ele>
        <time>2016-09-14T08:51:58Z</time>
      </trkpt>
      <trkpt lat="45.98012" lon="4.85062">
        <ele>273</ele>
        <time>2016-09-14T08:51:59Z</time>
      </trkpt>
      <trkpt lat="45.98012" lon="4.8507">
        <ele>273</ele>
        <time>2016-09-14T08:52:00Z</time>
      </trkpt>
      <trkpt lat="45.98012" lon="4.85078">
        <ele>273</ele>
        <time>2016-09-14T08:52:01Z</time>
      </trkpt>
      <trkpt lat="45.98013" lon="4.85086">
        <ele>274</ele>
        <time>2016-09-14T08:52:02Z</time>
      </trkpt>
      <trkpt lat="45.98014" lon="4.85094">
        <ele>274</ele>
        <time>2016-09-14T08:52:03Z</time>
      </trkpt>
      <trkpt lat="45.98016" lon="4.85101">
        <ele>274</ele>
        <time>2016-09-14T08:52:04Z</time>
      </trkpt>
      <trkpt lat="45.98017" lon="4.85109">
        <ele>274</ele>
        <time>2016-09-14T08:52:05Z</time>
      </trkpt>
      <trkpt lat="45.9802" lon="4.85116">
        <ele>274</ele>
        <time>2016-09-14T08:52:06Z</time>
      </trkpt>
      <trkpt lat="45.98022" lon="4.85123">
        <ele>274</ele>
        <time>2016-09-14T08:52:07Z</time>
      </trkpt>
      <trkpt lat="45.98024" lon="4.85131">
        <ele>274</ele>
        <time>2016-09-14T08:52:08Z</time>
      </trkpt>
      <trkpt lat="45.98026" lon="4.85138">
        <ele>275</ele>
        <time>2016-09-14T08:52:09Z</time>
      </trkpt>
      <trkpt lat="45.98028" lon="4.85145">
        <ele>275</ele>
        <time>2016-09-14T08:52:10Z</time>
      </trkpt>
      <trkpt lat="45.9803" lon="4.85152">
        <ele>275</ele>
        <time>2016-09-14T08:52:11Z</time>
      </trkpt>
      <trkpt lat="45.98033" lon="4.85158">
        <ele>275</ele>
        <time>2016-09-14T08:52:12Z</time>
      </trkpt>
      <trkpt lat="45.98035" lon="4.85165">
        <ele>275</ele>
        <time>2016-09-14T08:52:13Z</time>
      </trkpt>
      <trkpt lat="45.98036" lon="4.85171">
        <ele>275</ele>
        <time>2016-09-14T08:52:14Z</time>
      </trkpt>
      <trkpt lat="45.98039" lon="4.85181">
        <ele>276</ele>
        <time>2016-09-14T08:52:16Z</time>
      </trkpt>
      <trkpt lat="45.98041" lon="4.85186">
        <ele>276</ele>
        <time>2016-09-14T08:52:17Z</time>
      </trkpt>
      <trkpt lat="45.98043" lon="4.85195">
        <ele>276</ele>
        <time>2016-09-14T08:52:19Z</time>
      </trkpt>
      <trkpt lat="45.98044" lon="4.852">
        <ele>276</ele>
        <time>2016-09-14T08:52:20Z</time>
      </trkpt>
      <trkpt lat="45.98047" lon="4.85208">
        <ele>276</ele>
        <time>2016-09-14T08:52:22Z</time>
      </trkpt>
      <trkpt lat="45.98049" lon="4.85212">
        <ele>276</ele>
        <time>2016-09-14T08:52:23Z</time>
      </trkpt>
      <trkpt lat="45.98053" lon="4.85221">
        <ele>276</ele>
        <time>2016-09-14T08:52:25Z</time>
      </trkpt>
      <trkpt lat="45.98055" lon="4.85227">
        <ele>276</ele>
        <time>2016-09-14T08:52:26Z</time>
      </trkpt>
      <trkpt lat="45.98058" lon="4.85232">
        <ele>276</ele>
        <time>2016-09-14T08:52:27Z</time>
      </trkpt>
      <trkpt lat="45.98061" lon="4.85238">
        <ele>276</ele>
        <time>2016-09-14T08:52:28Z</time>
      </trkpt>
      <trkpt lat="45.98064" lon="4.85244">
        <ele>276</ele>
        <time>2016-09-14T08:52:29Z</time>
      </trkpt>
      <trkpt lat="45.98067" lon="4.8525">
        <ele>276</ele>
        <time>2016-09-14T08:52:30Z</time>
      </trkpt>
      <trkpt lat="45.98071" lon="4.85256">
        <ele>276</ele>
        <time>2016-09-14T08:52:31Z</time>
      </trkpt>
      <trkpt lat="45.98075" lon="4.85261">
        <ele>276</ele>
        <time>2016-09-14T08:52:32Z</time>
      </trkpt>
      <trkpt lat="45.98078" lon="4.85267">
        <ele>276</ele>
        <time>2016-09-14T08:52:33Z</time>
      </trkpt>
      <trkpt lat="45.98081" lon="4.85274">
        <ele>276</ele>
        <time>2016-09-14T08:52:34Z</time>
      </trkpt>
      <trkpt lat="45.98084" lon="4.8528">
        <ele>276</ele>
        <time>2016-09-14T08:52:35Z</time>
      </trkpt>
      <trkpt lat="45.98087" lon="4.85287">
        <ele>276</ele>
        <time>2016-09-14T08:52:36Z</time>
      </trkpt>
      <trkpt lat="45.9809" lon="4.85293">
        <ele>276</ele>
        <time>2016-09-14T08:52:37Z</time>
      </trkpt>
      <trkpt lat="45.98093" lon="4.85299">
        <ele>276</ele>
        <time>2016-09-14T08:52:38Z</time>
      </trkpt>
      <trkpt lat="45.98097" lon="4.85306">
        <ele>276</ele>
        <time>2016-09-14T08:52:39Z</time>
      </trkpt>
      <trkpt lat="45.981" lon="4.85312">
        <ele>276</ele>
        <time>2016-09-14T08:52:40Z</time>
      </trkpt>
      <trkpt lat="45.98103" lon="4.85319">
        <ele>276</ele>
        <time>2016-09-14T08:52:41Z</time>
      </trkpt>
      <trkpt lat="45.98105" lon="4.85326">
        <ele>276</ele>
        <time>2016-09-14T08:52:42Z</time>
      </trkpt>
      <trkpt lat="45.98109" lon="4.85333">
        <ele>276</ele>
        <time>2016-09-14T08:52:43Z</time>
      </trkpt>
      <trkpt lat="45.98112" lon="4.8534">
        <ele>276</ele>
        <time>2016-09-14T08:52:44Z</time>
      </trkpt>
      <trkpt lat="45.98115" lon="4.85347">
        <ele>276</ele>
        <time>2016-09-14T08:52:45Z</time>
      </trkpt>
      <trkpt lat="45.98117" lon="4.85354">
        <ele>276</ele>
        <time>2016-09-14T08:52:46Z</time>
      </trkpt>
      <trkpt lat="45.9812" lon="4.85361">
        <ele>276</ele>
        <time>2016-09-14T08:52:47Z</time>
      </trkpt>
      <trkpt lat="45.98123" lon="4.85368">
        <ele>276</ele>
        <time>2016-09-14T08:52:48Z</time>
      </trkpt>
      <trkpt lat="45.98126" lon="4.85375">
        <ele>276</ele>
        <time>2016-09-14T08:52:49Z</time>
      </trkpt>
      <trkpt lat="45.98127" lon="4.85383">
        <ele>276</ele>
        <time>2016-09-14T08:52:50Z</time>
      </trkpt>
      <trkpt lat="45.9813" lon="4.8539">
        <ele>276</ele>
        <time>2016-09-14T08:52:51Z</time>
      </trkpt>
      <trkpt lat="45.98132" lon="4.85397">
        <ele>276</ele>
        <time>2016-09-14T08:52:52Z</time>
      </trkpt>
      <trkpt lat="45.98135" lon="4.85404">
        <ele>276</ele>
        <time>2016-09-14T08:52:53Z</time>
      </trkpt>
      <trkpt lat="45.98137" lon="4.85411">
        <ele>276</ele>
        <time>2016-09-14T08:52:54Z</time>
      </trkpt>
      <trkpt lat="45.9814" lon="4.85417">
        <ele>276</ele>
        <time>2016-09-14T08:52:55Z</time>
      </trkpt>
      <trkpt lat="45.98143" lon="4.85424">
        <ele>276</ele>
        <time>2016-09-14T08:52:56Z</time>
      </trkpt>
      <trkpt lat="45.98146" lon="4.85431">
        <ele>276</ele>
        <time>2016-09-14T08:52:57Z</time>
      </trkpt>
      <trkpt lat="45.98148" lon="4.85439">
        <ele>276</ele>
        <time>2016-09-14T08:52:58Z</time>
      </trkpt>
      <trkpt lat="45.98151" lon="4.85446">
        <ele>276</ele>
        <time>2016-09-14T08:52:59Z</time>
      </trkpt>
      <trkpt lat="45.98154" lon="4.85453">
        <ele>276</ele>
        <time>2016-09-14T08:53:00Z</time>
      </trkpt>
      <trkpt lat="45.98157" lon="4.8546">
        <ele>275</ele>
        <time>2016-09-14T08:53:01Z</time>
      </trkpt>
      <trkpt lat="45.9816" lon="4.85467">
        <ele>275</ele>
        <time>2016-09-14T08:53:02Z</time>
      </trkpt>
      <trkpt lat="45.98163" lon="4.85473">
        <ele>275</ele>
        <time>2016-09-14T08:53:03Z</time>
      </trkpt>
      <trkpt lat="45.98165" lon="4.85479">
        <ele>275</ele>
        <time>2016-09-14T08:53:04Z</time>
      </trkpt>
      <trkpt lat="45.98168" lon="4.85486">
        <ele>275</ele>
        <time>2016-09-14T08:53:05Z</time>
      </trkpt>
      <trkpt lat="45.9817" lon="4.85493">
        <ele>275</ele>
        <time>2016-09-14T08:53:06Z</time>
      </trkpt>
      <trkpt lat="45.98173" lon="4.85499">
        <ele>275</ele>
        <time>2016-09-14T08:53:07Z</time>
      </trkpt>
      <trkpt lat="45.98176" lon="4.85507">
        <ele>275</ele>
        <time>2016-09-14T08:53:08Z</time>
      </trkpt>
      <trkpt lat="45.98179" lon="4.85514">
        <ele>275</ele>
        <time>2016-09-14T08:53:09Z</time>
      </trkpt>
      <trkpt lat="45.98182" lon="4.85522">
        <ele>275</ele>
        <time>2016-09-14T08:53:10Z</time>
      </trkpt>
      <trkpt lat="45.98185" lon="4.8553">
        <ele>276</ele>
        <time>2016-09-14T08:53:11Z</time>
      </trkpt>
      <trkpt lat="45.98188" lon="4.85537">
        <ele>276</ele>
        <time>2016-09-14T08:53:12Z</time>
      </trkpt>
      <trkpt lat="45.98191" lon="4.85544">
        <ele>276</ele>
        <time>2016-09-14T08:53:13Z</time>
      </trkpt>
      <trkpt lat="45.98193" lon="4.8555">
        <ele>276</ele>
        <time>2016-09-14T08:53:14Z</time>
      </trkpt>
      <trkpt lat="45.98196" lon="4.85556">
        <ele>276</ele>
        <time>2016-09-14T08:53:15Z</time>
      </trkpt>
      <trkpt lat="45.98199" lon="4.85562">
        <ele>276</ele>
        <time>2016-09-14T08:53:16Z</time>
      </trkpt>
      <trkpt lat="45.98201" lon="4.85568">
        <ele>276</ele>
        <time>2016-09-14T08:53:17Z</time>
      </trkpt>
      <trkpt lat="45.98203" lon="4.85574">
        <ele>276</ele>
        <time>2016-09-14T08:53:18Z</time>
      </trkpt>
      <trkpt lat="45.98206" lon="4.8558">
        <ele>276</ele>
        <time>2016-09-14T08:53:19Z</time>
      </trkpt>
      <trkpt lat="45.98209" lon="4.85587">
        <ele>277</ele>
        <time>2016-09-14T08:53:20Z</time>
      </trkpt>
      <trkpt lat="45.98211" lon="4.85594">
        <ele>277</ele>
        <time>2016-09-14T08:53:21Z</time>
      </trkpt>
      <trkpt lat="45.98214" lon="4.85601">
        <ele>277</ele>
        <time>2016-09-14T08:53:22Z</time>
      </trkpt>
      <trkpt lat="45.98218" lon="4.85609">
        <ele>277</ele>
        <time>2016-09-14T08:53:23Z</time>
      </trkpt>
      <trkpt lat="45.9822" lon="4.85616">
        <ele>277</ele>
        <time>2016-09-14T08:53:24Z</time>
      </trkpt>
      <trkpt lat="45.98223" lon="4.85624">
        <ele>277</ele>
        <time>2016-09-14T08:53:25Z</time>
      </trkpt>
      <trkpt lat="45.98226" lon="4.85632">
        <ele>277</ele>
        <time>2016-09-14T08:53:26Z</time>
      </trkpt>
      <trkpt lat="45.9823" lon="4.85639">
        <ele>277</ele>
        <time>2016-09-14T08:53:27Z</time>
      </trkpt>
      <trkpt lat="45.98233" lon="4.85646">
        <ele>277</ele>
        <time>2016-09-14T08:53:28Z</time>
      </trkpt>
      <trkpt lat="45.98236" lon="4.85653">
        <ele>276</ele>
        <time>2016-09-14T08:53:29Z</time>
      </trkpt>
      <trkpt lat="45.98239" lon="4.8566">
        <ele>276</ele>
        <time>2016-09-14T08:53:30Z</time>
      </trkpt>
      <trkpt lat="45.98241" lon="4.85666">
        <ele>276</ele>
        <time>2016-09-14T08:53:31Z</time>
      </trkpt>
      <trkpt lat="45.98243" lon="4.85673">
        <ele>276</ele>
        <time>2016-09-14T08:53:32Z</time>
      </trkpt>
      <trkpt lat="45.98246" lon="4.85679">
        <ele>276</ele>
        <time>2016-09-14T08:53:33Z</time>
      </trkpt>
      <trkpt lat="45.98249" lon="4.85685">
        <ele>276</ele>
        <time>2016-09-14T08:53:34Z</time>
      </trkpt>
      <trkpt lat="45.98251" lon="4.85692">
        <ele>275</ele>
        <time>2016-09-14T08:53:35Z</time>
      </trkpt>
      <trkpt lat="45.98254" lon="4.85697">
        <ele>275</ele>
        <time>2016-09-14T08:53:36Z</time>
      </trkpt>
      <trkpt lat="45.98256" lon="4.85704">
        <ele>275</ele>
        <time>2016-09-14T08:53:37Z</time>
      </trkpt>
      <trkpt lat="45.98259" lon="4.8571">
        <ele>275</ele>
        <time>2016-09-14T08:53:38Z</time>
      </trkpt>
      <trkpt lat="45.98262" lon="4.85716">
        <ele>275</ele>
        <time>2016-09-14T08:53:39Z</time>
      </trkpt>
      <trkpt lat="45.98265" lon="4.85723">
        <ele>275</ele>
        <time>2016-09-14T08:53:40Z</time>
      </trkpt>
      <trkpt lat="45.98267" lon="4.8573">
        <ele>275</ele>
        <time>2016-09-14T08:53:41Z</time>
      </trkpt>
      <trkpt lat="45.9827" lon="4.85737">
        <ele>275</ele>
        <time>2016-09-14T08:53:42Z</time>
      </trkpt>
      <trkpt lat="45.98273" lon="4.85744">
        <ele>274</ele>
        <time>2016-09-14T08:53:43Z</time>
      </trkpt>
      <trkpt lat="45.98276" lon="4.85751">
        <ele>275</ele>
        <time>2016-09-14T08:53:44Z</time>
      </trkpt>
      <trkpt lat="45.98279" lon="4.85758">
        <ele>275</ele>
        <time>2016-09-14T08:53:45Z</time>
      </trkpt>
      <trkpt lat="45.98281" lon="4.85765">
        <ele>275</ele>
        <time>2016-09-14T08:53:46Z</time>
      </trkpt>
      <trkpt lat="45.98284" lon="4.85771">
        <ele>275</ele>
        <time>2016-09-14T08:53:47Z</time>
      </trkpt>
      <trkpt lat="45.98286" lon="4.85777">
        <ele>275</ele>
        <time>2016-09-14T08:53:48Z</time>
      </trkpt>
      <trkpt lat="45.98289" lon="4.85784">
        <ele>275</ele>
        <time>2016-09-14T08:53:49Z</time>
      </trkpt>
      <trkpt lat="45.98292" lon="4.8579">
        <ele>275</ele>
        <time>2016-09-14T08:53:50Z</time>
      </trkpt>
      <trkpt lat="45.98295" lon="4.85796">
        <ele>275</ele>
        <time>2016-09-14T08:53:51Z</time>
      </trkpt>
      <trkpt lat="45.98297" lon="4.85804">
        <ele>275</ele>
        <time>2016-09-14T08:53:52Z</time>
      </trkpt>
      <trkpt lat="45.983" lon="4.85813">
        <ele>275</ele>
        <time>2016-09-14T08:53:53Z</time>
      </trkpt>
      <trkpt lat="45.98303" lon="4.8582">
        <ele>275</ele>
        <time>2016-09-14T08:53:54Z</time>
      </trkpt>
      <trkpt lat="45.98306" lon="4.85827">
        <ele>275</ele>
        <time>2016-09-14T08:53:55Z</time>
      </trkpt>
      <trkpt lat="45.98309" lon="4.85833">
        <ele>275</ele>
        <time>2016-09-14T08:53:56Z</time>
      </trkpt>
      <trkpt lat="45.98311" lon="4.8584">
        <ele>276</ele>
        <time>2016-09-14T08:53:57Z</time>
      </trkpt>
      <trkpt lat="45.98314" lon="4.85847">
        <ele>276</ele>
        <time>2016-09-14T08:53:58Z</time>
      </trkpt>
      <trkpt lat="45.98316" lon="4.85853">
        <ele>276</ele>
        <time>2016-09-14T08:53:59Z</time>
      </trkpt>
      <trkpt lat="45.98319" lon="4.85859">
        <ele>276</ele>
        <time>2016-09-14T08:54:00Z</time>
      </trkpt>
      <trkpt lat="45.98321" lon="4.85865">
        <ele>276</ele>
        <time>2016-09-14T08:54:01Z</time>
      </trkpt>
      <trkpt lat="45.98323" lon="4.8587">
        <ele>276</ele>
        <time>2016-09-14T08:54:02Z</time>
      </trkpt>
      <trkpt lat="45.98327" lon="4.85882">
        <ele>276</ele>
        <time>2016-09-14T08:54:04Z</time>
      </trkpt>
      <trkpt lat="45.9833" lon="4.85888">
        <ele>276</ele>
        <time>2016-09-14T08:54:05Z</time>
      </trkpt>
      <trkpt lat="45.98334" lon="4.85899">
        <ele>276</ele>
        <time>2016-09-14T08:54:07Z</time>
      </trkpt>
      <trkpt lat="45.98337" lon="4.85904">
        <ele>276</ele>
        <time>2016-09-14T08:54:08Z</time>
      </trkpt>
      <trkpt lat="45.9834" lon="4.8591">
        <ele>276</ele>
        <time>2016-09-14T08:54:09Z</time>
      </trkpt>
      <trkpt lat="45.98343" lon="4.85917">
        <ele>276</ele>
        <time>2016-09-14T08:54:10Z</time>
      </trkpt>
      <trkpt lat="45.98346" lon="4.85923">
        <ele>276</ele>
        <time>2016-09-14T08:54:11Z</time>
      </trkpt>
      <trkpt lat="45.98348" lon="4.85928">
        <ele>276</ele>
        <time>2016-09-14T08:54:12Z</time>
      </trkpt>
      <trkpt lat="45.98351" lon="4.85934">
        <ele>276</ele>
        <time>2016-09-14T08:54:13Z</time>
      </trkpt>
      <trkpt lat="45.98354" lon="4.8594">
        <ele>276</ele>
        <time>2016-09-14T08:54:14Z</time>
      </trkpt>
      <trkpt lat="45.98356" lon="4.85948">
        <ele>276</ele>
        <time>2016-09-14T08:54:15Z</time>
      </trkpt>
      <trkpt lat="45.98359" lon="4.85956">
        <ele>276</ele>
        <time>2016-09-14T08:54:16Z</time>
      </trkpt>
      <trkpt lat="45.98361" lon="4.85964">
        <ele>276</ele>
        <time>2016-09-14T08:54:17Z</time>
      </trkpt>
      <trkpt lat="45.98364" lon="4.85973">
        <ele>276</ele>
        <time>2016-09-14T08:54:18Z</time>
      </trkpt>
      <trkpt lat="45.98368" lon="4.85982">
        <ele>276</ele>
        <time>2016-09-14T08:54:19Z</time>
      </trkpt>
      <trkpt lat="45.98371" lon="4.8599">
        <ele>277</ele>
        <time>2016-09-14T08:54:20Z</time>
      </trkpt>
      <trkpt lat="45.98374" lon="4.85998">
        <ele>277</ele>
        <time>2016-09-14T08:54:21Z</time>
      </trkpt>
      <trkpt lat="45.98377" lon="4.86005">
        <ele>277</ele>
        <time>2016-09-14T08:54:22Z</time>
      </trkpt>
      <trkpt lat="45.9838" lon="4.86015">
        <ele>277</ele>
        <time>2016-09-14T08:54:23Z</time>
      </trkpt>
      <trkpt lat="45.98382" lon="4.86024">
        <ele>277</ele>
        <time>2016-09-14T08:54:24Z</time>
      </trkpt>
      <trkpt lat="45.98384" lon="4.86031">
        <ele>277</ele>
        <time>2016-09-14T08:54:25Z</time>
      </trkpt>
      <trkpt lat="45.98387" lon="4.86037">
        <ele>277</ele>
        <time>2016-09-14T08:54:26Z</time>
      </trkpt>
      <trkpt lat="45.9839" lon="4.86044">
        <ele>277</ele>
        <time>2016-09-14T08:54:27Z</time>
      </trkpt>
      <trkpt lat="45.98392" lon="4.86051">
        <ele>277</ele>
        <time>2016-09-14T08:54:28Z</time>
      </trkpt>
      <trkpt lat="45.98395" lon="4.86058">
        <ele>277</ele>
        <time>2016-09-14T08:54:29Z</time>
      </trkpt>
      <trkpt lat="45.98397" lon="4.86065">
        <ele>277</ele>
        <time>2016-09-14T08:54:30Z</time>
      </trkpt>
      <trkpt lat="45.98399" lon="4.86072">
        <ele>277</ele>
        <time>2016-09-14T08:54:31Z</time>
      </trkpt>
      <trkpt lat="45.98401" lon="4.86079">
        <ele>277</ele>
        <time>2016-09-14T08:54:32Z</time>
      </trkpt>
      <trkpt lat="45.98402" lon="4.86087">
        <ele>277</ele>
        <time>2016-09-14T08:54:33Z</time>
      </trkpt>
      <trkpt lat="45.98403" lon="4.86094">
        <ele>277</ele>
        <time>2016-09-14T08:54:34Z</time>
      </trkpt>
      <trkpt lat="45.98403" lon="4.86101">
        <ele>277</ele>
        <time>2016-09-14T08:54:35Z</time>
      </trkpt>
      <trkpt lat="45.98405" lon="4.86107">
        <ele>277</ele>
        <time>2016-09-14T08:54:36Z</time>
      </trkpt>
      <trkpt lat="45.98405" lon="4.86114">
        <ele>277</ele>
        <time>2016-09-14T08:54:37Z</time>
      </trkpt>
      <trkpt lat="45.98406" lon="4.86121">
        <ele>277</ele>
        <time>2016-09-14T08:54:38Z</time>
      </trkpt>
      <trkpt lat="45.98408" lon="4.86133">
        <ele>276</ele>
        <time>2016-09-14T08:54:40Z</time>
      </trkpt>
      <trkpt lat="45.98409" lon="4.86139">
        <ele>276</ele>
        <time>2016-09-14T08:54:41Z</time>
      </trkpt>
      <trkpt lat="45.9841" lon="4.86146">
        <ele>276</ele>
        <time>2016-09-14T08:54:42Z</time>
      </trkpt>
      <trkpt lat="45.98411" lon="4.86153">
        <ele>276</ele>
        <time>2016-09-14T08:54:43Z</time>
      </trkpt>
      <trkpt lat="45.98412" lon="4.8616">
        <ele>276</ele>
        <time>2016-09-14T08:54:44Z</time>
      </trkpt>
      <trkpt lat="45.98414" lon="4.86167">
        <ele>276</ele>
        <time>2016-09-14T08:54:45Z</time>
      </trkpt>
      <trkpt lat="45.98415" lon="4.86173">
        <ele>276</ele>
        <time>2016-09-14T08:54:46Z</time>
      </trkpt>
      <trkpt lat="45.98416" lon="4.8618">
        <ele>276</ele>
        <time>2016-09-14T08:54:47Z</time>
      </trkpt>
      <trkpt lat="45.98417" lon="4.86187">
        <ele>276</ele>
        <time>2016-09-14T08:54:48Z</time>
      </trkpt>
      <trkpt lat="45.98418" lon="4.86193">
        <ele>275</ele>
        <time>2016-09-14T08:54:49Z</time>
      </trkpt>
      <trkpt lat="45.98419" lon="4.862">
        <ele>275</ele>
        <time>2016-09-14T08:54:50Z</time>
      </trkpt>
      <trkpt lat="45.9842" lon="4.86206">
        <ele>275</ele>
        <time>2016-09-14T08:54:51Z</time>
      </trkpt>
      <trkpt lat="45.98421" lon="4.86213">
        <ele>275</ele>
        <time>2016-09-14T08:54:52Z</time>
      </trkpt>
      <trkpt lat="45.98423" lon="4.8622">
        <ele>275</ele>
        <time>2016-09-14T08:54:53Z</time>
      </trkpt>
      <trkpt lat="45.98423" lon="4.86228">
        <ele>275</ele>
        <time>2016-09-14T08:54:54Z</time>
      </trkpt>
      <trkpt lat="45.98425" lon="4.86235">
        <ele>275</ele>
        <time>2016-09-14T08:54:55Z</time>
      </trkpt>
      <trkpt lat="45.98427" lon="4.86243">
        <ele>275</ele>
        <time>2016-09-14T08:54:56Z</time>
      </trkpt>
      <trkpt lat="45.98429" lon="4.86252">
        <ele>275</ele>
        <time>2016-09-14T08:54:57Z</time>
      </trkpt>
      <trkpt lat="45.9843" lon="4.8626">
        <ele>275</ele>
        <time>2016-09-14T08:54:58Z</time>
      </trkpt>
      <trkpt lat="45.98432" lon="4.8627">
        <ele>275</ele>
        <time>2016-09-14T08:54:59Z</time>
      </trkpt>
      <trkpt lat="45.98433" lon="4.8628">
        <ele>276</ele>
        <time>2016-09-14T08:55:00Z</time>
      </trkpt>
      <trkpt lat="45.98435" lon="4.8629">
        <ele>276</ele>
        <time>2016-09-14T08:55:01Z</time>
      </trkpt>
      <trkpt lat="45.98437" lon="4.863">
        <ele>276</ele>
        <time>2016-09-14T08:55:02Z</time>
      </trkpt>
      <trkpt lat="45.98438" lon="4.86311">
        <ele>276</ele>
        <time>2016-09-14T08:55:03Z</time>
      </trkpt>
      <trkpt lat="45.9844" lon="4.86321">
        <ele>276</ele>
        <time>2016-09-14T08:55:04Z</time>
      </trkpt>
      <trkpt lat="45.98443" lon="4.86331">
        <ele>276</ele>
        <time>2016-09-14T08:55:05Z</time>
      </trkpt>
      <trkpt lat="45.98446" lon="4.86342">
        <ele>277</ele>
        <time>2016-09-14T08:55:06Z</time>
      </trkpt>
      <trkpt lat="45.98448" lon="4.86352">
        <ele>277</ele>
        <time>2016-09-14T08:55:07Z</time>
      </trkpt>
      <trkpt lat="45.98451" lon="4.86362">
        <ele>277</ele>
        <time>2016-09-14T08:55:08Z</time>
      </trkpt>
      <trkpt lat="45.98454" lon="4.86372">
        <ele>277</ele>
        <time>2016-09-14T08:55:09Z</time>
      </trkpt>
      <trkpt lat="45.98458" lon="4.86381">
        <ele>277</ele>
        <time>2016-09-14T08:55:10Z</time>
      </trkpt>
      <trkpt lat="45.98461" lon="4.8639">
        <ele>277</ele>
        <time>2016-09-14T08:55:11Z</time>
      </trkpt>
      <trkpt lat="45.98464" lon="4.86399">
        <ele>277</ele>
        <time>2016-09-14T08:55:12Z</time>
      </trkpt>
      <trkpt lat="45.98468" lon="4.86407">
        <ele>277</ele>
        <time>2016-09-14T08:55:13Z</time>
      </trkpt>
      <trkpt lat="45.98472" lon="4.86415">
        <ele>277</ele>
        <time>2016-09-14T08:55:14Z</time>
      </trkpt>
      <trkpt lat="45.98475" lon="4.86424">
        <ele>278</ele>
        <time>2016-09-14T08:55:15Z</time>
      </trkpt>
      <trkpt lat="45.98479" lon="4.86432">
        <ele>278</ele>
        <time>2016-09-14T08:55:16Z</time>
      </trkpt>
      <trkpt lat="45.98483" lon="4.8644">
        <ele>278</ele>
        <time>2016-09-14T08:55:17Z</time>
      </trkpt>
      <trkpt lat="45.98487" lon="4.86447">
        <ele>278</ele>
        <time>2016-09-14T08:55:18Z</time>
      </trkpt>
      <trkpt lat="45.98491" lon="4.86455">
        <ele>278</ele>
        <time>2016-09-14T08:55:19Z</time>
      </trkpt>
      <trkpt lat="45.98494" lon="4.86462">
        <ele>278</ele>
        <time>2016-09-14T08:55:20Z</time>
      </trkpt>
      <trkpt lat="45.98498" lon="4.86469">
        <ele>279</ele>
        <time>2016-09-14T08:55:21Z</time>
      </trkpt>
      <trkpt lat="45.98501" lon="4.86477">
        <ele>278</ele>
        <time>2016-09-14T08:55:22Z</time>
      </trkpt>
      <trkpt lat="45.98505" lon="4.86485">
        <ele>279</ele>
        <time>2016-09-14T08:55:23Z</time>
      </trkpt>
      <trkpt lat="45.98509" lon="4.86493">
        <ele>279</ele>
        <time>2016-09-14T08:55:24Z</time>
      </trkpt>
      <trkpt lat="45.98512" lon="4.86501">
        <ele>279</ele>
        <time>2016-09-14T08:55:25Z</time>
      </trkpt>
      <trkpt lat="45.98516" lon="4.86509">
        <ele>279</ele>
        <time>2016-09-14T08:55:26Z</time>
      </trkpt>
      <trkpt lat="45.98521" lon="4.86517">
        <ele>279</ele>
        <time>2016-09-14T08:55:27Z</time>
      </trkpt>
      <trkpt lat="45.98524" lon="4.86524">
        <ele>279</ele>
        <time>2016-09-14T08:55:28Z</time>
      </trkpt>
      <trkpt lat="45.98527" lon="4.86531">
        <ele>279</ele>
        <time>2016-09-14T08:55:29Z</time>
      </trkpt>
      <trkpt lat="45.98531" lon="4.86538">
        <ele>279</ele>
        <time>2016-09-14T08:55:30Z</time>
      </trkpt>
      <trkpt lat="45.98535" lon="4.86545">
        <ele>279</ele>
        <time>2016-09-14T08:55:31Z</time>
      </trkpt>
      <trkpt lat="45.98538" lon="4.86553">
        <ele>278</ele>
        <time>2016-09-14T08:55:32Z</time>
      </trkpt>
      <trkpt lat="45.98541" lon="4.86561">
        <ele>278</ele>
        <time>2016-09-14T08:55:33Z</time>
      </trkpt>
      <trkpt lat="45.98544" lon="4.86569">
        <ele>278</ele>
        <time>2016-09-14T08:55:34Z</time>
      </trkpt>
      <trkpt lat="45.98546" lon="4.86578">
        <ele>278</ele>
        <time>2016-09-14T08:55:35Z</time>
      </trkpt>
      <trkpt lat="45.98549" lon="4.86586">
        <ele>278</ele>
        <time>2016-09-14T08:55:36Z</time>
      </trkpt>
      <trkpt lat="45.98551" lon="4.86594">
        <ele>278</ele>
        <time>2016-09-14T08:55:37Z</time>
      </trkpt>
      <trkpt lat="45.98553" lon="4.86602">
        <ele>278</ele>
        <time>2016-09-14T08:55:38Z</time>
      </trkpt>
      <trkpt lat="45.98554" lon="4.86611">
        <ele>278</ele>
        <time>2016-09-14T08:55:39Z</time>
      </trkpt>
      <trkpt lat="45.98555" lon="4.86619">
        <ele>278</ele>
        <time>2016-09-14T08:55:40Z</time>
      </trkpt>
      <trkpt lat="45.98557" lon="4.86628">
        <ele>278</ele>
        <time>2016-09-14T08:55:41Z</time>
      </trkpt>
      <trkpt lat="45.98558" lon="4.86638">
        <ele>278</ele>
        <time>2016-09-14T08:55:42Z</time>
      </trkpt>
      <trkpt lat="45.9856" lon="4.86647">
        <ele>277</ele>
        <time>2016-09-14T08:55:43Z</time>
      </trkpt>
      <trkpt lat="45.98561" lon="4.86658">
        <ele>277</ele>
        <time>2016-09-14T08:55:44Z</time>
      </trkpt>
      <trkpt lat="45.98563" lon="4.86669">
        <ele>277</ele>
        <time>2016-09-14T08:55:45Z</time>
      </trkpt>
      <trkpt lat="45.98564" lon="4.86679">
        <ele>277</ele>
        <time>2016-09-14T08:55:46Z</time>
      </trkpt>
      <trkpt lat="45.98564" lon="4.86688">
        <ele>277</ele>
        <time>2016-09-14T08:55:47Z</time>
      </trkpt>
      <trkpt lat="45.98565" lon="4.86697">
        <ele>277</ele>
        <time>2016-09-14T08:55:48Z</time>
      </trkpt>
      <trkpt lat="45.98566" lon="4.86706">
        <ele>277</ele>
        <time>2016-09-14T08:55:49Z</time>
      </trkpt>
      <trkpt lat="45.98566" lon="4.86715">
        <ele>277</ele>
        <time>2016-09-14T08:55:50Z</time>
      </trkpt>
      <trkpt lat="45.98567" lon="4.86724">
        <ele>277</ele>
        <time>2016-09-14T08:55:51Z</time>
      </trkpt>
      <trkpt lat="45.98568" lon="4.86732">
        <ele>277</ele>
        <time>2016-09-14T08:55:52Z</time>
      </trkpt>
      <trkpt lat="45.98569" lon="4.8674">
        <ele>277</ele>
        <time>2016-09-14T08:55:53Z</time>
      </trkpt>
      <trkpt lat="45.9857" lon="4.86748">
        <ele>277</ele>
        <time>2016-09-14T08:55:54Z</time>
      </trkpt>
      <trkpt lat="45.98571" lon="4.86757">
        <ele>277</ele>
        <time>2016-09-14T08:55:55Z</time>
      </trkpt>
      <trkpt lat="45.98573" lon="4.86765">
        <ele>277</ele>
        <time>2016-09-14T08:55:56Z</time>
      </trkpt>
      <trkpt lat="45.98575" lon="4.86772">
        <ele>277</ele>
        <time>2016-09-14T08:55:57Z</time>
      </trkpt>
      <trkpt lat="45.98577" lon="4.86781">
        <ele>277</ele>
        <time>2016-09-14T08:55:58Z</time>
      </trkpt>
      <trkpt lat="45.98577" lon="4.86789">
        <ele>277</ele>
        <time>2016-09-14T08:55:59Z</time>
      </trkpt>
      <trkpt lat="45.98577" lon="4.86797">
        <ele>278</ele>
        <time>2016-09-14T08:56:00Z</time>
      </trkpt>
      <trkpt lat="45.98578" lon="4.86804">
        <ele>278</ele>
        <time>2016-09-14T08:56:01Z</time>
      </trkpt>
      <trkpt lat="45.98579" lon="4.86811">
        <ele>277</ele>
        <time>2016-09-14T08:56:02Z</time>
      </trkpt>
      <trkpt lat="45.9858" lon="4.86819">
        <ele>277</ele>
        <time>2016-09-14T08:56:03Z</time>
      </trkpt>
      <trkpt lat="45.98581" lon="4.86827">
        <ele>277</ele>
        <time>2016-09-14T08:56:04Z</time>
      </trkpt>
      <trkpt lat="45.98582" lon="4.86835">
        <ele>277</ele>
        <time>2016-09-14T08:56:05Z</time>
      </trkpt>
      <trkpt lat="45.98583" lon="4.86844">
        <ele>278</ele>
        <time>2016-09-14T08:56:06Z</time>
      </trkpt>
      <trkpt lat="45.98583" lon="4.86854">
        <ele>279</ele>
        <time>2016-09-14T08:56:07Z</time>
      </trkpt>
      <trkpt lat="45.98583" lon="4.86864">
        <ele>279</ele>
        <time>2016-09-14T08:56:08Z</time>
      </trkpt>
      <trkpt lat="45.98582" lon="4.86874">
        <ele>279</ele>
        <time>2016-09-14T08:56:09Z</time>
      </trkpt>
      <trkpt lat="45.98582" lon="4.86884">
        <ele>279</ele>
        <time>2016-09-14T08:56:10Z</time>
      </trkpt>
      <trkpt lat="45.98583" lon="4.86894">
        <ele>279</ele>
        <time>2016-09-14T08:56:11Z</time>
      </trkpt>
      <trkpt lat="45.98583" lon="4.86904">
        <ele>279</ele>
        <time>2016-09-14T08:56:12Z</time>
      </trkpt>
      <trkpt lat="45.98582" lon="4.86914">
        <ele>279</ele>
        <time>2016-09-14T08:56:13Z</time>
      </trkpt>
      <trkpt lat="45.98582" lon="4.86924">
        <ele>280</ele>
        <time>2016-09-14T08:56:14Z</time>
      </trkpt>
      <trkpt lat="45.98582" lon="4.86934">
        <ele>280</ele>
        <time>2016-09-14T08:56:15Z</time>
      </trkpt>
      <trkpt lat="45.98582" lon="4.86944">
        <ele>281</ele>
        <time>2016-09-14T08:56:16Z</time>
      </trkpt>
      <trkpt lat="45.98583" lon="4.86953">
        <ele>281</ele>
        <time>2016-09-14T08:56:17Z</time>
      </trkpt>
      <trkpt lat="45.98582" lon="4.86963">
        <ele>281</ele>
        <time>2016-09-14T08:56:18Z</time>
      </trkpt>
      <trkpt lat="45.98583" lon="4.86972">
        <ele>281</ele>
        <time>2016-09-14T08:56:19Z</time>
      </trkpt>
      <trkpt lat="45.98583" lon="4.86981">
        <ele>281</ele>
        <time>2016-09-14T08:56:20Z</time>
      </trkpt>
      <trkpt lat="45.98584" lon="4.8699">
        <ele>279</ele>
        <time>2016-09-14T08:56:21Z</time>
      </trkpt>
      <trkpt lat="45.98585" lon="4.86999">
        <ele>280</ele>
        <time>2016-09-14T08:56:22Z</time>
      </trkpt>
      <trkpt lat="45.98586" lon="4.87007">
        <ele>280</ele>
        <time>2016-09-14T08:56:23Z</time>
      </trkpt>
      <trkpt lat="45.98588" lon="4.87016">
        <ele>279</ele>
        <time>2016-09-14T08:56:24Z</time>
      </trkpt>
      <trkpt lat="45.9859" lon="4.87025">
        <ele>279</ele>
        <time>2016-09-14T08:56:25Z</time>
      </trkpt>
      <trkpt lat="45.98591" lon="4.87034">
        <ele>279</ele>
        <time>2016-09-14T08:56:26Z</time>
      </trkpt>
      <trkpt lat="45.98592" lon="4.87042">
        <ele>279</ele>
        <time>2016-09-14T08:56:27Z</time>
      </trkpt>
      <trkpt lat="45.98594" lon="4.87051">
        <ele>279</ele>
        <time>2016-09-14T08:56:28Z</time>
      </trkpt>
      <trkpt lat="45.98595" lon="4.87058">
        <ele>279</ele>
        <time>2016-09-14T08:56:29Z</time>
      </trkpt>
      <trkpt lat="45.98596" lon="4.87066">
        <ele>279</ele>
        <time>2016-09-14T08:56:30Z</time>
      </trkpt>
      <trkpt lat="45.98597" lon="4.87074">
        <ele>279</ele>
        <time>2016-09-14T08:56:31Z</time>
      </trkpt>
      <trkpt lat="45.98598" lon="4.87082">
        <ele>279</ele>
        <time>2016-09-14T08:56:32Z</time>
      </trkpt>
      <trkpt lat="45.98599" lon="4.8709">
        <ele>279</ele>
        <time>2016-09-14T08:56:33Z</time>
      </trkpt>
      <trkpt lat="45.986" lon="4.87098">
        <ele>279</ele>
        <time>2016-09-14T08:56:34Z</time>
      </trkpt>
      <trkpt lat="45.986" lon="4.87108">
        <ele>279</ele>
        <time>2016-09-14T08:56:35Z</time>
      </trkpt>
      <trkpt lat="45.986" lon="4.87117">
        <ele>279</ele>
        <time>2016-09-14T08:56:36Z</time>
      </trkpt>
      <trkpt lat="45.98601" lon="4.87126">
        <ele>279</ele>
        <time>2016-09-14T08:56:37Z</time>
      </trkpt>
      <trkpt lat="45.98601" lon="4.87136">
        <ele>278</ele>
        <time>2016-09-14T08:56:38Z</time>
      </trkpt>
      <trkpt lat="45.98601" lon="4.87146">
        <ele>278</ele>
        <time>2016-09-14T08:56:39Z</time>
      </trkpt>
      <trkpt lat="45.98601" lon="4.87155">
        <ele>278</ele>
        <time>2016-09-14T08:56:40Z</time>
      </trkpt>
      <trkpt lat="45.98601" lon="4.87164">
        <ele>278</ele>
        <time>2016-09-14T08:56:41Z</time>
      </trkpt>
      <trkpt lat="45.986" lon="4.87172">
        <ele>277</ele>
        <time>2016-09-14T08:56:42Z</time>
      </trkpt>
      <trkpt lat="45.98599" lon="4.8718">
        <ele>277</ele>
        <time>2016-09-14T08:56:43Z</time>
      </trkpt>
      <trkpt lat="45.98599" lon="4.87187">
        <ele>277</ele>
        <time>2016-09-14T08:56:44Z</time>
      </trkpt>
      <trkpt lat="45.98597" lon="4.87195">
        <ele>277</ele>
        <time>2016-09-14T08:56:45Z</time>
      </trkpt>
      <trkpt lat="45.98596" lon="4.87204">
        <ele>277</ele>
        <time>2016-09-14T08:56:46Z</time>
      </trkpt>
      <trkpt lat="45.98594" lon="4.87213">
        <ele>277</ele>
        <time>2016-09-14T08:56:47Z</time>
      </trkpt>
      <trkpt lat="45.98592" lon="4.87221">
        <ele>277</ele>
        <time>2016-09-14T08:56:48Z</time>
      </trkpt>
      <trkpt lat="45.9859" lon="4.8723">
        <ele>277</ele>
        <time>2016-09-14T08:56:49Z</time>
      </trkpt>
      <trkpt lat="45.98589" lon="4.87239">
        <ele>277</ele>
        <time>2016-09-14T08:56:50Z</time>
      </trkpt>
      <trkpt lat="45.98589" lon="4.87248">
        <ele>276</ele>
        <time>2016-09-14T08:56:51Z</time>
      </trkpt>
      <trkpt lat="45.98588" lon="4.87257">
        <ele>276</ele>
        <time>2016-09-14T08:56:52Z</time>
      </trkpt>
      <trkpt lat="45.98588" lon="4.87267">
        <ele>275</ele>
        <time>2016-09-14T08:56:53Z</time>
      </trkpt>
      <trkpt lat="45.98588" lon="4.87277">
        <ele>275</ele>
        <time>2016-09-14T08:56:54Z</time>
      </trkpt>
      <trkpt lat="45.98589" lon="4.87288">
        <ele>275</ele>
        <time>2016-09-14T08:56:55Z</time>
      </trkpt>
      <trkpt lat="45.9859" lon="4.87299">
        <ele>275</ele>
        <time>2016-09-14T08:56:56Z</time>
      </trkpt>
      <trkpt lat="45.98593" lon="4.87311">
        <ele>274</ele>
        <time>2016-09-14T08:56:57Z</time>
      </trkpt>
      <trkpt lat="45.98595" lon="4.87326">
        <ele>274</ele>
        <time>2016-09-14T08:56:58Z</time>
      </trkpt>
      <trkpt lat="45.98598" lon="4.8734">
        <ele>273</ele>
        <time>2016-09-14T08:56:59Z</time>
      </trkpt>
      <trkpt lat="45.986" lon="4.87354">
        <ele>272</ele>
        <time>2016-09-14T08:57:00Z</time>
      </trkpt>
      <trkpt lat="45.98603" lon="4.87367">
        <ele>272</ele>
        <time>2016-09-14T08:57:01Z</time>
      </trkpt>
      <trkpt lat="45.98605" lon="4.87378">
        <ele>271</ele>
        <time>2016-09-14T08:57:02Z</time>
      </trkpt>
      <trkpt lat="45.98608" lon="4.8739">
        <ele>271</ele>
        <time>2016-09-14T08:57:03Z</time>
      </trkpt>
      <trkpt lat="45.98609" lon="4.87403">
        <ele>271</ele>
        <time>2016-09-14T08:57:04Z</time>
      </trkpt>
      <trkpt lat="45.98611" lon="4.87415">
        <ele>271</ele>
        <time>2016-09-14T08:57:05Z</time>
      </trkpt>
      <trkpt lat="45.98614" lon="4.87426">
        <ele>269</ele>
        <time>2016-09-14T08:57:06Z</time>
      </trkpt>
      <trkpt lat="45.98616" lon="4.87438">
        <ele>269</ele>
        <time>2016-09-14T08:57:07Z</time>
      </trkpt>
      <trkpt lat="45.98619" lon="4.8745">
        <ele>269</ele>
        <time>2016-09-14T08:57:08Z</time>
      </trkpt>
      <trkpt lat="45.98621" lon="4.87461">
        <ele>268</ele>
        <time>2016-09-14T08:57:09Z</time>
      </trkpt>
      <trkpt lat="45.98623" lon="4.87473">
        <ele>268</ele>
        <time>2016-09-14T08:57:10Z</time>
      </trkpt>
      <trkpt lat="45.98625" lon="4.87484">
        <ele>268</ele>
        <time>2016-09-14T08:57:11Z</time>
      </trkpt>
      <trkpt lat="45.98628" lon="4.87496">
        <ele>268</ele>
        <time>2016-09-14T08:57:12Z</time>
      </trkpt>
      <trkpt lat="45.9863" lon="4.87507">
        <ele>267</ele>
        <time>2016-09-14T08:57:13Z</time>
      </trkpt>
      <trkpt lat="45.98632" lon="4.87518">
        <ele>267</ele>
        <time>2016-09-14T08:57:14Z</time>
      </trkpt>
      <trkpt lat="45.98634" lon="4.87528">
        <ele>267</ele>
        <time>2016-09-14T08:57:15Z</time>
      </trkpt>
      <trkpt lat="45.98637" lon="4.87539">
        <ele>267</ele>
        <time>2016-09-14T08:57:16Z</time>
      </trkpt>
      <trkpt lat="45.98641" lon="4.8755">
        <ele>267</ele>
        <time>2016-09-14T08:57:17Z</time>
      </trkpt>
      <trkpt lat="45.98645" lon="4.87558">
        <ele>267</ele>
        <time>2016-09-14T08:57:18Z</time>
      </trkpt>
      <trkpt lat="45.98651" lon="4.87565">
        <ele>267</ele>
        <time>2016-09-14T08:57:19Z</time>
      </trkpt>
      <trkpt lat="45.98657" lon="4.87569">
        <ele>267</ele>
        <time>2016-09-14T08:57:20Z</time>
      </trkpt>
      <trkpt lat="45.98664" lon="4.8757">
        <ele>267</ele>
        <time>2016-09-14T08:57:21Z</time>
      </trkpt>
      <trkpt lat="45.9867" lon="4.87571">
        <ele>267</ele>
        <time>2016-09-14T08:57:22Z</time>
      </trkpt>
      <trkpt lat="45.98675" lon="4.8757">
        <ele>267</ele>
        <time>2016-09-14T08:57:23Z</time>
      </trkpt>
      <trkpt lat="45.98681" lon="4.87569">
        <ele>267</ele>
        <time>2016-09-14T08:57:24Z</time>
      </trkpt>
      <trkpt lat="45.98687" lon="4.87567">
        <ele>267</ele>
        <time>2016-09-14T08:57:25Z</time>
      </trkpt>
      <trkpt lat="45.98692" lon="4.87565">
        <ele>267</ele>
        <time>2016-09-14T08:57:26Z</time>
      </trkpt>
      <trkpt lat="45.98697" lon="4.87564">
        <ele>267</ele>
        <time>2016-09-14T08:57:27Z</time>
      </trkpt>
      <trkpt lat="45.98702" lon="4.87563">
        <ele>267</ele>
        <time>2016-09-14T08:57:28Z</time>
      </trkpt>
      <trkpt lat="45.98707" lon="4.87561">
        <ele>267</ele>
        <time>2016-09-14T08:57:29Z</time>
      </trkpt>
      <trkpt lat="45.98713" lon="4.87561">
        <ele>267</ele>
        <time>2016-09-14T08:57:30Z</time>
      </trkpt>
      <trkpt lat="45.98719" lon="4.87561">
        <ele>267</ele>
        <time>2016-09-14T08:57:31Z</time>
      </trkpt>
      <trkpt lat="45.98724" lon="4.87561">
        <ele>267</ele>
        <time>2016-09-14T08:57:32Z</time>
      </trkpt>
      <trkpt lat="45.98729" lon="4.87561">
        <ele>267</ele>
        <time>2016-09-14T08:57:33Z</time>
      </trkpt>
      <trkpt lat="45.98734" lon="4.87562">
        <ele>267</ele>
        <time>2016-09-14T08:57:34Z</time>
      </trkpt>
      <trkpt lat="45.9874" lon="4.87563">
        <ele>267</ele>
        <time>2016-09-14T08:57:35Z</time>
      </trkpt>
      <trkpt lat="45.98745" lon="4.87566">
        <ele>267</ele>
        <time>2016-09-14T08:57:36Z</time>
      </trkpt>
      <trkpt lat="45.98751" lon="4.87569">
        <ele>268</ele>
        <time>2016-09-14T08:57:37Z</time>
      </trkpt>
      <trkpt lat="45.98756" lon="4.87573">
        <ele>268</ele>
        <time>2016-09-14T08:57:38Z</time>
      </trkpt>
      <trkpt lat="45.98761" lon="4.87578">
        <ele>268</ele>
        <time>2016-09-14T08:57:39Z</time>
      </trkpt>
      <trkpt lat="45.98765" lon="4.87583">
        <ele>269</ele>
        <time>2016-09-14T08:57:40Z</time>
      </trkpt>
      <trkpt lat="45.9877" lon="4.87588">
        <ele>270</ele>
        <time>2016-09-14T08:57:41Z</time>
      </trkpt>
      <trkpt lat="45.98774" lon="4.87593">
        <ele>270</ele>
        <time>2016-09-14T08:57:42Z</time>
      </trkpt>
      <trkpt lat="45.98779" lon="4.87598">
        <ele>271</ele>
        <time>2016-09-14T08:57:43Z</time>
      </trkpt>
      <trkpt lat="45.98783" lon="4.87604">
        <ele>271</ele>
        <time>2016-09-14T08:57:44Z</time>
      </trkpt>
      <trkpt lat="45.98788" lon="4.87609">
        <ele>271</ele>
        <time>2016-09-14T08:57:45Z</time>
      </trkpt>
      <trkpt lat="45.98792" lon="4.87616">
        <ele>271</ele>
        <time>2016-09-14T08:57:46Z</time>
      </trkpt>
      <trkpt lat="45.98795" lon="4.87623">
        <ele>271</ele>
        <time>2016-09-14T08:57:47Z</time>
      </trkpt>
      <trkpt lat="45.98797" lon="4.8763">
        <ele>271</ele>
        <time>2016-09-14T08:57:48Z</time>
      </trkpt>
      <trkpt lat="45.988" lon="4.87637">
        <ele>271</ele>
        <time>2016-09-14T08:57:49Z</time>
      </trkpt>
      <trkpt lat="45.98802" lon="4.87645">
        <ele>272</ele>
        <time>2016-09-14T08:57:50Z</time>
      </trkpt>
      <trkpt lat="45.98803" lon="4.87654">
        <ele>272</ele>
        <time>2016-09-14T08:57:51Z</time>
      </trkpt>
      <trkpt lat="45.98805" lon="4.87663">
        <ele>272</ele>
        <time>2016-09-14T08:57:52Z</time>
      </trkpt>
      <trkpt lat="45.98807" lon="4.87672">
        <ele>273</ele>
        <time>2016-09-14T08:57:53Z</time>
      </trkpt>
      <trkpt lat="45.98809" lon="4.8768">
        <ele>273</ele>
        <time>2016-09-14T08:57:54Z</time>
      </trkpt>
      <trkpt lat="45.98812" lon="4.87688">
        <ele>273</ele>
        <time>2016-09-14T08:57:55Z</time>
      </trkpt>
      <trkpt lat="45.98814" lon="4.87697">
        <ele>273</ele>
        <time>2016-09-14T08:57:56Z</time>
      </trkpt>
      <trkpt lat="45.98817" lon="4.87706">
        <ele>274</ele>
        <time>2016-09-14T08:57:57Z</time>
      </trkpt>
      <trkpt lat="45.98819" lon="4.87714">
        <ele>274</ele>
        <time>2016-09-14T08:57:58Z</time>
      </trkpt>
      <trkpt lat="45.98822" lon="4.87723">
        <ele>274</ele>
        <time>2016-09-14T08:57:59Z</time>
      </trkpt>
      <trkpt lat="45.98825" lon="4.87732">
        <ele>274</ele>
        <time>2016-09-14T08:58:00Z</time>
      </trkpt>
      <trkpt lat="45.98828" lon="4.8774">
        <ele>273</ele>
        <time>2016-09-14T08:58:01Z</time>
      </trkpt>
      <trkpt lat="45.9883" lon="4.87748">
        <ele>273</ele>
        <time>2016-09-14T08:58:02Z</time>
      </trkpt>
      <trkpt lat="45.98832" lon="4.87755">
        <ele>274</ele>
        <time>2016-09-14T08:58:03Z</time>
      </trkpt>
      <trkpt lat="45.98834" lon="4.87763">
        <ele>273</ele>
        <time>2016-09-14T08:58:04Z</time>
      </trkpt>
      <trkpt lat="45.98835" lon="4.87771">
        <ele>273</ele>
        <time>2016-09-14T08:58:05Z</time>
      </trkpt>
      <trkpt lat="45.98837" lon="4.87779">
        <ele>273</ele>
        <time>2016-09-14T08:58:06Z</time>
      </trkpt>
      <trkpt lat="45.9884" lon="4.87787">
        <ele>273</ele>
        <time>2016-09-14T08:58:07Z</time>
      </trkpt>
      <trkpt lat="45.98842" lon="4.87794">
        <ele>273</ele>
        <time>2016-09-14T08:58:08Z</time>
      </trkpt>
      <trkpt lat="45.98843" lon="4.87802">
        <ele>273</ele>
        <time>2016-09-14T08:58:09Z</time>
      </trkpt>
      <trkpt lat="45.98846" lon="4.87809">
        <ele>273</ele>
        <time>2016-09-14T08:58:10Z</time>
      </trkpt>
      <trkpt lat="45.98848" lon="4.87817">
        <ele>273</ele>
        <time>2016-09-14T08:58:11Z</time>
      </trkpt>
      <trkpt lat="45.98851" lon="4.87825">
        <ele>273</ele>
        <time>2016-09-14T08:58:12Z</time>
      </trkpt>
      <trkpt lat="45.98855" lon="4.87833">
        <ele>273</ele>
        <time>2016-09-14T08:58:13Z</time>
      </trkpt>
      <trkpt lat="45.98859" lon="4.87841">
        <ele>273</ele>
        <time>2016-09-14T08:58:14Z</time>
      </trkpt>
      <trkpt lat="45.98862" lon="4.87848">
        <ele>273</ele>
        <time>2016-09-14T08:58:15Z</time>
      </trkpt>
      <trkpt lat="45.98866" lon="4.87855">
        <ele>273</ele>
        <time>2016-09-14T08:58:16Z</time>
      </trkpt>
      <trkpt lat="45.9887" lon="4.87861">
        <ele>273</ele>
        <time>2016-09-14T08:58:17Z</time>
      </trkpt>
      <trkpt lat="45.98874" lon="4.87867">
        <ele>273</ele>
        <time>2016-09-14T08:58:18Z</time>
      </trkpt>
      <trkpt lat="45.98878" lon="4.87873">
        <ele>272</ele>
        <time>2016-09-14T08:58:19Z</time>
      </trkpt>
      <trkpt lat="45.98882" lon="4.87879">
        <ele>272</ele>
        <time>2016-09-14T08:58:20Z</time>
      </trkpt>
      <trkpt lat="45.98886" lon="4.87884">
        <ele>272</ele>
        <time>2016-09-14T08:58:21Z</time>
      </trkpt>
      <trkpt lat="45.9889" lon="4.87889">
        <ele>272</ele>
        <time>2016-09-14T08:58:22Z</time>
      </trkpt>
      <trkpt lat="45.98895" lon="4.87894">
        <ele>272</ele>
        <time>2016-09-14T08:58:23Z</time>
      </trkpt>
      <trkpt lat="45.98899" lon="4.87899">
        <ele>272</ele>
        <time>2016-09-14T08:58:24Z</time>
      </trkpt>
      <trkpt lat="45.98903" lon="4.87904">
        <ele>272</ele>
        <time>2016-09-14T08:58:25Z</time>
      </trkpt>
      <trkpt lat="45.98908" lon="4.87908">
        <ele>272</ele>
        <time>2016-09-14T08:58:26Z</time>
      </trkpt>
      <trkpt lat="45.98912" lon="4.87912">
        <ele>271</ele>
        <time>2016-09-14T08:58:27Z</time>
      </trkpt>
      <trkpt lat="45.98916" lon="4.87915">
        <ele>271</ele>
        <time>2016-09-14T08:58:28Z</time>
      </trkpt>
      <trkpt lat="45.9892" lon="4.87919">
        <ele>271</ele>
        <time>2016-09-14T08:58:29Z</time>
      </trkpt>
      <trkpt lat="45.98925" lon="4.87922">
        <ele>272</ele>
        <time>2016-09-14T08:58:30Z</time>
      </trkpt>
      <trkpt lat="45.9893" lon="4.87924">
        <ele>272</ele>
        <time>2016-09-14T08:58:31Z</time>
      </trkpt>
      <trkpt lat="45.98935" lon="4.87928">
        <ele>272</ele>
        <time>2016-09-14T08:58:32Z</time>
      </trkpt>
      <trkpt lat="45.98939" lon="4.87931">
        <ele>273</ele>
        <time>2016-09-14T08:58:33Z</time>
      </trkpt>
      <trkpt lat="45.98944" lon="4.87933">
        <ele>273</ele>
        <time>2016-09-14T08:58:34Z</time>
      </trkpt>
      <trkpt lat="45.98948" lon="4.87935">
        <ele>273</ele>
        <time>2016-09-14T08:58:35Z</time>
      </trkpt>
      <trkpt lat="45.98956" lon="4.87939">
        <ele>273</ele>
        <time>2016-09-14T08:58:37Z</time>
      </trkpt>
      <trkpt lat="45.98961" lon="4.87942">
        <ele>273</ele>
        <time>2016-09-14T08:58:38Z</time>
      </trkpt>
      <trkpt lat="45.98969" lon="4.87946">
        <ele>274</ele>
        <time>2016-09-14T08:58:40Z</time>
      </trkpt>
      <trkpt lat="45.98973" lon="4.87948">
        <ele>274</ele>
        <time>2016-09-14T08:58:41Z</time>
      </trkpt>
      <trkpt lat="45.98981" lon="4.87951">
        <ele>274</ele>
        <time>2016-09-14T08:58:43Z</time>
      </trkpt>
      <trkpt lat="45.98984" lon="4.87953">
        <ele>274</ele>
        <time>2016-09-14T08:58:44Z</time>
      </trkpt>
      <trkpt lat="45.98992" lon="4.87957">
        <ele>274</ele>
        <time>2016-09-14T08:58:46Z</time>
      </trkpt>
      <trkpt lat="45.98995" lon="4.87958">
        <ele>274</ele>
        <time>2016-09-14T08:58:47Z</time>
      </trkpt>
      <trkpt lat="45.99002" lon="4.87962">
        <ele>276</ele>
        <time>2016-09-14T08:58:49Z</time>
      </trkpt>
      <trkpt lat="45.99005" lon="4.87963">
        <ele>276</ele>
        <time>2016-09-14T08:58:50Z</time>
      </trkpt>
      <trkpt lat="45.99013" lon="4.87967">
        <ele>276</ele>
        <time>2016-09-14T08:58:52Z</time>
      </trkpt>
      <trkpt lat="45.99016" lon="4.87969">
        <ele>276</ele>
        <time>2016-09-14T08:58:53Z</time>
      </trkpt>
      <trkpt lat="45.99023" lon="4.87974">
        <ele>276</ele>
        <time>2016-09-14T08:58:55Z</time>
      </trkpt>
      <trkpt lat="45.99026" lon="4.87976">
        <ele>276</ele>
        <time>2016-09-14T08:58:56Z</time>
      </trkpt>
      <trkpt lat="45.99032" lon="4.87979">
        <ele>276</ele>
        <time>2016-09-14T08:58:58Z</time>
      </trkpt>
      <trkpt lat="45.99036" lon="4.8798">
        <ele>276</ele>
        <time>2016-09-14T08:58:59Z</time>
      </trkpt>
      <trkpt lat="45.99043" lon="4.87985">
        <ele>277</ele>
        <time>2016-09-14T08:59:01Z</time>
      </trkpt>
      <trkpt lat="45.99047" lon="4.87988">
        <ele>277</ele>
        <time>2016-09-14T08:59:02Z</time>
      </trkpt>
      <trkpt lat="45.99055" lon="4.87993">
        <ele>277</ele>
        <time>2016-09-14T08:59:04Z</time>
      </trkpt>
      <trkpt lat="45.99059" lon="4.87994">
        <ele>277</ele>
        <time>2016-09-14T08:59:05Z</time>
      </trkpt>
      <trkpt lat="45.99063" lon="4.87996">
        <ele>277</ele>
        <time>2016-09-14T08:59:06Z</time>
      </trkpt>
      <trkpt lat="45.99067" lon="4.87999">
        <ele>277</ele>
        <time>2016-09-14T08:59:07Z</time>
      </trkpt>
      <trkpt lat="45.99075" lon="4.88004">
        <ele>278</ele>
        <time>2016-09-14T08:59:09Z</time>
      </trkpt>
      <trkpt lat="45.9908" lon="4.88006">
        <ele>278</ele>
        <time>2016-09-14T08:59:10Z</time>
      </trkpt>
      <trkpt lat="45.99088" lon="4.88011">
        <ele>278</ele>
        <time>2016-09-14T08:59:12Z</time>
      </trkpt>
      <trkpt lat="45.99092" lon="4.88013">
        <ele>278</ele>
        <time>2016-09-14T08:59:13Z</time>
      </trkpt>
      <trkpt lat="45.991" lon="4.88018">
        <ele>278</ele>
        <time>2016-09-14T08:59:15Z</time>
      </trkpt>
      <trkpt lat="45.99104" lon="4.88021">
        <ele>278</ele>
        <time>2016-09-14T08:59:16Z</time>
      </trkpt>
      <trkpt lat="45.99112" lon="4.88024">
        <ele>278</ele>
        <time>2016-09-14T08:59:18Z</time>
      </trkpt>
      <trkpt lat="45.99116" lon="4.88027">
        <ele>278</ele>
        <time>2016-09-14T08:59:19Z</time>
      </trkpt>
      <trkpt lat="45.9912" lon="4.88029">
        <ele>278</ele>
        <time>2016-09-14T08:59:20Z</time>
      </trkpt>
      <trkpt lat="45.99125" lon="4.88032">
        <ele>278</ele>
        <time>2016-09-14T08:59:21Z</time>
      </trkpt>
      <trkpt lat="45.99133" lon="4.88037">
        <ele>279</ele>
        <time>2016-09-14T08:59:23Z</time>
      </trkpt>
      <trkpt lat="45.99137" lon="4.88039">
        <ele>279</ele>
        <time>2016-09-14T08:59:24Z</time>
      </trkpt>
      <trkpt lat="45.99145" lon="4.88043">
        <ele>279</ele>
        <time>2016-09-14T08:59:26Z</time>
      </trkpt>
      <trkpt lat="45.99149" lon="4.88046">
        <ele>279</ele>
        <time>2016-09-14T08:59:27Z</time>
      </trkpt>
      <trkpt lat="45.99157" lon="4.88052">
        <ele>279</ele>
        <time>2016-09-14T08:59:29Z</time>
      </trkpt>
      <trkpt lat="45.99161" lon="4.88055">
        <ele>279</ele>
        <time>2016-09-14T08:59:30Z</time>
      </trkpt>
      <trkpt lat="45.99169" lon="4.8806">
        <ele>279</ele>
        <time>2016-09-14T08:59:32Z</time>
      </trkpt>
      <trkpt lat="45.99173" lon="4.88064">
        <ele>279</ele>
        <time>2016-09-14T08:59:33Z</time>
      </trkpt>
      <trkpt lat="45.99177" lon="4.88067">
        <ele>279</ele>
        <time>2016-09-14T08:59:34Z</time>
      </trkpt>
      <trkpt lat="45.99181" lon="4.88071">
        <ele>279</ele>
        <time>2016-09-14T08:59:35Z</time>
      </trkpt>
      <trkpt lat="45.99185" lon="4.88074">
        <ele>279</ele>
        <time>2016-09-14T08:59:36Z</time>
      </trkpt>
      <trkpt lat="45.99189" lon="4.88077">
        <ele>280</ele>
        <time>2016-09-14T08:59:37Z</time>
      </trkpt>
      <trkpt lat="45.99196" lon="4.88083">
        <ele>280</ele>
        <time>2016-09-14T08:59:39Z</time>
      </trkpt>
      <trkpt lat="45.99199" lon="4.88086">
        <ele>280</ele>
        <time>2016-09-14T08:59:40Z</time>
      </trkpt>
      <trkpt lat="45.99203" lon="4.8809">
        <ele>280</ele>
        <time>2016-09-14T08:59:41Z</time>
      </trkpt>
      <trkpt lat="45.99207" lon="4.88093">
        <ele>280</ele>
        <time>2016-09-14T08:59:42Z</time>
      </trkpt>
      <trkpt lat="45.99211" lon="4.88097">
        <ele>280</ele>
        <time>2016-09-14T08:59:43Z</time>
      </trkpt>
      <trkpt lat="45.99215" lon="4.88101">
        <ele>280</ele>
        <time>2016-09-14T08:59:44Z</time>
      </trkpt>
      <trkpt lat="45.99219" lon="4.88104">
        <ele>280</ele>
        <time>2016-09-14T08:59:45Z</time>
      </trkpt>
      <trkpt lat="45.99223" lon="4.88108">
        <ele>280</ele>
        <time>2016-09-14T08:59:46Z</time>
      </trkpt>
      <trkpt lat="45.99227" lon="4.88111">
        <ele>280</ele>
        <time>2016-09-14T08:59:47Z</time>
      </trkpt>
      <trkpt lat="45.99231" lon="4.88115">
        <ele>280</ele>
        <time>2016-09-14T08:59:48Z</time>
      </trkpt>
      <trkpt lat="45.99235" lon="4.88119">
        <ele>280</ele>
        <time>2016-09-14T08:59:49Z</time>
      </trkpt>
      <trkpt lat="45.99239" lon="4.88123">
        <ele>280</ele>
        <time>2016-09-14T08:59:50Z</time>
      </trkpt>
      <trkpt lat="45.99243" lon="4.88127">
        <ele>280</ele>
        <time>2016-09-14T08:59:51Z</time>
      </trkpt>
      <trkpt lat="45.99248" lon="4.8813">
        <ele>280</ele>
        <time>2016-09-14T08:59:52Z</time>
      </trkpt>
      <trkpt lat="45.99252" lon="4.88134">
        <ele>283</ele>
        <time>2016-09-14T08:59:53Z</time>
      </trkpt>
      <trkpt lat="45.99256" lon="4.88138">
        <ele>283</ele>
        <time>2016-09-14T08:59:54Z</time>
      </trkpt>
      <trkpt lat="45.9926" lon="4.88141">
        <ele>283</ele>
        <time>2016-09-14T08:59:55Z</time>
      </trkpt>
      <trkpt lat="45.99264" lon="4.88145">
        <ele>283</ele>
        <time>2016-09-14T08:59:56Z</time>
      </trkpt>
      <trkpt lat="45.99272" lon="4.88152">
        <ele>283</ele>
        <time>2016-09-14T08:59:58Z</time>
      </trkpt>
      <trkpt lat="45.99275" lon="4.88155">
        <ele>283</ele>
        <time>2016-09-14T08:59:59Z</time>
      </trkpt>
      <trkpt lat="45.99279" lon="4.88158">
        <ele>283</ele>
        <time>2016-09-14T09:00:00Z</time>
      </trkpt>
      <trkpt lat="45.99283" lon="4.88162">
        <ele>284</ele>
        <time>2016-09-14T09:00:01Z</time>
      </trkpt>
      <trkpt lat="45.99287" lon="4.88165">
        <ele>284</ele>
        <time>2016-09-14T09:00:02Z</time>
      </trkpt>
      <trkpt lat="45.99292" lon="4.88169">
        <ele>284</ele>
        <time>2016-09-14T09:00:03Z</time>
      </trkpt>
      <trkpt lat="45.99296" lon="4.88173">
        <ele>284</ele>
        <time>2016-09-14T09:00:04Z</time>
      </trkpt>
      <trkpt lat="45.993" lon="4.88176">
        <ele>285</ele>
        <time>2016-09-14T09:00:05Z</time>
      </trkpt>
      <trkpt lat="45.99304" lon="4.8818">
        <ele>285</ele>
        <time>2016-09-14T09:00:06Z</time>
      </trkpt>
      <trkpt lat="45.99308" lon="4.88183">
        <ele>285</ele>
        <time>2016-09-14T09:00:07Z</time>
      </trkpt>
      <trkpt lat="45.99315" lon="4.8819">
        <ele>285</ele>
        <time>2016-09-14T09:00:09Z</time>
      </trkpt>
      <trkpt lat="45.99319" lon="4.88193">
        <ele>285</ele>
        <time>2016-09-14T09:00:10Z</time>
      </trkpt>
      <trkpt lat="45.99323" lon="4.88197">
        <ele>285</ele>
        <time>2016-09-14T09:00:11Z</time>
      </trkpt>
      <trkpt lat="45.99327" lon="4.88201">
        <ele>285</ele>
        <time>2016-09-14T09:00:12Z</time>
      </trkpt>
      <trkpt lat="45.99331" lon="4.88205">
        <ele>285</ele>
        <time>2016-09-14T09:00:13Z</time>
      </trkpt>
      <trkpt lat="45.99335" lon="4.88209">
        <ele>287</ele>
        <time>2016-09-14T09:00:14Z</time>
      </trkpt>
      <trkpt lat="45.99339" lon="4.88212">
        <ele>287</ele>
        <time>2016-09-14T09:00:15Z</time>
      </trkpt>
      <trkpt lat="45.99343" lon="4.88216">
        <ele>287</ele>
        <time>2016-09-14T09:00:16Z</time>
      </trkpt>
      <trkpt lat="45.99347" lon="4.88219">
        <ele>287</ele>
        <time>2016-09-14T09:00:17Z</time>
      </trkpt>
      <trkpt lat="45.99351" lon="4.88222">
        <ele>287</ele>
        <time>2016-09-14T09:00:18Z</time>
      </trkpt>
      <trkpt lat="45.99355" lon="4.88225">
        <ele>287</ele>
        <time>2016-09-14T09:00:19Z</time>
      </trkpt>
      <trkpt lat="45.99359" lon="4.88228">
        <ele>287</ele>
        <time>2016-09-14T09:00:20Z</time>
      </trkpt>
      <trkpt lat="45.99363" lon="4.88232">
        <ele>287</ele>
        <time>2016-09-14T09:00:21Z</time>
      </trkpt>
      <trkpt lat="45.99367" lon="4.88236">
        <ele>287</ele>
        <time>2016-09-14T09:00:22Z</time>
      </trkpt>
      <trkpt lat="45.9937" lon="4.88241">
        <ele>287</ele>
        <time>2016-09-14T09:00:23Z</time>
      </trkpt>
      <trkpt lat="45.99374" lon="4.88246">
        <ele>287</ele>
        <time>2016-09-14T09:00:24Z</time>
      </trkpt>
      <trkpt lat="45.99377" lon="4.88252">
        <ele>285</ele>
        <time>2016-09-14T09:00:25Z</time>
      </trkpt>
      <trkpt lat="45.9938" lon="4.88258">
        <ele>285</ele>
        <time>2016-09-14T09:00:26Z</time>
      </trkpt>
      <trkpt lat="45.99383" lon="4.88264">
        <ele>285</ele>
        <time>2016-09-14T09:00:27Z</time>
      </trkpt>
      <trkpt lat="45.99386" lon="4.8827">
        <ele>285</ele>
        <time>2016-09-14T09:00:28Z</time>
      </trkpt>
      <trkpt lat="45.99389" lon="4.88276">
        <ele>284</ele>
        <time>2016-09-14T09:00:29Z</time>
      </trkpt>
      <trkpt lat="45.99391" lon="4.88282">
        <ele>284</ele>
        <time>2016-09-14T09:00:30Z</time>
      </trkpt>
      <trkpt lat="45.99394" lon="4.88293">
        <ele>284</ele>
        <time>2016-09-14T09:00:32Z</time>
      </trkpt>
      <trkpt lat="45.99396" lon="4.88299">
        <ele>284</ele>
        <time>2016-09-14T09:00:33Z</time>
      </trkpt>
      <trkpt lat="45.99399" lon="4.8831">
        <ele>283</ele>
        <time>2016-09-14T09:00:35Z</time>
      </trkpt>
      <trkpt lat="45.99401" lon="4.88315">
        <ele>283</ele>
        <time>2016-09-14T09:00:36Z</time>
      </trkpt>
      <trkpt lat="45.99403" lon="4.88321">
        <ele>283</ele>
        <time>2016-09-14T09:00:37Z</time>
      </trkpt>
      <trkpt lat="45.99405" lon="4.88328">
        <ele>283</ele>
        <time>2016-09-14T09:00:38Z</time>
      </trkpt>
      <trkpt lat="45.99408" lon="4.88335">
        <ele>282</ele>
        <time>2016-09-14T09:00:39Z</time>
      </trkpt>
      <trkpt lat="45.9941" lon="4.88341">
        <ele>282</ele>
        <time>2016-09-14T09:00:40Z</time>
      </trkpt>
      <trkpt lat="45.99413" lon="4.88348">
        <ele>282</ele>
        <time>2016-09-14T09:00:41Z</time>
      </trkpt>
      <trkpt lat="45.99415" lon="4.88354">
        <ele>282</ele>
        <time>2016-09-14T09:00:42Z</time>
      </trkpt>
      <trkpt lat="45.99418" lon="4.8836">
        <ele>283</ele>
        <time>2016-09-14T09:00:43Z</time>
      </trkpt>
      <trkpt lat="45.9942" lon="4.88366">
        <ele>283</ele>
        <time>2016-09-14T09:00:44Z</time>
      </trkpt>
      <trkpt lat="45.99422" lon="4.88372">
        <ele>283</ele>
        <time>2016-09-14T09:00:45Z</time>
      </trkpt>
      <trkpt lat="45.99424" lon="4.88378">
        <ele>283</ele>
        <time>2016-09-14T09:00:46Z</time>
      </trkpt>
      <trkpt lat="45.99427" lon="4.88383">
        <ele>283</ele>
        <time>2016-09-14T09:00:47Z</time>
      </trkpt>
      <trkpt lat="45.99429" lon="4.88389">
        <ele>283</ele>
        <time>2016-09-14T09:00:48Z</time>
      </trkpt>
      <trkpt lat="45.99433" lon="4.88394">
        <ele>283</ele>
        <time>2016-09-14T09:00:49Z</time>
      </trkpt>
      <trkpt lat="45.99436" lon="4.88399">
        <ele>283</ele>
        <time>2016-09-14T09:00:50Z</time>
      </trkpt>
      <trkpt lat="45.9944" lon="4.88404">
        <ele>283</ele>
        <time>2016-09-14T09:00:51Z</time>
      </trkpt>
      <trkpt lat="45.99443" lon="4.88409">
        <ele>283</ele>
        <time>2016-09-14T09:00:52Z</time>
      </trkpt>
      <trkpt lat="45.99447" lon="4.88413">
        <ele>283</ele>
        <time>2016-09-14T09:00:53Z</time>
      </trkpt>
      <trkpt lat="45.99452" lon="4.88417">
        <ele>283</ele>
        <time>2016-09-14T09:00:54Z</time>
      </trkpt>
      <trkpt lat="45.99456" lon="4.88421">
        <ele>283</ele>
        <time>2016-09-14T09:00:55Z</time>
      </trkpt>
      <trkpt lat="45.99461" lon="4.88424">
        <ele>284</ele>
        <time>2016-09-14T09:00:56Z</time>
      </trkpt>
      <trkpt lat="45.99466" lon="4.88428">
        <ele>284</ele>
        <time>2016-09-14T09:00:57Z</time>
      </trkpt>
      <trkpt lat="45.9947" lon="4.88432">
        <ele>284</ele>
        <time>2016-09-14T09:00:58Z</time>
      </trkpt>
      <trkpt lat="45.99474" lon="4.88438">
        <ele>284</ele>
        <time>2016-09-14T09:00:59Z</time>
      </trkpt>
      <trkpt lat="45.99478" lon="4.88444">
        <ele>284</ele>
        <time>2016-09-14T09:01:00Z</time>
      </trkpt>
      <trkpt lat="45.99481" lon="4.88449">
        <ele>284</ele>
        <time>2016-09-14T09:01:01Z</time>
      </trkpt>
      <trkpt lat="45.99485" lon="4.88455">
        <ele>284</ele>
        <time>2016-09-14T09:01:02Z</time>
      </trkpt>
      <trkpt lat="45.99488" lon="4.8846">
        <ele>284</ele>
        <time>2016-09-14T09:01:03Z</time>
      </trkpt>
      <trkpt lat="45.99491" lon="4.88465">
        <ele>284</ele>
        <time>2016-09-14T09:01:04Z</time>
      </trkpt>
      <trkpt lat="45.99494" lon="4.88471">
        <ele>284</ele>
        <time>2016-09-14T09:01:05Z</time>
      </trkpt>
      <trkpt lat="45.99498" lon="4.88477">
        <ele>284</ele>
        <time>2016-09-14T09:01:06Z</time>
      </trkpt>
      <trkpt lat="45.99502" lon="4.88483">
        <ele>284</ele>
        <time>2016-09-14T09:01:07Z</time>
      </trkpt>
      <trkpt lat="45.99506" lon="4.88489">
        <ele>284</ele>
        <time>2016-09-14T09:01:08Z</time>
      </trkpt>
      <trkpt lat="45.99509" lon="4.88496">
        <ele>284</ele>
        <time>2016-09-14T09:01:09Z</time>
      </trkpt>
      <trkpt lat="45.99511" lon="4.88502">
        <ele>284</ele>
        <time>2016-09-14T09:01:10Z</time>
      </trkpt>
      <trkpt lat="45.99514" lon="4.88508">
        <ele>285</ele>
        <time>2016-09-14T09:01:11Z</time>
      </trkpt>
      <trkpt lat="45.99517" lon="4.88514">
        <ele>285</ele>
        <time>2016-09-14T09:01:12Z</time>
      </trkpt>
      <trkpt lat="45.9952" lon="4.88519">
        <ele>285</ele>
        <time>2016-09-14T09:01:13Z</time>
      </trkpt>
      <trkpt lat="45.99523" lon="4.88525">
        <ele>285</ele>
        <time>2016-09-14T09:01:14Z</time>
      </trkpt>
      <trkpt lat="45.99526" lon="4.88531">
        <ele>285</ele>
        <time>2016-09-14T09:01:15Z</time>
      </trkpt>
      <trkpt lat="45.99529" lon="4.88536">
        <ele>285</ele>
        <time>2016-09-14T09:01:16Z</time>
      </trkpt>
      <trkpt lat="45.99531" lon="4.88542">
        <ele>285</ele>
        <time>2016-09-14T09:01:17Z</time>
      </trkpt>
      <trkpt lat="45.99534" lon="4.88548">
        <ele>285</ele>
        <time>2016-09-14T09:01:18Z</time>
      </trkpt>
      <trkpt lat="45.99537" lon="4.88554">
        <ele>285</ele>
        <time>2016-09-14T09:01:19Z</time>
      </trkpt>
      <trkpt lat="45.99539" lon="4.8856">
        <ele>285</ele>
        <time>2016-09-14T09:01:20Z</time>
      </trkpt>
      <trkpt lat="45.9954" lon="4.88567">
        <ele>285</ele>
        <time>2016-09-14T09:01:21Z</time>
      </trkpt>
      <trkpt lat="45.99542" lon="4.88573">
        <ele>286</ele>
        <time>2016-09-14T09:01:22Z</time>
      </trkpt>
      <trkpt lat="45.99544" lon="4.8858">
        <ele>286</ele>
        <time>2016-09-14T09:01:23Z</time>
      </trkpt>
      <trkpt lat="45.99546" lon="4.88587">
        <ele>286</ele>
        <time>2016-09-14T09:01:24Z</time>
      </trkpt>
      <trkpt lat="45.99547" lon="4.88594">
        <ele>286</ele>
        <time>2016-09-14T09:01:25Z</time>
      </trkpt>
      <trkpt lat="45.99548" lon="4.88601">
        <ele>286</ele>
        <time>2016-09-14T09:01:26Z</time>
      </trkpt>
      <trkpt lat="45.99548" lon="4.88608">
        <ele>286</ele>
        <time>2016-09-14T09:01:27Z</time>
      </trkpt>
      <trkpt lat="45.99549" lon="4.88615">
        <ele>286</ele>
        <time>2016-09-14T09:01:28Z</time>
      </trkpt>
      <trkpt lat="45.99549" lon="4.88623">
        <ele>286</ele>
        <time>2016-09-14T09:01:29Z</time>
      </trkpt>
      <trkpt lat="45.9955" lon="4.8863">
        <ele>286</ele>
        <time>2016-09-14T09:01:30Z</time>
      </trkpt>
      <trkpt lat="45.9955" lon="4.88637">
        <ele>286</ele>
        <time>2016-09-14T09:01:31Z</time>
      </trkpt>
      <trkpt lat="45.99551" lon="4.88645">
        <ele>286</ele>
        <time>2016-09-14T09:01:32Z</time>
      </trkpt>
      <trkpt lat="45.99551" lon="4.88652">
        <ele>286</ele>
        <time>2016-09-14T09:01:33Z</time>
      </trkpt>
      <trkpt lat="45.99552" lon="4.88659">
        <ele>286</ele>
        <time>2016-09-14T09:01:34Z</time>
      </trkpt>
      <trkpt lat="45.99553" lon="4.88672">
        <ele>286</ele>
        <time>2016-09-14T09:01:36Z</time>
      </trkpt>
      <trkpt lat="45.99553" lon="4.88677">
        <ele>286</ele>
        <time>2016-09-14T09:01:37Z</time>
      </trkpt>
      <trkpt lat="45.99555" lon="4.88689">
        <ele>286</ele>
        <time>2016-09-14T09:01:39Z</time>
      </trkpt>
      <trkpt lat="45.99555" lon="4.88696">
        <ele>286</ele>
        <time>2016-09-14T09:01:40Z</time>
      </trkpt>
      <trkpt lat="45.99556" lon="4.88704">
        <ele>286</ele>
        <time>2016-09-14T09:01:41Z</time>
      </trkpt>
      <trkpt lat="45.99557" lon="4.88712">
        <ele>286</ele>
        <time>2016-09-14T09:01:42Z</time>
      </trkpt>
      <trkpt lat="45.99558" lon="4.8872">
        <ele>286</ele>
        <time>2016-09-14T09:01:43Z</time>
      </trkpt>
      <trkpt lat="45.99559" lon="4.88728">
        <ele>286</ele>
        <time>2016-09-14T09:01:44Z</time>
      </trkpt>
      <trkpt lat="45.99559" lon="4.88735">
        <ele>286</ele>
        <time>2016-09-14T09:01:45Z</time>
      </trkpt>
      <trkpt lat="45.9956" lon="4.88743">
        <ele>287</ele>
        <time>2016-09-14T09:01:46Z</time>
      </trkpt>
      <trkpt lat="45.99561" lon="4.88751">
        <ele>287</ele>
        <time>2016-09-14T09:01:47Z</time>
      </trkpt>
      <trkpt lat="45.99561" lon="4.88758">
        <ele>287</ele>
        <time>2016-09-14T09:01:48Z</time>
      </trkpt>
      <trkpt lat="45.99563" lon="4.88765">
        <ele>287</ele>
        <time>2016-09-14T09:01:49Z</time>
      </trkpt>
      <trkpt lat="45.99564" lon="4.88771">
        <ele>287</ele>
        <time>2016-09-14T09:01:50Z</time>
      </trkpt>
      <trkpt lat="45.99564" lon="4.88778">
        <ele>287</ele>
        <time>2016-09-14T09:01:51Z</time>
      </trkpt>
      <trkpt lat="45.99564" lon="4.88784">
        <ele>287</ele>
        <time>2016-09-14T09:01:52Z</time>
      </trkpt>
      <trkpt lat="45.99565" lon="4.88791">
        <ele>287</ele>
        <time>2016-09-14T09:01:53Z</time>
      </trkpt>
      <trkpt lat="45.99565" lon="4.88797">
        <ele>287</ele>
        <time>2016-09-14T09:01:54Z</time>
      </trkpt>
      <trkpt lat="45.99566" lon="4.88804">
        <ele>287</ele>
        <time>2016-09-14T09:01:55Z</time>
      </trkpt>
      <trkpt lat="45.99567" lon="4.88811">
        <ele>287</ele>
        <time>2016-09-14T09:01:56Z</time>
      </trkpt>
      <trkpt lat="45.99567" lon="4.88818">
        <ele>287</ele>
        <time>2016-09-14T09:01:57Z</time>
      </trkpt>
      <trkpt lat="45.99568" lon="4.88825">
        <ele>287</ele>
        <time>2016-09-14T09:01:58Z</time>
      </trkpt>
      <trkpt lat="45.99569" lon="4.88832">
        <ele>287</ele>
        <time>2016-09-14T09:01:59Z</time>
      </trkpt>
      <trkpt lat="45.9957" lon="4.88839">
        <ele>287</ele>
        <time>2016-09-14T09:02:00Z</time>
      </trkpt>
      <trkpt lat="45.9957" lon="4.88847">
        <ele>287</ele>
        <time>2016-09-14T09:02:01Z</time>
      </trkpt>
      <trkpt lat="45.99571" lon="4.88854">
        <ele>287</ele>
        <time>2016-09-14T09:02:02Z</time>
      </trkpt>
      <trkpt lat="45.99571" lon="4.88862">
        <ele>287</ele>
        <time>2016-09-14T09:02:03Z</time>
      </trkpt>
      <trkpt lat="45.99572" lon="4.8887">
        <ele>287</ele>
        <time>2016-09-14T09:02:04Z</time>
      </trkpt>
      <trkpt lat="45.99573" lon="4.88878">
        <ele>287</ele>
        <time>2016-09-14T09:02:05Z</time>
      </trkpt>
      <trkpt lat="45.99573" lon="4.88885">
        <ele>287</ele>
        <time>2016-09-14T09:02:06Z</time>
      </trkpt>
      <trkpt lat="45.99574" lon="4.88893">
        <ele>287</ele>
        <time>2016-09-14T09:02:07Z</time>
      </trkpt>
      <trkpt lat="45.99574" lon="4.889">
        <ele>287</ele>
        <time>2016-09-14T09:02:08Z</time>
      </trkpt>
      <trkpt lat="45.99576" lon="4.88912">
        <ele>287</ele>
        <time>2016-09-14T09:02:10Z</time>
      </trkpt>
      <trkpt lat="45.99576" lon="4.88919">
        <ele>287</ele>
        <time>2016-09-14T09:02:11Z</time>
      </trkpt>
      <trkpt lat="45.99576" lon="4.88925">
        <ele>287</ele>
        <time>2016-09-14T09:02:12Z</time>
      </trkpt>
      <trkpt lat="45.99576" lon="4.88932">
        <ele>287</ele>
        <time>2016-09-14T09:02:13Z</time>
      </trkpt>
      <trkpt lat="45.99576" lon="4.88939">
        <ele>287</ele>
        <time>2016-09-14T09:02:14Z</time>
      </trkpt>
      <trkpt lat="45.99577" lon="4.88947">
        <ele>287</ele>
        <time>2016-09-14T09:02:15Z</time>
      </trkpt>
      <trkpt lat="45.99577" lon="4.88955">
        <ele>287</ele>
        <time>2016-09-14T09:02:16Z</time>
      </trkpt>
      <trkpt lat="45.99577" lon="4.88963">
        <ele>287</ele>
        <time>2016-09-14T09:02:17Z</time>
      </trkpt>
      <trkpt lat="45.99577" lon="4.8897">
        <ele>287</ele>
        <time>2016-09-14T09:02:18Z</time>
      </trkpt>
      <trkpt lat="45.99577" lon="4.88977">
        <ele>287</ele>
        <time>2016-09-14T09:02:19Z</time>
      </trkpt>
      <trkpt lat="45.99578" lon="4.88985">
        <ele>288</ele>
        <time>2016-09-14T09:02:20Z</time>
      </trkpt>
      <trkpt lat="45.99578" lon="4.88992">
        <ele>288</ele>
        <time>2016-09-14T09:02:21Z</time>
      </trkpt>
      <trkpt lat="45.99577" lon="4.89004">
        <ele>288</ele>
        <time>2016-09-14T09:02:23Z</time>
      </trkpt>
      <trkpt lat="45.99577" lon="4.89011">
        <ele>288</ele>
        <time>2016-09-14T09:02:24Z</time>
      </trkpt>
      <trkpt lat="45.99577" lon="4.89017">
        <ele>288</ele>
        <time>2016-09-14T09:02:25Z</time>
      </trkpt>
      <trkpt lat="45.99576" lon="4.89024">
        <ele>288</ele>
        <time>2016-09-14T09:02:26Z</time>
      </trkpt>
      <trkpt lat="45.99576" lon="4.89031">
        <ele>288</ele>
        <time>2016-09-14T09:02:27Z</time>
      </trkpt>
      <trkpt lat="45.99575" lon="4.89038">
        <ele>288</ele>
        <time>2016-09-14T09:02:28Z</time>
      </trkpt>
      <trkpt lat="45.99574" lon="4.89045">
        <ele>288</ele>
        <time>2016-09-14T09:02:29Z</time>
      </trkpt>
      <trkpt lat="45.99573" lon="4.89052">
        <ele>288</ele>
        <time>2016-09-14T09:02:30Z</time>
      </trkpt>
      <trkpt lat="45.99572" lon="4.8906">
        <ele>289</ele>
        <time>2016-09-14T09:02:31Z</time>
      </trkpt>
      <trkpt lat="45.99571" lon="4.89067">
        <ele>289</ele>
        <time>2016-09-14T09:02:32Z</time>
      </trkpt>
      <trkpt lat="45.99571" lon="4.89074">
        <ele>289</ele>
        <time>2016-09-14T09:02:33Z</time>
      </trkpt>
      <trkpt lat="45.9957" lon="4.89082">
        <ele>289</ele>
        <time>2016-09-14T09:02:34Z</time>
      </trkpt>
      <trkpt lat="45.99569" lon="4.89089">
        <ele>289</ele>
        <time>2016-09-14T09:02:35Z</time>
      </trkpt>
      <trkpt lat="45.99568" lon="4.89096">
        <ele>289</ele>
        <time>2016-09-14T09:02:36Z</time>
      </trkpt>
      <trkpt lat="45.99568" lon="4.89103">
        <ele>289</ele>
        <time>2016-09-14T09:02:37Z</time>
      </trkpt>
      <trkpt lat="45.99568" lon="4.89111">
        <ele>289</ele>
        <time>2016-09-14T09:02:38Z</time>
      </trkpt>
      <trkpt lat="45.99568" lon="4.89118">
        <ele>289</ele>
        <time>2016-09-14T09:02:39Z</time>
      </trkpt>
      <trkpt lat="45.99567" lon="4.89126">
        <ele>289</ele>
        <time>2016-09-14T09:02:40Z</time>
      </trkpt>
      <trkpt lat="45.99567" lon="4.89135">
        <ele>289</ele>
        <time>2016-09-14T09:02:41Z</time>
      </trkpt>
      <trkpt lat="45.99568" lon="4.89142">
        <ele>289</ele>
        <time>2016-09-14T09:02:42Z</time>
      </trkpt>
      <trkpt lat="45.99568" lon="4.8915">
        <ele>289</ele>
        <time>2016-09-14T09:02:43Z</time>
      </trkpt>
      <trkpt lat="45.99569" lon="4.89156">
        <ele>289</ele>
        <time>2016-09-14T09:02:44Z</time>
      </trkpt>
      <trkpt lat="45.99569" lon="4.89163">
        <ele>288</ele>
        <time>2016-09-14T09:02:45Z</time>
      </trkpt>
      <trkpt lat="45.9957" lon="4.8917">
        <ele>288</ele>
        <time>2016-09-14T09:02:46Z</time>
      </trkpt>
      <trkpt lat="45.99571" lon="4.89177">
        <ele>288</ele>
        <time>2016-09-14T09:02:47Z</time>
      </trkpt>
      <trkpt lat="45.99571" lon="4.89185">
        <ele>288</ele>
        <time>2016-09-14T09:02:48Z</time>
      </trkpt>
      <trkpt lat="45.99572" lon="4.89193">
        <ele>288</ele>
        <time>2016-09-14T09:02:49Z</time>
      </trkpt>
      <trkpt lat="45.99573" lon="4.892">
        <ele>288</ele>
        <time>2016-09-14T09:02:50Z</time>
      </trkpt>
      <trkpt lat="45.99574" lon="4.89207">
        <ele>288</ele>
        <time>2016-09-14T09:02:51Z</time>
      </trkpt>
      <trkpt lat="45.99574" lon="4.89214">
        <ele>288</ele>
        <time>2016-09-14T09:02:52Z</time>
      </trkpt>
      <trkpt lat="45.99575" lon="4.8922">
        <ele>288</ele>
        <time>2016-09-14T09:02:53Z</time>
      </trkpt>
      <trkpt lat="45.99575" lon="4.89226">
        <ele>288</ele>
        <time>2016-09-14T09:02:54Z</time>
      </trkpt>
      <trkpt lat="45.99576" lon="4.89239">
        <ele>288</ele>
        <time>2016-09-14T09:02:56Z</time>
      </trkpt>
      <trkpt lat="45.99577" lon="4.89245">
        <ele>288</ele>
        <time>2016-09-14T09:02:57Z</time>
      </trkpt>
      <trkpt lat="45.99577" lon="4.89252">
        <ele>288</ele>
        <time>2016-09-14T09:02:58Z</time>
      </trkpt>
      <trkpt lat="45.99578" lon="4.8926">
        <ele>288</ele>
        <time>2016-09-14T09:02:59Z</time>
      </trkpt>
      <trkpt lat="45.99578" lon="4.89267">
        <ele>288</ele>
        <time>2016-09-14T09:03:00Z</time>
      </trkpt>
      <trkpt lat="45.99579" lon="4.89275">
        <ele>288</ele>
        <time>2016-09-14T09:03:01Z</time>
      </trkpt>
      <trkpt lat="45.99579" lon="4.89283">
        <ele>288</ele>
        <time>2016-09-14T09:03:02Z</time>
      </trkpt>
      <trkpt lat="45.9958" lon="4.8929">
        <ele>288</ele>
        <time>2016-09-14T09:03:03Z</time>
      </trkpt>
      <trkpt lat="45.9958" lon="4.89298">
        <ele>288</ele>
        <time>2016-09-14T09:03:04Z</time>
      </trkpt>
      <trkpt lat="45.99581" lon="4.89305">
        <ele>288</ele>
        <time>2016-09-14T09:03:05Z</time>
      </trkpt>
      <trkpt lat="45.99582" lon="4.89311">
        <ele>288</ele>
        <time>2016-09-14T09:03:06Z</time>
      </trkpt>
      <trkpt lat="45.99582" lon="4.89318">
        <ele>288</ele>
        <time>2016-09-14T09:03:07Z</time>
      </trkpt>
      <trkpt lat="45.99583" lon="4.89325">
        <ele>289</ele>
        <time>2016-09-14T09:03:08Z</time>
      </trkpt>
      <trkpt lat="45.99583" lon="4.89332">
        <ele>289</ele>
        <time>2016-09-14T09:03:09Z</time>
      </trkpt>
      <trkpt lat="45.99584" lon="4.89339">
        <ele>289</ele>
        <time>2016-09-14T09:03:10Z</time>
      </trkpt>
      <trkpt lat="45.99584" lon="4.89346">
        <ele>289</ele>
        <time>2016-09-14T09:03:11Z</time>
      </trkpt>
      <trkpt lat="45.99585" lon="4.89353">
        <ele>289</ele>
        <time>2016-09-14T09:03:12Z</time>
      </trkpt>
      <trkpt lat="45.99586" lon="4.8936">
        <ele>289</ele>
        <time>2016-09-14T09:03:13Z</time>
      </trkpt>
      <trkpt lat="45.99587" lon="4.89368">
        <ele>289</ele>
        <time>2016-09-14T09:03:14Z</time>
      </trkpt>
      <trkpt lat="45.99588" lon="4.89375">
        <ele>290</ele>
        <time>2016-09-14T09:03:15Z</time>
      </trkpt>
      <trkpt lat="45.99588" lon="4.89383">
        <ele>290</ele>
        <time>2016-09-14T09:03:16Z</time>
      </trkpt>
      <trkpt lat="45.99588" lon="4.8939">
        <ele>290</ele>
        <time>2016-09-14T09:03:17Z</time>
      </trkpt>
      <trkpt lat="45.99589" lon="4.89397">
        <ele>290</ele>
        <time>2016-09-14T09:03:18Z</time>
      </trkpt>
      <trkpt lat="45.99589" lon="4.89405">
        <ele>290</ele>
        <time>2016-09-14T09:03:19Z</time>
      </trkpt>
      <trkpt lat="45.9959" lon="4.89413">
        <ele>290</ele>
        <time>2016-09-14T09:03:20Z</time>
      </trkpt>
      <trkpt lat="45.9959" lon="4.8942">
        <ele>290</ele>
        <time>2016-09-14T09:03:21Z</time>
      </trkpt>
      <trkpt lat="45.99591" lon="4.89427">
        <ele>290</ele>
        <time>2016-09-14T09:03:22Z</time>
      </trkpt>
      <trkpt lat="45.99591" lon="4.89434">
        <ele>290</ele>
        <time>2016-09-14T09:03:23Z</time>
      </trkpt>
      <trkpt lat="45.99591" lon="4.89441">
        <ele>290</ele>
        <time>2016-09-14T09:03:24Z</time>
      </trkpt>
      <trkpt lat="45.99591" lon="4.89448">
        <ele>290</ele>
        <time>2016-09-14T09:03:25Z</time>
      </trkpt>
      <trkpt lat="45.99591" lon="4.89455">
        <ele>290</ele>
        <time>2016-09-14T09:03:26Z</time>
      </trkpt>
      <trkpt lat="45.99591" lon="4.89463">
        <ele>290</ele>
        <time>2016-09-14T09:03:27Z</time>
      </trkpt>
      <trkpt lat="45.99592" lon="4.89471">
        <ele>290</ele>
        <time>2016-09-14T09:03:28Z</time>
      </trkpt>
      <trkpt lat="45.99593" lon="4.89479">
        <ele>290</ele>
        <time>2016-09-14T09:03:29Z</time>
      </trkpt>
      <trkpt lat="45.99593" lon="4.89488">
        <ele>290</ele>
        <time>2016-09-14T09:03:30Z</time>
      </trkpt>
      <trkpt lat="45.99594" lon="4.89496">
        <ele>290</ele>
        <time>2016-09-14T09:03:31Z</time>
      </trkpt>
      <trkpt lat="45.99594" lon="4.89503">
        <ele>290</ele>
        <time>2016-09-14T09:03:32Z</time>
      </trkpt>
      <trkpt lat="45.99594" lon="4.89511">
        <ele>290</ele>
        <time>2016-09-14T09:03:33Z</time>
      </trkpt>
      <trkpt lat="45.99594" lon="4.89518">
        <ele>290</ele>
        <time>2016-09-14T09:03:34Z</time>
      </trkpt>
      <trkpt lat="45.99595" lon="4.89526">
        <ele>291</ele>
        <time>2016-09-14T09:03:35Z</time>
      </trkpt>
      <trkpt lat="45.99595" lon="4.89533">
        <ele>291</ele>
        <time>2016-09-14T09:03:36Z</time>
      </trkpt>
      <trkpt lat="45.99596" lon="4.89541">
        <ele>291</ele>
        <time>2016-09-14T09:03:37Z</time>
      </trkpt>
      <trkpt lat="45.99596" lon="4.89548">
        <ele>291</ele>
        <time>2016-09-14T09:03:38Z</time>
      </trkpt>
      <trkpt lat="45.99596" lon="4.89555">
        <ele>291</ele>
        <time>2016-09-14T09:03:39Z</time>
      </trkpt>
      <trkpt lat="45.99597" lon="4.89563">
        <ele>291</ele>
        <time>2016-09-14T09:03:40Z</time>
      </trkpt>
      <trkpt lat="45.99597" lon="4.8957">
        <ele>291</ele>
        <time>2016-09-14T09:03:41Z</time>
      </trkpt>
      <trkpt lat="45.99597" lon="4.89578">
        <ele>291</ele>
        <time>2016-09-14T09:03:42Z</time>
      </trkpt>
      <trkpt lat="45.99598" lon="4.89585">
        <ele>292</ele>
        <time>2016-09-14T09:03:43Z</time>
      </trkpt>
      <trkpt lat="45.996" lon="4.89593">
        <ele>292</ele>
        <time>2016-09-14T09:03:44Z</time>
      </trkpt>
      <trkpt lat="45.996" lon="4.89601">
        <ele>292</ele>
        <time>2016-09-14T09:03:45Z</time>
      </trkpt>
      <trkpt lat="45.996" lon="4.89609">
        <ele>292</ele>
        <time>2016-09-14T09:03:46Z</time>
      </trkpt>
      <trkpt lat="45.996" lon="4.89616">
        <ele>291</ele>
        <time>2016-09-14T09:03:47Z</time>
      </trkpt>
      <trkpt lat="45.99601" lon="4.89625">
        <ele>291</ele>
        <time>2016-09-14T09:03:48Z</time>
      </trkpt>
      <trkpt lat="45.99601" lon="4.89633">
        <ele>291</ele>
        <time>2016-09-14T09:03:49Z</time>
      </trkpt>
      <trkpt lat="45.99601" lon="4.89641">
        <ele>291</ele>
        <time>2016-09-14T09:03:50Z</time>
      </trkpt>
      <trkpt lat="45.99601" lon="4.89649">
        <ele>292</ele>
        <time>2016-09-14T09:03:51Z</time>
      </trkpt>
      <trkpt lat="45.99601" lon="4.89657">
        <ele>292</ele>
        <time>2016-09-14T09:03:52Z</time>
      </trkpt>
      <trkpt lat="45.99601" lon="4.89665">
        <ele>292</ele>
        <time>2016-09-14T09:03:53Z</time>
      </trkpt>
      <trkpt lat="45.99601" lon="4.89674">
        <ele>292</ele>
        <time>2016-09-14T09:03:54Z</time>
      </trkpt>
      <trkpt lat="45.996" lon="4.89683">
        <ele>292</ele>
        <time>2016-09-14T09:03:55Z</time>
      </trkpt>
      <trkpt lat="45.996" lon="4.89691">
        <ele>292</ele>
        <time>2016-09-14T09:03:56Z</time>
      </trkpt>
      <trkpt lat="45.996" lon="4.89698">
        <ele>292</ele>
        <time>2016-09-14T09:03:57Z</time>
      </trkpt>
      <trkpt lat="45.99599" lon="4.89706">
        <ele>292</ele>
        <time>2016-09-14T09:03:58Z</time>
      </trkpt>
      <trkpt lat="45.99599" lon="4.89713">
        <ele>292</ele>
        <time>2016-09-14T09:03:59Z</time>
      </trkpt>
      <trkpt lat="45.99599" lon="4.8972">
        <ele>292</ele>
        <time>2016-09-14T09:04:00Z</time>
      </trkpt>
      <trkpt lat="45.99598" lon="4.89727">
        <ele>292</ele>
        <time>2016-09-14T09:04:01Z</time>
      </trkpt>
      <trkpt lat="45.99598" lon="4.89734">
        <ele>292</ele>
        <time>2016-09-14T09:04:02Z</time>
      </trkpt>
      <trkpt lat="45.99598" lon="4.89742">
        <ele>292</ele>
        <time>2016-09-14T09:04:03Z</time>
      </trkpt>
      <trkpt lat="45.99597" lon="4.89749">
        <ele>292</ele>
        <time>2016-09-14T09:04:04Z</time>
      </trkpt>
      <trkpt lat="45.99597" lon="4.89757">
        <ele>292</ele>
        <time>2016-09-14T09:04:05Z</time>
      </trkpt>
      <trkpt lat="45.99596" lon="4.89765">
        <ele>292</ele>
        <time>2016-09-14T09:04:06Z</time>
      </trkpt>
      <trkpt lat="45.99595" lon="4.89773">
        <ele>292</ele>
        <time>2016-09-14T09:04:07Z</time>
      </trkpt>
      <trkpt lat="45.99594" lon="4.89781">
        <ele>292</ele>
        <time>2016-09-14T09:04:08Z</time>
      </trkpt>
      <trkpt lat="45.99594" lon="4.89788">
        <ele>292</ele>
        <time>2016-09-14T09:04:09Z</time>
      </trkpt>
      <trkpt lat="45.99593" lon="4.89796">
        <ele>292</ele>
        <time>2016-09-14T09:04:10Z</time>
      </trkpt>
      <trkpt lat="45.99593" lon="4.89802">
        <ele>292</ele>
        <time>2016-09-14T09:04:11Z</time>
      </trkpt>
      <trkpt lat="45.99593" lon="4.89815">
        <ele>292</ele>
        <time>2016-09-14T09:04:13Z</time>
      </trkpt>
      <trkpt lat="45.99593" lon="4.89822">
        <ele>293</ele>
        <time>2016-09-14T09:04:14Z</time>
      </trkpt>
      <trkpt lat="45.99592" lon="4.89829">
        <ele>293</ele>
        <time>2016-09-14T09:04:15Z</time>
      </trkpt>
      <trkpt lat="45.99592" lon="4.89836">
        <ele>293</ele>
        <time>2016-09-14T09:04:16Z</time>
      </trkpt>
      <trkpt lat="45.99592" lon="4.89844">
        <ele>293</ele>
        <time>2016-09-14T09:04:17Z</time>
      </trkpt>
      <trkpt lat="45.99592" lon="4.89851">
        <ele>293</ele>
        <time>2016-09-14T09:04:18Z</time>
      </trkpt>
      <trkpt lat="45.99592" lon="4.89863">
        <ele>293</ele>
        <time>2016-09-14T09:04:20Z</time>
      </trkpt>
      <trkpt lat="45.99592" lon="4.89871">
        <ele>293</ele>
        <time>2016-09-14T09:04:21Z</time>
      </trkpt>
      <trkpt lat="45.99592" lon="4.89878">
        <ele>292</ele>
        <time>2016-09-14T09:04:22Z</time>
      </trkpt>
      <trkpt lat="45.99592" lon="4.89886">
        <ele>292</ele>
        <time>2016-09-14T09:04:23Z</time>
      </trkpt>
      <trkpt lat="45.99593" lon="4.89895">
        <ele>292</ele>
        <time>2016-09-14T09:04:24Z</time>
      </trkpt>
      <trkpt lat="45.99593" lon="4.89904">
        <ele>292</ele>
        <time>2016-09-14T09:04:25Z</time>
      </trkpt>
      <trkpt lat="45.99594" lon="4.89911">
        <ele>292</ele>
        <time>2016-09-14T09:04:26Z</time>
      </trkpt>
      <trkpt lat="45.99594" lon="4.89919">
        <ele>293</ele>
        <time>2016-09-14T09:04:27Z</time>
      </trkpt>
      <trkpt lat="45.99594" lon="4.89925">
        <ele>293</ele>
        <time>2016-09-14T09:04:28Z</time>
      </trkpt>
      <trkpt lat="45.99594" lon="4.89932">
        <ele>293</ele>
        <time>2016-09-14T09:04:29Z</time>
      </trkpt>
      <trkpt lat="45.99595" lon="4.89945">
        <ele>293</ele>
        <time>2016-09-14T09:04:31Z</time>
      </trkpt>
      <trkpt lat="45.99595" lon="4.89951">
        <ele>294</ele>
        <time>2016-09-14T09:04:32Z</time>
      </trkpt>
      <trkpt lat="45.99596" lon="4.89963">
        <ele>294</ele>
        <time>2016-09-14T09:04:34Z</time>
      </trkpt>
      <trkpt lat="45.99597" lon="4.89969">
        <ele>294</ele>
        <time>2016-09-14T09:04:35Z</time>
      </trkpt>
      <trkpt lat="45.99598" lon="4.89981">
        <ele>294</ele>
        <time>2016-09-14T09:04:37Z</time>
      </trkpt>
      <trkpt lat="45.99599" lon="4.89988">
        <ele>294</ele>
        <time>2016-09-14T09:04:38Z</time>
      </trkpt>
      <trkpt lat="45.996" lon="4.89999">
        <ele>295</ele>
        <time>2016-09-14T09:04:40Z</time>
      </trkpt>
      <trkpt lat="45.99602" lon="4.90005">
        <ele>296</ele>
        <time>2016-09-14T09:04:41Z</time>
      </trkpt>
      <trkpt lat="45.99605" lon="4.90016">
        <ele>296</ele>
        <time>2016-09-14T09:04:43Z</time>
      </trkpt>
      <trkpt lat="45.99607" lon="4.90023">
        <ele>296</ele>
        <time>2016-09-14T09:04:44Z</time>
      </trkpt>
      <trkpt lat="45.9961" lon="4.9003">
        <ele>296</ele>
        <time>2016-09-14T09:04:45Z</time>
      </trkpt>
      <trkpt lat="45.99612" lon="4.90036">
        <ele>296</ele>
        <time>2016-09-14T09:04:46Z</time>
      </trkpt>
      <trkpt lat="45.99615" lon="4.90042">
        <ele>296</ele>
        <time>2016-09-14T09:04:47Z</time>
      </trkpt>
      <trkpt lat="45.99617" lon="4.90048">
        <ele>297</ele>
        <time>2016-09-14T09:04:48Z</time>
      </trkpt>
      <trkpt lat="45.99621" lon="4.90059">
        <ele>297</ele>
        <time>2016-09-14T09:04:50Z</time>
      </trkpt>
      <trkpt lat="45.99623" lon="4.90064">
        <ele>297</ele>
        <time>2016-09-14T09:04:51Z</time>
      </trkpt>
      <trkpt lat="45.99626" lon="4.9007">
        <ele>297</ele>
        <time>2016-09-14T09:04:52Z</time>
      </trkpt>
      <trkpt lat="45.99628" lon="4.90076">
        <ele>297</ele>
        <time>2016-09-14T09:04:53Z</time>
      </trkpt>
      <trkpt lat="45.99633" lon="4.90085">
        <ele>298</ele>
        <time>2016-09-14T09:04:55Z</time>
      </trkpt>
      <trkpt lat="45.99634" lon="4.90091">
        <ele>299</ele>
        <time>2016-09-14T09:04:56Z</time>
      </trkpt>
      <trkpt lat="45.99636" lon="4.90103">
        <ele>299</ele>
        <time>2016-09-14T09:04:58Z</time>
      </trkpt>
      <trkpt lat="45.99638" lon="4.90108">
        <ele>299</ele>
        <time>2016-09-14T09:04:59Z</time>
      </trkpt>
      <trkpt lat="45.99641" lon="4.90117">
        <ele>299</ele>
        <time>2016-09-14T09:05:01Z</time>
      </trkpt>
      <trkpt lat="45.99642" lon="4.90122">
        <ele>299</ele>
        <time>2016-09-14T09:05:02Z</time>
      </trkpt>
      <trkpt lat="45.99645" lon="4.90132">
        <ele>299</ele>
        <time>2016-09-14T09:05:04Z</time>
      </trkpt>
      <trkpt lat="45.99646" lon="4.90138">
        <ele>299</ele>
        <time>2016-09-14T09:05:05Z</time>
      </trkpt>
      <trkpt lat="45.99648" lon="4.90149">
        <ele>300</ele>
        <time>2016-09-14T09:05:07Z</time>
      </trkpt>
      <trkpt lat="45.99649" lon="4.90154">
        <ele>300</ele>
        <time>2016-09-14T09:05:08Z</time>
      </trkpt>
      <trkpt lat="45.9965" lon="4.90164">
        <ele>300</ele>
        <time>2016-09-14T09:05:10Z</time>
      </trkpt>
      <trkpt lat="45.99652" lon="4.90169">
        <ele>301</ele>
        <time>2016-09-14T09:05:11Z</time>
      </trkpt>
      <trkpt lat="45.99656" lon="4.90177">
        <ele>301</ele>
        <time>2016-09-14T09:05:13Z</time>
      </trkpt>
      <trkpt lat="45.99659" lon="4.90182">
        <ele>301</ele>
        <time>2016-09-14T09:05:14Z</time>
      </trkpt>
      <trkpt lat="45.99661" lon="4.9019">
        <ele>301</ele>
        <time>2016-09-14T09:05:16Z</time>
      </trkpt>
      <trkpt lat="45.99663" lon="4.90194">
        <ele>301</ele>
        <time>2016-09-14T09:05:17Z</time>
      </trkpt>
      <trkpt lat="45.99666" lon="4.90205">
        <ele>302</ele>
        <time>2016-09-14T09:05:20Z</time>
      </trkpt>
      <trkpt lat="45.99667" lon="4.9021">
        <ele>302</ele>
        <time>2016-09-14T09:05:21Z</time>
      </trkpt>
      <trkpt lat="45.99669" lon="4.90219">
        <ele>303</ele>
        <time>2016-09-14T09:05:23Z</time>
      </trkpt>
      <trkpt lat="45.9967" lon="4.90223">
        <ele>304</ele>
        <time>2016-09-14T09:05:24Z</time>
      </trkpt>
      <trkpt lat="45.99672" lon="4.90232">
        <ele>304</ele>
        <time>2016-09-14T09:05:26Z</time>
      </trkpt>
      <trkpt lat="45.99673" lon="4.90237">
        <ele>304</ele>
        <time>2016-09-14T09:05:27Z</time>
      </trkpt>
      <trkpt lat="45.99674" lon="4.90247">
        <ele>304</ele>
        <time>2016-09-14T09:05:29Z</time>
      </trkpt>
      <trkpt lat="45.99675" lon="4.90252">
        <ele>304</ele>
        <time>2016-09-14T09:05:30Z</time>
      </trkpt>
      <trkpt lat="45.99674" lon="4.90263">
        <ele>304</ele>
        <time>2016-09-14T09:05:32Z</time>
      </trkpt>
      <trkpt lat="45.99673" lon="4.90268">
        <ele>304</ele>
        <time>2016-09-14T09:05:33Z</time>
      </trkpt>
      <trkpt lat="45.99671" lon="4.90279">
        <ele>304</ele>
        <time>2016-09-14T09:05:35Z</time>
      </trkpt>
      <trkpt lat="45.9967" lon="4.90285">
        <ele>304</ele>
        <time>2016-09-14T09:05:36Z</time>
      </trkpt>
      <trkpt lat="45.99668" lon="4.90296">
        <ele>304</ele>
        <time>2016-09-14T09:05:38Z</time>
      </trkpt>
      <trkpt lat="45.99667" lon="4.90301">
        <ele>302</ele>
        <time>2016-09-14T09:05:39Z</time>
      </trkpt>
      <trkpt lat="45.99664" lon="4.9031">
        <ele>302</ele>
        <time>2016-09-14T09:05:41Z</time>
      </trkpt>
      <trkpt lat="45.99664" lon="4.90314">
        <ele>302</ele>
        <time>2016-09-14T09:05:42Z</time>
      </trkpt>
      <trkpt lat="45.99665" lon="4.90326">
        <ele>302</ele>
        <time>2016-09-14T09:05:48Z</time>
      </trkpt>
      <trkpt lat="45.99667" lon="4.90327">
        <ele>303</ele>
        <time>2016-09-14T09:05:49Z</time>
      </trkpt>
      <trkpt lat="45.99674" lon="4.90328">
        <ele>303</ele>
        <time>2016-09-14T09:05:51Z</time>
      </trkpt>
      <trkpt lat="45.99677" lon="4.90328">
        <ele>303</ele>
        <time>2016-09-14T09:05:52Z</time>
      </trkpt>
      <trkpt lat="45.99684" lon="4.90328">
        <ele>304</ele>
        <time>2016-09-14T09:05:54Z</time>
      </trkpt>
      <trkpt lat="45.99688" lon="4.90327">
        <ele>304</ele>
        <time>2016-09-14T09:05:55Z</time>
      </trkpt>
      <trkpt lat="45.99695" lon="4.90327">
        <ele>304</ele>
        <time>2016-09-14T09:05:57Z</time>
      </trkpt>
      <trkpt lat="45.99699" lon="4.90326">
        <ele>304</ele>
        <time>2016-09-14T09:05:58Z</time>
      </trkpt>
      <trkpt lat="45.99707" lon="4.90326">
        <ele>305</ele>
        <time>2016-09-14T09:06:00Z</time>
      </trkpt>
      <trkpt lat="45.99711" lon="4.90325">
        <ele>305</ele>
        <time>2016-09-14T09:06:01Z</time>
      </trkpt>
      <trkpt lat="45.99716" lon="4.90323">
        <ele>305</ele>
        <time>2016-09-14T09:06:02Z</time>
      </trkpt>
      <trkpt lat="45.99722" lon="4.90321">
        <ele>305</ele>
        <time>2016-09-14T09:06:03Z</time>
      </trkpt>
      <trkpt lat="45.99726" lon="4.90318">
        <ele>306</ele>
        <time>2016-09-14T09:06:04Z</time>
      </trkpt>
      <trkpt lat="45.99731" lon="4.90315">
        <ele>306</ele>
        <time>2016-09-14T09:06:05Z</time>
      </trkpt>
      <trkpt lat="45.99735" lon="4.90311">
        <ele>306</ele>
        <time>2016-09-14T09:06:06Z</time>
      </trkpt>
      <trkpt lat="45.99739" lon="4.90308">
        <ele>306</ele>
        <time>2016-09-14T09:06:07Z</time>
      </trkpt>
      <trkpt lat="45.99743" lon="4.90304">
        <ele>306</ele>
        <time>2016-09-14T09:06:08Z</time>
      </trkpt>
      <trkpt lat="45.99747" lon="4.903">
        <ele>306</ele>
        <time>2016-09-14T09:06:09Z</time>
      </trkpt>
      <trkpt lat="45.99754" lon="4.90293">
        <ele>306</ele>
        <time>2016-09-14T09:06:11Z</time>
      </trkpt>
      <trkpt lat="45.99758" lon="4.9029">
        <ele>306</ele>
        <time>2016-09-14T09:06:12Z</time>
      </trkpt>
      <trkpt lat="45.99762" lon="4.90286">
        <ele>305</ele>
        <time>2016-09-14T09:06:13Z</time>
      </trkpt>
      <trkpt lat="45.99765" lon="4.90282">
        <ele>305</ele>
        <time>2016-09-14T09:06:14Z</time>
      </trkpt>
      <trkpt lat="45.9977" lon="4.90277">
        <ele>305</ele>
        <time>2016-09-14T09:06:15Z</time>
      </trkpt>
      <trkpt lat="45.99775" lon="4.90273">
        <ele>305</ele>
        <time>2016-09-14T09:06:16Z</time>
      </trkpt>
      <trkpt lat="45.99782" lon="4.9027">
        <ele>305</ele>
        <time>2016-09-14T09:06:17Z</time>
      </trkpt>
      <trkpt lat="45.99787" lon="4.90265">
        <ele>305</ele>
        <time>2016-09-14T09:06:18Z</time>
      </trkpt>
      <trkpt lat="45.99792" lon="4.9026">
        <ele>305</ele>
        <time>2016-09-14T09:06:19Z</time>
      </trkpt>
      <trkpt lat="45.99797" lon="4.90256">
        <ele>305</ele>
        <time>2016-09-14T09:06:20Z</time>
      </trkpt>
      <trkpt lat="45.99803" lon="4.90251">
        <ele>304</ele>
        <time>2016-09-14T09:06:21Z</time>
      </trkpt>
      <trkpt lat="45.9981" lon="4.90247">
        <ele>304</ele>
        <time>2016-09-14T09:06:22Z</time>
      </trkpt>
      <trkpt lat="45.99815" lon="4.90242">
        <ele>303</ele>
        <time>2016-09-14T09:06:23Z</time>
      </trkpt>
      <trkpt lat="45.9982" lon="4.90239">
        <ele>303</ele>
        <time>2016-09-14T09:06:24Z</time>
      </trkpt>
      <trkpt lat="45.99826" lon="4.90235">
        <ele>303</ele>
        <time>2016-09-14T09:06:25Z</time>
      </trkpt>
      <trkpt lat="45.99832" lon="4.90233">
        <ele>303</ele>
        <time>2016-09-14T09:06:26Z</time>
      </trkpt>
      <trkpt lat="45.99839" lon="4.90231">
        <ele>302</ele>
        <time>2016-09-14T09:06:27Z</time>
      </trkpt>
      <trkpt lat="45.99846" lon="4.9023">
        <ele>302</ele>
        <time>2016-09-14T09:06:28Z</time>
      </trkpt>
      <trkpt lat="45.99853" lon="4.9023">
        <ele>302</ele>
        <time>2016-09-14T09:06:29Z</time>
      </trkpt>
      <trkpt lat="45.9986" lon="4.9023">
        <ele>301</ele>
        <time>2016-09-14T09:06:30Z</time>
      </trkpt>
      <trkpt lat="45.99866" lon="4.9023">
        <ele>301</ele>
        <time>2016-09-14T09:06:31Z</time>
      </trkpt>
      <trkpt lat="45.99873" lon="4.90231">
        <ele>301</ele>
        <time>2016-09-14T09:06:32Z</time>
      </trkpt>
      <trkpt lat="45.99881" lon="4.90231">
        <ele>301</ele>
        <time>2016-09-14T09:06:33Z</time>
      </trkpt>
      <trkpt lat="45.99888" lon="4.90231">
        <ele>301</ele>
        <time>2016-09-14T09:06:34Z</time>
      </trkpt>
      <trkpt lat="45.99896" lon="4.9023">
        <ele>300</ele>
        <time>2016-09-14T09:06:35Z</time>
      </trkpt>
      <trkpt lat="45.99904" lon="4.9023">
        <ele>300</ele>
        <time>2016-09-14T09:06:36Z</time>
      </trkpt>
      <trkpt lat="45.99911" lon="4.90231">
        <ele>300</ele>
        <time>2016-09-14T09:06:37Z</time>
      </trkpt>
      <trkpt lat="45.99919" lon="4.90231">
        <ele>298</ele>
        <time>2016-09-14T09:06:38Z</time>
      </trkpt>
      <trkpt lat="45.99926" lon="4.90231">
        <ele>298</ele>
        <time>2016-09-14T09:06:39Z</time>
      </trkpt>
      <trkpt lat="45.99933" lon="4.90231">
        <ele>298</ele>
        <time>2016-09-14T09:06:40Z</time>
      </trkpt>
      <trkpt lat="45.99941" lon="4.9023">
        <ele>298</ele>
        <time>2016-09-14T09:06:41Z</time>
      </trkpt>
      <trkpt lat="45.99949" lon="4.90231">
        <ele>298</ele>
        <time>2016-09-14T09:06:42Z</time>
      </trkpt>
      <trkpt lat="45.99957" lon="4.90232">
        <ele>298</ele>
        <time>2016-09-14T09:06:43Z</time>
      </trkpt>
      <trkpt lat="45.99965" lon="4.90234">
        <ele>298</ele>
        <time>2016-09-14T09:06:44Z</time>
      </trkpt>
      <trkpt lat="45.99973" lon="4.90236">
        <ele>298</ele>
        <time>2016-09-14T09:06:45Z</time>
      </trkpt>
      <trkpt lat="45.99981" lon="4.90237">
        <ele>297</ele>
        <time>2016-09-14T09:06:46Z</time>
      </trkpt>
      <trkpt lat="45.99989" lon="4.90237">
        <ele>297</ele>
        <time>2016-09-14T09:06:47Z</time>
      </trkpt>
      <trkpt lat="45.99997" lon="4.90242">
        <ele>297</ele>
        <time>2016-09-14T09:06:48Z</time>
      </trkpt>
      <trkpt lat="46.00006" lon="4.90246">
        <ele>296</ele>
        <time>2016-09-14T09:06:49Z</time>
      </trkpt>
      <trkpt lat="46.00015" lon="4.90246">
        <ele>296</ele>
        <time>2016-09-14T09:06:50Z</time>
      </trkpt>
      <trkpt lat="46.00024" lon="4.90245">
        <ele>296</ele>
        <time>2016-09-14T09:06:51Z</time>
      </trkpt>
      <trkpt lat="46.00032" lon="4.90245">
        <ele>295</ele>
        <time>2016-09-14T09:06:52Z</time>
      </trkpt>
      <trkpt lat="46.0004" lon="4.90244">
        <ele>295</ele>
        <time>2016-09-14T09:06:53Z</time>
      </trkpt>
      <trkpt lat="46.00049" lon="4.90243">
        <ele>295</ele>
        <time>2016-09-14T09:06:54Z</time>
      </trkpt>
      <trkpt lat="46.00057" lon="4.90243">
        <ele>295</ele>
        <time>2016-09-14T09:06:55Z</time>
      </trkpt>
      <trkpt lat="46.00065" lon="4.90242">
        <ele>294</ele>
        <time>2016-09-14T09:06:56Z</time>
      </trkpt>
      <trkpt lat="46.00073" lon="4.90242">
        <ele>294</ele>
        <time>2016-09-14T09:06:57Z</time>
      </trkpt>
      <trkpt lat="46.0008" lon="4.90242">
        <ele>294</ele>
        <time>2016-09-14T09:06:58Z</time>
      </trkpt>
      <trkpt lat="46.00086" lon="4.90244">
        <ele>294</ele>
        <time>2016-09-14T09:06:59Z</time>
      </trkpt>
      <trkpt lat="46.00093" lon="4.90247">
        <ele>294</ele>
        <time>2016-09-14T09:07:00Z</time>
      </trkpt>
      <trkpt lat="46.00098" lon="4.90252">
        <ele>294</ele>
        <time>2016-09-14T09:07:01Z</time>
      </trkpt>
      <trkpt lat="46.00104" lon="4.90257">
        <ele>294</ele>
        <time>2016-09-14T09:07:02Z</time>
      </trkpt>
      <trkpt lat="46.00109" lon="4.90263">
        <ele>294</ele>
        <time>2016-09-14T09:07:03Z</time>
      </trkpt>
      <trkpt lat="46.00114" lon="4.90268">
        <ele>294</ele>
        <time>2016-09-14T09:07:04Z</time>
      </trkpt>
      <trkpt lat="46.00119" lon="4.90273">
        <ele>294</ele>
        <time>2016-09-14T09:07:05Z</time>
      </trkpt>
      <trkpt lat="46.00123" lon="4.90278">
        <ele>294</ele>
        <time>2016-09-14T09:07:06Z</time>
      </trkpt>
      <trkpt lat="46.00129" lon="4.90282">
        <ele>293</ele>
        <time>2016-09-14T09:07:07Z</time>
      </trkpt>
      <trkpt lat="46.00134" lon="4.90287">
        <ele>293</ele>
        <time>2016-09-14T09:07:08Z</time>
      </trkpt>
      <trkpt lat="46.00139" lon="4.90292">
        <ele>293</ele>
        <time>2016-09-14T09:07:09Z</time>
      </trkpt>
      <trkpt lat="46.00144" lon="4.90296">
        <ele>293</ele>
        <time>2016-09-14T09:07:10Z</time>
      </trkpt>
      <trkpt lat="46.00149" lon="4.90301">
        <ele>293</ele>
        <time>2016-09-14T09:07:11Z</time>
      </trkpt>
      <trkpt lat="46.00154" lon="4.90305">
        <ele>293</ele>
        <time>2016-09-14T09:07:12Z</time>
      </trkpt>
      <trkpt lat="46.00159" lon="4.9031">
        <ele>293</ele>
        <time>2016-09-14T09:07:13Z</time>
      </trkpt>
      <trkpt lat="46.00164" lon="4.90314">
        <ele>293</ele>
        <time>2016-09-14T09:07:14Z</time>
      </trkpt>
      <trkpt lat="46.00169" lon="4.90318">
        <ele>292</ele>
        <time>2016-09-14T09:07:15Z</time>
      </trkpt>
      <trkpt lat="46.00173" lon="4.90323">
        <ele>292</ele>
        <time>2016-09-14T09:07:16Z</time>
      </trkpt>
      <trkpt lat="46.00178" lon="4.90327">
        <ele>292</ele>
        <time>2016-09-14T09:07:17Z</time>
      </trkpt>
      <trkpt lat="46.00184" lon="4.90332">
        <ele>292</ele>
        <time>2016-09-14T09:07:18Z</time>
      </trkpt>
      <trkpt lat="46.00189" lon="4.90336">
        <ele>292</ele>
        <time>2016-09-14T09:07:19Z</time>
      </trkpt>
      <trkpt lat="46.00194" lon="4.90341">
        <ele>292</ele>
        <time>2016-09-14T09:07:20Z</time>
      </trkpt>
      <trkpt lat="46.00199" lon="4.90345">
        <ele>292</ele>
        <time>2016-09-14T09:07:21Z</time>
      </trkpt>
      <trkpt lat="46.00205" lon="4.9035">
        <ele>292</ele>
        <time>2016-09-14T09:07:22Z</time>
      </trkpt>
      <trkpt lat="46.0021" lon="4.90355">
        <ele>293</ele>
        <time>2016-09-14T09:07:23Z</time>
      </trkpt>
      <trkpt lat="46.00215" lon="4.90361">
        <ele>293</ele>
        <time>2016-09-14T09:07:24Z</time>
      </trkpt>
      <trkpt lat="46.0022" lon="4.90366">
        <ele>293</ele>
        <time>2016-09-14T09:07:25Z</time>
      </trkpt>
      <trkpt lat="46.00225" lon="4.90372">
        <ele>293</ele>
        <time>2016-09-14T09:07:26Z</time>
      </trkpt>
      <trkpt lat="46.0023" lon="4.90377">
        <ele>293</ele>
        <time>2016-09-14T09:07:27Z</time>
      </trkpt>
      <trkpt lat="46.00235" lon="4.90381">
        <ele>293</ele>
        <time>2016-09-14T09:07:28Z</time>
      </trkpt>
      <trkpt lat="46.0024" lon="4.90386">
        <ele>293</ele>
        <time>2016-09-14T09:07:29Z</time>
      </trkpt>
      <trkpt lat="46.00245" lon="4.90391">
        <ele>293</ele>
        <time>2016-09-14T09:07:30Z</time>
      </trkpt>
      <trkpt lat="46.0025" lon="4.90395">
        <ele>293</ele>
        <time>2016-09-14T09:07:31Z</time>
      </trkpt>
      <trkpt lat="46.00255" lon="4.90401">
        <ele>293</ele>
        <time>2016-09-14T09:07:32Z</time>
      </trkpt>
      <trkpt lat="46.00261" lon="4.90406">
        <ele>293</ele>
        <time>2016-09-14T09:07:33Z</time>
      </trkpt>
      <trkpt lat="46.00266" lon="4.90411">
        <ele>293</ele>
        <time>2016-09-14T09:07:34Z</time>
      </trkpt>
      <trkpt lat="46.00272" lon="4.90417">
        <ele>293</ele>
        <time>2016-09-14T09:07:35Z</time>
      </trkpt>
      <trkpt lat="46.00277" lon="4.90422">
        <ele>293</ele>
        <time>2016-09-14T09:07:36Z</time>
      </trkpt>
      <trkpt lat="46.00282" lon="4.90427">
        <ele>293</ele>
        <time>2016-09-14T09:07:37Z</time>
      </trkpt>
      <trkpt lat="46.00286" lon="4.90433">
        <ele>293</ele>
        <time>2016-09-14T09:07:38Z</time>
      </trkpt>
      <trkpt lat="46.00291" lon="4.90438">
        <ele>293</ele>
        <time>2016-09-14T09:07:39Z</time>
      </trkpt>
      <trkpt lat="46.00295" lon="4.90443">
        <ele>294</ele>
        <time>2016-09-14T09:07:40Z</time>
      </trkpt>
      <trkpt lat="46.00299" lon="4.90447">
        <ele>294</ele>
        <time>2016-09-14T09:07:41Z</time>
      </trkpt>
      <trkpt lat="46.00303" lon="4.90453">
        <ele>294</ele>
        <time>2016-09-14T09:07:42Z</time>
      </trkpt>
      <trkpt lat="46.00307" lon="4.90458">
        <ele>294</ele>
        <time>2016-09-14T09:07:43Z</time>
      </trkpt>
      <trkpt lat="46.0031" lon="4.90464">
        <ele>294</ele>
        <time>2016-09-14T09:07:44Z</time>
      </trkpt>
      <trkpt lat="46.00314" lon="4.9047">
        <ele>294</ele>
        <time>2016-09-14T09:07:45Z</time>
      </trkpt>
      <trkpt lat="46.00318" lon="4.90476">
        <ele>294</ele>
        <time>2016-09-14T09:07:46Z</time>
      </trkpt>
      <trkpt lat="46.00321" lon="4.90481">
        <ele>294</ele>
        <time>2016-09-14T09:07:47Z</time>
      </trkpt>
      <trkpt lat="46.00326" lon="4.90488">
        <ele>294</ele>
        <time>2016-09-14T09:07:48Z</time>
      </trkpt>
      <trkpt lat="46.0033" lon="4.90494">
        <ele>294</ele>
        <time>2016-09-14T09:07:49Z</time>
      </trkpt>
      <trkpt lat="46.00333" lon="4.90501">
        <ele>294</ele>
        <time>2016-09-14T09:07:50Z</time>
      </trkpt>
      <trkpt lat="46.00337" lon="4.90508">
        <ele>293</ele>
        <time>2016-09-14T09:07:51Z</time>
      </trkpt>
      <trkpt lat="46.00341" lon="4.90515">
        <ele>293</ele>
        <time>2016-09-14T09:07:52Z</time>
      </trkpt>
      <trkpt lat="46.00346" lon="4.90522">
        <ele>293</ele>
        <time>2016-09-14T09:07:53Z</time>
      </trkpt>
      <trkpt lat="46.0035" lon="4.90529">
        <ele>293</ele>
        <time>2016-09-14T09:07:54Z</time>
      </trkpt>
      <trkpt lat="46.00354" lon="4.90536">
        <ele>292</ele>
        <time>2016-09-14T09:07:55Z</time>
      </trkpt>
      <trkpt lat="46.00359" lon="4.90542">
        <ele>292</ele>
        <time>2016-09-14T09:07:56Z</time>
      </trkpt>
      <trkpt lat="46.00363" lon="4.90548">
        <ele>292</ele>
        <time>2016-09-14T09:07:57Z</time>
      </trkpt>
      <trkpt lat="46.00367" lon="4.90554">
        <ele>292</ele>
        <time>2016-09-14T09:07:58Z</time>
      </trkpt>
      <trkpt lat="46.0037" lon="4.90561">
        <ele>292</ele>
        <time>2016-09-14T09:07:59Z</time>
      </trkpt>
      <trkpt lat="46.00374" lon="4.90567">
        <ele>292</ele>
        <time>2016-09-14T09:08:00Z</time>
      </trkpt>
      <trkpt lat="46.00377" lon="4.90573">
        <ele>292</ele>
        <time>2016-09-14T09:08:01Z</time>
      </trkpt>
      <trkpt lat="46.0038" lon="4.90578">
        <ele>292</ele>
        <time>2016-09-14T09:08:02Z</time>
      </trkpt>
      <trkpt lat="46.00383" lon="4.90584">
        <ele>291</ele>
        <time>2016-09-14T09:08:03Z</time>
      </trkpt>
      <trkpt lat="46.00386" lon="4.9059">
        <ele>291</ele>
        <time>2016-09-14T09:08:04Z</time>
      </trkpt>
      <trkpt lat="46.00389" lon="4.90597">
        <ele>291</ele>
        <time>2016-09-14T09:08:05Z</time>
      </trkpt>
      <trkpt lat="46.00392" lon="4.90604">
        <ele>291</ele>
        <time>2016-09-14T09:08:06Z</time>
      </trkpt>
      <trkpt lat="46.00395" lon="4.90612">
        <ele>291</ele>
        <time>2016-09-14T09:08:07Z</time>
      </trkpt>
      <trkpt lat="46.00398" lon="4.9062">
        <ele>291</ele>
        <time>2016-09-14T09:08:08Z</time>
      </trkpt>
      <trkpt lat="46.004" lon="4.90627">
        <ele>291</ele>
        <time>2016-09-14T09:08:09Z</time>
      </trkpt>
      <trkpt lat="46.00403" lon="4.90635">
        <ele>291</ele>
        <time>2016-09-14T09:08:10Z</time>
      </trkpt>
      <trkpt lat="46.00406" lon="4.90642">
        <ele>292</ele>
        <time>2016-09-14T09:08:11Z</time>
      </trkpt>
      <trkpt lat="46.00408" lon="4.90649">
        <ele>292</ele>
        <time>2016-09-14T09:08:12Z</time>
      </trkpt>
      <trkpt lat="46.0041" lon="4.90656">
        <ele>292</ele>
        <time>2016-09-14T09:08:13Z</time>
      </trkpt>
      <trkpt lat="46.00412" lon="4.90662">
        <ele>292</ele>
        <time>2016-09-14T09:08:14Z</time>
      </trkpt>
      <trkpt lat="46.00414" lon="4.90669">
        <ele>292</ele>
        <time>2016-09-14T09:08:15Z</time>
      </trkpt>
      <trkpt lat="46.00416" lon="4.90675">
        <ele>292</ele>
        <time>2016-09-14T09:08:16Z</time>
      </trkpt>
      <trkpt lat="46.00418" lon="4.90682">
        <ele>292</ele>
        <time>2016-09-14T09:08:17Z</time>
      </trkpt>
      <trkpt lat="46.00419" lon="4.9069">
        <ele>292</ele>
        <time>2016-09-14T09:08:18Z</time>
      </trkpt>
      <trkpt lat="46.0042" lon="4.90699">
        <ele>292</ele>
        <time>2016-09-14T09:08:19Z</time>
      </trkpt>
      <trkpt lat="46.00421" lon="4.90708">
        <ele>292</ele>
        <time>2016-09-14T09:08:20Z</time>
      </trkpt>
      <trkpt lat="46.00422" lon="4.90717">
        <ele>292</ele>
        <time>2016-09-14T09:08:21Z</time>
      </trkpt>
      <trkpt lat="46.00422" lon="4.90725">
        <ele>292</ele>
        <time>2016-09-14T09:08:22Z</time>
      </trkpt>
      <trkpt lat="46.00422" lon="4.90733">
        <ele>292</ele>
        <time>2016-09-14T09:08:23Z</time>
      </trkpt>
      <trkpt lat="46.00422" lon="4.90741">
        <ele>292</ele>
        <time>2016-09-14T09:08:24Z</time>
      </trkpt>
      <trkpt lat="46.00423" lon="4.90749">
        <ele>292</ele>
        <time>2016-09-14T09:08:25Z</time>
      </trkpt>
      <trkpt lat="46.00424" lon="4.90756">
        <ele>292</ele>
        <time>2016-09-14T09:08:26Z</time>
      </trkpt>
      <trkpt lat="46.00424" lon="4.90764">
        <ele>292</ele>
        <time>2016-09-14T09:08:27Z</time>
      </trkpt>
      <trkpt lat="46.00424" lon="4.90772">
        <ele>292</ele>
        <time>2016-09-14T09:08:28Z</time>
      </trkpt>
      <trkpt lat="46.00425" lon="4.9078">
        <ele>292</ele>
        <time>2016-09-14T09:08:29Z</time>
      </trkpt>
      <trkpt lat="46.00425" lon="4.90788">
        <ele>292</ele>
        <time>2016-09-14T09:08:30Z</time>
      </trkpt>
      <trkpt lat="46.00424" lon="4.90795">
        <ele>293</ele>
        <time>2016-09-14T09:08:31Z</time>
      </trkpt>
      <trkpt lat="46.00424" lon="4.90803">
        <ele>293</ele>
        <time>2016-09-14T09:08:32Z</time>
      </trkpt>
      <trkpt lat="46.00423" lon="4.90811">
        <ele>293</ele>
        <time>2016-09-14T09:08:33Z</time>
      </trkpt>
      <trkpt lat="46.00423" lon="4.9082">
        <ele>293</ele>
        <time>2016-09-14T09:08:34Z</time>
      </trkpt>
      <trkpt lat="46.00424" lon="4.90828">
        <ele>293</ele>
        <time>2016-09-14T09:08:35Z</time>
      </trkpt>
      <trkpt lat="46.00424" lon="4.90835">
        <ele>293</ele>
        <time>2016-09-14T09:08:36Z</time>
      </trkpt>
      <trkpt lat="46.00425" lon="4.90844">
        <ele>293</ele>
        <time>2016-09-14T09:08:37Z</time>
      </trkpt>
      <trkpt lat="46.00425" lon="4.90851">
        <ele>293</ele>
        <time>2016-09-14T09:08:38Z</time>
      </trkpt>
      <trkpt lat="46.00425" lon="4.9086">
        <ele>293</ele>
        <time>2016-09-14T09:08:39Z</time>
      </trkpt>
      <trkpt lat="46.00425" lon="4.90868">
        <ele>293</ele>
        <time>2016-09-14T09:08:40Z</time>
      </trkpt>
      <trkpt lat="46.00425" lon="4.90877">
        <ele>293</ele>
        <time>2016-09-14T09:08:41Z</time>
      </trkpt>
      <trkpt lat="46.00425" lon="4.90885">
        <ele>293</ele>
        <time>2016-09-14T09:08:42Z</time>
      </trkpt>
      <trkpt lat="46.00425" lon="4.90893">
        <ele>293</ele>
        <time>2016-09-14T09:08:43Z</time>
      </trkpt>
      <trkpt lat="46.00425" lon="4.90901">
        <ele>293</ele>
        <time>2016-09-14T09:08:44Z</time>
      </trkpt>
      <trkpt lat="46.00424" lon="4.9091">
        <ele>293</ele>
        <time>2016-09-14T09:08:45Z</time>
      </trkpt>
      <trkpt lat="46.00424" lon="4.90919">
        <ele>293</ele>
        <time>2016-09-14T09:08:46Z</time>
      </trkpt>
      <trkpt lat="46.00424" lon="4.90928">
        <ele>293</ele>
        <time>2016-09-14T09:08:47Z</time>
      </trkpt>
      <trkpt lat="46.00424" lon="4.90936">
        <ele>293</ele>
        <time>2016-09-14T09:08:48Z</time>
      </trkpt>
      <trkpt lat="46.00423" lon="4.90945">
        <ele>293</ele>
        <time>2016-09-14T09:08:49Z</time>
      </trkpt>
      <trkpt lat="46.00423" lon="4.90954">
        <ele>293</ele>
        <time>2016-09-14T09:08:50Z</time>
      </trkpt>
      <trkpt lat="46.00423" lon="4.90962">
        <ele>293</ele>
        <time>2016-09-14T09:08:51Z</time>
      </trkpt>
      <trkpt lat="46.00423" lon="4.9097">
        <ele>293</ele>
        <time>2016-09-14T09:08:52Z</time>
      </trkpt>
      <trkpt lat="46.00423" lon="4.90977">
        <ele>293</ele>
        <time>2016-09-14T09:08:53Z</time>
      </trkpt>
      <trkpt lat="46.00423" lon="4.90985">
        <ele>293</ele>
        <time>2016-09-14T09:08:54Z</time>
      </trkpt>
      <trkpt lat="46.00423" lon="4.90993">
        <ele>293</ele>
        <time>2016-09-14T09:08:55Z</time>
      </trkpt>
      <trkpt lat="46.00423" lon="4.91001">
        <ele>293</ele>
        <time>2016-09-14T09:08:56Z</time>
      </trkpt>
      <trkpt lat="46.00424" lon="4.91008">
        <ele>293</ele>
        <time>2016-09-14T09:08:57Z</time>
      </trkpt>
      <trkpt lat="46.00425" lon="4.91015">
        <ele>293</ele>
        <time>2016-09-14T09:08:58Z</time>
      </trkpt>
      <trkpt lat="46.00425" lon="4.91022">
        <ele>293</ele>
        <time>2016-09-14T09:08:59Z</time>
      </trkpt>
      <trkpt lat="46.00426" lon="4.9103">
        <ele>293</ele>
        <time>2016-09-14T09:09:00Z</time>
      </trkpt>
      <trkpt lat="46.00426" lon="4.91038">
        <ele>293</ele>
        <time>2016-09-14T09:09:01Z</time>
      </trkpt>
      <trkpt lat="46.00426" lon="4.91047">
        <ele>293</ele>
        <time>2016-09-14T09:09:02Z</time>
      </trkpt>
      <trkpt lat="46.00426" lon="4.91056">
        <ele>293</ele>
        <time>2016-09-14T09:09:03Z</time>
      </trkpt>
      <trkpt lat="46.00426" lon="4.91065">
        <ele>293</ele>
        <time>2016-09-14T09:09:04Z</time>
      </trkpt>
      <trkpt lat="46.00425" lon="4.91073">
        <ele>293</ele>
        <time>2016-09-14T09:09:05Z</time>
      </trkpt>
      <trkpt lat="46.00425" lon="4.91081">
        <ele>293</ele>
        <time>2016-09-14T09:09:06Z</time>
      </trkpt>
      <trkpt lat="46.00424" lon="4.91089">
        <ele>293</ele>
        <time>2016-09-14T09:09:07Z</time>
      </trkpt>
      <trkpt lat="46.00423" lon="4.91097">
        <ele>293</ele>
        <time>2016-09-14T09:09:08Z</time>
      </trkpt>
      <trkpt lat="46.00422" lon="4.91104">
        <ele>293</ele>
        <time>2016-09-14T09:09:09Z</time>
      </trkpt>
      <trkpt lat="46.0042" lon="4.91112">
        <ele>293</ele>
        <time>2016-09-14T09:09:10Z</time>
      </trkpt>
      <trkpt lat="46.00419" lon="4.9112">
        <ele>293</ele>
        <time>2016-09-14T09:09:11Z</time>
      </trkpt>
      <trkpt lat="46.00418" lon="4.91128">
        <ele>293</ele>
        <time>2016-09-14T09:09:12Z</time>
      </trkpt>
      <trkpt lat="46.00416" lon="4.91136">
        <ele>294</ele>
        <time>2016-09-14T09:09:13Z</time>
      </trkpt>
      <trkpt lat="46.00415" lon="4.91145">
        <ele>294</ele>
        <time>2016-09-14T09:09:14Z</time>
      </trkpt>
      <trkpt lat="46.00413" lon="4.91153">
        <ele>294</ele>
        <time>2016-09-14T09:09:15Z</time>
      </trkpt>
      <trkpt lat="46.00412" lon="4.91162">
        <ele>294</ele>
        <time>2016-09-14T09:09:16Z</time>
      </trkpt>
      <trkpt lat="46.00411" lon="4.91171">
        <ele>294</ele>
        <time>2016-09-14T09:09:17Z</time>
      </trkpt>
      <trkpt lat="46.00411" lon="4.9118">
        <ele>294</ele>
        <time>2016-09-14T09:09:18Z</time>
      </trkpt>
      <trkpt lat="46.00412" lon="4.91189">
        <ele>294</ele>
        <time>2016-09-14T09:09:19Z</time>
      </trkpt>
      <trkpt lat="46.00414" lon="4.91199">
        <ele>294</ele>
        <time>2016-09-14T09:09:20Z</time>
      </trkpt>
      <trkpt lat="46.00417" lon="4.91208">
        <ele>294</ele>
        <time>2016-09-14T09:09:21Z</time>
      </trkpt>
      <trkpt lat="46.0042" lon="4.91216">
        <ele>294</ele>
        <time>2016-09-14T09:09:22Z</time>
      </trkpt>
      <trkpt lat="46.00423" lon="4.91224">
        <ele>294</ele>
        <time>2016-09-14T09:09:23Z</time>
      </trkpt>
      <trkpt lat="46.00428" lon="4.91231">
        <ele>294</ele>
        <time>2016-09-14T09:09:24Z</time>
      </trkpt>
      <trkpt lat="46.00431" lon="4.91238">
        <ele>294</ele>
        <time>2016-09-14T09:09:25Z</time>
      </trkpt>
      <trkpt lat="46.00434" lon="4.91245">
        <ele>294</ele>
        <time>2016-09-14T09:09:26Z</time>
      </trkpt>
      <trkpt lat="46.00437" lon="4.91252">
        <ele>294</ele>
        <time>2016-09-14T09:09:27Z</time>
      </trkpt>
      <trkpt lat="46.0044" lon="4.91258">
        <ele>294</ele>
        <time>2016-09-14T09:09:28Z</time>
      </trkpt>
      <trkpt lat="46.00444" lon="4.91266">
        <ele>294</ele>
        <time>2016-09-14T09:09:29Z</time>
      </trkpt>
      <trkpt lat="46.00447" lon="4.91272">
        <ele>294</ele>
        <time>2016-09-14T09:09:30Z</time>
      </trkpt>
      <trkpt lat="46.00449" lon="4.91278">
        <ele>294</ele>
        <time>2016-09-14T09:09:31Z</time>
      </trkpt>
      <trkpt lat="46.00451" lon="4.91283">
        <ele>294</ele>
        <time>2016-09-14T09:09:32Z</time>
      </trkpt>
      <trkpt lat="46.00454" lon="4.91289">
        <ele>294</ele>
        <time>2016-09-14T09:09:33Z</time>
      </trkpt>
      <trkpt lat="46.00456" lon="4.91295">
        <ele>294</ele>
        <time>2016-09-14T09:09:34Z</time>
      </trkpt>
      <trkpt lat="46.00459" lon="4.91302">
        <ele>294</ele>
        <time>2016-09-14T09:09:35Z</time>
      </trkpt>
      <trkpt lat="46.00462" lon="4.91308">
        <ele>294</ele>
        <time>2016-09-14T09:09:36Z</time>
      </trkpt>
      <trkpt lat="46.00465" lon="4.91315">
        <ele>294</ele>
        <time>2016-09-14T09:09:37Z</time>
      </trkpt>
      <trkpt lat="46.00468" lon="4.91322">
        <ele>294</ele>
        <time>2016-09-14T09:09:38Z</time>
      </trkpt>
      <trkpt lat="46.00471" lon="4.9133">
        <ele>293</ele>
        <time>2016-09-14T09:09:39Z</time>
      </trkpt>
      <trkpt lat="46.00474" lon="4.91337">
        <ele>293</ele>
        <time>2016-09-14T09:09:40Z</time>
      </trkpt>
      <trkpt lat="46.00478" lon="4.91344">
        <ele>293</ele>
        <time>2016-09-14T09:09:41Z</time>
      </trkpt>
      <trkpt lat="46.00481" lon="4.91351">
        <ele>293</ele>
        <time>2016-09-14T09:09:42Z</time>
      </trkpt>
      <trkpt lat="46.00484" lon="4.91358">
        <ele>293</ele>
        <time>2016-09-14T09:09:43Z</time>
      </trkpt>
      <trkpt lat="46.00487" lon="4.91364">
        <ele>293</ele>
        <time>2016-09-14T09:09:44Z</time>
      </trkpt>
      <trkpt lat="46.0049" lon="4.91369">
        <ele>293</ele>
        <time>2016-09-14T09:09:45Z</time>
      </trkpt>
      <trkpt lat="46.00492" lon="4.91375">
        <ele>293</ele>
        <time>2016-09-14T09:09:46Z</time>
      </trkpt>
      <trkpt lat="46.00497" lon="4.91385">
        <ele>293</ele>
        <time>2016-09-14T09:09:48Z</time>
      </trkpt>
      <trkpt lat="46.00499" lon="4.9139">
        <ele>293</ele>
        <time>2016-09-14T09:09:49Z</time>
      </trkpt>
      <trkpt lat="46.00501" lon="4.91396">
        <ele>292</ele>
        <time>2016-09-14T09:09:50Z</time>
      </trkpt>
      <trkpt lat="46.00504" lon="4.91401">
        <ele>292</ele>
        <time>2016-09-14T09:09:51Z</time>
      </trkpt>
      <trkpt lat="46.00507" lon="4.91407">
        <ele>292</ele>
        <time>2016-09-14T09:09:52Z</time>
      </trkpt>
      <trkpt lat="46.00511" lon="4.91415">
        <ele>292</ele>
        <time>2016-09-14T09:09:53Z</time>
      </trkpt>
      <trkpt lat="46.00514" lon="4.91422">
        <ele>292</ele>
        <time>2016-09-14T09:09:54Z</time>
      </trkpt>
      <trkpt lat="46.00519" lon="4.91431">
        <ele>292</ele>
        <time>2016-09-14T09:09:55Z</time>
      </trkpt>
      <trkpt lat="46.00524" lon="4.91439">
        <ele>292</ele>
        <time>2016-09-14T09:09:56Z</time>
      </trkpt>
      <trkpt lat="46.0053" lon="4.91448">
        <ele>292</ele>
        <time>2016-09-14T09:09:57Z</time>
      </trkpt>
      <trkpt lat="46.00536" lon="4.91457">
        <ele>292</ele>
        <time>2016-09-14T09:09:58Z</time>
      </trkpt>
      <trkpt lat="46.00541" lon="4.91463">
        <ele>292</ele>
        <time>2016-09-14T09:09:59Z</time>
      </trkpt>
      <trkpt lat="46.00547" lon="4.91469">
        <ele>292</ele>
        <time>2016-09-14T09:10:00Z</time>
      </trkpt>
      <trkpt lat="46.00552" lon="4.91474">
        <ele>292</ele>
        <time>2016-09-14T09:10:01Z</time>
      </trkpt>
      <trkpt lat="46.00557" lon="4.91478">
        <ele>292</ele>
        <time>2016-09-14T09:10:02Z</time>
      </trkpt>
      <trkpt lat="46.00563" lon="4.91482">
        <ele>292</ele>
        <time>2016-09-14T09:10:03Z</time>
      </trkpt>
      <trkpt lat="46.00568" lon="4.91485">
        <ele>292</ele>
        <time>2016-09-14T09:10:04Z</time>
      </trkpt>
      <trkpt lat="46.00573" lon="4.91488">
        <ele>292</ele>
        <time>2016-09-14T09:10:05Z</time>
      </trkpt>
      <trkpt lat="46.00578" lon="4.9149">
        <ele>292</ele>
        <time>2016-09-14T09:10:06Z</time>
      </trkpt>
      <trkpt lat="46.00582" lon="4.91493">
        <ele>292</ele>
        <time>2016-09-14T09:10:07Z</time>
      </trkpt>
      <trkpt lat="46.00587" lon="4.91495">
        <ele>292</ele>
        <time>2016-09-14T09:10:08Z</time>
      </trkpt>
      <trkpt lat="46.00592" lon="4.91497">
        <ele>292</ele>
        <time>2016-09-14T09:10:09Z</time>
      </trkpt>
      <trkpt lat="46.00598" lon="4.915">
        <ele>292</ele>
        <time>2016-09-14T09:10:10Z</time>
      </trkpt>
      <trkpt lat="46.00604" lon="4.91502">
        <ele>292</ele>
        <time>2016-09-14T09:10:11Z</time>
      </trkpt>
      <trkpt lat="46.00611" lon="4.91505">
        <ele>292</ele>
        <time>2016-09-14T09:10:12Z</time>
      </trkpt>
      <trkpt lat="46.00617" lon="4.91507">
        <ele>292</ele>
        <time>2016-09-14T09:10:13Z</time>
      </trkpt>
      <trkpt lat="46.00622" lon="4.91509">
        <ele>292</ele>
        <time>2016-09-14T09:10:14Z</time>
      </trkpt>
      <trkpt lat="46.00628" lon="4.91511">
        <ele>292</ele>
        <time>2016-09-14T09:10:15Z</time>
      </trkpt>
      <trkpt lat="46.00634" lon="4.91513">
        <ele>292</ele>
        <time>2016-09-14T09:10:16Z</time>
      </trkpt>
      <trkpt lat="46.00639" lon="4.91516">
        <ele>292</ele>
        <time>2016-09-14T09:10:17Z</time>
      </trkpt>
      <trkpt lat="46.00645" lon="4.91518">
        <ele>292</ele>
        <time>2016-09-14T09:10:18Z</time>
      </trkpt>
      <trkpt lat="46.0065" lon="4.91521">
        <ele>292</ele>
        <time>2016-09-14T09:10:19Z</time>
      </trkpt>
      <trkpt lat="46.00655" lon="4.91525">
        <ele>292</ele>
        <time>2016-09-14T09:10:20Z</time>
      </trkpt>
      <trkpt lat="46.00659" lon="4.91529">
        <ele>292</ele>
        <time>2016-09-14T09:10:21Z</time>
      </trkpt>
      <trkpt lat="46.00664" lon="4.91533">
        <ele>292</ele>
        <time>2016-09-14T09:10:22Z</time>
      </trkpt>
      <trkpt lat="46.00668" lon="4.91538">
        <ele>292</ele>
        <time>2016-09-14T09:10:23Z</time>
      </trkpt>
      <trkpt lat="46.00673" lon="4.91543">
        <ele>292</ele>
        <time>2016-09-14T09:10:24Z</time>
      </trkpt>
      <trkpt lat="46.00677" lon="4.91549">
        <ele>292</ele>
        <time>2016-09-14T09:10:25Z</time>
      </trkpt>
      <trkpt lat="46.0068" lon="4.91554">
        <ele>292</ele>
        <time>2016-09-14T09:10:26Z</time>
      </trkpt>
      <trkpt lat="46.00684" lon="4.9156">
        <ele>291</ele>
        <time>2016-09-14T09:10:27Z</time>
      </trkpt>
      <trkpt lat="46.00687" lon="4.91566">
        <ele>291</ele>
        <time>2016-09-14T09:10:28Z</time>
      </trkpt>
      <trkpt lat="46.00691" lon="4.91572">
        <ele>291</ele>
        <time>2016-09-14T09:10:29Z</time>
      </trkpt>
      <trkpt lat="46.00694" lon="4.91579">
        <ele>291</ele>
        <time>2016-09-14T09:10:30Z</time>
      </trkpt>
      <trkpt lat="46.00696" lon="4.91586">
        <ele>291</ele>
        <time>2016-09-14T09:10:31Z</time>
      </trkpt>
      <trkpt lat="46.00699" lon="4.91594">
        <ele>291</ele>
        <time>2016-09-14T09:10:32Z</time>
      </trkpt>
      <trkpt lat="46.00701" lon="4.91602">
        <ele>291</ele>
        <time>2016-09-14T09:10:33Z</time>
      </trkpt>
      <trkpt lat="46.00703" lon="4.91611">
        <ele>291</ele>
        <time>2016-09-14T09:10:34Z</time>
      </trkpt>
      <trkpt lat="46.00705" lon="4.91619">
        <ele>291</ele>
        <time>2016-09-14T09:10:35Z</time>
      </trkpt>
      <trkpt lat="46.00707" lon="4.91628">
        <ele>291</ele>
        <time>2016-09-14T09:10:36Z</time>
      </trkpt>
      <trkpt lat="46.00709" lon="4.91636">
        <ele>292</ele>
        <time>2016-09-14T09:10:37Z</time>
      </trkpt>
      <trkpt lat="46.00711" lon="4.91644">
        <ele>292</ele>
        <time>2016-09-14T09:10:38Z</time>
      </trkpt>
      <trkpt lat="46.00713" lon="4.91652">
        <ele>292</ele>
        <time>2016-09-14T09:10:39Z</time>
      </trkpt>
      <trkpt lat="46.00715" lon="4.9166">
        <ele>292</ele>
        <time>2016-09-14T09:10:40Z</time>
      </trkpt>
      <trkpt lat="46.00717" lon="4.91667">
        <ele>292</ele>
        <time>2016-09-14T09:10:41Z</time>
      </trkpt>
      <trkpt lat="46.0072" lon="4.91675">
        <ele>292</ele>
        <time>2016-09-14T09:10:42Z</time>
      </trkpt>
      <trkpt lat="46.00722" lon="4.91682">
        <ele>292</ele>
        <time>2016-09-14T09:10:43Z</time>
      </trkpt>
      <trkpt lat="46.00724" lon="4.91689">
        <ele>293</ele>
        <time>2016-09-14T09:10:44Z</time>
      </trkpt>
      <trkpt lat="46.00726" lon="4.91696">
        <ele>293</ele>
        <time>2016-09-14T09:10:45Z</time>
      </trkpt>
      <trkpt lat="46.00727" lon="4.91702">
        <ele>293</ele>
        <time>2016-09-14T09:10:46Z</time>
      </trkpt>
      <trkpt lat="46.00729" lon="4.91709">
        <ele>293</ele>
        <time>2016-09-14T09:10:47Z</time>
      </trkpt>
      <trkpt lat="46.00731" lon="4.91716">
        <ele>293</ele>
        <time>2016-09-14T09:10:48Z</time>
      </trkpt>
      <trkpt lat="46.00732" lon="4.91724">
        <ele>293</ele>
        <time>2016-09-14T09:10:49Z</time>
      </trkpt>
      <trkpt lat="46.00734" lon="4.91732">
        <ele>293</ele>
        <time>2016-09-14T09:10:50Z</time>
      </trkpt>
      <trkpt lat="46.00735" lon="4.91741">
        <ele>293</ele>
        <time>2016-09-14T09:10:51Z</time>
      </trkpt>
      <trkpt lat="46.00737" lon="4.9175">
        <ele>294</ele>
        <time>2016-09-14T09:10:52Z</time>
      </trkpt>
      <trkpt lat="46.00739" lon="4.91759">
        <ele>294</ele>
        <time>2016-09-14T09:10:53Z</time>
      </trkpt>
      <trkpt lat="46.00741" lon="4.91768">
        <ele>294</ele>
        <time>2016-09-14T09:10:54Z</time>
      </trkpt>
      <trkpt lat="46.00742" lon="4.91778">
        <ele>294</ele>
        <time>2016-09-14T09:10:55Z</time>
      </trkpt>
      <trkpt lat="46.00746" lon="4.91786">
        <ele>294</ele>
        <time>2016-09-14T09:10:56Z</time>
      </trkpt>
      <trkpt lat="46.00748" lon="4.91794">
        <ele>294</ele>
        <time>2016-09-14T09:10:57Z</time>
      </trkpt>
      <trkpt lat="46.00752" lon="4.91801">
        <ele>294</ele>
        <time>2016-09-14T09:10:58Z</time>
      </trkpt>
      <trkpt lat="46.00756" lon="4.91808">
        <ele>294</ele>
        <time>2016-09-14T09:10:59Z</time>
      </trkpt>
      <trkpt lat="46.0076" lon="4.91813">
        <ele>294</ele>
        <time>2016-09-14T09:11:00Z</time>
      </trkpt>
      <trkpt lat="46.00764" lon="4.91818">
        <ele>294</ele>
        <time>2016-09-14T09:11:01Z</time>
      </trkpt>
      <trkpt lat="46.00768" lon="4.91823">
        <ele>294</ele>
        <time>2016-09-14T09:11:02Z</time>
      </trkpt>
      <trkpt lat="46.00772" lon="4.91827">
        <ele>295</ele>
        <time>2016-09-14T09:11:03Z</time>
      </trkpt>
      <trkpt lat="46.00778" lon="4.91831">
        <ele>295</ele>
        <time>2016-09-14T09:11:04Z</time>
      </trkpt>
      <trkpt lat="46.00783" lon="4.91835">
        <ele>294</ele>
        <time>2016-09-14T09:11:05Z</time>
      </trkpt>
      <trkpt lat="46.00788" lon="4.91838">
        <ele>294</ele>
        <time>2016-09-14T09:11:06Z</time>
      </trkpt>
      <trkpt lat="46.00793" lon="4.91843">
        <ele>295</ele>
        <time>2016-09-14T09:11:07Z</time>
      </trkpt>
      <trkpt lat="46.00798" lon="4.91847">
        <ele>295</ele>
        <time>2016-09-14T09:11:08Z</time>
      </trkpt>
      <trkpt lat="46.00803" lon="4.91851">
        <ele>295</ele>
        <time>2016-09-14T09:11:09Z</time>
      </trkpt>
      <trkpt lat="46.00809" lon="4.91856">
        <ele>295</ele>
        <time>2016-09-14T09:11:10Z</time>
      </trkpt>
      <trkpt lat="46.00814" lon="4.9186">
        <ele>295</ele>
        <time>2016-09-14T09:11:11Z</time>
      </trkpt>
      <trkpt lat="46.00819" lon="4.91865">
        <ele>295</ele>
        <time>2016-09-14T09:11:12Z</time>
      </trkpt>
      <trkpt lat="46.00825" lon="4.9187">
        <ele>294</ele>
        <time>2016-09-14T09:11:13Z</time>
      </trkpt>
      <trkpt lat="46.0083" lon="4.91875">
        <ele>294</ele>
        <time>2016-09-14T09:11:14Z</time>
      </trkpt>
      <trkpt lat="46.00835" lon="4.9188">
        <ele>295</ele>
        <time>2016-09-14T09:11:15Z</time>
      </trkpt>
      <trkpt lat="46.00839" lon="4.91885">
        <ele>295</ele>
        <time>2016-09-14T09:11:16Z</time>
      </trkpt>
      <trkpt lat="46.00844" lon="4.9189">
        <ele>294</ele>
        <time>2016-09-14T09:11:17Z</time>
      </trkpt>
      <trkpt lat="46.00848" lon="4.91895">
        <ele>294</ele>
        <time>2016-09-14T09:11:18Z</time>
      </trkpt>
      <trkpt lat="46.00852" lon="4.919">
        <ele>294</ele>
        <time>2016-09-14T09:11:19Z</time>
      </trkpt>
      <trkpt lat="46.00856" lon="4.91905">
        <ele>294</ele>
        <time>2016-09-14T09:11:20Z</time>
      </trkpt>
      <trkpt lat="46.00861" lon="4.9191">
        <ele>294</ele>
        <time>2016-09-14T09:11:21Z</time>
      </trkpt>
      <trkpt lat="46.00865" lon="4.91916">
        <ele>295</ele>
        <time>2016-09-14T09:11:22Z</time>
      </trkpt>
      <trkpt lat="46.0087" lon="4.91921">
        <ele>294</ele>
        <time>2016-09-14T09:11:23Z</time>
      </trkpt>
      <trkpt lat="46.00875" lon="4.91927">
        <ele>294</ele>
        <time>2016-09-14T09:11:24Z</time>
      </trkpt>
      <trkpt lat="46.0088" lon="4.91933">
        <ele>294</ele>
        <time>2016-09-14T09:11:25Z</time>
      </trkpt>
      <trkpt lat="46.00885" lon="4.91938">
        <ele>294</ele>
        <time>2016-09-14T09:11:26Z</time>
      </trkpt>
      <trkpt lat="46.00889" lon="4.91943">
        <ele>294</ele>
        <time>2016-09-14T09:11:27Z</time>
      </trkpt>
      <trkpt lat="46.00892" lon="4.91948">
        <ele>294</ele>
        <time>2016-09-14T09:11:28Z</time>
      </trkpt>
      <trkpt lat="46.00896" lon="4.91954">
        <ele>294</ele>
        <time>2016-09-14T09:11:29Z</time>
      </trkpt>
      <trkpt lat="46.009" lon="4.9196">
        <ele>294</ele>
        <time>2016-09-14T09:11:30Z</time>
      </trkpt>
      <trkpt lat="46.00905" lon="4.91966">
        <ele>294</ele>
        <time>2016-09-14T09:11:31Z</time>
      </trkpt>
      <trkpt lat="46.0091" lon="4.91971">
        <ele>294</ele>
        <time>2016-09-14T09:11:32Z</time>
      </trkpt>
      <trkpt lat="46.00914" lon="4.91977">
        <ele>294</ele>
        <time>2016-09-14T09:11:33Z</time>
      </trkpt>
      <trkpt lat="46.00918" lon="4.91982">
        <ele>294</ele>
        <time>2016-09-14T09:11:34Z</time>
      </trkpt>
      <trkpt lat="46.00922" lon="4.91987">
        <ele>294</ele>
        <time>2016-09-14T09:11:35Z</time>
      </trkpt>
      <trkpt lat="46.00926" lon="4.91991">
        <ele>294</ele>
        <time>2016-09-14T09:11:36Z</time>
      </trkpt>
      <trkpt lat="46.0093" lon="4.91996">
        <ele>294</ele>
        <time>2016-09-14T09:11:37Z</time>
      </trkpt>
      <trkpt lat="46.00934" lon="4.92002">
        <ele>293</ele>
        <time>2016-09-14T09:11:38Z</time>
      </trkpt>
      <trkpt lat="46.00939" lon="4.92008">
        <ele>293</ele>
        <time>2016-09-14T09:11:39Z</time>
      </trkpt>
      <trkpt lat="46.00944" lon="4.92014">
        <ele>293</ele>
        <time>2016-09-14T09:11:40Z</time>
      </trkpt>
      <trkpt lat="46.0095" lon="4.92021">
        <ele>293</ele>
        <time>2016-09-14T09:11:41Z</time>
      </trkpt>
      <trkpt lat="46.00954" lon="4.92027">
        <ele>293</ele>
        <time>2016-09-14T09:11:42Z</time>
      </trkpt>
      <trkpt lat="46.00959" lon="4.92033">
        <ele>293</ele>
        <time>2016-09-14T09:11:43Z</time>
      </trkpt>
      <trkpt lat="46.00964" lon="4.92038">
        <ele>293</ele>
        <time>2016-09-14T09:11:44Z</time>
      </trkpt>
      <trkpt lat="46.00969" lon="4.92044">
        <ele>292</ele>
        <time>2016-09-14T09:11:45Z</time>
      </trkpt>
      <trkpt lat="46.00974" lon="4.92049">
        <ele>292</ele>
        <time>2016-09-14T09:11:46Z</time>
      </trkpt>
      <trkpt lat="46.00978" lon="4.92055">
        <ele>292</ele>
        <time>2016-09-14T09:11:47Z</time>
      </trkpt>
      <trkpt lat="46.00982" lon="4.92061">
        <ele>292</ele>
        <time>2016-09-14T09:11:48Z</time>
      </trkpt>
      <trkpt lat="46.00987" lon="4.92067">
        <ele>292</ele>
        <time>2016-09-14T09:11:49Z</time>
      </trkpt>
      <trkpt lat="46.00992" lon="4.92073">
        <ele>292</ele>
        <time>2016-09-14T09:11:50Z</time>
      </trkpt>
      <trkpt lat="46.00996" lon="4.92079">
        <ele>292</ele>
        <time>2016-09-14T09:11:51Z</time>
      </trkpt>
      <trkpt lat="46.01001" lon="4.92085">
        <ele>292</ele>
        <time>2016-09-14T09:11:52Z</time>
      </trkpt>
      <trkpt lat="46.01006" lon="4.92091">
        <ele>292</ele>
        <time>2016-09-14T09:11:53Z</time>
      </trkpt>
      <trkpt lat="46.01011" lon="4.92096">
        <ele>292</ele>
        <time>2016-09-14T09:11:54Z</time>
      </trkpt>
      <trkpt lat="46.01016" lon="4.92102">
        <ele>293</ele>
        <time>2016-09-14T09:11:55Z</time>
      </trkpt>
      <trkpt lat="46.01021" lon="4.92108">
        <ele>293</ele>
        <time>2016-09-14T09:11:56Z</time>
      </trkpt>
      <trkpt lat="46.01025" lon="4.92114">
        <ele>293</ele>
        <time>2016-09-14T09:11:57Z</time>
      </trkpt>
      <trkpt lat="46.0103" lon="4.92119">
        <ele>293</ele>
        <time>2016-09-14T09:11:58Z</time>
      </trkpt>
      <trkpt lat="46.01034" lon="4.92125">
        <ele>293</ele>
        <time>2016-09-14T09:11:59Z</time>
      </trkpt>
      <trkpt lat="46.01038" lon="4.92131">
        <ele>293</ele>
        <time>2016-09-14T09:12:00Z</time>
      </trkpt>
      <trkpt lat="46.01042" lon="4.92137">
        <ele>293</ele>
        <time>2016-09-14T09:12:01Z</time>
      </trkpt>
      <trkpt lat="46.01047" lon="4.92143">
        <ele>293</ele>
        <time>2016-09-14T09:12:02Z</time>
      </trkpt>
      <trkpt lat="46.01051" lon="4.92149">
        <ele>293</ele>
        <time>2016-09-14T09:12:03Z</time>
      </trkpt>
      <trkpt lat="46.01055" lon="4.92154">
        <ele>293</ele>
        <time>2016-09-14T09:12:04Z</time>
      </trkpt>
      <trkpt lat="46.0106" lon="4.92158">
        <ele>293</ele>
        <time>2016-09-14T09:12:05Z</time>
      </trkpt>
      <trkpt lat="46.01064" lon="4.92162">
        <ele>293</ele>
        <time>2016-09-14T09:12:06Z</time>
      </trkpt>
      <trkpt lat="46.01068" lon="4.92168">
        <ele>294</ele>
        <time>2016-09-14T09:12:07Z</time>
      </trkpt>
      <trkpt lat="46.01072" lon="4.92173">
        <ele>294</ele>
        <time>2016-09-14T09:12:08Z</time>
      </trkpt>
      <trkpt lat="46.01076" lon="4.92178">
        <ele>294</ele>
        <time>2016-09-14T09:12:09Z</time>
      </trkpt>
      <trkpt lat="46.0108" lon="4.92183">
        <ele>294</ele>
        <time>2016-09-14T09:12:10Z</time>
      </trkpt>
      <trkpt lat="46.01084" lon="4.92187">
        <ele>293</ele>
        <time>2016-09-14T09:12:11Z</time>
      </trkpt>
      <trkpt lat="46.01089" lon="4.92192">
        <ele>293</ele>
        <time>2016-09-14T09:12:12Z</time>
      </trkpt>
      <trkpt lat="46.01095" lon="4.92197">
        <ele>293</ele>
        <time>2016-09-14T09:12:13Z</time>
      </trkpt>
      <trkpt lat="46.011" lon="4.92201">
        <ele>293</ele>
        <time>2016-09-14T09:12:14Z</time>
      </trkpt>
      <trkpt lat="46.01106" lon="4.92205">
        <ele>293</ele>
        <time>2016-09-14T09:12:15Z</time>
      </trkpt>
      <trkpt lat="46.01112" lon="4.92208">
        <ele>293</ele>
        <time>2016-09-14T09:12:16Z</time>
      </trkpt>
      <trkpt lat="46.01117" lon="4.9221">
        <ele>293</ele>
        <time>2016-09-14T09:12:17Z</time>
      </trkpt>
      <trkpt lat="46.01122" lon="4.92212">
        <ele>293</ele>
        <time>2016-09-14T09:12:18Z</time>
      </trkpt>
      <trkpt lat="46.01127" lon="4.92214">
        <ele>293</ele>
        <time>2016-09-14T09:12:19Z</time>
      </trkpt>
      <trkpt lat="46.01132" lon="4.92215">
        <ele>293</ele>
        <time>2016-09-14T09:12:20Z</time>
      </trkpt>
      <trkpt lat="46.01137" lon="4.92215">
        <ele>293</ele>
        <time>2016-09-14T09:12:21Z</time>
      </trkpt>
      <trkpt lat="46.01141" lon="4.92216">
        <ele>293</ele>
        <time>2016-09-14T09:12:22Z</time>
      </trkpt>
      <trkpt lat="46.01146" lon="4.92217">
        <ele>293</ele>
        <time>2016-09-14T09:12:23Z</time>
      </trkpt>
      <trkpt lat="46.01151" lon="4.92217">
        <ele>293</ele>
        <time>2016-09-14T09:12:24Z</time>
      </trkpt>
      <trkpt lat="46.01155" lon="4.92217">
        <ele>293</ele>
        <time>2016-09-14T09:12:25Z</time>
      </trkpt>
      <trkpt lat="46.0116" lon="4.92217">
        <ele>293</ele>
        <time>2016-09-14T09:12:26Z</time>
      </trkpt>
      <trkpt lat="46.01165" lon="4.92218">
        <ele>293</ele>
        <time>2016-09-14T09:12:27Z</time>
      </trkpt>
      <trkpt lat="46.01169" lon="4.92218">
        <ele>292</ele>
        <time>2016-09-14T09:12:28Z</time>
      </trkpt>
      <trkpt lat="46.01174" lon="4.92219">
        <ele>292</ele>
        <time>2016-09-14T09:12:29Z</time>
      </trkpt>
      <trkpt lat="46.0118" lon="4.92218">
        <ele>292</ele>
        <time>2016-09-14T09:12:30Z</time>
      </trkpt>
      <trkpt lat="46.01186" lon="4.92217">
        <ele>292</ele>
        <time>2016-09-14T09:12:31Z</time>
      </trkpt>
      <trkpt lat="46.01192" lon="4.92217">
        <ele>292</ele>
        <time>2016-09-14T09:12:32Z</time>
      </trkpt>
      <trkpt lat="46.01198" lon="4.92217">
        <ele>292</ele>
        <time>2016-09-14T09:12:33Z</time>
      </trkpt>
      <trkpt lat="46.01204" lon="4.92216">
        <ele>292</ele>
        <time>2016-09-14T09:12:34Z</time>
      </trkpt>
      <trkpt lat="46.0121" lon="4.92216">
        <ele>292</ele>
        <time>2016-09-14T09:12:35Z</time>
      </trkpt>
      <trkpt lat="46.01217" lon="4.92216">
        <ele>292</ele>
        <time>2016-09-14T09:12:36Z</time>
      </trkpt>
      <trkpt lat="46.01223" lon="4.92216">
        <ele>292</ele>
        <time>2016-09-14T09:12:37Z</time>
      </trkpt>
      <trkpt lat="46.01229" lon="4.92214">
        <ele>292</ele>
        <time>2016-09-14T09:12:38Z</time>
      </trkpt>
      <trkpt lat="46.01236" lon="4.92213">
        <ele>292</ele>
        <time>2016-09-14T09:12:39Z</time>
      </trkpt>
      <trkpt lat="46.01242" lon="4.92212">
        <ele>292</ele>
        <time>2016-09-14T09:12:40Z</time>
      </trkpt>
      <trkpt lat="46.01248" lon="4.9221">
        <ele>292</ele>
        <time>2016-09-14T09:12:41Z</time>
      </trkpt>
      <trkpt lat="46.01254" lon="4.92209">
        <ele>292</ele>
        <time>2016-09-14T09:12:42Z</time>
      </trkpt>
      <trkpt lat="46.0126" lon="4.92208">
        <ele>291</ele>
        <time>2016-09-14T09:12:43Z</time>
      </trkpt>
      <trkpt lat="46.01266" lon="4.92207">
        <ele>291</ele>
        <time>2016-09-14T09:12:44Z</time>
      </trkpt>
      <trkpt lat="46.01271" lon="4.92205">
        <ele>291</ele>
        <time>2016-09-14T09:12:45Z</time>
      </trkpt>
      <trkpt lat="46.01276" lon="4.92205">
        <ele>291</ele>
        <time>2016-09-14T09:12:46Z</time>
      </trkpt>
      <trkpt lat="46.01281" lon="4.92203">
        <ele>291</ele>
        <time>2016-09-14T09:12:47Z</time>
      </trkpt>
      <trkpt lat="46.01286" lon="4.92202">
        <ele>291</ele>
        <time>2016-09-14T09:12:48Z</time>
      </trkpt>
      <trkpt lat="46.01291" lon="4.92201">
        <ele>291</ele>
        <time>2016-09-14T09:12:49Z</time>
      </trkpt>
      <trkpt lat="46.01296" lon="4.922">
        <ele>292</ele>
        <time>2016-09-14T09:12:50Z</time>
      </trkpt>
      <trkpt lat="46.01302" lon="4.922">
        <ele>292</ele>
        <time>2016-09-14T09:12:51Z</time>
      </trkpt>
      <trkpt lat="46.01308" lon="4.92199">
        <ele>292</ele>
        <time>2016-09-14T09:12:52Z</time>
      </trkpt>
      <trkpt lat="46.01314" lon="4.92198">
        <ele>292</ele>
        <time>2016-09-14T09:12:53Z</time>
      </trkpt>
      <trkpt lat="46.01321" lon="4.92197">
        <ele>292</ele>
        <time>2016-09-14T09:12:54Z</time>
      </trkpt>
      <trkpt lat="46.01329" lon="4.92195">
        <ele>292</ele>
        <time>2016-09-14T09:12:55Z</time>
      </trkpt>
      <trkpt lat="46.01336" lon="4.92193">
        <ele>291</ele>
        <time>2016-09-14T09:12:56Z</time>
      </trkpt>
      <trkpt lat="46.01343" lon="4.92192">
        <ele>291</ele>
        <time>2016-09-14T09:12:57Z</time>
      </trkpt>
      <trkpt lat="46.01351" lon="4.92191">
        <ele>291</ele>
        <time>2016-09-14T09:12:58Z</time>
      </trkpt>
      <trkpt lat="46.01358" lon="4.92189">
        <ele>291</ele>
        <time>2016-09-14T09:12:59Z</time>
      </trkpt>
      <trkpt lat="46.01366" lon="4.92187">
        <ele>291</ele>
        <time>2016-09-14T09:13:00Z</time>
      </trkpt>
      <trkpt lat="46.01373" lon="4.92187">
        <ele>291</ele>
        <time>2016-09-14T09:13:01Z</time>
      </trkpt>
      <trkpt lat="46.0138" lon="4.92187">
        <ele>291</ele>
        <time>2016-09-14T09:13:02Z</time>
      </trkpt>
      <trkpt lat="46.01387" lon="4.92188">
        <ele>291</ele>
        <time>2016-09-14T09:13:03Z</time>
      </trkpt>
      <trkpt lat="46.01394" lon="4.92189">
        <ele>291</ele>
        <time>2016-09-14T09:13:04Z</time>
      </trkpt>
      <trkpt lat="46.01401" lon="4.92191">
        <ele>291</ele>
        <time>2016-09-14T09:13:05Z</time>
      </trkpt>
      <trkpt lat="46.01408" lon="4.92192">
        <ele>291</ele>
        <time>2016-09-14T09:13:06Z</time>
      </trkpt>
      <trkpt lat="46.01415" lon="4.92193">
        <ele>291</ele>
        <time>2016-09-14T09:13:07Z</time>
      </trkpt>
      <trkpt lat="46.01422" lon="4.92194">
        <ele>291</ele>
        <time>2016-09-14T09:13:08Z</time>
      </trkpt>
      <trkpt lat="46.0143" lon="4.92196">
        <ele>291</ele>
        <time>2016-09-14T09:13:09Z</time>
      </trkpt>
      <trkpt lat="46.01437" lon="4.92198">
        <ele>291</ele>
        <time>2016-09-14T09:13:10Z</time>
      </trkpt>
      <trkpt lat="46.01445" lon="4.92199">
        <ele>291</ele>
        <time>2016-09-14T09:13:11Z</time>
      </trkpt>
      <trkpt lat="46.01452" lon="4.92201">
        <ele>291</ele>
        <time>2016-09-14T09:13:12Z</time>
      </trkpt>
      <trkpt lat="46.01459" lon="4.92202">
        <ele>290</ele>
        <time>2016-09-14T09:13:13Z</time>
      </trkpt>
      <trkpt lat="46.01466" lon="4.92204">
        <ele>290</ele>
        <time>2016-09-14T09:13:14Z</time>
      </trkpt>
      <trkpt lat="46.01472" lon="4.92205">
        <ele>290</ele>
        <time>2016-09-14T09:13:15Z</time>
      </trkpt>
      <trkpt lat="46.01479" lon="4.92206">
        <ele>290</ele>
        <time>2016-09-14T09:13:16Z</time>
      </trkpt>
      <trkpt lat="46.01485" lon="4.92207">
        <ele>290</ele>
        <time>2016-09-14T09:13:17Z</time>
      </trkpt>
      <trkpt lat="46.01491" lon="4.92207">
        <ele>290</ele>
        <time>2016-09-14T09:13:18Z</time>
      </trkpt>
      <trkpt lat="46.01497" lon="4.92207">
        <ele>290</ele>
        <time>2016-09-14T09:13:19Z</time>
      </trkpt>
      <trkpt lat="46.01503" lon="4.92207">
        <ele>290</ele>
        <time>2016-09-14T09:13:20Z</time>
      </trkpt>
      <trkpt lat="46.01509" lon="4.92206">
        <ele>290</ele>
        <time>2016-09-14T09:13:21Z</time>
      </trkpt>
      <trkpt lat="46.01516" lon="4.92205">
        <ele>289</ele>
        <time>2016-09-14T09:13:22Z</time>
      </trkpt>
      <trkpt lat="46.01522" lon="4.92203">
        <ele>289</ele>
        <time>2016-09-14T09:13:23Z</time>
      </trkpt>
      <trkpt lat="46.01528" lon="4.922">
        <ele>289</ele>
        <time>2016-09-14T09:13:24Z</time>
      </trkpt>
      <trkpt lat="46.01535" lon="4.92198">
        <ele>289</ele>
        <time>2016-09-14T09:13:25Z</time>
      </trkpt>
      <trkpt lat="46.01542" lon="4.92196">
        <ele>289</ele>
        <time>2016-09-14T09:13:26Z</time>
      </trkpt>
      <trkpt lat="46.01549" lon="4.92194">
        <ele>289</ele>
        <time>2016-09-14T09:13:27Z</time>
      </trkpt>
      <trkpt lat="46.01555" lon="4.92193">
        <ele>289</ele>
        <time>2016-09-14T09:13:28Z</time>
      </trkpt>
      <trkpt lat="46.01561" lon="4.92193">
        <ele>289</ele>
        <time>2016-09-14T09:13:29Z</time>
      </trkpt>
      <trkpt lat="46.01567" lon="4.92193">
        <ele>289</ele>
        <time>2016-09-14T09:13:30Z</time>
      </trkpt>
      <trkpt lat="46.01574" lon="4.92193">
        <ele>289</ele>
        <time>2016-09-14T09:13:31Z</time>
      </trkpt>
      <trkpt lat="46.0158" lon="4.92194">
        <ele>289</ele>
        <time>2016-09-14T09:13:32Z</time>
      </trkpt>
      <trkpt lat="46.01586" lon="4.92194">
        <ele>289</ele>
        <time>2016-09-14T09:13:33Z</time>
      </trkpt>
      <trkpt lat="46.01592" lon="4.92196">
        <ele>289</ele>
        <time>2016-09-14T09:13:34Z</time>
      </trkpt>
      <trkpt lat="46.01598" lon="4.92196">
        <ele>289</ele>
        <time>2016-09-14T09:13:35Z</time>
      </trkpt>
      <trkpt lat="46.01604" lon="4.92197">
        <ele>289</ele>
        <time>2016-09-14T09:13:36Z</time>
      </trkpt>
      <trkpt lat="46.0161" lon="4.92197">
        <ele>289</ele>
        <time>2016-09-14T09:13:37Z</time>
      </trkpt>
      <trkpt lat="46.01616" lon="4.92197">
        <ele>289</ele>
        <time>2016-09-14T09:13:38Z</time>
      </trkpt>
      <trkpt lat="46.01622" lon="4.92197">
        <ele>289</ele>
        <time>2016-09-14T09:13:39Z</time>
      </trkpt>
      <trkpt lat="46.01628" lon="4.92197">
        <ele>289</ele>
        <time>2016-09-14T09:13:40Z</time>
      </trkpt>
      <trkpt lat="46.01634" lon="4.92197">
        <ele>289</ele>
        <time>2016-09-14T09:13:41Z</time>
      </trkpt>
      <trkpt lat="46.0164" lon="4.92199">
        <ele>289</ele>
        <time>2016-09-14T09:13:42Z</time>
      </trkpt>
      <trkpt lat="46.01646" lon="4.92201">
        <ele>289</ele>
        <time>2016-09-14T09:13:43Z</time>
      </trkpt>
      <trkpt lat="46.01652" lon="4.92205">
        <ele>289</ele>
        <time>2016-09-14T09:13:44Z</time>
      </trkpt>
      <trkpt lat="46.01659" lon="4.92208">
        <ele>289</ele>
        <time>2016-09-14T09:13:45Z</time>
      </trkpt>
      <trkpt lat="46.01665" lon="4.92212">
        <ele>289</ele>
        <time>2016-09-14T09:13:46Z</time>
      </trkpt>
      <trkpt lat="46.0167" lon="4.92217">
        <ele>289</ele>
        <time>2016-09-14T09:13:47Z</time>
      </trkpt>
      <trkpt lat="46.01675" lon="4.92222">
        <ele>289</ele>
        <time>2016-09-14T09:13:48Z</time>
      </trkpt>
      <trkpt lat="46.0168" lon="4.92228">
        <ele>289</ele>
        <time>2016-09-14T09:13:49Z</time>
      </trkpt>
      <trkpt lat="46.01684" lon="4.92235">
        <ele>289</ele>
        <time>2016-09-14T09:13:50Z</time>
      </trkpt>
      <trkpt lat="46.01688" lon="4.92242">
        <ele>289</ele>
        <time>2016-09-14T09:13:51Z</time>
      </trkpt>
      <trkpt lat="46.01692" lon="4.9225">
        <ele>289</ele>
        <time>2016-09-14T09:13:52Z</time>
      </trkpt>
      <trkpt lat="46.01695" lon="4.92258">
        <ele>289</ele>
        <time>2016-09-14T09:13:53Z</time>
      </trkpt>
      <trkpt lat="46.01699" lon="4.92266">
        <ele>289</ele>
        <time>2016-09-14T09:13:54Z</time>
      </trkpt>
      <trkpt lat="46.01702" lon="4.92275">
        <ele>289</ele>
        <time>2016-09-14T09:13:55Z</time>
      </trkpt>
      <trkpt lat="46.01705" lon="4.92283">
        <ele>289</ele>
        <time>2016-09-14T09:13:56Z</time>
      </trkpt>
      <trkpt lat="46.01709" lon="4.92291">
        <ele>289</ele>
        <time>2016-09-14T09:13:57Z</time>
      </trkpt>
      <trkpt lat="46.01712" lon="4.92299">
        <ele>289</ele>
        <time>2016-09-14T09:13:58Z</time>
      </trkpt>
      <trkpt lat="46.01715" lon="4.92307">
        <ele>289</ele>
        <time>2016-09-14T09:13:59Z</time>
      </trkpt>
      <trkpt lat="46.01719" lon="4.92315">
        <ele>289</ele>
        <time>2016-09-14T09:14:00Z</time>
      </trkpt>
      <trkpt lat="46.01722" lon="4.92323">
        <ele>289</ele>
        <time>2016-09-14T09:14:01Z</time>
      </trkpt>
      <trkpt lat="46.01726" lon="4.92331">
        <ele>288</ele>
        <time>2016-09-14T09:14:02Z</time>
      </trkpt>
      <trkpt lat="46.01729" lon="4.92338">
        <ele>288</ele>
        <time>2016-09-14T09:14:03Z</time>
      </trkpt>
      <trkpt lat="46.01733" lon="4.92346">
        <ele>288</ele>
        <time>2016-09-14T09:14:04Z</time>
      </trkpt>
      <trkpt lat="46.01736" lon="4.92353">
        <ele>288</ele>
        <time>2016-09-14T09:14:05Z</time>
      </trkpt>
      <trkpt lat="46.01739" lon="4.9236">
        <ele>288</ele>
        <time>2016-09-14T09:14:06Z</time>
      </trkpt>
      <trkpt lat="46.01743" lon="4.92367">
        <ele>288</ele>
        <time>2016-09-14T09:14:07Z</time>
      </trkpt>
      <trkpt lat="46.01746" lon="4.92375">
        <ele>288</ele>
        <time>2016-09-14T09:14:08Z</time>
      </trkpt>
      <trkpt lat="46.01749" lon="4.92382">
        <ele>288</ele>
        <time>2016-09-14T09:14:09Z</time>
      </trkpt>
      <trkpt lat="46.01752" lon="4.9239">
        <ele>287</ele>
        <time>2016-09-14T09:14:10Z</time>
      </trkpt>
      <trkpt lat="46.01756" lon="4.92398">
        <ele>287</ele>
        <time>2016-09-14T09:14:11Z</time>
      </trkpt>
      <trkpt lat="46.01759" lon="4.92406">
        <ele>287</ele>
        <time>2016-09-14T09:14:12Z</time>
      </trkpt>
      <trkpt lat="46.01763" lon="4.92414">
        <ele>287</ele>
        <time>2016-09-14T09:14:13Z</time>
      </trkpt>
      <trkpt lat="46.01766" lon="4.92422">
        <ele>287</ele>
        <time>2016-09-14T09:14:14Z</time>
      </trkpt>
      <trkpt lat="46.01769" lon="4.92431">
        <ele>287</ele>
        <time>2016-09-14T09:14:15Z</time>
      </trkpt>
      <trkpt lat="46.01773" lon="4.92439">
        <ele>287</ele>
        <time>2016-09-14T09:14:16Z</time>
      </trkpt>
      <trkpt lat="46.01777" lon="4.92448">
        <ele>287</ele>
        <time>2016-09-14T09:14:17Z</time>
      </trkpt>
      <trkpt lat="46.01781" lon="4.92456">
        <ele>287</ele>
        <time>2016-09-14T09:14:18Z</time>
      </trkpt>
      <trkpt lat="46.01785" lon="4.92465">
        <ele>287</ele>
        <time>2016-09-14T09:14:19Z</time>
      </trkpt>
      <trkpt lat="46.01789" lon="4.92474">
        <ele>287</ele>
        <time>2016-09-14T09:14:20Z</time>
      </trkpt>
      <trkpt lat="46.01793" lon="4.92483">
        <ele>287</ele>
        <time>2016-09-14T09:14:21Z</time>
      </trkpt>
      <trkpt lat="46.01796" lon="4.92492">
        <ele>287</ele>
        <time>2016-09-14T09:14:22Z</time>
      </trkpt>
      <trkpt lat="46.018" lon="4.92501">
        <ele>287</ele>
        <time>2016-09-14T09:14:23Z</time>
      </trkpt>
      <trkpt lat="46.01804" lon="4.92509">
        <ele>287</ele>
        <time>2016-09-14T09:14:24Z</time>
      </trkpt>
      <trkpt lat="46.01808" lon="4.92517">
        <ele>287</ele>
        <time>2016-09-14T09:14:25Z</time>
      </trkpt>
      <trkpt lat="46.01811" lon="4.92525">
        <ele>287</ele>
        <time>2016-09-14T09:14:26Z</time>
      </trkpt>
      <trkpt lat="46.01815" lon="4.92532">
        <ele>287</ele>
        <time>2016-09-14T09:14:27Z</time>
      </trkpt>
      <trkpt lat="46.01818" lon="4.9254">
        <ele>287</ele>
        <time>2016-09-14T09:14:28Z</time>
      </trkpt>
      <trkpt lat="46.01822" lon="4.92547">
        <ele>287</ele>
        <time>2016-09-14T09:14:29Z</time>
      </trkpt>
      <trkpt lat="46.01825" lon="4.92554">
        <ele>287</ele>
        <time>2016-09-14T09:14:30Z</time>
      </trkpt>
      <trkpt lat="46.01828" lon="4.92561">
        <ele>287</ele>
        <time>2016-09-14T09:14:31Z</time>
      </trkpt>
      <trkpt lat="46.01831" lon="4.92568">
        <ele>286</ele>
        <time>2016-09-14T09:14:32Z</time>
      </trkpt>
      <trkpt lat="46.01833" lon="4.92576">
        <ele>286</ele>
        <time>2016-09-14T09:14:33Z</time>
      </trkpt>
      <trkpt lat="46.01837" lon="4.92584">
        <ele>286</ele>
        <time>2016-09-14T09:14:34Z</time>
      </trkpt>
      <trkpt lat="46.0184" lon="4.92592">
        <ele>287</ele>
        <time>2016-09-14T09:14:35Z</time>
      </trkpt>
      <trkpt lat="46.01843" lon="4.926">
        <ele>287</ele>
        <time>2016-09-14T09:14:36Z</time>
      </trkpt>
      <trkpt lat="46.01847" lon="4.92608">
        <ele>288</ele>
        <time>2016-09-14T09:14:37Z</time>
      </trkpt>
      <trkpt lat="46.0185" lon="4.92617">
        <ele>288</ele>
        <time>2016-09-14T09:14:38Z</time>
      </trkpt>
      <trkpt lat="46.01853" lon="4.92625">
        <ele>288</ele>
        <time>2016-09-14T09:14:39Z</time>
      </trkpt>
      <trkpt lat="46.01856" lon="4.92633">
        <ele>288</ele>
        <time>2016-09-14T09:14:40Z</time>
      </trkpt>
      <trkpt lat="46.01859" lon="4.92641">
        <ele>288</ele>
        <time>2016-09-14T09:14:41Z</time>
      </trkpt>
      <trkpt lat="46.01862" lon="4.92648">
        <ele>288</ele>
        <time>2016-09-14T09:14:42Z</time>
      </trkpt>
      <trkpt lat="46.01866" lon="4.92654">
        <ele>288</ele>
        <time>2016-09-14T09:14:43Z</time>
      </trkpt>
      <trkpt lat="46.01869" lon="4.92661">
        <ele>289</ele>
        <time>2016-09-14T09:14:44Z</time>
      </trkpt>
      <trkpt lat="46.01871" lon="4.92668">
        <ele>290</ele>
        <time>2016-09-14T09:14:45Z</time>
      </trkpt>
      <trkpt lat="46.01874" lon="4.92675">
        <ele>290</ele>
        <time>2016-09-14T09:14:46Z</time>
      </trkpt>
      <trkpt lat="46.01877" lon="4.92682">
        <ele>290</ele>
        <time>2016-09-14T09:14:47Z</time>
      </trkpt>
      <trkpt lat="46.0188" lon="4.92688">
        <ele>290</ele>
        <time>2016-09-14T09:14:48Z</time>
      </trkpt>
      <trkpt lat="46.01883" lon="4.92695">
        <ele>290</ele>
        <time>2016-09-14T09:14:49Z</time>
      </trkpt>
      <trkpt lat="46.01886" lon="4.92702">
        <ele>290</ele>
        <time>2016-09-14T09:14:50Z</time>
      </trkpt>
      <trkpt lat="46.01889" lon="4.92708">
        <ele>290</ele>
        <time>2016-09-14T09:14:51Z</time>
      </trkpt>
      <trkpt lat="46.01892" lon="4.92714">
        <ele>290</ele>
        <time>2016-09-14T09:14:52Z</time>
      </trkpt>
      <trkpt lat="46.01895" lon="4.9272">
        <ele>290</ele>
        <time>2016-09-14T09:14:53Z</time>
      </trkpt>
      <trkpt lat="46.01897" lon="4.92726">
        <ele>290</ele>
        <time>2016-09-14T09:14:54Z</time>
      </trkpt>
      <trkpt lat="46.019" lon="4.92731">
        <ele>291</ele>
        <time>2016-09-14T09:14:55Z</time>
      </trkpt>
      <trkpt lat="46.01904" lon="4.92743">
        <ele>291</ele>
        <time>2016-09-14T09:14:57Z</time>
      </trkpt>
      <trkpt lat="46.01905" lon="4.92749">
        <ele>291</ele>
        <time>2016-09-14T09:14:58Z</time>
      </trkpt>
      <trkpt lat="46.01907" lon="4.92756">
        <ele>291</ele>
        <time>2016-09-14T09:14:59Z</time>
      </trkpt>
      <trkpt lat="46.01908" lon="4.92762">
        <ele>291</ele>
        <time>2016-09-14T09:15:00Z</time>
      </trkpt>
      <trkpt lat="46.01911" lon="4.92769">
        <ele>291</ele>
        <time>2016-09-14T09:15:01Z</time>
      </trkpt>
      <trkpt lat="46.01913" lon="4.92775">
        <ele>291</ele>
        <time>2016-09-14T09:15:02Z</time>
      </trkpt>
      <trkpt lat="46.01916" lon="4.92782">
        <ele>291</ele>
        <time>2016-09-14T09:15:03Z</time>
      </trkpt>
      <trkpt lat="46.01919" lon="4.92789">
        <ele>292</ele>
        <time>2016-09-14T09:15:04Z</time>
      </trkpt>
      <trkpt lat="46.01922" lon="4.92796">
        <ele>292</ele>
        <time>2016-09-14T09:15:05Z</time>
      </trkpt>
      <trkpt lat="46.01924" lon="4.92801">
        <ele>292</ele>
        <time>2016-09-14T09:15:06Z</time>
      </trkpt>
      <trkpt lat="46.01927" lon="4.92806">
        <ele>292</ele>
        <time>2016-09-14T09:15:07Z</time>
      </trkpt>
      <trkpt lat="46.0193" lon="4.92813">
        <ele>292</ele>
        <time>2016-09-14T09:15:08Z</time>
      </trkpt>
      <trkpt lat="46.01932" lon="4.92818">
        <ele>292</ele>
        <time>2016-09-14T09:15:09Z</time>
      </trkpt>
      <trkpt lat="46.01935" lon="4.92824">
        <ele>292</ele>
        <time>2016-09-14T09:15:10Z</time>
      </trkpt>
      <trkpt lat="46.01938" lon="4.9283">
        <ele>292</ele>
        <time>2016-09-14T09:15:11Z</time>
      </trkpt>
      <trkpt lat="46.01941" lon="4.92836">
        <ele>292</ele>
        <time>2016-09-14T09:15:12Z</time>
      </trkpt>
      <trkpt lat="46.01944" lon="4.92841">
        <ele>292</ele>
        <time>2016-09-14T09:15:13Z</time>
      </trkpt>
      <trkpt lat="46.01946" lon="4.92846">
        <ele>292</ele>
        <time>2016-09-14T09:15:14Z</time>
      </trkpt>
      <trkpt lat="46.01952" lon="4.92855">
        <ele>292</ele>
        <time>2016-09-14T09:15:16Z</time>
      </trkpt>
      <trkpt lat="46.01955" lon="4.92859">
        <ele>292</ele>
        <time>2016-09-14T09:15:17Z</time>
      </trkpt>
      <trkpt lat="46.01956" lon="4.92868">
        <ele>292</ele>
        <time>2016-09-14T09:15:19Z</time>
      </trkpt>
      <trkpt lat="46.01954" lon="4.92874">
        <ele>292</ele>
        <time>2016-09-14T09:15:20Z</time>
      </trkpt>
      <trkpt lat="46.01953" lon="4.9288">
        <ele>293</ele>
        <time>2016-09-14T09:15:21Z</time>
      </trkpt>
      <trkpt lat="46.0195" lon="4.92886">
        <ele>293</ele>
        <time>2016-09-14T09:15:22Z</time>
      </trkpt>
      <trkpt lat="46.01948" lon="4.92893">
        <ele>293</ele>
        <time>2016-09-14T09:15:23Z</time>
      </trkpt>
      <trkpt lat="46.01946" lon="4.929">
        <ele>293</ele>
        <time>2016-09-14T09:15:24Z</time>
      </trkpt>
      <trkpt lat="46.01945" lon="4.92907">
        <ele>293</ele>
        <time>2016-09-14T09:15:25Z</time>
      </trkpt>
      <trkpt lat="46.01943" lon="4.92914">
        <ele>293</ele>
        <time>2016-09-14T09:15:26Z</time>
      </trkpt>
      <trkpt lat="46.01942" lon="4.9292">
        <ele>293</ele>
        <time>2016-09-14T09:15:27Z</time>
      </trkpt>
      <trkpt lat="46.0194" lon="4.92926">
        <ele>293</ele>
        <time>2016-09-14T09:15:28Z</time>
      </trkpt>
      <trkpt lat="46.01937" lon="4.92938">
        <ele>293</ele>
        <time>2016-09-14T09:15:30Z</time>
      </trkpt>
      <trkpt lat="46.01935" lon="4.92944">
        <ele>293</ele>
        <time>2016-09-14T09:15:31Z</time>
      </trkpt>
      <trkpt lat="46.01933" lon="4.9295">
        <ele>293</ele>
        <time>2016-09-14T09:15:32Z</time>
      </trkpt>
      <trkpt lat="46.01931" lon="4.92956">
        <ele>293</ele>
        <time>2016-09-14T09:15:33Z</time>
      </trkpt>
      <trkpt lat="46.0193" lon="4.92963">
        <ele>293</ele>
        <time>2016-09-14T09:15:34Z</time>
      </trkpt>
      <trkpt lat="46.01929" lon="4.9297">
        <ele>293</ele>
        <time>2016-09-14T09:15:35Z</time>
      </trkpt>
      <trkpt lat="46.01927" lon="4.92976">
        <ele>293</ele>
        <time>2016-09-14T09:15:36Z</time>
      </trkpt>
      <trkpt lat="46.01926" lon="4.92983">
        <ele>293</ele>
        <time>2016-09-14T09:15:37Z</time>
      </trkpt>
      <trkpt lat="46.01925" lon="4.92989">
        <ele>293</ele>
        <time>2016-09-14T09:15:38Z</time>
      </trkpt>
      <trkpt lat="46.01923" lon="4.92996">
        <ele>293</ele>
        <time>2016-09-14T09:15:39Z</time>
      </trkpt>
      <trkpt lat="46.01922" lon="4.93002">
        <ele>293</ele>
        <time>2016-09-14T09:15:40Z</time>
      </trkpt>
      <trkpt lat="46.01921" lon="4.93008">
        <ele>293</ele>
        <time>2016-09-14T09:15:41Z</time>
      </trkpt>
      <trkpt lat="46.01919" lon="4.93015">
        <ele>293</ele>
        <time>2016-09-14T09:15:42Z</time>
      </trkpt>
      <trkpt lat="46.01918" lon="4.93021">
        <ele>293</ele>
        <time>2016-09-14T09:15:43Z</time>
      </trkpt>
      <trkpt lat="46.01917" lon="4.93028">
        <ele>293</ele>
        <time>2016-09-14T09:15:44Z</time>
      </trkpt>
      <trkpt lat="46.01915" lon="4.93035">
        <ele>293</ele>
        <time>2016-09-14T09:15:45Z</time>
      </trkpt>
      <trkpt lat="46.01914" lon="4.93041">
        <ele>293</ele>
        <time>2016-09-14T09:15:46Z</time>
      </trkpt>
      <trkpt lat="46.01912" lon="4.93048">
        <ele>293</ele>
        <time>2016-09-14T09:15:47Z</time>
      </trkpt>
      <trkpt lat="46.01912" lon="4.93055">
        <ele>294</ele>
        <time>2016-09-14T09:15:48Z</time>
      </trkpt>
      <trkpt lat="46.01911" lon="4.93061">
        <ele>294</ele>
        <time>2016-09-14T09:15:49Z</time>
      </trkpt>
      <trkpt lat="46.01909" lon="4.93068">
        <ele>294</ele>
        <time>2016-09-14T09:15:50Z</time>
      </trkpt>
      <trkpt lat="46.01908" lon="4.93074">
        <ele>294</ele>
        <time>2016-09-14T09:15:51Z</time>
      </trkpt>
      <trkpt lat="46.01904" lon="4.93085">
        <ele>295</ele>
        <time>2016-09-14T09:15:53Z</time>
      </trkpt>
      <trkpt lat="46.01903" lon="4.93092">
        <ele>295</ele>
        <time>2016-09-14T09:15:54Z</time>
      </trkpt>
      <trkpt lat="46.01902" lon="4.93099">
        <ele>295</ele>
        <time>2016-09-14T09:15:55Z</time>
      </trkpt>
      <trkpt lat="46.01901" lon="4.93105">
        <ele>295</ele>
        <time>2016-09-14T09:15:56Z</time>
      </trkpt>
      <trkpt lat="46.01899" lon="4.93117">
        <ele>295</ele>
        <time>2016-09-14T09:15:58Z</time>
      </trkpt>
      <trkpt lat="46.01898" lon="4.93123">
        <ele>295</ele>
        <time>2016-09-14T09:15:59Z</time>
      </trkpt>
      <trkpt lat="46.01897" lon="4.93136">
        <ele>295</ele>
        <time>2016-09-14T09:16:01Z</time>
      </trkpt>
      <trkpt lat="46.01896" lon="4.93142">
        <ele>295</ele>
        <time>2016-09-14T09:16:02Z</time>
      </trkpt>
      <trkpt lat="46.01896" lon="4.93149">
        <ele>295</ele>
        <time>2016-09-14T09:16:03Z</time>
      </trkpt>
      <trkpt lat="46.01895" lon="4.93156">
        <ele>295</ele>
        <time>2016-09-14T09:16:04Z</time>
      </trkpt>
      <trkpt lat="46.01894" lon="4.93164">
        <ele>295</ele>
        <time>2016-09-14T09:16:05Z</time>
      </trkpt>
      <trkpt lat="46.01894" lon="4.93171">
        <ele>295</ele>
        <time>2016-09-14T09:16:06Z</time>
      </trkpt>
      <trkpt lat="46.01894" lon="4.93178">
        <ele>295</ele>
        <time>2016-09-14T09:16:07Z</time>
      </trkpt>
      <trkpt lat="46.01894" lon="4.93184">
        <ele>295</ele>
        <time>2016-09-14T09:16:08Z</time>
      </trkpt>
      <trkpt lat="46.01894" lon="4.93191">
        <ele>295</ele>
        <time>2016-09-14T09:16:09Z</time>
      </trkpt>
      <trkpt lat="46.01894" lon="4.93197">
        <ele>295</ele>
        <time>2016-09-14T09:16:10Z</time>
      </trkpt>
      <trkpt lat="46.01894" lon="4.9321">
        <ele>295</ele>
        <time>2016-09-14T09:16:12Z</time>
      </trkpt>
      <trkpt lat="46.01895" lon="4.93216">
        <ele>295</ele>
        <time>2016-09-14T09:16:13Z</time>
      </trkpt>
      <trkpt lat="46.01895" lon="4.93229">
        <ele>295</ele>
        <time>2016-09-14T09:16:15Z</time>
      </trkpt>
      <trkpt lat="46.01895" lon="4.93235">
        <ele>295</ele>
        <time>2016-09-14T09:16:16Z</time>
      </trkpt>
      <trkpt lat="46.01894" lon="4.93247">
        <ele>295</ele>
        <time>2016-09-14T09:16:18Z</time>
      </trkpt>
      <trkpt lat="46.01894" lon="4.93254">
        <ele>296</ele>
        <time>2016-09-14T09:16:19Z</time>
      </trkpt>
      <trkpt lat="46.01894" lon="4.93261">
        <ele>296</ele>
        <time>2016-09-14T09:16:20Z</time>
      </trkpt>
      <trkpt lat="46.01894" lon="4.93268">
        <ele>296</ele>
        <time>2016-09-14T09:16:21Z</time>
      </trkpt>
      <trkpt lat="46.01893" lon="4.93275">
        <ele>296</ele>
        <time>2016-09-14T09:16:22Z</time>
      </trkpt>
      <trkpt lat="46.01892" lon="4.93282">
        <ele>296</ele>
        <time>2016-09-14T09:16:23Z</time>
      </trkpt>
      <trkpt lat="46.01892" lon="4.93288">
        <ele>296</ele>
        <time>2016-09-14T09:16:24Z</time>
      </trkpt>
      <trkpt lat="46.01891" lon="4.93295">
        <ele>296</ele>
        <time>2016-09-14T09:16:25Z</time>
      </trkpt>
      <trkpt lat="46.01889" lon="4.93302">
        <ele>296</ele>
        <time>2016-09-14T09:16:26Z</time>
      </trkpt>
      <trkpt lat="46.01888" lon="4.93309">
        <ele>296</ele>
        <time>2016-09-14T09:16:27Z</time>
      </trkpt>
      <trkpt lat="46.01886" lon="4.93316">
        <ele>296</ele>
        <time>2016-09-14T09:16:28Z</time>
      </trkpt>
      <trkpt lat="46.01884" lon="4.93322">
        <ele>296</ele>
        <time>2016-09-14T09:16:29Z</time>
      </trkpt>
      <trkpt lat="46.01882" lon="4.93329">
        <ele>296</ele>
        <time>2016-09-14T09:16:30Z</time>
      </trkpt>
      <trkpt lat="46.0188" lon="4.93336">
        <ele>296</ele>
        <time>2016-09-14T09:16:31Z</time>
      </trkpt>
      <trkpt lat="46.01878" lon="4.93343">
        <ele>296</ele>
        <time>2016-09-14T09:16:32Z</time>
      </trkpt>
      <trkpt lat="46.01877" lon="4.9335">
        <ele>296</ele>
        <time>2016-09-14T09:16:33Z</time>
      </trkpt>
      <trkpt lat="46.01875" lon="4.93357">
        <ele>296</ele>
        <time>2016-09-14T09:16:34Z</time>
      </trkpt>
      <trkpt lat="46.01874" lon="4.93364">
        <ele>296</ele>
        <time>2016-09-14T09:16:35Z</time>
      </trkpt>
      <trkpt lat="46.01873" lon="4.93371">
        <ele>296</ele>
        <time>2016-09-14T09:16:36Z</time>
      </trkpt>
      <trkpt lat="46.01871" lon="4.93378">
        <ele>296</ele>
        <time>2016-09-14T09:16:37Z</time>
      </trkpt>
      <trkpt lat="46.01869" lon="4.93386">
        <ele>296</ele>
        <time>2016-09-14T09:16:38Z</time>
      </trkpt>
      <trkpt lat="46.01868" lon="4.93392">
        <ele>296</ele>
        <time>2016-09-14T09:16:39Z</time>
      </trkpt>
      <trkpt lat="46.01866" lon="4.93398">
        <ele>296</ele>
        <time>2016-09-14T09:16:40Z</time>
      </trkpt>
      <trkpt lat="46.01864" lon="4.93405">
        <ele>296</ele>
        <time>2016-09-14T09:16:41Z</time>
      </trkpt>
      <trkpt lat="46.01861" lon="4.9341">
        <ele>296</ele>
        <time>2016-09-14T09:16:42Z</time>
      </trkpt>
      <trkpt lat="46.01859" lon="4.93416">
        <ele>296</ele>
        <time>2016-09-14T09:16:43Z</time>
      </trkpt>
      <trkpt lat="46.01857" lon="4.93423">
        <ele>296</ele>
        <time>2016-09-14T09:16:44Z</time>
      </trkpt>
      <trkpt lat="46.01855" lon="4.93429">
        <ele>296</ele>
        <time>2016-09-14T09:16:45Z</time>
      </trkpt>
      <trkpt lat="46.01853" lon="4.93436">
        <ele>296</ele>
        <time>2016-09-14T09:16:46Z</time>
      </trkpt>
      <trkpt lat="46.01851" lon="4.93442">
        <ele>296</ele>
        <time>2016-09-14T09:16:47Z</time>
      </trkpt>
      <trkpt lat="46.01849" lon="4.93449">
        <ele>295</ele>
        <time>2016-09-14T09:16:48Z</time>
      </trkpt>
      <trkpt lat="46.01848" lon="4.93456">
        <ele>295</ele>
        <time>2016-09-14T09:16:49Z</time>
      </trkpt>
      <trkpt lat="46.01846" lon="4.93463">
        <ele>295</ele>
        <time>2016-09-14T09:16:50Z</time>
      </trkpt>
      <trkpt lat="46.01844" lon="4.9347">
        <ele>295</ele>
        <time>2016-09-14T09:16:51Z</time>
      </trkpt>
      <trkpt lat="46.01842" lon="4.93478">
        <ele>295</ele>
        <time>2016-09-14T09:16:52Z</time>
      </trkpt>
      <trkpt lat="46.01841" lon="4.93485">
        <ele>295</ele>
        <time>2016-09-14T09:16:53Z</time>
      </trkpt>
      <trkpt lat="46.0184" lon="4.93491">
        <ele>295</ele>
        <time>2016-09-14T09:16:54Z</time>
      </trkpt>
      <trkpt lat="46.01839" lon="4.93498">
        <ele>295</ele>
        <time>2016-09-14T09:16:55Z</time>
      </trkpt>
      <trkpt lat="46.01841" lon="4.93505">
        <ele>295</ele>
        <time>2016-09-14T09:16:56Z</time>
      </trkpt>
      <trkpt lat="46.01843" lon="4.93511">
        <ele>294</ele>
        <time>2016-09-14T09:16:57Z</time>
      </trkpt>
      <trkpt lat="46.01846" lon="4.93517">
        <ele>294</ele>
        <time>2016-09-14T09:16:58Z</time>
      </trkpt>
      <trkpt lat="46.01849" lon="4.93524">
        <ele>294</ele>
        <time>2016-09-14T09:16:59Z</time>
      </trkpt>
      <trkpt lat="46.01852" lon="4.93531">
        <ele>294</ele>
        <time>2016-09-14T09:17:00Z</time>
      </trkpt>
      <trkpt lat="46.01855" lon="4.93538">
        <ele>294</ele>
        <time>2016-09-14T09:17:01Z</time>
      </trkpt>
      <trkpt lat="46.01858" lon="4.93544">
        <ele>294</ele>
        <time>2016-09-14T09:17:02Z</time>
      </trkpt>
      <trkpt lat="46.01861" lon="4.93551">
        <ele>294</ele>
        <time>2016-09-14T09:17:03Z</time>
      </trkpt>
      <trkpt lat="46.01864" lon="4.93557">
        <ele>294</ele>
        <time>2016-09-14T09:17:04Z</time>
      </trkpt>
      <trkpt lat="46.01866" lon="4.93564">
        <ele>294</ele>
        <time>2016-09-14T09:17:05Z</time>
      </trkpt>
      <trkpt lat="46.01869" lon="4.9357">
        <ele>294</ele>
        <time>2016-09-14T09:17:06Z</time>
      </trkpt>
      <trkpt lat="46.01871" lon="4.93576">
        <ele>294</ele>
        <time>2016-09-14T09:17:07Z</time>
      </trkpt>
      <trkpt lat="46.01874" lon="4.93581">
        <ele>293</ele>
        <time>2016-09-14T09:17:08Z</time>
      </trkpt>
      <trkpt lat="46.01877" lon="4.93587">
        <ele>293</ele>
        <time>2016-09-14T09:17:09Z</time>
      </trkpt>
      <trkpt lat="46.01879" lon="4.93594">
        <ele>293</ele>
        <time>2016-09-14T09:17:10Z</time>
      </trkpt>
      <trkpt lat="46.01883" lon="4.93601">
        <ele>293</ele>
        <time>2016-09-14T09:17:11Z</time>
      </trkpt>
      <trkpt lat="46.01886" lon="4.93607">
        <ele>293</ele>
        <time>2016-09-14T09:17:12Z</time>
      </trkpt>
      <trkpt lat="46.01888" lon="4.93613">
        <ele>293</ele>
        <time>2016-09-14T09:17:13Z</time>
      </trkpt>
      <trkpt lat="46.01891" lon="4.9362">
        <ele>293</ele>
        <time>2016-09-14T09:17:14Z</time>
      </trkpt>
      <trkpt lat="46.01894" lon="4.93626">
        <ele>293</ele>
        <time>2016-09-14T09:17:15Z</time>
      </trkpt>
      <trkpt lat="46.01897" lon="4.93633">
        <ele>293</ele>
        <time>2016-09-14T09:17:16Z</time>
      </trkpt>
      <trkpt lat="46.019" lon="4.9364">
        <ele>293</ele>
        <time>2016-09-14T09:17:17Z</time>
      </trkpt>
      <trkpt lat="46.01903" lon="4.93647">
        <ele>293</ele>
        <time>2016-09-14T09:17:18Z</time>
      </trkpt>
      <trkpt lat="46.01906" lon="4.93653">
        <ele>292</ele>
        <time>2016-09-14T09:17:19Z</time>
      </trkpt>
      <trkpt lat="46.0191" lon="4.9366">
        <ele>292</ele>
        <time>2016-09-14T09:17:20Z</time>
      </trkpt>
      <trkpt lat="46.01913" lon="4.93667">
        <ele>292</ele>
        <time>2016-09-14T09:17:21Z</time>
      </trkpt>
      <trkpt lat="46.01917" lon="4.93674">
        <ele>293</ele>
        <time>2016-09-14T09:17:22Z</time>
      </trkpt>
      <trkpt lat="46.01921" lon="4.9368">
        <ele>293</ele>
        <time>2016-09-14T09:17:23Z</time>
      </trkpt>
      <trkpt lat="46.01925" lon="4.93687">
        <ele>293</ele>
        <time>2016-09-14T09:17:24Z</time>
      </trkpt>
      <trkpt lat="46.01929" lon="4.93694">
        <ele>294</ele>
        <time>2016-09-14T09:17:25Z</time>
      </trkpt>
      <trkpt lat="46.01933" lon="4.93702">
        <ele>294</ele>
        <time>2016-09-14T09:17:26Z</time>
      </trkpt>
      <trkpt lat="46.01937" lon="4.93709">
        <ele>294</ele>
        <time>2016-09-14T09:17:27Z</time>
      </trkpt>
      <trkpt lat="46.01941" lon="4.93715">
        <ele>294</ele>
        <time>2016-09-14T09:17:28Z</time>
      </trkpt>
      <trkpt lat="46.01945" lon="4.93722">
        <ele>294</ele>
        <time>2016-09-14T09:17:29Z</time>
      </trkpt>
      <trkpt lat="46.01949" lon="4.93728">
        <ele>294</ele>
        <time>2016-09-14T09:17:30Z</time>
      </trkpt>
      <trkpt lat="46.01954" lon="4.93735">
        <ele>294</ele>
        <time>2016-09-14T09:17:31Z</time>
      </trkpt>
      <trkpt lat="46.01958" lon="4.93741">
        <ele>294</ele>
        <time>2016-09-14T09:17:32Z</time>
      </trkpt>
      <trkpt lat="46.01962" lon="4.93747">
        <ele>295</ele>
        <time>2016-09-14T09:17:33Z</time>
      </trkpt>
      <trkpt lat="46.01967" lon="4.93752">
        <ele>295</ele>
        <time>2016-09-14T09:17:34Z</time>
      </trkpt>
      <trkpt lat="46.01971" lon="4.93757">
        <ele>295</ele>
        <time>2016-09-14T09:17:35Z</time>
      </trkpt>
      <trkpt lat="46.01974" lon="4.93762">
        <ele>295</ele>
        <time>2016-09-14T09:17:36Z</time>
      </trkpt>
      <trkpt lat="46.01978" lon="4.93768">
        <ele>295</ele>
        <time>2016-09-14T09:17:37Z</time>
      </trkpt>
      <trkpt lat="46.01982" lon="4.93774">
        <ele>295</ele>
        <time>2016-09-14T09:17:38Z</time>
      </trkpt>
      <trkpt lat="46.01986" lon="4.93778">
        <ele>295</ele>
        <time>2016-09-14T09:17:39Z</time>
      </trkpt>
      <trkpt lat="46.0199" lon="4.93782">
        <ele>295</ele>
        <time>2016-09-14T09:17:40Z</time>
      </trkpt>
      <trkpt lat="46.01994" lon="4.93787">
        <ele>295</ele>
        <time>2016-09-14T09:17:41Z</time>
      </trkpt>
      <trkpt lat="46.01999" lon="4.93792">
        <ele>295</ele>
        <time>2016-09-14T09:17:42Z</time>
      </trkpt>
      <trkpt lat="46.02002" lon="4.93797">
        <ele>297</ele>
        <time>2016-09-14T09:17:43Z</time>
      </trkpt>
      <trkpt lat="46.02006" lon="4.93803">
        <ele>297</ele>
        <time>2016-09-14T09:17:44Z</time>
      </trkpt>
      <trkpt lat="46.0201" lon="4.93809">
        <ele>297</ele>
        <time>2016-09-14T09:17:45Z</time>
      </trkpt>
      <trkpt lat="46.02015" lon="4.93817">
        <ele>297</ele>
        <time>2016-09-14T09:17:46Z</time>
      </trkpt>
      <trkpt lat="46.02019" lon="4.93824">
        <ele>297</ele>
        <time>2016-09-14T09:17:47Z</time>
      </trkpt>
      <trkpt lat="46.02023" lon="4.93831">
        <ele>297</ele>
        <time>2016-09-14T09:17:48Z</time>
      </trkpt>
      <trkpt lat="46.02028" lon="4.93837">
        <ele>296</ele>
        <time>2016-09-14T09:17:49Z</time>
      </trkpt>
      <trkpt lat="46.02032" lon="4.93843">
        <ele>296</ele>
        <time>2016-09-14T09:17:50Z</time>
      </trkpt>
      <trkpt lat="46.02036" lon="4.9385">
        <ele>296</ele>
        <time>2016-09-14T09:17:51Z</time>
      </trkpt>
      <trkpt lat="46.0204" lon="4.93856">
        <ele>296</ele>
        <time>2016-09-14T09:17:52Z</time>
      </trkpt>
      <trkpt lat="46.02044" lon="4.93862">
        <ele>296</ele>
        <time>2016-09-14T09:17:53Z</time>
      </trkpt>
      <trkpt lat="46.02047" lon="4.93868">
        <ele>296</ele>
        <time>2016-09-14T09:17:54Z</time>
      </trkpt>
      <trkpt lat="46.0205" lon="4.93874">
        <ele>296</ele>
        <time>2016-09-14T09:17:55Z</time>
      </trkpt>
      <trkpt lat="46.02054" lon="4.93879">
        <ele>296</ele>
        <time>2016-09-14T09:17:56Z</time>
      </trkpt>
      <trkpt lat="46.02057" lon="4.93885">
        <ele>296</ele>
        <time>2016-09-14T09:17:57Z</time>
      </trkpt>
      <trkpt lat="46.0206" lon="4.93891">
        <ele>296</ele>
        <time>2016-09-14T09:17:58Z</time>
      </trkpt>
      <trkpt lat="46.02063" lon="4.93896">
        <ele>296</ele>
        <time>2016-09-14T09:17:59Z</time>
      </trkpt>
      <trkpt lat="46.02067" lon="4.93902">
        <ele>296</ele>
        <time>2016-09-14T09:18:00Z</time>
      </trkpt>
      <trkpt lat="46.02071" lon="4.93907">
        <ele>296</ele>
        <time>2016-09-14T09:18:01Z</time>
      </trkpt>
      <trkpt lat="46.02074" lon="4.93913">
        <ele>296</ele>
        <time>2016-09-14T09:18:02Z</time>
      </trkpt>
      <trkpt lat="46.02078" lon="4.93919">
        <ele>295</ele>
        <time>2016-09-14T09:18:03Z</time>
      </trkpt>
      <trkpt lat="46.02081" lon="4.93926">
        <ele>295</ele>
        <time>2016-09-14T09:18:04Z</time>
      </trkpt>
      <trkpt lat="46.02085" lon="4.93933">
        <ele>296</ele>
        <time>2016-09-14T09:18:05Z</time>
      </trkpt>
      <trkpt lat="46.02088" lon="4.93941">
        <ele>296</ele>
        <time>2016-09-14T09:18:06Z</time>
      </trkpt>
      <trkpt lat="46.02091" lon="4.93949">
        <ele>295</ele>
        <time>2016-09-14T09:18:07Z</time>
      </trkpt>
      <trkpt lat="46.02094" lon="4.93957">
        <ele>295</ele>
        <time>2016-09-14T09:18:08Z</time>
      </trkpt>
      <trkpt lat="46.02096" lon="4.93965">
        <ele>295</ele>
        <time>2016-09-14T09:18:09Z</time>
      </trkpt>
      <trkpt lat="46.021" lon="4.93973">
        <ele>295</ele>
        <time>2016-09-14T09:18:10Z</time>
      </trkpt>
      <trkpt lat="46.02102" lon="4.93981">
        <ele>295</ele>
        <time>2016-09-14T09:18:11Z</time>
      </trkpt>
      <trkpt lat="46.02105" lon="4.9399">
        <ele>295</ele>
        <time>2016-09-14T09:18:12Z</time>
      </trkpt>
      <trkpt lat="46.02107" lon="4.93999">
        <ele>295</ele>
        <time>2016-09-14T09:18:13Z</time>
      </trkpt>
      <trkpt lat="46.0211" lon="4.94007">
        <ele>293</ele>
        <time>2016-09-14T09:18:14Z</time>
      </trkpt>
      <trkpt lat="46.02112" lon="4.94016">
        <ele>293</ele>
        <time>2016-09-14T09:18:15Z</time>
      </trkpt>
      <trkpt lat="46.02114" lon="4.94026">
        <ele>293</ele>
        <time>2016-09-14T09:18:16Z</time>
      </trkpt>
      <trkpt lat="46.02116" lon="4.94035">
        <ele>293</ele>
        <time>2016-09-14T09:18:17Z</time>
      </trkpt>
      <trkpt lat="46.02119" lon="4.94045">
        <ele>293</ele>
        <time>2016-09-14T09:18:18Z</time>
      </trkpt>
      <trkpt lat="46.02121" lon="4.94054">
        <ele>293</ele>
        <time>2016-09-14T09:18:19Z</time>
      </trkpt>
      <trkpt lat="46.02123" lon="4.94063">
        <ele>293</ele>
        <time>2016-09-14T09:18:20Z</time>
      </trkpt>
      <trkpt lat="46.02125" lon="4.94072">
        <ele>293</ele>
        <time>2016-09-14T09:18:21Z</time>
      </trkpt>
      <trkpt lat="46.02127" lon="4.94081">
        <ele>293</ele>
        <time>2016-09-14T09:18:22Z</time>
      </trkpt>
      <trkpt lat="46.02129" lon="4.9409">
        <ele>292</ele>
        <time>2016-09-14T09:18:23Z</time>
      </trkpt>
      <trkpt lat="46.02131" lon="4.94099">
        <ele>292</ele>
        <time>2016-09-14T09:18:24Z</time>
      </trkpt>
      <trkpt lat="46.02134" lon="4.94107">
        <ele>292</ele>
        <time>2016-09-14T09:18:25Z</time>
      </trkpt>
      <trkpt lat="46.02136" lon="4.94116">
        <ele>292</ele>
        <time>2016-09-14T09:18:26Z</time>
      </trkpt>
      <trkpt lat="46.02138" lon="4.94125">
        <ele>292</ele>
        <time>2016-09-14T09:18:27Z</time>
      </trkpt>
      <trkpt lat="46.0214" lon="4.94133">
        <ele>292</ele>
        <time>2016-09-14T09:18:28Z</time>
      </trkpt>
      <trkpt lat="46.02142" lon="4.94142">
        <ele>292</ele>
        <time>2016-09-14T09:18:29Z</time>
      </trkpt>
      <trkpt lat="46.02144" lon="4.94151">
        <ele>292</ele>
        <time>2016-09-14T09:18:30Z</time>
      </trkpt>
      <trkpt lat="46.02146" lon="4.9416">
        <ele>292</ele>
        <time>2016-09-14T09:18:31Z</time>
      </trkpt>
      <trkpt lat="46.02148" lon="4.94168">
        <ele>291</ele>
        <time>2016-09-14T09:18:32Z</time>
      </trkpt>
      <trkpt lat="46.0215" lon="4.94177">
        <ele>291</ele>
        <time>2016-09-14T09:18:33Z</time>
      </trkpt>
      <trkpt lat="46.02151" lon="4.94187">
        <ele>290</ele>
        <time>2016-09-14T09:18:34Z</time>
      </trkpt>
      <trkpt lat="46.02153" lon="4.94195">
        <ele>290</ele>
        <time>2016-09-14T09:18:35Z</time>
      </trkpt>
      <trkpt lat="46.02155" lon="4.94204">
        <ele>290</ele>
        <time>2016-09-14T09:18:36Z</time>
      </trkpt>
      <trkpt lat="46.02156" lon="4.94212">
        <ele>290</ele>
        <time>2016-09-14T09:18:37Z</time>
      </trkpt>
      <trkpt lat="46.02158" lon="4.94221">
        <ele>289</ele>
        <time>2016-09-14T09:18:38Z</time>
      </trkpt>
      <trkpt lat="46.0216" lon="4.9423">
        <ele>289</ele>
        <time>2016-09-14T09:18:39Z</time>
      </trkpt>
      <trkpt lat="46.02161" lon="4.94239">
        <ele>289</ele>
        <time>2016-09-14T09:18:40Z</time>
      </trkpt>
      <trkpt lat="46.02163" lon="4.94248">
        <ele>288</ele>
        <time>2016-09-14T09:18:41Z</time>
      </trkpt>
      <trkpt lat="46.02165" lon="4.94256">
        <ele>288</ele>
        <time>2016-09-14T09:18:42Z</time>
      </trkpt>
      <trkpt lat="46.02167" lon="4.94265">
        <ele>288</ele>
        <time>2016-09-14T09:18:43Z</time>
      </trkpt>
      <trkpt lat="46.0217" lon="4.94273">
        <ele>287</ele>
        <time>2016-09-14T09:18:44Z</time>
      </trkpt>
      <trkpt lat="46.02172" lon="4.94282">
        <ele>287</ele>
        <time>2016-09-14T09:18:45Z</time>
      </trkpt>
      <trkpt lat="46.02175" lon="4.9429">
        <ele>287</ele>
        <time>2016-09-14T09:18:46Z</time>
      </trkpt>
      <trkpt lat="46.02177" lon="4.943">
        <ele>287</ele>
        <time>2016-09-14T09:18:47Z</time>
      </trkpt>
      <trkpt lat="46.02179" lon="4.94309">
        <ele>287</ele>
        <time>2016-09-14T09:18:48Z</time>
      </trkpt>
      <trkpt lat="46.02182" lon="4.94319">
        <ele>287</ele>
        <time>2016-09-14T09:18:49Z</time>
      </trkpt>
      <trkpt lat="46.02184" lon="4.94329">
        <ele>287</ele>
        <time>2016-09-14T09:18:50Z</time>
      </trkpt>
      <trkpt lat="46.02187" lon="4.94338">
        <ele>287</ele>
        <time>2016-09-14T09:18:51Z</time>
      </trkpt>
      <trkpt lat="46.02189" lon="4.94347">
        <ele>287</ele>
        <time>2016-09-14T09:18:52Z</time>
      </trkpt>
      <trkpt lat="46.02191" lon="4.94355">
        <ele>287</ele>
        <time>2016-09-14T09:18:53Z</time>
      </trkpt>
      <trkpt lat="46.02193" lon="4.94364">
        <ele>287</ele>
        <time>2016-09-14T09:18:54Z</time>
      </trkpt>
      <trkpt lat="46.02195" lon="4.94373">
        <ele>287</ele>
        <time>2016-09-14T09:18:55Z</time>
      </trkpt>
      <trkpt lat="46.02197" lon="4.94382">
        <ele>287</ele>
        <time>2016-09-14T09:18:56Z</time>
      </trkpt>
      <trkpt lat="46.02199" lon="4.9439">
        <ele>287</ele>
        <time>2016-09-14T09:18:57Z</time>
      </trkpt>
      <trkpt lat="46.02201" lon="4.94398">
        <ele>287</ele>
        <time>2016-09-14T09:18:58Z</time>
      </trkpt>
      <trkpt lat="46.02203" lon="4.94405">
        <ele>287</ele>
        <time>2016-09-14T09:18:59Z</time>
      </trkpt>
      <trkpt lat="46.02205" lon="4.94413">
        <ele>287</ele>
        <time>2016-09-14T09:19:00Z</time>
      </trkpt>
      <trkpt lat="46.02206" lon="4.9442">
        <ele>287</ele>
        <time>2016-09-14T09:19:01Z</time>
      </trkpt>
      <trkpt lat="46.02208" lon="4.94428">
        <ele>287</ele>
        <time>2016-09-14T09:19:02Z</time>
      </trkpt>
      <trkpt lat="46.02209" lon="4.94435">
        <ele>287</ele>
        <time>2016-09-14T09:19:03Z</time>
      </trkpt>
      <trkpt lat="46.02211" lon="4.94442">
        <ele>287</ele>
        <time>2016-09-14T09:19:04Z</time>
      </trkpt>
      <trkpt lat="46.02212" lon="4.9445">
        <ele>287</ele>
        <time>2016-09-14T09:19:05Z</time>
      </trkpt>
      <trkpt lat="46.02214" lon="4.94458">
        <ele>288</ele>
        <time>2016-09-14T09:19:06Z</time>
      </trkpt>
      <trkpt lat="46.02215" lon="4.94466">
        <ele>288</ele>
        <time>2016-09-14T09:19:07Z</time>
      </trkpt>
      <trkpt lat="46.02217" lon="4.94475">
        <ele>288</ele>
        <time>2016-09-14T09:19:08Z</time>
      </trkpt>
      <trkpt lat="46.0222" lon="4.94483">
        <ele>288</ele>
        <time>2016-09-14T09:19:09Z</time>
      </trkpt>
      <trkpt lat="46.02222" lon="4.94492">
        <ele>288</ele>
        <time>2016-09-14T09:19:10Z</time>
      </trkpt>
      <trkpt lat="46.02224" lon="4.94501">
        <ele>289</ele>
        <time>2016-09-14T09:19:11Z</time>
      </trkpt>
      <trkpt lat="46.02227" lon="4.94511">
        <ele>289</ele>
        <time>2016-09-14T09:19:12Z</time>
      </trkpt>
      <trkpt lat="46.02228" lon="4.94519">
        <ele>289</ele>
        <time>2016-09-14T09:19:13Z</time>
      </trkpt>
      <trkpt lat="46.02231" lon="4.94528">
        <ele>289</ele>
        <time>2016-09-14T09:19:14Z</time>
      </trkpt>
      <trkpt lat="46.02233" lon="4.94536">
        <ele>289</ele>
        <time>2016-09-14T09:19:15Z</time>
      </trkpt>
      <trkpt lat="46.02236" lon="4.94543">
        <ele>289</ele>
        <time>2016-09-14T09:19:16Z</time>
      </trkpt>
      <trkpt lat="46.02239" lon="4.9455">
        <ele>289</ele>
        <time>2016-09-14T09:19:17Z</time>
      </trkpt>
      <trkpt lat="46.02241" lon="4.94557">
        <ele>289</ele>
        <time>2016-09-14T09:19:18Z</time>
      </trkpt>
      <trkpt lat="46.02243" lon="4.94564">
        <ele>289</ele>
        <time>2016-09-14T09:19:19Z</time>
      </trkpt>
      <trkpt lat="46.02246" lon="4.94571">
        <ele>289</ele>
        <time>2016-09-14T09:19:20Z</time>
      </trkpt>
      <trkpt lat="46.02248" lon="4.94578">
        <ele>290</ele>
        <time>2016-09-14T09:19:21Z</time>
      </trkpt>
      <trkpt lat="46.02251" lon="4.94584">
        <ele>290</ele>
        <time>2016-09-14T09:19:22Z</time>
      </trkpt>
      <trkpt lat="46.02254" lon="4.9459">
        <ele>290</ele>
        <time>2016-09-14T09:19:23Z</time>
      </trkpt>
      <trkpt lat="46.02256" lon="4.94597">
        <ele>290</ele>
        <time>2016-09-14T09:19:24Z</time>
      </trkpt>
      <trkpt lat="46.02259" lon="4.94604">
        <ele>290</ele>
        <time>2016-09-14T09:19:25Z</time>
      </trkpt>
      <trkpt lat="46.02262" lon="4.9461">
        <ele>290</ele>
        <time>2016-09-14T09:19:26Z</time>
      </trkpt>
      <trkpt lat="46.02265" lon="4.94617">
        <ele>290</ele>
        <time>2016-09-14T09:19:27Z</time>
      </trkpt>
      <trkpt lat="46.02268" lon="4.94624">
        <ele>290</ele>
        <time>2016-09-14T09:19:28Z</time>
      </trkpt>
      <trkpt lat="46.02271" lon="4.94631">
        <ele>290</ele>
        <time>2016-09-14T09:19:29Z</time>
      </trkpt>
      <trkpt lat="46.02273" lon="4.94638">
        <ele>290</ele>
        <time>2016-09-14T09:19:30Z</time>
      </trkpt>
      <trkpt lat="46.02276" lon="4.94646">
        <ele>290</ele>
        <time>2016-09-14T09:19:31Z</time>
      </trkpt>
      <trkpt lat="46.02279" lon="4.94654">
        <ele>290</ele>
        <time>2016-09-14T09:19:32Z</time>
      </trkpt>
      <trkpt lat="46.02282" lon="4.94661">
        <ele>290</ele>
        <time>2016-09-14T09:19:33Z</time>
      </trkpt>
      <trkpt lat="46.02285" lon="4.94669">
        <ele>289</ele>
        <time>2016-09-14T09:19:34Z</time>
      </trkpt>
      <trkpt lat="46.02288" lon="4.94676">
        <ele>289</ele>
        <time>2016-09-14T09:19:35Z</time>
      </trkpt>
      <trkpt lat="46.02291" lon="4.94683">
        <ele>289</ele>
        <time>2016-09-14T09:19:36Z</time>
      </trkpt>
      <trkpt lat="46.02293" lon="4.9469">
        <ele>289</ele>
        <time>2016-09-14T09:19:37Z</time>
      </trkpt>
      <trkpt lat="46.02296" lon="4.94697">
        <ele>289</ele>
        <time>2016-09-14T09:19:38Z</time>
      </trkpt>
      <trkpt lat="46.02298" lon="4.94704">
        <ele>289</ele>
        <time>2016-09-14T09:19:39Z</time>
      </trkpt>
      <trkpt lat="46.02301" lon="4.94711">
        <ele>289</ele>
        <time>2016-09-14T09:19:40Z</time>
      </trkpt>
      <trkpt lat="46.02304" lon="4.94718">
        <ele>289</ele>
        <time>2016-09-14T09:19:41Z</time>
      </trkpt>
      <trkpt lat="46.02309" lon="4.94725">
        <ele>289</ele>
        <time>2016-09-14T09:19:42Z</time>
      </trkpt>
      <trkpt lat="46.02312" lon="4.94733">
        <ele>289</ele>
        <time>2016-09-14T09:19:43Z</time>
      </trkpt>
      <trkpt lat="46.02315" lon="4.94741">
        <ele>289</ele>
        <time>2016-09-14T09:19:44Z</time>
      </trkpt>
      <trkpt lat="46.02319" lon="4.94749">
        <ele>289</ele>
        <time>2016-09-14T09:19:45Z</time>
      </trkpt>
      <trkpt lat="46.02321" lon="4.94757">
        <ele>289</ele>
        <time>2016-09-14T09:19:46Z</time>
      </trkpt>
      <trkpt lat="46.02324" lon="4.94764">
        <ele>289</ele>
        <time>2016-09-14T09:19:47Z</time>
      </trkpt>
      <trkpt lat="46.02327" lon="4.94771">
        <ele>289</ele>
        <time>2016-09-14T09:19:48Z</time>
      </trkpt>
      <trkpt lat="46.02329" lon="4.94778">
        <ele>288</ele>
        <time>2016-09-14T09:19:49Z</time>
      </trkpt>
      <trkpt lat="46.02331" lon="4.94785">
        <ele>288</ele>
        <time>2016-09-14T09:19:50Z</time>
      </trkpt>
      <trkpt lat="46.02334" lon="4.94792">
        <ele>290</ele>
        <time>2016-09-14T09:19:51Z</time>
      </trkpt>
      <trkpt lat="46.02336" lon="4.94799">
        <ele>290</ele>
        <time>2016-09-14T09:19:52Z</time>
      </trkpt>
      <trkpt lat="46.02339" lon="4.94806">
        <ele>290</ele>
        <time>2016-09-14T09:19:53Z</time>
      </trkpt>
      <trkpt lat="46.0234" lon="4.94815">
        <ele>290</ele>
        <time>2016-09-14T09:19:54Z</time>
      </trkpt>
      <trkpt lat="46.02343" lon="4.94823">
        <ele>290</ele>
        <time>2016-09-14T09:19:55Z</time>
      </trkpt>
      <trkpt lat="46.02345" lon="4.94832">
        <ele>290</ele>
        <time>2016-09-14T09:19:56Z</time>
      </trkpt>
      <trkpt lat="46.02348" lon="4.94841">
        <ele>290</ele>
        <time>2016-09-14T09:19:57Z</time>
      </trkpt>
      <trkpt lat="46.0235" lon="4.9485">
        <ele>290</ele>
        <time>2016-09-14T09:19:58Z</time>
      </trkpt>
      <trkpt lat="46.02352" lon="4.94858">
        <ele>290</ele>
        <time>2016-09-14T09:19:59Z</time>
      </trkpt>
      <trkpt lat="46.02355" lon="4.94866">
        <ele>290</ele>
        <time>2016-09-14T09:20:00Z</time>
      </trkpt>
      <trkpt lat="46.02358" lon="4.94875">
        <ele>290</ele>
        <time>2016-09-14T09:20:01Z</time>
      </trkpt>
      <trkpt lat="46.0236" lon="4.94883">
        <ele>290</ele>
        <time>2016-09-14T09:20:02Z</time>
      </trkpt>
      <trkpt lat="46.02362" lon="4.94891">
        <ele>290</ele>
        <time>2016-09-14T09:20:03Z</time>
      </trkpt>
      <trkpt lat="46.02364" lon="4.94899">
        <ele>290</ele>
        <time>2016-09-14T09:20:04Z</time>
      </trkpt>
      <trkpt lat="46.02367" lon="4.94907">
        <ele>290</ele>
        <time>2016-09-14T09:20:05Z</time>
      </trkpt>
      <trkpt lat="46.02369" lon="4.94915">
        <ele>290</ele>
        <time>2016-09-14T09:20:06Z</time>
      </trkpt>
      <trkpt lat="46.0237" lon="4.94923">
        <ele>289</ele>
        <time>2016-09-14T09:20:07Z</time>
      </trkpt>
      <trkpt lat="46.02373" lon="4.94931">
        <ele>289</ele>
        <time>2016-09-14T09:20:08Z</time>
      </trkpt>
      <trkpt lat="46.02375" lon="4.94939">
        <ele>289</ele>
        <time>2016-09-14T09:20:09Z</time>
      </trkpt>
      <trkpt lat="46.02377" lon="4.94947">
        <ele>289</ele>
        <time>2016-09-14T09:20:10Z</time>
      </trkpt>
      <trkpt lat="46.02379" lon="4.94955">
        <ele>289</ele>
        <time>2016-09-14T09:20:11Z</time>
      </trkpt>
      <trkpt lat="46.02382" lon="4.94963">
        <ele>289</ele>
        <time>2016-09-14T09:20:12Z</time>
      </trkpt>
      <trkpt lat="46.02384" lon="4.94972">
        <ele>289</ele>
        <time>2016-09-14T09:20:13Z</time>
      </trkpt>
      <trkpt lat="46.02387" lon="4.94981">
        <ele>288</ele>
        <time>2016-09-14T09:20:14Z</time>
      </trkpt>
      <trkpt lat="46.02389" lon="4.94989">
        <ele>288</ele>
        <time>2016-09-14T09:20:15Z</time>
      </trkpt>
      <trkpt lat="46.02391" lon="4.94997">
        <ele>289</ele>
        <time>2016-09-14T09:20:16Z</time>
      </trkpt>
      <trkpt lat="46.02393" lon="4.95005">
        <ele>288</ele>
        <time>2016-09-14T09:20:17Z</time>
      </trkpt>
      <trkpt lat="46.02395" lon="4.95013">
        <ele>288</ele>
        <time>2016-09-14T09:20:18Z</time>
      </trkpt>
      <trkpt lat="46.02397" lon="4.9502">
        <ele>287</ele>
        <time>2016-09-14T09:20:19Z</time>
      </trkpt>
      <trkpt lat="46.02399" lon="4.95027">
        <ele>287</ele>
        <time>2016-09-14T09:20:20Z</time>
      </trkpt>
      <trkpt lat="46.02401" lon="4.95034">
        <ele>287</ele>
        <time>2016-09-14T09:20:21Z</time>
      </trkpt>
      <trkpt lat="46.02403" lon="4.95042">
        <ele>287</ele>
        <time>2016-09-14T09:20:22Z</time>
      </trkpt>
      <trkpt lat="46.02405" lon="4.95049">
        <ele>287</ele>
        <time>2016-09-14T09:20:23Z</time>
      </trkpt>
      <trkpt lat="46.02407" lon="4.95056">
        <ele>287</ele>
        <time>2016-09-14T09:20:24Z</time>
      </trkpt>
      <trkpt lat="46.0241" lon="4.95063">
        <ele>287</ele>
        <time>2016-09-14T09:20:25Z</time>
      </trkpt>
      <trkpt lat="46.02413" lon="4.9507">
        <ele>287</ele>
        <time>2016-09-14T09:20:26Z</time>
      </trkpt>
      <trkpt lat="46.02416" lon="4.95077">
        <ele>287</ele>
        <time>2016-09-14T09:20:27Z</time>
      </trkpt>
      <trkpt lat="46.0242" lon="4.95084">
        <ele>287</ele>
        <time>2016-09-14T09:20:28Z</time>
      </trkpt>
      <trkpt lat="46.02424" lon="4.95092">
        <ele>287</ele>
        <time>2016-09-14T09:20:29Z</time>
      </trkpt>
      <trkpt lat="46.02427" lon="4.95099">
        <ele>287</ele>
        <time>2016-09-14T09:20:30Z</time>
      </trkpt>
      <trkpt lat="46.02431" lon="4.95107">
        <ele>287</ele>
        <time>2016-09-14T09:20:31Z</time>
      </trkpt>
      <trkpt lat="46.02434" lon="4.95114">
        <ele>286</ele>
        <time>2016-09-14T09:20:32Z</time>
      </trkpt>
      <trkpt lat="46.02438" lon="4.95122">
        <ele>286</ele>
        <time>2016-09-14T09:20:33Z</time>
      </trkpt>
      <trkpt lat="46.02442" lon="4.9513">
        <ele>286</ele>
        <time>2016-09-14T09:20:34Z</time>
      </trkpt>
      <trkpt lat="46.02445" lon="4.95139">
        <ele>286</ele>
        <time>2016-09-14T09:20:35Z</time>
      </trkpt>
      <trkpt lat="46.02449" lon="4.95146">
        <ele>286</ele>
        <time>2016-09-14T09:20:36Z</time>
      </trkpt>
      <trkpt lat="46.02453" lon="4.95154">
        <ele>286</ele>
        <time>2016-09-14T09:20:37Z</time>
      </trkpt>
      <trkpt lat="46.02456" lon="4.95161">
        <ele>286</ele>
        <time>2016-09-14T09:20:38Z</time>
      </trkpt>
      <trkpt lat="46.02459" lon="4.95168">
        <ele>286</ele>
        <time>2016-09-14T09:20:39Z</time>
      </trkpt>
      <trkpt lat="46.02462" lon="4.95175">
        <ele>286</ele>
        <time>2016-09-14T09:20:40Z</time>
      </trkpt>
      <trkpt lat="46.02465" lon="4.95181">
        <ele>286</ele>
        <time>2016-09-14T09:20:41Z</time>
      </trkpt>
      <trkpt lat="46.02469" lon="4.95187">
        <ele>286</ele>
        <time>2016-09-14T09:20:42Z</time>
      </trkpt>
      <trkpt lat="46.02472" lon="4.95194">
        <ele>285</ele>
        <time>2016-09-14T09:20:43Z</time>
      </trkpt>
      <trkpt lat="46.02475" lon="4.952">
        <ele>285</ele>
        <time>2016-09-14T09:20:44Z</time>
      </trkpt>
      <trkpt lat="46.02479" lon="4.95206">
        <ele>285</ele>
        <time>2016-09-14T09:20:45Z</time>
      </trkpt>
      <trkpt lat="46.02482" lon="4.95212">
        <ele>285</ele>
        <time>2016-09-14T09:20:46Z</time>
      </trkpt>
      <trkpt lat="46.02485" lon="4.9522">
        <ele>285</ele>
        <time>2016-09-14T09:20:47Z</time>
      </trkpt>
      <trkpt lat="46.02488" lon="4.95227">
        <ele>285</ele>
        <time>2016-09-14T09:20:48Z</time>
      </trkpt>
      <trkpt lat="46.02491" lon="4.95235">
        <ele>285</ele>
        <time>2016-09-14T09:20:49Z</time>
      </trkpt>
      <trkpt lat="46.02495" lon="4.95242">
        <ele>285</ele>
        <time>2016-09-14T09:20:50Z</time>
      </trkpt>
      <trkpt lat="46.02499" lon="4.9525">
        <ele>285</ele>
        <time>2016-09-14T09:20:51Z</time>
      </trkpt>
      <trkpt lat="46.02503" lon="4.95258">
        <ele>285</ele>
        <time>2016-09-14T09:20:52Z</time>
      </trkpt>
      <trkpt lat="46.02507" lon="4.95266">
        <ele>284</ele>
        <time>2016-09-14T09:20:53Z</time>
      </trkpt>
      <trkpt lat="46.0251" lon="4.95274">
        <ele>284</ele>
        <time>2016-09-14T09:20:54Z</time>
      </trkpt>
      <trkpt lat="46.02514" lon="4.95282">
        <ele>284</ele>
        <time>2016-09-14T09:20:55Z</time>
      </trkpt>
      <trkpt lat="46.02518" lon="4.95289">
        <ele>284</ele>
        <time>2016-09-14T09:20:56Z</time>
      </trkpt>
      <trkpt lat="46.02522" lon="4.95296">
        <ele>284</ele>
        <time>2016-09-14T09:20:57Z</time>
      </trkpt>
      <trkpt lat="46.02526" lon="4.95304">
        <ele>284</ele>
        <time>2016-09-14T09:20:58Z</time>
      </trkpt>
      <trkpt lat="46.02529" lon="4.95311">
        <ele>284</ele>
        <time>2016-09-14T09:20:59Z</time>
      </trkpt>
      <trkpt lat="46.02533" lon="4.95318">
        <ele>284</ele>
        <time>2016-09-14T09:21:00Z</time>
      </trkpt>
      <trkpt lat="46.02536" lon="4.95325">
        <ele>284</ele>
        <time>2016-09-14T09:21:01Z</time>
      </trkpt>
      <trkpt lat="46.02539" lon="4.95332">
        <ele>284</ele>
        <time>2016-09-14T09:21:02Z</time>
      </trkpt>
      <trkpt lat="46.02543" lon="4.95338">
        <ele>283</ele>
        <time>2016-09-14T09:21:03Z</time>
      </trkpt>
      <trkpt lat="46.02545" lon="4.95345">
        <ele>283</ele>
        <time>2016-09-14T09:21:04Z</time>
      </trkpt>
      <trkpt lat="46.02548" lon="4.95351">
        <ele>283</ele>
        <time>2016-09-14T09:21:05Z</time>
      </trkpt>
      <trkpt lat="46.02551" lon="4.95358">
        <ele>283</ele>
        <time>2016-09-14T09:21:06Z</time>
      </trkpt>
      <trkpt lat="46.02554" lon="4.95364">
        <ele>283</ele>
        <time>2016-09-14T09:21:07Z</time>
      </trkpt>
      <trkpt lat="46.02557" lon="4.9537">
        <ele>282</ele>
        <time>2016-09-14T09:21:08Z</time>
      </trkpt>
      <trkpt lat="46.0256" lon="4.95376">
        <ele>282</ele>
        <time>2016-09-14T09:21:09Z</time>
      </trkpt>
      <trkpt lat="46.02562" lon="4.95383">
        <ele>282</ele>
        <time>2016-09-14T09:21:10Z</time>
      </trkpt>
      <trkpt lat="46.02565" lon="4.9539">
        <ele>282</ele>
        <time>2016-09-14T09:21:11Z</time>
      </trkpt>
      <trkpt lat="46.02569" lon="4.95397">
        <ele>282</ele>
        <time>2016-09-14T09:21:12Z</time>
      </trkpt>
      <trkpt lat="46.02573" lon="4.95405">
        <ele>282</ele>
        <time>2016-09-14T09:21:13Z</time>
      </trkpt>
      <trkpt lat="46.02577" lon="4.95412">
        <ele>281</ele>
        <time>2016-09-14T09:21:14Z</time>
      </trkpt>
      <trkpt lat="46.0258" lon="4.95419">
        <ele>281</ele>
        <time>2016-09-14T09:21:15Z</time>
      </trkpt>
      <trkpt lat="46.02583" lon="4.95426">
        <ele>281</ele>
        <time>2016-09-14T09:21:16Z</time>
      </trkpt>
      <trkpt lat="46.02586" lon="4.95433">
        <ele>281</ele>
        <time>2016-09-14T09:21:17Z</time>
      </trkpt>
      <trkpt lat="46.02588" lon="4.9544">
        <ele>281</ele>
        <time>2016-09-14T09:21:18Z</time>
      </trkpt>
      <trkpt lat="46.02591" lon="4.95447">
        <ele>281</ele>
        <time>2016-09-14T09:21:19Z</time>
      </trkpt>
      <trkpt lat="46.02594" lon="4.95454">
        <ele>281</ele>
        <time>2016-09-14T09:21:20Z</time>
      </trkpt>
      <trkpt lat="46.02596" lon="4.95461">
        <ele>281</ele>
        <time>2016-09-14T09:21:21Z</time>
      </trkpt>
      <trkpt lat="46.02598" lon="4.95469">
        <ele>281</ele>
        <time>2016-09-14T09:21:22Z</time>
      </trkpt>
      <trkpt lat="46.026" lon="4.95476">
        <ele>281</ele>
        <time>2016-09-14T09:21:23Z</time>
      </trkpt>
      <trkpt lat="46.02602" lon="4.95482">
        <ele>281</ele>
        <time>2016-09-14T09:21:24Z</time>
      </trkpt>
      <trkpt lat="46.02603" lon="4.9549">
        <ele>281</ele>
        <time>2016-09-14T09:21:25Z</time>
      </trkpt>
      <trkpt lat="46.02605" lon="4.95497">
        <ele>281</ele>
        <time>2016-09-14T09:21:26Z</time>
      </trkpt>
      <trkpt lat="46.02607" lon="4.95506">
        <ele>282</ele>
        <time>2016-09-14T09:21:27Z</time>
      </trkpt>
      <trkpt lat="46.02609" lon="4.95514">
        <ele>282</ele>
        <time>2016-09-14T09:21:28Z</time>
      </trkpt>
      <trkpt lat="46.02611" lon="4.95522">
        <ele>282</ele>
        <time>2016-09-14T09:21:29Z</time>
      </trkpt>
      <trkpt lat="46.02614" lon="4.9553">
        <ele>282</ele>
        <time>2016-09-14T09:21:30Z</time>
      </trkpt>
      <trkpt lat="46.02616" lon="4.95539">
        <ele>282</ele>
        <time>2016-09-14T09:21:31Z</time>
      </trkpt>
      <trkpt lat="46.02618" lon="4.95547">
        <ele>281</ele>
        <time>2016-09-14T09:21:32Z</time>
      </trkpt>
      <trkpt lat="46.0262" lon="4.95556">
        <ele>281</ele>
        <time>2016-09-14T09:21:33Z</time>
      </trkpt>
      <trkpt lat="46.02622" lon="4.95563">
        <ele>281</ele>
        <time>2016-09-14T09:21:34Z</time>
      </trkpt>
      <trkpt lat="46.02623" lon="4.95571">
        <ele>281</ele>
        <time>2016-09-14T09:21:35Z</time>
      </trkpt>
      <trkpt lat="46.02625" lon="4.95578">
        <ele>281</ele>
        <time>2016-09-14T09:21:36Z</time>
      </trkpt>
      <trkpt lat="46.02626" lon="4.95585">
        <ele>282</ele>
        <time>2016-09-14T09:21:37Z</time>
      </trkpt>
      <trkpt lat="46.02628" lon="4.95592">
        <ele>282</ele>
        <time>2016-09-14T09:21:38Z</time>
      </trkpt>
      <trkpt lat="46.02629" lon="4.95598">
        <ele>282</ele>
        <time>2016-09-14T09:21:39Z</time>
      </trkpt>
      <trkpt lat="46.0263" lon="4.95604">
        <ele>282</ele>
        <time>2016-09-14T09:21:40Z</time>
      </trkpt>
      <trkpt lat="46.02631" lon="4.9561">
        <ele>282</ele>
        <time>2016-09-14T09:21:41Z</time>
      </trkpt>
      <trkpt lat="46.02633" lon="4.95623">
        <ele>282</ele>
        <time>2016-09-14T09:21:43Z</time>
      </trkpt>
      <trkpt lat="46.02634" lon="4.9563">
        <ele>282</ele>
        <time>2016-09-14T09:21:44Z</time>
      </trkpt>
      <trkpt lat="46.02634" lon="4.95637">
        <ele>282</ele>
        <time>2016-09-14T09:21:45Z</time>
      </trkpt>
      <trkpt lat="46.02634" lon="4.95645">
        <ele>282</ele>
        <time>2016-09-14T09:21:46Z</time>
      </trkpt>
      <trkpt lat="46.02634" lon="4.95652">
        <ele>282</ele>
        <time>2016-09-14T09:21:47Z</time>
      </trkpt>
      <trkpt lat="46.02635" lon="4.95661">
        <ele>282</ele>
        <time>2016-09-14T09:21:48Z</time>
      </trkpt>
      <trkpt lat="46.02636" lon="4.95669">
        <ele>282</ele>
        <time>2016-09-14T09:21:49Z</time>
      </trkpt>
      <trkpt lat="46.02637" lon="4.95677">
        <ele>282</ele>
        <time>2016-09-14T09:21:50Z</time>
      </trkpt>
      <trkpt lat="46.02638" lon="4.95686">
        <ele>282</ele>
        <time>2016-09-14T09:21:51Z</time>
      </trkpt>
      <trkpt lat="46.02639" lon="4.95695">
        <ele>282</ele>
        <time>2016-09-14T09:21:52Z</time>
      </trkpt>
      <trkpt lat="46.0264" lon="4.95704">
        <ele>282</ele>
        <time>2016-09-14T09:21:53Z</time>
      </trkpt>
      <trkpt lat="46.02641" lon="4.95713">
        <ele>282</ele>
        <time>2016-09-14T09:21:54Z</time>
      </trkpt>
      <trkpt lat="46.02642" lon="4.95721">
        <ele>282</ele>
        <time>2016-09-14T09:21:55Z</time>
      </trkpt>
      <trkpt lat="46.02643" lon="4.95728">
        <ele>282</ele>
        <time>2016-09-14T09:21:56Z</time>
      </trkpt>
      <trkpt lat="46.02643" lon="4.95736">
        <ele>282</ele>
        <time>2016-09-14T09:21:57Z</time>
      </trkpt>
      <trkpt lat="46.02644" lon="4.95743">
        <ele>282</ele>
        <time>2016-09-14T09:21:58Z</time>
      </trkpt>
      <trkpt lat="46.02645" lon="4.9575">
        <ele>283</ele>
        <time>2016-09-14T09:21:59Z</time>
      </trkpt>
      <trkpt lat="46.02646" lon="4.95757">
        <ele>283</ele>
        <time>2016-09-14T09:22:00Z</time>
      </trkpt>
      <trkpt lat="46.02647" lon="4.95765">
        <ele>283</ele>
        <time>2016-09-14T09:22:01Z</time>
      </trkpt>
      <trkpt lat="46.02648" lon="4.95772">
        <ele>283</ele>
        <time>2016-09-14T09:22:02Z</time>
      </trkpt>
      <trkpt lat="46.02649" lon="4.95779">
        <ele>283</ele>
        <time>2016-09-14T09:22:03Z</time>
      </trkpt>
      <trkpt lat="46.0265" lon="4.95786">
        <ele>283</ele>
        <time>2016-09-14T09:22:04Z</time>
      </trkpt>
      <trkpt lat="46.02651" lon="4.95794">
        <ele>283</ele>
        <time>2016-09-14T09:22:05Z</time>
      </trkpt>
      <trkpt lat="46.02651" lon="4.95801">
        <ele>283</ele>
        <time>2016-09-14T09:22:06Z</time>
      </trkpt>
      <trkpt lat="46.02652" lon="4.9581">
        <ele>283</ele>
        <time>2016-09-14T09:22:07Z</time>
      </trkpt>
      <trkpt lat="46.02653" lon="4.95818">
        <ele>283</ele>
        <time>2016-09-14T09:22:08Z</time>
      </trkpt>
      <trkpt lat="46.02654" lon="4.95826">
        <ele>284</ele>
        <time>2016-09-14T09:22:09Z</time>
      </trkpt>
      <trkpt lat="46.02655" lon="4.95834">
        <ele>284</ele>
        <time>2016-09-14T09:22:10Z</time>
      </trkpt>
      <trkpt lat="46.02656" lon="4.95842">
        <ele>284</ele>
        <time>2016-09-14T09:22:11Z</time>
      </trkpt>
      <trkpt lat="46.02657" lon="4.9585">
        <ele>284</ele>
        <time>2016-09-14T09:22:12Z</time>
      </trkpt>
      <trkpt lat="46.02658" lon="4.95859">
        <ele>284</ele>
        <time>2016-09-14T09:22:13Z</time>
      </trkpt>
      <trkpt lat="46.02659" lon="4.95867">
        <ele>284</ele>
        <time>2016-09-14T09:22:14Z</time>
      </trkpt>
      <trkpt lat="46.0266" lon="4.95874">
        <ele>284</ele>
        <time>2016-09-14T09:22:15Z</time>
      </trkpt>
      <trkpt lat="46.02661" lon="4.95881">
        <ele>284</ele>
        <time>2016-09-14T09:22:16Z</time>
      </trkpt>
      <trkpt lat="46.02662" lon="4.95887">
        <ele>284</ele>
        <time>2016-09-14T09:22:17Z</time>
      </trkpt>
      <trkpt lat="46.02663" lon="4.95895">
        <ele>284</ele>
        <time>2016-09-14T09:22:18Z</time>
      </trkpt>
      <trkpt lat="46.02663" lon="4.95903">
        <ele>284</ele>
        <time>2016-09-14T09:22:19Z</time>
      </trkpt>
      <trkpt lat="46.02664" lon="4.9591">
        <ele>284</ele>
        <time>2016-09-14T09:22:20Z</time>
      </trkpt>
      <trkpt lat="46.02665" lon="4.95917">
        <ele>284</ele>
        <time>2016-09-14T09:22:21Z</time>
      </trkpt>
      <trkpt lat="46.02665" lon="4.95924">
        <ele>284</ele>
        <time>2016-09-14T09:22:22Z</time>
      </trkpt>
      <trkpt lat="46.02666" lon="4.95931">
        <ele>284</ele>
        <time>2016-09-14T09:22:23Z</time>
      </trkpt>
      <trkpt lat="46.02667" lon="4.95939">
        <ele>284</ele>
        <time>2016-09-14T09:22:24Z</time>
      </trkpt>
      <trkpt lat="46.02667" lon="4.95947">
        <ele>284</ele>
        <time>2016-09-14T09:22:25Z</time>
      </trkpt>
      <trkpt lat="46.02668" lon="4.95955">
        <ele>284</ele>
        <time>2016-09-14T09:22:26Z</time>
      </trkpt>
      <trkpt lat="46.02669" lon="4.95962">
        <ele>284</ele>
        <time>2016-09-14T09:22:27Z</time>
      </trkpt>
      <trkpt lat="46.0267" lon="4.95969">
        <ele>284</ele>
        <time>2016-09-14T09:22:28Z</time>
      </trkpt>
      <trkpt lat="46.02671" lon="4.95977">
        <ele>283</ele>
        <time>2016-09-14T09:22:29Z</time>
      </trkpt>
      <trkpt lat="46.02672" lon="4.95985">
        <ele>283</ele>
        <time>2016-09-14T09:22:30Z</time>
      </trkpt>
      <trkpt lat="46.02673" lon="4.95992">
        <ele>283</ele>
        <time>2016-09-14T09:22:31Z</time>
      </trkpt>
      <trkpt lat="46.02673" lon="4.95999">
        <ele>283</ele>
        <time>2016-09-14T09:22:32Z</time>
      </trkpt>
      <trkpt lat="46.02674" lon="4.96006">
        <ele>283</ele>
        <time>2016-09-14T09:22:33Z</time>
      </trkpt>
      <trkpt lat="46.02675" lon="4.96012">
        <ele>283</ele>
        <time>2016-09-14T09:22:34Z</time>
      </trkpt>
      <trkpt lat="46.02676" lon="4.96019">
        <ele>283</ele>
        <time>2016-09-14T09:22:35Z</time>
      </trkpt>
      <trkpt lat="46.02677" lon="4.96025">
        <ele>283</ele>
        <time>2016-09-14T09:22:36Z</time>
      </trkpt>
      <trkpt lat="46.02678" lon="4.96032">
        <ele>283</ele>
        <time>2016-09-14T09:22:37Z</time>
      </trkpt>
      <trkpt lat="46.0268" lon="4.96039">
        <ele>283</ele>
        <time>2016-09-14T09:22:38Z</time>
      </trkpt>
      <trkpt lat="46.02681" lon="4.96048">
        <ele>283</ele>
        <time>2016-09-14T09:22:39Z</time>
      </trkpt>
      <trkpt lat="46.02681" lon="4.96056">
        <ele>283</ele>
        <time>2016-09-14T09:22:40Z</time>
      </trkpt>
      <trkpt lat="46.02682" lon="4.96063">
        <ele>283</ele>
        <time>2016-09-14T09:22:41Z</time>
      </trkpt>
      <trkpt lat="46.02683" lon="4.96071">
        <ele>284</ele>
        <time>2016-09-14T09:22:42Z</time>
      </trkpt>
      <trkpt lat="46.02684" lon="4.96079">
        <ele>284</ele>
        <time>2016-09-14T09:22:43Z</time>
      </trkpt>
      <trkpt lat="46.02685" lon="4.96087">
        <ele>284</ele>
        <time>2016-09-14T09:22:44Z</time>
      </trkpt>
      <trkpt lat="46.02686" lon="4.96094">
        <ele>283</ele>
        <time>2016-09-14T09:22:45Z</time>
      </trkpt>
      <trkpt lat="46.02686" lon="4.96102">
        <ele>283</ele>
        <time>2016-09-14T09:22:46Z</time>
      </trkpt>
      <trkpt lat="46.02686" lon="4.9611">
        <ele>283</ele>
        <time>2016-09-14T09:22:47Z</time>
      </trkpt>
      <trkpt lat="46.02685" lon="4.96118">
        <ele>283</ele>
        <time>2016-09-14T09:22:48Z</time>
      </trkpt>
      <trkpt lat="46.02686" lon="4.96127">
        <ele>283</ele>
        <time>2016-09-14T09:22:49Z</time>
      </trkpt>
      <trkpt lat="46.02686" lon="4.96135">
        <ele>283</ele>
        <time>2016-09-14T09:22:50Z</time>
      </trkpt>
      <trkpt lat="46.02685" lon="4.96144">
        <ele>283</ele>
        <time>2016-09-14T09:22:51Z</time>
      </trkpt>
      <trkpt lat="46.02685" lon="4.96152">
        <ele>283</ele>
        <time>2016-09-14T09:22:52Z</time>
      </trkpt>
      <trkpt lat="46.02685" lon="4.9616">
        <ele>283</ele>
        <time>2016-09-14T09:22:53Z</time>
      </trkpt>
      <trkpt lat="46.02685" lon="4.96168">
        <ele>284</ele>
        <time>2016-09-14T09:22:54Z</time>
      </trkpt>
      <trkpt lat="46.02684" lon="4.96177">
        <ele>284</ele>
        <time>2016-09-14T09:22:55Z</time>
      </trkpt>
      <trkpt lat="46.02683" lon="4.96186">
        <ele>284</ele>
        <time>2016-09-14T09:22:56Z</time>
      </trkpt>
      <trkpt lat="46.02682" lon="4.96194">
        <ele>285</ele>
        <time>2016-09-14T09:22:57Z</time>
      </trkpt>
      <trkpt lat="46.02682" lon="4.96202">
        <ele>285</ele>
        <time>2016-09-14T09:22:58Z</time>
      </trkpt>
      <trkpt lat="46.02681" lon="4.96209">
        <ele>285</ele>
        <time>2016-09-14T09:22:59Z</time>
      </trkpt>
      <trkpt lat="46.0268" lon="4.96217">
        <ele>285</ele>
        <time>2016-09-14T09:23:00Z</time>
      </trkpt>
      <trkpt lat="46.02679" lon="4.96224">
        <ele>285</ele>
        <time>2016-09-14T09:23:01Z</time>
      </trkpt>
      <trkpt lat="46.02678" lon="4.9623">
        <ele>285</ele>
        <time>2016-09-14T09:23:02Z</time>
      </trkpt>
      <trkpt lat="46.02677" lon="4.96237">
        <ele>285</ele>
        <time>2016-09-14T09:23:03Z</time>
      </trkpt>
      <trkpt lat="46.02677" lon="4.96243">
        <ele>285</ele>
        <time>2016-09-14T09:23:04Z</time>
      </trkpt>
      <trkpt lat="46.02676" lon="4.9625">
        <ele>286</ele>
        <time>2016-09-14T09:23:05Z</time>
      </trkpt>
      <trkpt lat="46.02675" lon="4.96257">
        <ele>286</ele>
        <time>2016-09-14T09:23:06Z</time>
      </trkpt>
      <trkpt lat="46.02673" lon="4.96265">
        <ele>286</ele>
        <time>2016-09-14T09:23:07Z</time>
      </trkpt>
      <trkpt lat="46.02672" lon="4.96273">
        <ele>287</ele>
        <time>2016-09-14T09:23:08Z</time>
      </trkpt>
      <trkpt lat="46.02671" lon="4.96281">
        <ele>287</ele>
        <time>2016-09-14T09:23:09Z</time>
      </trkpt>
      <trkpt lat="46.0267" lon="4.96289">
        <ele>287</ele>
        <time>2016-09-14T09:23:10Z</time>
      </trkpt>
      <trkpt lat="46.02668" lon="4.96297">
        <ele>287</ele>
        <time>2016-09-14T09:23:11Z</time>
      </trkpt>
      <trkpt lat="46.02667" lon="4.96305">
        <ele>287</ele>
        <time>2016-09-14T09:23:12Z</time>
      </trkpt>
      <trkpt lat="46.02666" lon="4.96313">
        <ele>285</ele>
        <time>2016-09-14T09:23:13Z</time>
      </trkpt>
      <trkpt lat="46.02664" lon="4.96322">
        <ele>285</ele>
        <time>2016-09-14T09:23:14Z</time>
      </trkpt>
      <trkpt lat="46.02663" lon="4.9633">
        <ele>286</ele>
        <time>2016-09-14T09:23:15Z</time>
      </trkpt>
      <trkpt lat="46.02662" lon="4.96337">
        <ele>286</ele>
        <time>2016-09-14T09:23:16Z</time>
      </trkpt>
      <trkpt lat="46.02661" lon="4.96345">
        <ele>285</ele>
        <time>2016-09-14T09:23:17Z</time>
      </trkpt>
      <trkpt lat="46.0266" lon="4.96353">
        <ele>285</ele>
        <time>2016-09-14T09:23:18Z</time>
      </trkpt>
      <trkpt lat="46.02659" lon="4.96361">
        <ele>285</ele>
        <time>2016-09-14T09:23:19Z</time>
      </trkpt>
      <trkpt lat="46.02657" lon="4.96368">
        <ele>285</ele>
        <time>2016-09-14T09:23:20Z</time>
      </trkpt>
      <trkpt lat="46.02656" lon="4.96376">
        <ele>285</ele>
        <time>2016-09-14T09:23:21Z</time>
      </trkpt>
      <trkpt lat="46.02655" lon="4.96384">
        <ele>285</ele>
        <time>2016-09-14T09:23:22Z</time>
      </trkpt>
      <trkpt lat="46.02654" lon="4.96392">
        <ele>285</ele>
        <time>2016-09-14T09:23:23Z</time>
      </trkpt>
      <trkpt lat="46.02652" lon="4.964">
        <ele>285</ele>
        <time>2016-09-14T09:23:24Z</time>
      </trkpt>
      <trkpt lat="46.02651" lon="4.96408">
        <ele>285</ele>
        <time>2016-09-14T09:23:25Z</time>
      </trkpt>
      <trkpt lat="46.02649" lon="4.96416">
        <ele>285</ele>
        <time>2016-09-14T09:23:26Z</time>
      </trkpt>
      <trkpt lat="46.02647" lon="4.96424">
        <ele>285</ele>
        <time>2016-09-14T09:23:27Z</time>
      </trkpt>
      <trkpt lat="46.02646" lon="4.96432">
        <ele>285</ele>
        <time>2016-09-14T09:23:28Z</time>
      </trkpt>
      <trkpt lat="46.02644" lon="4.9644">
        <ele>285</ele>
        <time>2016-09-14T09:23:29Z</time>
      </trkpt>
      <trkpt lat="46.02643" lon="4.96448">
        <ele>285</ele>
        <time>2016-09-14T09:23:30Z</time>
      </trkpt>
      <trkpt lat="46.02642" lon="4.96456">
        <ele>285</ele>
        <time>2016-09-14T09:23:31Z</time>
      </trkpt>
      <trkpt lat="46.02643" lon="4.96464">
        <ele>285</ele>
        <time>2016-09-14T09:23:32Z</time>
      </trkpt>
      <trkpt lat="46.02642" lon="4.96472">
        <ele>285</ele>
        <time>2016-09-14T09:23:33Z</time>
      </trkpt>
      <trkpt lat="46.02642" lon="4.9648">
        <ele>285</ele>
        <time>2016-09-14T09:23:34Z</time>
      </trkpt>
      <trkpt lat="46.02641" lon="4.96488">
        <ele>285</ele>
        <time>2016-09-14T09:23:35Z</time>
      </trkpt>
      <trkpt lat="46.02641" lon="4.96497">
        <ele>285</ele>
        <time>2016-09-14T09:23:36Z</time>
      </trkpt>
      <trkpt lat="46.02641" lon="4.96505">
        <ele>286</ele>
        <time>2016-09-14T09:23:37Z</time>
      </trkpt>
      <trkpt lat="46.0264" lon="4.96513">
        <ele>286</ele>
        <time>2016-09-14T09:23:38Z</time>
      </trkpt>
      <trkpt lat="46.0264" lon="4.96521">
        <ele>286</ele>
        <time>2016-09-14T09:23:39Z</time>
      </trkpt>
      <trkpt lat="46.0264" lon="4.96528">
        <ele>286</ele>
        <time>2016-09-14T09:23:40Z</time>
      </trkpt>
      <trkpt lat="46.0264" lon="4.96535">
        <ele>286</ele>
        <time>2016-09-14T09:23:41Z</time>
      </trkpt>
      <trkpt lat="46.0264" lon="4.96542">
        <ele>286</ele>
        <time>2016-09-14T09:23:42Z</time>
      </trkpt>
      <trkpt lat="46.0264" lon="4.9655">
        <ele>286</ele>
        <time>2016-09-14T09:23:43Z</time>
      </trkpt>
      <trkpt lat="46.0264" lon="4.96557">
        <ele>286</ele>
        <time>2016-09-14T09:23:44Z</time>
      </trkpt>
      <trkpt lat="46.0264" lon="4.96565">
        <ele>286</ele>
        <time>2016-09-14T09:23:45Z</time>
      </trkpt>
      <trkpt lat="46.0264" lon="4.96573">
        <ele>286</ele>
        <time>2016-09-14T09:23:46Z</time>
      </trkpt>
      <trkpt lat="46.02641" lon="4.96582">
        <ele>286</ele>
        <time>2016-09-14T09:23:47Z</time>
      </trkpt>
      <trkpt lat="46.02641" lon="4.96591">
        <ele>286</ele>
        <time>2016-09-14T09:23:48Z</time>
      </trkpt>
      <trkpt lat="46.02641" lon="4.966">
        <ele>286</ele>
        <time>2016-09-14T09:23:49Z</time>
      </trkpt>
      <trkpt lat="46.0264" lon="4.96609">
        <ele>286</ele>
        <time>2016-09-14T09:23:50Z</time>
      </trkpt>
      <trkpt lat="46.0264" lon="4.96618">
        <ele>286</ele>
        <time>2016-09-14T09:23:51Z</time>
      </trkpt>
      <trkpt lat="46.0264" lon="4.96626">
        <ele>286</ele>
        <time>2016-09-14T09:23:52Z</time>
      </trkpt>
      <trkpt lat="46.0264" lon="4.96635">
        <ele>286</ele>
        <time>2016-09-14T09:23:53Z</time>
      </trkpt>
      <trkpt lat="46.0264" lon="4.96643">
        <ele>286</ele>
        <time>2016-09-14T09:23:54Z</time>
      </trkpt>
      <trkpt lat="46.0264" lon="4.96651">
        <ele>286</ele>
        <time>2016-09-14T09:23:55Z</time>
      </trkpt>
      <trkpt lat="46.02641" lon="4.96658">
        <ele>286</ele>
        <time>2016-09-14T09:23:56Z</time>
      </trkpt>
      <trkpt lat="46.02641" lon="4.96666">
        <ele>286</ele>
        <time>2016-09-14T09:23:57Z</time>
      </trkpt>
      <trkpt lat="46.02641" lon="4.96673">
        <ele>285</ele>
        <time>2016-09-14T09:23:58Z</time>
      </trkpt>
      <trkpt lat="46.02642" lon="4.96681">
        <ele>285</ele>
        <time>2016-09-14T09:23:59Z</time>
      </trkpt>
      <trkpt lat="46.02642" lon="4.96689">
        <ele>285</ele>
        <time>2016-09-14T09:24:00Z</time>
      </trkpt>
      <trkpt lat="46.02642" lon="4.96697">
        <ele>285</ele>
        <time>2016-09-14T09:24:01Z</time>
      </trkpt>
      <trkpt lat="46.02642" lon="4.96704">
        <ele>285</ele>
        <time>2016-09-14T09:24:02Z</time>
      </trkpt>
      <trkpt lat="46.02642" lon="4.96712">
        <ele>285</ele>
        <time>2016-09-14T09:24:03Z</time>
      </trkpt>
      <trkpt lat="46.02642" lon="4.96721">
        <ele>285</ele>
        <time>2016-09-14T09:24:04Z</time>
      </trkpt>
      <trkpt lat="46.02643" lon="4.96729">
        <ele>285</ele>
        <time>2016-09-14T09:24:05Z</time>
      </trkpt>
      <trkpt lat="46.02643" lon="4.96738">
        <ele>285</ele>
        <time>2016-09-14T09:24:06Z</time>
      </trkpt>
      <trkpt lat="46.02643" lon="4.96747">
        <ele>285</ele>
        <time>2016-09-14T09:24:07Z</time>
      </trkpt>
      <trkpt lat="46.02643" lon="4.96755">
        <ele>284</ele>
        <time>2016-09-14T09:24:08Z</time>
      </trkpt>
      <trkpt lat="46.02643" lon="4.96763">
        <ele>284</ele>
        <time>2016-09-14T09:24:09Z</time>
      </trkpt>
      <trkpt lat="46.02643" lon="4.96771">
        <ele>284</ele>
        <time>2016-09-14T09:24:10Z</time>
      </trkpt>
      <trkpt lat="46.02644" lon="4.96779">
        <ele>284</ele>
        <time>2016-09-14T09:24:11Z</time>
      </trkpt>
      <trkpt lat="46.02644" lon="4.96787">
        <ele>284</ele>
        <time>2016-09-14T09:24:12Z</time>
      </trkpt>
      <trkpt lat="46.02645" lon="4.96795">
        <ele>284</ele>
        <time>2016-09-14T09:24:13Z</time>
      </trkpt>
      <trkpt lat="46.02645" lon="4.96803">
        <ele>284</ele>
        <time>2016-09-14T09:24:14Z</time>
      </trkpt>
      <trkpt lat="46.02645" lon="4.9681">
        <ele>284</ele>
        <time>2016-09-14T09:24:15Z</time>
      </trkpt>
      <trkpt lat="46.02644" lon="4.96818">
        <ele>283</ele>
        <time>2016-09-14T09:24:16Z</time>
      </trkpt>
      <trkpt lat="46.02644" lon="4.96826">
        <ele>283</ele>
        <time>2016-09-14T09:24:17Z</time>
      </trkpt>
      <trkpt lat="46.02644" lon="4.96835">
        <ele>283</ele>
        <time>2016-09-14T09:24:18Z</time>
      </trkpt>
      <trkpt lat="46.02644" lon="4.96844">
        <ele>283</ele>
        <time>2016-09-14T09:24:19Z</time>
      </trkpt>
      <trkpt lat="46.02644" lon="4.96853">
        <ele>284</ele>
        <time>2016-09-14T09:24:20Z</time>
      </trkpt>
      <trkpt lat="46.02644" lon="4.96862">
        <ele>284</ele>
        <time>2016-09-14T09:24:21Z</time>
      </trkpt>
      <trkpt lat="46.02644" lon="4.9687">
        <ele>284</ele>
        <time>2016-09-14T09:24:22Z</time>
      </trkpt>
      <trkpt lat="46.02644" lon="4.96878">
        <ele>284</ele>
        <time>2016-09-14T09:24:23Z</time>
      </trkpt>
      <trkpt lat="46.02645" lon="4.96886">
        <ele>284</ele>
        <time>2016-09-14T09:24:24Z</time>
      </trkpt>
      <trkpt lat="46.02645" lon="4.96893">
        <ele>284</ele>
        <time>2016-09-14T09:24:25Z</time>
      </trkpt>
      <trkpt lat="46.02645" lon="4.969">
        <ele>284</ele>
        <time>2016-09-14T09:24:26Z</time>
      </trkpt>
      <trkpt lat="46.02645" lon="4.96907">
        <ele>284</ele>
        <time>2016-09-14T09:24:27Z</time>
      </trkpt>
      <trkpt lat="46.02645" lon="4.96914">
        <ele>284</ele>
        <time>2016-09-14T09:24:28Z</time>
      </trkpt>
      <trkpt lat="46.02645" lon="4.96921">
        <ele>284</ele>
        <time>2016-09-14T09:24:29Z</time>
      </trkpt>
      <trkpt lat="46.02646" lon="4.96928">
        <ele>284</ele>
        <time>2016-09-14T09:24:30Z</time>
      </trkpt>
      <trkpt lat="46.02645" lon="4.96935">
        <ele>284</ele>
        <time>2016-09-14T09:24:31Z</time>
      </trkpt>
      <trkpt lat="46.02645" lon="4.96943">
        <ele>285</ele>
        <time>2016-09-14T09:24:32Z</time>
      </trkpt>
      <trkpt lat="46.02646" lon="4.9695">
        <ele>285</ele>
        <time>2016-09-14T09:24:33Z</time>
      </trkpt>
      <trkpt lat="46.02647" lon="4.96958">
        <ele>285</ele>
        <time>2016-09-14T09:24:34Z</time>
      </trkpt>
      <trkpt lat="46.0265" lon="4.96966">
        <ele>285</ele>
        <time>2016-09-14T09:24:35Z</time>
      </trkpt>
      <trkpt lat="46.02653" lon="4.96974">
        <ele>285</ele>
        <time>2016-09-14T09:24:36Z</time>
      </trkpt>
      <trkpt lat="46.02656" lon="4.96981">
        <ele>285</ele>
        <time>2016-09-14T09:24:37Z</time>
      </trkpt>
      <trkpt lat="46.02659" lon="4.96988">
        <ele>284</ele>
        <time>2016-09-14T09:24:38Z</time>
      </trkpt>
      <trkpt lat="46.02662" lon="4.96993">
        <ele>284</ele>
        <time>2016-09-14T09:24:39Z</time>
      </trkpt>
      <trkpt lat="46.02665" lon="4.96998">
        <ele>284</ele>
        <time>2016-09-14T09:24:40Z</time>
      </trkpt>
      <trkpt lat="46.02669" lon="4.97004">
        <ele>284</ele>
        <time>2016-09-14T09:24:41Z</time>
      </trkpt>
      <trkpt lat="46.02672" lon="4.97009">
        <ele>283</ele>
        <time>2016-09-14T09:24:42Z</time>
      </trkpt>
      <trkpt lat="46.02676" lon="4.97014">
        <ele>283</ele>
        <time>2016-09-14T09:24:43Z</time>
      </trkpt>
      <trkpt lat="46.02679" lon="4.97019">
        <ele>283</ele>
        <time>2016-09-14T09:24:44Z</time>
      </trkpt>
      <trkpt lat="46.02683" lon="4.97024">
        <ele>283</ele>
        <time>2016-09-14T09:24:45Z</time>
      </trkpt>
      <trkpt lat="46.02687" lon="4.9703">
        <ele>283</ele>
        <time>2016-09-14T09:24:46Z</time>
      </trkpt>
      <trkpt lat="46.02691" lon="4.97035">
        <ele>283</ele>
        <time>2016-09-14T09:24:47Z</time>
      </trkpt>
      <trkpt lat="46.02695" lon="4.97041">
        <ele>283</ele>
        <time>2016-09-14T09:24:48Z</time>
      </trkpt>
      <trkpt lat="46.02698" lon="4.97046">
        <ele>283</ele>
        <time>2016-09-14T09:24:49Z</time>
      </trkpt>
      <trkpt lat="46.02702" lon="4.97051">
        <ele>282</ele>
        <time>2016-09-14T09:24:50Z</time>
      </trkpt>
      <trkpt lat="46.02706" lon="4.97057">
        <ele>282</ele>
        <time>2016-09-14T09:24:51Z</time>
      </trkpt>
      <trkpt lat="46.0271" lon="4.97062">
        <ele>282</ele>
        <time>2016-09-14T09:24:52Z</time>
      </trkpt>
      <trkpt lat="46.02713" lon="4.97067">
        <ele>282</ele>
        <time>2016-09-14T09:24:53Z</time>
      </trkpt>
      <trkpt lat="46.02716" lon="4.97072">
        <ele>282</ele>
        <time>2016-09-14T09:24:54Z</time>
      </trkpt>
      <trkpt lat="46.0272" lon="4.97077">
        <ele>282</ele>
        <time>2016-09-14T09:24:55Z</time>
      </trkpt>
      <trkpt lat="46.02723" lon="4.97082">
        <ele>282</ele>
        <time>2016-09-14T09:24:56Z</time>
      </trkpt>
      <trkpt lat="46.02727" lon="4.97087">
        <ele>282</ele>
        <time>2016-09-14T09:24:57Z</time>
      </trkpt>
      <trkpt lat="46.02731" lon="4.97092">
        <ele>282</ele>
        <time>2016-09-14T09:24:58Z</time>
      </trkpt>
      <trkpt lat="46.02734" lon="4.97097">
        <ele>282</ele>
        <time>2016-09-14T09:24:59Z</time>
      </trkpt>
      <trkpt lat="46.02737" lon="4.97103">
        <ele>282</ele>
        <time>2016-09-14T09:25:00Z</time>
      </trkpt>
      <trkpt lat="46.0274" lon="4.97109">
        <ele>282</ele>
        <time>2016-09-14T09:25:01Z</time>
      </trkpt>
      <trkpt lat="46.02743" lon="4.97115">
        <ele>282</ele>
        <time>2016-09-14T09:25:02Z</time>
      </trkpt>
      <trkpt lat="46.02745" lon="4.97121">
        <ele>282</ele>
        <time>2016-09-14T09:25:03Z</time>
      </trkpt>
      <trkpt lat="46.02746" lon="4.97128">
        <ele>282</ele>
        <time>2016-09-14T09:25:04Z</time>
      </trkpt>
      <trkpt lat="46.02748" lon="4.97135">
        <ele>282</ele>
        <time>2016-09-14T09:25:05Z</time>
      </trkpt>
      <trkpt lat="46.0275" lon="4.97143">
        <ele>282</ele>
        <time>2016-09-14T09:25:06Z</time>
      </trkpt>
      <trkpt lat="46.02752" lon="4.97151">
        <ele>281</ele>
        <time>2016-09-14T09:25:07Z</time>
      </trkpt>
      <trkpt lat="46.02753" lon="4.9716">
        <ele>282</ele>
        <time>2016-09-14T09:25:08Z</time>
      </trkpt>
      <trkpt lat="46.02755" lon="4.97168">
        <ele>282</ele>
        <time>2016-09-14T09:25:09Z</time>
      </trkpt>
      <trkpt lat="46.02757" lon="4.97176">
        <ele>281</ele>
        <time>2016-09-14T09:25:10Z</time>
      </trkpt>
      <trkpt lat="46.02759" lon="4.97183">
        <ele>281</ele>
        <time>2016-09-14T09:25:11Z</time>
      </trkpt>
      <trkpt lat="46.02761" lon="4.97191">
        <ele>281</ele>
        <time>2016-09-14T09:25:12Z</time>
      </trkpt>
      <trkpt lat="46.02763" lon="4.97199">
        <ele>281</ele>
        <time>2016-09-14T09:25:13Z</time>
      </trkpt>
      <trkpt lat="46.02765" lon="4.97206">
        <ele>281</ele>
        <time>2016-09-14T09:25:14Z</time>
      </trkpt>
      <trkpt lat="46.02766" lon="4.97214">
        <ele>281</ele>
        <time>2016-09-14T09:25:15Z</time>
      </trkpt>
      <trkpt lat="46.02768" lon="4.9722">
        <ele>281</ele>
        <time>2016-09-14T09:25:16Z</time>
      </trkpt>
      <trkpt lat="46.0277" lon="4.97227">
        <ele>281</ele>
        <time>2016-09-14T09:25:17Z</time>
      </trkpt>
      <trkpt lat="46.02772" lon="4.97235">
        <ele>281</ele>
        <time>2016-09-14T09:25:18Z</time>
      </trkpt>
      <trkpt lat="46.02774" lon="4.97242">
        <ele>281</ele>
        <time>2016-09-14T09:25:19Z</time>
      </trkpt>
      <trkpt lat="46.02775" lon="4.97249">
        <ele>281</ele>
        <time>2016-09-14T09:25:20Z</time>
      </trkpt>
      <trkpt lat="46.02777" lon="4.97257">
        <ele>280</ele>
        <time>2016-09-14T09:25:21Z</time>
      </trkpt>
      <trkpt lat="46.02778" lon="4.97265">
        <ele>280</ele>
        <time>2016-09-14T09:25:22Z</time>
      </trkpt>
      <trkpt lat="46.0278" lon="4.97273">
        <ele>280</ele>
        <time>2016-09-14T09:25:23Z</time>
      </trkpt>
      <trkpt lat="46.02781" lon="4.97281">
        <ele>280</ele>
        <time>2016-09-14T09:25:24Z</time>
      </trkpt>
      <trkpt lat="46.02781" lon="4.9729">
        <ele>280</ele>
        <time>2016-09-14T09:25:25Z</time>
      </trkpt>
      <trkpt lat="46.02781" lon="4.97299">
        <ele>280</ele>
        <time>2016-09-14T09:25:26Z</time>
      </trkpt>
      <trkpt lat="46.0278" lon="4.97309">
        <ele>280</ele>
        <time>2016-09-14T09:25:27Z</time>
      </trkpt>
      <trkpt lat="46.02779" lon="4.97319">
        <ele>280</ele>
        <time>2016-09-14T09:25:28Z</time>
      </trkpt>
      <trkpt lat="46.02778" lon="4.97328">
        <ele>280</ele>
        <time>2016-09-14T09:25:29Z</time>
      </trkpt>
      <trkpt lat="46.02777" lon="4.97337">
        <ele>280</ele>
        <time>2016-09-14T09:25:30Z</time>
      </trkpt>
      <trkpt lat="46.02776" lon="4.97347">
        <ele>279</ele>
        <time>2016-09-14T09:25:31Z</time>
      </trkpt>
      <trkpt lat="46.02776" lon="4.97356">
        <ele>279</ele>
        <time>2016-09-14T09:25:32Z</time>
      </trkpt>
      <trkpt lat="46.02777" lon="4.97364">
        <ele>279</ele>
        <time>2016-09-14T09:25:33Z</time>
      </trkpt>
      <trkpt lat="46.02778" lon="4.97373">
        <ele>279</ele>
        <time>2016-09-14T09:25:34Z</time>
      </trkpt>
      <trkpt lat="46.02781" lon="4.9738">
        <ele>279</ele>
        <time>2016-09-14T09:25:35Z</time>
      </trkpt>
      <trkpt lat="46.02783" lon="4.97387">
        <ele>279</ele>
        <time>2016-09-14T09:25:36Z</time>
      </trkpt>
      <trkpt lat="46.02787" lon="4.97392">
        <ele>279</ele>
        <time>2016-09-14T09:25:37Z</time>
      </trkpt>
      <trkpt lat="46.02791" lon="4.97396">
        <ele>279</ele>
        <time>2016-09-14T09:25:38Z</time>
      </trkpt>
      <trkpt lat="46.02795" lon="4.974">
        <ele>279</ele>
        <time>2016-09-14T09:25:39Z</time>
      </trkpt>
      <trkpt lat="46.028" lon="4.97404">
        <ele>279</ele>
        <time>2016-09-14T09:25:40Z</time>
      </trkpt>
      <trkpt lat="46.02805" lon="4.97407">
        <ele>279</ele>
        <time>2016-09-14T09:25:41Z</time>
      </trkpt>
      <trkpt lat="46.0281" lon="4.9741">
        <ele>279</ele>
        <time>2016-09-14T09:25:42Z</time>
      </trkpt>
      <trkpt lat="46.02816" lon="4.97414">
        <ele>279</ele>
        <time>2016-09-14T09:25:43Z</time>
      </trkpt>
      <trkpt lat="46.02821" lon="4.97417">
        <ele>278</ele>
        <time>2016-09-14T09:25:44Z</time>
      </trkpt>
      <trkpt lat="46.02827" lon="4.9742">
        <ele>278</ele>
        <time>2016-09-14T09:25:45Z</time>
      </trkpt>
      <trkpt lat="46.02832" lon="4.97424">
        <ele>278</ele>
        <time>2016-09-14T09:25:46Z</time>
      </trkpt>
      <trkpt lat="46.02838" lon="4.97427">
        <ele>278</ele>
        <time>2016-09-14T09:25:47Z</time>
      </trkpt>
      <trkpt lat="46.02843" lon="4.9743">
        <ele>278</ele>
        <time>2016-09-14T09:25:48Z</time>
      </trkpt>
      <trkpt lat="46.02848" lon="4.97433">
        <ele>279</ele>
        <time>2016-09-14T09:25:49Z</time>
      </trkpt>
      <trkpt lat="46.02854" lon="4.97436">
        <ele>279</ele>
        <time>2016-09-14T09:25:50Z</time>
      </trkpt>
      <trkpt lat="46.02859" lon="4.97439">
        <ele>279</ele>
        <time>2016-09-14T09:25:51Z</time>
      </trkpt>
      <trkpt lat="46.02864" lon="4.97441">
        <ele>279</ele>
        <time>2016-09-14T09:25:52Z</time>
      </trkpt>
      <trkpt lat="46.0287" lon="4.97443">
        <ele>279</ele>
        <time>2016-09-14T09:25:53Z</time>
      </trkpt>
      <trkpt lat="46.02876" lon="4.97446">
        <ele>279</ele>
        <time>2016-09-14T09:25:54Z</time>
      </trkpt>
      <trkpt lat="46.0288" lon="4.97448">
        <ele>279</ele>
        <time>2016-09-14T09:25:55Z</time>
      </trkpt>
      <trkpt lat="46.02885" lon="4.9745">
        <ele>279</ele>
        <time>2016-09-14T09:25:56Z</time>
      </trkpt>
      <trkpt lat="46.0289" lon="4.97453">
        <ele>279</ele>
        <time>2016-09-14T09:25:57Z</time>
      </trkpt>
      <trkpt lat="46.02894" lon="4.97456">
        <ele>279</ele>
        <time>2016-09-14T09:25:58Z</time>
      </trkpt>
      <trkpt lat="46.02899" lon="4.97458">
        <ele>279</ele>
        <time>2016-09-14T09:25:59Z</time>
      </trkpt>
      <trkpt lat="46.02904" lon="4.97461">
        <ele>279</ele>
        <time>2016-09-14T09:26:00Z</time>
      </trkpt>
      <trkpt lat="46.02909" lon="4.97464">
        <ele>279</ele>
        <time>2016-09-14T09:26:01Z</time>
      </trkpt>
      <trkpt lat="46.02914" lon="4.97467">
        <ele>280</ele>
        <time>2016-09-14T09:26:02Z</time>
      </trkpt>
      <trkpt lat="46.02919" lon="4.97469">
        <ele>282</ele>
        <time>2016-09-14T09:26:03Z</time>
      </trkpt>
      <trkpt lat="46.02924" lon="4.97472">
        <ele>282</ele>
        <time>2016-09-14T09:26:04Z</time>
      </trkpt>
      <trkpt lat="46.02929" lon="4.97476">
        <ele>282</ele>
        <time>2016-09-14T09:26:05Z</time>
      </trkpt>
      <trkpt lat="46.02934" lon="4.97479">
        <ele>282</ele>
        <time>2016-09-14T09:26:06Z</time>
      </trkpt>
      <trkpt lat="46.02939" lon="4.97482">
        <ele>282</ele>
        <time>2016-09-14T09:26:07Z</time>
      </trkpt>
      <trkpt lat="46.02944" lon="4.97484">
        <ele>282</ele>
        <time>2016-09-14T09:26:08Z</time>
      </trkpt>
      <trkpt lat="46.0295" lon="4.97488">
        <ele>282</ele>
        <time>2016-09-14T09:26:09Z</time>
      </trkpt>
      <trkpt lat="46.02955" lon="4.97491">
        <ele>282</ele>
        <time>2016-09-14T09:26:10Z</time>
      </trkpt>
      <trkpt lat="46.02961" lon="4.97494">
        <ele>283</ele>
        <time>2016-09-14T09:26:11Z</time>
      </trkpt>
      <trkpt lat="46.02966" lon="4.97497">
        <ele>283</ele>
        <time>2016-09-14T09:26:12Z</time>
      </trkpt>
      <trkpt lat="46.02971" lon="4.975">
        <ele>283</ele>
        <time>2016-09-14T09:26:13Z</time>
      </trkpt>
      <trkpt lat="46.02975" lon="4.97502">
        <ele>283</ele>
        <time>2016-09-14T09:26:14Z</time>
      </trkpt>
      <trkpt lat="46.0298" lon="4.97505">
        <ele>283</ele>
        <time>2016-09-14T09:26:15Z</time>
      </trkpt>
      <trkpt lat="46.02984" lon="4.97507">
        <ele>284</ele>
        <time>2016-09-14T09:26:16Z</time>
      </trkpt>
      <trkpt lat="46.02993" lon="4.97511">
        <ele>284</ele>
        <time>2016-09-14T09:26:18Z</time>
      </trkpt>
      <trkpt lat="46.02997" lon="4.97514">
        <ele>284</ele>
        <time>2016-09-14T09:26:19Z</time>
      </trkpt>
      <trkpt lat="46.03001" lon="4.97516">
        <ele>284</ele>
        <time>2016-09-14T09:26:20Z</time>
      </trkpt>
      <trkpt lat="46.03006" lon="4.97519">
        <ele>284</ele>
        <time>2016-09-14T09:26:21Z</time>
      </trkpt>
      <trkpt lat="46.03012" lon="4.97521">
        <ele>284</ele>
        <time>2016-09-14T09:26:22Z</time>
      </trkpt>
      <trkpt lat="46.03017" lon="4.97524">
        <ele>284</ele>
        <time>2016-09-14T09:26:23Z</time>
      </trkpt>
      <trkpt lat="46.03022" lon="4.97528">
        <ele>284</ele>
        <time>2016-09-14T09:26:24Z</time>
      </trkpt>
      <trkpt lat="46.03028" lon="4.97533">
        <ele>284</ele>
        <time>2016-09-14T09:26:25Z</time>
      </trkpt>
      <trkpt lat="46.03033" lon="4.97536">
        <ele>284</ele>
        <time>2016-09-14T09:26:26Z</time>
      </trkpt>
      <trkpt lat="46.03038" lon="4.9754">
        <ele>284</ele>
        <time>2016-09-14T09:26:27Z</time>
      </trkpt>
      <trkpt lat="46.03042" lon="4.97542">
        <ele>284</ele>
        <time>2016-09-14T09:26:28Z</time>
      </trkpt>
      <trkpt lat="46.03047" lon="4.97544">
        <ele>284</ele>
        <time>2016-09-14T09:26:29Z</time>
      </trkpt>
      <trkpt lat="46.03051" lon="4.97546">
        <ele>284</ele>
        <time>2016-09-14T09:26:30Z</time>
      </trkpt>
      <trkpt lat="46.03056" lon="4.97549">
        <ele>284</ele>
        <time>2016-09-14T09:26:31Z</time>
      </trkpt>
      <trkpt lat="46.03063" lon="4.97553">
        <ele>284</ele>
        <time>2016-09-14T09:26:33Z</time>
      </trkpt>
      <trkpt lat="46.03067" lon="4.97554">
        <ele>284</ele>
        <time>2016-09-14T09:26:34Z</time>
      </trkpt>
      <trkpt lat="46.03073" lon="4.9756">
        <ele>284</ele>
        <time>2016-09-14T09:26:36Z</time>
      </trkpt>
      <trkpt lat="46.03074" lon="4.97563">
        <ele>283</ele>
        <time>2016-09-14T09:26:37Z</time>
      </trkpt>
      <trkpt lat="46.03076" lon="4.97572">
        <ele>283</ele>
        <time>2016-09-14T09:26:39Z</time>
      </trkpt>
      <trkpt lat="46.03075" lon="4.97577">
        <ele>283</ele>
        <time>2016-09-14T09:26:40Z</time>
      </trkpt>
      <trkpt lat="46.03072" lon="4.97582">
        <ele>283</ele>
        <time>2016-09-14T09:26:41Z</time>
      </trkpt>
      <trkpt lat="46.03068" lon="4.97587">
        <ele>282</ele>
        <time>2016-09-14T09:26:42Z</time>
      </trkpt>
      <trkpt lat="46.03065" lon="4.97593">
        <ele>282</ele>
        <time>2016-09-14T09:26:43Z</time>
      </trkpt>
      <trkpt lat="46.03061" lon="4.97599">
        <ele>282</ele>
        <time>2016-09-14T09:26:44Z</time>
      </trkpt>
      <trkpt lat="46.03058" lon="4.97605">
        <ele>282</ele>
        <time>2016-09-14T09:26:45Z</time>
      </trkpt>
      <trkpt lat="46.03054" lon="4.97612">
        <ele>282</ele>
        <time>2016-09-14T09:26:46Z</time>
      </trkpt>
      <trkpt lat="46.03051" lon="4.97618">
        <ele>282</ele>
        <time>2016-09-14T09:26:47Z</time>
      </trkpt>
      <trkpt lat="46.03047" lon="4.97625">
        <ele>282</ele>
        <time>2016-09-14T09:26:48Z</time>
      </trkpt>
      <trkpt lat="46.03044" lon="4.97632">
        <ele>281</ele>
        <time>2016-09-14T09:26:49Z</time>
      </trkpt>
      <trkpt lat="46.0304" lon="4.97639">
        <ele>281</ele>
        <time>2016-09-14T09:26:50Z</time>
      </trkpt>
      <trkpt lat="46.03037" lon="4.97645">
        <ele>281</ele>
        <time>2016-09-14T09:26:51Z</time>
      </trkpt>
      <trkpt lat="46.03034" lon="4.97652">
        <ele>281</ele>
        <time>2016-09-14T09:26:52Z</time>
      </trkpt>
      <trkpt lat="46.03031" lon="4.9766">
        <ele>281</ele>
        <time>2016-09-14T09:26:53Z</time>
      </trkpt>
      <trkpt lat="46.03028" lon="4.97667">
        <ele>281</ele>
        <time>2016-09-14T09:26:54Z</time>
      </trkpt>
      <trkpt lat="46.03024" lon="4.97675">
        <ele>281</ele>
        <time>2016-09-14T09:26:55Z</time>
      </trkpt>
      <trkpt lat="46.03021" lon="4.97683">
        <ele>281</ele>
        <time>2016-09-14T09:26:56Z</time>
      </trkpt>
      <trkpt lat="46.03018" lon="4.9769">
        <ele>281</ele>
        <time>2016-09-14T09:26:57Z</time>
      </trkpt>
      <trkpt lat="46.03015" lon="4.97697">
        <ele>281</ele>
        <time>2016-09-14T09:26:58Z</time>
      </trkpt>
      <trkpt lat="46.03013" lon="4.97704">
        <ele>281</ele>
        <time>2016-09-14T09:26:59Z</time>
      </trkpt>
      <trkpt lat="46.0301" lon="4.97711">
        <ele>281</ele>
        <time>2016-09-14T09:27:00Z</time>
      </trkpt>
      <trkpt lat="46.03007" lon="4.97717">
        <ele>281</ele>
        <time>2016-09-14T09:27:01Z</time>
      </trkpt>
      <trkpt lat="46.03004" lon="4.97724">
        <ele>281</ele>
        <time>2016-09-14T09:27:02Z</time>
      </trkpt>
      <trkpt lat="46.03002" lon="4.97731">
        <ele>282</ele>
        <time>2016-09-14T09:27:03Z</time>
      </trkpt>
      <trkpt lat="46.03" lon="4.97738">
        <ele>281</ele>
        <time>2016-09-14T09:27:04Z</time>
      </trkpt>
      <trkpt lat="46.02997" lon="4.97745">
        <ele>282</ele>
        <time>2016-09-14T09:27:05Z</time>
      </trkpt>
      <trkpt lat="46.02995" lon="4.97752">
        <ele>282</ele>
        <time>2016-09-14T09:27:06Z</time>
      </trkpt>
      <trkpt lat="46.02992" lon="4.97759">
        <ele>282</ele>
        <time>2016-09-14T09:27:07Z</time>
      </trkpt>
      <trkpt lat="46.0299" lon="4.97765">
        <ele>282</ele>
        <time>2016-09-14T09:27:08Z</time>
      </trkpt>
      <trkpt lat="46.02987" lon="4.97773">
        <ele>281</ele>
        <time>2016-09-14T09:27:09Z</time>
      </trkpt>
      <trkpt lat="46.02984" lon="4.9778">
        <ele>281</ele>
        <time>2016-09-14T09:27:10Z</time>
      </trkpt>
      <trkpt lat="46.02981" lon="4.97787">
        <ele>281</ele>
        <time>2016-09-14T09:27:11Z</time>
      </trkpt>
      <trkpt lat="46.02979" lon="4.97794">
        <ele>281</ele>
        <time>2016-09-14T09:27:12Z</time>
      </trkpt>
      <trkpt lat="46.02976" lon="4.97801">
        <ele>281</ele>
        <time>2016-09-14T09:27:13Z</time>
      </trkpt>
      <trkpt lat="46.02973" lon="4.97808">
        <ele>281</ele>
        <time>2016-09-14T09:27:14Z</time>
      </trkpt>
      <trkpt lat="46.02971" lon="4.97815">
        <ele>281</ele>
        <time>2016-09-14T09:27:15Z</time>
      </trkpt>
      <trkpt lat="46.02968" lon="4.97823">
        <ele>281</ele>
        <time>2016-09-14T09:27:16Z</time>
      </trkpt>
      <trkpt lat="46.02966" lon="4.9783">
        <ele>281</ele>
        <time>2016-09-14T09:27:17Z</time>
      </trkpt>
      <trkpt lat="46.02963" lon="4.97838">
        <ele>282</ele>
        <time>2016-09-14T09:27:18Z</time>
      </trkpt>
      <trkpt lat="46.0296" lon="4.97846">
        <ele>282</ele>
        <time>2016-09-14T09:27:19Z</time>
      </trkpt>
      <trkpt lat="46.02957" lon="4.97853">
        <ele>282</ele>
        <time>2016-09-14T09:27:20Z</time>
      </trkpt>
      <trkpt lat="46.02954" lon="4.9786">
        <ele>282</ele>
        <time>2016-09-14T09:27:21Z</time>
      </trkpt>
      <trkpt lat="46.02951" lon="4.97868">
        <ele>282</ele>
        <time>2016-09-14T09:27:22Z</time>
      </trkpt>
      <trkpt lat="46.02948" lon="4.97875">
        <ele>282</ele>
        <time>2016-09-14T09:27:23Z</time>
      </trkpt>
      <trkpt lat="46.02945" lon="4.97882">
        <ele>282</ele>
        <time>2016-09-14T09:27:24Z</time>
      </trkpt>
      <trkpt lat="46.02943" lon="4.9789">
        <ele>282</ele>
        <time>2016-09-14T09:27:25Z</time>
      </trkpt>
      <trkpt lat="46.0294" lon="4.97897">
        <ele>282</ele>
        <time>2016-09-14T09:27:26Z</time>
      </trkpt>
      <trkpt lat="46.02938" lon="4.97904">
        <ele>282</ele>
        <time>2016-09-14T09:27:27Z</time>
      </trkpt>
      <trkpt lat="46.02936" lon="4.9791">
        <ele>282</ele>
        <time>2016-09-14T09:27:28Z</time>
      </trkpt>
      <trkpt lat="46.02933" lon="4.97917">
        <ele>282</ele>
        <time>2016-09-14T09:27:29Z</time>
      </trkpt>
      <trkpt lat="46.02929" lon="4.97925">
        <ele>282</ele>
        <time>2016-09-14T09:27:30Z</time>
      </trkpt>
      <trkpt lat="46.02926" lon="4.97932">
        <ele>282</ele>
        <time>2016-09-14T09:27:31Z</time>
      </trkpt>
      <trkpt lat="46.02923" lon="4.97939">
        <ele>282</ele>
        <time>2016-09-14T09:27:32Z</time>
      </trkpt>
      <trkpt lat="46.0292" lon="4.97947">
        <ele>283</ele>
        <time>2016-09-14T09:27:33Z</time>
      </trkpt>
      <trkpt lat="46.02917" lon="4.97954">
        <ele>283</ele>
        <time>2016-09-14T09:27:34Z</time>
      </trkpt>
      <trkpt lat="46.02914" lon="4.97961">
        <ele>282</ele>
        <time>2016-09-14T09:27:35Z</time>
      </trkpt>
      <trkpt lat="46.02911" lon="4.97969">
        <ele>282</ele>
        <time>2016-09-14T09:27:36Z</time>
      </trkpt>
      <trkpt lat="46.02909" lon="4.97976">
        <ele>282</ele>
        <time>2016-09-14T09:27:37Z</time>
      </trkpt>
      <trkpt lat="46.02907" lon="4.97982">
        <ele>282</ele>
        <time>2016-09-14T09:27:38Z</time>
      </trkpt>
      <trkpt lat="46.02904" lon="4.97989">
        <ele>283</ele>
        <time>2016-09-14T09:27:39Z</time>
      </trkpt>
      <trkpt lat="46.02902" lon="4.97995">
        <ele>283</ele>
        <time>2016-09-14T09:27:40Z</time>
      </trkpt>
      <trkpt lat="46.02899" lon="4.98002">
        <ele>283</ele>
        <time>2016-09-14T09:27:41Z</time>
      </trkpt>
      <trkpt lat="46.02896" lon="4.98008">
        <ele>283</ele>
        <time>2016-09-14T09:27:42Z</time>
      </trkpt>
      <trkpt lat="46.02893" lon="4.98014">
        <ele>282</ele>
        <time>2016-09-14T09:27:43Z</time>
      </trkpt>
      <trkpt lat="46.02891" lon="4.98021">
        <ele>282</ele>
        <time>2016-09-14T09:27:44Z</time>
      </trkpt>
      <trkpt lat="46.02888" lon="4.98027">
        <ele>282</ele>
        <time>2016-09-14T09:27:45Z</time>
      </trkpt>
      <trkpt lat="46.02886" lon="4.98034">
        <ele>282</ele>
        <time>2016-09-14T09:27:46Z</time>
      </trkpt>
      <trkpt lat="46.02883" lon="4.9804">
        <ele>282</ele>
        <time>2016-09-14T09:27:47Z</time>
      </trkpt>
      <trkpt lat="46.02881" lon="4.98047">
        <ele>282</ele>
        <time>2016-09-14T09:27:48Z</time>
      </trkpt>
      <trkpt lat="46.02878" lon="4.98054">
        <ele>282</ele>
        <time>2016-09-14T09:27:49Z</time>
      </trkpt>
      <trkpt lat="46.02875" lon="4.98061">
        <ele>282</ele>
        <time>2016-09-14T09:27:50Z</time>
      </trkpt>
      <trkpt lat="46.02873" lon="4.98067">
        <ele>282</ele>
        <time>2016-09-14T09:27:51Z</time>
      </trkpt>
      <trkpt lat="46.02871" lon="4.98074">
        <ele>282</ele>
        <time>2016-09-14T09:27:52Z</time>
      </trkpt>
      <trkpt lat="46.02868" lon="4.9808">
        <ele>282</ele>
        <time>2016-09-14T09:27:53Z</time>
      </trkpt>
      <trkpt lat="46.02866" lon="4.98086">
        <ele>282</ele>
        <time>2016-09-14T09:27:54Z</time>
      </trkpt>
      <trkpt lat="46.02863" lon="4.98093">
        <ele>282</ele>
        <time>2016-09-14T09:27:55Z</time>
      </trkpt>
      <trkpt lat="46.0286" lon="4.981">
        <ele>282</ele>
        <time>2016-09-14T09:27:56Z</time>
      </trkpt>
      <trkpt lat="46.02857" lon="4.98107">
        <ele>282</ele>
        <time>2016-09-14T09:27:57Z</time>
      </trkpt>
      <trkpt lat="46.02854" lon="4.98116">
        <ele>282</ele>
        <time>2016-09-14T09:27:58Z</time>
      </trkpt>
      <trkpt lat="46.02852" lon="4.98125">
        <ele>282</ele>
        <time>2016-09-14T09:27:59Z</time>
      </trkpt>
      <trkpt lat="46.0285" lon="4.98133">
        <ele>282</ele>
        <time>2016-09-14T09:28:00Z</time>
      </trkpt>
      <trkpt lat="46.02847" lon="4.98141">
        <ele>282</ele>
        <time>2016-09-14T09:28:01Z</time>
      </trkpt>
      <trkpt lat="46.02845" lon="4.98149">
        <ele>283</ele>
        <time>2016-09-14T09:28:02Z</time>
      </trkpt>
      <trkpt lat="46.02842" lon="4.98157">
        <ele>283</ele>
        <time>2016-09-14T09:28:03Z</time>
      </trkpt>
      <trkpt lat="46.0284" lon="4.98166">
        <ele>283</ele>
        <time>2016-09-14T09:28:04Z</time>
      </trkpt>
      <trkpt lat="46.02838" lon="4.98173">
        <ele>283</ele>
        <time>2016-09-14T09:28:05Z</time>
      </trkpt>
      <trkpt lat="46.02835" lon="4.9818">
        <ele>283</ele>
        <time>2016-09-14T09:28:06Z</time>
      </trkpt>
      <trkpt lat="46.02833" lon="4.98187">
        <ele>284</ele>
        <time>2016-09-14T09:28:07Z</time>
      </trkpt>
      <trkpt lat="46.0283" lon="4.98194">
        <ele>284</ele>
        <time>2016-09-14T09:28:08Z</time>
      </trkpt>
      <trkpt lat="46.02827" lon="4.982">
        <ele>284</ele>
        <time>2016-09-14T09:28:09Z</time>
      </trkpt>
      <trkpt lat="46.02825" lon="4.98207">
        <ele>284</ele>
        <time>2016-09-14T09:28:10Z</time>
      </trkpt>
      <trkpt lat="46.02822" lon="4.98214">
        <ele>284</ele>
        <time>2016-09-14T09:28:11Z</time>
      </trkpt>
      <trkpt lat="46.02819" lon="4.98221">
        <ele>284</ele>
        <time>2016-09-14T09:28:12Z</time>
      </trkpt>
      <trkpt lat="46.02816" lon="4.98228">
        <ele>284</ele>
        <time>2016-09-14T09:28:13Z</time>
      </trkpt>
      <trkpt lat="46.02814" lon="4.98235">
        <ele>284</ele>
        <time>2016-09-14T09:28:14Z</time>
      </trkpt>
      <trkpt lat="46.02811" lon="4.98243">
        <ele>284</ele>
        <time>2016-09-14T09:28:15Z</time>
      </trkpt>
      <trkpt lat="46.02808" lon="4.9825">
        <ele>284</ele>
        <time>2016-09-14T09:28:16Z</time>
      </trkpt>
      <trkpt lat="46.02805" lon="4.98257">
        <ele>284</ele>
        <time>2016-09-14T09:28:17Z</time>
      </trkpt>
      <trkpt lat="46.02803" lon="4.98265">
        <ele>284</ele>
        <time>2016-09-14T09:28:18Z</time>
      </trkpt>
      <trkpt lat="46.028" lon="4.98272">
        <ele>284</ele>
        <time>2016-09-14T09:28:19Z</time>
      </trkpt>
      <trkpt lat="46.02798" lon="4.98279">
        <ele>284</ele>
        <time>2016-09-14T09:28:20Z</time>
      </trkpt>
      <trkpt lat="46.02795" lon="4.98286">
        <ele>284</ele>
        <time>2016-09-14T09:28:21Z</time>
      </trkpt>
      <trkpt lat="46.02792" lon="4.98293">
        <ele>284</ele>
        <time>2016-09-14T09:28:22Z</time>
      </trkpt>
      <trkpt lat="46.0279" lon="4.983">
        <ele>284</ele>
        <time>2016-09-14T09:28:23Z</time>
      </trkpt>
      <trkpt lat="46.02787" lon="4.98308">
        <ele>284</ele>
        <time>2016-09-14T09:28:24Z</time>
      </trkpt>
      <trkpt lat="46.02784" lon="4.98315">
        <ele>284</ele>
        <time>2016-09-14T09:28:25Z</time>
      </trkpt>
      <trkpt lat="46.02782" lon="4.98322">
        <ele>284</ele>
        <time>2016-09-14T09:28:26Z</time>
      </trkpt>
      <trkpt lat="46.0278" lon="4.98329">
        <ele>284</ele>
        <time>2016-09-14T09:28:27Z</time>
      </trkpt>
      <trkpt lat="46.02777" lon="4.98335">
        <ele>284</ele>
        <time>2016-09-14T09:28:28Z</time>
      </trkpt>
      <trkpt lat="46.02774" lon="4.98341">
        <ele>284</ele>
        <time>2016-09-14T09:28:29Z</time>
      </trkpt>
      <trkpt lat="46.02771" lon="4.98348">
        <ele>284</ele>
        <time>2016-09-14T09:28:30Z</time>
      </trkpt>
      <trkpt lat="46.02769" lon="4.98353">
        <ele>284</ele>
        <time>2016-09-14T09:28:31Z</time>
      </trkpt>
      <trkpt lat="46.02766" lon="4.98359">
        <ele>284</ele>
        <time>2016-09-14T09:28:32Z</time>
      </trkpt>
      <trkpt lat="46.02763" lon="4.98366">
        <ele>284</ele>
        <time>2016-09-14T09:28:33Z</time>
      </trkpt>
      <trkpt lat="46.0276" lon="4.98372">
        <ele>284</ele>
        <time>2016-09-14T09:28:34Z</time>
      </trkpt>
      <trkpt lat="46.02757" lon="4.98379">
        <ele>284</ele>
        <time>2016-09-14T09:28:35Z</time>
      </trkpt>
      <trkpt lat="46.02755" lon="4.98386">
        <ele>284</ele>
        <time>2016-09-14T09:28:36Z</time>
      </trkpt>
      <trkpt lat="46.02752" lon="4.98393">
        <ele>283</ele>
        <time>2016-09-14T09:28:37Z</time>
      </trkpt>
      <trkpt lat="46.02749" lon="4.984">
        <ele>283</ele>
        <time>2016-09-14T09:28:38Z</time>
      </trkpt>
      <trkpt lat="46.02746" lon="4.98408">
        <ele>283</ele>
        <time>2016-09-14T09:28:39Z</time>
      </trkpt>
      <trkpt lat="46.02743" lon="4.98416">
        <ele>283</ele>
        <time>2016-09-14T09:28:40Z</time>
      </trkpt>
      <trkpt lat="46.0274" lon="4.98424">
        <ele>283</ele>
        <time>2016-09-14T09:28:41Z</time>
      </trkpt>
      <trkpt lat="46.02737" lon="4.98432">
        <ele>283</ele>
        <time>2016-09-14T09:28:42Z</time>
      </trkpt>
      <trkpt lat="46.02735" lon="4.9844">
        <ele>283</ele>
        <time>2016-09-14T09:28:43Z</time>
      </trkpt>
      <trkpt lat="46.02733" lon="4.98448">
        <ele>283</ele>
        <time>2016-09-14T09:28:44Z</time>
      </trkpt>
      <trkpt lat="46.0273" lon="4.98455">
        <ele>283</ele>
        <time>2016-09-14T09:28:45Z</time>
      </trkpt>
      <trkpt lat="46.02728" lon="4.98462">
        <ele>284</ele>
        <time>2016-09-14T09:28:46Z</time>
      </trkpt>
      <trkpt lat="46.02725" lon="4.98469">
        <ele>284</ele>
        <time>2016-09-14T09:28:47Z</time>
      </trkpt>
      <trkpt lat="46.02723" lon="4.98475">
        <ele>284</ele>
        <time>2016-09-14T09:28:48Z</time>
      </trkpt>
      <trkpt lat="46.0272" lon="4.98482">
        <ele>284</ele>
        <time>2016-09-14T09:28:49Z</time>
      </trkpt>
      <trkpt lat="46.02718" lon="4.98488">
        <ele>284</ele>
        <time>2016-09-14T09:28:50Z</time>
      </trkpt>
      <trkpt lat="46.02715" lon="4.98495">
        <ele>284</ele>
        <time>2016-09-14T09:28:51Z</time>
      </trkpt>
      <trkpt lat="46.02712" lon="4.98502">
        <ele>284</ele>
        <time>2016-09-14T09:28:52Z</time>
      </trkpt>
      <trkpt lat="46.0271" lon="4.98509">
        <ele>284</ele>
        <time>2016-09-14T09:28:53Z</time>
      </trkpt>
      <trkpt lat="46.02708" lon="4.98517">
        <ele>284</ele>
        <time>2016-09-14T09:28:54Z</time>
      </trkpt>
      <trkpt lat="46.02706" lon="4.98524">
        <ele>284</ele>
        <time>2016-09-14T09:28:55Z</time>
      </trkpt>
      <trkpt lat="46.02703" lon="4.98531">
        <ele>284</ele>
        <time>2016-09-14T09:28:56Z</time>
      </trkpt>
      <trkpt lat="46.02701" lon="4.98537">
        <ele>285</ele>
        <time>2016-09-14T09:28:57Z</time>
      </trkpt>
      <trkpt lat="46.02699" lon="4.98544">
        <ele>285</ele>
        <time>2016-09-14T09:28:58Z</time>
      </trkpt>
      <trkpt lat="46.02696" lon="4.98551">
        <ele>285</ele>
        <time>2016-09-14T09:28:59Z</time>
      </trkpt>
      <trkpt lat="46.02694" lon="4.98559">
        <ele>285</ele>
        <time>2016-09-14T09:29:00Z</time>
      </trkpt>
      <trkpt lat="46.0269" lon="4.98566">
        <ele>285</ele>
        <time>2016-09-14T09:29:01Z</time>
      </trkpt>
      <trkpt lat="46.02688" lon="4.98573">
        <ele>285</ele>
        <time>2016-09-14T09:29:02Z</time>
      </trkpt>
      <trkpt lat="46.02686" lon="4.9858">
        <ele>285</ele>
        <time>2016-09-14T09:29:03Z</time>
      </trkpt>
      <trkpt lat="46.02682" lon="4.98587">
        <ele>285</ele>
        <time>2016-09-14T09:29:04Z</time>
      </trkpt>
      <trkpt lat="46.02679" lon="4.98594">
        <ele>285</ele>
        <time>2016-09-14T09:29:05Z</time>
      </trkpt>
      <trkpt lat="46.02676" lon="4.986">
        <ele>285</ele>
        <time>2016-09-14T09:29:06Z</time>
      </trkpt>
      <trkpt lat="46.02673" lon="4.98607">
        <ele>285</ele>
        <time>2016-09-14T09:29:07Z</time>
      </trkpt>
      <trkpt lat="46.0267" lon="4.98615">
        <ele>285</ele>
        <time>2016-09-14T09:29:08Z</time>
      </trkpt>
      <trkpt lat="46.02667" lon="4.98622">
        <ele>285</ele>
        <time>2016-09-14T09:29:09Z</time>
      </trkpt>
      <trkpt lat="46.02664" lon="4.9863">
        <ele>284</ele>
        <time>2016-09-14T09:29:10Z</time>
      </trkpt>
      <trkpt lat="46.02661" lon="4.98638">
        <ele>284</ele>
        <time>2016-09-14T09:29:11Z</time>
      </trkpt>
      <trkpt lat="46.02658" lon="4.98646">
        <ele>284</ele>
        <time>2016-09-14T09:29:12Z</time>
      </trkpt>
      <trkpt lat="46.02656" lon="4.98653">
        <ele>284</ele>
        <time>2016-09-14T09:29:13Z</time>
      </trkpt>
      <trkpt lat="46.02653" lon="4.98662">
        <ele>284</ele>
        <time>2016-09-14T09:29:14Z</time>
      </trkpt>
      <trkpt lat="46.0265" lon="4.98671">
        <ele>283</ele>
        <time>2016-09-14T09:29:15Z</time>
      </trkpt>
      <trkpt lat="46.02647" lon="4.9868">
        <ele>282</ele>
        <time>2016-09-14T09:29:16Z</time>
      </trkpt>
      <trkpt lat="46.02644" lon="4.98689">
        <ele>282</ele>
        <time>2016-09-14T09:29:17Z</time>
      </trkpt>
      <trkpt lat="46.0264" lon="4.98697">
        <ele>282</ele>
        <time>2016-09-14T09:29:18Z</time>
      </trkpt>
      <trkpt lat="46.02637" lon="4.98706">
        <ele>282</ele>
        <time>2016-09-14T09:29:19Z</time>
      </trkpt>
      <trkpt lat="46.02634" lon="4.98714">
        <ele>282</ele>
        <time>2016-09-14T09:29:20Z</time>
      </trkpt>
      <trkpt lat="46.02631" lon="4.98722">
        <ele>281</ele>
        <time>2016-09-14T09:29:21Z</time>
      </trkpt>
      <trkpt lat="46.02628" lon="4.98731">
        <ele>281</ele>
        <time>2016-09-14T09:29:22Z</time>
      </trkpt>
      <trkpt lat="46.02625" lon="4.98739">
        <ele>281</ele>
        <time>2016-09-14T09:29:23Z</time>
      </trkpt>
      <trkpt lat="46.02622" lon="4.98748">
        <ele>281</ele>
        <time>2016-09-14T09:29:24Z</time>
      </trkpt>
      <trkpt lat="46.02619" lon="4.98757">
        <ele>281</ele>
        <time>2016-09-14T09:29:25Z</time>
      </trkpt>
      <trkpt lat="46.02616" lon="4.98766">
        <ele>281</ele>
        <time>2016-09-14T09:29:26Z</time>
      </trkpt>
      <trkpt lat="46.02613" lon="4.98775">
        <ele>281</ele>
        <time>2016-09-14T09:29:27Z</time>
      </trkpt>
      <trkpt lat="46.0261" lon="4.98784">
        <ele>281</ele>
        <time>2016-09-14T09:29:28Z</time>
      </trkpt>
      <trkpt lat="46.02607" lon="4.98793">
        <ele>281</ele>
        <time>2016-09-14T09:29:29Z</time>
      </trkpt>
      <trkpt lat="46.02604" lon="4.98801">
        <ele>281</ele>
        <time>2016-09-14T09:29:30Z</time>
      </trkpt>
      <trkpt lat="46.026" lon="4.98809">
        <ele>281</ele>
        <time>2016-09-14T09:29:31Z</time>
      </trkpt>
      <trkpt lat="46.02598" lon="4.98819">
        <ele>281</ele>
        <time>2016-09-14T09:29:32Z</time>
      </trkpt>
      <trkpt lat="46.02595" lon="4.98828">
        <ele>281</ele>
        <time>2016-09-14T09:29:33Z</time>
      </trkpt>
      <trkpt lat="46.02592" lon="4.98837">
        <ele>281</ele>
        <time>2016-09-14T09:29:34Z</time>
      </trkpt>
      <trkpt lat="46.02589" lon="4.98845">
        <ele>281</ele>
        <time>2016-09-14T09:29:35Z</time>
      </trkpt>
      <trkpt lat="46.02587" lon="4.98854">
        <ele>281</ele>
        <time>2016-09-14T09:29:36Z</time>
      </trkpt>
      <trkpt lat="46.02585" lon="4.98862">
        <ele>281</ele>
        <time>2016-09-14T09:29:37Z</time>
      </trkpt>
      <trkpt lat="46.02582" lon="4.9887">
        <ele>279</ele>
        <time>2016-09-14T09:29:38Z</time>
      </trkpt>
      <trkpt lat="46.0258" lon="4.98878">
        <ele>279</ele>
        <time>2016-09-14T09:29:39Z</time>
      </trkpt>
      <trkpt lat="46.02577" lon="4.98886">
        <ele>279</ele>
        <time>2016-09-14T09:29:40Z</time>
      </trkpt>
      <trkpt lat="46.02575" lon="4.98893">
        <ele>279</ele>
        <time>2016-09-14T09:29:41Z</time>
      </trkpt>
      <trkpt lat="46.02573" lon="4.989">
        <ele>279</ele>
        <time>2016-09-14T09:29:42Z</time>
      </trkpt>
      <trkpt lat="46.0257" lon="4.98906">
        <ele>279</ele>
        <time>2016-09-14T09:29:43Z</time>
      </trkpt>
      <trkpt lat="46.02568" lon="4.98913">
        <ele>279</ele>
        <time>2016-09-14T09:29:44Z</time>
      </trkpt>
      <trkpt lat="46.02565" lon="4.9892">
        <ele>279</ele>
        <time>2016-09-14T09:29:45Z</time>
      </trkpt>
      <trkpt lat="46.02562" lon="4.98926">
        <ele>279</ele>
        <time>2016-09-14T09:29:46Z</time>
      </trkpt>
      <trkpt lat="46.0256" lon="4.98934">
        <ele>279</ele>
        <time>2016-09-14T09:29:47Z</time>
      </trkpt>
      <trkpt lat="46.02557" lon="4.98942">
        <ele>279</ele>
        <time>2016-09-14T09:29:48Z</time>
      </trkpt>
      <trkpt lat="46.02555" lon="4.98949">
        <ele>279</ele>
        <time>2016-09-14T09:29:49Z</time>
      </trkpt>
      <trkpt lat="46.02551" lon="4.98957">
        <ele>279</ele>
        <time>2016-09-14T09:29:50Z</time>
      </trkpt>
      <trkpt lat="46.02549" lon="4.98966">
        <ele>279</ele>
        <time>2016-09-14T09:29:51Z</time>
      </trkpt>
      <trkpt lat="46.02546" lon="4.98974">
        <ele>279</ele>
        <time>2016-09-14T09:29:52Z</time>
      </trkpt>
      <trkpt lat="46.02544" lon="4.98981">
        <ele>279</ele>
        <time>2016-09-14T09:29:53Z</time>
      </trkpt>
      <trkpt lat="46.02541" lon="4.98989">
        <ele>279</ele>
        <time>2016-09-14T09:29:54Z</time>
      </trkpt>
      <trkpt lat="46.02539" lon="4.98996">
        <ele>279</ele>
        <time>2016-09-14T09:29:55Z</time>
      </trkpt>
      <trkpt lat="46.02537" lon="4.99003">
        <ele>278</ele>
        <time>2016-09-14T09:29:56Z</time>
      </trkpt>
      <trkpt lat="46.02534" lon="4.9901">
        <ele>278</ele>
        <time>2016-09-14T09:29:57Z</time>
      </trkpt>
      <trkpt lat="46.02531" lon="4.99017">
        <ele>278</ele>
        <time>2016-09-14T09:29:58Z</time>
      </trkpt>
      <trkpt lat="46.02528" lon="4.99023">
        <ele>278</ele>
        <time>2016-09-14T09:29:59Z</time>
      </trkpt>
      <trkpt lat="46.02524" lon="4.99029">
        <ele>278</ele>
        <time>2016-09-14T09:30:00Z</time>
      </trkpt>
      <trkpt lat="46.02519" lon="4.99034">
        <ele>278</ele>
        <time>2016-09-14T09:30:01Z</time>
      </trkpt>
      <trkpt lat="46.02513" lon="4.99039">
        <ele>278</ele>
        <time>2016-09-14T09:30:02Z</time>
      </trkpt>
      <trkpt lat="46.02509" lon="4.99043">
        <ele>278</ele>
        <time>2016-09-14T09:30:03Z</time>
      </trkpt>
      <trkpt lat="46.02504" lon="4.99043">
        <ele>278</ele>
        <time>2016-09-14T09:30:04Z</time>
      </trkpt>
      <trkpt lat="46.02498" lon="4.99043">
        <ele>278</ele>
        <time>2016-09-14T09:30:05Z</time>
      </trkpt>
      <trkpt lat="46.02491" lon="4.99042">
        <ele>278</ele>
        <time>2016-09-14T09:30:06Z</time>
      </trkpt>
      <trkpt lat="46.02485" lon="4.99041">
        <ele>278</ele>
        <time>2016-09-14T09:30:07Z</time>
      </trkpt>
      <trkpt lat="46.02479" lon="4.9904">
        <ele>278</ele>
        <time>2016-09-14T09:30:08Z</time>
      </trkpt>
      <trkpt lat="46.02474" lon="4.99039">
        <ele>278</ele>
        <time>2016-09-14T09:30:09Z</time>
      </trkpt>
      <trkpt lat="46.02468" lon="4.99038">
        <ele>278</ele>
        <time>2016-09-14T09:30:10Z</time>
      </trkpt>
      <trkpt lat="46.02462" lon="4.99038">
        <ele>278</ele>
        <time>2016-09-14T09:30:11Z</time>
      </trkpt>
      <trkpt lat="46.02457" lon="4.99037">
        <ele>278</ele>
        <time>2016-09-14T09:30:12Z</time>
      </trkpt>
      <trkpt lat="46.02451" lon="4.99036">
        <ele>278</ele>
        <time>2016-09-14T09:30:13Z</time>
      </trkpt>
      <trkpt lat="46.02446" lon="4.99036">
        <ele>278</ele>
        <time>2016-09-14T09:30:14Z</time>
      </trkpt>
      <trkpt lat="46.02441" lon="4.99036">
        <ele>278</ele>
        <time>2016-09-14T09:30:15Z</time>
      </trkpt>
      <trkpt lat="46.02435" lon="4.99035">
        <ele>278</ele>
        <time>2016-09-14T09:30:16Z</time>
      </trkpt>
      <trkpt lat="46.02429" lon="4.99034">
        <ele>279</ele>
        <time>2016-09-14T09:30:17Z</time>
      </trkpt>
      <trkpt lat="46.02424" lon="4.99033">
        <ele>279</ele>
        <time>2016-09-14T09:30:18Z</time>
      </trkpt>
      <trkpt lat="46.02419" lon="4.99032">
        <ele>279</ele>
        <time>2016-09-14T09:30:19Z</time>
      </trkpt>
      <trkpt lat="46.02414" lon="4.99031">
        <ele>280</ele>
        <time>2016-09-14T09:30:20Z</time>
      </trkpt>
      <trkpt lat="46.02409" lon="4.99031">
        <ele>280</ele>
        <time>2016-09-14T09:30:21Z</time>
      </trkpt>
      <trkpt lat="46.02404" lon="4.99032">
        <ele>280</ele>
        <time>2016-09-14T09:30:22Z</time>
      </trkpt>
      <trkpt lat="46.02398" lon="4.99033">
        <ele>280</ele>
        <time>2016-09-14T09:30:23Z</time>
      </trkpt>
      <trkpt lat="46.02393" lon="4.99035">
        <ele>280</ele>
        <time>2016-09-14T09:30:24Z</time>
      </trkpt>
      <trkpt lat="46.02388" lon="4.99038">
        <ele>280</ele>
        <time>2016-09-14T09:30:25Z</time>
      </trkpt>
      <trkpt lat="46.02383" lon="4.99042">
        <ele>280</ele>
        <time>2016-09-14T09:30:26Z</time>
      </trkpt>
      <trkpt lat="46.02378" lon="4.99047">
        <ele>280</ele>
        <time>2016-09-14T09:30:27Z</time>
      </trkpt>
      <trkpt lat="46.02374" lon="4.99052">
        <ele>281</ele>
        <time>2016-09-14T09:30:28Z</time>
      </trkpt>
      <trkpt lat="46.0237" lon="4.99058">
        <ele>281</ele>
        <time>2016-09-14T09:30:29Z</time>
      </trkpt>
      <trkpt lat="46.02366" lon="4.99065">
        <ele>281</ele>
        <time>2016-09-14T09:30:30Z</time>
      </trkpt>
      <trkpt lat="46.02362" lon="4.99071">
        <ele>281</ele>
        <time>2016-09-14T09:30:31Z</time>
      </trkpt>
      <trkpt lat="46.02359" lon="4.99078">
        <ele>281</ele>
        <time>2016-09-14T09:30:32Z</time>
      </trkpt>
      <trkpt lat="46.02354" lon="4.99085">
        <ele>282</ele>
        <time>2016-09-14T09:30:33Z</time>
      </trkpt>
      <trkpt lat="46.02351" lon="4.99092">
        <ele>282</ele>
        <time>2016-09-14T09:30:34Z</time>
      </trkpt>
      <trkpt lat="46.02347" lon="4.99098">
        <ele>282</ele>
        <time>2016-09-14T09:30:35Z</time>
      </trkpt>
      <trkpt lat="46.02344" lon="4.99104">
        <ele>282</ele>
        <time>2016-09-14T09:30:36Z</time>
      </trkpt>
      <trkpt lat="46.0234" lon="4.9911">
        <ele>282</ele>
        <time>2016-09-14T09:30:37Z</time>
      </trkpt>
      <trkpt lat="46.02337" lon="4.99114">
        <ele>282</ele>
        <time>2016-09-14T09:30:38Z</time>
      </trkpt>
      <trkpt lat="46.02333" lon="4.99119">
        <ele>283</ele>
        <time>2016-09-14T09:30:39Z</time>
      </trkpt>
      <trkpt lat="46.02328" lon="4.99122">
        <ele>283</ele>
        <time>2016-09-14T09:30:40Z</time>
      </trkpt>
      <trkpt lat="46.02323" lon="4.99125">
        <ele>283</ele>
        <time>2016-09-14T09:30:41Z</time>
      </trkpt>
      <trkpt lat="46.02319" lon="4.99127">
        <ele>283</ele>
        <time>2016-09-14T09:30:42Z</time>
      </trkpt>
      <trkpt lat="46.02314" lon="4.99129">
        <ele>283</ele>
        <time>2016-09-14T09:30:43Z</time>
      </trkpt>
      <trkpt lat="46.02309" lon="4.9913">
        <ele>283</ele>
        <time>2016-09-14T09:30:44Z</time>
      </trkpt>
      <trkpt lat="46.02304" lon="4.99131">
        <ele>283</ele>
        <time>2016-09-14T09:30:45Z</time>
      </trkpt>
      <trkpt lat="46.023" lon="4.99132">
        <ele>283</ele>
        <time>2016-09-14T09:30:46Z</time>
      </trkpt>
      <trkpt lat="46.02295" lon="4.99132">
        <ele>283</ele>
        <time>2016-09-14T09:30:47Z</time>
      </trkpt>
      <trkpt lat="46.0229" lon="4.99132">
        <ele>282</ele>
        <time>2016-09-14T09:30:48Z</time>
      </trkpt>
      <trkpt lat="46.02285" lon="4.9913">
        <ele>282</ele>
        <time>2016-09-14T09:30:49Z</time>
      </trkpt>
      <trkpt lat="46.0228" lon="4.99129">
        <ele>282</ele>
        <time>2016-09-14T09:30:50Z</time>
      </trkpt>
      <trkpt lat="46.02272" lon="4.99124">
        <ele>282</ele>
        <time>2016-09-14T09:30:52Z</time>
      </trkpt>
      <trkpt lat="46.02268" lon="4.99122">
        <ele>282</ele>
        <time>2016-09-14T09:30:53Z</time>
      </trkpt>
      <trkpt lat="46.02263" lon="4.99119">
        <ele>282</ele>
        <time>2016-09-14T09:30:54Z</time>
      </trkpt>
      <trkpt lat="46.02259" lon="4.99116">
        <ele>282</ele>
        <time>2016-09-14T09:30:55Z</time>
      </trkpt>
      <trkpt lat="46.02255" lon="4.99114">
        <ele>282</ele>
        <time>2016-09-14T09:30:56Z</time>
      </trkpt>
      <trkpt lat="46.0225" lon="4.99113">
        <ele>282</ele>
        <time>2016-09-14T09:30:57Z</time>
      </trkpt>
      <trkpt lat="46.02244" lon="4.99111">
        <ele>282</ele>
        <time>2016-09-14T09:30:58Z</time>
      </trkpt>
      <trkpt lat="46.02239" lon="4.9911">
        <ele>282</ele>
        <time>2016-09-14T09:30:59Z</time>
      </trkpt>
      <trkpt lat="46.02235" lon="4.99114">
        <ele>282</ele>
        <time>2016-09-14T09:31:00Z</time>
      </trkpt>
      <trkpt lat="46.02231" lon="4.99116">
        <ele>282</ele>
        <time>2016-09-14T09:31:01Z</time>
      </trkpt>
      <trkpt lat="46.02224" lon="4.99124">
        <ele>282</ele>
        <time>2016-09-14T09:31:03Z</time>
      </trkpt>
      <trkpt lat="46.02219" lon="4.99127">
        <ele>282</ele>
        <time>2016-09-14T09:31:04Z</time>
      </trkpt>
      <trkpt lat="46.02215" lon="4.9913">
        <ele>282</ele>
        <time>2016-09-14T09:31:05Z</time>
      </trkpt>
      <trkpt lat="46.0221" lon="4.99134">
        <ele>282</ele>
        <time>2016-09-14T09:31:06Z</time>
      </trkpt>
      <trkpt lat="46.02203" lon="4.99142">
        <ele>282</ele>
        <time>2016-09-14T09:31:08Z</time>
      </trkpt>
      <trkpt lat="46.022" lon="4.99145">
        <ele>282</ele>
        <time>2016-09-14T09:31:09Z</time>
      </trkpt>
      <trkpt lat="46.02196" lon="4.9915">
        <ele>282</ele>
        <time>2016-09-14T09:31:10Z</time>
      </trkpt>
      <trkpt lat="46.02188" lon="4.99153">
        <ele>282</ele>
        <time>2016-09-14T09:31:11Z</time>
      </trkpt>
      <trkpt lat="46.02183" lon="4.99158">
        <ele>282</ele>
        <time>2016-09-14T09:31:12Z</time>
      </trkpt>
      <trkpt lat="46.02178" lon="4.99164">
        <ele>282</ele>
        <time>2016-09-14T09:31:13Z</time>
      </trkpt>
      <trkpt lat="46.02174" lon="4.9917">
        <ele>282</ele>
        <time>2016-09-14T09:31:14Z</time>
      </trkpt>
      <trkpt lat="46.02171" lon="4.99176">
        <ele>282</ele>
        <time>2016-09-14T09:31:15Z</time>
      </trkpt>
      <trkpt lat="46.02167" lon="4.99183">
        <ele>281</ele>
        <time>2016-09-14T09:31:16Z</time>
      </trkpt>
      <trkpt lat="46.02164" lon="4.99188">
        <ele>281</ele>
        <time>2016-09-14T09:31:17Z</time>
      </trkpt>
      <trkpt lat="46.02161" lon="4.99194">
        <ele>281</ele>
        <time>2016-09-14T09:31:18Z</time>
      </trkpt>
      <trkpt lat="46.02158" lon="4.99199">
        <ele>281</ele>
        <time>2016-09-14T09:31:19Z</time>
      </trkpt>
      <trkpt lat="46.02155" lon="4.99205">
        <ele>281</ele>
        <time>2016-09-14T09:31:20Z</time>
      </trkpt>
      <trkpt lat="46.02153" lon="4.99212">
        <ele>281</ele>
        <time>2016-09-14T09:31:21Z</time>
      </trkpt>
      <trkpt lat="46.02151" lon="4.99219">
        <ele>281</ele>
        <time>2016-09-14T09:31:22Z</time>
      </trkpt>
      <trkpt lat="46.02148" lon="4.99225">
        <ele>281</ele>
        <time>2016-09-14T09:31:23Z</time>
      </trkpt>
      <trkpt lat="46.02146" lon="4.99232">
        <ele>281</ele>
        <time>2016-09-14T09:31:24Z</time>
      </trkpt>
      <trkpt lat="46.02144" lon="4.99239">
        <ele>281</ele>
        <time>2016-09-14T09:31:25Z</time>
      </trkpt>
      <trkpt lat="46.02141" lon="4.99246">
        <ele>281</ele>
        <time>2016-09-14T09:31:26Z</time>
      </trkpt>
      <trkpt lat="46.02139" lon="4.99252">
        <ele>280</ele>
        <time>2016-09-14T09:31:27Z</time>
      </trkpt>
      <trkpt lat="46.02136" lon="4.9926">
        <ele>280</ele>
        <time>2016-09-14T09:31:28Z</time>
      </trkpt>
      <trkpt lat="46.02134" lon="4.99267">
        <ele>280</ele>
        <time>2016-09-14T09:31:29Z</time>
      </trkpt>
      <trkpt lat="46.02131" lon="4.99274">
        <ele>280</ele>
        <time>2016-09-14T09:31:30Z</time>
      </trkpt>
      <trkpt lat="46.02128" lon="4.99281">
        <ele>280</ele>
        <time>2016-09-14T09:31:31Z</time>
      </trkpt>
      <trkpt lat="46.02126" lon="4.99288">
        <ele>280</ele>
        <time>2016-09-14T09:31:32Z</time>
      </trkpt>
      <trkpt lat="46.02124" lon="4.99294">
        <ele>280</ele>
        <time>2016-09-14T09:31:33Z</time>
      </trkpt>
      <trkpt lat="46.02121" lon="4.993">
        <ele>280</ele>
        <time>2016-09-14T09:31:34Z</time>
      </trkpt>
      <trkpt lat="46.02119" lon="4.99306">
        <ele>280</ele>
        <time>2016-09-14T09:31:35Z</time>
      </trkpt>
      <trkpt lat="46.02116" lon="4.99313">
        <ele>280</ele>
        <time>2016-09-14T09:31:36Z</time>
      </trkpt>
      <trkpt lat="46.02114" lon="4.9932">
        <ele>280</ele>
        <time>2016-09-14T09:31:37Z</time>
      </trkpt>
      <trkpt lat="46.02111" lon="4.99327">
        <ele>280</ele>
        <time>2016-09-14T09:31:38Z</time>
      </trkpt>
      <trkpt lat="46.02108" lon="4.99335">
        <ele>280</ele>
        <time>2016-09-14T09:31:39Z</time>
      </trkpt>
      <trkpt lat="46.02106" lon="4.99342">
        <ele>280</ele>
        <time>2016-09-14T09:31:40Z</time>
      </trkpt>
      <trkpt lat="46.02103" lon="4.9935">
        <ele>280</ele>
        <time>2016-09-14T09:31:41Z</time>
      </trkpt>
      <trkpt lat="46.021" lon="4.99358">
        <ele>280</ele>
        <time>2016-09-14T09:31:42Z</time>
      </trkpt>
      <trkpt lat="46.02097" lon="4.99366">
        <ele>279</ele>
        <time>2016-09-14T09:31:43Z</time>
      </trkpt>
      <trkpt lat="46.02094" lon="4.99374">
        <ele>279</ele>
        <time>2016-09-14T09:31:44Z</time>
      </trkpt>
      <trkpt lat="46.02092" lon="4.99382">
        <ele>280</ele>
        <time>2016-09-14T09:31:45Z</time>
      </trkpt>
      <trkpt lat="46.02089" lon="4.99389">
        <ele>280</ele>
        <time>2016-09-14T09:31:46Z</time>
      </trkpt>
      <trkpt lat="46.02086" lon="4.99397">
        <ele>280</ele>
        <time>2016-09-14T09:31:47Z</time>
      </trkpt>
      <trkpt lat="46.02084" lon="4.99405">
        <ele>280</ele>
        <time>2016-09-14T09:31:48Z</time>
      </trkpt>
      <trkpt lat="46.02081" lon="4.99412">
        <ele>280</ele>
        <time>2016-09-14T09:31:49Z</time>
      </trkpt>
      <trkpt lat="46.02079" lon="4.99419">
        <ele>280</ele>
        <time>2016-09-14T09:31:50Z</time>
      </trkpt>
      <trkpt lat="46.02076" lon="4.99426">
        <ele>280</ele>
        <time>2016-09-14T09:31:51Z</time>
      </trkpt>
      <trkpt lat="46.02074" lon="4.99433">
        <ele>280</ele>
        <time>2016-09-14T09:31:52Z</time>
      </trkpt>
      <trkpt lat="46.02071" lon="4.99439">
        <ele>280</ele>
        <time>2016-09-14T09:31:53Z</time>
      </trkpt>
      <trkpt lat="46.02069" lon="4.99445">
        <ele>280</ele>
        <time>2016-09-14T09:31:54Z</time>
      </trkpt>
      <trkpt lat="46.02066" lon="4.99451">
        <ele>280</ele>
        <time>2016-09-14T09:31:55Z</time>
      </trkpt>
      <trkpt lat="46.02063" lon="4.99458">
        <ele>280</ele>
        <time>2016-09-14T09:31:56Z</time>
      </trkpt>
      <trkpt lat="46.0206" lon="4.99464">
        <ele>281</ele>
        <time>2016-09-14T09:31:57Z</time>
      </trkpt>
      <trkpt lat="46.02058" lon="4.9947">
        <ele>281</ele>
        <time>2016-09-14T09:31:58Z</time>
      </trkpt>
      <trkpt lat="46.02055" lon="4.99477">
        <ele>281</ele>
        <time>2016-09-14T09:31:59Z</time>
      </trkpt>
      <trkpt lat="46.02053" lon="4.99483">
        <ele>281</ele>
        <time>2016-09-14T09:32:00Z</time>
      </trkpt>
      <trkpt lat="46.0205" lon="4.9949">
        <ele>281</ele>
        <time>2016-09-14T09:32:01Z</time>
      </trkpt>
      <trkpt lat="46.02048" lon="4.99497">
        <ele>281</ele>
        <time>2016-09-14T09:32:02Z</time>
      </trkpt>
      <trkpt lat="46.02045" lon="4.99503">
        <ele>281</ele>
        <time>2016-09-14T09:32:03Z</time>
      </trkpt>
      <trkpt lat="46.02042" lon="4.9951">
        <ele>281</ele>
        <time>2016-09-14T09:32:04Z</time>
      </trkpt>
      <trkpt lat="46.02039" lon="4.99517">
        <ele>281</ele>
        <time>2016-09-14T09:32:05Z</time>
      </trkpt>
      <trkpt lat="46.02036" lon="4.99523">
        <ele>281</ele>
        <time>2016-09-14T09:32:06Z</time>
      </trkpt>
      <trkpt lat="46.02033" lon="4.9953">
        <ele>281</ele>
        <time>2016-09-14T09:32:07Z</time>
      </trkpt>
      <trkpt lat="46.02031" lon="4.99537">
        <ele>281</ele>
        <time>2016-09-14T09:32:08Z</time>
      </trkpt>
      <trkpt lat="46.02028" lon="4.99544">
        <ele>281</ele>
        <time>2016-09-14T09:32:09Z</time>
      </trkpt>
      <trkpt lat="46.02025" lon="4.99552">
        <ele>281</ele>
        <time>2016-09-14T09:32:10Z</time>
      </trkpt>
      <trkpt lat="46.02023" lon="4.99559">
        <ele>281</ele>
        <time>2016-09-14T09:32:11Z</time>
      </trkpt>
      <trkpt lat="46.0202" lon="4.99566">
        <ele>281</ele>
        <time>2016-09-14T09:32:12Z</time>
      </trkpt>
      <trkpt lat="46.02017" lon="4.99574">
        <ele>282</ele>
        <time>2016-09-14T09:32:13Z</time>
      </trkpt>
      <trkpt lat="46.02014" lon="4.99581">
        <ele>282</ele>
        <time>2016-09-14T09:32:14Z</time>
      </trkpt>
      <trkpt lat="46.02012" lon="4.99588">
        <ele>281</ele>
        <time>2016-09-14T09:32:15Z</time>
      </trkpt>
      <trkpt lat="46.02009" lon="4.99596">
        <ele>281</ele>
        <time>2016-09-14T09:32:16Z</time>
      </trkpt>
      <trkpt lat="46.02007" lon="4.99603">
        <ele>281</ele>
        <time>2016-09-14T09:32:17Z</time>
      </trkpt>
      <trkpt lat="46.02004" lon="4.9961">
        <ele>281</ele>
        <time>2016-09-14T09:32:18Z</time>
      </trkpt>
      <trkpt lat="46.02002" lon="4.99617">
        <ele>281</ele>
        <time>2016-09-14T09:32:19Z</time>
      </trkpt>
      <trkpt lat="46.01999" lon="4.99624">
        <ele>281</ele>
        <time>2016-09-14T09:32:20Z</time>
      </trkpt>
      <trkpt lat="46.01997" lon="4.99632">
        <ele>281</ele>
        <time>2016-09-14T09:32:21Z</time>
      </trkpt>
      <trkpt lat="46.01994" lon="4.99639">
        <ele>281</ele>
        <time>2016-09-14T09:32:22Z</time>
      </trkpt>
      <trkpt lat="46.01991" lon="4.99646">
        <ele>281</ele>
        <time>2016-09-14T09:32:23Z</time>
      </trkpt>
      <trkpt lat="46.01989" lon="4.99653">
        <ele>281</ele>
        <time>2016-09-14T09:32:24Z</time>
      </trkpt>
      <trkpt lat="46.01986" lon="4.9966">
        <ele>281</ele>
        <time>2016-09-14T09:32:25Z</time>
      </trkpt>
      <trkpt lat="46.01984" lon="4.99667">
        <ele>280</ele>
        <time>2016-09-14T09:32:26Z</time>
      </trkpt>
      <trkpt lat="46.01981" lon="4.99675">
        <ele>280</ele>
        <time>2016-09-14T09:32:27Z</time>
      </trkpt>
      <trkpt lat="46.01979" lon="4.99682">
        <ele>280</ele>
        <time>2016-09-14T09:32:28Z</time>
      </trkpt>
      <trkpt lat="46.01976" lon="4.99689">
        <ele>280</ele>
        <time>2016-09-14T09:32:29Z</time>
      </trkpt>
      <trkpt lat="46.01974" lon="4.99696">
        <ele>280</ele>
        <time>2016-09-14T09:32:30Z</time>
      </trkpt>
      <trkpt lat="46.01971" lon="4.99703">
        <ele>280</ele>
        <time>2016-09-14T09:32:31Z</time>
      </trkpt>
      <trkpt lat="46.01969" lon="4.9971">
        <ele>280</ele>
        <time>2016-09-14T09:32:32Z</time>
      </trkpt>
      <trkpt lat="46.01966" lon="4.99717">
        <ele>280</ele>
        <time>2016-09-14T09:32:33Z</time>
      </trkpt>
      <trkpt lat="46.01964" lon="4.99723">
        <ele>280</ele>
        <time>2016-09-14T09:32:34Z</time>
      </trkpt>
      <trkpt lat="46.01961" lon="4.99731">
        <ele>280</ele>
        <time>2016-09-14T09:32:35Z</time>
      </trkpt>
      <trkpt lat="46.01958" lon="4.99737">
        <ele>280</ele>
        <time>2016-09-14T09:32:36Z</time>
      </trkpt>
      <trkpt lat="46.01955" lon="4.99745">
        <ele>280</ele>
        <time>2016-09-14T09:32:37Z</time>
      </trkpt>
      <trkpt lat="46.01953" lon="4.99752">
        <ele>280</ele>
        <time>2016-09-14T09:32:38Z</time>
      </trkpt>
      <trkpt lat="46.01951" lon="4.9976">
        <ele>280</ele>
        <time>2016-09-14T09:32:39Z</time>
      </trkpt>
      <trkpt lat="46.01949" lon="4.99767">
        <ele>280</ele>
        <time>2016-09-14T09:32:40Z</time>
      </trkpt>
      <trkpt lat="46.01947" lon="4.99773">
        <ele>280</ele>
        <time>2016-09-14T09:32:41Z</time>
      </trkpt>
      <trkpt lat="46.01944" lon="4.9978">
        <ele>280</ele>
        <time>2016-09-14T09:32:42Z</time>
      </trkpt>
      <trkpt lat="46.01941" lon="4.99788">
        <ele>280</ele>
        <time>2016-09-14T09:32:43Z</time>
      </trkpt>
      <trkpt lat="46.01938" lon="4.99795">
        <ele>280</ele>
        <time>2016-09-14T09:32:44Z</time>
      </trkpt>
      <trkpt lat="46.01936" lon="4.99803">
        <ele>280</ele>
        <time>2016-09-14T09:32:45Z</time>
      </trkpt>
      <trkpt lat="46.01933" lon="4.9981">
        <ele>281</ele>
        <time>2016-09-14T09:32:46Z</time>
      </trkpt>
      <trkpt lat="46.0193" lon="4.99817">
        <ele>281</ele>
        <time>2016-09-14T09:32:47Z</time>
      </trkpt>
      <trkpt lat="46.01927" lon="4.99823">
        <ele>281</ele>
        <time>2016-09-14T09:32:48Z</time>
      </trkpt>
      <trkpt lat="46.01925" lon="4.9983">
        <ele>281</ele>
        <time>2016-09-14T09:32:49Z</time>
      </trkpt>
      <trkpt lat="46.01922" lon="4.99836">
        <ele>281</ele>
        <time>2016-09-14T09:32:50Z</time>
      </trkpt>
      <trkpt lat="46.01919" lon="4.99842">
        <ele>281</ele>
        <time>2016-09-14T09:32:51Z</time>
      </trkpt>
      <trkpt lat="46.01916" lon="4.99848">
        <ele>281</ele>
        <time>2016-09-14T09:32:52Z</time>
      </trkpt>
      <trkpt lat="46.01914" lon="4.99855">
        <ele>281</ele>
        <time>2016-09-14T09:32:53Z</time>
      </trkpt>
      <trkpt lat="46.01911" lon="4.99861">
        <ele>281</ele>
        <time>2016-09-14T09:32:54Z</time>
      </trkpt>
      <trkpt lat="46.01909" lon="4.99869">
        <ele>281</ele>
        <time>2016-09-14T09:32:55Z</time>
      </trkpt>
      <trkpt lat="46.01907" lon="4.99876">
        <ele>281</ele>
        <time>2016-09-14T09:32:56Z</time>
      </trkpt>
      <trkpt lat="46.01904" lon="4.99883">
        <ele>281</ele>
        <time>2016-09-14T09:32:57Z</time>
      </trkpt>
      <trkpt lat="46.01902" lon="4.9989">
        <ele>281</ele>
        <time>2016-09-14T09:32:58Z</time>
      </trkpt>
      <trkpt lat="46.019" lon="4.99897">
        <ele>281</ele>
        <time>2016-09-14T09:32:59Z</time>
      </trkpt>
      <trkpt lat="46.01898" lon="4.99904">
        <ele>281</ele>
        <time>2016-09-14T09:33:00Z</time>
      </trkpt>
      <trkpt lat="46.01896" lon="4.99912">
        <ele>281</ele>
        <time>2016-09-14T09:33:01Z</time>
      </trkpt>
      <trkpt lat="46.01893" lon="4.99919">
        <ele>281</ele>
        <time>2016-09-14T09:33:02Z</time>
      </trkpt>
      <trkpt lat="46.0189" lon="4.99926">
        <ele>281</ele>
        <time>2016-09-14T09:33:03Z</time>
      </trkpt>
      <trkpt lat="46.01888" lon="4.99932">
        <ele>281</ele>
        <time>2016-09-14T09:33:04Z</time>
      </trkpt>
      <trkpt lat="46.01885" lon="4.99939">
        <ele>281</ele>
        <time>2016-09-14T09:33:05Z</time>
      </trkpt>
      <trkpt lat="46.01882" lon="4.99946">
        <ele>281</ele>
        <time>2016-09-14T09:33:06Z</time>
      </trkpt>
      <trkpt lat="46.01879" lon="4.99952">
        <ele>281</ele>
        <time>2016-09-14T09:33:07Z</time>
      </trkpt>
      <trkpt lat="46.01875" lon="4.99959">
        <ele>281</ele>
        <time>2016-09-14T09:33:08Z</time>
      </trkpt>
      <trkpt lat="46.01872" lon="4.99966">
        <ele>281</ele>
        <time>2016-09-14T09:33:09Z</time>
      </trkpt>
      <trkpt lat="46.01869" lon="4.99973">
        <ele>281</ele>
        <time>2016-09-14T09:33:10Z</time>
      </trkpt>
      <trkpt lat="46.01867" lon="4.9998">
        <ele>281</ele>
        <time>2016-09-14T09:33:11Z</time>
      </trkpt>
      <trkpt lat="46.01864" lon="4.99987">
        <ele>281</ele>
        <time>2016-09-14T09:33:12Z</time>
      </trkpt>
      <trkpt lat="46.01862" lon="4.99994">
        <ele>281</ele>
        <time>2016-09-14T09:33:13Z</time>
      </trkpt>
      <trkpt lat="46.0186" lon="5.00002">
        <ele>282</ele>
        <time>2016-09-14T09:33:14Z</time>
      </trkpt>
      <trkpt lat="46.01857" lon="5.00009">
        <ele>282</ele>
        <time>2016-09-14T09:33:15Z</time>
      </trkpt>
      <trkpt lat="46.01855" lon="5.00017">
        <ele>282</ele>
        <time>2016-09-14T09:33:16Z</time>
      </trkpt>
      <trkpt lat="46.01852" lon="5.00024">
        <ele>282</ele>
        <time>2016-09-14T09:33:17Z</time>
      </trkpt>
      <trkpt lat="46.0185" lon="5.00031">
        <ele>282</ele>
        <time>2016-09-14T09:33:18Z</time>
      </trkpt>
      <trkpt lat="46.01847" lon="5.00038">
        <ele>282</ele>
        <time>2016-09-14T09:33:19Z</time>
      </trkpt>
      <trkpt lat="46.01844" lon="5.00045">
        <ele>283</ele>
        <time>2016-09-14T09:33:20Z</time>
      </trkpt>
      <trkpt lat="46.01842" lon="5.00053">
        <ele>283</ele>
        <time>2016-09-14T09:33:21Z</time>
      </trkpt>
      <trkpt lat="46.0184" lon="5.00059">
        <ele>283</ele>
        <time>2016-09-14T09:33:22Z</time>
      </trkpt>
      <trkpt lat="46.01837" lon="5.00066">
        <ele>283</ele>
        <time>2016-09-14T09:33:23Z</time>
      </trkpt>
      <trkpt lat="46.01835" lon="5.00073">
        <ele>283</ele>
        <time>2016-09-14T09:33:24Z</time>
      </trkpt>
      <trkpt lat="46.01833" lon="5.00079">
        <ele>284</ele>
        <time>2016-09-14T09:33:25Z</time>
      </trkpt>
      <trkpt lat="46.0183" lon="5.00085">
        <ele>284</ele>
        <time>2016-09-14T09:33:26Z</time>
      </trkpt>
      <trkpt lat="46.01828" lon="5.00092">
        <ele>284</ele>
        <time>2016-09-14T09:33:27Z</time>
      </trkpt>
      <trkpt lat="46.01826" lon="5.00099">
        <ele>283</ele>
        <time>2016-09-14T09:33:28Z</time>
      </trkpt>
      <trkpt lat="46.01823" lon="5.00105">
        <ele>283</ele>
        <time>2016-09-14T09:33:29Z</time>
      </trkpt>
      <trkpt lat="46.01821" lon="5.00112">
        <ele>283</ele>
        <time>2016-09-14T09:33:30Z</time>
      </trkpt>
      <trkpt lat="46.01819" lon="5.00119">
        <ele>283</ele>
        <time>2016-09-14T09:33:31Z</time>
      </trkpt>
      <trkpt lat="46.01817" lon="5.00126">
        <ele>283</ele>
        <time>2016-09-14T09:33:32Z</time>
      </trkpt>
      <trkpt lat="46.01815" lon="5.00132">
        <ele>283</ele>
        <time>2016-09-14T09:33:33Z</time>
      </trkpt>
      <trkpt lat="46.01812" lon="5.00138">
        <ele>283</ele>
        <time>2016-09-14T09:33:34Z</time>
      </trkpt>
      <trkpt lat="46.0181" lon="5.00144">
        <ele>283</ele>
        <time>2016-09-14T09:33:35Z</time>
      </trkpt>
      <trkpt lat="46.01807" lon="5.00149">
        <ele>283</ele>
        <time>2016-09-14T09:33:36Z</time>
      </trkpt>
      <trkpt lat="46.01805" lon="5.00155">
        <ele>283</ele>
        <time>2016-09-14T09:33:37Z</time>
      </trkpt>
      <trkpt lat="46.01803" lon="5.00161">
        <ele>283</ele>
        <time>2016-09-14T09:33:38Z</time>
      </trkpt>
      <trkpt lat="46.018" lon="5.00167">
        <ele>284</ele>
        <time>2016-09-14T09:33:39Z</time>
      </trkpt>
      <trkpt lat="46.01797" lon="5.00174">
        <ele>284</ele>
        <time>2016-09-14T09:33:40Z</time>
      </trkpt>
      <trkpt lat="46.01795" lon="5.0018">
        <ele>284</ele>
        <time>2016-09-14T09:33:41Z</time>
      </trkpt>
      <trkpt lat="46.01792" lon="5.00187">
        <ele>284</ele>
        <time>2016-09-14T09:33:42Z</time>
      </trkpt>
      <trkpt lat="46.01789" lon="5.00194">
        <ele>283</ele>
        <time>2016-09-14T09:33:43Z</time>
      </trkpt>
      <trkpt lat="46.01786" lon="5.00201">
        <ele>283</ele>
        <time>2016-09-14T09:33:44Z</time>
      </trkpt>
      <trkpt lat="46.01783" lon="5.00208">
        <ele>283</ele>
        <time>2016-09-14T09:33:45Z</time>
      </trkpt>
      <trkpt lat="46.01779" lon="5.00215">
        <ele>284</ele>
        <time>2016-09-14T09:33:46Z</time>
      </trkpt>
      <trkpt lat="46.01776" lon="5.00222">
        <ele>284</ele>
        <time>2016-09-14T09:33:47Z</time>
      </trkpt>
      <trkpt lat="46.01773" lon="5.00229">
        <ele>284</ele>
        <time>2016-09-14T09:33:48Z</time>
      </trkpt>
      <trkpt lat="46.01771" lon="5.00237">
        <ele>284</ele>
        <time>2016-09-14T09:33:49Z</time>
      </trkpt>
      <trkpt lat="46.01768" lon="5.00243">
        <ele>284</ele>
        <time>2016-09-14T09:33:50Z</time>
      </trkpt>
      <trkpt lat="46.01766" lon="5.00249">
        <ele>284</ele>
        <time>2016-09-14T09:33:51Z</time>
      </trkpt>
      <trkpt lat="46.01764" lon="5.00255">
        <ele>284</ele>
        <time>2016-09-14T09:33:52Z</time>
      </trkpt>
      <trkpt lat="46.0176" lon="5.0026">
        <ele>284</ele>
        <time>2016-09-14T09:33:53Z</time>
      </trkpt>
      <trkpt lat="46.01755" lon="5.0027">
        <ele>284</ele>
        <time>2016-09-14T09:33:55Z</time>
      </trkpt>
      <trkpt lat="46.01753" lon="5.00276">
        <ele>284</ele>
        <time>2016-09-14T09:33:56Z</time>
      </trkpt>
      <trkpt lat="46.01748" lon="5.00285">
        <ele>284</ele>
        <time>2016-09-14T09:33:58Z</time>
      </trkpt>
      <trkpt lat="46.01746" lon="5.00291">
        <ele>284</ele>
        <time>2016-09-14T09:33:59Z</time>
      </trkpt>
      <trkpt lat="46.01742" lon="5.00302">
        <ele>284</ele>
        <time>2016-09-14T09:34:01Z</time>
      </trkpt>
      <trkpt lat="46.01739" lon="5.00307">
        <ele>284</ele>
        <time>2016-09-14T09:34:02Z</time>
      </trkpt>
      <trkpt lat="46.01734" lon="5.00317">
        <ele>284</ele>
        <time>2016-09-14T09:34:04Z</time>
      </trkpt>
      <trkpt lat="46.01731" lon="5.00321">
        <ele>284</ele>
        <time>2016-09-14T09:34:05Z</time>
      </trkpt>
      <trkpt lat="46.01727" lon="5.00332">
        <ele>284</ele>
        <time>2016-09-14T09:34:07Z</time>
      </trkpt>
      <trkpt lat="46.01724" lon="5.00339">
        <ele>284</ele>
        <time>2016-09-14T09:34:08Z</time>
      </trkpt>
      <trkpt lat="46.01722" lon="5.00345">
        <ele>284</ele>
        <time>2016-09-14T09:34:09Z</time>
      </trkpt>
      <trkpt lat="46.01719" lon="5.00352">
        <ele>284</ele>
        <time>2016-09-14T09:34:10Z</time>
      </trkpt>
      <trkpt lat="46.01716" lon="5.0036">
        <ele>284</ele>
        <time>2016-09-14T09:34:11Z</time>
      </trkpt>
      <trkpt lat="46.01712" lon="5.00366">
        <ele>284</ele>
        <time>2016-09-14T09:34:12Z</time>
      </trkpt>
      <trkpt lat="46.0171" lon="5.00373">
        <ele>284</ele>
        <time>2016-09-14T09:34:13Z</time>
      </trkpt>
      <trkpt lat="46.01707" lon="5.0038">
        <ele>285</ele>
        <time>2016-09-14T09:34:14Z</time>
      </trkpt>
      <trkpt lat="46.01705" lon="5.00387">
        <ele>285</ele>
        <time>2016-09-14T09:34:15Z</time>
      </trkpt>
      <trkpt lat="46.01702" lon="5.00393">
        <ele>285</ele>
        <time>2016-09-14T09:34:16Z</time>
      </trkpt>
      <trkpt lat="46.01699" lon="5.004">
        <ele>285</ele>
        <time>2016-09-14T09:34:17Z</time>
      </trkpt>
      <trkpt lat="46.01696" lon="5.00407">
        <ele>285</ele>
        <time>2016-09-14T09:34:18Z</time>
      </trkpt>
      <trkpt lat="46.01693" lon="5.00412">
        <ele>285</ele>
        <time>2016-09-14T09:34:19Z</time>
      </trkpt>
      <trkpt lat="46.0169" lon="5.00419">
        <ele>285</ele>
        <time>2016-09-14T09:34:20Z</time>
      </trkpt>
      <trkpt lat="46.01686" lon="5.00426">
        <ele>285</ele>
        <time>2016-09-14T09:34:21Z</time>
      </trkpt>
      <trkpt lat="46.01683" lon="5.00432">
        <ele>285</ele>
        <time>2016-09-14T09:34:22Z</time>
      </trkpt>
      <trkpt lat="46.0168" lon="5.00439">
        <ele>285</ele>
        <time>2016-09-14T09:34:23Z</time>
      </trkpt>
      <trkpt lat="46.01676" lon="5.00446">
        <ele>286</ele>
        <time>2016-09-14T09:34:24Z</time>
      </trkpt>
      <trkpt lat="46.01673" lon="5.00454">
        <ele>286</ele>
        <time>2016-09-14T09:34:25Z</time>
      </trkpt>
      <trkpt lat="46.0167" lon="5.00462">
        <ele>286</ele>
        <time>2016-09-14T09:34:26Z</time>
      </trkpt>
      <trkpt lat="46.01667" lon="5.00469">
        <ele>286</ele>
        <time>2016-09-14T09:34:27Z</time>
      </trkpt>
      <trkpt lat="46.01663" lon="5.00475">
        <ele>285</ele>
        <time>2016-09-14T09:34:28Z</time>
      </trkpt>
      <trkpt lat="46.01661" lon="5.00482">
        <ele>285</ele>
        <time>2016-09-14T09:34:29Z</time>
      </trkpt>
      <trkpt lat="46.01658" lon="5.00488">
        <ele>285</ele>
        <time>2016-09-14T09:34:30Z</time>
      </trkpt>
      <trkpt lat="46.01656" lon="5.00494">
        <ele>285</ele>
        <time>2016-09-14T09:34:31Z</time>
      </trkpt>
      <trkpt lat="46.01654" lon="5.005">
        <ele>285</ele>
        <time>2016-09-14T09:34:32Z</time>
      </trkpt>
      <trkpt lat="46.01651" lon="5.00506">
        <ele>285</ele>
        <time>2016-09-14T09:34:33Z</time>
      </trkpt>
      <trkpt lat="46.01649" lon="5.00512">
        <ele>285</ele>
        <time>2016-09-14T09:34:34Z</time>
      </trkpt>
      <trkpt lat="46.01646" lon="5.00519">
        <ele>285</ele>
        <time>2016-09-14T09:34:35Z</time>
      </trkpt>
      <trkpt lat="46.01642" lon="5.00527">
        <ele>285</ele>
        <time>2016-09-14T09:34:36Z</time>
      </trkpt>
      <trkpt lat="46.01639" lon="5.00534">
        <ele>285</ele>
        <time>2016-09-14T09:34:37Z</time>
      </trkpt>
      <trkpt lat="46.01635" lon="5.00541">
        <ele>285</ele>
        <time>2016-09-14T09:34:38Z</time>
      </trkpt>
      <trkpt lat="46.01632" lon="5.00549">
        <ele>285</ele>
        <time>2016-09-14T09:34:39Z</time>
      </trkpt>
      <trkpt lat="46.01629" lon="5.00556">
        <ele>285</ele>
        <time>2016-09-14T09:34:40Z</time>
      </trkpt>
      <trkpt lat="46.01625" lon="5.00567">
        <ele>284</ele>
        <time>2016-09-14T09:34:41Z</time>
      </trkpt>
      <trkpt lat="46.01623" lon="5.00577">
        <ele>284</ele>
        <time>2016-09-14T09:34:42Z</time>
      </trkpt>
      <trkpt lat="46.0162" lon="5.00585">
        <ele>284</ele>
        <time>2016-09-14T09:34:43Z</time>
      </trkpt>
      <trkpt lat="46.01618" lon="5.00593">
        <ele>284</ele>
        <time>2016-09-14T09:34:44Z</time>
      </trkpt>
      <trkpt lat="46.01615" lon="5.00601">
        <ele>284</ele>
        <time>2016-09-14T09:34:45Z</time>
      </trkpt>
      <trkpt lat="46.01611" lon="5.00608">
        <ele>284</ele>
        <time>2016-09-14T09:34:46Z</time>
      </trkpt>
      <trkpt lat="46.01608" lon="5.00615">
        <ele>284</ele>
        <time>2016-09-14T09:34:47Z</time>
      </trkpt>
      <trkpt lat="46.01605" lon="5.00622">
        <ele>284</ele>
        <time>2016-09-14T09:34:48Z</time>
      </trkpt>
      <trkpt lat="46.01601" lon="5.00628">
        <ele>284</ele>
        <time>2016-09-14T09:34:49Z</time>
      </trkpt>
      <trkpt lat="46.01598" lon="5.00635">
        <ele>284</ele>
        <time>2016-09-14T09:34:50Z</time>
      </trkpt>
      <trkpt lat="46.01595" lon="5.00642">
        <ele>284</ele>
        <time>2016-09-14T09:34:51Z</time>
      </trkpt>
      <trkpt lat="46.01594" lon="5.00649">
        <ele>284</ele>
        <time>2016-09-14T09:34:52Z</time>
      </trkpt>
      <trkpt lat="46.01592" lon="5.00656">
        <ele>284</ele>
        <time>2016-09-14T09:34:53Z</time>
      </trkpt>
      <trkpt lat="46.01589" lon="5.00663">
        <ele>284</ele>
        <time>2016-09-14T09:34:54Z</time>
      </trkpt>
      <trkpt lat="46.01586" lon="5.0067">
        <ele>284</ele>
        <time>2016-09-14T09:34:55Z</time>
      </trkpt>
      <trkpt lat="46.01584" lon="5.00676">
        <ele>284</ele>
        <time>2016-09-14T09:34:56Z</time>
      </trkpt>
      <trkpt lat="46.01581" lon="5.00682">
        <ele>284</ele>
        <time>2016-09-14T09:34:57Z</time>
      </trkpt>
      <trkpt lat="46.01577" lon="5.00689">
        <ele>284</ele>
        <time>2016-09-14T09:34:58Z</time>
      </trkpt>
      <trkpt lat="46.01574" lon="5.00695">
        <ele>284</ele>
        <time>2016-09-14T09:34:59Z</time>
      </trkpt>
      <trkpt lat="46.01572" lon="5.00702">
        <ele>284</ele>
        <time>2016-09-14T09:35:00Z</time>
      </trkpt>
      <trkpt lat="46.01569" lon="5.0071">
        <ele>284</ele>
        <time>2016-09-14T09:35:01Z</time>
      </trkpt>
      <trkpt lat="46.01567" lon="5.00717">
        <ele>284</ele>
        <time>2016-09-14T09:35:02Z</time>
      </trkpt>
      <trkpt lat="46.01564" lon="5.00725">
        <ele>284</ele>
        <time>2016-09-14T09:35:03Z</time>
      </trkpt>
      <trkpt lat="46.01562" lon="5.00733">
        <ele>284</ele>
        <time>2016-09-14T09:35:04Z</time>
      </trkpt>
      <trkpt lat="46.01558" lon="5.00741">
        <ele>284</ele>
        <time>2016-09-14T09:35:05Z</time>
      </trkpt>
      <trkpt lat="46.01556" lon="5.00749">
        <ele>284</ele>
        <time>2016-09-14T09:35:06Z</time>
      </trkpt>
      <trkpt lat="46.01553" lon="5.00756">
        <ele>284</ele>
        <time>2016-09-14T09:35:07Z</time>
      </trkpt>
      <trkpt lat="46.0155" lon="5.00764">
        <ele>284</ele>
        <time>2016-09-14T09:35:08Z</time>
      </trkpt>
      <trkpt lat="46.01547" lon="5.00773">
        <ele>284</ele>
        <time>2016-09-14T09:35:09Z</time>
      </trkpt>
      <trkpt lat="46.01544" lon="5.0078">
        <ele>284</ele>
        <time>2016-09-14T09:35:10Z</time>
      </trkpt>
      <trkpt lat="46.01541" lon="5.00788">
        <ele>283</ele>
        <time>2016-09-14T09:35:11Z</time>
      </trkpt>
      <trkpt lat="46.01539" lon="5.00796">
        <ele>283</ele>
        <time>2016-09-14T09:35:12Z</time>
      </trkpt>
      <trkpt lat="46.01536" lon="5.00804">
        <ele>283</ele>
        <time>2016-09-14T09:35:13Z</time>
      </trkpt>
      <trkpt lat="46.01533" lon="5.00812">
        <ele>283</ele>
        <time>2016-09-14T09:35:14Z</time>
      </trkpt>
      <trkpt lat="46.01531" lon="5.0082">
        <ele>283</ele>
        <time>2016-09-14T09:35:15Z</time>
      </trkpt>
      <trkpt lat="46.01528" lon="5.00829">
        <ele>283</ele>
        <time>2016-09-14T09:35:16Z</time>
      </trkpt>
      <trkpt lat="46.01525" lon="5.00837">
        <ele>283</ele>
        <time>2016-09-14T09:35:17Z</time>
      </trkpt>
      <trkpt lat="46.01523" lon="5.00845">
        <ele>283</ele>
        <time>2016-09-14T09:35:18Z</time>
      </trkpt>
      <trkpt lat="46.01521" lon="5.00853">
        <ele>283</ele>
        <time>2016-09-14T09:35:19Z</time>
      </trkpt>
      <trkpt lat="46.01518" lon="5.0086">
        <ele>283</ele>
        <time>2016-09-14T09:35:20Z</time>
      </trkpt>
      <trkpt lat="46.01514" lon="5.00867">
        <ele>283</ele>
        <time>2016-09-14T09:35:21Z</time>
      </trkpt>
      <trkpt lat="46.0151" lon="5.00874">
        <ele>283</ele>
        <time>2016-09-14T09:35:22Z</time>
      </trkpt>
      <trkpt lat="46.01507" lon="5.00881">
        <ele>283</ele>
        <time>2016-09-14T09:35:23Z</time>
      </trkpt>
      <trkpt lat="46.01503" lon="5.00889">
        <ele>283</ele>
        <time>2016-09-14T09:35:24Z</time>
      </trkpt>
      <trkpt lat="46.015" lon="5.00896">
        <ele>283</ele>
        <time>2016-09-14T09:35:25Z</time>
      </trkpt>
      <trkpt lat="46.01496" lon="5.00904">
        <ele>283</ele>
        <time>2016-09-14T09:35:26Z</time>
      </trkpt>
      <trkpt lat="46.01493" lon="5.00911">
        <ele>283</ele>
        <time>2016-09-14T09:35:27Z</time>
      </trkpt>
      <trkpt lat="46.01489" lon="5.00919">
        <ele>283</ele>
        <time>2016-09-14T09:35:28Z</time>
      </trkpt>
      <trkpt lat="46.01485" lon="5.00927">
        <ele>283</ele>
        <time>2016-09-14T09:35:29Z</time>
      </trkpt>
      <trkpt lat="46.01481" lon="5.00934">
        <ele>283</ele>
        <time>2016-09-14T09:35:30Z</time>
      </trkpt>
      <trkpt lat="46.01477" lon="5.00942">
        <ele>283</ele>
        <time>2016-09-14T09:35:31Z</time>
      </trkpt>
      <trkpt lat="46.01473" lon="5.00949">
        <ele>283</ele>
        <time>2016-09-14T09:35:32Z</time>
      </trkpt>
      <trkpt lat="46.01469" lon="5.00956">
        <ele>283</ele>
        <time>2016-09-14T09:35:33Z</time>
      </trkpt>
      <trkpt lat="46.01466" lon="5.00963">
        <ele>283</ele>
        <time>2016-09-14T09:35:34Z</time>
      </trkpt>
      <trkpt lat="46.01462" lon="5.0097">
        <ele>283</ele>
        <time>2016-09-14T09:35:35Z</time>
      </trkpt>
      <trkpt lat="46.01458" lon="5.00978">
        <ele>283</ele>
        <time>2016-09-14T09:35:36Z</time>
      </trkpt>
      <trkpt lat="46.01454" lon="5.00985">
        <ele>283</ele>
        <time>2016-09-14T09:35:37Z</time>
      </trkpt>
      <trkpt lat="46.0145" lon="5.00991">
        <ele>283</ele>
        <time>2016-09-14T09:35:38Z</time>
      </trkpt>
      <trkpt lat="46.01446" lon="5.00998">
        <ele>283</ele>
        <time>2016-09-14T09:35:39Z</time>
      </trkpt>
      <trkpt lat="46.01442" lon="5.01005">
        <ele>283</ele>
        <time>2016-09-14T09:35:40Z</time>
      </trkpt>
      <trkpt lat="46.01438" lon="5.01013">
        <ele>283</ele>
        <time>2016-09-14T09:35:41Z</time>
      </trkpt>
      <trkpt lat="46.01435" lon="5.01021">
        <ele>283</ele>
        <time>2016-09-14T09:35:42Z</time>
      </trkpt>
      <trkpt lat="46.0143" lon="5.01029">
        <ele>283</ele>
        <time>2016-09-14T09:35:43Z</time>
      </trkpt>
      <trkpt lat="46.01427" lon="5.01037">
        <ele>283</ele>
        <time>2016-09-14T09:35:44Z</time>
      </trkpt>
      <trkpt lat="46.01424" lon="5.01044">
        <ele>283</ele>
        <time>2016-09-14T09:35:45Z</time>
      </trkpt>
      <trkpt lat="46.0142" lon="5.01051">
        <ele>283</ele>
        <time>2016-09-14T09:35:46Z</time>
      </trkpt>
      <trkpt lat="46.01416" lon="5.01057">
        <ele>283</ele>
        <time>2016-09-14T09:35:47Z</time>
      </trkpt>
      <trkpt lat="46.01412" lon="5.01064">
        <ele>283</ele>
        <time>2016-09-14T09:35:48Z</time>
      </trkpt>
      <trkpt lat="46.01408" lon="5.0107">
        <ele>283</ele>
        <time>2016-09-14T09:35:49Z</time>
      </trkpt>
      <trkpt lat="46.01404" lon="5.01077">
        <ele>283</ele>
        <time>2016-09-14T09:35:50Z</time>
      </trkpt>
      <trkpt lat="46.01401" lon="5.01084">
        <ele>283</ele>
        <time>2016-09-14T09:35:51Z</time>
      </trkpt>
      <trkpt lat="46.01397" lon="5.01091">
        <ele>283</ele>
        <time>2016-09-14T09:35:52Z</time>
      </trkpt>
      <trkpt lat="46.01393" lon="5.01098">
        <ele>282</ele>
        <time>2016-09-14T09:35:53Z</time>
      </trkpt>
      <trkpt lat="46.01388" lon="5.01105">
        <ele>282</ele>
        <time>2016-09-14T09:35:54Z</time>
      </trkpt>
      <trkpt lat="46.01384" lon="5.01112">
        <ele>282</ele>
        <time>2016-09-14T09:35:55Z</time>
      </trkpt>
      <trkpt lat="46.0138" lon="5.0112">
        <ele>282</ele>
        <time>2016-09-14T09:35:56Z</time>
      </trkpt>
      <trkpt lat="46.01375" lon="5.01128">
        <ele>282</ele>
        <time>2016-09-14T09:35:57Z</time>
      </trkpt>
      <trkpt lat="46.01371" lon="5.01136">
        <ele>282</ele>
        <time>2016-09-14T09:35:58Z</time>
      </trkpt>
      <trkpt lat="46.01367" lon="5.01143">
        <ele>282</ele>
        <time>2016-09-14T09:35:59Z</time>
      </trkpt>
      <trkpt lat="46.01363" lon="5.01151">
        <ele>282</ele>
        <time>2016-09-14T09:36:00Z</time>
      </trkpt>
      <trkpt lat="46.01358" lon="5.01159">
        <ele>282</ele>
        <time>2016-09-14T09:36:01Z</time>
      </trkpt>
      <trkpt lat="46.01354" lon="5.01166">
        <ele>282</ele>
        <time>2016-09-14T09:36:02Z</time>
      </trkpt>
      <trkpt lat="46.0135" lon="5.01173">
        <ele>282</ele>
        <time>2016-09-14T09:36:03Z</time>
      </trkpt>
      <trkpt lat="46.01347" lon="5.0118">
        <ele>282</ele>
        <time>2016-09-14T09:36:04Z</time>
      </trkpt>
      <trkpt lat="46.01343" lon="5.01188">
        <ele>282</ele>
        <time>2016-09-14T09:36:05Z</time>
      </trkpt>
      <trkpt lat="46.01339" lon="5.01195">
        <ele>282</ele>
        <time>2016-09-14T09:36:06Z</time>
      </trkpt>
      <trkpt lat="46.01335" lon="5.01203">
        <ele>282</ele>
        <time>2016-09-14T09:36:07Z</time>
      </trkpt>
      <trkpt lat="46.01331" lon="5.0121">
        <ele>283</ele>
        <time>2016-09-14T09:36:08Z</time>
      </trkpt>
      <trkpt lat="46.01327" lon="5.01217">
        <ele>283</ele>
        <time>2016-09-14T09:36:09Z</time>
      </trkpt>
      <trkpt lat="46.01323" lon="5.01223">
        <ele>283</ele>
        <time>2016-09-14T09:36:10Z</time>
      </trkpt>
      <trkpt lat="46.01319" lon="5.01231">
        <ele>283</ele>
        <time>2016-09-14T09:36:11Z</time>
      </trkpt>
      <trkpt lat="46.01314" lon="5.01238">
        <ele>283</ele>
        <time>2016-09-14T09:36:12Z</time>
      </trkpt>
      <trkpt lat="46.0131" lon="5.01245">
        <ele>283</ele>
        <time>2016-09-14T09:36:13Z</time>
      </trkpt>
      <trkpt lat="46.01304" lon="5.01252">
        <ele>282</ele>
        <time>2016-09-14T09:36:14Z</time>
      </trkpt>
      <trkpt lat="46.01299" lon="5.01257">
        <ele>282</ele>
        <time>2016-09-14T09:36:15Z</time>
      </trkpt>
      <trkpt lat="46.01296" lon="5.01263">
        <ele>282</ele>
        <time>2016-09-14T09:36:16Z</time>
      </trkpt>
      <trkpt lat="46.01293" lon="5.0127">
        <ele>282</ele>
        <time>2016-09-14T09:36:17Z</time>
      </trkpt>
      <trkpt lat="46.01289" lon="5.01276">
        <ele>282</ele>
        <time>2016-09-14T09:36:18Z</time>
      </trkpt>
      <trkpt lat="46.01286" lon="5.01282">
        <ele>282</ele>
        <time>2016-09-14T09:36:19Z</time>
      </trkpt>
      <trkpt lat="46.01283" lon="5.01288">
        <ele>281</ele>
        <time>2016-09-14T09:36:20Z</time>
      </trkpt>
      <trkpt lat="46.0128" lon="5.01294">
        <ele>281</ele>
        <time>2016-09-14T09:36:21Z</time>
      </trkpt>
      <trkpt lat="46.01276" lon="5.01301">
        <ele>281</ele>
        <time>2016-09-14T09:36:22Z</time>
      </trkpt>
      <trkpt lat="46.01272" lon="5.01308">
        <ele>281</ele>
        <time>2016-09-14T09:36:23Z</time>
      </trkpt>
      <trkpt lat="46.01269" lon="5.01315">
        <ele>281</ele>
        <time>2016-09-14T09:36:24Z</time>
      </trkpt>
      <trkpt lat="46.01265" lon="5.01323">
        <ele>281</ele>
        <time>2016-09-14T09:36:25Z</time>
      </trkpt>
      <trkpt lat="46.01262" lon="5.01332">
        <ele>281</ele>
        <time>2016-09-14T09:36:26Z</time>
      </trkpt>
      <trkpt lat="46.01258" lon="5.01341">
        <ele>280</ele>
        <time>2016-09-14T09:36:27Z</time>
      </trkpt>
      <trkpt lat="46.01254" lon="5.0135">
        <ele>280</ele>
        <time>2016-09-14T09:36:28Z</time>
      </trkpt>
      <trkpt lat="46.01251" lon="5.01359">
        <ele>281</ele>
        <time>2016-09-14T09:36:29Z</time>
      </trkpt>
      <trkpt lat="46.01248" lon="5.01368">
        <ele>280</ele>
        <time>2016-09-14T09:36:30Z</time>
      </trkpt>
      <trkpt lat="46.01244" lon="5.01376">
        <ele>280</ele>
        <time>2016-09-14T09:36:31Z</time>
      </trkpt>
      <trkpt lat="46.01241" lon="5.01385">
        <ele>280</ele>
        <time>2016-09-14T09:36:32Z</time>
      </trkpt>
      <trkpt lat="46.01238" lon="5.01394">
        <ele>280</ele>
        <time>2016-09-14T09:36:33Z</time>
      </trkpt>
      <trkpt lat="46.01235" lon="5.01402">
        <ele>280</ele>
        <time>2016-09-14T09:36:34Z</time>
      </trkpt>
      <trkpt lat="46.01231" lon="5.01411">
        <ele>280</ele>
        <time>2016-09-14T09:36:35Z</time>
      </trkpt>
      <trkpt lat="46.01228" lon="5.01419">
        <ele>280</ele>
        <time>2016-09-14T09:36:36Z</time>
      </trkpt>
      <trkpt lat="46.01225" lon="5.01427">
        <ele>280</ele>
        <time>2016-09-14T09:36:37Z</time>
      </trkpt>
      <trkpt lat="46.01222" lon="5.01436">
        <ele>280</ele>
        <time>2016-09-14T09:36:38Z</time>
      </trkpt>
      <trkpt lat="46.01218" lon="5.01444">
        <ele>280</ele>
        <time>2016-09-14T09:36:39Z</time>
      </trkpt>
      <trkpt lat="46.01215" lon="5.01452">
        <ele>280</ele>
        <time>2016-09-14T09:36:40Z</time>
      </trkpt>
      <trkpt lat="46.01212" lon="5.01461">
        <ele>280</ele>
        <time>2016-09-14T09:36:41Z</time>
      </trkpt>
      <trkpt lat="46.01209" lon="5.01469">
        <ele>280</ele>
        <time>2016-09-14T09:36:42Z</time>
      </trkpt>
      <trkpt lat="46.01206" lon="5.01477">
        <ele>280</ele>
        <time>2016-09-14T09:36:43Z</time>
      </trkpt>
      <trkpt lat="46.01203" lon="5.01486">
        <ele>280</ele>
        <time>2016-09-14T09:36:44Z</time>
      </trkpt>
      <trkpt lat="46.012" lon="5.01496">
        <ele>280</ele>
        <time>2016-09-14T09:36:45Z</time>
      </trkpt>
      <trkpt lat="46.01198" lon="5.01505">
        <ele>280</ele>
        <time>2016-09-14T09:36:46Z</time>
      </trkpt>
      <trkpt lat="46.01196" lon="5.01514">
        <ele>280</ele>
        <time>2016-09-14T09:36:47Z</time>
      </trkpt>
      <trkpt lat="46.01193" lon="5.01524">
        <ele>280</ele>
        <time>2016-09-14T09:36:48Z</time>
      </trkpt>
      <trkpt lat="46.0119" lon="5.01532">
        <ele>280</ele>
        <time>2016-09-14T09:36:49Z</time>
      </trkpt>
      <trkpt lat="46.01187" lon="5.01541">
        <ele>280</ele>
        <time>2016-09-14T09:36:50Z</time>
      </trkpt>
      <trkpt lat="46.01184" lon="5.0155">
        <ele>280</ele>
        <time>2016-09-14T09:36:51Z</time>
      </trkpt>
      <trkpt lat="46.01181" lon="5.01558">
        <ele>280</ele>
        <time>2016-09-14T09:36:52Z</time>
      </trkpt>
      <trkpt lat="46.01178" lon="5.01567">
        <ele>280</ele>
        <time>2016-09-14T09:36:53Z</time>
      </trkpt>
      <trkpt lat="46.01174" lon="5.01575">
        <ele>281</ele>
        <time>2016-09-14T09:36:54Z</time>
      </trkpt>
      <trkpt lat="46.0117" lon="5.01583">
        <ele>281</ele>
        <time>2016-09-14T09:36:55Z</time>
      </trkpt>
      <trkpt lat="46.01166" lon="5.01592">
        <ele>281</ele>
        <time>2016-09-14T09:36:56Z</time>
      </trkpt>
      <trkpt lat="46.01163" lon="5.016">
        <ele>281</ele>
        <time>2016-09-14T09:36:57Z</time>
      </trkpt>
      <trkpt lat="46.0116" lon="5.01609">
        <ele>281</ele>
        <time>2016-09-14T09:36:58Z</time>
      </trkpt>
      <trkpt lat="46.01156" lon="5.01618">
        <ele>281</ele>
        <time>2016-09-14T09:36:59Z</time>
      </trkpt>
      <trkpt lat="46.01152" lon="5.01627">
        <ele>280</ele>
        <time>2016-09-14T09:37:00Z</time>
      </trkpt>
      <trkpt lat="46.01148" lon="5.01636">
        <ele>280</ele>
        <time>2016-09-14T09:37:01Z</time>
      </trkpt>
      <trkpt lat="46.01144" lon="5.01645">
        <ele>280</ele>
        <time>2016-09-14T09:37:02Z</time>
      </trkpt>
      <trkpt lat="46.01141" lon="5.01653">
        <ele>280</ele>
        <time>2016-09-14T09:37:03Z</time>
      </trkpt>
      <trkpt lat="46.01137" lon="5.01663">
        <ele>280</ele>
        <time>2016-09-14T09:37:04Z</time>
      </trkpt>
      <trkpt lat="46.01134" lon="5.01672">
        <ele>280</ele>
        <time>2016-09-14T09:37:05Z</time>
      </trkpt>
      <trkpt lat="46.01131" lon="5.01681">
        <ele>280</ele>
        <time>2016-09-14T09:37:06Z</time>
      </trkpt>
      <trkpt lat="46.01128" lon="5.0169">
        <ele>279</ele>
        <time>2016-09-14T09:37:07Z</time>
      </trkpt>
      <trkpt lat="46.01124" lon="5.01698">
        <ele>279</ele>
        <time>2016-09-14T09:37:08Z</time>
      </trkpt>
      <trkpt lat="46.01121" lon="5.01707">
        <ele>279</ele>
        <time>2016-09-14T09:37:09Z</time>
      </trkpt>
      <trkpt lat="46.01118" lon="5.01715">
        <ele>279</ele>
        <time>2016-09-14T09:37:10Z</time>
      </trkpt>
      <trkpt lat="46.01115" lon="5.01722">
        <ele>279</ele>
        <time>2016-09-14T09:37:11Z</time>
      </trkpt>
      <trkpt lat="46.01111" lon="5.0173">
        <ele>279</ele>
        <time>2016-09-14T09:37:12Z</time>
      </trkpt>
      <trkpt lat="46.01108" lon="5.01737">
        <ele>279</ele>
        <time>2016-09-14T09:37:13Z</time>
      </trkpt>
      <trkpt lat="46.01104" lon="5.01745">
        <ele>279</ele>
        <time>2016-09-14T09:37:14Z</time>
      </trkpt>
      <trkpt lat="46.01101" lon="5.01753">
        <ele>278</ele>
        <time>2016-09-14T09:37:15Z</time>
      </trkpt>
      <trkpt lat="46.01097" lon="5.0176">
        <ele>278</ele>
        <time>2016-09-14T09:37:16Z</time>
      </trkpt>
      <trkpt lat="46.01092" lon="5.01769">
        <ele>278</ele>
        <time>2016-09-14T09:37:17Z</time>
      </trkpt>
      <trkpt lat="46.01089" lon="5.01777">
        <ele>278</ele>
        <time>2016-09-14T09:37:18Z</time>
      </trkpt>
      <trkpt lat="46.01085" lon="5.01785">
        <ele>278</ele>
        <time>2016-09-14T09:37:19Z</time>
      </trkpt>
      <trkpt lat="46.01082" lon="5.01794">
        <ele>278</ele>
        <time>2016-09-14T09:37:20Z</time>
      </trkpt>
      <trkpt lat="46.01078" lon="5.01803">
        <ele>278</ele>
        <time>2016-09-14T09:37:21Z</time>
      </trkpt>
      <trkpt lat="46.01075" lon="5.01812">
        <ele>278</ele>
        <time>2016-09-14T09:37:22Z</time>
      </trkpt>
      <trkpt lat="46.01072" lon="5.01821">
        <ele>278</ele>
        <time>2016-09-14T09:37:23Z</time>
      </trkpt>
      <trkpt lat="46.01068" lon="5.01829">
        <ele>278</ele>
        <time>2016-09-14T09:37:24Z</time>
      </trkpt>
      <trkpt lat="46.01065" lon="5.01837">
        <ele>278</ele>
        <time>2016-09-14T09:37:25Z</time>
      </trkpt>
      <trkpt lat="46.01062" lon="5.01844">
        <ele>278</ele>
        <time>2016-09-14T09:37:26Z</time>
      </trkpt>
      <trkpt lat="46.01059" lon="5.01852">
        <ele>278</ele>
        <time>2016-09-14T09:37:27Z</time>
      </trkpt>
      <trkpt lat="46.01055" lon="5.01859">
        <ele>278</ele>
        <time>2016-09-14T09:37:28Z</time>
      </trkpt>
      <trkpt lat="46.01052" lon="5.01866">
        <ele>278</ele>
        <time>2016-09-14T09:37:29Z</time>
      </trkpt>
      <trkpt lat="46.01049" lon="5.01874">
        <ele>277</ele>
        <time>2016-09-14T09:37:30Z</time>
      </trkpt>
      <trkpt lat="46.01046" lon="5.01881">
        <ele>277</ele>
        <time>2016-09-14T09:37:31Z</time>
      </trkpt>
      <trkpt lat="46.01043" lon="5.01888">
        <ele>277</ele>
        <time>2016-09-14T09:37:32Z</time>
      </trkpt>
      <trkpt lat="46.01039" lon="5.01896">
        <ele>277</ele>
        <time>2016-09-14T09:37:33Z</time>
      </trkpt>
      <trkpt lat="46.01036" lon="5.01903">
        <ele>277</ele>
        <time>2016-09-14T09:37:34Z</time>
      </trkpt>
      <trkpt lat="46.01033" lon="5.0191">
        <ele>277</ele>
        <time>2016-09-14T09:37:35Z</time>
      </trkpt>
      <trkpt lat="46.0103" lon="5.01917">
        <ele>277</ele>
        <time>2016-09-14T09:37:36Z</time>
      </trkpt>
      <trkpt lat="46.01026" lon="5.01925">
        <ele>277</ele>
        <time>2016-09-14T09:37:37Z</time>
      </trkpt>
      <trkpt lat="46.01023" lon="5.01932">
        <ele>277</ele>
        <time>2016-09-14T09:37:38Z</time>
      </trkpt>
      <trkpt lat="46.01019" lon="5.01939">
        <ele>277</ele>
        <time>2016-09-14T09:37:39Z</time>
      </trkpt>
      <trkpt lat="46.01015" lon="5.01947">
        <ele>277</ele>
        <time>2016-09-14T09:37:40Z</time>
      </trkpt>
      <trkpt lat="46.01012" lon="5.01955">
        <ele>277</ele>
        <time>2016-09-14T09:37:41Z</time>
      </trkpt>
      <trkpt lat="46.01009" lon="5.01963">
        <ele>277</ele>
        <time>2016-09-14T09:37:42Z</time>
      </trkpt>
      <trkpt lat="46.01006" lon="5.01971">
        <ele>277</ele>
        <time>2016-09-14T09:37:43Z</time>
      </trkpt>
      <trkpt lat="46.01003" lon="5.01979">
        <ele>277</ele>
        <time>2016-09-14T09:37:44Z</time>
      </trkpt>
      <trkpt lat="46.00999" lon="5.01987">
        <ele>278</ele>
        <time>2016-09-14T09:37:45Z</time>
      </trkpt>
      <trkpt lat="46.00996" lon="5.01994">
        <ele>278</ele>
        <time>2016-09-14T09:37:46Z</time>
      </trkpt>
      <trkpt lat="46.00992" lon="5.02001">
        <ele>278</ele>
        <time>2016-09-14T09:37:47Z</time>
      </trkpt>
      <trkpt lat="46.00989" lon="5.02008">
        <ele>278</ele>
        <time>2016-09-14T09:37:48Z</time>
      </trkpt>
      <trkpt lat="46.00986" lon="5.02015">
        <ele>278</ele>
        <time>2016-09-14T09:37:49Z</time>
      </trkpt>
      <trkpt lat="46.00983" lon="5.02022">
        <ele>278</ele>
        <time>2016-09-14T09:37:50Z</time>
      </trkpt>
      <trkpt lat="46.0098" lon="5.02029">
        <ele>278</ele>
        <time>2016-09-14T09:37:51Z</time>
      </trkpt>
      <trkpt lat="46.00977" lon="5.02037">
        <ele>278</ele>
        <time>2016-09-14T09:37:52Z</time>
      </trkpt>
      <trkpt lat="46.00973" lon="5.02044">
        <ele>278</ele>
        <time>2016-09-14T09:37:53Z</time>
      </trkpt>
      <trkpt lat="46.0097" lon="5.02052">
        <ele>278</ele>
        <time>2016-09-14T09:37:54Z</time>
      </trkpt>
      <trkpt lat="46.00967" lon="5.02059">
        <ele>278</ele>
        <time>2016-09-14T09:37:55Z</time>
      </trkpt>
      <trkpt lat="46.00963" lon="5.02067">
        <ele>278</ele>
        <time>2016-09-14T09:37:56Z</time>
      </trkpt>
      <trkpt lat="46.0096" lon="5.02075">
        <ele>278</ele>
        <time>2016-09-14T09:37:57Z</time>
      </trkpt>
      <trkpt lat="46.00956" lon="5.02083">
        <ele>278</ele>
        <time>2016-09-14T09:37:58Z</time>
      </trkpt>
      <trkpt lat="46.00952" lon="5.02091">
        <ele>277</ele>
        <time>2016-09-14T09:37:59Z</time>
      </trkpt>
      <trkpt lat="46.00948" lon="5.02099">
        <ele>277</ele>
        <time>2016-09-14T09:38:00Z</time>
      </trkpt>
      <trkpt lat="46.00945" lon="5.02107">
        <ele>277</ele>
        <time>2016-09-14T09:38:01Z</time>
      </trkpt>
      <trkpt lat="46.00941" lon="5.02114">
        <ele>277</ele>
        <time>2016-09-14T09:38:02Z</time>
      </trkpt>
      <trkpt lat="46.00937" lon="5.02121">
        <ele>277</ele>
        <time>2016-09-14T09:38:03Z</time>
      </trkpt>
      <trkpt lat="46.00934" lon="5.02129">
        <ele>277</ele>
        <time>2016-09-14T09:38:04Z</time>
      </trkpt>
      <trkpt lat="46.0093" lon="5.02136">
        <ele>277</ele>
        <time>2016-09-14T09:38:05Z</time>
      </trkpt>
      <trkpt lat="46.00927" lon="5.02143">
        <ele>277</ele>
        <time>2016-09-14T09:38:06Z</time>
      </trkpt>
      <trkpt lat="46.00924" lon="5.0215">
        <ele>277</ele>
        <time>2016-09-14T09:38:07Z</time>
      </trkpt>
      <trkpt lat="46.00919" lon="5.02157">
        <ele>277</ele>
        <time>2016-09-14T09:38:08Z</time>
      </trkpt>
      <trkpt lat="46.00916" lon="5.02164">
        <ele>277</ele>
        <time>2016-09-14T09:38:09Z</time>
      </trkpt>
      <trkpt lat="46.00912" lon="5.02171">
        <ele>277</ele>
        <time>2016-09-14T09:38:10Z</time>
      </trkpt>
      <trkpt lat="46.00909" lon="5.02178">
        <ele>277</ele>
        <time>2016-09-14T09:38:11Z</time>
      </trkpt>
      <trkpt lat="46.00905" lon="5.02185">
        <ele>277</ele>
        <time>2016-09-14T09:38:12Z</time>
      </trkpt>
      <trkpt lat="46.00902" lon="5.02192">
        <ele>277</ele>
        <time>2016-09-14T09:38:13Z</time>
      </trkpt>
      <trkpt lat="46.00898" lon="5.022">
        <ele>277</ele>
        <time>2016-09-14T09:38:14Z</time>
      </trkpt>
      <trkpt lat="46.00895" lon="5.02206">
        <ele>277</ele>
        <time>2016-09-14T09:38:15Z</time>
      </trkpt>
      <trkpt lat="46.00892" lon="5.02214">
        <ele>277</ele>
        <time>2016-09-14T09:38:16Z</time>
      </trkpt>
      <trkpt lat="46.00888" lon="5.02221">
        <ele>277</ele>
        <time>2016-09-14T09:38:17Z</time>
      </trkpt>
      <trkpt lat="46.00884" lon="5.02228">
        <ele>277</ele>
        <time>2016-09-14T09:38:18Z</time>
      </trkpt>
      <trkpt lat="46.0088" lon="5.02236">
        <ele>277</ele>
        <time>2016-09-14T09:38:19Z</time>
      </trkpt>
      <trkpt lat="46.00876" lon="5.02244">
        <ele>277</ele>
        <time>2016-09-14T09:38:20Z</time>
      </trkpt>
      <trkpt lat="46.00872" lon="5.02252">
        <ele>277</ele>
        <time>2016-09-14T09:38:21Z</time>
      </trkpt>
      <trkpt lat="46.00868" lon="5.0226">
        <ele>277</ele>
        <time>2016-09-14T09:38:22Z</time>
      </trkpt>
      <trkpt lat="46.00863" lon="5.02267">
        <ele>277</ele>
        <time>2016-09-14T09:38:23Z</time>
      </trkpt>
      <trkpt lat="46.00858" lon="5.02275">
        <ele>277</ele>
        <time>2016-09-14T09:38:24Z</time>
      </trkpt>
      <trkpt lat="46.00853" lon="5.02281">
        <ele>277</ele>
        <time>2016-09-14T09:38:25Z</time>
      </trkpt>
      <trkpt lat="46.00848" lon="5.02287">
        <ele>277</ele>
        <time>2016-09-14T09:38:26Z</time>
      </trkpt>
      <trkpt lat="46.00842" lon="5.02291">
        <ele>277</ele>
        <time>2016-09-14T09:38:27Z</time>
      </trkpt>
      <trkpt lat="46.00836" lon="5.02295">
        <ele>277</ele>
        <time>2016-09-14T09:38:28Z</time>
      </trkpt>
      <trkpt lat="46.00832" lon="5.023">
        <ele>276</ele>
        <time>2016-09-14T09:38:29Z</time>
      </trkpt>
      <trkpt lat="46.00827" lon="5.02304">
        <ele>276</ele>
        <time>2016-09-14T09:38:30Z</time>
      </trkpt>
      <trkpt lat="46.00821" lon="5.02309">
        <ele>276</ele>
        <time>2016-09-14T09:38:31Z</time>
      </trkpt>
      <trkpt lat="46.00816" lon="5.02313">
        <ele>276</ele>
        <time>2016-09-14T09:38:32Z</time>
      </trkpt>
      <trkpt lat="46.0081" lon="5.02317">
        <ele>276</ele>
        <time>2016-09-14T09:38:33Z</time>
      </trkpt>
      <trkpt lat="46.00804" lon="5.02321">
        <ele>276</ele>
        <time>2016-09-14T09:38:34Z</time>
      </trkpt>
      <trkpt lat="46.00798" lon="5.02325">
        <ele>276</ele>
        <time>2016-09-14T09:38:35Z</time>
      </trkpt>
      <trkpt lat="46.00792" lon="5.02329">
        <ele>276</ele>
        <time>2016-09-14T09:38:36Z</time>
      </trkpt>
      <trkpt lat="46.00786" lon="5.02334">
        <ele>276</ele>
        <time>2016-09-14T09:38:37Z</time>
      </trkpt>
      <trkpt lat="46.0078" lon="5.02338">
        <ele>276</ele>
        <time>2016-09-14T09:38:38Z</time>
      </trkpt>
      <trkpt lat="46.00773" lon="5.02342">
        <ele>276</ele>
        <time>2016-09-14T09:38:39Z</time>
      </trkpt>
      <trkpt lat="46.00766" lon="5.02347">
        <ele>276</ele>
        <time>2016-09-14T09:38:40Z</time>
      </trkpt>
      <trkpt lat="46.0076" lon="5.02352">
        <ele>276</ele>
        <time>2016-09-14T09:38:41Z</time>
      </trkpt>
      <trkpt lat="46.00753" lon="5.02357">
        <ele>275</ele>
        <time>2016-09-14T09:38:42Z</time>
      </trkpt>
      <trkpt lat="46.00746" lon="5.02362">
        <ele>275</ele>
        <time>2016-09-14T09:38:43Z</time>
      </trkpt>
      <trkpt lat="46.0074" lon="5.02367">
        <ele>275</ele>
        <time>2016-09-14T09:38:44Z</time>
      </trkpt>
      <trkpt lat="46.00734" lon="5.02372">
        <ele>275</ele>
        <time>2016-09-14T09:38:45Z</time>
      </trkpt>
      <trkpt lat="46.00727" lon="5.02377">
        <ele>275</ele>
        <time>2016-09-14T09:38:46Z</time>
      </trkpt>
      <trkpt lat="46.00722" lon="5.02382">
        <ele>275</ele>
        <time>2016-09-14T09:38:47Z</time>
      </trkpt>
      <trkpt lat="46.00717" lon="5.02386">
        <ele>274</ele>
        <time>2016-09-14T09:38:48Z</time>
      </trkpt>
      <trkpt lat="46.00712" lon="5.02391">
        <ele>274</ele>
        <time>2016-09-14T09:38:49Z</time>
      </trkpt>
      <trkpt lat="46.00707" lon="5.02395">
        <ele>274</ele>
        <time>2016-09-14T09:38:50Z</time>
      </trkpt>
      <trkpt lat="46.00702" lon="5.02398">
        <ele>274</ele>
        <time>2016-09-14T09:38:51Z</time>
      </trkpt>
      <trkpt lat="46.00697" lon="5.02402">
        <ele>274</ele>
        <time>2016-09-14T09:38:52Z</time>
      </trkpt>
      <trkpt lat="46.00691" lon="5.02406">
        <ele>274</ele>
        <time>2016-09-14T09:38:53Z</time>
      </trkpt>
      <trkpt lat="46.00686" lon="5.0241">
        <ele>274</ele>
        <time>2016-09-14T09:38:54Z</time>
      </trkpt>
      <trkpt lat="46.0068" lon="5.02415">
        <ele>274</ele>
        <time>2016-09-14T09:38:55Z</time>
      </trkpt>
      <trkpt lat="46.00674" lon="5.02419">
        <ele>274</ele>
        <time>2016-09-14T09:38:56Z</time>
      </trkpt>
      <trkpt lat="46.00668" lon="5.02424">
        <ele>274</ele>
        <time>2016-09-14T09:38:57Z</time>
      </trkpt>
      <trkpt lat="46.00662" lon="5.02428">
        <ele>274</ele>
        <time>2016-09-14T09:38:58Z</time>
      </trkpt>
      <trkpt lat="46.00656" lon="5.02432">
        <ele>274</ele>
        <time>2016-09-14T09:38:59Z</time>
      </trkpt>
      <trkpt lat="46.00651" lon="5.02437">
        <ele>274</ele>
        <time>2016-09-14T09:39:00Z</time>
      </trkpt>
      <trkpt lat="46.00646" lon="5.02441">
        <ele>274</ele>
        <time>2016-09-14T09:39:01Z</time>
      </trkpt>
      <trkpt lat="46.00642" lon="5.02446">
        <ele>274</ele>
        <time>2016-09-14T09:39:02Z</time>
      </trkpt>
      <trkpt lat="46.00637" lon="5.0245">
        <ele>274</ele>
        <time>2016-09-14T09:39:03Z</time>
      </trkpt>
      <trkpt lat="46.00632" lon="5.02454">
        <ele>274</ele>
        <time>2016-09-14T09:39:04Z</time>
      </trkpt>
      <trkpt lat="46.00628" lon="5.02458">
        <ele>274</ele>
        <time>2016-09-14T09:39:05Z</time>
      </trkpt>
      <trkpt lat="46.00623" lon="5.02462">
        <ele>274</ele>
        <time>2016-09-14T09:39:06Z</time>
      </trkpt>
      <trkpt lat="46.00618" lon="5.02466">
        <ele>274</ele>
        <time>2016-09-14T09:39:07Z</time>
      </trkpt>
      <trkpt lat="46.00614" lon="5.0247">
        <ele>274</ele>
        <time>2016-09-14T09:39:08Z</time>
      </trkpt>
      <trkpt lat="46.00609" lon="5.02475">
        <ele>274</ele>
        <time>2016-09-14T09:39:09Z</time>
      </trkpt>
      <trkpt lat="46.00604" lon="5.02479">
        <ele>274</ele>
        <time>2016-09-14T09:39:10Z</time>
      </trkpt>
      <trkpt lat="46.00599" lon="5.02483">
        <ele>274</ele>
        <time>2016-09-14T09:39:11Z</time>
      </trkpt>
      <trkpt lat="46.00593" lon="5.02488">
        <ele>274</ele>
        <time>2016-09-14T09:39:12Z</time>
      </trkpt>
      <trkpt lat="46.00588" lon="5.02493">
        <ele>274</ele>
        <time>2016-09-14T09:39:13Z</time>
      </trkpt>
      <trkpt lat="46.00582" lon="5.02498">
        <ele>274</ele>
        <time>2016-09-14T09:39:14Z</time>
      </trkpt>
      <trkpt lat="46.00577" lon="5.02502">
        <ele>274</ele>
        <time>2016-09-14T09:39:15Z</time>
      </trkpt>
      <trkpt lat="46.00572" lon="5.02506">
        <ele>275</ele>
        <time>2016-09-14T09:39:16Z</time>
      </trkpt>
      <trkpt lat="46.00567" lon="5.0251">
        <ele>275</ele>
        <time>2016-09-14T09:39:17Z</time>
      </trkpt>
      <trkpt lat="46.00563" lon="5.02514">
        <ele>275</ele>
        <time>2016-09-14T09:39:18Z</time>
      </trkpt>
      <trkpt lat="46.00558" lon="5.02517">
        <ele>275</ele>
        <time>2016-09-14T09:39:19Z</time>
      </trkpt>
      <trkpt lat="46.00554" lon="5.02521">
        <ele>275</ele>
        <time>2016-09-14T09:39:20Z</time>
      </trkpt>
      <trkpt lat="46.00551" lon="5.02525">
        <ele>276</ele>
        <time>2016-09-14T09:39:21Z</time>
      </trkpt>
      <trkpt lat="46.00547" lon="5.02528">
        <ele>276</ele>
        <time>2016-09-14T09:39:22Z</time>
      </trkpt>
      <trkpt lat="46.0054" lon="5.02536">
        <ele>276</ele>
        <time>2016-09-14T09:39:24Z</time>
      </trkpt>
      <trkpt lat="46.00537" lon="5.0254">
        <ele>276</ele>
        <time>2016-09-14T09:39:25Z</time>
      </trkpt>
      <trkpt lat="46.00533" lon="5.02543">
        <ele>276</ele>
        <time>2016-09-14T09:39:26Z</time>
      </trkpt>
      <trkpt lat="46.00529" lon="5.02547">
        <ele>276</ele>
        <time>2016-09-14T09:39:27Z</time>
      </trkpt>
      <trkpt lat="46.00525" lon="5.02551">
        <ele>276</ele>
        <time>2016-09-14T09:39:28Z</time>
      </trkpt>
      <trkpt lat="46.0052" lon="5.02555">
        <ele>276</ele>
        <time>2016-09-14T09:39:29Z</time>
      </trkpt>
      <trkpt lat="46.00516" lon="5.02559">
        <ele>276</ele>
        <time>2016-09-14T09:39:30Z</time>
      </trkpt>
      <trkpt lat="46.00511" lon="5.02563">
        <ele>277</ele>
        <time>2016-09-14T09:39:31Z</time>
      </trkpt>
      <trkpt lat="46.00507" lon="5.02567">
        <ele>277</ele>
        <time>2016-09-14T09:39:32Z</time>
      </trkpt>
      <trkpt lat="46.00502" lon="5.02571">
        <ele>277</ele>
        <time>2016-09-14T09:39:33Z</time>
      </trkpt>
      <trkpt lat="46.00498" lon="5.02576">
        <ele>278</ele>
        <time>2016-09-14T09:39:34Z</time>
      </trkpt>
      <trkpt lat="46.00494" lon="5.0258">
        <ele>278</ele>
        <time>2016-09-14T09:39:35Z</time>
      </trkpt>
      <trkpt lat="46.00489" lon="5.02584">
        <ele>278</ele>
        <time>2016-09-14T09:39:36Z</time>
      </trkpt>
      <trkpt lat="46.00484" lon="5.02588">
        <ele>278</ele>
        <time>2016-09-14T09:39:37Z</time>
      </trkpt>
      <trkpt lat="46.0048" lon="5.02592">
        <ele>278</ele>
        <time>2016-09-14T09:39:38Z</time>
      </trkpt>
      <trkpt lat="46.00475" lon="5.02596">
        <ele>278</ele>
        <time>2016-09-14T09:39:39Z</time>
      </trkpt>
      <trkpt lat="46.0047" lon="5.026">
        <ele>278</ele>
        <time>2016-09-14T09:39:40Z</time>
      </trkpt>
      <trkpt lat="46.00466" lon="5.02605">
        <ele>278</ele>
        <time>2016-09-14T09:39:41Z</time>
      </trkpt>
      <trkpt lat="46.00461" lon="5.02609">
        <ele>278</ele>
        <time>2016-09-14T09:39:42Z</time>
      </trkpt>
      <trkpt lat="46.00457" lon="5.02613">
        <ele>278</ele>
        <time>2016-09-14T09:39:43Z</time>
      </trkpt>
      <trkpt lat="46.00453" lon="5.02617">
        <ele>278</ele>
        <time>2016-09-14T09:39:44Z</time>
      </trkpt>
      <trkpt lat="46.00449" lon="5.02621">
        <ele>278</ele>
        <time>2016-09-14T09:39:45Z</time>
      </trkpt>
      <trkpt lat="46.00445" lon="5.02625">
        <ele>278</ele>
        <time>2016-09-14T09:39:46Z</time>
      </trkpt>
      <trkpt lat="46.00441" lon="5.02628">
        <ele>278</ele>
        <time>2016-09-14T09:39:47Z</time>
      </trkpt>
      <trkpt lat="46.00436" lon="5.02633">
        <ele>278</ele>
        <time>2016-09-14T09:39:48Z</time>
      </trkpt>
      <trkpt lat="46.00431" lon="5.02637">
        <ele>278</ele>
        <time>2016-09-14T09:39:49Z</time>
      </trkpt>
      <trkpt lat="46.00427" lon="5.02641">
        <ele>278</ele>
        <time>2016-09-14T09:39:50Z</time>
      </trkpt>
      <trkpt lat="46.00422" lon="5.02647">
        <ele>278</ele>
        <time>2016-09-14T09:39:51Z</time>
      </trkpt>
      <trkpt lat="46.00417" lon="5.02653">
        <ele>278</ele>
        <time>2016-09-14T09:39:52Z</time>
      </trkpt>
      <trkpt lat="46.00412" lon="5.02657">
        <ele>278</ele>
        <time>2016-09-14T09:39:53Z</time>
      </trkpt>
      <trkpt lat="46.00408" lon="5.02661">
        <ele>278</ele>
        <time>2016-09-14T09:39:54Z</time>
      </trkpt>
      <trkpt lat="46.00405" lon="5.02665">
        <ele>278</ele>
        <time>2016-09-14T09:39:55Z</time>
      </trkpt>
      <trkpt lat="46.00401" lon="5.02669">
        <ele>278</ele>
        <time>2016-09-14T09:39:56Z</time>
      </trkpt>
      <trkpt lat="46.00396" lon="5.02672">
        <ele>278</ele>
        <time>2016-09-14T09:39:57Z</time>
      </trkpt>
      <trkpt lat="46.00392" lon="5.02676">
        <ele>278</ele>
        <time>2016-09-14T09:39:58Z</time>
      </trkpt>
      <trkpt lat="46.00388" lon="5.02679">
        <ele>278</ele>
        <time>2016-09-14T09:39:59Z</time>
      </trkpt>
      <trkpt lat="46.00384" lon="5.02683">
        <ele>278</ele>
        <time>2016-09-14T09:40:00Z</time>
      </trkpt>
      <trkpt lat="46.00381" lon="5.02688">
        <ele>278</ele>
        <time>2016-09-14T09:40:01Z</time>
      </trkpt>
      <trkpt lat="46.00377" lon="5.02692">
        <ele>278</ele>
        <time>2016-09-14T09:40:02Z</time>
      </trkpt>
      <trkpt lat="46.00373" lon="5.02696">
        <ele>278</ele>
        <time>2016-09-14T09:40:03Z</time>
      </trkpt>
      <trkpt lat="46.00367" lon="5.02702">
        <ele>278</ele>
        <time>2016-09-14T09:40:05Z</time>
      </trkpt>
      <trkpt lat="46.00364" lon="5.02705">
        <ele>278</ele>
        <time>2016-09-14T09:40:06Z</time>
      </trkpt>
      <trkpt lat="46.00357" lon="5.02709">
        <ele>279</ele>
        <time>2016-09-14T09:40:08Z</time>
      </trkpt>
      <trkpt lat="46.00353" lon="5.0271">
        <ele>279</ele>
        <time>2016-09-14T09:40:09Z</time>
      </trkpt>
      <trkpt lat="46.00346" lon="5.02709">
        <ele>279</ele>
        <time>2016-09-14T09:40:11Z</time>
      </trkpt>
      <trkpt lat="46.00343" lon="5.02707">
        <ele>278</ele>
        <time>2016-09-14T09:40:12Z</time>
      </trkpt>
      <trkpt lat="46.00338" lon="5.02701">
        <ele>278</ele>
        <time>2016-09-14T09:40:14Z</time>
      </trkpt>
      <trkpt lat="46.00336" lon="5.02697">
        <ele>278</ele>
        <time>2016-09-14T09:40:15Z</time>
      </trkpt>
      <trkpt lat="46.00329" lon="5.0269">
        <ele>278</ele>
        <time>2016-09-14T09:40:17Z</time>
      </trkpt>
      <trkpt lat="46.00325" lon="5.02686">
        <ele>278</ele>
        <time>2016-09-14T09:40:18Z</time>
      </trkpt>
      <trkpt lat="46.00322" lon="5.02682">
        <ele>278</ele>
        <time>2016-09-14T09:40:19Z</time>
      </trkpt>
      <trkpt lat="46.00318" lon="5.02678">
        <ele>278</ele>
        <time>2016-09-14T09:40:20Z</time>
      </trkpt>
      <trkpt lat="46.00312" lon="5.0267">
        <ele>278</ele>
        <time>2016-09-14T09:40:22Z</time>
      </trkpt>
      <trkpt lat="46.0031" lon="5.02666">
        <ele>278</ele>
        <time>2016-09-14T09:40:23Z</time>
      </trkpt>
      <trkpt lat="46.00303" lon="5.02659">
        <ele>278</ele>
        <time>2016-09-14T09:40:25Z</time>
      </trkpt>
      <trkpt lat="46.00301" lon="5.02656">
        <ele>278</ele>
        <time>2016-09-14T09:40:26Z</time>
      </trkpt>
      <trkpt lat="46.00294" lon="5.02649">
        <ele>278</ele>
        <time>2016-09-14T09:40:28Z</time>
      </trkpt>
      <trkpt lat="46.00291" lon="5.02645">
        <ele>278</ele>
        <time>2016-09-14T09:40:29Z</time>
      </trkpt>
      <trkpt lat="46.00285" lon="5.02637">
        <ele>278</ele>
        <time>2016-09-14T09:40:31Z</time>
      </trkpt>
      <trkpt lat="46.0028" lon="5.02632">
        <ele>278</ele>
        <time>2016-09-14T09:40:32Z</time>
      </trkpt>
      <trkpt lat="46.00276" lon="5.02628">
        <ele>278</ele>
        <time>2016-09-14T09:40:33Z</time>
      </trkpt>
      <trkpt lat="46.00274" lon="5.02622">
        <ele>278</ele>
        <time>2016-09-14T09:40:34Z</time>
      </trkpt>
      <trkpt lat="46.00272" lon="5.02615">
        <ele>278</ele>
        <time>2016-09-14T09:40:35Z</time>
      </trkpt>
      <trkpt lat="46.00271" lon="5.02608">
        <ele>278</ele>
        <time>2016-09-14T09:40:36Z</time>
      </trkpt>
      <trkpt lat="46.0027" lon="5.02601">
        <ele>278</ele>
        <time>2016-09-14T09:40:37Z</time>
      </trkpt>
      <trkpt lat="46.00268" lon="5.02595">
        <ele>277</ele>
        <time>2016-09-14T09:40:38Z</time>
      </trkpt>
      <trkpt lat="46.00266" lon="5.02588">
        <ele>277</ele>
        <time>2016-09-14T09:40:39Z</time>
      </trkpt>
      <trkpt lat="46.00264" lon="5.02582">
        <ele>277</ele>
        <time>2016-09-14T09:40:40Z</time>
      </trkpt>
      <trkpt lat="46.00262" lon="5.02575">
        <ele>277</ele>
        <time>2016-09-14T09:40:41Z</time>
      </trkpt>
      <trkpt lat="46.0026" lon="5.02569">
        <ele>277</ele>
        <time>2016-09-14T09:40:42Z</time>
      </trkpt>
      <trkpt lat="46.00258" lon="5.02563">
        <ele>277</ele>
        <time>2016-09-14T09:40:43Z</time>
      </trkpt>
      <trkpt lat="46.00257" lon="5.02557">
        <ele>278</ele>
        <time>2016-09-14T09:40:44Z</time>
      </trkpt>
      <trkpt lat="46.00253" lon="5.02545">
        <ele>278</ele>
        <time>2016-09-14T09:40:46Z</time>
      </trkpt>
      <trkpt lat="46.00252" lon="5.0254">
        <ele>278</ele>
        <time>2016-09-14T09:40:47Z</time>
      </trkpt>
      <trkpt lat="46.00249" lon="5.02529">
        <ele>278</ele>
        <time>2016-09-14T09:40:49Z</time>
      </trkpt>
      <trkpt lat="46.00249" lon="5.02524">
        <ele>278</ele>
        <time>2016-09-14T09:40:50Z</time>
      </trkpt>
      <trkpt lat="46.00246" lon="5.02514">
        <ele>278</ele>
        <time>2016-09-14T09:40:52Z</time>
      </trkpt>
      <trkpt lat="46.00244" lon="5.02509">
        <ele>278</ele>
        <time>2016-09-14T09:40:53Z</time>
      </trkpt>
      <trkpt lat="46.0024" lon="5.02498">
        <ele>278</ele>
        <time>2016-09-14T09:40:55Z</time>
      </trkpt>
      <trkpt lat="46.00239" lon="5.02493">
        <ele>278</ele>
        <time>2016-09-14T09:40:56Z</time>
      </trkpt>
      <trkpt lat="46.00238" lon="5.02482">
        <ele>279</ele>
        <time>2016-09-14T09:40:58Z</time>
      </trkpt>
      <trkpt lat="46.00236" lon="5.02476">
        <ele>279</ele>
        <time>2016-09-14T09:40:59Z</time>
      </trkpt>
      <trkpt lat="46.00234" lon="5.0247">
        <ele>279</ele>
        <time>2016-09-14T09:41:00Z</time>
      </trkpt>
      <trkpt lat="46.00232" lon="5.02463">
        <ele>279</ele>
        <time>2016-09-14T09:41:01Z</time>
      </trkpt>
      <trkpt lat="46.0023" lon="5.02457">
        <ele>279</ele>
        <time>2016-09-14T09:41:02Z</time>
      </trkpt>
      <trkpt lat="46.00228" lon="5.02451">
        <ele>279</ele>
        <time>2016-09-14T09:41:03Z</time>
      </trkpt>
      <trkpt lat="46.00226" lon="5.02444">
        <ele>279</ele>
        <time>2016-09-14T09:41:04Z</time>
      </trkpt>
      <trkpt lat="46.00223" lon="5.02438">
        <ele>279</ele>
        <time>2016-09-14T09:41:05Z</time>
      </trkpt>
      <trkpt lat="46.00221" lon="5.02432">
        <ele>279</ele>
        <time>2016-09-14T09:41:06Z</time>
      </trkpt>
      <trkpt lat="46.0022" lon="5.02426">
        <ele>279</ele>
        <time>2016-09-14T09:41:07Z</time>
      </trkpt>
      <trkpt lat="46.00218" lon="5.02419">
        <ele>279</ele>
        <time>2016-09-14T09:41:08Z</time>
      </trkpt>
      <trkpt lat="46.00216" lon="5.02413">
        <ele>279</ele>
        <time>2016-09-14T09:41:09Z</time>
      </trkpt>
      <trkpt lat="46.00213" lon="5.02407">
        <ele>279</ele>
        <time>2016-09-14T09:41:10Z</time>
      </trkpt>
      <trkpt lat="46.00211" lon="5.02401">
        <ele>279</ele>
        <time>2016-09-14T09:41:11Z</time>
      </trkpt>
      <trkpt lat="46.00209" lon="5.02396">
        <ele>279</ele>
        <time>2016-09-14T09:41:12Z</time>
      </trkpt>
      <trkpt lat="46.00206" lon="5.0239">
        <ele>279</ele>
        <time>2016-09-14T09:41:13Z</time>
      </trkpt>
      <trkpt lat="46.00204" lon="5.02384">
        <ele>279</ele>
        <time>2016-09-14T09:41:14Z</time>
      </trkpt>
      <trkpt lat="46.00202" lon="5.02377">
        <ele>279</ele>
        <time>2016-09-14T09:41:15Z</time>
      </trkpt>
      <trkpt lat="46.00201" lon="5.02371">
        <ele>279</ele>
        <time>2016-09-14T09:41:16Z</time>
      </trkpt>
      <trkpt lat="46.00199" lon="5.02365">
        <ele>279</ele>
        <time>2016-09-14T09:41:17Z</time>
      </trkpt>
      <trkpt lat="46.00197" lon="5.02358">
        <ele>279</ele>
        <time>2016-09-14T09:41:18Z</time>
      </trkpt>
      <trkpt lat="46.00196" lon="5.02351">
        <ele>278</ele>
        <time>2016-09-14T09:41:19Z</time>
      </trkpt>
      <trkpt lat="46.00194" lon="5.02343">
        <ele>278</ele>
        <time>2016-09-14T09:41:20Z</time>
      </trkpt>
      <trkpt lat="46.00191" lon="5.02336">
        <ele>278</ele>
        <time>2016-09-14T09:41:21Z</time>
      </trkpt>
      <trkpt lat="46.00189" lon="5.02328">
        <ele>277</ele>
        <time>2016-09-14T09:41:22Z</time>
      </trkpt>
      <trkpt lat="46.00187" lon="5.0232">
        <ele>277</ele>
        <time>2016-09-14T09:41:23Z</time>
      </trkpt>
      <trkpt lat="46.00185" lon="5.02311">
        <ele>277</ele>
        <time>2016-09-14T09:41:24Z</time>
      </trkpt>
      <trkpt lat="46.00182" lon="5.02301">
        <ele>277</ele>
        <time>2016-09-14T09:41:25Z</time>
      </trkpt>
      <trkpt lat="46.00179" lon="5.02293">
        <ele>277</ele>
        <time>2016-09-14T09:41:26Z</time>
      </trkpt>
      <trkpt lat="46.00176" lon="5.02284">
        <ele>277</ele>
        <time>2016-09-14T09:41:27Z</time>
      </trkpt>
      <trkpt lat="46.00173" lon="5.02275">
        <ele>277</ele>
        <time>2016-09-14T09:41:28Z</time>
      </trkpt>
      <trkpt lat="46.0017" lon="5.02266">
        <ele>277</ele>
        <time>2016-09-14T09:41:29Z</time>
      </trkpt>
      <trkpt lat="46.00166" lon="5.02258">
        <ele>276</ele>
        <time>2016-09-14T09:41:30Z</time>
      </trkpt>
      <trkpt lat="46.00163" lon="5.0225">
        <ele>276</ele>
        <time>2016-09-14T09:41:31Z</time>
      </trkpt>
      <trkpt lat="46.0016" lon="5.02241">
        <ele>276</ele>
        <time>2016-09-14T09:41:32Z</time>
      </trkpt>
      <trkpt lat="46.00158" lon="5.02232">
        <ele>275</ele>
        <time>2016-09-14T09:41:33Z</time>
      </trkpt>
      <trkpt lat="46.00157" lon="5.02224">
        <ele>275</ele>
        <time>2016-09-14T09:41:34Z</time>
      </trkpt>
      <trkpt lat="46.00155" lon="5.02215">
        <ele>275</ele>
        <time>2016-09-14T09:41:35Z</time>
      </trkpt>
      <trkpt lat="46.00152" lon="5.02206">
        <ele>275</ele>
        <time>2016-09-14T09:41:36Z</time>
      </trkpt>
      <trkpt lat="46.0015" lon="5.02198">
        <ele>275</ele>
        <time>2016-09-14T09:41:37Z</time>
      </trkpt>
      <trkpt lat="46.00148" lon="5.0219">
        <ele>275</ele>
        <time>2016-09-14T09:41:38Z</time>
      </trkpt>
      <trkpt lat="46.00146" lon="5.02182">
        <ele>275</ele>
        <time>2016-09-14T09:41:39Z</time>
      </trkpt>
      <trkpt lat="46.00144" lon="5.02173">
        <ele>275</ele>
        <time>2016-09-14T09:41:40Z</time>
      </trkpt>
      <trkpt lat="46.00143" lon="5.02165">
        <ele>275</ele>
        <time>2016-09-14T09:41:41Z</time>
      </trkpt>
      <trkpt lat="46.00141" lon="5.02156">
        <ele>275</ele>
        <time>2016-09-14T09:41:42Z</time>
      </trkpt>
      <trkpt lat="46.00139" lon="5.02149">
        <ele>275</ele>
        <time>2016-09-14T09:41:43Z</time>
      </trkpt>
      <trkpt lat="46.00137" lon="5.02141">
        <ele>275</ele>
        <time>2016-09-14T09:41:44Z</time>
      </trkpt>
      <trkpt lat="46.00135" lon="5.02134">
        <ele>275</ele>
        <time>2016-09-14T09:41:45Z</time>
      </trkpt>
      <trkpt lat="46.00133" lon="5.02127">
        <ele>275</ele>
        <time>2016-09-14T09:41:46Z</time>
      </trkpt>
      <trkpt lat="46.0013" lon="5.02119">
        <ele>275</ele>
        <time>2016-09-14T09:41:47Z</time>
      </trkpt>
      <trkpt lat="46.00128" lon="5.02112">
        <ele>275</ele>
        <time>2016-09-14T09:41:48Z</time>
      </trkpt>
      <trkpt lat="46.00126" lon="5.02106">
        <ele>275</ele>
        <time>2016-09-14T09:41:49Z</time>
      </trkpt>
      <trkpt lat="46.00124" lon="5.02098">
        <ele>276</ele>
        <time>2016-09-14T09:41:50Z</time>
      </trkpt>
      <trkpt lat="46.00121" lon="5.02091">
        <ele>276</ele>
        <time>2016-09-14T09:41:51Z</time>
      </trkpt>
      <trkpt lat="46.00119" lon="5.02083">
        <ele>276</ele>
        <time>2016-09-14T09:41:52Z</time>
      </trkpt>
      <trkpt lat="46.00117" lon="5.02076">
        <ele>276</ele>
        <time>2016-09-14T09:41:53Z</time>
      </trkpt>
      <trkpt lat="46.00114" lon="5.02068">
        <ele>276</ele>
        <time>2016-09-14T09:41:54Z</time>
      </trkpt>
      <trkpt lat="46.00111" lon="5.02061">
        <ele>276</ele>
        <time>2016-09-14T09:41:55Z</time>
      </trkpt>
      <trkpt lat="46.00108" lon="5.02054">
        <ele>276</ele>
        <time>2016-09-14T09:41:56Z</time>
      </trkpt>
      <trkpt lat="46.00106" lon="5.02047">
        <ele>276</ele>
        <time>2016-09-14T09:41:57Z</time>
      </trkpt>
      <trkpt lat="46.00105" lon="5.02041">
        <ele>276</ele>
        <time>2016-09-14T09:41:58Z</time>
      </trkpt>
      <trkpt lat="46.00103" lon="5.02034">
        <ele>276</ele>
        <time>2016-09-14T09:41:59Z</time>
      </trkpt>
      <trkpt lat="46.00102" lon="5.02028">
        <ele>276</ele>
        <time>2016-09-14T09:42:00Z</time>
      </trkpt>
      <trkpt lat="46.001" lon="5.02022">
        <ele>277</ele>
        <time>2016-09-14T09:42:01Z</time>
      </trkpt>
      <trkpt lat="46.00098" lon="5.02015">
        <ele>277</ele>
        <time>2016-09-14T09:42:02Z</time>
      </trkpt>
      <trkpt lat="46.00096" lon="5.02009">
        <ele>277</ele>
        <time>2016-09-14T09:42:03Z</time>
      </trkpt>
      <trkpt lat="46.00094" lon="5.02002">
        <ele>277</ele>
        <time>2016-09-14T09:42:04Z</time>
      </trkpt>
      <trkpt lat="46.00092" lon="5.01994">
        <ele>278</ele>
        <time>2016-09-14T09:42:05Z</time>
      </trkpt>
      <trkpt lat="46.0009" lon="5.01987">
        <ele>278</ele>
        <time>2016-09-14T09:42:06Z</time>
      </trkpt>
      <trkpt lat="46.00088" lon="5.0198">
        <ele>277</ele>
        <time>2016-09-14T09:42:07Z</time>
      </trkpt>
      <trkpt lat="46.00087" lon="5.01973">
        <ele>277</ele>
        <time>2016-09-14T09:42:08Z</time>
      </trkpt>
      <trkpt lat="46.00085" lon="5.01966">
        <ele>278</ele>
        <time>2016-09-14T09:42:09Z</time>
      </trkpt>
      <trkpt lat="46.00083" lon="5.01959">
        <ele>279</ele>
        <time>2016-09-14T09:42:10Z</time>
      </trkpt>
      <trkpt lat="46.00082" lon="5.01953">
        <ele>279</ele>
        <time>2016-09-14T09:42:11Z</time>
      </trkpt>
      <trkpt lat="46.00078" lon="5.01941">
        <ele>279</ele>
        <time>2016-09-14T09:42:13Z</time>
      </trkpt>
      <trkpt lat="46.00076" lon="5.01936">
        <ele>279</ele>
        <time>2016-09-14T09:42:14Z</time>
      </trkpt>
      <trkpt lat="46.00073" lon="5.01924">
        <ele>279</ele>
        <time>2016-09-14T09:42:16Z</time>
      </trkpt>
      <trkpt lat="46.00071" lon="5.01918">
        <ele>279</ele>
        <time>2016-09-14T09:42:17Z</time>
      </trkpt>
      <trkpt lat="46.00069" lon="5.01912">
        <ele>279</ele>
        <time>2016-09-14T09:42:18Z</time>
      </trkpt>
      <trkpt lat="46.00067" lon="5.01906">
        <ele>279</ele>
        <time>2016-09-14T09:42:19Z</time>
      </trkpt>
      <trkpt lat="46.00063" lon="5.01894">
        <ele>279</ele>
        <time>2016-09-14T09:42:21Z</time>
      </trkpt>
      <trkpt lat="46.00061" lon="5.01888">
        <ele>280</ele>
        <time>2016-09-14T09:42:22Z</time>
      </trkpt>
      <trkpt lat="46.0006" lon="5.01881">
        <ele>280</ele>
        <time>2016-09-14T09:42:23Z</time>
      </trkpt>
      <trkpt lat="46.00059" lon="5.01875">
        <ele>280</ele>
        <time>2016-09-14T09:42:24Z</time>
      </trkpt>
      <trkpt lat="46.00059" lon="5.01869">
        <ele>279</ele>
        <time>2016-09-14T09:42:25Z</time>
      </trkpt>
      <trkpt lat="46.00059" lon="5.01862">
        <ele>279</ele>
        <time>2016-09-14T09:42:26Z</time>
      </trkpt>
      <trkpt lat="46.00059" lon="5.01856">
        <ele>279</ele>
        <time>2016-09-14T09:42:27Z</time>
      </trkpt>
      <trkpt lat="46.0006" lon="5.01849">
        <ele>279</ele>
        <time>2016-09-14T09:42:28Z</time>
      </trkpt>
      <trkpt lat="46.00061" lon="5.01842">
        <ele>279</ele>
        <time>2016-09-14T09:42:29Z</time>
      </trkpt>
      <trkpt lat="46.00061" lon="5.01835">
        <ele>279</ele>
        <time>2016-09-14T09:42:30Z</time>
      </trkpt>
      <trkpt lat="46.00062" lon="5.01827">
        <ele>279</ele>
        <time>2016-09-14T09:42:31Z</time>
      </trkpt>
      <trkpt lat="46.00063" lon="5.0182">
        <ele>279</ele>
        <time>2016-09-14T09:42:32Z</time>
      </trkpt>
      <trkpt lat="46.00064" lon="5.01813">
        <ele>279</ele>
        <time>2016-09-14T09:42:33Z</time>
      </trkpt>
      <trkpt lat="46.00065" lon="5.01806">
        <ele>279</ele>
        <time>2016-09-14T09:42:34Z</time>
      </trkpt>
      <trkpt lat="46.00066" lon="5.018">
        <ele>279</ele>
        <time>2016-09-14T09:42:35Z</time>
      </trkpt>
      <trkpt lat="46.00067" lon="5.01792">
        <ele>279</ele>
        <time>2016-09-14T09:42:36Z</time>
      </trkpt>
      <trkpt lat="46.00068" lon="5.01785">
        <ele>279</ele>
        <time>2016-09-14T09:42:37Z</time>
      </trkpt>
      <trkpt lat="46.00069" lon="5.01778">
        <ele>278</ele>
        <time>2016-09-14T09:42:38Z</time>
      </trkpt>
      <trkpt lat="46.00071" lon="5.0177">
        <ele>278</ele>
        <time>2016-09-14T09:42:39Z</time>
      </trkpt>
      <trkpt lat="46.00072" lon="5.01763">
        <ele>278</ele>
        <time>2016-09-14T09:42:40Z</time>
      </trkpt>
      <trkpt lat="46.00073" lon="5.01756">
        <ele>278</ele>
        <time>2016-09-14T09:42:41Z</time>
      </trkpt>
      <trkpt lat="46.00074" lon="5.01748">
        <ele>277</ele>
        <time>2016-09-14T09:42:42Z</time>
      </trkpt>
      <trkpt lat="46.00076" lon="5.01741">
        <ele>278</ele>
        <time>2016-09-14T09:42:43Z</time>
      </trkpt>
      <trkpt lat="46.00077" lon="5.01733">
        <ele>278</ele>
        <time>2016-09-14T09:42:44Z</time>
      </trkpt>
      <trkpt lat="46.00078" lon="5.01725">
        <ele>278</ele>
        <time>2016-09-14T09:42:45Z</time>
      </trkpt>
      <trkpt lat="46.0008" lon="5.01717">
        <ele>278</ele>
        <time>2016-09-14T09:42:46Z</time>
      </trkpt>
      <trkpt lat="46.00082" lon="5.01709">
        <ele>278</ele>
        <time>2016-09-14T09:42:47Z</time>
      </trkpt>
      <trkpt lat="46.00083" lon="5.017">
        <ele>278</ele>
        <time>2016-09-14T09:42:48Z</time>
      </trkpt>
      <trkpt lat="46.00085" lon="5.01692">
        <ele>276</ele>
        <time>2016-09-14T09:42:49Z</time>
      </trkpt>
      <trkpt lat="46.00086" lon="5.01683">
        <ele>276</ele>
        <time>2016-09-14T09:42:50Z</time>
      </trkpt>
      <trkpt lat="46.00088" lon="5.01674">
        <ele>276</ele>
        <time>2016-09-14T09:42:51Z</time>
      </trkpt>
      <trkpt lat="46.0009" lon="5.01666">
        <ele>277</ele>
        <time>2016-09-14T09:42:52Z</time>
      </trkpt>
      <trkpt lat="46.00092" lon="5.01658">
        <ele>277</ele>
        <time>2016-09-14T09:42:53Z</time>
      </trkpt>
      <trkpt lat="46.00093" lon="5.01649">
        <ele>277</ele>
        <time>2016-09-14T09:42:54Z</time>
      </trkpt>
      <trkpt lat="46.00095" lon="5.01641">
        <ele>276</ele>
        <time>2016-09-14T09:42:55Z</time>
      </trkpt>
      <trkpt lat="46.00097" lon="5.01633">
        <ele>276</ele>
        <time>2016-09-14T09:42:56Z</time>
      </trkpt>
      <trkpt lat="46.00098" lon="5.01625">
        <ele>276</ele>
        <time>2016-09-14T09:42:57Z</time>
      </trkpt>
      <trkpt lat="46.001" lon="5.01617">
        <ele>276</ele>
        <time>2016-09-14T09:42:58Z</time>
      </trkpt>
      <trkpt lat="46.001" lon="5.01609">
        <ele>277</ele>
        <time>2016-09-14T09:42:59Z</time>
      </trkpt>
      <trkpt lat="46.00102" lon="5.01601">
        <ele>277</ele>
        <time>2016-09-14T09:43:00Z</time>
      </trkpt>
      <trkpt lat="46.00103" lon="5.01594">
        <ele>277</ele>
        <time>2016-09-14T09:43:01Z</time>
      </trkpt>
      <trkpt lat="46.00104" lon="5.01587">
        <ele>277</ele>
        <time>2016-09-14T09:43:02Z</time>
      </trkpt>
      <trkpt lat="46.00105" lon="5.0158">
        <ele>277</ele>
        <time>2016-09-14T09:43:03Z</time>
      </trkpt>
      <trkpt lat="46.00107" lon="5.01573">
        <ele>277</ele>
        <time>2016-09-14T09:43:04Z</time>
      </trkpt>
      <trkpt lat="46.00108" lon="5.01566">
        <ele>278</ele>
        <time>2016-09-14T09:43:05Z</time>
      </trkpt>
      <trkpt lat="46.0011" lon="5.01559">
        <ele>278</ele>
        <time>2016-09-14T09:43:06Z</time>
      </trkpt>
      <trkpt lat="46.00111" lon="5.01551">
        <ele>278</ele>
        <time>2016-09-14T09:43:07Z</time>
      </trkpt>
      <trkpt lat="46.00113" lon="5.01543">
        <ele>278</ele>
        <time>2016-09-14T09:43:08Z</time>
      </trkpt>
      <trkpt lat="46.00115" lon="5.01534">
        <ele>278</ele>
        <time>2016-09-14T09:43:09Z</time>
      </trkpt>
      <trkpt lat="46.00117" lon="5.01526">
        <ele>278</ele>
        <time>2016-09-14T09:43:10Z</time>
      </trkpt>
      <trkpt lat="46.00119" lon="5.01518">
        <ele>278</ele>
        <time>2016-09-14T09:43:11Z</time>
      </trkpt>
      <trkpt lat="46.0012" lon="5.01509">
        <ele>278</ele>
        <time>2016-09-14T09:43:12Z</time>
      </trkpt>
      <trkpt lat="46.00122" lon="5.01501">
        <ele>278</ele>
        <time>2016-09-14T09:43:13Z</time>
      </trkpt>
      <trkpt lat="46.00123" lon="5.01494">
        <ele>278</ele>
        <time>2016-09-14T09:43:14Z</time>
      </trkpt>
      <trkpt lat="46.00125" lon="5.01488">
        <ele>278</ele>
        <time>2016-09-14T09:43:15Z</time>
      </trkpt>
      <trkpt lat="46.00126" lon="5.01481">
        <ele>278</ele>
        <time>2016-09-14T09:43:16Z</time>
      </trkpt>
      <trkpt lat="46.00128" lon="5.01474">
        <ele>278</ele>
        <time>2016-09-14T09:43:17Z</time>
      </trkpt>
      <trkpt lat="46.0013" lon="5.01467">
        <ele>278</ele>
        <time>2016-09-14T09:43:18Z</time>
      </trkpt>
      <trkpt lat="46.00131" lon="5.0146">
        <ele>278</ele>
        <time>2016-09-14T09:43:19Z</time>
      </trkpt>
      <trkpt lat="46.00133" lon="5.01452">
        <ele>278</ele>
        <time>2016-09-14T09:43:20Z</time>
      </trkpt>
      <trkpt lat="46.00135" lon="5.01446">
        <ele>278</ele>
        <time>2016-09-14T09:43:21Z</time>
      </trkpt>
      <trkpt lat="46.00137" lon="5.01439">
        <ele>278</ele>
        <time>2016-09-14T09:43:22Z</time>
      </trkpt>
      <trkpt lat="46.00138" lon="5.01432">
        <ele>277</ele>
        <time>2016-09-14T09:43:23Z</time>
      </trkpt>
      <trkpt lat="46.0014" lon="5.01424">
        <ele>277</ele>
        <time>2016-09-14T09:43:24Z</time>
      </trkpt>
      <trkpt lat="46.00142" lon="5.01417">
        <ele>277</ele>
        <time>2016-09-14T09:43:25Z</time>
      </trkpt>
      <trkpt lat="46.00144" lon="5.01409">
        <ele>277</ele>
        <time>2016-09-14T09:43:26Z</time>
      </trkpt>
      <trkpt lat="46.00146" lon="5.01402">
        <ele>277</ele>
        <time>2016-09-14T09:43:27Z</time>
      </trkpt>
      <trkpt lat="46.00148" lon="5.01395">
        <ele>277</ele>
        <time>2016-09-14T09:43:28Z</time>
      </trkpt>
      <trkpt lat="46.00151" lon="5.01387">
        <ele>277</ele>
        <time>2016-09-14T09:43:29Z</time>
      </trkpt>
      <trkpt lat="46.00153" lon="5.01379">
        <ele>277</ele>
        <time>2016-09-14T09:43:30Z</time>
      </trkpt>
      <trkpt lat="46.00156" lon="5.01371">
        <ele>277</ele>
        <time>2016-09-14T09:43:31Z</time>
      </trkpt>
      <trkpt lat="46.00158" lon="5.01362">
        <ele>277</ele>
        <time>2016-09-14T09:43:32Z</time>
      </trkpt>
      <trkpt lat="46.0016" lon="5.01355">
        <ele>277</ele>
        <time>2016-09-14T09:43:33Z</time>
      </trkpt>
      <trkpt lat="46.00162" lon="5.01348">
        <ele>277</ele>
        <time>2016-09-14T09:43:34Z</time>
      </trkpt>
      <trkpt lat="46.00165" lon="5.01341">
        <ele>277</ele>
        <time>2016-09-14T09:43:35Z</time>
      </trkpt>
      <trkpt lat="46.00167" lon="5.01334">
        <ele>277</ele>
        <time>2016-09-14T09:43:36Z</time>
      </trkpt>
      <trkpt lat="46.00168" lon="5.01327">
        <ele>277</ele>
        <time>2016-09-14T09:43:37Z</time>
      </trkpt>
      <trkpt lat="46.0017" lon="5.0132">
        <ele>277</ele>
        <time>2016-09-14T09:43:38Z</time>
      </trkpt>
      <trkpt lat="46.00173" lon="5.01313">
        <ele>277</ele>
        <time>2016-09-14T09:43:39Z</time>
      </trkpt>
      <trkpt lat="46.00175" lon="5.01306">
        <ele>276</ele>
        <time>2016-09-14T09:43:40Z</time>
      </trkpt>
      <trkpt lat="46.00178" lon="5.01299">
        <ele>276</ele>
        <time>2016-09-14T09:43:41Z</time>
      </trkpt>
      <trkpt lat="46.0018" lon="5.01292">
        <ele>276</ele>
        <time>2016-09-14T09:43:42Z</time>
      </trkpt>
      <trkpt lat="46.00183" lon="5.01285">
        <ele>276</ele>
        <time>2016-09-14T09:43:43Z</time>
      </trkpt>
      <trkpt lat="46.00186" lon="5.01278">
        <ele>276</ele>
        <time>2016-09-14T09:43:44Z</time>
      </trkpt>
      <trkpt lat="46.00189" lon="5.0127">
        <ele>276</ele>
        <time>2016-09-14T09:43:45Z</time>
      </trkpt>
      <trkpt lat="46.00192" lon="5.01262">
        <ele>276</ele>
        <time>2016-09-14T09:43:46Z</time>
      </trkpt>
      <trkpt lat="46.00195" lon="5.01255">
        <ele>276</ele>
        <time>2016-09-14T09:43:47Z</time>
      </trkpt>
      <trkpt lat="46.00197" lon="5.01248">
        <ele>276</ele>
        <time>2016-09-14T09:43:48Z</time>
      </trkpt>
      <trkpt lat="46.002" lon="5.0124">
        <ele>276</ele>
        <time>2016-09-14T09:43:49Z</time>
      </trkpt>
      <trkpt lat="46.00203" lon="5.01234">
        <ele>276</ele>
        <time>2016-09-14T09:43:50Z</time>
      </trkpt>
      <trkpt lat="46.00206" lon="5.01227">
        <ele>276</ele>
        <time>2016-09-14T09:43:51Z</time>
      </trkpt>
      <trkpt lat="46.00208" lon="5.0122">
        <ele>276</ele>
        <time>2016-09-14T09:43:52Z</time>
      </trkpt>
      <trkpt lat="46.00211" lon="5.01213">
        <ele>276</ele>
        <time>2016-09-14T09:43:53Z</time>
      </trkpt>
      <trkpt lat="46.00213" lon="5.01207">
        <ele>275</ele>
        <time>2016-09-14T09:43:54Z</time>
      </trkpt>
      <trkpt lat="46.00216" lon="5.012">
        <ele>275</ele>
        <time>2016-09-14T09:43:55Z</time>
      </trkpt>
      <trkpt lat="46.00218" lon="5.01193">
        <ele>275</ele>
        <time>2016-09-14T09:43:56Z</time>
      </trkpt>
      <trkpt lat="46.00221" lon="5.01185">
        <ele>275</ele>
        <time>2016-09-14T09:43:57Z</time>
      </trkpt>
      <trkpt lat="46.00225" lon="5.01178">
        <ele>275</ele>
        <time>2016-09-14T09:43:58Z</time>
      </trkpt>
      <trkpt lat="46.00228" lon="5.0117">
        <ele>275</ele>
        <time>2016-09-14T09:43:59Z</time>
      </trkpt>
      <trkpt lat="46.00231" lon="5.01162">
        <ele>275</ele>
        <time>2016-09-14T09:44:00Z</time>
      </trkpt>
      <trkpt lat="46.00233" lon="5.01154">
        <ele>275</ele>
        <time>2016-09-14T09:44:01Z</time>
      </trkpt>
      <trkpt lat="46.00235" lon="5.01146">
        <ele>275</ele>
        <time>2016-09-14T09:44:02Z</time>
      </trkpt>
      <trkpt lat="46.00237" lon="5.01138">
        <ele>275</ele>
        <time>2016-09-14T09:44:03Z</time>
      </trkpt>
      <trkpt lat="46.00239" lon="5.0113">
        <ele>275</ele>
        <time>2016-09-14T09:44:04Z</time>
      </trkpt>
      <trkpt lat="46.00241" lon="5.01121">
        <ele>275</ele>
        <time>2016-09-14T09:44:05Z</time>
      </trkpt>
      <trkpt lat="46.00243" lon="5.01113">
        <ele>275</ele>
        <time>2016-09-14T09:44:06Z</time>
      </trkpt>
      <trkpt lat="46.00246" lon="5.01105">
        <ele>275</ele>
        <time>2016-09-14T09:44:07Z</time>
      </trkpt>
      <trkpt lat="46.00248" lon="5.01098">
        <ele>276</ele>
        <time>2016-09-14T09:44:08Z</time>
      </trkpt>
      <trkpt lat="46.0025" lon="5.0109">
        <ele>276</ele>
        <time>2016-09-14T09:44:09Z</time>
      </trkpt>
      <trkpt lat="46.00252" lon="5.01082">
        <ele>276</ele>
        <time>2016-09-14T09:44:10Z</time>
      </trkpt>
      <trkpt lat="46.00255" lon="5.01074">
        <ele>276</ele>
        <time>2016-09-14T09:44:11Z</time>
      </trkpt>
      <trkpt lat="46.00257" lon="5.01066">
        <ele>275</ele>
        <time>2016-09-14T09:44:12Z</time>
      </trkpt>
      <trkpt lat="46.00259" lon="5.01058">
        <ele>275</ele>
        <time>2016-09-14T09:44:13Z</time>
      </trkpt>
      <trkpt lat="46.00261" lon="5.0105">
        <ele>275</ele>
        <time>2016-09-14T09:44:14Z</time>
      </trkpt>
      <trkpt lat="46.00264" lon="5.01041">
        <ele>275</ele>
        <time>2016-09-14T09:44:15Z</time>
      </trkpt>
      <trkpt lat="46.00266" lon="5.01033">
        <ele>275</ele>
        <time>2016-09-14T09:44:16Z</time>
      </trkpt>
      <trkpt lat="46.00268" lon="5.01023">
        <ele>275</ele>
        <time>2016-09-14T09:44:17Z</time>
      </trkpt>
      <trkpt lat="46.0027" lon="5.01014">
        <ele>274</ele>
        <time>2016-09-14T09:44:18Z</time>
      </trkpt>
      <trkpt lat="46.00273" lon="5.01005">
        <ele>274</ele>
        <time>2016-09-14T09:44:19Z</time>
      </trkpt>
      <trkpt lat="46.00275" lon="5.00996">
        <ele>274</ele>
        <time>2016-09-14T09:44:20Z</time>
      </trkpt>
      <trkpt lat="46.00277" lon="5.00987">
        <ele>274</ele>
        <time>2016-09-14T09:44:21Z</time>
      </trkpt>
      <trkpt lat="46.00279" lon="5.00978">
        <ele>274</ele>
        <time>2016-09-14T09:44:22Z</time>
      </trkpt>
      <trkpt lat="46.00281" lon="5.00968">
        <ele>274</ele>
        <time>2016-09-14T09:44:23Z</time>
      </trkpt>
      <trkpt lat="46.00283" lon="5.00958">
        <ele>274</ele>
        <time>2016-09-14T09:44:24Z</time>
      </trkpt>
      <trkpt lat="46.00285" lon="5.00949">
        <ele>274</ele>
        <time>2016-09-14T09:44:25Z</time>
      </trkpt>
      <trkpt lat="46.00288" lon="5.0094">
        <ele>274</ele>
        <time>2016-09-14T09:44:26Z</time>
      </trkpt>
      <trkpt lat="46.00289" lon="5.0093">
        <ele>274</ele>
        <time>2016-09-14T09:44:27Z</time>
      </trkpt>
      <trkpt lat="46.00291" lon="5.00921">
        <ele>274</ele>
        <time>2016-09-14T09:44:28Z</time>
      </trkpt>
      <trkpt lat="46.00293" lon="5.00913">
        <ele>274</ele>
        <time>2016-09-14T09:44:29Z</time>
      </trkpt>
      <trkpt lat="46.00294" lon="5.00904">
        <ele>274</ele>
        <time>2016-09-14T09:44:30Z</time>
      </trkpt>
      <trkpt lat="46.00296" lon="5.00896">
        <ele>274</ele>
        <time>2016-09-14T09:44:31Z</time>
      </trkpt>
      <trkpt lat="46.00297" lon="5.00887">
        <ele>274</ele>
        <time>2016-09-14T09:44:32Z</time>
      </trkpt>
      <trkpt lat="46.00299" lon="5.00879">
        <ele>274</ele>
        <time>2016-09-14T09:44:33Z</time>
      </trkpt>
      <trkpt lat="46.003" lon="5.00871">
        <ele>274</ele>
        <time>2016-09-14T09:44:34Z</time>
      </trkpt>
      <trkpt lat="46.00302" lon="5.00863">
        <ele>274</ele>
        <time>2016-09-14T09:44:35Z</time>
      </trkpt>
      <trkpt lat="46.00304" lon="5.00854">
        <ele>274</ele>
        <time>2016-09-14T09:44:36Z</time>
      </trkpt>
      <trkpt lat="46.00306" lon="5.00845">
        <ele>274</ele>
        <time>2016-09-14T09:44:37Z</time>
      </trkpt>
      <trkpt lat="46.00307" lon="5.00836">
        <ele>274</ele>
        <time>2016-09-14T09:44:38Z</time>
      </trkpt>
      <trkpt lat="46.00309" lon="5.00827">
        <ele>274</ele>
        <time>2016-09-14T09:44:39Z</time>
      </trkpt>
      <trkpt lat="46.00311" lon="5.00818">
        <ele>274</ele>
        <time>2016-09-14T09:44:40Z</time>
      </trkpt>
      <trkpt lat="46.00312" lon="5.00809">
        <ele>274</ele>
        <time>2016-09-14T09:44:41Z</time>
      </trkpt>
      <trkpt lat="46.00313" lon="5.008">
        <ele>274</ele>
        <time>2016-09-14T09:44:42Z</time>
      </trkpt>
      <trkpt lat="46.00315" lon="5.00792">
        <ele>274</ele>
        <time>2016-09-14T09:44:43Z</time>
      </trkpt>
      <trkpt lat="46.00316" lon="5.00784">
        <ele>274</ele>
        <time>2016-09-14T09:44:44Z</time>
      </trkpt>
      <trkpt lat="46.00317" lon="5.00776">
        <ele>274</ele>
        <time>2016-09-14T09:44:45Z</time>
      </trkpt>
      <trkpt lat="46.00319" lon="5.00769">
        <ele>274</ele>
        <time>2016-09-14T09:44:46Z</time>
      </trkpt>
      <trkpt lat="46.0032" lon="5.00761">
        <ele>274</ele>
        <time>2016-09-14T09:44:47Z</time>
      </trkpt>
      <trkpt lat="46.00321" lon="5.00753">
        <ele>274</ele>
        <time>2016-09-14T09:44:48Z</time>
      </trkpt>
      <trkpt lat="46.00323" lon="5.00745">
        <ele>274</ele>
        <time>2016-09-14T09:44:49Z</time>
      </trkpt>
      <trkpt lat="46.00324" lon="5.00737">
        <ele>274</ele>
        <time>2016-09-14T09:44:50Z</time>
      </trkpt>
      <trkpt lat="46.00325" lon="5.0073">
        <ele>274</ele>
        <time>2016-09-14T09:44:51Z</time>
      </trkpt>
      <trkpt lat="46.00325" lon="5.00722">
        <ele>274</ele>
        <time>2016-09-14T09:44:52Z</time>
      </trkpt>
      <trkpt lat="46.00327" lon="5.00714">
        <ele>274</ele>
        <time>2016-09-14T09:44:53Z</time>
      </trkpt>
      <trkpt lat="46.00328" lon="5.00707">
        <ele>274</ele>
        <time>2016-09-14T09:44:54Z</time>
      </trkpt>
      <trkpt lat="46.00329" lon="5.007">
        <ele>274</ele>
        <time>2016-09-14T09:44:55Z</time>
      </trkpt>
      <trkpt lat="46.0033" lon="5.00692">
        <ele>274</ele>
        <time>2016-09-14T09:44:56Z</time>
      </trkpt>
      <trkpt lat="46.00332" lon="5.00684">
        <ele>274</ele>
        <time>2016-09-14T09:44:57Z</time>
      </trkpt>
      <trkpt lat="46.00333" lon="5.00676">
        <ele>274</ele>
        <time>2016-09-14T09:44:58Z</time>
      </trkpt>
      <trkpt lat="46.00334" lon="5.00668">
        <ele>274</ele>
        <time>2016-09-14T09:44:59Z</time>
      </trkpt>
      <trkpt lat="46.00335" lon="5.0066">
        <ele>274</ele>
        <time>2016-09-14T09:45:00Z</time>
      </trkpt>
      <trkpt lat="46.00336" lon="5.00651">
        <ele>274</ele>
        <time>2016-09-14T09:45:01Z</time>
      </trkpt>
      <trkpt lat="46.00337" lon="5.00642">
        <ele>274</ele>
        <time>2016-09-14T09:45:02Z</time>
      </trkpt>
      <trkpt lat="46.00339" lon="5.00633">
        <ele>274</ele>
        <time>2016-09-14T09:45:03Z</time>
      </trkpt>
      <trkpt lat="46.0034" lon="5.00624">
        <ele>274</ele>
        <time>2016-09-14T09:45:04Z</time>
      </trkpt>
      <trkpt lat="46.00341" lon="5.00616">
        <ele>274</ele>
        <time>2016-09-14T09:45:05Z</time>
      </trkpt>
      <trkpt lat="46.00342" lon="5.00608">
        <ele>274</ele>
        <time>2016-09-14T09:45:06Z</time>
      </trkpt>
      <trkpt lat="46.00343" lon="5.006">
        <ele>274</ele>
        <time>2016-09-14T09:45:07Z</time>
      </trkpt>
      <trkpt lat="46.00345" lon="5.00593">
        <ele>274</ele>
        <time>2016-09-14T09:45:08Z</time>
      </trkpt>
      <trkpt lat="46.00346" lon="5.00585">
        <ele>274</ele>
        <time>2016-09-14T09:45:09Z</time>
      </trkpt>
      <trkpt lat="46.00347" lon="5.00578">
        <ele>274</ele>
        <time>2016-09-14T09:45:10Z</time>
      </trkpt>
      <trkpt lat="46.00348" lon="5.00571">
        <ele>275</ele>
        <time>2016-09-14T09:45:11Z</time>
      </trkpt>
      <trkpt lat="46.00349" lon="5.00564">
        <ele>275</ele>
        <time>2016-09-14T09:45:12Z</time>
      </trkpt>
      <trkpt lat="46.0035" lon="5.00557">
        <ele>275</ele>
        <time>2016-09-14T09:45:13Z</time>
      </trkpt>
      <trkpt lat="46.0035" lon="5.0055">
        <ele>275</ele>
        <time>2016-09-14T09:45:14Z</time>
      </trkpt>
      <trkpt lat="46.00351" lon="5.00542">
        <ele>275</ele>
        <time>2016-09-14T09:45:15Z</time>
      </trkpt>
      <trkpt lat="46.00353" lon="5.00534">
        <ele>275</ele>
        <time>2016-09-14T09:45:16Z</time>
      </trkpt>
      <trkpt lat="46.00354" lon="5.00526">
        <ele>275</ele>
        <time>2016-09-14T09:45:17Z</time>
      </trkpt>
      <trkpt lat="46.00355" lon="5.00518">
        <ele>275</ele>
        <time>2016-09-14T09:45:18Z</time>
      </trkpt>
      <trkpt lat="46.00356" lon="5.0051">
        <ele>275</ele>
        <time>2016-09-14T09:45:19Z</time>
      </trkpt>
      <trkpt lat="46.00357" lon="5.00501">
        <ele>275</ele>
        <time>2016-09-14T09:45:20Z</time>
      </trkpt>
      <trkpt lat="46.00358" lon="5.00492">
        <ele>275</ele>
        <time>2016-09-14T09:45:21Z</time>
      </trkpt>
      <trkpt lat="46.00359" lon="5.00483">
        <ele>275</ele>
        <time>2016-09-14T09:45:22Z</time>
      </trkpt>
      <trkpt lat="46.0036" lon="5.00473">
        <ele>275</ele>
        <time>2016-09-14T09:45:23Z</time>
      </trkpt>
      <trkpt lat="46.00361" lon="5.00464">
        <ele>275</ele>
        <time>2016-09-14T09:45:24Z</time>
      </trkpt>
      <trkpt lat="46.00361" lon="5.00455">
        <ele>275</ele>
        <time>2016-09-14T09:45:25Z</time>
      </trkpt>
      <trkpt lat="46.00362" lon="5.00446">
        <ele>275</ele>
        <time>2016-09-14T09:45:26Z</time>
      </trkpt>
      <trkpt lat="46.00362" lon="5.00437">
        <ele>275</ele>
        <time>2016-09-14T09:45:27Z</time>
      </trkpt>
      <trkpt lat="46.00363" lon="5.00428">
        <ele>275</ele>
        <time>2016-09-14T09:45:28Z</time>
      </trkpt>
      <trkpt lat="46.00363" lon="5.00419">
        <ele>275</ele>
        <time>2016-09-14T09:45:29Z</time>
      </trkpt>
      <trkpt lat="46.00363" lon="5.00411">
        <ele>275</ele>
        <time>2016-09-14T09:45:30Z</time>
      </trkpt>
      <trkpt lat="46.00364" lon="5.00402">
        <ele>275</ele>
        <time>2016-09-14T09:45:31Z</time>
      </trkpt>
      <trkpt lat="46.00364" lon="5.00393">
        <ele>275</ele>
        <time>2016-09-14T09:45:32Z</time>
      </trkpt>
      <trkpt lat="46.00364" lon="5.00385">
        <ele>275</ele>
        <time>2016-09-14T09:45:33Z</time>
      </trkpt>
      <trkpt lat="46.00364" lon="5.00377">
        <ele>275</ele>
        <time>2016-09-14T09:45:34Z</time>
      </trkpt>
      <trkpt lat="46.00364" lon="5.00368">
        <ele>275</ele>
        <time>2016-09-14T09:45:35Z</time>
      </trkpt>
      <trkpt lat="46.00365" lon="5.0036">
        <ele>275</ele>
        <time>2016-09-14T09:45:36Z</time>
      </trkpt>
      <trkpt lat="46.00365" lon="5.00352">
        <ele>275</ele>
        <time>2016-09-14T09:45:37Z</time>
      </trkpt>
      <trkpt lat="46.00366" lon="5.00344">
        <ele>275</ele>
        <time>2016-09-14T09:45:38Z</time>
      </trkpt>
      <trkpt lat="46.00366" lon="5.00336">
        <ele>275</ele>
        <time>2016-09-14T09:45:39Z</time>
      </trkpt>
      <trkpt lat="46.00367" lon="5.00329">
        <ele>276</ele>
        <time>2016-09-14T09:45:40Z</time>
      </trkpt>
      <trkpt lat="46.00367" lon="5.00321">
        <ele>276</ele>
        <time>2016-09-14T09:45:41Z</time>
      </trkpt>
      <trkpt lat="46.00367" lon="5.00313">
        <ele>276</ele>
        <time>2016-09-14T09:45:42Z</time>
      </trkpt>
      <trkpt lat="46.00367" lon="5.00306">
        <ele>276</ele>
        <time>2016-09-14T09:45:43Z</time>
      </trkpt>
      <trkpt lat="46.00368" lon="5.00298">
        <ele>276</ele>
        <time>2016-09-14T09:45:44Z</time>
      </trkpt>
      <trkpt lat="46.00368" lon="5.0029">
        <ele>276</ele>
        <time>2016-09-14T09:45:45Z</time>
      </trkpt>
      <trkpt lat="46.00369" lon="5.00282">
        <ele>276</ele>
        <time>2016-09-14T09:45:46Z</time>
      </trkpt>
      <trkpt lat="46.00369" lon="5.00274">
        <ele>276</ele>
        <time>2016-09-14T09:45:47Z</time>
      </trkpt>
      <trkpt lat="46.0037" lon="5.00265">
        <ele>276</ele>
        <time>2016-09-14T09:45:48Z</time>
      </trkpt>
      <trkpt lat="46.0037" lon="5.00256">
        <ele>276</ele>
        <time>2016-09-14T09:45:49Z</time>
      </trkpt>
      <trkpt lat="46.00371" lon="5.00248">
        <ele>277</ele>
        <time>2016-09-14T09:45:50Z</time>
      </trkpt>
      <trkpt lat="46.00372" lon="5.00239">
        <ele>277</ele>
        <time>2016-09-14T09:45:51Z</time>
      </trkpt>
      <trkpt lat="46.00373" lon="5.00231">
        <ele>277</ele>
        <time>2016-09-14T09:45:52Z</time>
      </trkpt>
      <trkpt lat="46.00374" lon="5.00223">
        <ele>277</ele>
        <time>2016-09-14T09:45:53Z</time>
      </trkpt>
      <trkpt lat="46.00376" lon="5.00216">
        <ele>277</ele>
        <time>2016-09-14T09:45:54Z</time>
      </trkpt>
      <trkpt lat="46.00378" lon="5.00209">
        <ele>277</ele>
        <time>2016-09-14T09:45:55Z</time>
      </trkpt>
      <trkpt lat="46.00379" lon="5.00201">
        <ele>277</ele>
        <time>2016-09-14T09:45:56Z</time>
      </trkpt>
      <trkpt lat="46.00381" lon="5.00194">
        <ele>277</ele>
        <time>2016-09-14T09:45:57Z</time>
      </trkpt>
      <trkpt lat="46.00383" lon="5.00187">
        <ele>277</ele>
        <time>2016-09-14T09:45:58Z</time>
      </trkpt>
      <trkpt lat="46.00385" lon="5.00179">
        <ele>277</ele>
        <time>2016-09-14T09:45:59Z</time>
      </trkpt>
      <trkpt lat="46.00387" lon="5.00171">
        <ele>277</ele>
        <time>2016-09-14T09:46:00Z</time>
      </trkpt>
      <trkpt lat="46.00388" lon="5.00163">
        <ele>277</ele>
        <time>2016-09-14T09:46:01Z</time>
      </trkpt>
      <trkpt lat="46.00391" lon="5.00154">
        <ele>277</ele>
        <time>2016-09-14T09:46:02Z</time>
      </trkpt>
      <trkpt lat="46.00394" lon="5.00146">
        <ele>277</ele>
        <time>2016-09-14T09:46:03Z</time>
      </trkpt>
      <trkpt lat="46.00396" lon="5.00138">
        <ele>277</ele>
        <time>2016-09-14T09:46:04Z</time>
      </trkpt>
      <trkpt lat="46.00398" lon="5.00131">
        <ele>277</ele>
        <time>2016-09-14T09:46:05Z</time>
      </trkpt>
      <trkpt lat="46.00399" lon="5.00124">
        <ele>277</ele>
        <time>2016-09-14T09:46:06Z</time>
      </trkpt>
      <trkpt lat="46.00397" lon="5.00115">
        <ele>277</ele>
        <time>2016-09-14T09:46:08Z</time>
      </trkpt>
      <trkpt lat="46.00393" lon="5.00112">
        <ele>277</ele>
        <time>2016-09-14T09:46:09Z</time>
      </trkpt>
      <trkpt lat="46.00387" lon="5.00113">
        <ele>277</ele>
        <time>2016-09-14T09:46:10Z</time>
      </trkpt>
      <trkpt lat="46.00383" lon="5.00113">
        <ele>277</ele>
        <time>2016-09-14T09:46:11Z</time>
      </trkpt>
      <trkpt lat="46.00378" lon="5.00114">
        <ele>277</ele>
        <time>2016-09-14T09:46:12Z</time>
      </trkpt>
      <trkpt lat="46.00373" lon="5.00115">
        <ele>277</ele>
        <time>2016-09-14T09:46:13Z</time>
      </trkpt>
      <trkpt lat="46.00368" lon="5.00115">
        <ele>277</ele>
        <time>2016-09-14T09:46:14Z</time>
      </trkpt>
      <trkpt lat="46.00363" lon="5.00114">
        <ele>277</ele>
        <time>2016-09-14T09:46:15Z</time>
      </trkpt>
      <trkpt lat="46.00358" lon="5.00114">
        <ele>278</ele>
        <time>2016-09-14T09:46:16Z</time>
      </trkpt>
      <trkpt lat="46.00352" lon="5.00113">
        <ele>278</ele>
        <time>2016-09-14T09:46:17Z</time>
      </trkpt>
      <trkpt lat="46.00347" lon="5.00112">
        <ele>278</ele>
        <time>2016-09-14T09:46:18Z</time>
      </trkpt>
      <trkpt lat="46.00341" lon="5.00111">
        <ele>278</ele>
        <time>2016-09-14T09:46:19Z</time>
      </trkpt>
      <trkpt lat="46.00335" lon="5.00111">
        <ele>278</ele>
        <time>2016-09-14T09:46:20Z</time>
      </trkpt>
      <trkpt lat="46.00329" lon="5.0011">
        <ele>278</ele>
        <time>2016-09-14T09:46:21Z</time>
      </trkpt>
      <trkpt lat="46.00323" lon="5.00109">
        <ele>278</ele>
        <time>2016-09-14T09:46:22Z</time>
      </trkpt>
      <trkpt lat="46.00317" lon="5.00109">
        <ele>278</ele>
        <time>2016-09-14T09:46:23Z</time>
      </trkpt>
      <trkpt lat="46.00312" lon="5.00109">
        <ele>278</ele>
        <time>2016-09-14T09:46:24Z</time>
      </trkpt>
      <trkpt lat="46.00306" lon="5.00109">
        <ele>278</ele>
        <time>2016-09-14T09:46:25Z</time>
      </trkpt>
      <trkpt lat="46.00301" lon="5.00108">
        <ele>278</ele>
        <time>2016-09-14T09:46:26Z</time>
      </trkpt>
      <trkpt lat="46.00296" lon="5.00108">
        <ele>278</ele>
        <time>2016-09-14T09:46:27Z</time>
      </trkpt>
      <trkpt lat="46.00291" lon="5.00108">
        <ele>278</ele>
        <time>2016-09-14T09:46:28Z</time>
      </trkpt>
      <trkpt lat="46.00287" lon="5.00107">
        <ele>278</ele>
        <time>2016-09-14T09:46:29Z</time>
      </trkpt>
      <trkpt lat="46.00282" lon="5.00106">
        <ele>278</ele>
        <time>2016-09-14T09:46:30Z</time>
      </trkpt>
      <trkpt lat="46.00277" lon="5.00106">
        <ele>278</ele>
        <time>2016-09-14T09:46:31Z</time>
      </trkpt>
      <trkpt lat="46.00272" lon="5.00106">
        <ele>278</ele>
        <time>2016-09-14T09:46:32Z</time>
      </trkpt>
      <trkpt lat="46.00268" lon="5.00106">
        <ele>278</ele>
        <time>2016-09-14T09:46:33Z</time>
      </trkpt>
      <trkpt lat="46.00259" lon="5.00105">
        <ele>278</ele>
        <time>2016-09-14T09:46:35Z</time>
      </trkpt>
      <trkpt lat="46.00254" lon="5.00105">
        <ele>278</ele>
        <time>2016-09-14T09:46:36Z</time>
      </trkpt>
      <trkpt lat="46.00249" lon="5.00104">
        <ele>279</ele>
        <time>2016-09-14T09:46:37Z</time>
      </trkpt>
      <trkpt lat="46.00244" lon="5.00104">
        <ele>279</ele>
        <time>2016-09-14T09:46:38Z</time>
      </trkpt>
      <trkpt lat="46.00239" lon="5.00103">
        <ele>279</ele>
        <time>2016-09-14T09:46:39Z</time>
      </trkpt>
      <trkpt lat="46.00234" lon="5.00103">
        <ele>279</ele>
        <time>2016-09-14T09:46:40Z</time>
      </trkpt>
      <trkpt lat="46.00229" lon="5.00103">
        <ele>279</ele>
        <time>2016-09-14T09:46:41Z</time>
      </trkpt>
      <trkpt lat="46.00224" lon="5.00102">
        <ele>279</ele>
        <time>2016-09-14T09:46:42Z</time>
      </trkpt>
      <trkpt lat="46.00219" lon="5.00102">
        <ele>279</ele>
        <time>2016-09-14T09:46:43Z</time>
      </trkpt>
      <trkpt lat="46.00214" lon="5.00102">
        <ele>279</ele>
        <time>2016-09-14T09:46:44Z</time>
      </trkpt>
      <trkpt lat="46.0021" lon="5.00101">
        <ele>279</ele>
        <time>2016-09-14T09:46:45Z</time>
      </trkpt>
      <trkpt lat="46.00205" lon="5.00101">
        <ele>279</ele>
        <time>2016-09-14T09:46:46Z</time>
      </trkpt>
      <trkpt lat="46.002" lon="5.00099">
        <ele>279</ele>
        <time>2016-09-14T09:46:47Z</time>
      </trkpt>
      <trkpt lat="46.00196" lon="5.00099">
        <ele>279</ele>
        <time>2016-09-14T09:46:48Z</time>
      </trkpt>
      <trkpt lat="46.00187" lon="5.00098">
        <ele>280</ele>
        <time>2016-09-14T09:46:50Z</time>
      </trkpt>
      <trkpt lat="46.00182" lon="5.00098">
        <ele>280</ele>
        <time>2016-09-14T09:46:51Z</time>
      </trkpt>
      <trkpt lat="46.00178" lon="5.00097">
        <ele>280</ele>
        <time>2016-09-14T09:46:52Z</time>
      </trkpt>
      <trkpt lat="46.00173" lon="5.00096">
        <ele>280</ele>
        <time>2016-09-14T09:46:53Z</time>
      </trkpt>
      <trkpt lat="46.00168" lon="5.00095">
        <ele>280</ele>
        <time>2016-09-14T09:46:54Z</time>
      </trkpt>
      <trkpt lat="46.00163" lon="5.00094">
        <ele>279</ele>
        <time>2016-09-14T09:46:55Z</time>
      </trkpt>
      <trkpt lat="46.00158" lon="5.00094">
        <ele>279</ele>
        <time>2016-09-14T09:46:56Z</time>
      </trkpt>
      <trkpt lat="46.00153" lon="5.00092">
        <ele>279</ele>
        <time>2016-09-14T09:46:57Z</time>
      </trkpt>
      <trkpt lat="46.00147" lon="5.00091">
        <ele>279</ele>
        <time>2016-09-14T09:46:58Z</time>
      </trkpt>
      <trkpt lat="46.00142" lon="5.00091">
        <ele>279</ele>
        <time>2016-09-14T09:46:59Z</time>
      </trkpt>
      <trkpt lat="46.00136" lon="5.0009">
        <ele>279</ele>
        <time>2016-09-14T09:47:00Z</time>
      </trkpt>
      <trkpt lat="46.0013" lon="5.0009">
        <ele>279</ele>
        <time>2016-09-14T09:47:01Z</time>
      </trkpt>
      <trkpt lat="46.00124" lon="5.00089">
        <ele>278</ele>
        <time>2016-09-14T09:47:02Z</time>
      </trkpt>
      <trkpt lat="46.00118" lon="5.00089">
        <ele>278</ele>
        <time>2016-09-14T09:47:03Z</time>
      </trkpt>
      <trkpt lat="46.00113" lon="5.00088">
        <ele>278</ele>
        <time>2016-09-14T09:47:04Z</time>
      </trkpt>
      <trkpt lat="46.00108" lon="5.00089">
        <ele>278</ele>
        <time>2016-09-14T09:47:05Z</time>
      </trkpt>
      <trkpt lat="46.00103" lon="5.00089">
        <ele>278</ele>
        <time>2016-09-14T09:47:06Z</time>
      </trkpt>
      <trkpt lat="46.00098" lon="5.00089">
        <ele>278</ele>
        <time>2016-09-14T09:47:07Z</time>
      </trkpt>
      <trkpt lat="46.00093" lon="5.00088">
        <ele>278</ele>
        <time>2016-09-14T09:47:08Z</time>
      </trkpt>
      <trkpt lat="46.00088" lon="5.00088">
        <ele>278</ele>
        <time>2016-09-14T09:47:09Z</time>
      </trkpt>
      <trkpt lat="46.00084" lon="5.00087">
        <ele>278</ele>
        <time>2016-09-14T09:47:10Z</time>
      </trkpt>
      <trkpt lat="46.00079" lon="5.00086">
        <ele>278</ele>
        <time>2016-09-14T09:47:11Z</time>
      </trkpt>
      <trkpt lat="46.00074" lon="5.00085">
        <ele>278</ele>
        <time>2016-09-14T09:47:12Z</time>
      </trkpt>
      <trkpt lat="46.0007" lon="5.00085">
        <ele>278</ele>
        <time>2016-09-14T09:47:13Z</time>
      </trkpt>
      <trkpt lat="46.00065" lon="5.00084">
        <ele>279</ele>
        <time>2016-09-14T09:47:14Z</time>
      </trkpt>
      <trkpt lat="46.00061" lon="5.00084">
        <ele>279</ele>
        <time>2016-09-14T09:47:15Z</time>
      </trkpt>
      <trkpt lat="46.00056" lon="5.00084">
        <ele>279</ele>
        <time>2016-09-14T09:47:16Z</time>
      </trkpt>
      <trkpt lat="46.00051" lon="5.00083">
        <ele>280</ele>
        <time>2016-09-14T09:47:17Z</time>
      </trkpt>
      <trkpt lat="46.00045" lon="5.00083">
        <ele>280</ele>
        <time>2016-09-14T09:47:18Z</time>
      </trkpt>
      <trkpt lat="46.0004" lon="5.00082">
        <ele>280</ele>
        <time>2016-09-14T09:47:19Z</time>
      </trkpt>
      <trkpt lat="46.00035" lon="5.00081">
        <ele>280</ele>
        <time>2016-09-14T09:47:20Z</time>
      </trkpt>
      <trkpt lat="46.0003" lon="5.0008">
        <ele>280</ele>
        <time>2016-09-14T09:47:21Z</time>
      </trkpt>
      <trkpt lat="46.00025" lon="5.00079">
        <ele>281</ele>
        <time>2016-09-14T09:47:22Z</time>
      </trkpt>
      <trkpt lat="46.0002" lon="5.00078">
        <ele>281</ele>
        <time>2016-09-14T09:47:23Z</time>
      </trkpt>
      <trkpt lat="46.00013" lon="5.00074">
        <ele>281</ele>
        <time>2016-09-14T09:47:25Z</time>
      </trkpt>
      <trkpt lat="46.0001" lon="5.00071">
        <ele>281</ele>
        <time>2016-09-14T09:47:26Z</time>
      </trkpt>
      <trkpt lat="46.00004" lon="5.00063">
        <ele>281</ele>
        <time>2016-09-14T09:47:28Z</time>
      </trkpt>
      <trkpt lat="46.00001" lon="5.00059">
        <ele>281</ele>
        <time>2016-09-14T09:47:29Z</time>
      </trkpt>
      <trkpt lat="45.99997" lon="5.00055">
        <ele>282</ele>
        <time>2016-09-14T09:47:30Z</time>
      </trkpt>
      <trkpt lat="45.99994" lon="5.0005">
        <ele>282</ele>
        <time>2016-09-14T09:47:31Z</time>
      </trkpt>
      <trkpt lat="45.9999" lon="5.00046">
        <ele>282</ele>
        <time>2016-09-14T09:47:32Z</time>
      </trkpt>
      <trkpt lat="45.99986" lon="5.00041">
        <ele>282</ele>
        <time>2016-09-14T09:47:33Z</time>
      </trkpt>
      <trkpt lat="45.99983" lon="5.00037">
        <ele>282</ele>
        <time>2016-09-14T09:47:34Z</time>
      </trkpt>
      <trkpt lat="45.99978" lon="5.00032">
        <ele>282</ele>
        <time>2016-09-14T09:47:35Z</time>
      </trkpt>
      <trkpt lat="45.99971" lon="5.00027">
        <ele>282</ele>
        <time>2016-09-14T09:47:36Z</time>
      </trkpt>
      <trkpt lat="45.99965" lon="5.00022">
        <ele>282</ele>
        <time>2016-09-14T09:47:37Z</time>
      </trkpt>
      <trkpt lat="45.99961" lon="5.00016">
        <ele>282</ele>
        <time>2016-09-14T09:47:38Z</time>
      </trkpt>
      <trkpt lat="45.99956" lon="5.00011">
        <ele>282</ele>
        <time>2016-09-14T09:47:39Z</time>
      </trkpt>
      <trkpt lat="45.99952" lon="5.00006">
        <ele>282</ele>
        <time>2016-09-14T09:47:40Z</time>
      </trkpt>
      <trkpt lat="45.99948" lon="5">
        <ele>282</ele>
        <time>2016-09-14T09:47:41Z</time>
      </trkpt>
      <trkpt lat="45.99944" lon="4.99996">
        <ele>283</ele>
        <time>2016-09-14T09:47:42Z</time>
      </trkpt>
      <trkpt lat="45.99939" lon="4.9999">
        <ele>283</ele>
        <time>2016-09-14T09:47:43Z</time>
      </trkpt>
      <trkpt lat="45.99935" lon="4.99985">
        <ele>283</ele>
        <time>2016-09-14T09:47:44Z</time>
      </trkpt>
      <trkpt lat="45.9993" lon="4.99981">
        <ele>283</ele>
        <time>2016-09-14T09:47:45Z</time>
      </trkpt>
      <trkpt lat="45.99926" lon="4.99976">
        <ele>283</ele>
        <time>2016-09-14T09:47:46Z</time>
      </trkpt>
      <trkpt lat="45.99922" lon="4.99971">
        <ele>283</ele>
        <time>2016-09-14T09:47:47Z</time>
      </trkpt>
      <trkpt lat="45.99918" lon="4.99966">
        <ele>283</ele>
        <time>2016-09-14T09:47:48Z</time>
      </trkpt>
      <trkpt lat="45.99914" lon="4.99961">
        <ele>282</ele>
        <time>2016-09-14T09:47:49Z</time>
      </trkpt>
      <trkpt lat="45.99911" lon="4.99957">
        <ele>282</ele>
        <time>2016-09-14T09:47:50Z</time>
      </trkpt>
      <trkpt lat="45.99907" lon="4.99952">
        <ele>282</ele>
        <time>2016-09-14T09:47:51Z</time>
      </trkpt>
      <trkpt lat="45.99903" lon="4.99947">
        <ele>282</ele>
        <time>2016-09-14T09:47:52Z</time>
      </trkpt>
      <trkpt lat="45.99899" lon="4.99943">
        <ele>282</ele>
        <time>2016-09-14T09:47:53Z</time>
      </trkpt>
      <trkpt lat="45.99896" lon="4.99938">
        <ele>282</ele>
        <time>2016-09-14T09:47:54Z</time>
      </trkpt>
      <trkpt lat="45.99893" lon="4.99934">
        <ele>282</ele>
        <time>2016-09-14T09:47:55Z</time>
      </trkpt>
      <trkpt lat="45.99889" lon="4.99929">
        <ele>282</ele>
        <time>2016-09-14T09:47:56Z</time>
      </trkpt>
      <trkpt lat="45.99886" lon="4.99924">
        <ele>282</ele>
        <time>2016-09-14T09:47:57Z</time>
      </trkpt>
      <trkpt lat="45.99883" lon="4.9992">
        <ele>282</ele>
        <time>2016-09-14T09:47:58Z</time>
      </trkpt>
      <trkpt lat="45.99879" lon="4.99915">
        <ele>282</ele>
        <time>2016-09-14T09:47:59Z</time>
      </trkpt>
      <trkpt lat="45.99872" lon="4.99906">
        <ele>282</ele>
        <time>2016-09-14T09:48:01Z</time>
      </trkpt>
      <trkpt lat="45.99869" lon="4.99902">
        <ele>282</ele>
        <time>2016-09-14T09:48:02Z</time>
      </trkpt>
      <trkpt lat="45.99865" lon="4.99897">
        <ele>282</ele>
        <time>2016-09-14T09:48:03Z</time>
      </trkpt>
      <trkpt lat="45.99862" lon="4.99891">
        <ele>282</ele>
        <time>2016-09-14T09:48:04Z</time>
      </trkpt>
      <trkpt lat="45.99859" lon="4.99886">
        <ele>282</ele>
        <time>2016-09-14T09:48:05Z</time>
      </trkpt>
      <trkpt lat="45.99855" lon="4.9988">
        <ele>282</ele>
        <time>2016-09-14T09:48:06Z</time>
      </trkpt>
      <trkpt lat="45.99849" lon="4.99874">
        <ele>282</ele>
        <time>2016-09-14T09:48:07Z</time>
      </trkpt>
      <trkpt lat="45.99843" lon="4.99868">
        <ele>281</ele>
        <time>2016-09-14T09:48:08Z</time>
      </trkpt>
      <trkpt lat="45.99837" lon="4.99862">
        <ele>281</ele>
        <time>2016-09-14T09:48:09Z</time>
      </trkpt>
      <trkpt lat="45.99832" lon="4.99857">
        <ele>280</ele>
        <time>2016-09-14T09:48:10Z</time>
      </trkpt>
      <trkpt lat="45.99828" lon="4.99851">
        <ele>280</ele>
        <time>2016-09-14T09:48:11Z</time>
      </trkpt>
      <trkpt lat="45.99822" lon="4.99845">
        <ele>280</ele>
        <time>2016-09-14T09:48:12Z</time>
      </trkpt>
      <trkpt lat="45.99817" lon="4.99839">
        <ele>280</ele>
        <time>2016-09-14T09:48:13Z</time>
      </trkpt>
      <trkpt lat="45.99812" lon="4.99834">
        <ele>280</ele>
        <time>2016-09-14T09:48:14Z</time>
      </trkpt>
      <trkpt lat="45.99807" lon="4.99828">
        <ele>280</ele>
        <time>2016-09-14T09:48:15Z</time>
      </trkpt>
      <trkpt lat="45.99802" lon="4.99822">
        <ele>280</ele>
        <time>2016-09-14T09:48:16Z</time>
      </trkpt>
      <trkpt lat="45.99797" lon="4.99817">
        <ele>280</ele>
        <time>2016-09-14T09:48:17Z</time>
      </trkpt>
      <trkpt lat="45.99792" lon="4.99811">
        <ele>280</ele>
        <time>2016-09-14T09:48:18Z</time>
      </trkpt>
      <trkpt lat="45.99788" lon="4.99805">
        <ele>280</ele>
        <time>2016-09-14T09:48:19Z</time>
      </trkpt>
      <trkpt lat="45.99783" lon="4.99799">
        <ele>280</ele>
        <time>2016-09-14T09:48:20Z</time>
      </trkpt>
      <trkpt lat="45.99779" lon="4.99793">
        <ele>280</ele>
        <time>2016-09-14T09:48:21Z</time>
      </trkpt>
      <trkpt lat="45.99774" lon="4.99788">
        <ele>280</ele>
        <time>2016-09-14T09:48:22Z</time>
      </trkpt>
      <trkpt lat="45.99769" lon="4.99783">
        <ele>280</ele>
        <time>2016-09-14T09:48:23Z</time>
      </trkpt>
      <trkpt lat="45.99765" lon="4.99777">
        <ele>280</ele>
        <time>2016-09-14T09:48:24Z</time>
      </trkpt>
      <trkpt lat="45.9976" lon="4.99772">
        <ele>280</ele>
        <time>2016-09-14T09:48:25Z</time>
      </trkpt>
      <trkpt lat="45.99756" lon="4.99767">
        <ele>280</ele>
        <time>2016-09-14T09:48:26Z</time>
      </trkpt>
      <trkpt lat="45.99752" lon="4.99762">
        <ele>280</ele>
        <time>2016-09-14T09:48:27Z</time>
      </trkpt>
      <trkpt lat="45.99747" lon="4.99756">
        <ele>280</ele>
        <time>2016-09-14T09:48:28Z</time>
      </trkpt>
      <trkpt lat="45.99742" lon="4.99751">
        <ele>280</ele>
        <time>2016-09-14T09:48:29Z</time>
      </trkpt>
      <trkpt lat="45.99738" lon="4.99745">
        <ele>280</ele>
        <time>2016-09-14T09:48:30Z</time>
      </trkpt>
      <trkpt lat="45.99733" lon="4.9974">
        <ele>280</ele>
        <time>2016-09-14T09:48:31Z</time>
      </trkpt>
      <trkpt lat="45.99727" lon="4.99734">
        <ele>280</ele>
        <time>2016-09-14T09:48:32Z</time>
      </trkpt>
      <trkpt lat="45.99722" lon="4.99729">
        <ele>280</ele>
        <time>2016-09-14T09:48:33Z</time>
      </trkpt>
      <trkpt lat="45.99718" lon="4.99723">
        <ele>280</ele>
        <time>2016-09-14T09:48:34Z</time>
      </trkpt>
      <trkpt lat="45.99713" lon="4.99718">
        <ele>280</ele>
        <time>2016-09-14T09:48:35Z</time>
      </trkpt>
      <trkpt lat="45.99709" lon="4.99713">
        <ele>280</ele>
        <time>2016-09-14T09:48:36Z</time>
      </trkpt>
      <trkpt lat="45.99704" lon="4.99708">
        <ele>280</ele>
        <time>2016-09-14T09:48:37Z</time>
      </trkpt>
      <trkpt lat="45.99699" lon="4.99702">
        <ele>280</ele>
        <time>2016-09-14T09:48:38Z</time>
      </trkpt>
      <trkpt lat="45.99696" lon="4.99698">
        <ele>280</ele>
        <time>2016-09-14T09:48:39Z</time>
      </trkpt>
      <trkpt lat="45.99693" lon="4.99693">
        <ele>280</ele>
        <time>2016-09-14T09:48:40Z</time>
      </trkpt>
      <trkpt lat="45.99689" lon="4.99689">
        <ele>280</ele>
        <time>2016-09-14T09:48:41Z</time>
      </trkpt>
      <trkpt lat="45.99684" lon="4.99684">
        <ele>280</ele>
        <time>2016-09-14T09:48:42Z</time>
      </trkpt>
      <trkpt lat="45.9968" lon="4.99679">
        <ele>280</ele>
        <time>2016-09-14T09:48:43Z</time>
      </trkpt>
      <trkpt lat="45.99675" lon="4.99674">
        <ele>279</ele>
        <time>2016-09-14T09:48:44Z</time>
      </trkpt>
      <trkpt lat="45.9967" lon="4.99669">
        <ele>279</ele>
        <time>2016-09-14T09:48:45Z</time>
      </trkpt>
      <trkpt lat="45.99666" lon="4.99664">
        <ele>279</ele>
        <time>2016-09-14T09:48:46Z</time>
      </trkpt>
      <trkpt lat="45.99662" lon="4.99659">
        <ele>279</ele>
        <time>2016-09-14T09:48:47Z</time>
      </trkpt>
      <trkpt lat="45.99657" lon="4.99653">
        <ele>279</ele>
        <time>2016-09-14T09:48:48Z</time>
      </trkpt>
      <trkpt lat="45.99652" lon="4.99648">
        <ele>279</ele>
        <time>2016-09-14T09:48:49Z</time>
      </trkpt>
      <trkpt lat="45.99648" lon="4.99643">
        <ele>279</ele>
        <time>2016-09-14T09:48:50Z</time>
      </trkpt>
      <trkpt lat="45.99644" lon="4.99638">
        <ele>279</ele>
        <time>2016-09-14T09:48:51Z</time>
      </trkpt>
      <trkpt lat="45.99639" lon="4.99633">
        <ele>279</ele>
        <time>2016-09-14T09:48:52Z</time>
      </trkpt>
      <trkpt lat="45.99635" lon="4.99629">
        <ele>279</ele>
        <time>2016-09-14T09:48:53Z</time>
      </trkpt>
      <trkpt lat="45.99632" lon="4.99624">
        <ele>279</ele>
        <time>2016-09-14T09:48:54Z</time>
      </trkpt>
      <trkpt lat="45.99627" lon="4.99619">
        <ele>279</ele>
        <time>2016-09-14T09:48:55Z</time>
      </trkpt>
      <trkpt lat="45.99623" lon="4.99614">
        <ele>279</ele>
        <time>2016-09-14T09:48:56Z</time>
      </trkpt>
      <trkpt lat="45.99619" lon="4.99609">
        <ele>279</ele>
        <time>2016-09-14T09:48:57Z</time>
      </trkpt>
      <trkpt lat="45.99615" lon="4.99604">
        <ele>278</ele>
        <time>2016-09-14T09:48:58Z</time>
      </trkpt>
      <trkpt lat="45.99611" lon="4.99599">
        <ele>278</ele>
        <time>2016-09-14T09:48:59Z</time>
      </trkpt>
      <trkpt lat="45.99607" lon="4.99594">
        <ele>278</ele>
        <time>2016-09-14T09:49:00Z</time>
      </trkpt>
      <trkpt lat="45.99604" lon="4.99589">
        <ele>278</ele>
        <time>2016-09-14T09:49:01Z</time>
      </trkpt>
      <trkpt lat="45.996" lon="4.99584">
        <ele>278</ele>
        <time>2016-09-14T09:49:02Z</time>
      </trkpt>
      <trkpt lat="45.99595" lon="4.99579">
        <ele>278</ele>
        <time>2016-09-14T09:49:03Z</time>
      </trkpt>
      <trkpt lat="45.99591" lon="4.99574">
        <ele>278</ele>
        <time>2016-09-14T09:49:04Z</time>
      </trkpt>
      <trkpt lat="45.99586" lon="4.99568">
        <ele>278</ele>
        <time>2016-09-14T09:49:05Z</time>
      </trkpt>
      <trkpt lat="45.99582" lon="4.99562">
        <ele>277</ele>
        <time>2016-09-14T09:49:06Z</time>
      </trkpt>
      <trkpt lat="45.99577" lon="4.99557">
        <ele>277</ele>
        <time>2016-09-14T09:49:07Z</time>
      </trkpt>
      <trkpt lat="45.99572" lon="4.99552">
        <ele>278</ele>
        <time>2016-09-14T09:49:08Z</time>
      </trkpt>
      <trkpt lat="45.99567" lon="4.99546">
        <ele>278</ele>
        <time>2016-09-14T09:49:09Z</time>
      </trkpt>
      <trkpt lat="45.99563" lon="4.9954">
        <ele>278</ele>
        <time>2016-09-14T09:49:10Z</time>
      </trkpt>
      <trkpt lat="45.99559" lon="4.99536">
        <ele>278</ele>
        <time>2016-09-14T09:49:11Z</time>
      </trkpt>
      <trkpt lat="45.99555" lon="4.99531">
        <ele>278</ele>
        <time>2016-09-14T09:49:12Z</time>
      </trkpt>
      <trkpt lat="45.99551" lon="4.99527">
        <ele>278</ele>
        <time>2016-09-14T09:49:13Z</time>
      </trkpt>
      <trkpt lat="45.99547" lon="4.99522">
        <ele>278</ele>
        <time>2016-09-14T09:49:14Z</time>
      </trkpt>
      <trkpt lat="45.99543" lon="4.99518">
        <ele>278</ele>
        <time>2016-09-14T09:49:15Z</time>
      </trkpt>
      <trkpt lat="45.99539" lon="4.99513">
        <ele>278</ele>
        <time>2016-09-14T09:49:16Z</time>
      </trkpt>
      <trkpt lat="45.99536" lon="4.99508">
        <ele>278</ele>
        <time>2016-09-14T09:49:17Z</time>
      </trkpt>
      <trkpt lat="45.99533" lon="4.99503">
        <ele>278</ele>
        <time>2016-09-14T09:49:18Z</time>
      </trkpt>
      <trkpt lat="45.99529" lon="4.99499">
        <ele>279</ele>
        <time>2016-09-14T09:49:19Z</time>
      </trkpt>
      <trkpt lat="45.99525" lon="4.99494">
        <ele>279</ele>
        <time>2016-09-14T09:49:20Z</time>
      </trkpt>
      <trkpt lat="45.99522" lon="4.99489">
        <ele>279</ele>
        <time>2016-09-14T09:49:21Z</time>
      </trkpt>
      <trkpt lat="45.99518" lon="4.99485">
        <ele>279</ele>
        <time>2016-09-14T09:49:22Z</time>
      </trkpt>
      <trkpt lat="45.99514" lon="4.9948">
        <ele>279</ele>
        <time>2016-09-14T09:49:23Z</time>
      </trkpt>
      <trkpt lat="45.9951" lon="4.99475">
        <ele>279</ele>
        <time>2016-09-14T09:49:24Z</time>
      </trkpt>
      <trkpt lat="45.99505" lon="4.99471">
        <ele>279</ele>
        <time>2016-09-14T09:49:25Z</time>
      </trkpt>
      <trkpt lat="45.99501" lon="4.99466">
        <ele>279</ele>
        <time>2016-09-14T09:49:26Z</time>
      </trkpt>
      <trkpt lat="45.99497" lon="4.99461">
        <ele>279</ele>
        <time>2016-09-14T09:49:27Z</time>
      </trkpt>
      <trkpt lat="45.99493" lon="4.99456">
        <ele>279</ele>
        <time>2016-09-14T09:49:28Z</time>
      </trkpt>
      <trkpt lat="45.99489" lon="4.99452">
        <ele>279</ele>
        <time>2016-09-14T09:49:29Z</time>
      </trkpt>
      <trkpt lat="45.99484" lon="4.99447">
        <ele>279</ele>
        <time>2016-09-14T09:49:30Z</time>
      </trkpt>
      <trkpt lat="45.9948" lon="4.99443">
        <ele>279</ele>
        <time>2016-09-14T09:49:31Z</time>
      </trkpt>
      <trkpt lat="45.99475" lon="4.99439">
        <ele>279</ele>
        <time>2016-09-14T09:49:32Z</time>
      </trkpt>
      <trkpt lat="45.9947" lon="4.99435">
        <ele>279</ele>
        <time>2016-09-14T09:49:33Z</time>
      </trkpt>
      <trkpt lat="45.99465" lon="4.99432">
        <ele>279</ele>
        <time>2016-09-14T09:49:34Z</time>
      </trkpt>
      <trkpt lat="45.9946" lon="4.99428">
        <ele>279</ele>
        <time>2016-09-14T09:49:35Z</time>
      </trkpt>
      <trkpt lat="45.99454" lon="4.99425">
        <ele>280</ele>
        <time>2016-09-14T09:49:36Z</time>
      </trkpt>
      <trkpt lat="45.99449" lon="4.99422">
        <ele>280</ele>
        <time>2016-09-14T09:49:37Z</time>
      </trkpt>
      <trkpt lat="45.99444" lon="4.99418">
        <ele>280</ele>
        <time>2016-09-14T09:49:38Z</time>
      </trkpt>
      <trkpt lat="45.9944" lon="4.99415">
        <ele>280</ele>
        <time>2016-09-14T09:49:39Z</time>
      </trkpt>
      <trkpt lat="45.99435" lon="4.99412">
        <ele>280</ele>
        <time>2016-09-14T09:49:40Z</time>
      </trkpt>
      <trkpt lat="45.9943" lon="4.99409">
        <ele>280</ele>
        <time>2016-09-14T09:49:41Z</time>
      </trkpt>
      <trkpt lat="45.99426" lon="4.99406">
        <ele>280</ele>
        <time>2016-09-14T09:49:42Z</time>
      </trkpt>
      <trkpt lat="45.99422" lon="4.99403">
        <ele>280</ele>
        <time>2016-09-14T09:49:43Z</time>
      </trkpt>
      <trkpt lat="45.99417" lon="4.994">
        <ele>280</ele>
        <time>2016-09-14T09:49:44Z</time>
      </trkpt>
      <trkpt lat="45.99409" lon="4.99394">
        <ele>280</ele>
        <time>2016-09-14T09:49:46Z</time>
      </trkpt>
      <trkpt lat="45.99405" lon="4.9939">
        <ele>280</ele>
        <time>2016-09-14T09:49:47Z</time>
      </trkpt>
      <trkpt lat="45.994" lon="4.99387">
        <ele>280</ele>
        <time>2016-09-14T09:49:48Z</time>
      </trkpt>
      <trkpt lat="45.99395" lon="4.99384">
        <ele>280</ele>
        <time>2016-09-14T09:49:49Z</time>
      </trkpt>
      <trkpt lat="45.9939" lon="4.99381">
        <ele>280</ele>
        <time>2016-09-14T09:49:50Z</time>
      </trkpt>
      <trkpt lat="45.99386" lon="4.99377">
        <ele>280</ele>
        <time>2016-09-14T09:49:51Z</time>
      </trkpt>
      <trkpt lat="45.99381" lon="4.99374">
        <ele>280</ele>
        <time>2016-09-14T09:49:52Z</time>
      </trkpt>
      <trkpt lat="45.99377" lon="4.99371">
        <ele>280</ele>
        <time>2016-09-14T09:49:53Z</time>
      </trkpt>
      <trkpt lat="45.99372" lon="4.99368">
        <ele>280</ele>
        <time>2016-09-14T09:49:54Z</time>
      </trkpt>
      <trkpt lat="45.99368" lon="4.99365">
        <ele>280</ele>
        <time>2016-09-14T09:49:55Z</time>
      </trkpt>
      <trkpt lat="45.99363" lon="4.99362">
        <ele>280</ele>
        <time>2016-09-14T09:49:56Z</time>
      </trkpt>
      <trkpt lat="45.99359" lon="4.99359">
        <ele>280</ele>
        <time>2016-09-14T09:49:57Z</time>
      </trkpt>
      <trkpt lat="45.99355" lon="4.99356">
        <ele>280</ele>
        <time>2016-09-14T09:49:58Z</time>
      </trkpt>
      <trkpt lat="45.9935" lon="4.99353">
        <ele>280</ele>
        <time>2016-09-14T09:49:59Z</time>
      </trkpt>
      <trkpt lat="45.99346" lon="4.99349">
        <ele>280</ele>
        <time>2016-09-14T09:50:00Z</time>
      </trkpt>
      <trkpt lat="45.99341" lon="4.99346">
        <ele>279</ele>
        <time>2016-09-14T09:50:01Z</time>
      </trkpt>
      <trkpt lat="45.99336" lon="4.99343">
        <ele>279</ele>
        <time>2016-09-14T09:50:02Z</time>
      </trkpt>
      <trkpt lat="45.99331" lon="4.99341">
        <ele>279</ele>
        <time>2016-09-14T09:50:03Z</time>
      </trkpt>
      <trkpt lat="45.99327" lon="4.99338">
        <ele>279</ele>
        <time>2016-09-14T09:50:04Z</time>
      </trkpt>
      <trkpt lat="45.99322" lon="4.99335">
        <ele>280</ele>
        <time>2016-09-14T09:50:05Z</time>
      </trkpt>
      <trkpt lat="45.99318" lon="4.99332">
        <ele>279</ele>
        <time>2016-09-14T09:50:06Z</time>
      </trkpt>
      <trkpt lat="45.99313" lon="4.99329">
        <ele>279</ele>
        <time>2016-09-14T09:50:07Z</time>
      </trkpt>
      <trkpt lat="45.99308" lon="4.99326">
        <ele>279</ele>
        <time>2016-09-14T09:50:08Z</time>
      </trkpt>
      <trkpt lat="45.99303" lon="4.99323">
        <ele>280</ele>
        <time>2016-09-14T09:50:09Z</time>
      </trkpt>
      <trkpt lat="45.99298" lon="4.9932">
        <ele>280</ele>
        <time>2016-09-14T09:50:10Z</time>
      </trkpt>
      <trkpt lat="45.99293" lon="4.99316">
        <ele>280</ele>
        <time>2016-09-14T09:50:11Z</time>
      </trkpt>
      <trkpt lat="45.99287" lon="4.99312">
        <ele>280</ele>
        <time>2016-09-14T09:50:12Z</time>
      </trkpt>
      <trkpt lat="45.99281" lon="4.99309">
        <ele>280</ele>
        <time>2016-09-14T09:50:13Z</time>
      </trkpt>
      <trkpt lat="45.99276" lon="4.99306">
        <ele>280</ele>
        <time>2016-09-14T09:50:14Z</time>
      </trkpt>
      <trkpt lat="45.9927" lon="4.99303">
        <ele>280</ele>
        <time>2016-09-14T09:50:15Z</time>
      </trkpt>
      <trkpt lat="45.99263" lon="4.993">
        <ele>280</ele>
        <time>2016-09-14T09:50:16Z</time>
      </trkpt>
      <trkpt lat="45.99258" lon="4.99298">
        <ele>280</ele>
        <time>2016-09-14T09:50:17Z</time>
      </trkpt>
      <trkpt lat="45.99253" lon="4.99294">
        <ele>280</ele>
        <time>2016-09-14T09:50:18Z</time>
      </trkpt>
      <trkpt lat="45.99248" lon="4.99291">
        <ele>281</ele>
        <time>2016-09-14T09:50:19Z</time>
      </trkpt>
      <trkpt lat="45.99244" lon="4.99288">
        <ele>281</ele>
        <time>2016-09-14T09:50:20Z</time>
      </trkpt>
      <trkpt lat="45.99239" lon="4.99285">
        <ele>281</ele>
        <time>2016-09-14T09:50:21Z</time>
      </trkpt>
      <trkpt lat="45.99235" lon="4.99281">
        <ele>281</ele>
        <time>2016-09-14T09:50:22Z</time>
      </trkpt>
      <trkpt lat="45.99231" lon="4.99277">
        <ele>282</ele>
        <time>2016-09-14T09:50:23Z</time>
      </trkpt>
      <trkpt lat="45.99226" lon="4.99273">
        <ele>282</ele>
        <time>2016-09-14T09:50:24Z</time>
      </trkpt>
      <trkpt lat="45.99222" lon="4.99268">
        <ele>282</ele>
        <time>2016-09-14T09:50:25Z</time>
      </trkpt>
      <trkpt lat="45.99217" lon="4.99263">
        <ele>282</ele>
        <time>2016-09-14T09:50:26Z</time>
      </trkpt>
      <trkpt lat="45.99213" lon="4.99257">
        <ele>282</ele>
        <time>2016-09-14T09:50:27Z</time>
      </trkpt>
      <trkpt lat="45.99209" lon="4.99251">
        <ele>282</ele>
        <time>2016-09-14T09:50:28Z</time>
      </trkpt>
      <trkpt lat="45.99206" lon="4.99245">
        <ele>283</ele>
        <time>2016-09-14T09:50:29Z</time>
      </trkpt>
      <trkpt lat="45.99203" lon="4.99239">
        <ele>283</ele>
        <time>2016-09-14T09:50:30Z</time>
      </trkpt>
      <trkpt lat="45.992" lon="4.99233">
        <ele>284</ele>
        <time>2016-09-14T09:50:31Z</time>
      </trkpt>
      <trkpt lat="45.99196" lon="4.99228">
        <ele>284</ele>
        <time>2016-09-14T09:50:32Z</time>
      </trkpt>
      <trkpt lat="45.99193" lon="4.99222">
        <ele>284</ele>
        <time>2016-09-14T09:50:33Z</time>
      </trkpt>
      <trkpt lat="45.9919" lon="4.99216">
        <ele>284</ele>
        <time>2016-09-14T09:50:34Z</time>
      </trkpt>
      <trkpt lat="45.99187" lon="4.99211">
        <ele>284</ele>
        <time>2016-09-14T09:50:35Z</time>
      </trkpt>
      <trkpt lat="45.99184" lon="4.99206">
        <ele>284</ele>
        <time>2016-09-14T09:50:36Z</time>
      </trkpt>
      <trkpt lat="45.9918" lon="4.99201">
        <ele>284</ele>
        <time>2016-09-14T09:50:37Z</time>
      </trkpt>
      <trkpt lat="45.99175" lon="4.99191">
        <ele>284</ele>
        <time>2016-09-14T09:50:39Z</time>
      </trkpt>
      <trkpt lat="45.99172" lon="4.99186">
        <ele>285</ele>
        <time>2016-09-14T09:50:40Z</time>
      </trkpt>
      <trkpt lat="45.99168" lon="4.99181">
        <ele>285</ele>
        <time>2016-09-14T09:50:41Z</time>
      </trkpt>
      <trkpt lat="45.99165" lon="4.99176">
        <ele>286</ele>
        <time>2016-09-14T09:50:42Z</time>
      </trkpt>
      <trkpt lat="45.9916" lon="4.99166">
        <ele>286</ele>
        <time>2016-09-14T09:50:44Z</time>
      </trkpt>
      <trkpt lat="45.99157" lon="4.99161">
        <ele>286</ele>
        <time>2016-09-14T09:50:45Z</time>
      </trkpt>
      <trkpt lat="45.99151" lon="4.99153">
        <ele>286</ele>
        <time>2016-09-14T09:50:47Z</time>
      </trkpt>
      <trkpt lat="45.99148" lon="4.99149">
        <ele>286</ele>
        <time>2016-09-14T09:50:48Z</time>
      </trkpt>
      <trkpt lat="45.99144" lon="4.99147">
        <ele>286</ele>
        <time>2016-09-14T09:50:49Z</time>
      </trkpt>
      <trkpt lat="45.99139" lon="4.99146">
        <ele>286</ele>
        <time>2016-09-14T09:50:50Z</time>
      </trkpt>
      <trkpt lat="45.99134" lon="4.99146">
        <ele>286</ele>
        <time>2016-09-14T09:50:51Z</time>
      </trkpt>
      <trkpt lat="45.99129" lon="4.99145">
        <ele>286</ele>
        <time>2016-09-14T09:50:52Z</time>
      </trkpt>
      <trkpt lat="45.99123" lon="4.99146">
        <ele>286</ele>
        <time>2016-09-14T09:50:53Z</time>
      </trkpt>
      <trkpt lat="45.99118" lon="4.99147">
        <ele>286</ele>
        <time>2016-09-14T09:50:54Z</time>
      </trkpt>
      <trkpt lat="45.99113" lon="4.99148">
        <ele>286</ele>
        <time>2016-09-14T09:50:55Z</time>
      </trkpt>
      <trkpt lat="45.99104" lon="4.99149">
        <ele>286</ele>
        <time>2016-09-14T09:50:56Z</time>
      </trkpt>
      <trkpt lat="45.99096" lon="4.9915">
        <ele>286</ele>
        <time>2016-09-14T09:50:57Z</time>
      </trkpt>
      <trkpt lat="45.99089" lon="4.99151">
        <ele>286</ele>
        <time>2016-09-14T09:50:58Z</time>
      </trkpt>
      <trkpt lat="45.99081" lon="4.99152">
        <ele>285</ele>
        <time>2016-09-14T09:50:59Z</time>
      </trkpt>
      <trkpt lat="45.99074" lon="4.99153">
        <ele>285</ele>
        <time>2016-09-14T09:51:00Z</time>
      </trkpt>
      <trkpt lat="45.99068" lon="4.99154">
        <ele>285</ele>
        <time>2016-09-14T09:51:01Z</time>
      </trkpt>
      <trkpt lat="45.99062" lon="4.99155">
        <ele>285</ele>
        <time>2016-09-14T09:51:02Z</time>
      </trkpt>
      <trkpt lat="45.99056" lon="4.99156">
        <ele>285</ele>
        <time>2016-09-14T09:51:03Z</time>
      </trkpt>
      <trkpt lat="45.99051" lon="4.99157">
        <ele>285</ele>
        <time>2016-09-14T09:51:04Z</time>
      </trkpt>
      <trkpt lat="45.99045" lon="4.99158">
        <ele>285</ele>
        <time>2016-09-14T09:51:05Z</time>
      </trkpt>
      <trkpt lat="45.9904" lon="4.99159">
        <ele>285</ele>
        <time>2016-09-14T09:51:06Z</time>
      </trkpt>
      <trkpt lat="45.99035" lon="4.9916">
        <ele>285</ele>
        <time>2016-09-14T09:51:07Z</time>
      </trkpt>
      <trkpt lat="45.99029" lon="4.99162">
        <ele>285</ele>
        <time>2016-09-14T09:51:08Z</time>
      </trkpt>
      <trkpt lat="45.99024" lon="4.99163">
        <ele>285</ele>
        <time>2016-09-14T09:51:09Z</time>
      </trkpt>
      <trkpt lat="45.99018" lon="4.99165">
        <ele>285</ele>
        <time>2016-09-14T09:51:10Z</time>
      </trkpt>
      <trkpt lat="45.99013" lon="4.99166">
        <ele>285</ele>
        <time>2016-09-14T09:51:11Z</time>
      </trkpt>
      <trkpt lat="45.99007" lon="4.99167">
        <ele>285</ele>
        <time>2016-09-14T09:51:12Z</time>
      </trkpt>
      <trkpt lat="45.99" lon="4.99169">
        <ele>285</ele>
        <time>2016-09-14T09:51:13Z</time>
      </trkpt>
      <trkpt lat="45.98994" lon="4.9917">
        <ele>285</ele>
        <time>2016-09-14T09:51:14Z</time>
      </trkpt>
      <trkpt lat="45.98989" lon="4.99171">
        <ele>285</ele>
        <time>2016-09-14T09:51:15Z</time>
      </trkpt>
      <trkpt lat="45.98983" lon="4.99173">
        <ele>285</ele>
        <time>2016-09-14T09:51:16Z</time>
      </trkpt>
      <trkpt lat="45.98977" lon="4.99174">
        <ele>285</ele>
        <time>2016-09-14T09:51:17Z</time>
      </trkpt>
      <trkpt lat="45.98971" lon="4.99175">
        <ele>285</ele>
        <time>2016-09-14T09:51:18Z</time>
      </trkpt>
      <trkpt lat="45.98966" lon="4.99176">
        <ele>285</ele>
        <time>2016-09-14T09:51:19Z</time>
      </trkpt>
      <trkpt lat="45.98961" lon="4.99178">
        <ele>285</ele>
        <time>2016-09-14T09:51:20Z</time>
      </trkpt>
      <trkpt lat="45.98956" lon="4.99179">
        <ele>285</ele>
        <time>2016-09-14T09:51:21Z</time>
      </trkpt>
      <trkpt lat="45.9895" lon="4.9918">
        <ele>285</ele>
        <time>2016-09-14T09:51:22Z</time>
      </trkpt>
      <trkpt lat="45.98946" lon="4.99182">
        <ele>285</ele>
        <time>2016-09-14T09:51:23Z</time>
      </trkpt>
      <trkpt lat="45.98941" lon="4.99182">
        <ele>285</ele>
        <time>2016-09-14T09:51:24Z</time>
      </trkpt>
      <trkpt lat="45.98933" lon="4.99179">
        <ele>286</ele>
        <time>2016-09-14T09:51:26Z</time>
      </trkpt>
      <trkpt lat="45.9893" lon="4.99175">
        <ele>286</ele>
        <time>2016-09-14T09:51:27Z</time>
      </trkpt>
      <trkpt lat="45.98927" lon="4.9917">
        <ele>286</ele>
        <time>2016-09-14T09:51:28Z</time>
      </trkpt>
      <trkpt lat="45.98923" lon="4.99166">
        <ele>286</ele>
        <time>2016-09-14T09:51:29Z</time>
      </trkpt>
      <trkpt lat="45.98914" lon="4.99161">
        <ele>286</ele>
        <time>2016-09-14T09:51:31Z</time>
      </trkpt>
      <trkpt lat="45.98911" lon="4.99161">
        <ele>286</ele>
        <time>2016-09-14T09:51:32Z</time>
      </trkpt>
      <trkpt lat="45.98902" lon="4.99161">
        <ele>286</ele>
        <time>2016-09-14T09:51:35Z</time>
      </trkpt>
      <trkpt lat="45.98899" lon="4.99159">
        <ele>286</ele>
        <time>2016-09-14T09:51:36Z</time>
      </trkpt>
      <trkpt lat="45.98892" lon="4.99151">
        <ele>286</ele>
        <time>2016-09-14T09:51:38Z</time>
      </trkpt>
      <trkpt lat="45.98889" lon="4.99146">
        <ele>286</ele>
        <time>2016-09-14T09:51:39Z</time>
      </trkpt>
      <trkpt lat="45.98885" lon="4.99142">
        <ele>286</ele>
        <time>2016-09-14T09:51:40Z</time>
      </trkpt>
      <trkpt lat="45.98882" lon="4.99138">
        <ele>286</ele>
        <time>2016-09-14T09:51:41Z</time>
      </trkpt>
      <trkpt lat="45.98878" lon="4.99133">
        <ele>286</ele>
        <time>2016-09-14T09:51:42Z</time>
      </trkpt>
      <trkpt lat="45.98874" lon="4.99129">
        <ele>285</ele>
        <time>2016-09-14T09:51:43Z</time>
      </trkpt>
      <trkpt lat="45.9887" lon="4.99125">
        <ele>286</ele>
        <time>2016-09-14T09:51:44Z</time>
      </trkpt>
      <trkpt lat="45.98866" lon="4.99121">
        <ele>286</ele>
        <time>2016-09-14T09:51:45Z</time>
      </trkpt>
      <trkpt lat="45.9886" lon="4.99113">
        <ele>286</ele>
        <time>2016-09-14T09:51:47Z</time>
      </trkpt>
      <trkpt lat="45.98856" lon="4.99109">
        <ele>286</ele>
        <time>2016-09-14T09:51:48Z</time>
      </trkpt>
      <trkpt lat="45.98852" lon="4.99106">
        <ele>286</ele>
        <time>2016-09-14T09:51:49Z</time>
      </trkpt>
      <trkpt lat="45.98848" lon="4.99102">
        <ele>286</ele>
        <time>2016-09-14T09:51:50Z</time>
      </trkpt>
      <trkpt lat="45.98843" lon="4.99098">
        <ele>286</ele>
        <time>2016-09-14T09:51:51Z</time>
      </trkpt>
      <trkpt lat="45.9884" lon="4.99094">
        <ele>286</ele>
        <time>2016-09-14T09:51:52Z</time>
      </trkpt>
      <trkpt lat="45.98835" lon="4.9909">
        <ele>286</ele>
        <time>2016-09-14T09:51:53Z</time>
      </trkpt>
      <trkpt lat="45.98831" lon="4.99086">
        <ele>286</ele>
        <time>2016-09-14T09:51:54Z</time>
      </trkpt>
      <trkpt lat="45.98827" lon="4.99082">
        <ele>286</ele>
        <time>2016-09-14T09:51:55Z</time>
      </trkpt>
      <trkpt lat="45.98823" lon="4.99078">
        <ele>287</ele>
        <time>2016-09-14T09:51:56Z</time>
      </trkpt>
      <trkpt lat="45.98819" lon="4.99074">
        <ele>287</ele>
        <time>2016-09-14T09:51:57Z</time>
      </trkpt>
      <trkpt lat="45.98815" lon="4.9907">
        <ele>287</ele>
        <time>2016-09-14T09:51:58Z</time>
      </trkpt>
      <trkpt lat="45.9881" lon="4.99066">
        <ele>287</ele>
        <time>2016-09-14T09:51:59Z</time>
      </trkpt>
      <trkpt lat="45.98805" lon="4.99062">
        <ele>287</ele>
        <time>2016-09-14T09:52:00Z</time>
      </trkpt>
      <trkpt lat="45.98801" lon="4.99057">
        <ele>287</ele>
        <time>2016-09-14T09:52:01Z</time>
      </trkpt>
      <trkpt lat="45.98797" lon="4.99053">
        <ele>288</ele>
        <time>2016-09-14T09:52:02Z</time>
      </trkpt>
      <trkpt lat="45.98793" lon="4.99049">
        <ele>288</ele>
        <time>2016-09-14T09:52:03Z</time>
      </trkpt>
      <trkpt lat="45.98789" lon="4.99045">
        <ele>288</ele>
        <time>2016-09-14T09:52:04Z</time>
      </trkpt>
      <trkpt lat="45.98782" lon="4.99036">
        <ele>288</ele>
        <time>2016-09-14T09:52:06Z</time>
      </trkpt>
      <trkpt lat="45.98779" lon="4.99032">
        <ele>288</ele>
        <time>2016-09-14T09:52:07Z</time>
      </trkpt>
      <trkpt lat="45.98775" lon="4.99027">
        <ele>288</ele>
        <time>2016-09-14T09:52:08Z</time>
      </trkpt>
      <trkpt lat="45.98771" lon="4.99021">
        <ele>288</ele>
        <time>2016-09-14T09:52:09Z</time>
      </trkpt>
      <trkpt lat="45.98767" lon="4.99016">
        <ele>288</ele>
        <time>2016-09-14T09:52:10Z</time>
      </trkpt>
      <trkpt lat="45.98763" lon="4.99011">
        <ele>288</ele>
        <time>2016-09-14T09:52:11Z</time>
      </trkpt>
      <trkpt lat="45.98759" lon="4.99005">
        <ele>289</ele>
        <time>2016-09-14T09:52:12Z</time>
      </trkpt>
      <trkpt lat="45.98755" lon="4.98999">
        <ele>289</ele>
        <time>2016-09-14T09:52:13Z</time>
      </trkpt>
      <trkpt lat="45.98752" lon="4.98993">
        <ele>289</ele>
        <time>2016-09-14T09:52:14Z</time>
      </trkpt>
      <trkpt lat="45.98748" lon="4.98986">
        <ele>288</ele>
        <time>2016-09-14T09:52:15Z</time>
      </trkpt>
      <trkpt lat="45.98744" lon="4.9898">
        <ele>288</ele>
        <time>2016-09-14T09:52:16Z</time>
      </trkpt>
      <trkpt lat="45.9874" lon="4.98973">
        <ele>288</ele>
        <time>2016-09-14T09:52:17Z</time>
      </trkpt>
      <trkpt lat="45.98737" lon="4.98967">
        <ele>288</ele>
        <time>2016-09-14T09:52:18Z</time>
      </trkpt>
      <trkpt lat="45.98733" lon="4.9896">
        <ele>288</ele>
        <time>2016-09-14T09:52:19Z</time>
      </trkpt>
      <trkpt lat="45.9873" lon="4.98953">
        <ele>288</ele>
        <time>2016-09-14T09:52:20Z</time>
      </trkpt>
      <trkpt lat="45.98727" lon="4.98947">
        <ele>288</ele>
        <time>2016-09-14T09:52:21Z</time>
      </trkpt>
      <trkpt lat="45.98725" lon="4.9894">
        <ele>288</ele>
        <time>2016-09-14T09:52:22Z</time>
      </trkpt>
      <trkpt lat="45.98721" lon="4.98933">
        <ele>288</ele>
        <time>2016-09-14T09:52:23Z</time>
      </trkpt>
      <trkpt lat="45.98718" lon="4.98925">
        <ele>288</ele>
        <time>2016-09-14T09:52:24Z</time>
      </trkpt>
      <trkpt lat="45.98715" lon="4.98918">
        <ele>288</ele>
        <time>2016-09-14T09:52:25Z</time>
      </trkpt>
      <trkpt lat="45.98712" lon="4.9891">
        <ele>288</ele>
        <time>2016-09-14T09:52:26Z</time>
      </trkpt>
      <trkpt lat="45.98709" lon="4.98903">
        <ele>288</ele>
        <time>2016-09-14T09:52:27Z</time>
      </trkpt>
      <trkpt lat="45.98706" lon="4.98896">
        <ele>288</ele>
        <time>2016-09-14T09:52:28Z</time>
      </trkpt>
      <trkpt lat="45.98703" lon="4.98888">
        <ele>288</ele>
        <time>2016-09-14T09:52:29Z</time>
      </trkpt>
      <trkpt lat="45.98701" lon="4.98881">
        <ele>288</ele>
        <time>2016-09-14T09:52:30Z</time>
      </trkpt>
      <trkpt lat="45.98698" lon="4.98873">
        <ele>288</ele>
        <time>2016-09-14T09:52:31Z</time>
      </trkpt>
      <trkpt lat="45.98696" lon="4.98865">
        <ele>288</ele>
        <time>2016-09-14T09:52:32Z</time>
      </trkpt>
      <trkpt lat="45.98693" lon="4.98857">
        <ele>288</ele>
        <time>2016-09-14T09:52:33Z</time>
      </trkpt>
      <trkpt lat="45.98691" lon="4.98849">
        <ele>287</ele>
        <time>2016-09-14T09:52:34Z</time>
      </trkpt>
      <trkpt lat="45.98688" lon="4.98841">
        <ele>287</ele>
        <time>2016-09-14T09:52:35Z</time>
      </trkpt>
      <trkpt lat="45.98686" lon="4.98833">
        <ele>287</ele>
        <time>2016-09-14T09:52:36Z</time>
      </trkpt>
      <trkpt lat="45.98684" lon="4.98825">
        <ele>287</ele>
        <time>2016-09-14T09:52:37Z</time>
      </trkpt>
      <trkpt lat="45.98681" lon="4.98817">
        <ele>287</ele>
        <time>2016-09-14T09:52:38Z</time>
      </trkpt>
      <trkpt lat="45.98679" lon="4.98809">
        <ele>287</ele>
        <time>2016-09-14T09:52:39Z</time>
      </trkpt>
      <trkpt lat="45.98676" lon="4.98801">
        <ele>287</ele>
        <time>2016-09-14T09:52:40Z</time>
      </trkpt>
      <trkpt lat="45.98674" lon="4.98794">
        <ele>287</ele>
        <time>2016-09-14T09:52:41Z</time>
      </trkpt>
      <trkpt lat="45.98672" lon="4.98785">
        <ele>287</ele>
        <time>2016-09-14T09:52:42Z</time>
      </trkpt>
      <trkpt lat="45.9867" lon="4.98777">
        <ele>287</ele>
        <time>2016-09-14T09:52:43Z</time>
      </trkpt>
      <trkpt lat="45.98668" lon="4.98769">
        <ele>287</ele>
        <time>2016-09-14T09:52:44Z</time>
      </trkpt>
      <trkpt lat="45.98666" lon="4.9876">
        <ele>287</ele>
        <time>2016-09-14T09:52:45Z</time>
      </trkpt>
      <trkpt lat="45.98663" lon="4.9875">
        <ele>287</ele>
        <time>2016-09-14T09:52:46Z</time>
      </trkpt>
      <trkpt lat="45.98662" lon="4.98742">
        <ele>287</ele>
        <time>2016-09-14T09:52:47Z</time>
      </trkpt>
      <trkpt lat="45.98659" lon="4.98734">
        <ele>286</ele>
        <time>2016-09-14T09:52:48Z</time>
      </trkpt>
      <trkpt lat="45.98656" lon="4.98725">
        <ele>286</ele>
        <time>2016-09-14T09:52:49Z</time>
      </trkpt>
      <trkpt lat="45.98653" lon="4.98716">
        <ele>286</ele>
        <time>2016-09-14T09:52:50Z</time>
      </trkpt>
      <trkpt lat="45.9865" lon="4.98706">
        <ele>286</ele>
        <time>2016-09-14T09:52:51Z</time>
      </trkpt>
      <trkpt lat="45.98647" lon="4.98696">
        <ele>286</ele>
        <time>2016-09-14T09:52:52Z</time>
      </trkpt>
      <trkpt lat="45.98644" lon="4.98686">
        <ele>286</ele>
        <time>2016-09-14T09:52:53Z</time>
      </trkpt>
      <trkpt lat="45.9864" lon="4.98676">
        <ele>286</ele>
        <time>2016-09-14T09:52:54Z</time>
      </trkpt>
      <trkpt lat="45.98637" lon="4.98666">
        <ele>285</ele>
        <time>2016-09-14T09:52:55Z</time>
      </trkpt>
      <trkpt lat="45.98633" lon="4.98656">
        <ele>285</ele>
        <time>2016-09-14T09:52:56Z</time>
      </trkpt>
      <trkpt lat="45.9863" lon="4.98646">
        <ele>285</ele>
        <time>2016-09-14T09:52:57Z</time>
      </trkpt>
      <trkpt lat="45.98627" lon="4.98636">
        <ele>284</ele>
        <time>2016-09-14T09:52:58Z</time>
      </trkpt>
      <trkpt lat="45.98624" lon="4.98626">
        <ele>284</ele>
        <time>2016-09-14T09:52:59Z</time>
      </trkpt>
      <trkpt lat="45.98621" lon="4.98616">
        <ele>284</ele>
        <time>2016-09-14T09:53:00Z</time>
      </trkpt>
      <trkpt lat="45.98618" lon="4.98607">
        <ele>284</ele>
        <time>2016-09-14T09:53:01Z</time>
      </trkpt>
      <trkpt lat="45.98615" lon="4.98598">
        <ele>284</ele>
        <time>2016-09-14T09:53:02Z</time>
      </trkpt>
      <trkpt lat="45.98613" lon="4.98589">
        <ele>284</ele>
        <time>2016-09-14T09:53:03Z</time>
      </trkpt>
      <trkpt lat="45.9861" lon="4.9858">
        <ele>282</ele>
        <time>2016-09-14T09:53:04Z</time>
      </trkpt>
      <trkpt lat="45.98607" lon="4.98571">
        <ele>282</ele>
        <time>2016-09-14T09:53:05Z</time>
      </trkpt>
      <trkpt lat="45.98604" lon="4.98563">
        <ele>282</ele>
        <time>2016-09-14T09:53:06Z</time>
      </trkpt>
      <trkpt lat="45.98602" lon="4.98554">
        <ele>282</ele>
        <time>2016-09-14T09:53:07Z</time>
      </trkpt>
      <trkpt lat="45.98599" lon="4.98545">
        <ele>282</ele>
        <time>2016-09-14T09:53:08Z</time>
      </trkpt>
      <trkpt lat="45.98597" lon="4.98536">
        <ele>282</ele>
        <time>2016-09-14T09:53:09Z</time>
      </trkpt>
      <trkpt lat="45.98594" lon="4.98527">
        <ele>282</ele>
        <time>2016-09-14T09:53:10Z</time>
      </trkpt>
      <trkpt lat="45.98591" lon="4.98518">
        <ele>282</ele>
        <time>2016-09-14T09:53:11Z</time>
      </trkpt>
      <trkpt lat="45.98588" lon="4.9851">
        <ele>282</ele>
        <time>2016-09-14T09:53:12Z</time>
      </trkpt>
      <trkpt lat="45.98585" lon="4.98502">
        <ele>282</ele>
        <time>2016-09-14T09:53:13Z</time>
      </trkpt>
      <trkpt lat="45.98582" lon="4.98493">
        <ele>282</ele>
        <time>2016-09-14T09:53:14Z</time>
      </trkpt>
      <trkpt lat="45.9858" lon="4.98485">
        <ele>282</ele>
        <time>2016-09-14T09:53:15Z</time>
      </trkpt>
      <trkpt lat="45.98576" lon="4.98477">
        <ele>282</ele>
        <time>2016-09-14T09:53:16Z</time>
      </trkpt>
      <trkpt lat="45.98574" lon="4.98469">
        <ele>282</ele>
        <time>2016-09-14T09:53:17Z</time>
      </trkpt>
      <trkpt lat="45.98572" lon="4.98461">
        <ele>282</ele>
        <time>2016-09-14T09:53:18Z</time>
      </trkpt>
      <trkpt lat="45.9857" lon="4.98454">
        <ele>283</ele>
        <time>2016-09-14T09:53:19Z</time>
      </trkpt>
      <trkpt lat="45.98567" lon="4.98446">
        <ele>283</ele>
        <time>2016-09-14T09:53:20Z</time>
      </trkpt>
      <trkpt lat="45.98564" lon="4.98438">
        <ele>283</ele>
        <time>2016-09-14T09:53:21Z</time>
      </trkpt>
      <trkpt lat="45.98561" lon="4.98431">
        <ele>283</ele>
        <time>2016-09-14T09:53:22Z</time>
      </trkpt>
      <trkpt lat="45.98559" lon="4.98424">
        <ele>283</ele>
        <time>2016-09-14T09:53:23Z</time>
      </trkpt>
      <trkpt lat="45.98556" lon="4.98416">
        <ele>283</ele>
        <time>2016-09-14T09:53:24Z</time>
      </trkpt>
      <trkpt lat="45.98554" lon="4.98407">
        <ele>283</ele>
        <time>2016-09-14T09:53:25Z</time>
      </trkpt>
      <trkpt lat="45.98552" lon="4.98399">
        <ele>283</ele>
        <time>2016-09-14T09:53:26Z</time>
      </trkpt>
      <trkpt lat="45.98549" lon="4.9839">
        <ele>283</ele>
        <time>2016-09-14T09:53:27Z</time>
      </trkpt>
      <trkpt lat="45.98547" lon="4.98382">
        <ele>283</ele>
        <time>2016-09-14T09:53:28Z</time>
      </trkpt>
      <trkpt lat="45.98544" lon="4.98373">
        <ele>283</ele>
        <time>2016-09-14T09:53:29Z</time>
      </trkpt>
      <trkpt lat="45.9854" lon="4.98364">
        <ele>282</ele>
        <time>2016-09-14T09:53:30Z</time>
      </trkpt>
      <trkpt lat="45.98537" lon="4.98355">
        <ele>282</ele>
        <time>2016-09-14T09:53:31Z</time>
      </trkpt>
      <trkpt lat="45.98534" lon="4.98346">
        <ele>282</ele>
        <time>2016-09-14T09:53:32Z</time>
      </trkpt>
      <trkpt lat="45.98532" lon="4.98338">
        <ele>282</ele>
        <time>2016-09-14T09:53:33Z</time>
      </trkpt>
      <trkpt lat="45.98529" lon="4.98331">
        <ele>283</ele>
        <time>2016-09-14T09:53:34Z</time>
      </trkpt>
      <trkpt lat="45.98527" lon="4.98323">
        <ele>283</ele>
        <time>2016-09-14T09:53:35Z</time>
      </trkpt>
      <trkpt lat="45.98525" lon="4.98315">
        <ele>283</ele>
        <time>2016-09-14T09:53:36Z</time>
      </trkpt>
      <trkpt lat="45.98523" lon="4.98307">
        <ele>283</ele>
        <time>2016-09-14T09:53:37Z</time>
      </trkpt>
      <trkpt lat="45.9852" lon="4.98299">
        <ele>283</ele>
        <time>2016-09-14T09:53:38Z</time>
      </trkpt>
      <trkpt lat="45.98518" lon="4.98291">
        <ele>283</ele>
        <time>2016-09-14T09:53:39Z</time>
      </trkpt>
      <trkpt lat="45.98515" lon="4.98283">
        <ele>284</ele>
        <time>2016-09-14T09:53:40Z</time>
      </trkpt>
      <trkpt lat="45.98512" lon="4.98275">
        <ele>284</ele>
        <time>2016-09-14T09:53:41Z</time>
      </trkpt>
      <trkpt lat="45.9851" lon="4.98267">
        <ele>284</ele>
        <time>2016-09-14T09:53:42Z</time>
      </trkpt>
      <trkpt lat="45.98507" lon="4.98259">
        <ele>284</ele>
        <time>2016-09-14T09:53:43Z</time>
      </trkpt>
      <trkpt lat="45.98505" lon="4.98251">
        <ele>285</ele>
        <time>2016-09-14T09:53:44Z</time>
      </trkpt>
      <trkpt lat="45.98502" lon="4.98243">
        <ele>285</ele>
        <time>2016-09-14T09:53:45Z</time>
      </trkpt>
      <trkpt lat="45.985" lon="4.98236">
        <ele>285</ele>
        <time>2016-09-14T09:53:46Z</time>
      </trkpt>
      <trkpt lat="45.98497" lon="4.98229">
        <ele>285</ele>
        <time>2016-09-14T09:53:47Z</time>
      </trkpt>
      <trkpt lat="45.98493" lon="4.98222">
        <ele>285</ele>
        <time>2016-09-14T09:53:48Z</time>
      </trkpt>
      <trkpt lat="45.9849" lon="4.98215">
        <ele>285</ele>
        <time>2016-09-14T09:53:49Z</time>
      </trkpt>
      <trkpt lat="45.98487" lon="4.98208">
        <ele>285</ele>
        <time>2016-09-14T09:53:50Z</time>
      </trkpt>
      <trkpt lat="45.98484" lon="4.98201">
        <ele>285</ele>
        <time>2016-09-14T09:53:51Z</time>
      </trkpt>
      <trkpt lat="45.98482" lon="4.98194">
        <ele>285</ele>
        <time>2016-09-14T09:53:52Z</time>
      </trkpt>
      <trkpt lat="45.9848" lon="4.98186">
        <ele>285</ele>
        <time>2016-09-14T09:53:53Z</time>
      </trkpt>
      <trkpt lat="45.98477" lon="4.98178">
        <ele>285</ele>
        <time>2016-09-14T09:53:54Z</time>
      </trkpt>
      <trkpt lat="45.98474" lon="4.98169">
        <ele>285</ele>
        <time>2016-09-14T09:53:55Z</time>
      </trkpt>
      <trkpt lat="45.98471" lon="4.98161">
        <ele>285</ele>
        <time>2016-09-14T09:53:56Z</time>
      </trkpt>
      <trkpt lat="45.98468" lon="4.98152">
        <ele>285</ele>
        <time>2016-09-14T09:53:57Z</time>
      </trkpt>
      <trkpt lat="45.98465" lon="4.98142">
        <ele>284</ele>
        <time>2016-09-14T09:53:58Z</time>
      </trkpt>
      <trkpt lat="45.98462" lon="4.98132">
        <ele>284</ele>
        <time>2016-09-14T09:53:59Z</time>
      </trkpt>
      <trkpt lat="45.9846" lon="4.98122">
        <ele>284</ele>
        <time>2016-09-14T09:54:00Z</time>
      </trkpt>
      <trkpt lat="45.98458" lon="4.98112">
        <ele>284</ele>
        <time>2016-09-14T09:54:01Z</time>
      </trkpt>
      <trkpt lat="45.98455" lon="4.98102">
        <ele>284</ele>
        <time>2016-09-14T09:54:02Z</time>
      </trkpt>
      <trkpt lat="45.98454" lon="4.98091">
        <ele>284</ele>
        <time>2016-09-14T09:54:03Z</time>
      </trkpt>
      <trkpt lat="45.98452" lon="4.98081">
        <ele>284</ele>
        <time>2016-09-14T09:54:04Z</time>
      </trkpt>
      <trkpt lat="45.98451" lon="4.98071">
        <ele>284</ele>
        <time>2016-09-14T09:54:05Z</time>
      </trkpt>
      <trkpt lat="45.9845" lon="4.98062">
        <ele>284</ele>
        <time>2016-09-14T09:54:06Z</time>
      </trkpt>
      <trkpt lat="45.98449" lon="4.98052">
        <ele>284</ele>
        <time>2016-09-14T09:54:07Z</time>
      </trkpt>
      <trkpt lat="45.98449" lon="4.98043">
        <ele>284</ele>
        <time>2016-09-14T09:54:08Z</time>
      </trkpt>
      <trkpt lat="45.98448" lon="4.98034">
        <ele>284</ele>
        <time>2016-09-14T09:54:09Z</time>
      </trkpt>
      <trkpt lat="45.98449" lon="4.98025">
        <ele>284</ele>
        <time>2016-09-14T09:54:10Z</time>
      </trkpt>
      <trkpt lat="45.98449" lon="4.98017">
        <ele>284</ele>
        <time>2016-09-14T09:54:11Z</time>
      </trkpt>
      <trkpt lat="45.98449" lon="4.9801">
        <ele>284</ele>
        <time>2016-09-14T09:54:12Z</time>
      </trkpt>
      <trkpt lat="45.98449" lon="4.98002">
        <ele>284</ele>
        <time>2016-09-14T09:54:13Z</time>
      </trkpt>
      <trkpt lat="45.98448" lon="4.97993">
        <ele>285</ele>
        <time>2016-09-14T09:54:14Z</time>
      </trkpt>
      <trkpt lat="45.98448" lon="4.97985">
        <ele>285</ele>
        <time>2016-09-14T09:54:15Z</time>
      </trkpt>
      <trkpt lat="45.98448" lon="4.97977">
        <ele>285</ele>
        <time>2016-09-14T09:54:16Z</time>
      </trkpt>
      <trkpt lat="45.98448" lon="4.97968">
        <ele>285</ele>
        <time>2016-09-14T09:54:17Z</time>
      </trkpt>
      <trkpt lat="45.98449" lon="4.9796">
        <ele>285</ele>
        <time>2016-09-14T09:54:18Z</time>
      </trkpt>
      <trkpt lat="45.9845" lon="4.97951">
        <ele>285</ele>
        <time>2016-09-14T09:54:19Z</time>
      </trkpt>
      <trkpt lat="45.98452" lon="4.97943">
        <ele>285</ele>
        <time>2016-09-14T09:54:20Z</time>
      </trkpt>
      <trkpt lat="45.98453" lon="4.97935">
        <ele>286</ele>
        <time>2016-09-14T09:54:21Z</time>
      </trkpt>
      <trkpt lat="45.98453" lon="4.97928">
        <ele>286</ele>
        <time>2016-09-14T09:54:22Z</time>
      </trkpt>
      <trkpt lat="45.98452" lon="4.97921">
        <ele>286</ele>
        <time>2016-09-14T09:54:23Z</time>
      </trkpt>
      <trkpt lat="45.9845" lon="4.97909">
        <ele>286</ele>
        <time>2016-09-14T09:54:25Z</time>
      </trkpt>
      <trkpt lat="45.98447" lon="4.97905">
        <ele>286</ele>
        <time>2016-09-14T09:54:26Z</time>
      </trkpt>
      <trkpt lat="45.98439" lon="4.97903">
        <ele>286</ele>
        <time>2016-09-14T09:54:28Z</time>
      </trkpt>
      <trkpt lat="45.98434" lon="4.97903">
        <ele>286</ele>
        <time>2016-09-14T09:54:29Z</time>
      </trkpt>
      <trkpt lat="45.98428" lon="4.97904">
        <ele>286</ele>
        <time>2016-09-14T09:54:30Z</time>
      </trkpt>
      <trkpt lat="45.98422" lon="4.97905">
        <ele>286</ele>
        <time>2016-09-14T09:54:31Z</time>
      </trkpt>
      <trkpt lat="45.98416" lon="4.97906">
        <ele>286</ele>
        <time>2016-09-14T09:54:32Z</time>
      </trkpt>
      <trkpt lat="45.98409" lon="4.97906">
        <ele>286</ele>
        <time>2016-09-14T09:54:33Z</time>
      </trkpt>
      <trkpt lat="45.98403" lon="4.97905">
        <ele>286</ele>
        <time>2016-09-14T09:54:34Z</time>
      </trkpt>
      <trkpt lat="45.98398" lon="4.97902">
        <ele>286</ele>
        <time>2016-09-14T09:54:35Z</time>
      </trkpt>
      <trkpt lat="45.98392" lon="4.97899">
        <ele>286</ele>
        <time>2016-09-14T09:54:36Z</time>
      </trkpt>
      <trkpt lat="45.98388" lon="4.97894">
        <ele>286</ele>
        <time>2016-09-14T09:54:37Z</time>
      </trkpt>
      <trkpt lat="45.98383" lon="4.97888">
        <ele>286</ele>
        <time>2016-09-14T09:54:38Z</time>
      </trkpt>
      <trkpt lat="45.98381" lon="4.97883">
        <ele>286</ele>
        <time>2016-09-14T09:54:39Z</time>
      </trkpt>
      <trkpt lat="45.98378" lon="4.97877">
        <ele>286</ele>
        <time>2016-09-14T09:54:40Z</time>
      </trkpt>
      <trkpt lat="45.98375" lon="4.97871">
        <ele>287</ele>
        <time>2016-09-14T09:54:41Z</time>
      </trkpt>
      <trkpt lat="45.98372" lon="4.97865">
        <ele>287</ele>
        <time>2016-09-14T09:54:42Z</time>
      </trkpt>
      <trkpt lat="45.98369" lon="4.97858">
        <ele>287</ele>
        <time>2016-09-14T09:54:43Z</time>
      </trkpt>
      <trkpt lat="45.98367" lon="4.97851">
        <ele>287</ele>
        <time>2016-09-14T09:54:44Z</time>
      </trkpt>
      <trkpt lat="45.98365" lon="4.97844">
        <ele>287</ele>
        <time>2016-09-14T09:54:45Z</time>
      </trkpt>
      <trkpt lat="45.98362" lon="4.97837">
        <ele>287</ele>
        <time>2016-09-14T09:54:46Z</time>
      </trkpt>
      <trkpt lat="45.98359" lon="4.9783">
        <ele>288</ele>
        <time>2016-09-14T09:54:47Z</time>
      </trkpt>
      <trkpt lat="45.98356" lon="4.97824">
        <ele>288</ele>
        <time>2016-09-14T09:54:48Z</time>
      </trkpt>
      <trkpt lat="45.98354" lon="4.97818">
        <ele>288</ele>
        <time>2016-09-14T09:54:49Z</time>
      </trkpt>
      <trkpt lat="45.98353" lon="4.97811">
        <ele>288</ele>
        <time>2016-09-14T09:54:50Z</time>
      </trkpt>
      <trkpt lat="45.98351" lon="4.97804">
        <ele>288</ele>
        <time>2016-09-14T09:54:51Z</time>
      </trkpt>
      <trkpt lat="45.9835" lon="4.97797">
        <ele>288</ele>
        <time>2016-09-14T09:54:52Z</time>
      </trkpt>
      <trkpt lat="45.98348" lon="4.9779">
        <ele>288</ele>
        <time>2016-09-14T09:54:53Z</time>
      </trkpt>
      <trkpt lat="45.98346" lon="4.97784">
        <ele>289</ele>
        <time>2016-09-14T09:54:54Z</time>
      </trkpt>
      <trkpt lat="45.98344" lon="4.97778">
        <ele>289</ele>
        <time>2016-09-14T09:54:55Z</time>
      </trkpt>
      <trkpt lat="45.98341" lon="4.97772">
        <ele>289</ele>
        <time>2016-09-14T09:54:56Z</time>
      </trkpt>
      <trkpt lat="45.9834" lon="4.97766">
        <ele>289</ele>
        <time>2016-09-14T09:54:57Z</time>
      </trkpt>
      <trkpt lat="45.98338" lon="4.97759">
        <ele>290</ele>
        <time>2016-09-14T09:54:58Z</time>
      </trkpt>
      <trkpt lat="45.98335" lon="4.97753">
        <ele>291</ele>
        <time>2016-09-14T09:54:59Z</time>
      </trkpt>
      <trkpt lat="45.98333" lon="4.97747">
        <ele>291</ele>
        <time>2016-09-14T09:55:00Z</time>
      </trkpt>
      <trkpt lat="45.9833" lon="4.97741">
        <ele>291</ele>
        <time>2016-09-14T09:55:01Z</time>
      </trkpt>
      <trkpt lat="45.98328" lon="4.97735">
        <ele>291</ele>
        <time>2016-09-14T09:55:02Z</time>
      </trkpt>
      <trkpt lat="45.98325" lon="4.97728">
        <ele>291</ele>
        <time>2016-09-14T09:55:03Z</time>
      </trkpt>
      <trkpt lat="45.98323" lon="4.97722">
        <ele>291</ele>
        <time>2016-09-14T09:55:04Z</time>
      </trkpt>
      <trkpt lat="45.98321" lon="4.97716">
        <ele>291</ele>
        <time>2016-09-14T09:55:05Z</time>
      </trkpt>
      <trkpt lat="45.98318" lon="4.9771">
        <ele>291</ele>
        <time>2016-09-14T09:55:06Z</time>
      </trkpt>
      <trkpt lat="45.98316" lon="4.97703">
        <ele>292</ele>
        <time>2016-09-14T09:55:07Z</time>
      </trkpt>
      <trkpt lat="45.98313" lon="4.97697">
        <ele>292</ele>
        <time>2016-09-14T09:55:08Z</time>
      </trkpt>
      <trkpt lat="45.98311" lon="4.97691">
        <ele>292</ele>
        <time>2016-09-14T09:55:09Z</time>
      </trkpt>
      <trkpt lat="45.98309" lon="4.97684">
        <ele>292</ele>
        <time>2016-09-14T09:55:10Z</time>
      </trkpt>
      <trkpt lat="45.98307" lon="4.97678">
        <ele>292</ele>
        <time>2016-09-14T09:55:11Z</time>
      </trkpt>
      <trkpt lat="45.98305" lon="4.97672">
        <ele>292</ele>
        <time>2016-09-14T09:55:12Z</time>
      </trkpt>
      <trkpt lat="45.98303" lon="4.97666">
        <ele>293</ele>
        <time>2016-09-14T09:55:13Z</time>
      </trkpt>
      <trkpt lat="45.983" lon="4.97654">
        <ele>293</ele>
        <time>2016-09-14T09:55:15Z</time>
      </trkpt>
      <trkpt lat="45.98298" lon="4.97649">
        <ele>293</ele>
        <time>2016-09-14T09:55:16Z</time>
      </trkpt>
      <trkpt lat="45.98293" lon="4.97638">
        <ele>293</ele>
        <time>2016-09-14T09:55:18Z</time>
      </trkpt>
      <trkpt lat="45.98291" lon="4.97633">
        <ele>293</ele>
        <time>2016-09-14T09:55:19Z</time>
      </trkpt>
      <trkpt lat="45.9829" lon="4.97627">
        <ele>293</ele>
        <time>2016-09-14T09:55:20Z</time>
      </trkpt>
      <trkpt lat="45.98288" lon="4.9762">
        <ele>293</ele>
        <time>2016-09-14T09:55:21Z</time>
      </trkpt>
      <trkpt lat="45.98284" lon="4.97608">
        <ele>293</ele>
        <time>2016-09-14T09:55:23Z</time>
      </trkpt>
      <trkpt lat="45.98282" lon="4.97602">
        <ele>293</ele>
        <time>2016-09-14T09:55:24Z</time>
      </trkpt>
      <trkpt lat="45.98279" lon="4.9759">
        <ele>293</ele>
        <time>2016-09-14T09:55:26Z</time>
      </trkpt>
      <trkpt lat="45.98278" lon="4.97584">
        <ele>293</ele>
        <time>2016-09-14T09:55:27Z</time>
      </trkpt>
      <trkpt lat="45.98275" lon="4.97573">
        <ele>293</ele>
        <time>2016-09-14T09:55:29Z</time>
      </trkpt>
      <trkpt lat="45.98274" lon="4.97567">
        <ele>293</ele>
        <time>2016-09-14T09:55:30Z</time>
      </trkpt>
      <trkpt lat="45.98271" lon="4.97555">
        <ele>293</ele>
        <time>2016-09-14T09:55:32Z</time>
      </trkpt>
      <trkpt lat="45.9827" lon="4.9755">
        <ele>293</ele>
        <time>2016-09-14T09:55:33Z</time>
      </trkpt>
      <trkpt lat="45.98267" lon="4.9754">
        <ele>294</ele>
        <time>2016-09-14T09:55:35Z</time>
      </trkpt>
      <trkpt lat="45.98266" lon="4.97534">
        <ele>294</ele>
        <time>2016-09-14T09:55:36Z</time>
      </trkpt>
      <trkpt lat="45.98261" lon="4.97524">
        <ele>294</ele>
        <time>2016-09-14T09:55:38Z</time>
      </trkpt>
      <trkpt lat="45.98258" lon="4.97519">
        <ele>294</ele>
        <time>2016-09-14T09:55:39Z</time>
      </trkpt>
      <trkpt lat="45.98255" lon="4.97514">
        <ele>294</ele>
        <time>2016-09-14T09:55:40Z</time>
      </trkpt>
      <trkpt lat="45.98252" lon="4.97508">
        <ele>294</ele>
        <time>2016-09-14T09:55:41Z</time>
      </trkpt>
      <trkpt lat="45.98249" lon="4.97503">
        <ele>294</ele>
        <time>2016-09-14T09:55:42Z</time>
      </trkpt>
      <trkpt lat="45.98246" lon="4.97497">
        <ele>294</ele>
        <time>2016-09-14T09:55:43Z</time>
      </trkpt>
      <trkpt lat="45.98242" lon="4.97491">
        <ele>293</ele>
        <time>2016-09-14T09:55:44Z</time>
      </trkpt>
      <trkpt lat="45.98239" lon="4.97485">
        <ele>293</ele>
        <time>2016-09-14T09:55:45Z</time>
      </trkpt>
      <trkpt lat="45.98236" lon="4.97479">
        <ele>293</ele>
        <time>2016-09-14T09:55:46Z</time>
      </trkpt>
      <trkpt lat="45.98233" lon="4.97474">
        <ele>292</ele>
        <time>2016-09-14T09:55:47Z</time>
      </trkpt>
      <trkpt lat="45.9823" lon="4.97468">
        <ele>292</ele>
        <time>2016-09-14T09:55:48Z</time>
      </trkpt>
      <trkpt lat="45.98227" lon="4.97462">
        <ele>292</ele>
        <time>2016-09-14T09:55:49Z</time>
      </trkpt>
      <trkpt lat="45.98225" lon="4.97455">
        <ele>292</ele>
        <time>2016-09-14T09:55:50Z</time>
      </trkpt>
      <trkpt lat="45.98222" lon="4.97448">
        <ele>292</ele>
        <time>2016-09-14T09:55:51Z</time>
      </trkpt>
      <trkpt lat="45.98217" lon="4.97442">
        <ele>292</ele>
        <time>2016-09-14T09:55:52Z</time>
      </trkpt>
      <trkpt lat="45.98214" lon="4.97432">
        <ele>292</ele>
        <time>2016-09-14T09:55:53Z</time>
      </trkpt>
      <trkpt lat="45.98211" lon="4.97423">
        <ele>292</ele>
        <time>2016-09-14T09:55:54Z</time>
      </trkpt>
      <trkpt lat="45.98208" lon="4.97415">
        <ele>292</ele>
        <time>2016-09-14T09:55:55Z</time>
      </trkpt>
      <trkpt lat="45.98206" lon="4.97406">
        <ele>292</ele>
        <time>2016-09-14T09:55:56Z</time>
      </trkpt>
      <trkpt lat="45.98203" lon="4.97398">
        <ele>291</ele>
        <time>2016-09-14T09:55:57Z</time>
      </trkpt>
      <trkpt lat="45.98201" lon="4.9739">
        <ele>291</ele>
        <time>2016-09-14T09:55:58Z</time>
      </trkpt>
      <trkpt lat="45.98198" lon="4.97383">
        <ele>291</ele>
        <time>2016-09-14T09:55:59Z</time>
      </trkpt>
      <trkpt lat="45.98197" lon="4.97375">
        <ele>291</ele>
        <time>2016-09-14T09:56:00Z</time>
      </trkpt>
      <trkpt lat="45.98195" lon="4.97367">
        <ele>291</ele>
        <time>2016-09-14T09:56:01Z</time>
      </trkpt>
      <trkpt lat="45.98193" lon="4.9736">
        <ele>291</ele>
        <time>2016-09-14T09:56:02Z</time>
      </trkpt>
      <trkpt lat="45.9819" lon="4.97352">
        <ele>291</ele>
        <time>2016-09-14T09:56:03Z</time>
      </trkpt>
      <trkpt lat="45.98188" lon="4.97344">
        <ele>291</ele>
        <time>2016-09-14T09:56:04Z</time>
      </trkpt>
      <trkpt lat="45.98186" lon="4.97336">
        <ele>291</ele>
        <time>2016-09-14T09:56:05Z</time>
      </trkpt>
      <trkpt lat="45.98184" lon="4.97328">
        <ele>290</ele>
        <time>2016-09-14T09:56:06Z</time>
      </trkpt>
      <trkpt lat="45.98182" lon="4.9732">
        <ele>290</ele>
        <time>2016-09-14T09:56:07Z</time>
      </trkpt>
      <trkpt lat="45.9818" lon="4.97312">
        <ele>290</ele>
        <time>2016-09-14T09:56:08Z</time>
      </trkpt>
      <trkpt lat="45.98178" lon="4.97305">
        <ele>290</ele>
        <time>2016-09-14T09:56:09Z</time>
      </trkpt>
      <trkpt lat="45.98176" lon="4.97297">
        <ele>290</ele>
        <time>2016-09-14T09:56:10Z</time>
      </trkpt>
      <trkpt lat="45.98174" lon="4.97289">
        <ele>290</ele>
        <time>2016-09-14T09:56:11Z</time>
      </trkpt>
      <trkpt lat="45.98172" lon="4.97281">
        <ele>290</ele>
        <time>2016-09-14T09:56:12Z</time>
      </trkpt>
      <trkpt lat="45.9817" lon="4.97274">
        <ele>290</ele>
        <time>2016-09-14T09:56:13Z</time>
      </trkpt>
      <trkpt lat="45.98167" lon="4.97266">
        <ele>291</ele>
        <time>2016-09-14T09:56:14Z</time>
      </trkpt>
      <trkpt lat="45.98165" lon="4.97258">
        <ele>291</ele>
        <time>2016-09-14T09:56:15Z</time>
      </trkpt>
      <trkpt lat="45.98163" lon="4.97251">
        <ele>291</ele>
        <time>2016-09-14T09:56:16Z</time>
      </trkpt>
      <trkpt lat="45.98161" lon="4.97243">
        <ele>291</ele>
        <time>2016-09-14T09:56:17Z</time>
      </trkpt>
      <trkpt lat="45.98158" lon="4.97235">
        <ele>290</ele>
        <time>2016-09-14T09:56:18Z</time>
      </trkpt>
      <trkpt lat="45.98156" lon="4.97226">
        <ele>290</ele>
        <time>2016-09-14T09:56:19Z</time>
      </trkpt>
      <trkpt lat="45.98154" lon="4.97218">
        <ele>290</ele>
        <time>2016-09-14T09:56:20Z</time>
      </trkpt>
      <trkpt lat="45.98152" lon="4.97209">
        <ele>290</ele>
        <time>2016-09-14T09:56:21Z</time>
      </trkpt>
      <trkpt lat="45.9815" lon="4.97201">
        <ele>290</ele>
        <time>2016-09-14T09:56:22Z</time>
      </trkpt>
      <trkpt lat="45.98148" lon="4.97192">
        <ele>290</ele>
        <time>2016-09-14T09:56:23Z</time>
      </trkpt>
      <trkpt lat="45.98146" lon="4.97184">
        <ele>290</ele>
        <time>2016-09-14T09:56:24Z</time>
      </trkpt>
      <trkpt lat="45.98143" lon="4.97176">
        <ele>290</ele>
        <time>2016-09-14T09:56:25Z</time>
      </trkpt>
      <trkpt lat="45.98141" lon="4.97169">
        <ele>290</ele>
        <time>2016-09-14T09:56:26Z</time>
      </trkpt>
      <trkpt lat="45.98138" lon="4.97162">
        <ele>289</ele>
        <time>2016-09-14T09:56:27Z</time>
      </trkpt>
      <trkpt lat="45.98136" lon="4.97154">
        <ele>289</ele>
        <time>2016-09-14T09:56:28Z</time>
      </trkpt>
      <trkpt lat="45.98134" lon="4.97147">
        <ele>289</ele>
        <time>2016-09-14T09:56:29Z</time>
      </trkpt>
      <trkpt lat="45.98131" lon="4.97139">
        <ele>289</ele>
        <time>2016-09-14T09:56:30Z</time>
      </trkpt>
      <trkpt lat="45.98129" lon="4.97132">
        <ele>289</ele>
        <time>2016-09-14T09:56:31Z</time>
      </trkpt>
      <trkpt lat="45.98127" lon="4.97124">
        <ele>289</ele>
        <time>2016-09-14T09:56:32Z</time>
      </trkpt>
      <trkpt lat="45.98125" lon="4.97116">
        <ele>288</ele>
        <time>2016-09-14T09:56:33Z</time>
      </trkpt>
      <trkpt lat="45.98122" lon="4.97108">
        <ele>288</ele>
        <time>2016-09-14T09:56:34Z</time>
      </trkpt>
      <trkpt lat="45.98119" lon="4.971">
        <ele>288</ele>
        <time>2016-09-14T09:56:35Z</time>
      </trkpt>
      <trkpt lat="45.98117" lon="4.97092">
        <ele>288</ele>
        <time>2016-09-14T09:56:36Z</time>
      </trkpt>
      <trkpt lat="45.98115" lon="4.97084">
        <ele>288</ele>
        <time>2016-09-14T09:56:37Z</time>
      </trkpt>
      <trkpt lat="45.98113" lon="4.97077">
        <ele>288</ele>
        <time>2016-09-14T09:56:38Z</time>
      </trkpt>
      <trkpt lat="45.9811" lon="4.97069">
        <ele>288</ele>
        <time>2016-09-14T09:56:39Z</time>
      </trkpt>
      <trkpt lat="45.98108" lon="4.97061">
        <ele>288</ele>
        <time>2016-09-14T09:56:40Z</time>
      </trkpt>
      <trkpt lat="45.98105" lon="4.97053">
        <ele>288</ele>
        <time>2016-09-14T09:56:41Z</time>
      </trkpt>
      <trkpt lat="45.98102" lon="4.97045">
        <ele>288</ele>
        <time>2016-09-14T09:56:42Z</time>
      </trkpt>
      <trkpt lat="45.981" lon="4.97037">
        <ele>288</ele>
        <time>2016-09-14T09:56:43Z</time>
      </trkpt>
      <trkpt lat="45.98097" lon="4.97028">
        <ele>288</ele>
        <time>2016-09-14T09:56:44Z</time>
      </trkpt>
      <trkpt lat="45.98094" lon="4.9702">
        <ele>288</ele>
        <time>2016-09-14T09:56:45Z</time>
      </trkpt>
      <trkpt lat="45.98091" lon="4.97011">
        <ele>288</ele>
        <time>2016-09-14T09:56:46Z</time>
      </trkpt>
      <trkpt lat="45.98088" lon="4.97002">
        <ele>288</ele>
        <time>2016-09-14T09:56:47Z</time>
      </trkpt>
      <trkpt lat="45.98085" lon="4.96993">
        <ele>288</ele>
        <time>2016-09-14T09:56:48Z</time>
      </trkpt>
      <trkpt lat="45.98082" lon="4.96984">
        <ele>288</ele>
        <time>2016-09-14T09:56:49Z</time>
      </trkpt>
      <trkpt lat="45.9808" lon="4.96975">
        <ele>288</ele>
        <time>2016-09-14T09:56:50Z</time>
      </trkpt>
      <trkpt lat="45.98077" lon="4.96967">
        <ele>288</ele>
        <time>2016-09-14T09:56:51Z</time>
      </trkpt>
      <trkpt lat="45.98075" lon="4.96958">
        <ele>289</ele>
        <time>2016-09-14T09:56:52Z</time>
      </trkpt>
      <trkpt lat="45.98073" lon="4.9695">
        <ele>289</ele>
        <time>2016-09-14T09:56:53Z</time>
      </trkpt>
      <trkpt lat="45.9807" lon="4.96942">
        <ele>289</ele>
        <time>2016-09-14T09:56:54Z</time>
      </trkpt>
      <trkpt lat="45.98068" lon="4.96934">
        <ele>289</ele>
        <time>2016-09-14T09:56:55Z</time>
      </trkpt>
      <trkpt lat="45.98066" lon="4.96927">
        <ele>289</ele>
        <time>2016-09-14T09:56:56Z</time>
      </trkpt>
      <trkpt lat="45.98064" lon="4.96919">
        <ele>289</ele>
        <time>2016-09-14T09:56:57Z</time>
      </trkpt>
      <trkpt lat="45.98061" lon="4.96911">
        <ele>289</ele>
        <time>2016-09-14T09:56:58Z</time>
      </trkpt>
      <trkpt lat="45.98059" lon="4.96903">
        <ele>289</ele>
        <time>2016-09-14T09:56:59Z</time>
      </trkpt>
      <trkpt lat="45.98057" lon="4.96895">
        <ele>289</ele>
        <time>2016-09-14T09:57:00Z</time>
      </trkpt>
      <trkpt lat="45.98055" lon="4.96887">
        <ele>289</ele>
        <time>2016-09-14T09:57:01Z</time>
      </trkpt>
      <trkpt lat="45.98053" lon="4.96879">
        <ele>289</ele>
        <time>2016-09-14T09:57:02Z</time>
      </trkpt>
      <trkpt lat="45.98051" lon="4.9687">
        <ele>290</ele>
        <time>2016-09-14T09:57:03Z</time>
      </trkpt>
      <trkpt lat="45.98049" lon="4.96862">
        <ele>290</ele>
        <time>2016-09-14T09:57:04Z</time>
      </trkpt>
      <trkpt lat="45.98047" lon="4.96853">
        <ele>290</ele>
        <time>2016-09-14T09:57:05Z</time>
      </trkpt>
      <trkpt lat="45.98044" lon="4.96845">
        <ele>290</ele>
        <time>2016-09-14T09:57:06Z</time>
      </trkpt>
      <trkpt lat="45.98042" lon="4.96836">
        <ele>290</ele>
        <time>2016-09-14T09:57:07Z</time>
      </trkpt>
      <trkpt lat="45.98039" lon="4.96827">
        <ele>290</ele>
        <time>2016-09-14T09:57:08Z</time>
      </trkpt>
      <trkpt lat="45.98037" lon="4.96818">
        <ele>290</ele>
        <time>2016-09-14T09:57:09Z</time>
      </trkpt>
      <trkpt lat="45.98035" lon="4.9681">
        <ele>290</ele>
        <time>2016-09-14T09:57:10Z</time>
      </trkpt>
      <trkpt lat="45.98032" lon="4.96803">
        <ele>290</ele>
        <time>2016-09-14T09:57:11Z</time>
      </trkpt>
      <trkpt lat="45.9803" lon="4.96796">
        <ele>290</ele>
        <time>2016-09-14T09:57:12Z</time>
      </trkpt>
      <trkpt lat="45.98027" lon="4.96789">
        <ele>290</ele>
        <time>2016-09-14T09:57:13Z</time>
      </trkpt>
      <trkpt lat="45.98025" lon="4.96782">
        <ele>290</ele>
        <time>2016-09-14T09:57:14Z</time>
      </trkpt>
      <trkpt lat="45.98022" lon="4.96775">
        <ele>290</ele>
        <time>2016-09-14T09:57:15Z</time>
      </trkpt>
      <trkpt lat="45.98019" lon="4.96769">
        <ele>290</ele>
        <time>2016-09-14T09:57:16Z</time>
      </trkpt>
      <trkpt lat="45.98016" lon="4.96762">
        <ele>290</ele>
        <time>2016-09-14T09:57:17Z</time>
      </trkpt>
      <trkpt lat="45.98013" lon="4.96755">
        <ele>290</ele>
        <time>2016-09-14T09:57:18Z</time>
      </trkpt>
      <trkpt lat="45.9801" lon="4.96748">
        <ele>290</ele>
        <time>2016-09-14T09:57:19Z</time>
      </trkpt>
      <trkpt lat="45.98007" lon="4.96741">
        <ele>290</ele>
        <time>2016-09-14T09:57:20Z</time>
      </trkpt>
      <trkpt lat="45.98003" lon="4.96735">
        <ele>290</ele>
        <time>2016-09-14T09:57:21Z</time>
      </trkpt>
      <trkpt lat="45.98" lon="4.96728">
        <ele>290</ele>
        <time>2016-09-14T09:57:22Z</time>
      </trkpt>
      <trkpt lat="45.97997" lon="4.96722">
        <ele>290</ele>
        <time>2016-09-14T09:57:23Z</time>
      </trkpt>
      <trkpt lat="45.97993" lon="4.96715">
        <ele>290</ele>
        <time>2016-09-14T09:57:24Z</time>
      </trkpt>
      <trkpt lat="45.9799" lon="4.9671">
        <ele>289</ele>
        <time>2016-09-14T09:57:25Z</time>
      </trkpt>
      <trkpt lat="45.97987" lon="4.96703">
        <ele>289</ele>
        <time>2016-09-14T09:57:26Z</time>
      </trkpt>
      <trkpt lat="45.97984" lon="4.96697">
        <ele>289</ele>
        <time>2016-09-14T09:57:27Z</time>
      </trkpt>
      <trkpt lat="45.97981" lon="4.9669">
        <ele>289</ele>
        <time>2016-09-14T09:57:28Z</time>
      </trkpt>
      <trkpt lat="45.97977" lon="4.96683">
        <ele>289</ele>
        <time>2016-09-14T09:57:29Z</time>
      </trkpt>
      <trkpt lat="45.97974" lon="4.96676">
        <ele>289</ele>
        <time>2016-09-14T09:57:30Z</time>
      </trkpt>
      <trkpt lat="45.9797" lon="4.96669">
        <ele>289</ele>
        <time>2016-09-14T09:57:31Z</time>
      </trkpt>
      <trkpt lat="45.97966" lon="4.96661">
        <ele>289</ele>
        <time>2016-09-14T09:57:32Z</time>
      </trkpt>
      <trkpt lat="45.97963" lon="4.96655">
        <ele>289</ele>
        <time>2016-09-14T09:57:33Z</time>
      </trkpt>
      <trkpt lat="45.97959" lon="4.96648">
        <ele>289</ele>
        <time>2016-09-14T09:57:34Z</time>
      </trkpt>
      <trkpt lat="45.97956" lon="4.96641">
        <ele>288</ele>
        <time>2016-09-14T09:57:35Z</time>
      </trkpt>
      <trkpt lat="45.97953" lon="4.96634">
        <ele>288</ele>
        <time>2016-09-14T09:57:36Z</time>
      </trkpt>
      <trkpt lat="45.97949" lon="4.96626">
        <ele>288</ele>
        <time>2016-09-14T09:57:37Z</time>
      </trkpt>
      <trkpt lat="45.97946" lon="4.96619">
        <ele>288</ele>
        <time>2016-09-14T09:57:38Z</time>
      </trkpt>
      <trkpt lat="45.97943" lon="4.96613">
        <ele>288</ele>
        <time>2016-09-14T09:57:39Z</time>
      </trkpt>
      <trkpt lat="45.97939" lon="4.96606">
        <ele>288</ele>
        <time>2016-09-14T09:57:40Z</time>
      </trkpt>
      <trkpt lat="45.97936" lon="4.96599">
        <ele>288</ele>
        <time>2016-09-14T09:57:41Z</time>
      </trkpt>
      <trkpt lat="45.97932" lon="4.96592">
        <ele>288</ele>
        <time>2016-09-14T09:57:42Z</time>
      </trkpt>
      <trkpt lat="45.97929" lon="4.96584">
        <ele>288</ele>
        <time>2016-09-14T09:57:43Z</time>
      </trkpt>
      <trkpt lat="45.97925" lon="4.96577">
        <ele>288</ele>
        <time>2016-09-14T09:57:44Z</time>
      </trkpt>
      <trkpt lat="45.97922" lon="4.9657">
        <ele>288</ele>
        <time>2016-09-14T09:57:45Z</time>
      </trkpt>
      <trkpt lat="45.97919" lon="4.96563">
        <ele>288</ele>
        <time>2016-09-14T09:57:46Z</time>
      </trkpt>
      <trkpt lat="45.97915" lon="4.96556">
        <ele>289</ele>
        <time>2016-09-14T09:57:47Z</time>
      </trkpt>
      <trkpt lat="45.97911" lon="4.96549">
        <ele>289</ele>
        <time>2016-09-14T09:57:48Z</time>
      </trkpt>
      <trkpt lat="45.97908" lon="4.96542">
        <ele>289</ele>
        <time>2016-09-14T09:57:49Z</time>
      </trkpt>
      <trkpt lat="45.97904" lon="4.96534">
        <ele>289</ele>
        <time>2016-09-14T09:57:50Z</time>
      </trkpt>
      <trkpt lat="45.979" lon="4.96527">
        <ele>289</ele>
        <time>2016-09-14T09:57:51Z</time>
      </trkpt>
      <trkpt lat="45.97897" lon="4.96519">
        <ele>289</ele>
        <time>2016-09-14T09:57:52Z</time>
      </trkpt>
      <trkpt lat="45.97893" lon="4.96512">
        <ele>289</ele>
        <time>2016-09-14T09:57:53Z</time>
      </trkpt>
      <trkpt lat="45.97889" lon="4.96505">
        <ele>289</ele>
        <time>2016-09-14T09:57:54Z</time>
      </trkpt>
      <trkpt lat="45.97886" lon="4.96498">
        <ele>289</ele>
        <time>2016-09-14T09:57:55Z</time>
      </trkpt>
      <trkpt lat="45.97882" lon="4.96491">
        <ele>289</ele>
        <time>2016-09-14T09:57:56Z</time>
      </trkpt>
      <trkpt lat="45.97879" lon="4.96484">
        <ele>289</ele>
        <time>2016-09-14T09:57:57Z</time>
      </trkpt>
      <trkpt lat="45.97875" lon="4.96477">
        <ele>289</ele>
        <time>2016-09-14T09:57:58Z</time>
      </trkpt>
      <trkpt lat="45.97871" lon="4.9647">
        <ele>289</ele>
        <time>2016-09-14T09:57:59Z</time>
      </trkpt>
      <trkpt lat="45.97868" lon="4.96463">
        <ele>289</ele>
        <time>2016-09-14T09:58:00Z</time>
      </trkpt>
      <trkpt lat="45.97865" lon="4.96457">
        <ele>289</ele>
        <time>2016-09-14T09:58:01Z</time>
      </trkpt>
      <trkpt lat="45.97861" lon="4.9645">
        <ele>289</ele>
        <time>2016-09-14T09:58:02Z</time>
      </trkpt>
      <trkpt lat="45.97857" lon="4.96443">
        <ele>289</ele>
        <time>2016-09-14T09:58:03Z</time>
      </trkpt>
      <trkpt lat="45.97854" lon="4.96436">
        <ele>289</ele>
        <time>2016-09-14T09:58:04Z</time>
      </trkpt>
      <trkpt lat="45.9785" lon="4.96429">
        <ele>289</ele>
        <time>2016-09-14T09:58:05Z</time>
      </trkpt>
      <trkpt lat="45.97847" lon="4.96422">
        <ele>288</ele>
        <time>2016-09-14T09:58:06Z</time>
      </trkpt>
      <trkpt lat="45.97844" lon="4.96415">
        <ele>288</ele>
        <time>2016-09-14T09:58:07Z</time>
      </trkpt>
      <trkpt lat="45.97841" lon="4.96408">
        <ele>288</ele>
        <time>2016-09-14T09:58:08Z</time>
      </trkpt>
      <trkpt lat="45.97838" lon="4.96401">
        <ele>288</ele>
        <time>2016-09-14T09:58:09Z</time>
      </trkpt>
      <trkpt lat="45.97834" lon="4.96394">
        <ele>288</ele>
        <time>2016-09-14T09:58:10Z</time>
      </trkpt>
      <trkpt lat="45.97831" lon="4.96387">
        <ele>289</ele>
        <time>2016-09-14T09:58:11Z</time>
      </trkpt>
      <trkpt lat="45.97828" lon="4.9638">
        <ele>289</ele>
        <time>2016-09-14T09:58:12Z</time>
      </trkpt>
      <trkpt lat="45.97825" lon="4.96373">
        <ele>289</ele>
        <time>2016-09-14T09:58:13Z</time>
      </trkpt>
      <trkpt lat="45.97822" lon="4.96366">
        <ele>289</ele>
        <time>2016-09-14T09:58:14Z</time>
      </trkpt>
      <trkpt lat="45.97818" lon="4.96359">
        <ele>289</ele>
        <time>2016-09-14T09:58:15Z</time>
      </trkpt>
      <trkpt lat="45.97814" lon="4.96352">
        <ele>289</ele>
        <time>2016-09-14T09:58:16Z</time>
      </trkpt>
      <trkpt lat="45.97811" lon="4.96345">
        <ele>289</ele>
        <time>2016-09-14T09:58:17Z</time>
      </trkpt>
      <trkpt lat="45.97807" lon="4.96338">
        <ele>289</ele>
        <time>2016-09-14T09:58:18Z</time>
      </trkpt>
      <trkpt lat="45.97804" lon="4.96331">
        <ele>289</ele>
        <time>2016-09-14T09:58:19Z</time>
      </trkpt>
      <trkpt lat="45.978" lon="4.96324">
        <ele>289</ele>
        <time>2016-09-14T09:58:20Z</time>
      </trkpt>
      <trkpt lat="45.97797" lon="4.96316">
        <ele>289</ele>
        <time>2016-09-14T09:58:21Z</time>
      </trkpt>
      <trkpt lat="45.97793" lon="4.96309">
        <ele>289</ele>
        <time>2016-09-14T09:58:22Z</time>
      </trkpt>
      <trkpt lat="45.9779" lon="4.96302">
        <ele>289</ele>
        <time>2016-09-14T09:58:23Z</time>
      </trkpt>
      <trkpt lat="45.97786" lon="4.96296">
        <ele>289</ele>
        <time>2016-09-14T09:58:24Z</time>
      </trkpt>
      <trkpt lat="45.97783" lon="4.96289">
        <ele>289</ele>
        <time>2016-09-14T09:58:25Z</time>
      </trkpt>
      <trkpt lat="45.9778" lon="4.96282">
        <ele>290</ele>
        <time>2016-09-14T09:58:26Z</time>
      </trkpt>
      <trkpt lat="45.97778" lon="4.96275">
        <ele>290</ele>
        <time>2016-09-14T09:58:27Z</time>
      </trkpt>
      <trkpt lat="45.97775" lon="4.96267">
        <ele>290</ele>
        <time>2016-09-14T09:58:28Z</time>
      </trkpt>
      <trkpt lat="45.97772" lon="4.96259">
        <ele>290</ele>
        <time>2016-09-14T09:58:29Z</time>
      </trkpt>
      <trkpt lat="45.97768" lon="4.96251">
        <ele>290</ele>
        <time>2016-09-14T09:58:30Z</time>
      </trkpt>
      <trkpt lat="45.97765" lon="4.96244">
        <ele>290</ele>
        <time>2016-09-14T09:58:31Z</time>
      </trkpt>
      <trkpt lat="45.97761" lon="4.96236">
        <ele>290</ele>
        <time>2016-09-14T09:58:32Z</time>
      </trkpt>
      <trkpt lat="45.97758" lon="4.96229">
        <ele>290</ele>
        <time>2016-09-14T09:58:33Z</time>
      </trkpt>
      <trkpt lat="45.97755" lon="4.96222">
        <ele>289</ele>
        <time>2016-09-14T09:58:34Z</time>
      </trkpt>
      <trkpt lat="45.97752" lon="4.96215">
        <ele>289</ele>
        <time>2016-09-14T09:58:35Z</time>
      </trkpt>
      <trkpt lat="45.97749" lon="4.96209">
        <ele>291</ele>
        <time>2016-09-14T09:58:36Z</time>
      </trkpt>
      <trkpt lat="45.97745" lon="4.96202">
        <ele>290</ele>
        <time>2016-09-14T09:58:37Z</time>
      </trkpt>
      <trkpt lat="45.97742" lon="4.96196">
        <ele>290</ele>
        <time>2016-09-14T09:58:38Z</time>
      </trkpt>
      <trkpt lat="45.97739" lon="4.96189">
        <ele>290</ele>
        <time>2016-09-14T09:58:39Z</time>
      </trkpt>
      <trkpt lat="45.97736" lon="4.96183">
        <ele>290</ele>
        <time>2016-09-14T09:58:40Z</time>
      </trkpt>
      <trkpt lat="45.97733" lon="4.96176">
        <ele>290</ele>
        <time>2016-09-14T09:58:41Z</time>
      </trkpt>
      <trkpt lat="45.9773" lon="4.9617">
        <ele>290</ele>
        <time>2016-09-14T09:58:42Z</time>
      </trkpt>
      <trkpt lat="45.97726" lon="4.96163">
        <ele>288</ele>
        <time>2016-09-14T09:58:43Z</time>
      </trkpt>
      <trkpt lat="45.97723" lon="4.96157">
        <ele>288</ele>
        <time>2016-09-14T09:58:44Z</time>
      </trkpt>
      <trkpt lat="45.97719" lon="4.9615">
        <ele>288</ele>
        <time>2016-09-14T09:58:45Z</time>
      </trkpt>
      <trkpt lat="45.97716" lon="4.96143">
        <ele>287</ele>
        <time>2016-09-14T09:58:46Z</time>
      </trkpt>
      <trkpt lat="45.97713" lon="4.96136">
        <ele>287</ele>
        <time>2016-09-14T09:58:47Z</time>
      </trkpt>
      <trkpt lat="45.97709" lon="4.9613">
        <ele>287</ele>
        <time>2016-09-14T09:58:48Z</time>
      </trkpt>
      <trkpt lat="45.97706" lon="4.96123">
        <ele>287</ele>
        <time>2016-09-14T09:58:49Z</time>
      </trkpt>
      <trkpt lat="45.97703" lon="4.96117">
        <ele>287</ele>
        <time>2016-09-14T09:58:50Z</time>
      </trkpt>
      <trkpt lat="45.977" lon="4.9611">
        <ele>287</ele>
        <time>2016-09-14T09:58:51Z</time>
      </trkpt>
      <trkpt lat="45.97697" lon="4.96104">
        <ele>287</ele>
        <time>2016-09-14T09:58:52Z</time>
      </trkpt>
      <trkpt lat="45.97694" lon="4.96098">
        <ele>287</ele>
        <time>2016-09-14T09:58:53Z</time>
      </trkpt>
      <trkpt lat="45.97691" lon="4.96092">
        <ele>287</ele>
        <time>2016-09-14T09:58:54Z</time>
      </trkpt>
      <trkpt lat="45.97688" lon="4.96086">
        <ele>287</ele>
        <time>2016-09-14T09:58:55Z</time>
      </trkpt>
      <trkpt lat="45.97685" lon="4.96079">
        <ele>287</ele>
        <time>2016-09-14T09:58:56Z</time>
      </trkpt>
      <trkpt lat="45.97682" lon="4.96073">
        <ele>287</ele>
        <time>2016-09-14T09:58:57Z</time>
      </trkpt>
      <trkpt lat="45.97678" lon="4.96067">
        <ele>287</ele>
        <time>2016-09-14T09:58:58Z</time>
      </trkpt>
      <trkpt lat="45.97675" lon="4.9606">
        <ele>287</ele>
        <time>2016-09-14T09:58:59Z</time>
      </trkpt>
      <trkpt lat="45.97671" lon="4.96054">
        <ele>287</ele>
        <time>2016-09-14T09:59:00Z</time>
      </trkpt>
      <trkpt lat="45.97668" lon="4.96048">
        <ele>287</ele>
        <time>2016-09-14T09:59:01Z</time>
      </trkpt>
      <trkpt lat="45.97666" lon="4.96041">
        <ele>287</ele>
        <time>2016-09-14T09:59:02Z</time>
      </trkpt>
      <trkpt lat="45.97662" lon="4.96035">
        <ele>287</ele>
        <time>2016-09-14T09:59:03Z</time>
      </trkpt>
      <trkpt lat="45.97659" lon="4.96028">
        <ele>287</ele>
        <time>2016-09-14T09:59:04Z</time>
      </trkpt>
      <trkpt lat="45.97656" lon="4.96022">
        <ele>287</ele>
        <time>2016-09-14T09:59:05Z</time>
      </trkpt>
      <trkpt lat="45.97653" lon="4.96015">
        <ele>288</ele>
        <time>2016-09-14T09:59:06Z</time>
      </trkpt>
      <trkpt lat="45.9765" lon="4.96009">
        <ele>288</ele>
        <time>2016-09-14T09:59:07Z</time>
      </trkpt>
      <trkpt lat="45.97647" lon="4.96003">
        <ele>288</ele>
        <time>2016-09-14T09:59:08Z</time>
      </trkpt>
      <trkpt lat="45.97644" lon="4.95997">
        <ele>288</ele>
        <time>2016-09-14T09:59:09Z</time>
      </trkpt>
      <trkpt lat="45.97641" lon="4.95991">
        <ele>288</ele>
        <time>2016-09-14T09:59:10Z</time>
      </trkpt>
      <trkpt lat="45.97638" lon="4.95985">
        <ele>288</ele>
        <time>2016-09-14T09:59:11Z</time>
      </trkpt>
      <trkpt lat="45.97635" lon="4.95978">
        <ele>288</ele>
        <time>2016-09-14T09:59:12Z</time>
      </trkpt>
      <trkpt lat="45.97632" lon="4.95972">
        <ele>288</ele>
        <time>2016-09-14T09:59:13Z</time>
      </trkpt>
      <trkpt lat="45.97629" lon="4.95966">
        <ele>288</ele>
        <time>2016-09-14T09:59:14Z</time>
      </trkpt>
      <trkpt lat="45.97626" lon="4.95959">
        <ele>288</ele>
        <time>2016-09-14T09:59:15Z</time>
      </trkpt>
      <trkpt lat="45.97624" lon="4.95953">
        <ele>288</ele>
        <time>2016-09-14T09:59:16Z</time>
      </trkpt>
      <trkpt lat="45.97621" lon="4.95948">
        <ele>288</ele>
        <time>2016-09-14T09:59:17Z</time>
      </trkpt>
      <trkpt lat="45.97618" lon="4.95941">
        <ele>288</ele>
        <time>2016-09-14T09:59:18Z</time>
      </trkpt>
      <trkpt lat="45.97615" lon="4.95935">
        <ele>288</ele>
        <time>2016-09-14T09:59:19Z</time>
      </trkpt>
      <trkpt lat="45.97612" lon="4.95929">
        <ele>288</ele>
        <time>2016-09-14T09:59:20Z</time>
      </trkpt>
      <trkpt lat="45.97609" lon="4.95923">
        <ele>288</ele>
        <time>2016-09-14T09:59:21Z</time>
      </trkpt>
      <trkpt lat="45.97606" lon="4.95917">
        <ele>289</ele>
        <time>2016-09-14T09:59:22Z</time>
      </trkpt>
      <trkpt lat="45.97603" lon="4.95911">
        <ele>289</ele>
        <time>2016-09-14T09:59:23Z</time>
      </trkpt>
      <trkpt lat="45.97601" lon="4.95905">
        <ele>289</ele>
        <time>2016-09-14T09:59:24Z</time>
      </trkpt>
      <trkpt lat="45.97598" lon="4.95899">
        <ele>289</ele>
        <time>2016-09-14T09:59:25Z</time>
      </trkpt>
      <trkpt lat="45.97595" lon="4.95893">
        <ele>289</ele>
        <time>2016-09-14T09:59:26Z</time>
      </trkpt>
      <trkpt lat="45.97592" lon="4.95887">
        <ele>289</ele>
        <time>2016-09-14T09:59:27Z</time>
      </trkpt>
      <trkpt lat="45.97589" lon="4.9588">
        <ele>289</ele>
        <time>2016-09-14T09:59:28Z</time>
      </trkpt>
      <trkpt lat="45.97586" lon="4.95874">
        <ele>289</ele>
        <time>2016-09-14T09:59:29Z</time>
      </trkpt>
      <trkpt lat="45.97583" lon="4.95867">
        <ele>290</ele>
        <time>2016-09-14T09:59:30Z</time>
      </trkpt>
      <trkpt lat="45.9758" lon="4.95861">
        <ele>290</ele>
        <time>2016-09-14T09:59:31Z</time>
      </trkpt>
      <trkpt lat="45.97576" lon="4.95854">
        <ele>290</ele>
        <time>2016-09-14T09:59:32Z</time>
      </trkpt>
      <trkpt lat="45.97573" lon="4.95847">
        <ele>290</ele>
        <time>2016-09-14T09:59:33Z</time>
      </trkpt>
      <trkpt lat="45.97569" lon="4.95841">
        <ele>290</ele>
        <time>2016-09-14T09:59:34Z</time>
      </trkpt>
      <trkpt lat="45.97565" lon="4.95834">
        <ele>290</ele>
        <time>2016-09-14T09:59:35Z</time>
      </trkpt>
      <trkpt lat="45.97562" lon="4.95827">
        <ele>290</ele>
        <time>2016-09-14T09:59:36Z</time>
      </trkpt>
      <trkpt lat="45.97559" lon="4.95821">
        <ele>290</ele>
        <time>2016-09-14T09:59:37Z</time>
      </trkpt>
      <trkpt lat="45.97556" lon="4.95815">
        <ele>290</ele>
        <time>2016-09-14T09:59:38Z</time>
      </trkpt>
      <trkpt lat="45.97553" lon="4.95808">
        <ele>290</ele>
        <time>2016-09-14T09:59:39Z</time>
      </trkpt>
      <trkpt lat="45.9755" lon="4.95802">
        <ele>290</ele>
        <time>2016-09-14T09:59:40Z</time>
      </trkpt>
      <trkpt lat="45.97547" lon="4.95796">
        <ele>290</ele>
        <time>2016-09-14T09:59:41Z</time>
      </trkpt>
      <trkpt lat="45.97544" lon="4.95789">
        <ele>291</ele>
        <time>2016-09-14T09:59:42Z</time>
      </trkpt>
      <trkpt lat="45.97542" lon="4.95783">
        <ele>291</ele>
        <time>2016-09-14T09:59:43Z</time>
      </trkpt>
      <trkpt lat="45.97539" lon="4.95777">
        <ele>291</ele>
        <time>2016-09-14T09:59:44Z</time>
      </trkpt>
      <trkpt lat="45.97536" lon="4.95772">
        <ele>291</ele>
        <time>2016-09-14T09:59:45Z</time>
      </trkpt>
      <trkpt lat="45.97534" lon="4.95766">
        <ele>291</ele>
        <time>2016-09-14T09:59:46Z</time>
      </trkpt>
      <trkpt lat="45.97531" lon="4.9576">
        <ele>291</ele>
        <time>2016-09-14T09:59:47Z</time>
      </trkpt>
      <trkpt lat="45.97528" lon="4.95755">
        <ele>291</ele>
        <time>2016-09-14T09:59:48Z</time>
      </trkpt>
      <trkpt lat="45.97526" lon="4.95749">
        <ele>291</ele>
        <time>2016-09-14T09:59:49Z</time>
      </trkpt>
      <trkpt lat="45.97523" lon="4.95743">
        <ele>291</ele>
        <time>2016-09-14T09:59:50Z</time>
      </trkpt>
      <trkpt lat="45.9752" lon="4.95737">
        <ele>292</ele>
        <time>2016-09-14T09:59:51Z</time>
      </trkpt>
      <trkpt lat="45.97518" lon="4.95731">
        <ele>292</ele>
        <time>2016-09-14T09:59:52Z</time>
      </trkpt>
      <trkpt lat="45.97515" lon="4.95725">
        <ele>292</ele>
        <time>2016-09-14T09:59:53Z</time>
      </trkpt>
      <trkpt lat="45.97512" lon="4.9572">
        <ele>292</ele>
        <time>2016-09-14T09:59:54Z</time>
      </trkpt>
      <trkpt lat="45.97509" lon="4.95714">
        <ele>292</ele>
        <time>2016-09-14T09:59:55Z</time>
      </trkpt>
      <trkpt lat="45.97507" lon="4.95708">
        <ele>292</ele>
        <time>2016-09-14T09:59:56Z</time>
      </trkpt>
      <trkpt lat="45.97503" lon="4.95702">
        <ele>292</ele>
        <time>2016-09-14T09:59:57Z</time>
      </trkpt>
      <trkpt lat="45.975" lon="4.95696">
        <ele>292</ele>
        <time>2016-09-14T09:59:58Z</time>
      </trkpt>
      <trkpt lat="45.97497" lon="4.9569">
        <ele>292</ele>
        <time>2016-09-14T09:59:59Z</time>
      </trkpt>
      <trkpt lat="45.97494" lon="4.95683">
        <ele>293</ele>
        <time>2016-09-14T10:00:00Z</time>
      </trkpt>
      <trkpt lat="45.97491" lon="4.95676">
        <ele>293</ele>
        <time>2016-09-14T10:00:01Z</time>
      </trkpt>
      <trkpt lat="45.97489" lon="4.9567">
        <ele>293</ele>
        <time>2016-09-14T10:00:02Z</time>
      </trkpt>
      <trkpt lat="45.97486" lon="4.95664">
        <ele>294</ele>
        <time>2016-09-14T10:00:03Z</time>
      </trkpt>
      <trkpt lat="45.97484" lon="4.95658">
        <ele>294</ele>
        <time>2016-09-14T10:00:04Z</time>
      </trkpt>
      <trkpt lat="45.97481" lon="4.95652">
        <ele>293</ele>
        <time>2016-09-14T10:00:05Z</time>
      </trkpt>
      <trkpt lat="45.97478" lon="4.95646">
        <ele>293</ele>
        <time>2016-09-14T10:00:06Z</time>
      </trkpt>
      <trkpt lat="45.97475" lon="4.9564">
        <ele>293</ele>
        <time>2016-09-14T10:00:07Z</time>
      </trkpt>
      <trkpt lat="45.97472" lon="4.95634">
        <ele>293</ele>
        <time>2016-09-14T10:00:08Z</time>
      </trkpt>
      <trkpt lat="45.9747" lon="4.95628">
        <ele>293</ele>
        <time>2016-09-14T10:00:09Z</time>
      </trkpt>
      <trkpt lat="45.97464" lon="4.95618">
        <ele>293</ele>
        <time>2016-09-14T10:00:11Z</time>
      </trkpt>
      <trkpt lat="45.97461" lon="4.95613">
        <ele>293</ele>
        <time>2016-09-14T10:00:12Z</time>
      </trkpt>
      <trkpt lat="45.97459" lon="4.95608">
        <ele>293</ele>
        <time>2016-09-14T10:00:13Z</time>
      </trkpt>
      <trkpt lat="45.97456" lon="4.95603">
        <ele>293</ele>
        <time>2016-09-14T10:00:14Z</time>
      </trkpt>
      <trkpt lat="45.97453" lon="4.95597">
        <ele>293</ele>
        <time>2016-09-14T10:00:15Z</time>
      </trkpt>
      <trkpt lat="45.9745" lon="4.95591">
        <ele>293</ele>
        <time>2016-09-14T10:00:16Z</time>
      </trkpt>
      <trkpt lat="45.97447" lon="4.95585">
        <ele>294</ele>
        <time>2016-09-14T10:00:17Z</time>
      </trkpt>
      <trkpt lat="45.97445" lon="4.95579">
        <ele>294</ele>
        <time>2016-09-14T10:00:18Z</time>
      </trkpt>
      <trkpt lat="45.9744" lon="4.95569">
        <ele>294</ele>
        <time>2016-09-14T10:00:20Z</time>
      </trkpt>
      <trkpt lat="45.97437" lon="4.95563">
        <ele>294</ele>
        <time>2016-09-14T10:00:21Z</time>
      </trkpt>
      <trkpt lat="45.97435" lon="4.95558">
        <ele>294</ele>
        <time>2016-09-14T10:00:22Z</time>
      </trkpt>
      <trkpt lat="45.97432" lon="4.95552">
        <ele>294</ele>
        <time>2016-09-14T10:00:23Z</time>
      </trkpt>
      <trkpt lat="45.97428" lon="4.95546">
        <ele>294</ele>
        <time>2016-09-14T10:00:24Z</time>
      </trkpt>
      <trkpt lat="45.97425" lon="4.9554">
        <ele>294</ele>
        <time>2016-09-14T10:00:25Z</time>
      </trkpt>
      <trkpt lat="45.97422" lon="4.95533">
        <ele>294</ele>
        <time>2016-09-14T10:00:26Z</time>
      </trkpt>
      <trkpt lat="45.97419" lon="4.95527">
        <ele>294</ele>
        <time>2016-09-14T10:00:27Z</time>
      </trkpt>
      <trkpt lat="45.97416" lon="4.9552">
        <ele>293</ele>
        <time>2016-09-14T10:00:28Z</time>
      </trkpt>
      <trkpt lat="45.97413" lon="4.95514">
        <ele>294</ele>
        <time>2016-09-14T10:00:29Z</time>
      </trkpt>
      <trkpt lat="45.9741" lon="4.95507">
        <ele>294</ele>
        <time>2016-09-14T10:00:30Z</time>
      </trkpt>
      <trkpt lat="45.97407" lon="4.95501">
        <ele>294</ele>
        <time>2016-09-14T10:00:31Z</time>
      </trkpt>
      <trkpt lat="45.97404" lon="4.95496">
        <ele>294</ele>
        <time>2016-09-14T10:00:32Z</time>
      </trkpt>
      <trkpt lat="45.97401" lon="4.9549">
        <ele>294</ele>
        <time>2016-09-14T10:00:33Z</time>
      </trkpt>
      <trkpt lat="45.97398" lon="4.95484">
        <ele>293</ele>
        <time>2016-09-14T10:00:34Z</time>
      </trkpt>
      <trkpt lat="45.97395" lon="4.95478">
        <ele>293</ele>
        <time>2016-09-14T10:00:35Z</time>
      </trkpt>
      <trkpt lat="45.97393" lon="4.95472">
        <ele>293</ele>
        <time>2016-09-14T10:00:36Z</time>
      </trkpt>
      <trkpt lat="45.9739" lon="4.95467">
        <ele>293</ele>
        <time>2016-09-14T10:00:37Z</time>
      </trkpt>
      <trkpt lat="45.97388" lon="4.95461">
        <ele>293</ele>
        <time>2016-09-14T10:00:38Z</time>
      </trkpt>
      <trkpt lat="45.97385" lon="4.95455">
        <ele>293</ele>
        <time>2016-09-14T10:00:39Z</time>
      </trkpt>
      <trkpt lat="45.97383" lon="4.95449">
        <ele>293</ele>
        <time>2016-09-14T10:00:40Z</time>
      </trkpt>
      <trkpt lat="45.9738" lon="4.95443">
        <ele>293</ele>
        <time>2016-09-14T10:00:41Z</time>
      </trkpt>
      <trkpt lat="45.97377" lon="4.95438">
        <ele>293</ele>
        <time>2016-09-14T10:00:42Z</time>
      </trkpt>
      <trkpt lat="45.97374" lon="4.95432">
        <ele>293</ele>
        <time>2016-09-14T10:00:43Z</time>
      </trkpt>
      <trkpt lat="45.97371" lon="4.95426">
        <ele>293</ele>
        <time>2016-09-14T10:00:44Z</time>
      </trkpt>
      <trkpt lat="45.97368" lon="4.95419">
        <ele>293</ele>
        <time>2016-09-14T10:00:45Z</time>
      </trkpt>
      <trkpt lat="45.97365" lon="4.95413">
        <ele>294</ele>
        <time>2016-09-14T10:00:46Z</time>
      </trkpt>
      <trkpt lat="45.97362" lon="4.95407">
        <ele>294</ele>
        <time>2016-09-14T10:00:47Z</time>
      </trkpt>
      <trkpt lat="45.97358" lon="4.95401">
        <ele>294</ele>
        <time>2016-09-14T10:00:48Z</time>
      </trkpt>
      <trkpt lat="45.97355" lon="4.95393">
        <ele>294</ele>
        <time>2016-09-14T10:00:49Z</time>
      </trkpt>
      <trkpt lat="45.97352" lon="4.95387">
        <ele>294</ele>
        <time>2016-09-14T10:00:50Z</time>
      </trkpt>
      <trkpt lat="45.97349" lon="4.9538">
        <ele>294</ele>
        <time>2016-09-14T10:00:51Z</time>
      </trkpt>
      <trkpt lat="45.97346" lon="4.95373">
        <ele>294</ele>
        <time>2016-09-14T10:00:52Z</time>
      </trkpt>
      <trkpt lat="45.97344" lon="4.95367">
        <ele>294</ele>
        <time>2016-09-14T10:00:53Z</time>
      </trkpt>
      <trkpt lat="45.97341" lon="4.95361">
        <ele>294</ele>
        <time>2016-09-14T10:00:54Z</time>
      </trkpt>
      <trkpt lat="45.97338" lon="4.95356">
        <ele>294</ele>
        <time>2016-09-14T10:00:55Z</time>
      </trkpt>
      <trkpt lat="45.97335" lon="4.9535">
        <ele>294</ele>
        <time>2016-09-14T10:00:56Z</time>
      </trkpt>
      <trkpt lat="45.97333" lon="4.95344">
        <ele>294</ele>
        <time>2016-09-14T10:00:57Z</time>
      </trkpt>
      <trkpt lat="45.9733" lon="4.95338">
        <ele>294</ele>
        <time>2016-09-14T10:00:58Z</time>
      </trkpt>
      <trkpt lat="45.97327" lon="4.95332">
        <ele>295</ele>
        <time>2016-09-14T10:00:59Z</time>
      </trkpt>
      <trkpt lat="45.97324" lon="4.95326">
        <ele>295</ele>
        <time>2016-09-14T10:01:00Z</time>
      </trkpt>
      <trkpt lat="45.97321" lon="4.9532">
        <ele>295</ele>
        <time>2016-09-14T10:01:01Z</time>
      </trkpt>
      <trkpt lat="45.97319" lon="4.95313">
        <ele>296</ele>
        <time>2016-09-14T10:01:02Z</time>
      </trkpt>
      <trkpt lat="45.97316" lon="4.95307">
        <ele>296</ele>
        <time>2016-09-14T10:01:03Z</time>
      </trkpt>
      <trkpt lat="45.97312" lon="4.953">
        <ele>296</ele>
        <time>2016-09-14T10:01:04Z</time>
      </trkpt>
      <trkpt lat="45.97309" lon="4.95293">
        <ele>296</ele>
        <time>2016-09-14T10:01:05Z</time>
      </trkpt>
      <trkpt lat="45.97306" lon="4.95286">
        <ele>297</ele>
        <time>2016-09-14T10:01:06Z</time>
      </trkpt>
      <trkpt lat="45.97303" lon="4.95279">
        <ele>297</ele>
        <time>2016-09-14T10:01:07Z</time>
      </trkpt>
      <trkpt lat="45.97299" lon="4.95273">
        <ele>297</ele>
        <time>2016-09-14T10:01:08Z</time>
      </trkpt>
      <trkpt lat="45.97296" lon="4.95267">
        <ele>297</ele>
        <time>2016-09-14T10:01:09Z</time>
      </trkpt>
      <trkpt lat="45.97294" lon="4.95262">
        <ele>297</ele>
        <time>2016-09-14T10:01:10Z</time>
      </trkpt>
      <trkpt lat="45.9729" lon="4.95256">
        <ele>297</ele>
        <time>2016-09-14T10:01:11Z</time>
      </trkpt>
      <trkpt lat="45.97288" lon="4.9525">
        <ele>298</ele>
        <time>2016-09-14T10:01:12Z</time>
      </trkpt>
      <trkpt lat="45.97286" lon="4.95245">
        <ele>298</ele>
        <time>2016-09-14T10:01:13Z</time>
      </trkpt>
      <trkpt lat="45.97281" lon="4.95234">
        <ele>298</ele>
        <time>2016-09-14T10:01:15Z</time>
      </trkpt>
      <trkpt lat="45.97279" lon="4.95229">
        <ele>298</ele>
        <time>2016-09-14T10:01:16Z</time>
      </trkpt>
      <trkpt lat="45.97273" lon="4.95219">
        <ele>298</ele>
        <time>2016-09-14T10:01:18Z</time>
      </trkpt>
      <trkpt lat="45.97271" lon="4.95213">
        <ele>298</ele>
        <time>2016-09-14T10:01:19Z</time>
      </trkpt>
      <trkpt lat="45.97268" lon="4.95208">
        <ele>298</ele>
        <time>2016-09-14T10:01:20Z</time>
      </trkpt>
      <trkpt lat="45.97266" lon="4.95202">
        <ele>298</ele>
        <time>2016-09-14T10:01:21Z</time>
      </trkpt>
      <trkpt lat="45.97262" lon="4.95197">
        <ele>298</ele>
        <time>2016-09-14T10:01:22Z</time>
      </trkpt>
      <trkpt lat="45.97259" lon="4.95192">
        <ele>298</ele>
        <time>2016-09-14T10:01:23Z</time>
      </trkpt>
      <trkpt lat="45.97256" lon="4.95186">
        <ele>298</ele>
        <time>2016-09-14T10:01:24Z</time>
      </trkpt>
      <trkpt lat="45.97254" lon="4.9518">
        <ele>298</ele>
        <time>2016-09-14T10:01:25Z</time>
      </trkpt>
      <trkpt lat="45.97252" lon="4.95174">
        <ele>299</ele>
        <time>2016-09-14T10:01:26Z</time>
      </trkpt>
      <trkpt lat="45.97249" lon="4.95169">
        <ele>299</ele>
        <time>2016-09-14T10:01:27Z</time>
      </trkpt>
      <trkpt lat="45.97246" lon="4.95163">
        <ele>299</ele>
        <time>2016-09-14T10:01:28Z</time>
      </trkpt>
      <trkpt lat="45.97244" lon="4.95157">
        <ele>299</ele>
        <time>2016-09-14T10:01:29Z</time>
      </trkpt>
      <trkpt lat="45.97241" lon="4.9515">
        <ele>299</ele>
        <time>2016-09-14T10:01:30Z</time>
      </trkpt>
      <trkpt lat="45.97238" lon="4.95144">
        <ele>299</ele>
        <time>2016-09-14T10:01:31Z</time>
      </trkpt>
      <trkpt lat="45.97236" lon="4.95138">
        <ele>299</ele>
        <time>2016-09-14T10:01:32Z</time>
      </trkpt>
      <trkpt lat="45.97233" lon="4.95132">
        <ele>298</ele>
        <time>2016-09-14T10:01:33Z</time>
      </trkpt>
      <trkpt lat="45.97231" lon="4.95125">
        <ele>298</ele>
        <time>2016-09-14T10:01:34Z</time>
      </trkpt>
      <trkpt lat="45.97228" lon="4.95119">
        <ele>298</ele>
        <time>2016-09-14T10:01:35Z</time>
      </trkpt>
      <trkpt lat="45.97226" lon="4.95112">
        <ele>298</ele>
        <time>2016-09-14T10:01:36Z</time>
      </trkpt>
      <trkpt lat="45.97223" lon="4.95105">
        <ele>298</ele>
        <time>2016-09-14T10:01:37Z</time>
      </trkpt>
      <trkpt lat="45.97221" lon="4.95098">
        <ele>298</ele>
        <time>2016-09-14T10:01:38Z</time>
      </trkpt>
      <trkpt lat="45.97218" lon="4.95091">
        <ele>298</ele>
        <time>2016-09-14T10:01:39Z</time>
      </trkpt>
      <trkpt lat="45.97216" lon="4.95084">
        <ele>298</ele>
        <time>2016-09-14T10:01:40Z</time>
      </trkpt>
      <trkpt lat="45.97213" lon="4.95077">
        <ele>297</ele>
        <time>2016-09-14T10:01:41Z</time>
      </trkpt>
      <trkpt lat="45.97211" lon="4.95069">
        <ele>297</ele>
        <time>2016-09-14T10:01:42Z</time>
      </trkpt>
      <trkpt lat="45.97208" lon="4.95062">
        <ele>297</ele>
        <time>2016-09-14T10:01:43Z</time>
      </trkpt>
      <trkpt lat="45.97205" lon="4.95055">
        <ele>297</ele>
        <time>2016-09-14T10:01:44Z</time>
      </trkpt>
      <trkpt lat="45.97203" lon="4.95047">
        <ele>297</ele>
        <time>2016-09-14T10:01:45Z</time>
      </trkpt>
      <trkpt lat="45.972" lon="4.9504">
        <ele>297</ele>
        <time>2016-09-14T10:01:46Z</time>
      </trkpt>
      <trkpt lat="45.97197" lon="4.95033">
        <ele>297</ele>
        <time>2016-09-14T10:01:47Z</time>
      </trkpt>
      <trkpt lat="45.97195" lon="4.95026">
        <ele>297</ele>
        <time>2016-09-14T10:01:48Z</time>
      </trkpt>
      <trkpt lat="45.97192" lon="4.95019">
        <ele>297</ele>
        <time>2016-09-14T10:01:49Z</time>
      </trkpt>
      <trkpt lat="45.9719" lon="4.95012">
        <ele>297</ele>
        <time>2016-09-14T10:01:50Z</time>
      </trkpt>
      <trkpt lat="45.97187" lon="4.95005">
        <ele>297</ele>
        <time>2016-09-14T10:01:51Z</time>
      </trkpt>
      <trkpt lat="45.97185" lon="4.94997">
        <ele>296</ele>
        <time>2016-09-14T10:01:52Z</time>
      </trkpt>
      <trkpt lat="45.97182" lon="4.9499">
        <ele>296</ele>
        <time>2016-09-14T10:01:53Z</time>
      </trkpt>
      <trkpt lat="45.97179" lon="4.94982">
        <ele>296</ele>
        <time>2016-09-14T10:01:54Z</time>
      </trkpt>
      <trkpt lat="45.97176" lon="4.94974">
        <ele>296</ele>
        <time>2016-09-14T10:01:55Z</time>
      </trkpt>
      <trkpt lat="45.97173" lon="4.94966">
        <ele>296</ele>
        <time>2016-09-14T10:01:56Z</time>
      </trkpt>
      <trkpt lat="45.9717" lon="4.94958">
        <ele>296</ele>
        <time>2016-09-14T10:01:57Z</time>
      </trkpt>
      <trkpt lat="45.97167" lon="4.94949">
        <ele>296</ele>
        <time>2016-09-14T10:01:58Z</time>
      </trkpt>
      <trkpt lat="45.97164" lon="4.94941">
        <ele>296</ele>
        <time>2016-09-14T10:01:59Z</time>
      </trkpt>
      <trkpt lat="45.9716" lon="4.94932">
        <ele>296</ele>
        <time>2016-09-14T10:02:00Z</time>
      </trkpt>
      <trkpt lat="45.97157" lon="4.94924">
        <ele>296</ele>
        <time>2016-09-14T10:02:01Z</time>
      </trkpt>
      <trkpt lat="45.97154" lon="4.94916">
        <ele>295</ele>
        <time>2016-09-14T10:02:02Z</time>
      </trkpt>
      <trkpt lat="45.97151" lon="4.94908">
        <ele>295</ele>
        <time>2016-09-14T10:02:03Z</time>
      </trkpt>
      <trkpt lat="45.97148" lon="4.94901">
        <ele>295</ele>
        <time>2016-09-14T10:02:04Z</time>
      </trkpt>
      <trkpt lat="45.97145" lon="4.94893">
        <ele>294</ele>
        <time>2016-09-14T10:02:05Z</time>
      </trkpt>
      <trkpt lat="45.97142" lon="4.94886">
        <ele>294</ele>
        <time>2016-09-14T10:02:06Z</time>
      </trkpt>
      <trkpt lat="45.9714" lon="4.94879">
        <ele>294</ele>
        <time>2016-09-14T10:02:07Z</time>
      </trkpt>
      <trkpt lat="45.97138" lon="4.94872">
        <ele>294</ele>
        <time>2016-09-14T10:02:08Z</time>
      </trkpt>
      <trkpt lat="45.97135" lon="4.94865">
        <ele>294</ele>
        <time>2016-09-14T10:02:09Z</time>
      </trkpt>
      <trkpt lat="45.97133" lon="4.94858">
        <ele>294</ele>
        <time>2016-09-14T10:02:10Z</time>
      </trkpt>
      <trkpt lat="45.9713" lon="4.9485">
        <ele>294</ele>
        <time>2016-09-14T10:02:11Z</time>
      </trkpt>
      <trkpt lat="45.97127" lon="4.94842">
        <ele>294</ele>
        <time>2016-09-14T10:02:12Z</time>
      </trkpt>
      <trkpt lat="45.97124" lon="4.94835">
        <ele>294</ele>
        <time>2016-09-14T10:02:13Z</time>
      </trkpt>
      <trkpt lat="45.97121" lon="4.94827">
        <ele>294</ele>
        <time>2016-09-14T10:02:14Z</time>
      </trkpt>
      <trkpt lat="45.97118" lon="4.9482">
        <ele>294</ele>
        <time>2016-09-14T10:02:15Z</time>
      </trkpt>
      <trkpt lat="45.97116" lon="4.94813">
        <ele>294</ele>
        <time>2016-09-14T10:02:16Z</time>
      </trkpt>
      <trkpt lat="45.97114" lon="4.94807">
        <ele>294</ele>
        <time>2016-09-14T10:02:17Z</time>
      </trkpt>
      <trkpt lat="45.97111" lon="4.948">
        <ele>294</ele>
        <time>2016-09-14T10:02:18Z</time>
      </trkpt>
      <trkpt lat="45.97109" lon="4.94794">
        <ele>294</ele>
        <time>2016-09-14T10:02:19Z</time>
      </trkpt>
      <trkpt lat="45.97107" lon="4.94787">
        <ele>294</ele>
        <time>2016-09-14T10:02:20Z</time>
      </trkpt>
      <trkpt lat="45.97105" lon="4.94781">
        <ele>294</ele>
        <time>2016-09-14T10:02:21Z</time>
      </trkpt>
      <trkpt lat="45.97102" lon="4.94774">
        <ele>294</ele>
        <time>2016-09-14T10:02:22Z</time>
      </trkpt>
      <trkpt lat="45.971" lon="4.94768">
        <ele>295</ele>
        <time>2016-09-14T10:02:23Z</time>
      </trkpt>
      <trkpt lat="45.97097" lon="4.9476">
        <ele>295</ele>
        <time>2016-09-14T10:02:24Z</time>
      </trkpt>
      <trkpt lat="45.97094" lon="4.94753">
        <ele>295</ele>
        <time>2016-09-14T10:02:25Z</time>
      </trkpt>
      <trkpt lat="45.97091" lon="4.94747">
        <ele>295</ele>
        <time>2016-09-14T10:02:26Z</time>
      </trkpt>
      <trkpt lat="45.97089" lon="4.9474">
        <ele>295</ele>
        <time>2016-09-14T10:02:27Z</time>
      </trkpt>
      <trkpt lat="45.97086" lon="4.94733">
        <ele>295</ele>
        <time>2016-09-14T10:02:28Z</time>
      </trkpt>
      <trkpt lat="45.97084" lon="4.94727">
        <ele>295</ele>
        <time>2016-09-14T10:02:29Z</time>
      </trkpt>
      <trkpt lat="45.97082" lon="4.94721">
        <ele>295</ele>
        <time>2016-09-14T10:02:30Z</time>
      </trkpt>
      <trkpt lat="45.9708" lon="4.94714">
        <ele>295</ele>
        <time>2016-09-14T10:02:31Z</time>
      </trkpt>
      <trkpt lat="45.97077" lon="4.94708">
        <ele>295</ele>
        <time>2016-09-14T10:02:32Z</time>
      </trkpt>
      <trkpt lat="45.97075" lon="4.94701">
        <ele>295</ele>
        <time>2016-09-14T10:02:33Z</time>
      </trkpt>
      <trkpt lat="45.97072" lon="4.94695">
        <ele>295</ele>
        <time>2016-09-14T10:02:34Z</time>
      </trkpt>
      <trkpt lat="45.9707" lon="4.94687">
        <ele>295</ele>
        <time>2016-09-14T10:02:35Z</time>
      </trkpt>
      <trkpt lat="45.97067" lon="4.94681">
        <ele>295</ele>
        <time>2016-09-14T10:02:36Z</time>
      </trkpt>
      <trkpt lat="45.97065" lon="4.94674">
        <ele>295</ele>
        <time>2016-09-14T10:02:37Z</time>
      </trkpt>
      <trkpt lat="45.97062" lon="4.94666">
        <ele>295</ele>
        <time>2016-09-14T10:02:38Z</time>
      </trkpt>
      <trkpt lat="45.97059" lon="4.94658">
        <ele>295</ele>
        <time>2016-09-14T10:02:39Z</time>
      </trkpt>
      <trkpt lat="45.97056" lon="4.94651">
        <ele>295</ele>
        <time>2016-09-14T10:02:40Z</time>
      </trkpt>
      <trkpt lat="45.97054" lon="4.94643">
        <ele>295</ele>
        <time>2016-09-14T10:02:41Z</time>
      </trkpt>
      <trkpt lat="45.97051" lon="4.94637">
        <ele>295</ele>
        <time>2016-09-14T10:02:42Z</time>
      </trkpt>
      <trkpt lat="45.97049" lon="4.9463">
        <ele>295</ele>
        <time>2016-09-14T10:02:43Z</time>
      </trkpt>
      <trkpt lat="45.97046" lon="4.94623">
        <ele>294</ele>
        <time>2016-09-14T10:02:44Z</time>
      </trkpt>
      <trkpt lat="45.97044" lon="4.94616">
        <ele>294</ele>
        <time>2016-09-14T10:02:45Z</time>
      </trkpt>
      <trkpt lat="45.97041" lon="4.94609">
        <ele>294</ele>
        <time>2016-09-14T10:02:46Z</time>
      </trkpt>
      <trkpt lat="45.97039" lon="4.94603">
        <ele>294</ele>
        <time>2016-09-14T10:02:47Z</time>
      </trkpt>
      <trkpt lat="45.97036" lon="4.94596">
        <ele>294</ele>
        <time>2016-09-14T10:02:48Z</time>
      </trkpt>
      <trkpt lat="45.97034" lon="4.94589">
        <ele>294</ele>
        <time>2016-09-14T10:02:49Z</time>
      </trkpt>
      <trkpt lat="45.97031" lon="4.94582">
        <ele>294</ele>
        <time>2016-09-14T10:02:50Z</time>
      </trkpt>
      <trkpt lat="45.97029" lon="4.94575">
        <ele>294</ele>
        <time>2016-09-14T10:02:51Z</time>
      </trkpt>
      <trkpt lat="45.97026" lon="4.94568">
        <ele>294</ele>
        <time>2016-09-14T10:02:52Z</time>
      </trkpt>
      <trkpt lat="45.97023" lon="4.94561">
        <ele>295</ele>
        <time>2016-09-14T10:02:53Z</time>
      </trkpt>
      <trkpt lat="45.9702" lon="4.94554">
        <ele>295</ele>
        <time>2016-09-14T10:02:54Z</time>
      </trkpt>
      <trkpt lat="45.97017" lon="4.94546">
        <ele>295</ele>
        <time>2016-09-14T10:02:55Z</time>
      </trkpt>
      <trkpt lat="45.97014" lon="4.94539">
        <ele>295</ele>
        <time>2016-09-14T10:02:56Z</time>
      </trkpt>
      <trkpt lat="45.97012" lon="4.94532">
        <ele>295</ele>
        <time>2016-09-14T10:02:57Z</time>
      </trkpt>
      <trkpt lat="45.97009" lon="4.94525">
        <ele>295</ele>
        <time>2016-09-14T10:02:58Z</time>
      </trkpt>
      <trkpt lat="45.97007" lon="4.94518">
        <ele>295</ele>
        <time>2016-09-14T10:02:59Z</time>
      </trkpt>
      <trkpt lat="45.97005" lon="4.94512">
        <ele>295</ele>
        <time>2016-09-14T10:03:00Z</time>
      </trkpt>
      <trkpt lat="45.97002" lon="4.94505">
        <ele>295</ele>
        <time>2016-09-14T10:03:01Z</time>
      </trkpt>
      <trkpt lat="45.97" lon="4.94499">
        <ele>295</ele>
        <time>2016-09-14T10:03:02Z</time>
      </trkpt>
      <trkpt lat="45.96997" lon="4.94493">
        <ele>295</ele>
        <time>2016-09-14T10:03:03Z</time>
      </trkpt>
      <trkpt lat="45.96995" lon="4.94487">
        <ele>295</ele>
        <time>2016-09-14T10:03:04Z</time>
      </trkpt>
      <trkpt lat="45.96993" lon="4.94481">
        <ele>295</ele>
        <time>2016-09-14T10:03:05Z</time>
      </trkpt>
      <trkpt lat="45.96989" lon="4.9447">
        <ele>295</ele>
        <time>2016-09-14T10:03:07Z</time>
      </trkpt>
      <trkpt lat="45.96987" lon="4.94466">
        <ele>295</ele>
        <time>2016-09-14T10:03:08Z</time>
      </trkpt>
      <trkpt lat="45.96984" lon="4.94456">
        <ele>295</ele>
        <time>2016-09-14T10:03:10Z</time>
      </trkpt>
      <trkpt lat="45.96982" lon="4.9445">
        <ele>295</ele>
        <time>2016-09-14T10:03:11Z</time>
      </trkpt>
      <trkpt lat="45.9698" lon="4.94444">
        <ele>295</ele>
        <time>2016-09-14T10:03:12Z</time>
      </trkpt>
      <trkpt lat="45.96977" lon="4.94437">
        <ele>295</ele>
        <time>2016-09-14T10:03:13Z</time>
      </trkpt>
      <trkpt lat="45.96975" lon="4.9443">
        <ele>295</ele>
        <time>2016-09-14T10:03:14Z</time>
      </trkpt>
      <trkpt lat="45.96972" lon="4.94422">
        <ele>295</ele>
        <time>2016-09-14T10:03:15Z</time>
      </trkpt>
      <trkpt lat="45.96969" lon="4.94415">
        <ele>295</ele>
        <time>2016-09-14T10:03:16Z</time>
      </trkpt>
      <trkpt lat="45.96967" lon="4.94407">
        <ele>295</ele>
        <time>2016-09-14T10:03:17Z</time>
      </trkpt>
      <trkpt lat="45.96964" lon="4.94399">
        <ele>295</ele>
        <time>2016-09-14T10:03:18Z</time>
      </trkpt>
      <trkpt lat="45.96962" lon="4.94391">
        <ele>295</ele>
        <time>2016-09-14T10:03:19Z</time>
      </trkpt>
      <trkpt lat="45.96959" lon="4.94384">
        <ele>295</ele>
        <time>2016-09-14T10:03:20Z</time>
      </trkpt>
      <trkpt lat="45.96957" lon="4.94376">
        <ele>295</ele>
        <time>2016-09-14T10:03:21Z</time>
      </trkpt>
      <trkpt lat="45.96954" lon="4.94369">
        <ele>295</ele>
        <time>2016-09-14T10:03:22Z</time>
      </trkpt>
      <trkpt lat="45.96952" lon="4.94361">
        <ele>295</ele>
        <time>2016-09-14T10:03:23Z</time>
      </trkpt>
      <trkpt lat="45.96949" lon="4.94354">
        <ele>295</ele>
        <time>2016-09-14T10:03:24Z</time>
      </trkpt>
      <trkpt lat="45.96946" lon="4.94347">
        <ele>295</ele>
        <time>2016-09-14T10:03:25Z</time>
      </trkpt>
      <trkpt lat="45.96943" lon="4.94339">
        <ele>296</ele>
        <time>2016-09-14T10:03:26Z</time>
      </trkpt>
      <trkpt lat="45.96941" lon="4.94332">
        <ele>296</ele>
        <time>2016-09-14T10:03:27Z</time>
      </trkpt>
      <trkpt lat="45.96938" lon="4.94324">
        <ele>296</ele>
        <time>2016-09-14T10:03:28Z</time>
      </trkpt>
      <trkpt lat="45.96935" lon="4.94315">
        <ele>296</ele>
        <time>2016-09-14T10:03:29Z</time>
      </trkpt>
      <trkpt lat="45.96932" lon="4.94307">
        <ele>296</ele>
        <time>2016-09-14T10:03:30Z</time>
      </trkpt>
      <trkpt lat="45.96929" lon="4.94299">
        <ele>296</ele>
        <time>2016-09-14T10:03:31Z</time>
      </trkpt>
      <trkpt lat="45.96926" lon="4.94291">
        <ele>295</ele>
        <time>2016-09-14T10:03:32Z</time>
      </trkpt>
      <trkpt lat="45.96923" lon="4.94284">
        <ele>295</ele>
        <time>2016-09-14T10:03:33Z</time>
      </trkpt>
      <trkpt lat="45.9692" lon="4.94276">
        <ele>296</ele>
        <time>2016-09-14T10:03:34Z</time>
      </trkpt>
      <trkpt lat="45.96917" lon="4.94268">
        <ele>296</ele>
        <time>2016-09-14T10:03:35Z</time>
      </trkpt>
      <trkpt lat="45.96914" lon="4.94261">
        <ele>297</ele>
        <time>2016-09-14T10:03:36Z</time>
      </trkpt>
      <trkpt lat="45.96912" lon="4.94253">
        <ele>296</ele>
        <time>2016-09-14T10:03:37Z</time>
      </trkpt>
      <trkpt lat="45.9691" lon="4.94246">
        <ele>296</ele>
        <time>2016-09-14T10:03:38Z</time>
      </trkpt>
      <trkpt lat="45.96906" lon="4.94239">
        <ele>296</ele>
        <time>2016-09-14T10:03:39Z</time>
      </trkpt>
      <trkpt lat="45.96904" lon="4.94232">
        <ele>296</ele>
        <time>2016-09-14T10:03:40Z</time>
      </trkpt>
      <trkpt lat="45.96901" lon="4.94225">
        <ele>297</ele>
        <time>2016-09-14T10:03:41Z</time>
      </trkpt>
      <trkpt lat="45.96899" lon="4.94218">
        <ele>297</ele>
        <time>2016-09-14T10:03:42Z</time>
      </trkpt>
      <trkpt lat="45.96896" lon="4.94211">
        <ele>296</ele>
        <time>2016-09-14T10:03:43Z</time>
      </trkpt>
      <trkpt lat="45.96894" lon="4.94204">
        <ele>296</ele>
        <time>2016-09-14T10:03:44Z</time>
      </trkpt>
      <trkpt lat="45.96892" lon="4.94198">
        <ele>296</ele>
        <time>2016-09-14T10:03:45Z</time>
      </trkpt>
      <trkpt lat="45.96889" lon="4.94191">
        <ele>296</ele>
        <time>2016-09-14T10:03:46Z</time>
      </trkpt>
      <trkpt lat="45.96887" lon="4.94184">
        <ele>296</ele>
        <time>2016-09-14T10:03:47Z</time>
      </trkpt>
      <trkpt lat="45.96884" lon="4.94177">
        <ele>296</ele>
        <time>2016-09-14T10:03:48Z</time>
      </trkpt>
      <trkpt lat="45.96882" lon="4.9417">
        <ele>296</ele>
        <time>2016-09-14T10:03:49Z</time>
      </trkpt>
      <trkpt lat="45.96879" lon="4.94163">
        <ele>296</ele>
        <time>2016-09-14T10:03:50Z</time>
      </trkpt>
      <trkpt lat="45.96876" lon="4.94156">
        <ele>296</ele>
        <time>2016-09-14T10:03:51Z</time>
      </trkpt>
      <trkpt lat="45.96873" lon="4.94148">
        <ele>296</ele>
        <time>2016-09-14T10:03:52Z</time>
      </trkpt>
      <trkpt lat="45.9687" lon="4.94141">
        <ele>296</ele>
        <time>2016-09-14T10:03:53Z</time>
      </trkpt>
      <trkpt lat="45.96867" lon="4.94133">
        <ele>296</ele>
        <time>2016-09-14T10:03:54Z</time>
      </trkpt>
      <trkpt lat="45.96864" lon="4.94126">
        <ele>296</ele>
        <time>2016-09-14T10:03:55Z</time>
      </trkpt>
      <trkpt lat="45.96862" lon="4.94118">
        <ele>296</ele>
        <time>2016-09-14T10:03:56Z</time>
      </trkpt>
      <trkpt lat="45.96859" lon="4.94111">
        <ele>296</ele>
        <time>2016-09-14T10:03:57Z</time>
      </trkpt>
      <trkpt lat="45.96857" lon="4.94105">
        <ele>296</ele>
        <time>2016-09-14T10:03:58Z</time>
      </trkpt>
      <trkpt lat="45.96855" lon="4.94099">
        <ele>296</ele>
        <time>2016-09-14T10:03:59Z</time>
      </trkpt>
      <trkpt lat="45.96852" lon="4.94092">
        <ele>296</ele>
        <time>2016-09-14T10:04:00Z</time>
      </trkpt>
      <trkpt lat="45.9685" lon="4.94086">
        <ele>296</ele>
        <time>2016-09-14T10:04:01Z</time>
      </trkpt>
      <trkpt lat="45.96848" lon="4.9408">
        <ele>296</ele>
        <time>2016-09-14T10:04:02Z</time>
      </trkpt>
      <trkpt lat="45.96846" lon="4.94073">
        <ele>296</ele>
        <time>2016-09-14T10:04:03Z</time>
      </trkpt>
      <trkpt lat="45.96844" lon="4.94067">
        <ele>296</ele>
        <time>2016-09-14T10:04:04Z</time>
      </trkpt>
      <trkpt lat="45.96841" lon="4.9406">
        <ele>296</ele>
        <time>2016-09-14T10:04:05Z</time>
      </trkpt>
      <trkpt lat="45.96839" lon="4.94054">
        <ele>296</ele>
        <time>2016-09-14T10:04:06Z</time>
      </trkpt>
      <trkpt lat="45.96836" lon="4.94048">
        <ele>296</ele>
        <time>2016-09-14T10:04:07Z</time>
      </trkpt>
      <trkpt lat="45.96833" lon="4.94041">
        <ele>296</ele>
        <time>2016-09-14T10:04:08Z</time>
      </trkpt>
      <trkpt lat="45.96829" lon="4.94034">
        <ele>296</ele>
        <time>2016-09-14T10:04:09Z</time>
      </trkpt>
      <trkpt lat="45.96826" lon="4.94027">
        <ele>296</ele>
        <time>2016-09-14T10:04:10Z</time>
      </trkpt>
      <trkpt lat="45.96822" lon="4.9402">
        <ele>296</ele>
        <time>2016-09-14T10:04:11Z</time>
      </trkpt>
      <trkpt lat="45.96819" lon="4.94013">
        <ele>296</ele>
        <time>2016-09-14T10:04:12Z</time>
      </trkpt>
      <trkpt lat="45.96814" lon="4.94006">
        <ele>296</ele>
        <time>2016-09-14T10:04:13Z</time>
      </trkpt>
      <trkpt lat="45.96811" lon="4.93999">
        <ele>296</ele>
        <time>2016-09-14T10:04:14Z</time>
      </trkpt>
      <trkpt lat="45.96807" lon="4.93993">
        <ele>296</ele>
        <time>2016-09-14T10:04:15Z</time>
      </trkpt>
      <trkpt lat="45.96803" lon="4.93987">
        <ele>296</ele>
        <time>2016-09-14T10:04:16Z</time>
      </trkpt>
      <trkpt lat="45.96799" lon="4.93981">
        <ele>296</ele>
        <time>2016-09-14T10:04:17Z</time>
      </trkpt>
      <trkpt lat="45.96795" lon="4.93975">
        <ele>296</ele>
        <time>2016-09-14T10:04:18Z</time>
      </trkpt>
      <trkpt lat="45.96791" lon="4.93969">
        <ele>296</ele>
        <time>2016-09-14T10:04:19Z</time>
      </trkpt>
      <trkpt lat="45.96787" lon="4.93964">
        <ele>296</ele>
        <time>2016-09-14T10:04:20Z</time>
      </trkpt>
      <trkpt lat="45.96783" lon="4.93958">
        <ele>296</ele>
        <time>2016-09-14T10:04:21Z</time>
      </trkpt>
      <trkpt lat="45.96779" lon="4.93953">
        <ele>296</ele>
        <time>2016-09-14T10:04:22Z</time>
      </trkpt>
      <trkpt lat="45.96775" lon="4.93948">
        <ele>296</ele>
        <time>2016-09-14T10:04:23Z</time>
      </trkpt>
      <trkpt lat="45.96772" lon="4.93943">
        <ele>296</ele>
        <time>2016-09-14T10:04:24Z</time>
      </trkpt>
      <trkpt lat="45.96767" lon="4.93937">
        <ele>296</ele>
        <time>2016-09-14T10:04:25Z</time>
      </trkpt>
      <trkpt lat="45.96763" lon="4.93931">
        <ele>296</ele>
        <time>2016-09-14T10:04:26Z</time>
      </trkpt>
      <trkpt lat="45.96759" lon="4.93925">
        <ele>296</ele>
        <time>2016-09-14T10:04:27Z</time>
      </trkpt>
      <trkpt lat="45.96755" lon="4.93919">
        <ele>296</ele>
        <time>2016-09-14T10:04:28Z</time>
      </trkpt>
      <trkpt lat="45.9675" lon="4.93913">
        <ele>296</ele>
        <time>2016-09-14T10:04:29Z</time>
      </trkpt>
      <trkpt lat="45.96746" lon="4.93907">
        <ele>296</ele>
        <time>2016-09-14T10:04:30Z</time>
      </trkpt>
      <trkpt lat="45.96742" lon="4.93901">
        <ele>296</ele>
        <time>2016-09-14T10:04:31Z</time>
      </trkpt>
      <trkpt lat="45.96737" lon="4.93895">
        <ele>296</ele>
        <time>2016-09-14T10:04:32Z</time>
      </trkpt>
      <trkpt lat="45.96733" lon="4.93889">
        <ele>296</ele>
        <time>2016-09-14T10:04:33Z</time>
      </trkpt>
      <trkpt lat="45.96728" lon="4.93884">
        <ele>296</ele>
        <time>2016-09-14T10:04:34Z</time>
      </trkpt>
      <trkpt lat="45.96724" lon="4.93878">
        <ele>296</ele>
        <time>2016-09-14T10:04:35Z</time>
      </trkpt>
      <trkpt lat="45.9672" lon="4.93873">
        <ele>296</ele>
        <time>2016-09-14T10:04:36Z</time>
      </trkpt>
      <trkpt lat="45.96715" lon="4.93869">
        <ele>296</ele>
        <time>2016-09-14T10:04:37Z</time>
      </trkpt>
      <trkpt lat="45.96711" lon="4.93865">
        <ele>296</ele>
        <time>2016-09-14T10:04:38Z</time>
      </trkpt>
      <trkpt lat="45.96707" lon="4.93861">
        <ele>296</ele>
        <time>2016-09-14T10:04:39Z</time>
      </trkpt>
      <trkpt lat="45.96703" lon="4.93856">
        <ele>296</ele>
        <time>2016-09-14T10:04:40Z</time>
      </trkpt>
      <trkpt lat="45.967" lon="4.93852">
        <ele>296</ele>
        <time>2016-09-14T10:04:41Z</time>
      </trkpt>
      <trkpt lat="45.96697" lon="4.93846">
        <ele>297</ele>
        <time>2016-09-14T10:04:42Z</time>
      </trkpt>
      <trkpt lat="45.96694" lon="4.9384">
        <ele>297</ele>
        <time>2016-09-14T10:04:43Z</time>
      </trkpt>
      <trkpt lat="45.96691" lon="4.93829">
        <ele>297</ele>
        <time>2016-09-14T10:04:45Z</time>
      </trkpt>
      <trkpt lat="45.9669" lon="4.93823">
        <ele>297</ele>
        <time>2016-09-14T10:04:46Z</time>
      </trkpt>
      <trkpt lat="45.96687" lon="4.93815">
        <ele>297</ele>
        <time>2016-09-14T10:04:48Z</time>
      </trkpt>
      <trkpt lat="45.96684" lon="4.93812">
        <ele>297</ele>
        <time>2016-09-14T10:04:49Z</time>
      </trkpt>
      <trkpt lat="45.96678" lon="4.93809">
        <ele>297</ele>
        <time>2016-09-14T10:04:51Z</time>
      </trkpt>
      <trkpt lat="45.96673" lon="4.93809">
        <ele>297</ele>
        <time>2016-09-14T10:04:52Z</time>
      </trkpt>
      <trkpt lat="45.96669" lon="4.93811">
        <ele>297</ele>
        <time>2016-09-14T10:04:53Z</time>
      </trkpt>
      <trkpt lat="45.96665" lon="4.93814">
        <ele>298</ele>
        <time>2016-09-14T10:04:54Z</time>
      </trkpt>
      <trkpt lat="45.9666" lon="4.93816">
        <ele>298</ele>
        <time>2016-09-14T10:04:55Z</time>
      </trkpt>
      <trkpt lat="45.96655" lon="4.93817">
        <ele>297</ele>
        <time>2016-09-14T10:04:56Z</time>
      </trkpt>
      <trkpt lat="45.9665" lon="4.93819">
        <ele>297</ele>
        <time>2016-09-14T10:04:57Z</time>
      </trkpt>
      <trkpt lat="45.96644" lon="4.93821">
        <ele>297</ele>
        <time>2016-09-14T10:04:58Z</time>
      </trkpt>
      <trkpt lat="45.96639" lon="4.93823">
        <ele>297</ele>
        <time>2016-09-14T10:04:59Z</time>
      </trkpt>
      <trkpt lat="45.96633" lon="4.93825">
        <ele>297</ele>
        <time>2016-09-14T10:05:00Z</time>
      </trkpt>
      <trkpt lat="45.96628" lon="4.93827">
        <ele>297</ele>
        <time>2016-09-14T10:05:01Z</time>
      </trkpt>
      <trkpt lat="45.96623" lon="4.93829">
        <ele>297</ele>
        <time>2016-09-14T10:05:02Z</time>
      </trkpt>
      <trkpt lat="45.96618" lon="4.93831">
        <ele>297</ele>
        <time>2016-09-14T10:05:03Z</time>
      </trkpt>
      <trkpt lat="45.96613" lon="4.93832">
        <ele>297</ele>
        <time>2016-09-14T10:05:04Z</time>
      </trkpt>
      <trkpt lat="45.96608" lon="4.93834">
        <ele>296</ele>
        <time>2016-09-14T10:05:05Z</time>
      </trkpt>
      <trkpt lat="45.96603" lon="4.93835">
        <ele>296</ele>
        <time>2016-09-14T10:05:06Z</time>
      </trkpt>
      <trkpt lat="45.96599" lon="4.93837">
        <ele>296</ele>
        <time>2016-09-14T10:05:07Z</time>
      </trkpt>
      <trkpt lat="45.96594" lon="4.93839">
        <ele>296</ele>
        <time>2016-09-14T10:05:08Z</time>
      </trkpt>
      <trkpt lat="45.96589" lon="4.93841">
        <ele>296</ele>
        <time>2016-09-14T10:05:09Z</time>
      </trkpt>
      <trkpt lat="45.96585" lon="4.93842">
        <ele>296</ele>
        <time>2016-09-14T10:05:10Z</time>
      </trkpt>
      <trkpt lat="45.9658" lon="4.93843">
        <ele>296</ele>
        <time>2016-09-14T10:05:11Z</time>
      </trkpt>
      <trkpt lat="45.96575" lon="4.93844">
        <ele>296</ele>
        <time>2016-09-14T10:05:12Z</time>
      </trkpt>
      <trkpt lat="45.96569" lon="4.93845">
        <ele>296</ele>
        <time>2016-09-14T10:05:13Z</time>
      </trkpt>
      <trkpt lat="45.96564" lon="4.93847">
        <ele>296</ele>
        <time>2016-09-14T10:05:14Z</time>
      </trkpt>
      <trkpt lat="45.96558" lon="4.93849">
        <ele>296</ele>
        <time>2016-09-14T10:05:15Z</time>
      </trkpt>
      <trkpt lat="45.96553" lon="4.93851">
        <ele>296</ele>
        <time>2016-09-14T10:05:16Z</time>
      </trkpt>
      <trkpt lat="45.96547" lon="4.93853">
        <ele>296</ele>
        <time>2016-09-14T10:05:17Z</time>
      </trkpt>
      <trkpt lat="45.96542" lon="4.93855">
        <ele>296</ele>
        <time>2016-09-14T10:05:18Z</time>
      </trkpt>
      <trkpt lat="45.96536" lon="4.93856">
        <ele>296</ele>
        <time>2016-09-14T10:05:19Z</time>
      </trkpt>
      <trkpt lat="45.9653" lon="4.93858">
        <ele>296</ele>
        <time>2016-09-14T10:05:20Z</time>
      </trkpt>
      <trkpt lat="45.96524" lon="4.9386">
        <ele>296</ele>
        <time>2016-09-14T10:05:21Z</time>
      </trkpt>
      <trkpt lat="45.96518" lon="4.93863">
        <ele>296</ele>
        <time>2016-09-14T10:05:22Z</time>
      </trkpt>
      <trkpt lat="45.96512" lon="4.93865">
        <ele>296</ele>
        <time>2016-09-14T10:05:23Z</time>
      </trkpt>
      <trkpt lat="45.96506" lon="4.93867">
        <ele>296</ele>
        <time>2016-09-14T10:05:24Z</time>
      </trkpt>
      <trkpt lat="45.96501" lon="4.93869">
        <ele>296</ele>
        <time>2016-09-14T10:05:25Z</time>
      </trkpt>
      <trkpt lat="45.96495" lon="4.93872">
        <ele>296</ele>
        <time>2016-09-14T10:05:26Z</time>
      </trkpt>
      <trkpt lat="45.9649" lon="4.93874">
        <ele>296</ele>
        <time>2016-09-14T10:05:27Z</time>
      </trkpt>
      <trkpt lat="45.96485" lon="4.93875">
        <ele>296</ele>
        <time>2016-09-14T10:05:28Z</time>
      </trkpt>
      <trkpt lat="45.9648" lon="4.93877">
        <ele>295</ele>
        <time>2016-09-14T10:05:29Z</time>
      </trkpt>
      <trkpt lat="45.96475" lon="4.93879">
        <ele>295</ele>
        <time>2016-09-14T10:05:30Z</time>
      </trkpt>
      <trkpt lat="45.96469" lon="4.9388">
        <ele>295</ele>
        <time>2016-09-14T10:05:31Z</time>
      </trkpt>
      <trkpt lat="45.96464" lon="4.93882">
        <ele>295</ele>
        <time>2016-09-14T10:05:32Z</time>
      </trkpt>
      <trkpt lat="45.96459" lon="4.93883">
        <ele>295</ele>
        <time>2016-09-14T10:05:33Z</time>
      </trkpt>
      <trkpt lat="45.96454" lon="4.93885">
        <ele>296</ele>
        <time>2016-09-14T10:05:34Z</time>
      </trkpt>
      <trkpt lat="45.96448" lon="4.93887">
        <ele>296</ele>
        <time>2016-09-14T10:05:35Z</time>
      </trkpt>
      <trkpt lat="45.96443" lon="4.9389">
        <ele>296</ele>
        <time>2016-09-14T10:05:36Z</time>
      </trkpt>
      <trkpt lat="45.96438" lon="4.93892">
        <ele>296</ele>
        <time>2016-09-14T10:05:37Z</time>
      </trkpt>
      <trkpt lat="45.96432" lon="4.93893">
        <ele>296</ele>
        <time>2016-09-14T10:05:38Z</time>
      </trkpt>
      <trkpt lat="45.96426" lon="4.93895">
        <ele>296</ele>
        <time>2016-09-14T10:05:39Z</time>
      </trkpt>
      <trkpt lat="45.96421" lon="4.93898">
        <ele>296</ele>
        <time>2016-09-14T10:05:40Z</time>
      </trkpt>
      <trkpt lat="45.96415" lon="4.939">
        <ele>295</ele>
        <time>2016-09-14T10:05:41Z</time>
      </trkpt>
      <trkpt lat="45.96409" lon="4.93901">
        <ele>295</ele>
        <time>2016-09-14T10:05:42Z</time>
      </trkpt>
      <trkpt lat="45.96403" lon="4.93903">
        <ele>295</ele>
        <time>2016-09-14T10:05:43Z</time>
      </trkpt>
      <trkpt lat="45.96398" lon="4.93905">
        <ele>295</ele>
        <time>2016-09-14T10:05:44Z</time>
      </trkpt>
      <trkpt lat="45.96392" lon="4.93906">
        <ele>295</ele>
        <time>2016-09-14T10:05:45Z</time>
      </trkpt>
      <trkpt lat="45.96387" lon="4.93908">
        <ele>294</ele>
        <time>2016-09-14T10:05:46Z</time>
      </trkpt>
      <trkpt lat="45.96382" lon="4.9391">
        <ele>294</ele>
        <time>2016-09-14T10:05:47Z</time>
      </trkpt>
      <trkpt lat="45.96377" lon="4.93912">
        <ele>294</ele>
        <time>2016-09-14T10:05:48Z</time>
      </trkpt>
      <trkpt lat="45.96371" lon="4.93915">
        <ele>294</ele>
        <time>2016-09-14T10:05:49Z</time>
      </trkpt>
      <trkpt lat="45.96366" lon="4.93916">
        <ele>294</ele>
        <time>2016-09-14T10:05:50Z</time>
      </trkpt>
      <trkpt lat="45.96362" lon="4.93918">
        <ele>294</ele>
        <time>2016-09-14T10:05:51Z</time>
      </trkpt>
      <trkpt lat="45.96356" lon="4.93921">
        <ele>294</ele>
        <time>2016-09-14T10:05:52Z</time>
      </trkpt>
      <trkpt lat="45.9635" lon="4.93923">
        <ele>293</ele>
        <time>2016-09-14T10:05:53Z</time>
      </trkpt>
      <trkpt lat="45.96344" lon="4.93925">
        <ele>293</ele>
        <time>2016-09-14T10:05:54Z</time>
      </trkpt>
      <trkpt lat="45.96337" lon="4.93927">
        <ele>293</ele>
        <time>2016-09-14T10:05:55Z</time>
      </trkpt>
      <trkpt lat="45.9633" lon="4.9393">
        <ele>292</ele>
        <time>2016-09-14T10:05:56Z</time>
      </trkpt>
      <trkpt lat="45.96323" lon="4.93932">
        <ele>292</ele>
        <time>2016-09-14T10:05:57Z</time>
      </trkpt>
      <trkpt lat="45.96316" lon="4.93935">
        <ele>292</ele>
        <time>2016-09-14T10:05:58Z</time>
      </trkpt>
      <trkpt lat="45.9631" lon="4.93938">
        <ele>292</ele>
        <time>2016-09-14T10:05:59Z</time>
      </trkpt>
      <trkpt lat="45.96304" lon="4.9394">
        <ele>292</ele>
        <time>2016-09-14T10:06:00Z</time>
      </trkpt>
      <trkpt lat="45.96297" lon="4.93943">
        <ele>292</ele>
        <time>2016-09-14T10:06:01Z</time>
      </trkpt>
      <trkpt lat="45.96291" lon="4.93945">
        <ele>292</ele>
        <time>2016-09-14T10:06:02Z</time>
      </trkpt>
      <trkpt lat="45.96285" lon="4.93947">
        <ele>291</ele>
        <time>2016-09-14T10:06:03Z</time>
      </trkpt>
      <trkpt lat="45.96279" lon="4.9395">
        <ele>291</ele>
        <time>2016-09-14T10:06:04Z</time>
      </trkpt>
      <trkpt lat="45.96273" lon="4.93953">
        <ele>291</ele>
        <time>2016-09-14T10:06:05Z</time>
      </trkpt>
      <trkpt lat="45.96267" lon="4.93955">
        <ele>291</ele>
        <time>2016-09-14T10:06:06Z</time>
      </trkpt>
      <trkpt lat="45.96261" lon="4.93958">
        <ele>291</ele>
        <time>2016-09-14T10:06:07Z</time>
      </trkpt>
      <trkpt lat="45.96255" lon="4.93962">
        <ele>291</ele>
        <time>2016-09-14T10:06:08Z</time>
      </trkpt>
      <trkpt lat="45.9625" lon="4.93965">
        <ele>290</ele>
        <time>2016-09-14T10:06:09Z</time>
      </trkpt>
      <trkpt lat="45.96244" lon="4.93969">
        <ele>290</ele>
        <time>2016-09-14T10:06:10Z</time>
      </trkpt>
      <trkpt lat="45.96238" lon="4.93973">
        <ele>290</ele>
        <time>2016-09-14T10:06:11Z</time>
      </trkpt>
      <trkpt lat="45.96233" lon="4.93978">
        <ele>290</ele>
        <time>2016-09-14T10:06:12Z</time>
      </trkpt>
      <trkpt lat="45.96227" lon="4.93982">
        <ele>290</ele>
        <time>2016-09-14T10:06:13Z</time>
      </trkpt>
      <trkpt lat="45.96221" lon="4.93987">
        <ele>290</ele>
        <time>2016-09-14T10:06:14Z</time>
      </trkpt>
      <trkpt lat="45.96215" lon="4.93992">
        <ele>290</ele>
        <time>2016-09-14T10:06:15Z</time>
      </trkpt>
      <trkpt lat="45.96208" lon="4.93996">
        <ele>290</ele>
        <time>2016-09-14T10:06:16Z</time>
      </trkpt>
      <trkpt lat="45.96203" lon="4.94001">
        <ele>290</ele>
        <time>2016-09-14T10:06:17Z</time>
      </trkpt>
      <trkpt lat="45.96196" lon="4.94006">
        <ele>290</ele>
        <time>2016-09-14T10:06:18Z</time>
      </trkpt>
      <trkpt lat="45.9619" lon="4.94011">
        <ele>290</ele>
        <time>2016-09-14T10:06:19Z</time>
      </trkpt>
      <trkpt lat="45.96184" lon="4.94016">
        <ele>290</ele>
        <time>2016-09-14T10:06:20Z</time>
      </trkpt>
      <trkpt lat="45.96179" lon="4.94022">
        <ele>290</ele>
        <time>2016-09-14T10:06:21Z</time>
      </trkpt>
      <trkpt lat="45.96173" lon="4.94027">
        <ele>290</ele>
        <time>2016-09-14T10:06:22Z</time>
      </trkpt>
      <trkpt lat="45.96168" lon="4.94032">
        <ele>290</ele>
        <time>2016-09-14T10:06:23Z</time>
      </trkpt>
      <trkpt lat="45.96163" lon="4.94037">
        <ele>290</ele>
        <time>2016-09-14T10:06:24Z</time>
      </trkpt>
      <trkpt lat="45.96158" lon="4.94041">
        <ele>290</ele>
        <time>2016-09-14T10:06:25Z</time>
      </trkpt>
      <trkpt lat="45.96153" lon="4.94046">
        <ele>290</ele>
        <time>2016-09-14T10:06:26Z</time>
      </trkpt>
      <trkpt lat="45.96148" lon="4.94049">
        <ele>290</ele>
        <time>2016-09-14T10:06:27Z</time>
      </trkpt>
      <trkpt lat="45.96143" lon="4.94053">
        <ele>290</ele>
        <time>2016-09-14T10:06:28Z</time>
      </trkpt>
      <trkpt lat="45.96139" lon="4.94057">
        <ele>290</ele>
        <time>2016-09-14T10:06:29Z</time>
      </trkpt>
      <trkpt lat="45.96134" lon="4.94061">
        <ele>290</ele>
        <time>2016-09-14T10:06:30Z</time>
      </trkpt>
      <trkpt lat="45.96129" lon="4.94066">
        <ele>290</ele>
        <time>2016-09-14T10:06:31Z</time>
      </trkpt>
      <trkpt lat="45.96124" lon="4.9407">
        <ele>290</ele>
        <time>2016-09-14T10:06:32Z</time>
      </trkpt>
      <trkpt lat="45.96118" lon="4.94075">
        <ele>291</ele>
        <time>2016-09-14T10:06:33Z</time>
      </trkpt>
      <trkpt lat="45.96113" lon="4.9408">
        <ele>291</ele>
        <time>2016-09-14T10:06:34Z</time>
      </trkpt>
      <trkpt lat="45.96107" lon="4.94084">
        <ele>291</ele>
        <time>2016-09-14T10:06:35Z</time>
      </trkpt>
      <trkpt lat="45.96101" lon="4.94089">
        <ele>291</ele>
        <time>2016-09-14T10:06:36Z</time>
      </trkpt>
      <trkpt lat="45.96096" lon="4.94094">
        <ele>291</ele>
        <time>2016-09-14T10:06:37Z</time>
      </trkpt>
      <trkpt lat="45.96091" lon="4.94099">
        <ele>291</ele>
        <time>2016-09-14T10:06:38Z</time>
      </trkpt>
      <trkpt lat="45.96086" lon="4.94104">
        <ele>291</ele>
        <time>2016-09-14T10:06:39Z</time>
      </trkpt>
      <trkpt lat="45.9608" lon="4.94108">
        <ele>291</ele>
        <time>2016-09-14T10:06:40Z</time>
      </trkpt>
      <trkpt lat="45.96075" lon="4.94112">
        <ele>291</ele>
        <time>2016-09-14T10:06:41Z</time>
      </trkpt>
      <trkpt lat="45.9607" lon="4.94116">
        <ele>291</ele>
        <time>2016-09-14T10:06:42Z</time>
      </trkpt>
      <trkpt lat="45.96065" lon="4.9412">
        <ele>291</ele>
        <time>2016-09-14T10:06:43Z</time>
      </trkpt>
      <trkpt lat="45.9606" lon="4.94123">
        <ele>291</ele>
        <time>2016-09-14T10:06:44Z</time>
      </trkpt>
      <trkpt lat="45.96055" lon="4.94125">
        <ele>291</ele>
        <time>2016-09-14T10:06:45Z</time>
      </trkpt>
      <trkpt lat="45.9605" lon="4.94127">
        <ele>291</ele>
        <time>2016-09-14T10:06:46Z</time>
      </trkpt>
      <trkpt lat="45.96044" lon="4.94129">
        <ele>291</ele>
        <time>2016-09-14T10:06:47Z</time>
      </trkpt>
      <trkpt lat="45.96039" lon="4.94131">
        <ele>291</ele>
        <time>2016-09-14T10:06:48Z</time>
      </trkpt>
      <trkpt lat="45.96033" lon="4.94131">
        <ele>291</ele>
        <time>2016-09-14T10:06:49Z</time>
      </trkpt>
      <trkpt lat="45.96027" lon="4.9413">
        <ele>291</ele>
        <time>2016-09-14T10:06:50Z</time>
      </trkpt>
      <trkpt lat="45.96021" lon="4.94129">
        <ele>291</ele>
        <time>2016-09-14T10:06:51Z</time>
      </trkpt>
      <trkpt lat="45.96015" lon="4.94127">
        <ele>291</ele>
        <time>2016-09-14T10:06:52Z</time>
      </trkpt>
      <trkpt lat="45.96008" lon="4.94126">
        <ele>291</ele>
        <time>2016-09-14T10:06:53Z</time>
      </trkpt>
      <trkpt lat="45.96003" lon="4.94124">
        <ele>291</ele>
        <time>2016-09-14T10:06:54Z</time>
      </trkpt>
      <trkpt lat="45.95997" lon="4.94123">
        <ele>291</ele>
        <time>2016-09-14T10:06:55Z</time>
      </trkpt>
      <trkpt lat="45.95991" lon="4.94122">
        <ele>291</ele>
        <time>2016-09-14T10:06:56Z</time>
      </trkpt>
      <trkpt lat="45.95986" lon="4.9412">
        <ele>292</ele>
        <time>2016-09-14T10:06:57Z</time>
      </trkpt>
      <trkpt lat="45.95981" lon="4.94118">
        <ele>292</ele>
        <time>2016-09-14T10:06:58Z</time>
      </trkpt>
      <trkpt lat="45.95976" lon="4.94117">
        <ele>292</ele>
        <time>2016-09-14T10:06:59Z</time>
      </trkpt>
      <trkpt lat="45.95971" lon="4.94115">
        <ele>292</ele>
        <time>2016-09-14T10:07:00Z</time>
      </trkpt>
      <trkpt lat="45.95966" lon="4.94113">
        <ele>292</ele>
        <time>2016-09-14T10:07:01Z</time>
      </trkpt>
      <trkpt lat="45.95962" lon="4.94112">
        <ele>292</ele>
        <time>2016-09-14T10:07:02Z</time>
      </trkpt>
      <trkpt lat="45.95957" lon="4.94111">
        <ele>292</ele>
        <time>2016-09-14T10:07:03Z</time>
      </trkpt>
      <trkpt lat="45.95952" lon="4.9411">
        <ele>292</ele>
        <time>2016-09-14T10:07:04Z</time>
      </trkpt>
      <trkpt lat="45.95946" lon="4.94108">
        <ele>292</ele>
        <time>2016-09-14T10:07:05Z</time>
      </trkpt>
      <trkpt lat="45.9594" lon="4.94106">
        <ele>292</ele>
        <time>2016-09-14T10:07:06Z</time>
      </trkpt>
      <trkpt lat="45.95935" lon="4.94105">
        <ele>292</ele>
        <time>2016-09-14T10:07:07Z</time>
      </trkpt>
      <trkpt lat="45.95929" lon="4.94104">
        <ele>292</ele>
        <time>2016-09-14T10:07:08Z</time>
      </trkpt>
      <trkpt lat="45.95924" lon="4.94102">
        <ele>292</ele>
        <time>2016-09-14T10:07:09Z</time>
      </trkpt>
      <trkpt lat="45.95919" lon="4.94101">
        <ele>292</ele>
        <time>2016-09-14T10:07:10Z</time>
      </trkpt>
      <trkpt lat="45.95914" lon="4.941">
        <ele>293</ele>
        <time>2016-09-14T10:07:11Z</time>
      </trkpt>
      <trkpt lat="45.95909" lon="4.94098">
        <ele>293</ele>
        <time>2016-09-14T10:07:12Z</time>
      </trkpt>
      <trkpt lat="45.95905" lon="4.94097">
        <ele>293</ele>
        <time>2016-09-14T10:07:13Z</time>
      </trkpt>
      <trkpt lat="45.95899" lon="4.94096">
        <ele>293</ele>
        <time>2016-09-14T10:07:14Z</time>
      </trkpt>
      <trkpt lat="45.95895" lon="4.94095">
        <ele>293</ele>
        <time>2016-09-14T10:07:15Z</time>
      </trkpt>
      <trkpt lat="45.9589" lon="4.94093">
        <ele>293</ele>
        <time>2016-09-14T10:07:16Z</time>
      </trkpt>
      <trkpt lat="45.95885" lon="4.94093">
        <ele>293</ele>
        <time>2016-09-14T10:07:17Z</time>
      </trkpt>
      <trkpt lat="45.9588" lon="4.94091">
        <ele>293</ele>
        <time>2016-09-14T10:07:18Z</time>
      </trkpt>
      <trkpt lat="45.95875" lon="4.9409">
        <ele>293</ele>
        <time>2016-09-14T10:07:19Z</time>
      </trkpt>
      <trkpt lat="45.9587" lon="4.94088">
        <ele>293</ele>
        <time>2016-09-14T10:07:20Z</time>
      </trkpt>
      <trkpt lat="45.95865" lon="4.94088">
        <ele>293</ele>
        <time>2016-09-14T10:07:21Z</time>
      </trkpt>
      <trkpt lat="45.95859" lon="4.94087">
        <ele>294</ele>
        <time>2016-09-14T10:07:22Z</time>
      </trkpt>
      <trkpt lat="45.95854" lon="4.94086">
        <ele>294</ele>
        <time>2016-09-14T10:07:23Z</time>
      </trkpt>
      <trkpt lat="45.95849" lon="4.94085">
        <ele>294</ele>
        <time>2016-09-14T10:07:24Z</time>
      </trkpt>
      <trkpt lat="45.95844" lon="4.94084">
        <ele>294</ele>
        <time>2016-09-14T10:07:25Z</time>
      </trkpt>
      <trkpt lat="45.95839" lon="4.94082">
        <ele>294</ele>
        <time>2016-09-14T10:07:26Z</time>
      </trkpt>
      <trkpt lat="45.95831" lon="4.9408">
        <ele>294</ele>
        <time>2016-09-14T10:07:28Z</time>
      </trkpt>
      <trkpt lat="45.95826" lon="4.94078">
        <ele>294</ele>
        <time>2016-09-14T10:07:29Z</time>
      </trkpt>
      <trkpt lat="45.95818" lon="4.94076">
        <ele>294</ele>
        <time>2016-09-14T10:07:31Z</time>
      </trkpt>
      <trkpt lat="45.95814" lon="4.94075">
        <ele>294</ele>
        <time>2016-09-14T10:07:32Z</time>
      </trkpt>
      <trkpt lat="45.95806" lon="4.94074">
        <ele>294</ele>
        <time>2016-09-14T10:07:34Z</time>
      </trkpt>
      <trkpt lat="45.95802" lon="4.94073">
        <ele>294</ele>
        <time>2016-09-14T10:07:35Z</time>
      </trkpt>
      <trkpt lat="45.95796" lon="4.9407">
        <ele>294</ele>
        <time>2016-09-14T10:07:37Z</time>
      </trkpt>
      <trkpt lat="45.95792" lon="4.94068">
        <ele>294</ele>
        <time>2016-09-14T10:07:38Z</time>
      </trkpt>
      <trkpt lat="45.95787" lon="4.94066">
        <ele>294</ele>
        <time>2016-09-14T10:07:39Z</time>
      </trkpt>
      <trkpt lat="45.95783" lon="4.94065">
        <ele>294</ele>
        <time>2016-09-14T10:07:40Z</time>
      </trkpt>
      <trkpt lat="45.95774" lon="4.94062">
        <ele>294</ele>
        <time>2016-09-14T10:07:42Z</time>
      </trkpt>
      <trkpt lat="45.9577" lon="4.94061">
        <ele>294</ele>
        <time>2016-09-14T10:07:43Z</time>
      </trkpt>
      <trkpt lat="45.95765" lon="4.9406">
        <ele>294</ele>
        <time>2016-09-14T10:07:44Z</time>
      </trkpt>
      <trkpt lat="45.9576" lon="4.94058">
        <ele>294</ele>
        <time>2016-09-14T10:07:45Z</time>
      </trkpt>
      <trkpt lat="45.95755" lon="4.94057">
        <ele>294</ele>
        <time>2016-09-14T10:07:46Z</time>
      </trkpt>
      <trkpt lat="45.95751" lon="4.94056">
        <ele>294</ele>
        <time>2016-09-14T10:07:47Z</time>
      </trkpt>
      <trkpt lat="45.95746" lon="4.94054">
        <ele>295</ele>
        <time>2016-09-14T10:07:48Z</time>
      </trkpt>
      <trkpt lat="45.95741" lon="4.94052">
        <ele>295</ele>
        <time>2016-09-14T10:07:49Z</time>
      </trkpt>
      <trkpt lat="45.95737" lon="4.9405">
        <ele>295</ele>
        <time>2016-09-14T10:07:50Z</time>
      </trkpt>
      <trkpt lat="45.95732" lon="4.94048">
        <ele>295</ele>
        <time>2016-09-14T10:07:51Z</time>
      </trkpt>
      <trkpt lat="45.95727" lon="4.94047">
        <ele>295</ele>
        <time>2016-09-14T10:07:52Z</time>
      </trkpt>
      <trkpt lat="45.95722" lon="4.94046">
        <ele>295</ele>
        <time>2016-09-14T10:07:53Z</time>
      </trkpt>
      <trkpt lat="45.95717" lon="4.94045">
        <ele>295</ele>
        <time>2016-09-14T10:07:54Z</time>
      </trkpt>
      <trkpt lat="45.95713" lon="4.94044">
        <ele>295</ele>
        <time>2016-09-14T10:07:55Z</time>
      </trkpt>
      <trkpt lat="45.95708" lon="4.94042">
        <ele>295</ele>
        <time>2016-09-14T10:07:56Z</time>
      </trkpt>
      <trkpt lat="45.95703" lon="4.94041">
        <ele>295</ele>
        <time>2016-09-14T10:07:57Z</time>
      </trkpt>
      <trkpt lat="45.95699" lon="4.9404">
        <ele>295</ele>
        <time>2016-09-14T10:07:58Z</time>
      </trkpt>
      <trkpt lat="45.95694" lon="4.9404">
        <ele>295</ele>
        <time>2016-09-14T10:07:59Z</time>
      </trkpt>
      <trkpt lat="45.95686" lon="4.94039">
        <ele>295</ele>
        <time>2016-09-14T10:08:01Z</time>
      </trkpt>
      <trkpt lat="45.95682" lon="4.94038">
        <ele>295</ele>
        <time>2016-09-14T10:08:02Z</time>
      </trkpt>
      <trkpt lat="45.95676" lon="4.9403">
        <ele>295</ele>
        <time>2016-09-14T10:08:04Z</time>
      </trkpt>
      <trkpt lat="45.95674" lon="4.94025">
        <ele>295</ele>
        <time>2016-09-14T10:08:05Z</time>
      </trkpt>
      <trkpt lat="45.95675" lon="4.94014">
        <ele>295</ele>
        <time>2016-09-14T10:08:07Z</time>
      </trkpt>
      <trkpt lat="45.95675" lon="4.94008">
        <ele>295</ele>
        <time>2016-09-14T10:08:08Z</time>
      </trkpt>
      <trkpt lat="45.95674" lon="4.93996">
        <ele>296</ele>
        <time>2016-09-14T10:08:10Z</time>
      </trkpt>
      <trkpt lat="45.95672" lon="4.93991">
        <ele>295</ele>
        <time>2016-09-14T10:08:11Z</time>
      </trkpt>
      <trkpt lat="45.95665" lon="4.93986">
        <ele>295</ele>
        <time>2016-09-14T10:08:13Z</time>
      </trkpt>
      <trkpt lat="45.95661" lon="4.93985">
        <ele>295</ele>
        <time>2016-09-14T10:08:14Z</time>
      </trkpt>
      <trkpt lat="45.95655" lon="4.93977">
        <ele>294</ele>
        <time>2016-09-14T10:08:16Z</time>
      </trkpt>
      <trkpt lat="45.95652" lon="4.93972">
        <ele>294</ele>
        <time>2016-09-14T10:08:17Z</time>
      </trkpt>
      <trkpt lat="45.95651" lon="4.93964">
        <ele>294</ele>
        <time>2016-09-14T10:08:18Z</time>
      </trkpt>
      <trkpt lat="45.95651" lon="4.93956">
        <ele>294</ele>
        <time>2016-09-14T10:08:19Z</time>
      </trkpt>
      <trkpt lat="45.95651" lon="4.93947">
        <ele>294</ele>
        <time>2016-09-14T10:08:20Z</time>
      </trkpt>
      <trkpt lat="45.95653" lon="4.93937">
        <ele>294</ele>
        <time>2016-09-14T10:08:21Z</time>
      </trkpt>
      <trkpt lat="45.95654" lon="4.93927">
        <ele>294</ele>
        <time>2016-09-14T10:08:22Z</time>
      </trkpt>
      <trkpt lat="45.95655" lon="4.93915">
        <ele>293</ele>
        <time>2016-09-14T10:08:23Z</time>
      </trkpt>
      <trkpt lat="45.95656" lon="4.93903">
        <ele>292</ele>
        <time>2016-09-14T10:08:24Z</time>
      </trkpt>
      <trkpt lat="45.95657" lon="4.93892">
        <ele>292</ele>
        <time>2016-09-14T10:08:25Z</time>
      </trkpt>
      <trkpt lat="45.95658" lon="4.93883">
        <ele>291</ele>
        <time>2016-09-14T10:08:26Z</time>
      </trkpt>
      <trkpt lat="45.95657" lon="4.93874">
        <ele>291</ele>
        <time>2016-09-14T10:08:27Z</time>
      </trkpt>
      <trkpt lat="45.95657" lon="4.93866">
        <ele>290</ele>
        <time>2016-09-14T10:08:28Z</time>
      </trkpt>
      <trkpt lat="45.95655" lon="4.9386">
        <ele>290</ele>
        <time>2016-09-14T10:08:29Z</time>
      </trkpt>
      <trkpt lat="45.95648" lon="4.93855">
        <ele>290</ele>
        <time>2016-09-14T10:08:31Z</time>
      </trkpt>
      <trkpt lat="45.95643" lon="4.93853">
        <ele>290</ele>
        <time>2016-09-14T10:08:32Z</time>
      </trkpt>
      <trkpt lat="45.95639" lon="4.93851">
        <ele>290</ele>
        <time>2016-09-14T10:08:33Z</time>
      </trkpt>
      <trkpt lat="45.95635" lon="4.93847">
        <ele>290</ele>
        <time>2016-09-14T10:08:34Z</time>
      </trkpt>
      <trkpt lat="45.9563" lon="4.93844">
        <ele>290</ele>
        <time>2016-09-14T10:08:35Z</time>
      </trkpt>
      <trkpt lat="45.95626" lon="4.9384">
        <ele>290</ele>
        <time>2016-09-14T10:08:36Z</time>
      </trkpt>
      <trkpt lat="45.95622" lon="4.93836">
        <ele>290</ele>
        <time>2016-09-14T10:08:37Z</time>
      </trkpt>
      <trkpt lat="45.95617" lon="4.93833">
        <ele>289</ele>
        <time>2016-09-14T10:08:38Z</time>
      </trkpt>
      <trkpt lat="45.95612" lon="4.93829">
        <ele>289</ele>
        <time>2016-09-14T10:08:39Z</time>
      </trkpt>
      <trkpt lat="45.95607" lon="4.93825">
        <ele>289</ele>
        <time>2016-09-14T10:08:40Z</time>
      </trkpt>
      <trkpt lat="45.95603" lon="4.9382">
        <ele>289</ele>
        <time>2016-09-14T10:08:41Z</time>
      </trkpt>
      <trkpt lat="45.95598" lon="4.93816">
        <ele>289</ele>
        <time>2016-09-14T10:08:42Z</time>
      </trkpt>
      <trkpt lat="45.95593" lon="4.93811">
        <ele>289</ele>
        <time>2016-09-14T10:08:43Z</time>
      </trkpt>
      <trkpt lat="45.95589" lon="4.93807">
        <ele>289</ele>
        <time>2016-09-14T10:08:44Z</time>
      </trkpt>
      <trkpt lat="45.95584" lon="4.93804">
        <ele>289</ele>
        <time>2016-09-14T10:08:45Z</time>
      </trkpt>
      <trkpt lat="45.9558" lon="4.93799">
        <ele>290</ele>
        <time>2016-09-14T10:08:46Z</time>
      </trkpt>
      <trkpt lat="45.95577" lon="4.93794">
        <ele>290</ele>
        <time>2016-09-14T10:08:47Z</time>
      </trkpt>
      <trkpt lat="45.95574" lon="4.93787">
        <ele>290</ele>
        <time>2016-09-14T10:08:48Z</time>
      </trkpt>
      <trkpt lat="45.95573" lon="4.9378">
        <ele>290</ele>
        <time>2016-09-14T10:08:49Z</time>
      </trkpt>
      <trkpt lat="45.95571" lon="4.93773">
        <ele>290</ele>
        <time>2016-09-14T10:08:50Z</time>
      </trkpt>
      <trkpt lat="45.9557" lon="4.93767">
        <ele>290</ele>
        <time>2016-09-14T10:08:51Z</time>
      </trkpt>
      <trkpt lat="45.9557" lon="4.9376">
        <ele>290</ele>
        <time>2016-09-14T10:08:52Z</time>
      </trkpt>
      <trkpt lat="45.95569" lon="4.93753">
        <ele>290</ele>
        <time>2016-09-14T10:08:53Z</time>
      </trkpt>
      <trkpt lat="45.95568" lon="4.93745">
        <ele>290</ele>
        <time>2016-09-14T10:08:54Z</time>
      </trkpt>
      <trkpt lat="45.95568" lon="4.93737">
        <ele>290</ele>
        <time>2016-09-14T10:08:55Z</time>
      </trkpt>
      <trkpt lat="45.95568" lon="4.93728">
        <ele>290</ele>
        <time>2016-09-14T10:08:56Z</time>
      </trkpt>
      <trkpt lat="45.95567" lon="4.9372">
        <ele>290</ele>
        <time>2016-09-14T10:08:57Z</time>
      </trkpt>
      <trkpt lat="45.95567" lon="4.93711">
        <ele>290</ele>
        <time>2016-09-14T10:08:58Z</time>
      </trkpt>
      <trkpt lat="45.95568" lon="4.93703">
        <ele>290</ele>
        <time>2016-09-14T10:08:59Z</time>
      </trkpt>
      <trkpt lat="45.95568" lon="4.93695">
        <ele>290</ele>
        <time>2016-09-14T10:09:00Z</time>
      </trkpt>
      <trkpt lat="45.95568" lon="4.93687">
        <ele>289</ele>
        <time>2016-09-14T10:09:01Z</time>
      </trkpt>
      <trkpt lat="45.95569" lon="4.93679">
        <ele>289</ele>
        <time>2016-09-14T10:09:02Z</time>
      </trkpt>
      <trkpt lat="45.95569" lon="4.93672">
        <ele>289</ele>
        <time>2016-09-14T10:09:03Z</time>
      </trkpt>
      <trkpt lat="45.95569" lon="4.93665">
        <ele>289</ele>
        <time>2016-09-14T10:09:04Z</time>
      </trkpt>
      <trkpt lat="45.9557" lon="4.93659">
        <ele>289</ele>
        <time>2016-09-14T10:09:05Z</time>
      </trkpt>
      <trkpt lat="45.95569" lon="4.93652">
        <ele>289</ele>
        <time>2016-09-14T10:09:06Z</time>
      </trkpt>
      <trkpt lat="45.95569" lon="4.93645">
        <ele>289</ele>
        <time>2016-09-14T10:09:07Z</time>
      </trkpt>
      <trkpt lat="45.9557" lon="4.93638">
        <ele>289</ele>
        <time>2016-09-14T10:09:08Z</time>
      </trkpt>
      <trkpt lat="45.95571" lon="4.93631">
        <ele>289</ele>
        <time>2016-09-14T10:09:09Z</time>
      </trkpt>
      <trkpt lat="45.95572" lon="4.93624">
        <ele>289</ele>
        <time>2016-09-14T10:09:10Z</time>
      </trkpt>
      <trkpt lat="45.95572" lon="4.93616">
        <ele>289</ele>
        <time>2016-09-14T10:09:11Z</time>
      </trkpt>
      <trkpt lat="45.95573" lon="4.93609">
        <ele>289</ele>
        <time>2016-09-14T10:09:12Z</time>
      </trkpt>
      <trkpt lat="45.95574" lon="4.93601">
        <ele>289</ele>
        <time>2016-09-14T10:09:13Z</time>
      </trkpt>
      <trkpt lat="45.95574" lon="4.93594">
        <ele>289</ele>
        <time>2016-09-14T10:09:14Z</time>
      </trkpt>
      <trkpt lat="45.95575" lon="4.93586">
        <ele>289</ele>
        <time>2016-09-14T10:09:15Z</time>
      </trkpt>
      <trkpt lat="45.95576" lon="4.93578">
        <ele>289</ele>
        <time>2016-09-14T10:09:16Z</time>
      </trkpt>
      <trkpt lat="45.95576" lon="4.93571">
        <ele>289</ele>
        <time>2016-09-14T10:09:17Z</time>
      </trkpt>
      <trkpt lat="45.95577" lon="4.93562">
        <ele>289</ele>
        <time>2016-09-14T10:09:18Z</time>
      </trkpt>
      <trkpt lat="45.95577" lon="4.93555">
        <ele>289</ele>
        <time>2016-09-14T10:09:19Z</time>
      </trkpt>
      <trkpt lat="45.95577" lon="4.93546">
        <ele>289</ele>
        <time>2016-09-14T10:09:20Z</time>
      </trkpt>
      <trkpt lat="45.95576" lon="4.93537">
        <ele>290</ele>
        <time>2016-09-14T10:09:21Z</time>
      </trkpt>
      <trkpt lat="45.95576" lon="4.93529">
        <ele>290</ele>
        <time>2016-09-14T10:09:22Z</time>
      </trkpt>
      <trkpt lat="45.95575" lon="4.93521">
        <ele>290</ele>
        <time>2016-09-14T10:09:23Z</time>
      </trkpt>
      <trkpt lat="45.95574" lon="4.93512">
        <ele>290</ele>
        <time>2016-09-14T10:09:24Z</time>
      </trkpt>
      <trkpt lat="45.95572" lon="4.93505">
        <ele>290</ele>
        <time>2016-09-14T10:09:25Z</time>
      </trkpt>
      <trkpt lat="45.9557" lon="4.93497">
        <ele>290</ele>
        <time>2016-09-14T10:09:26Z</time>
      </trkpt>
      <trkpt lat="45.95567" lon="4.9349">
        <ele>290</ele>
        <time>2016-09-14T10:09:27Z</time>
      </trkpt>
      <trkpt lat="45.95564" lon="4.93484">
        <ele>289</ele>
        <time>2016-09-14T10:09:28Z</time>
      </trkpt>
      <trkpt lat="45.95561" lon="4.93478">
        <ele>289</ele>
        <time>2016-09-14T10:09:29Z</time>
      </trkpt>
      <trkpt lat="45.95558" lon="4.93472">
        <ele>289</ele>
        <time>2016-09-14T10:09:30Z</time>
      </trkpt>
      <trkpt lat="45.95556" lon="4.93467">
        <ele>289</ele>
        <time>2016-09-14T10:09:31Z</time>
      </trkpt>
      <trkpt lat="45.95554" lon="4.93461">
        <ele>289</ele>
        <time>2016-09-14T10:09:32Z</time>
      </trkpt>
      <trkpt lat="45.95549" lon="4.9345">
        <ele>289</ele>
        <time>2016-09-14T10:09:34Z</time>
      </trkpt>
      <trkpt lat="45.95546" lon="4.93444">
        <ele>289</ele>
        <time>2016-09-14T10:09:35Z</time>
      </trkpt>
      <trkpt lat="45.95544" lon="4.93438">
        <ele>289</ele>
        <time>2016-09-14T10:09:36Z</time>
      </trkpt>
      <trkpt lat="45.95542" lon="4.93432">
        <ele>289</ele>
        <time>2016-09-14T10:09:37Z</time>
      </trkpt>
      <trkpt lat="45.95539" lon="4.93427">
        <ele>289</ele>
        <time>2016-09-14T10:09:38Z</time>
      </trkpt>
      <trkpt lat="45.95537" lon="4.93421">
        <ele>289</ele>
        <time>2016-09-14T10:09:39Z</time>
      </trkpt>
      <trkpt lat="45.95534" lon="4.93415">
        <ele>289</ele>
        <time>2016-09-14T10:09:40Z</time>
      </trkpt>
      <trkpt lat="45.95531" lon="4.93409">
        <ele>289</ele>
        <time>2016-09-14T10:09:41Z</time>
      </trkpt>
      <trkpt lat="45.9553" lon="4.93402">
        <ele>289</ele>
        <time>2016-09-14T10:09:42Z</time>
      </trkpt>
      <trkpt lat="45.95527" lon="4.93395">
        <ele>289</ele>
        <time>2016-09-14T10:09:43Z</time>
      </trkpt>
      <trkpt lat="45.95525" lon="4.93389">
        <ele>289</ele>
        <time>2016-09-14T10:09:44Z</time>
      </trkpt>
      <trkpt lat="45.95523" lon="4.93383">
        <ele>289</ele>
        <time>2016-09-14T10:09:45Z</time>
      </trkpt>
      <trkpt lat="45.9552" lon="4.93378">
        <ele>289</ele>
        <time>2016-09-14T10:09:46Z</time>
      </trkpt>
      <trkpt lat="45.95517" lon="4.93372">
        <ele>289</ele>
        <time>2016-09-14T10:09:47Z</time>
      </trkpt>
      <trkpt lat="45.95515" lon="4.93366">
        <ele>289</ele>
        <time>2016-09-14T10:09:48Z</time>
      </trkpt>
      <trkpt lat="45.95511" lon="4.93359">
        <ele>289</ele>
        <time>2016-09-14T10:09:49Z</time>
      </trkpt>
      <trkpt lat="45.95508" lon="4.9335">
        <ele>289</ele>
        <time>2016-09-14T10:09:50Z</time>
      </trkpt>
      <trkpt lat="45.95506" lon="4.93343">
        <ele>289</ele>
        <time>2016-09-14T10:09:51Z</time>
      </trkpt>
      <trkpt lat="45.95503" lon="4.93336">
        <ele>289</ele>
        <time>2016-09-14T10:09:52Z</time>
      </trkpt>
      <trkpt lat="45.95501" lon="4.93328">
        <ele>289</ele>
        <time>2016-09-14T10:09:53Z</time>
      </trkpt>
      <trkpt lat="45.95497" lon="4.93321">
        <ele>289</ele>
        <time>2016-09-14T10:09:54Z</time>
      </trkpt>
      <trkpt lat="45.95494" lon="4.93314">
        <ele>290</ele>
        <time>2016-09-14T10:09:55Z</time>
      </trkpt>
      <trkpt lat="45.95491" lon="4.93308">
        <ele>290</ele>
        <time>2016-09-14T10:09:56Z</time>
      </trkpt>
      <trkpt lat="45.95489" lon="4.93302">
        <ele>290</ele>
        <time>2016-09-14T10:09:57Z</time>
      </trkpt>
      <trkpt lat="45.95487" lon="4.93296">
        <ele>290</ele>
        <time>2016-09-14T10:09:58Z</time>
      </trkpt>
      <trkpt lat="45.95484" lon="4.9329">
        <ele>290</ele>
        <time>2016-09-14T10:09:59Z</time>
      </trkpt>
      <trkpt lat="45.95482" lon="4.93284">
        <ele>290</ele>
        <time>2016-09-14T10:10:00Z</time>
      </trkpt>
      <trkpt lat="45.95479" lon="4.93279">
        <ele>290</ele>
        <time>2016-09-14T10:10:01Z</time>
      </trkpt>
      <trkpt lat="45.95477" lon="4.93273">
        <ele>290</ele>
        <time>2016-09-14T10:10:02Z</time>
      </trkpt>
      <trkpt lat="45.95474" lon="4.93267">
        <ele>290</ele>
        <time>2016-09-14T10:10:03Z</time>
      </trkpt>
      <trkpt lat="45.95472" lon="4.93261">
        <ele>290</ele>
        <time>2016-09-14T10:10:04Z</time>
      </trkpt>
      <trkpt lat="45.95469" lon="4.93255">
        <ele>290</ele>
        <time>2016-09-14T10:10:05Z</time>
      </trkpt>
      <trkpt lat="45.95467" lon="4.9325">
        <ele>290</ele>
        <time>2016-09-14T10:10:06Z</time>
      </trkpt>
      <trkpt lat="45.95464" lon="4.93244">
        <ele>290</ele>
        <time>2016-09-14T10:10:07Z</time>
      </trkpt>
      <trkpt lat="45.95462" lon="4.93239">
        <ele>290</ele>
        <time>2016-09-14T10:10:08Z</time>
      </trkpt>
      <trkpt lat="45.95459" lon="4.93234">
        <ele>290</ele>
        <time>2016-09-14T10:10:09Z</time>
      </trkpt>
      <trkpt lat="45.95457" lon="4.93228">
        <ele>291</ele>
        <time>2016-09-14T10:10:10Z</time>
      </trkpt>
      <trkpt lat="45.95454" lon="4.93221">
        <ele>291</ele>
        <time>2016-09-14T10:10:11Z</time>
      </trkpt>
      <trkpt lat="45.95453" lon="4.93214">
        <ele>291</ele>
        <time>2016-09-14T10:10:12Z</time>
      </trkpt>
      <trkpt lat="45.95452" lon="4.93207">
        <ele>291</ele>
        <time>2016-09-14T10:10:13Z</time>
      </trkpt>
      <trkpt lat="45.95452" lon="4.93199">
        <ele>291</ele>
        <time>2016-09-14T10:10:14Z</time>
      </trkpt>
      <trkpt lat="45.95452" lon="4.93192">
        <ele>291</ele>
        <time>2016-09-14T10:10:15Z</time>
      </trkpt>
      <trkpt lat="45.95454" lon="4.93184">
        <ele>291</ele>
        <time>2016-09-14T10:10:16Z</time>
      </trkpt>
      <trkpt lat="45.95456" lon="4.93178">
        <ele>291</ele>
        <time>2016-09-14T10:10:17Z</time>
      </trkpt>
      <trkpt lat="45.95459" lon="4.93174">
        <ele>290</ele>
        <time>2016-09-14T10:10:18Z</time>
      </trkpt>
      <trkpt lat="45.95464" lon="4.93171">
        <ele>290</ele>
        <time>2016-09-14T10:10:19Z</time>
      </trkpt>
      <trkpt lat="45.95468" lon="4.93167">
        <ele>290</ele>
        <time>2016-09-14T10:10:20Z</time>
      </trkpt>
      <trkpt lat="45.95473" lon="4.93164">
        <ele>290</ele>
        <time>2016-09-14T10:10:21Z</time>
      </trkpt>
      <trkpt lat="45.95477" lon="4.93161">
        <ele>290</ele>
        <time>2016-09-14T10:10:22Z</time>
      </trkpt>
      <trkpt lat="45.95481" lon="4.93158">
        <ele>290</ele>
        <time>2016-09-14T10:10:23Z</time>
      </trkpt>
      <trkpt lat="45.95489" lon="4.93153">
        <ele>290</ele>
        <time>2016-09-14T10:10:25Z</time>
      </trkpt>
      <trkpt lat="45.95492" lon="4.93151">
        <ele>290</ele>
        <time>2016-09-14T10:10:26Z</time>
      </trkpt>
      <trkpt lat="45.955" lon="4.93146">
        <ele>290</ele>
        <time>2016-09-14T10:10:28Z</time>
      </trkpt>
      <trkpt lat="45.95504" lon="4.93143">
        <ele>289</ele>
        <time>2016-09-14T10:10:29Z</time>
      </trkpt>
      <trkpt lat="45.95511" lon="4.93138">
        <ele>289</ele>
        <time>2016-09-14T10:10:31Z</time>
      </trkpt>
      <trkpt lat="45.95516" lon="4.93135">
        <ele>289</ele>
        <time>2016-09-14T10:10:32Z</time>
      </trkpt>
      <trkpt lat="45.9552" lon="4.9313">
        <ele>289</ele>
        <time>2016-09-14T10:10:33Z</time>
      </trkpt>
      <trkpt lat="45.95524" lon="4.93125">
        <ele>289</ele>
        <time>2016-09-14T10:10:34Z</time>
      </trkpt>
      <trkpt lat="45.95528" lon="4.93119">
        <ele>289</ele>
        <time>2016-09-14T10:10:35Z</time>
      </trkpt>
      <trkpt lat="45.95532" lon="4.93113">
        <ele>289</ele>
        <time>2016-09-14T10:10:36Z</time>
      </trkpt>
      <trkpt lat="45.95536" lon="4.93107">
        <ele>289</ele>
        <time>2016-09-14T10:10:37Z</time>
      </trkpt>
      <trkpt lat="45.95539" lon="4.93101">
        <ele>289</ele>
        <time>2016-09-14T10:10:38Z</time>
      </trkpt>
      <trkpt lat="45.95541" lon="4.93095">
        <ele>289</ele>
        <time>2016-09-14T10:10:39Z</time>
      </trkpt>
      <trkpt lat="45.95544" lon="4.93088">
        <ele>290</ele>
        <time>2016-09-14T10:10:40Z</time>
      </trkpt>
      <trkpt lat="45.95546" lon="4.93081">
        <ele>290</ele>
        <time>2016-09-14T10:10:41Z</time>
      </trkpt>
      <trkpt lat="45.95547" lon="4.93073">
        <ele>290</ele>
        <time>2016-09-14T10:10:42Z</time>
      </trkpt>
      <trkpt lat="45.95548" lon="4.93066">
        <ele>290</ele>
        <time>2016-09-14T10:10:43Z</time>
      </trkpt>
      <trkpt lat="45.95549" lon="4.93059">
        <ele>290</ele>
        <time>2016-09-14T10:10:44Z</time>
      </trkpt>
      <trkpt lat="45.9555" lon="4.93051">
        <ele>290</ele>
        <time>2016-09-14T10:10:45Z</time>
      </trkpt>
      <trkpt lat="45.9555" lon="4.93044">
        <ele>291</ele>
        <time>2016-09-14T10:10:46Z</time>
      </trkpt>
      <trkpt lat="45.95551" lon="4.93036">
        <ele>291</ele>
        <time>2016-09-14T10:10:47Z</time>
      </trkpt>
      <trkpt lat="45.95552" lon="4.93028">
        <ele>291</ele>
        <time>2016-09-14T10:10:48Z</time>
      </trkpt>
      <trkpt lat="45.95553" lon="4.9302">
        <ele>291</ele>
        <time>2016-09-14T10:10:49Z</time>
      </trkpt>
      <trkpt lat="45.95553" lon="4.93013">
        <ele>291</ele>
        <time>2016-09-14T10:10:50Z</time>
      </trkpt>
      <trkpt lat="45.95554" lon="4.93005">
        <ele>291</ele>
        <time>2016-09-14T10:10:51Z</time>
      </trkpt>
      <trkpt lat="45.95555" lon="4.92997">
        <ele>292</ele>
        <time>2016-09-14T10:10:52Z</time>
      </trkpt>
      <trkpt lat="45.95556" lon="4.92989">
        <ele>292</ele>
        <time>2016-09-14T10:10:53Z</time>
      </trkpt>
      <trkpt lat="45.95557" lon="4.92981">
        <ele>292</ele>
        <time>2016-09-14T10:10:54Z</time>
      </trkpt>
      <trkpt lat="45.95558" lon="4.92974">
        <ele>292</ele>
        <time>2016-09-14T10:10:55Z</time>
      </trkpt>
      <trkpt lat="45.95559" lon="4.92966">
        <ele>292</ele>
        <time>2016-09-14T10:10:56Z</time>
      </trkpt>
      <trkpt lat="45.95561" lon="4.92958">
        <ele>292</ele>
        <time>2016-09-14T10:10:57Z</time>
      </trkpt>
      <trkpt lat="45.95562" lon="4.92951">
        <ele>292</ele>
        <time>2016-09-14T10:10:58Z</time>
      </trkpt>
      <trkpt lat="45.95563" lon="4.92943">
        <ele>292</ele>
        <time>2016-09-14T10:10:59Z</time>
      </trkpt>
      <trkpt lat="45.95565" lon="4.92936">
        <ele>292</ele>
        <time>2016-09-14T10:11:00Z</time>
      </trkpt>
      <trkpt lat="45.95566" lon="4.92929">
        <ele>293</ele>
        <time>2016-09-14T10:11:01Z</time>
      </trkpt>
      <trkpt lat="45.95567" lon="4.92921">
        <ele>293</ele>
        <time>2016-09-14T10:11:02Z</time>
      </trkpt>
      <trkpt lat="45.95568" lon="4.92914">
        <ele>294</ele>
        <time>2016-09-14T10:11:03Z</time>
      </trkpt>
      <trkpt lat="45.95569" lon="4.92907">
        <ele>294</ele>
        <time>2016-09-14T10:11:04Z</time>
      </trkpt>
      <trkpt lat="45.9557" lon="4.929">
        <ele>294</ele>
        <time>2016-09-14T10:11:05Z</time>
      </trkpt>
      <trkpt lat="45.95571" lon="4.92894">
        <ele>294</ele>
        <time>2016-09-14T10:11:06Z</time>
      </trkpt>
      <trkpt lat="45.95573" lon="4.92881">
        <ele>294</ele>
        <time>2016-09-14T10:11:08Z</time>
      </trkpt>
      <trkpt lat="45.95574" lon="4.92875">
        <ele>294</ele>
        <time>2016-09-14T10:11:09Z</time>
      </trkpt>
      <trkpt lat="45.95575" lon="4.92868">
        <ele>294</ele>
        <time>2016-09-14T10:11:10Z</time>
      </trkpt>
      <trkpt lat="45.95577" lon="4.92861">
        <ele>294</ele>
        <time>2016-09-14T10:11:11Z</time>
      </trkpt>
      <trkpt lat="45.95578" lon="4.92853">
        <ele>294</ele>
        <time>2016-09-14T10:11:12Z</time>
      </trkpt>
      <trkpt lat="45.9558" lon="4.92846">
        <ele>294</ele>
        <time>2016-09-14T10:11:13Z</time>
      </trkpt>
      <trkpt lat="45.95581" lon="4.92838">
        <ele>295</ele>
        <time>2016-09-14T10:11:14Z</time>
      </trkpt>
      <trkpt lat="45.95582" lon="4.92829">
        <ele>295</ele>
        <time>2016-09-14T10:11:15Z</time>
      </trkpt>
      <trkpt lat="45.95583" lon="4.92821">
        <ele>295</ele>
        <time>2016-09-14T10:11:16Z</time>
      </trkpt>
      <trkpt lat="45.95584" lon="4.92813">
        <ele>295</ele>
        <time>2016-09-14T10:11:17Z</time>
      </trkpt>
      <trkpt lat="45.95585" lon="4.92806">
        <ele>295</ele>
        <time>2016-09-14T10:11:18Z</time>
      </trkpt>
      <trkpt lat="45.95586" lon="4.92798">
        <ele>295</ele>
        <time>2016-09-14T10:11:19Z</time>
      </trkpt>
      <trkpt lat="45.95587" lon="4.92792">
        <ele>295</ele>
        <time>2016-09-14T10:11:20Z</time>
      </trkpt>
      <trkpt lat="45.95588" lon="4.92785">
        <ele>295</ele>
        <time>2016-09-14T10:11:21Z</time>
      </trkpt>
      <trkpt lat="45.9559" lon="4.92779">
        <ele>295</ele>
        <time>2016-09-14T10:11:22Z</time>
      </trkpt>
      <trkpt lat="45.95591" lon="4.92772">
        <ele>295</ele>
        <time>2016-09-14T10:11:23Z</time>
      </trkpt>
      <trkpt lat="45.95593" lon="4.92765">
        <ele>295</ele>
        <time>2016-09-14T10:11:24Z</time>
      </trkpt>
      <trkpt lat="45.95594" lon="4.92757">
        <ele>295</ele>
        <time>2016-09-14T10:11:25Z</time>
      </trkpt>
      <trkpt lat="45.95595" lon="4.92749">
        <ele>295</ele>
        <time>2016-09-14T10:11:26Z</time>
      </trkpt>
      <trkpt lat="45.95596" lon="4.92741">
        <ele>295</ele>
        <time>2016-09-14T10:11:27Z</time>
      </trkpt>
      <trkpt lat="45.95597" lon="4.92732">
        <ele>295</ele>
        <time>2016-09-14T10:11:28Z</time>
      </trkpt>
      <trkpt lat="45.95599" lon="4.92723">
        <ele>295</ele>
        <time>2016-09-14T10:11:29Z</time>
      </trkpt>
      <trkpt lat="45.956" lon="4.92714">
        <ele>295</ele>
        <time>2016-09-14T10:11:30Z</time>
      </trkpt>
      <trkpt lat="45.95602" lon="4.92706">
        <ele>295</ele>
        <time>2016-09-14T10:11:31Z</time>
      </trkpt>
      <trkpt lat="45.95604" lon="4.92698">
        <ele>295</ele>
        <time>2016-09-14T10:11:32Z</time>
      </trkpt>
      <trkpt lat="45.95605" lon="4.92689">
        <ele>295</ele>
        <time>2016-09-14T10:11:33Z</time>
      </trkpt>
      <trkpt lat="45.95607" lon="4.92681">
        <ele>295</ele>
        <time>2016-09-14T10:11:34Z</time>
      </trkpt>
      <trkpt lat="45.95609" lon="4.92673">
        <ele>295</ele>
        <time>2016-09-14T10:11:35Z</time>
      </trkpt>
      <trkpt lat="45.9561" lon="4.92665">
        <ele>294</ele>
        <time>2016-09-14T10:11:36Z</time>
      </trkpt>
      <trkpt lat="45.95612" lon="4.92657">
        <ele>294</ele>
        <time>2016-09-14T10:11:37Z</time>
      </trkpt>
      <trkpt lat="45.95614" lon="4.92649">
        <ele>294</ele>
        <time>2016-09-14T10:11:38Z</time>
      </trkpt>
      <trkpt lat="45.95615" lon="4.92641">
        <ele>294</ele>
        <time>2016-09-14T10:11:39Z</time>
      </trkpt>
      <trkpt lat="45.95616" lon="4.92633">
        <ele>294</ele>
        <time>2016-09-14T10:11:40Z</time>
      </trkpt>
      <trkpt lat="45.95617" lon="4.92626">
        <ele>294</ele>
        <time>2016-09-14T10:11:41Z</time>
      </trkpt>
      <trkpt lat="45.95617" lon="4.92618">
        <ele>294</ele>
        <time>2016-09-14T10:11:42Z</time>
      </trkpt>
      <trkpt lat="45.95618" lon="4.9261">
        <ele>294</ele>
        <time>2016-09-14T10:11:43Z</time>
      </trkpt>
      <trkpt lat="45.95619" lon="4.92603">
        <ele>294</ele>
        <time>2016-09-14T10:11:44Z</time>
      </trkpt>
      <trkpt lat="45.9562" lon="4.92596">
        <ele>294</ele>
        <time>2016-09-14T10:11:45Z</time>
      </trkpt>
      <trkpt lat="45.95622" lon="4.92587">
        <ele>294</ele>
        <time>2016-09-14T10:11:46Z</time>
      </trkpt>
      <trkpt lat="45.95623" lon="4.92578">
        <ele>294</ele>
        <time>2016-09-14T10:11:47Z</time>
      </trkpt>
      <trkpt lat="45.95624" lon="4.92568">
        <ele>294</ele>
        <time>2016-09-14T10:11:48Z</time>
      </trkpt>
      <trkpt lat="45.95626" lon="4.92559">
        <ele>294</ele>
        <time>2016-09-14T10:11:49Z</time>
      </trkpt>
      <trkpt lat="45.95627" lon="4.9255">
        <ele>294</ele>
        <time>2016-09-14T10:11:50Z</time>
      </trkpt>
      <trkpt lat="45.95629" lon="4.92542">
        <ele>294</ele>
        <time>2016-09-14T10:11:51Z</time>
      </trkpt>
      <trkpt lat="45.9563" lon="4.92534">
        <ele>294</ele>
        <time>2016-09-14T10:11:52Z</time>
      </trkpt>
      <trkpt lat="45.95632" lon="4.92526">
        <ele>294</ele>
        <time>2016-09-14T10:11:53Z</time>
      </trkpt>
      <trkpt lat="45.95634" lon="4.92518">
        <ele>294</ele>
        <time>2016-09-14T10:11:54Z</time>
      </trkpt>
      <trkpt lat="45.95635" lon="4.9251">
        <ele>294</ele>
        <time>2016-09-14T10:11:55Z</time>
      </trkpt>
      <trkpt lat="45.95636" lon="4.92502">
        <ele>294</ele>
        <time>2016-09-14T10:11:56Z</time>
      </trkpt>
      <trkpt lat="45.95637" lon="4.92493">
        <ele>293</ele>
        <time>2016-09-14T10:11:57Z</time>
      </trkpt>
      <trkpt lat="45.95638" lon="4.92484">
        <ele>293</ele>
        <time>2016-09-14T10:11:58Z</time>
      </trkpt>
      <trkpt lat="45.95639" lon="4.92475">
        <ele>293</ele>
        <time>2016-09-14T10:11:59Z</time>
      </trkpt>
      <trkpt lat="45.95641" lon="4.92466">
        <ele>293</ele>
        <time>2016-09-14T10:12:00Z</time>
      </trkpt>
      <trkpt lat="45.95642" lon="4.92457">
        <ele>293</ele>
        <time>2016-09-14T10:12:01Z</time>
      </trkpt>
      <trkpt lat="45.95643" lon="4.92448">
        <ele>293</ele>
        <time>2016-09-14T10:12:02Z</time>
      </trkpt>
      <trkpt lat="45.95644" lon="4.92439">
        <ele>293</ele>
        <time>2016-09-14T10:12:03Z</time>
      </trkpt>
      <trkpt lat="45.95645" lon="4.92431">
        <ele>293</ele>
        <time>2016-09-14T10:12:04Z</time>
      </trkpt>
      <trkpt lat="45.95647" lon="4.92423">
        <ele>293</ele>
        <time>2016-09-14T10:12:05Z</time>
      </trkpt>
      <trkpt lat="45.95649" lon="4.92416">
        <ele>293</ele>
        <time>2016-09-14T10:12:06Z</time>
      </trkpt>
      <trkpt lat="45.9565" lon="4.92408">
        <ele>293</ele>
        <time>2016-09-14T10:12:07Z</time>
      </trkpt>
      <trkpt lat="45.95651" lon="4.924">
        <ele>293</ele>
        <time>2016-09-14T10:12:08Z</time>
      </trkpt>
      <trkpt lat="45.95652" lon="4.92392">
        <ele>293</ele>
        <time>2016-09-14T10:12:09Z</time>
      </trkpt>
      <trkpt lat="45.95653" lon="4.92384">
        <ele>293</ele>
        <time>2016-09-14T10:12:10Z</time>
      </trkpt>
      <trkpt lat="45.95653" lon="4.92375">
        <ele>293</ele>
        <time>2016-09-14T10:12:11Z</time>
      </trkpt>
      <trkpt lat="45.95655" lon="4.92366">
        <ele>293</ele>
        <time>2016-09-14T10:12:12Z</time>
      </trkpt>
      <trkpt lat="45.95656" lon="4.92357">
        <ele>293</ele>
        <time>2016-09-14T10:12:13Z</time>
      </trkpt>
      <trkpt lat="45.95657" lon="4.92348">
        <ele>293</ele>
        <time>2016-09-14T10:12:14Z</time>
      </trkpt>
      <trkpt lat="45.95657" lon="4.92339">
        <ele>293</ele>
        <time>2016-09-14T10:12:15Z</time>
      </trkpt>
      <trkpt lat="45.95657" lon="4.9233">
        <ele>293</ele>
        <time>2016-09-14T10:12:16Z</time>
      </trkpt>
      <trkpt lat="45.95657" lon="4.92322">
        <ele>293</ele>
        <time>2016-09-14T10:12:17Z</time>
      </trkpt>
      <trkpt lat="45.95658" lon="4.92314">
        <ele>293</ele>
        <time>2016-09-14T10:12:18Z</time>
      </trkpt>
      <trkpt lat="45.95659" lon="4.92306">
        <ele>293</ele>
        <time>2016-09-14T10:12:19Z</time>
      </trkpt>
      <trkpt lat="45.95659" lon="4.92299">
        <ele>293</ele>
        <time>2016-09-14T10:12:20Z</time>
      </trkpt>
      <trkpt lat="45.9566" lon="4.92292">
        <ele>293</ele>
        <time>2016-09-14T10:12:21Z</time>
      </trkpt>
      <trkpt lat="45.9566" lon="4.92285">
        <ele>293</ele>
        <time>2016-09-14T10:12:22Z</time>
      </trkpt>
      <trkpt lat="45.9566" lon="4.92277">
        <ele>293</ele>
        <time>2016-09-14T10:12:23Z</time>
      </trkpt>
      <trkpt lat="45.95661" lon="4.9227">
        <ele>294</ele>
        <time>2016-09-14T10:12:24Z</time>
      </trkpt>
      <trkpt lat="45.9566" lon="4.92263">
        <ele>294</ele>
        <time>2016-09-14T10:12:25Z</time>
      </trkpt>
      <trkpt lat="45.9566" lon="4.92256">
        <ele>294</ele>
        <time>2016-09-14T10:12:26Z</time>
      </trkpt>
      <trkpt lat="45.9566" lon="4.92248">
        <ele>294</ele>
        <time>2016-09-14T10:12:27Z</time>
      </trkpt>
      <trkpt lat="45.95661" lon="4.92239">
        <ele>294</ele>
        <time>2016-09-14T10:12:28Z</time>
      </trkpt>
      <trkpt lat="45.95661" lon="4.92231">
        <ele>294</ele>
        <time>2016-09-14T10:12:29Z</time>
      </trkpt>
      <trkpt lat="45.95662" lon="4.92222">
        <ele>294</ele>
        <time>2016-09-14T10:12:30Z</time>
      </trkpt>
      <trkpt lat="45.95662" lon="4.92213">
        <ele>294</ele>
        <time>2016-09-14T10:12:31Z</time>
      </trkpt>
      <trkpt lat="45.95663" lon="4.92204">
        <ele>294</ele>
        <time>2016-09-14T10:12:32Z</time>
      </trkpt>
      <trkpt lat="45.95663" lon="4.92195">
        <ele>295</ele>
        <time>2016-09-14T10:12:33Z</time>
      </trkpt>
      <trkpt lat="45.95663" lon="4.92187">
        <ele>295</ele>
        <time>2016-09-14T10:12:34Z</time>
      </trkpt>
      <trkpt lat="45.95664" lon="4.92178">
        <ele>296</ele>
        <time>2016-09-14T10:12:35Z</time>
      </trkpt>
      <trkpt lat="45.95665" lon="4.9217">
        <ele>296</ele>
        <time>2016-09-14T10:12:36Z</time>
      </trkpt>
      <trkpt lat="45.95665" lon="4.92162">
        <ele>297</ele>
        <time>2016-09-14T10:12:37Z</time>
      </trkpt>
      <trkpt lat="45.95666" lon="4.92155">
        <ele>296</ele>
        <time>2016-09-14T10:12:38Z</time>
      </trkpt>
      <trkpt lat="45.95667" lon="4.92148">
        <ele>296</ele>
        <time>2016-09-14T10:12:39Z</time>
      </trkpt>
      <trkpt lat="45.95667" lon="4.92141">
        <ele>296</ele>
        <time>2016-09-14T10:12:40Z</time>
      </trkpt>
      <trkpt lat="45.95667" lon="4.92135">
        <ele>299</ele>
        <time>2016-09-14T10:12:41Z</time>
      </trkpt>
      <trkpt lat="45.95667" lon="4.92127">
        <ele>299</ele>
        <time>2016-09-14T10:12:42Z</time>
      </trkpt>
      <trkpt lat="45.95667" lon="4.9212">
        <ele>299</ele>
        <time>2016-09-14T10:12:43Z</time>
      </trkpt>
      <trkpt lat="45.95668" lon="4.92113">
        <ele>300</ele>
        <time>2016-09-14T10:12:44Z</time>
      </trkpt>
      <trkpt lat="45.95668" lon="4.92106">
        <ele>300</ele>
        <time>2016-09-14T10:12:45Z</time>
      </trkpt>
      <trkpt lat="45.95668" lon="4.92099">
        <ele>299</ele>
        <time>2016-09-14T10:12:46Z</time>
      </trkpt>
      <trkpt lat="45.95669" lon="4.92092">
        <ele>299</ele>
        <time>2016-09-14T10:12:47Z</time>
      </trkpt>
      <trkpt lat="45.95669" lon="4.92086">
        <ele>299</ele>
        <time>2016-09-14T10:12:48Z</time>
      </trkpt>
      <trkpt lat="45.95669" lon="4.92079">
        <ele>299</ele>
        <time>2016-09-14T10:12:49Z</time>
      </trkpt>
      <trkpt lat="45.9567" lon="4.92072">
        <ele>300</ele>
        <time>2016-09-14T10:12:50Z</time>
      </trkpt>
      <trkpt lat="45.95671" lon="4.92065">
        <ele>300</ele>
        <time>2016-09-14T10:12:51Z</time>
      </trkpt>
      <trkpt lat="45.95672" lon="4.92058">
        <ele>300</ele>
        <time>2016-09-14T10:12:52Z</time>
      </trkpt>
      <trkpt lat="45.95672" lon="4.9205">
        <ele>300</ele>
        <time>2016-09-14T10:12:53Z</time>
      </trkpt>
      <trkpt lat="45.95672" lon="4.92041">
        <ele>300</ele>
        <time>2016-09-14T10:12:54Z</time>
      </trkpt>
      <trkpt lat="45.95672" lon="4.92033">
        <ele>300</ele>
        <time>2016-09-14T10:12:55Z</time>
      </trkpt>
      <trkpt lat="45.9567" lon="4.92024">
        <ele>300</ele>
        <time>2016-09-14T10:12:56Z</time>
      </trkpt>
      <trkpt lat="45.95667" lon="4.92018">
        <ele>300</ele>
        <time>2016-09-14T10:12:57Z</time>
      </trkpt>
      <trkpt lat="45.95664" lon="4.92011">
        <ele>297</ele>
        <time>2016-09-14T10:12:58Z</time>
      </trkpt>
      <trkpt lat="45.95661" lon="4.92006">
        <ele>297</ele>
        <time>2016-09-14T10:12:59Z</time>
      </trkpt>
      <trkpt lat="45.95657" lon="4.92001">
        <ele>297</ele>
        <time>2016-09-14T10:13:00Z</time>
      </trkpt>
      <trkpt lat="45.95654" lon="4.91995">
        <ele>297</ele>
        <time>2016-09-14T10:13:01Z</time>
      </trkpt>
      <trkpt lat="45.95651" lon="4.91989">
        <ele>296</ele>
        <time>2016-09-14T10:13:02Z</time>
      </trkpt>
      <trkpt lat="45.95647" lon="4.91984">
        <ele>296</ele>
        <time>2016-09-14T10:13:03Z</time>
      </trkpt>
      <trkpt lat="45.95644" lon="4.9198">
        <ele>296</ele>
        <time>2016-09-14T10:13:04Z</time>
      </trkpt>
      <trkpt lat="45.9564" lon="4.91975">
        <ele>295</ele>
        <time>2016-09-14T10:13:05Z</time>
      </trkpt>
      <trkpt lat="45.95636" lon="4.9197">
        <ele>295</ele>
        <time>2016-09-14T10:13:06Z</time>
      </trkpt>
      <trkpt lat="45.95632" lon="4.91966">
        <ele>295</ele>
        <time>2016-09-14T10:13:07Z</time>
      </trkpt>
      <trkpt lat="45.95629" lon="4.91961">
        <ele>295</ele>
        <time>2016-09-14T10:13:08Z</time>
      </trkpt>
      <trkpt lat="45.95625" lon="4.91955">
        <ele>295</ele>
        <time>2016-09-14T10:13:09Z</time>
      </trkpt>
      <trkpt lat="45.95622" lon="4.9195">
        <ele>295</ele>
        <time>2016-09-14T10:13:10Z</time>
      </trkpt>
      <trkpt lat="45.95618" lon="4.91945">
        <ele>294</ele>
        <time>2016-09-14T10:13:11Z</time>
      </trkpt>
      <trkpt lat="45.95614" lon="4.9194">
        <ele>294</ele>
        <time>2016-09-14T10:13:12Z</time>
      </trkpt>
      <trkpt lat="45.95611" lon="4.91935">
        <ele>294</ele>
        <time>2016-09-14T10:13:13Z</time>
      </trkpt>
      <trkpt lat="45.95605" lon="4.91927">
        <ele>294</ele>
        <time>2016-09-14T10:13:15Z</time>
      </trkpt>
      <trkpt lat="45.95602" lon="4.91924">
        <ele>294</ele>
        <time>2016-09-14T10:13:16Z</time>
      </trkpt>
      <trkpt lat="45.95599" lon="4.91921">
        <ele>294</ele>
        <time>2016-09-14T10:13:17Z</time>
      </trkpt>
      <trkpt lat="45.95594" lon="4.91917">
        <ele>293</ele>
        <time>2016-09-14T10:13:18Z</time>
      </trkpt>
      <trkpt lat="45.9559" lon="4.91913">
        <ele>293</ele>
        <time>2016-09-14T10:13:19Z</time>
      </trkpt>
      <trkpt lat="45.95586" lon="4.91909">
        <ele>293</ele>
        <time>2016-09-14T10:13:20Z</time>
      </trkpt>
      <trkpt lat="45.9558" lon="4.91905">
        <ele>294</ele>
        <time>2016-09-14T10:13:21Z</time>
      </trkpt>
      <trkpt lat="45.95575" lon="4.91902">
        <ele>294</ele>
        <time>2016-09-14T10:13:22Z</time>
      </trkpt>
      <trkpt lat="45.9557" lon="4.91898">
        <ele>294</ele>
        <time>2016-09-14T10:13:23Z</time>
      </trkpt>
      <trkpt lat="45.95565" lon="4.91894">
        <ele>294</ele>
        <time>2016-09-14T10:13:24Z</time>
      </trkpt>
      <trkpt lat="45.95561" lon="4.91891">
        <ele>294</ele>
        <time>2016-09-14T10:13:25Z</time>
      </trkpt>
      <trkpt lat="45.95555" lon="4.91889">
        <ele>294</ele>
        <time>2016-09-14T10:13:26Z</time>
      </trkpt>
      <trkpt lat="45.9555" lon="4.91886">
        <ele>294</ele>
        <time>2016-09-14T10:13:27Z</time>
      </trkpt>
      <trkpt lat="45.95545" lon="4.91882">
        <ele>294</ele>
        <time>2016-09-14T10:13:28Z</time>
      </trkpt>
      <trkpt lat="45.95542" lon="4.91878">
        <ele>294</ele>
        <time>2016-09-14T10:13:29Z</time>
      </trkpt>
      <trkpt lat="45.95538" lon="4.91873">
        <ele>295</ele>
        <time>2016-09-14T10:13:30Z</time>
      </trkpt>
      <trkpt lat="45.95533" lon="4.91869">
        <ele>295</ele>
        <time>2016-09-14T10:13:31Z</time>
      </trkpt>
      <trkpt lat="45.95526" lon="4.91867">
        <ele>295</ele>
        <time>2016-09-14T10:13:32Z</time>
      </trkpt>
      <trkpt lat="45.95521" lon="4.91864">
        <ele>295</ele>
        <time>2016-09-14T10:13:33Z</time>
      </trkpt>
      <trkpt lat="45.95516" lon="4.9186">
        <ele>295</ele>
        <time>2016-09-14T10:13:34Z</time>
      </trkpt>
      <trkpt lat="45.9551" lon="4.91857">
        <ele>295</ele>
        <time>2016-09-14T10:13:35Z</time>
      </trkpt>
      <trkpt lat="45.95506" lon="4.91852">
        <ele>295</ele>
        <time>2016-09-14T10:13:36Z</time>
      </trkpt>
      <trkpt lat="45.95501" lon="4.91848">
        <ele>295</ele>
        <time>2016-09-14T10:13:37Z</time>
      </trkpt>
      <trkpt lat="45.95497" lon="4.91844">
        <ele>295</ele>
        <time>2016-09-14T10:13:38Z</time>
      </trkpt>
      <trkpt lat="45.95492" lon="4.9184">
        <ele>295</ele>
        <time>2016-09-14T10:13:39Z</time>
      </trkpt>
      <trkpt lat="45.95486" lon="4.91836">
        <ele>295</ele>
        <time>2016-09-14T10:13:40Z</time>
      </trkpt>
      <trkpt lat="45.95481" lon="4.91832">
        <ele>297</ele>
        <time>2016-09-14T10:13:41Z</time>
      </trkpt>
      <trkpt lat="45.95476" lon="4.91829">
        <ele>297</ele>
        <time>2016-09-14T10:13:42Z</time>
      </trkpt>
      <trkpt lat="45.95472" lon="4.91823">
        <ele>297</ele>
        <time>2016-09-14T10:13:43Z</time>
      </trkpt>
      <trkpt lat="45.95468" lon="4.91818">
        <ele>297</ele>
        <time>2016-09-14T10:13:44Z</time>
      </trkpt>
      <trkpt lat="45.95464" lon="4.91813">
        <ele>297</ele>
        <time>2016-09-14T10:13:45Z</time>
      </trkpt>
      <trkpt lat="45.9546" lon="4.91807">
        <ele>298</ele>
        <time>2016-09-14T10:13:46Z</time>
      </trkpt>
      <trkpt lat="45.95456" lon="4.91801">
        <ele>298</ele>
        <time>2016-09-14T10:13:47Z</time>
      </trkpt>
      <trkpt lat="45.95452" lon="4.91795">
        <ele>298</ele>
        <time>2016-09-14T10:13:48Z</time>
      </trkpt>
      <trkpt lat="45.95449" lon="4.91789">
        <ele>298</ele>
        <time>2016-09-14T10:13:49Z</time>
      </trkpt>
      <trkpt lat="45.95446" lon="4.91783">
        <ele>298</ele>
        <time>2016-09-14T10:13:50Z</time>
      </trkpt>
      <trkpt lat="45.95443" lon="4.91777">
        <ele>298</ele>
        <time>2016-09-14T10:13:51Z</time>
      </trkpt>
      <trkpt lat="45.95441" lon="4.91771">
        <ele>298</ele>
        <time>2016-09-14T10:13:52Z</time>
      </trkpt>
      <trkpt lat="45.95439" lon="4.91766">
        <ele>298</ele>
        <time>2016-09-14T10:13:53Z</time>
      </trkpt>
      <trkpt lat="45.95436" lon="4.9176">
        <ele>298</ele>
        <time>2016-09-14T10:13:54Z</time>
      </trkpt>
      <trkpt lat="45.95434" lon="4.91754">
        <ele>298</ele>
        <time>2016-09-14T10:13:55Z</time>
      </trkpt>
      <trkpt lat="45.95432" lon="4.91748">
        <ele>300</ele>
        <time>2016-09-14T10:13:56Z</time>
      </trkpt>
      <trkpt lat="45.95428" lon="4.9174">
        <ele>300</ele>
        <time>2016-09-14T10:13:58Z</time>
      </trkpt>
      <trkpt lat="45.95426" lon="4.91736">
        <ele>300</ele>
        <time>2016-09-14T10:13:59Z</time>
      </trkpt>
      <trkpt lat="45.95421" lon="4.91727">
        <ele>300</ele>
        <time>2016-09-14T10:14:02Z</time>
      </trkpt>
      <trkpt lat="45.9542" lon="4.91724">
        <ele>300</ele>
        <time>2016-09-14T10:14:03Z</time>
      </trkpt>
      <trkpt lat="45.95417" lon="4.91714">
        <ele>301</ele>
        <time>2016-09-14T10:14:07Z</time>
      </trkpt>
      <trkpt lat="45.95416" lon="4.91711">
        <ele>299</ele>
        <time>2016-09-14T10:14:08Z</time>
      </trkpt>
      <trkpt lat="45.95413" lon="4.91701">
        <ele>299</ele>
        <time>2016-09-14T10:14:11Z</time>
      </trkpt>
      <trkpt lat="45.95412" lon="4.91698">
        <ele>299</ele>
        <time>2016-09-14T10:14:12Z</time>
      </trkpt>
      <trkpt lat="45.95408" lon="4.91688">
        <ele>300</ele>
        <time>2016-09-14T10:14:15Z</time>
      </trkpt>
      <trkpt lat="45.95408" lon="4.91685">
        <ele>300</ele>
        <time>2016-09-14T10:14:16Z</time>
      </trkpt>
      <trkpt lat="45.95405" lon="4.91675">
        <ele>300</ele>
        <time>2016-09-14T10:14:19Z</time>
      </trkpt>
      <trkpt lat="45.95404" lon="4.91671">
        <ele>300</ele>
        <time>2016-09-14T10:14:20Z</time>
      </trkpt>
      <trkpt lat="45.95399" lon="4.9166">
        <ele>301</ele>
        <time>2016-09-14T10:14:23Z</time>
      </trkpt>
      <trkpt lat="45.95398" lon="4.91656">
        <ele>301</ele>
        <time>2016-09-14T10:14:24Z</time>
      </trkpt>
      <trkpt lat="45.95394" lon="4.91648">
        <ele>301</ele>
        <time>2016-09-14T10:14:26Z</time>
      </trkpt>
      <trkpt lat="45.95393" lon="4.91644">
        <ele>301</ele>
        <time>2016-09-14T10:14:27Z</time>
      </trkpt>
      <trkpt lat="45.95388" lon="4.91636">
        <ele>301</ele>
        <time>2016-09-14T10:14:29Z</time>
      </trkpt>
      <trkpt lat="45.95387" lon="4.91633">
        <ele>301</ele>
        <time>2016-09-14T10:14:30Z</time>
      </trkpt>
      <trkpt lat="45.95383" lon="4.91621">
        <ele>301</ele>
        <time>2016-09-14T10:14:33Z</time>
      </trkpt>
      <trkpt lat="45.95382" lon="4.91617">
        <ele>301</ele>
        <time>2016-09-14T10:14:34Z</time>
      </trkpt>
      <trkpt lat="45.95379" lon="4.91609">
        <ele>301</ele>
        <time>2016-09-14T10:14:36Z</time>
      </trkpt>
      <trkpt lat="45.95378" lon="4.91604">
        <ele>301</ele>
        <time>2016-09-14T10:14:37Z</time>
      </trkpt>
      <trkpt lat="45.95376" lon="4.91594">
        <ele>301</ele>
        <time>2016-09-14T10:14:39Z</time>
      </trkpt>
      <trkpt lat="45.95375" lon="4.91589">
        <ele>300</ele>
        <time>2016-09-14T10:14:40Z</time>
      </trkpt>
      <trkpt lat="45.95373" lon="4.9158">
        <ele>300</ele>
        <time>2016-09-14T10:14:42Z</time>
      </trkpt>
      <trkpt lat="45.95373" lon="4.91576">
        <ele>300</ele>
        <time>2016-09-14T10:14:43Z</time>
      </trkpt>
      <trkpt lat="45.95371" lon="4.91567">
        <ele>300</ele>
        <time>2016-09-14T10:14:45Z</time>
      </trkpt>
      <trkpt lat="45.9537" lon="4.91563">
        <ele>300</ele>
        <time>2016-09-14T10:14:46Z</time>
      </trkpt>
      <trkpt lat="45.95368" lon="4.9155">
        <ele>300</ele>
        <time>2016-09-14T10:14:49Z</time>
      </trkpt>
      <trkpt lat="45.95367" lon="4.91547">
        <ele>300</ele>
        <time>2016-09-14T10:14:50Z</time>
      </trkpt>
      <trkpt lat="45.95365" lon="4.91537">
        <ele>300</ele>
        <time>2016-09-14T10:14:52Z</time>
      </trkpt>
      <trkpt lat="45.95363" lon="4.91533">
        <ele>300</ele>
        <time>2016-09-14T10:14:53Z</time>
      </trkpt>
      <trkpt lat="45.9536" lon="4.91523">
        <ele>299</ele>
        <time>2016-09-14T10:14:55Z</time>
      </trkpt>
      <trkpt lat="45.95359" lon="4.91519">
        <ele>299</ele>
        <time>2016-09-14T10:14:56Z</time>
      </trkpt>
      <trkpt lat="45.95357" lon="4.91509">
        <ele>299</ele>
        <time>2016-09-14T10:14:58Z</time>
      </trkpt>
      <trkpt lat="45.95355" lon="4.91502">
        <ele>299</ele>
        <time>2016-09-14T10:14:59Z</time>
      </trkpt>
      <trkpt lat="45.95351" lon="4.91492">
        <ele>298</ele>
        <time>2016-09-14T10:15:01Z</time>
      </trkpt>
      <trkpt lat="45.95351" lon="4.91487">
        <ele>298</ele>
        <time>2016-09-14T10:15:02Z</time>
      </trkpt>
      <trkpt lat="45.95349" lon="4.91475">
        <ele>299</ele>
        <time>2016-09-14T10:15:05Z</time>
      </trkpt>
      <trkpt lat="45.95348" lon="4.91471">
        <ele>299</ele>
        <time>2016-09-14T10:15:06Z</time>
      </trkpt>
      <trkpt lat="45.95345" lon="4.9146">
        <ele>299</ele>
        <time>2016-09-14T10:15:09Z</time>
      </trkpt>
      <trkpt lat="45.95344" lon="4.91457">
        <ele>299</ele>
        <time>2016-09-14T10:15:10Z</time>
      </trkpt>
      <trkpt lat="45.95342" lon="4.91446">
        <ele>298</ele>
        <time>2016-09-14T10:15:13Z</time>
      </trkpt>
      <trkpt lat="45.95341" lon="4.91443">
        <ele>298</ele>
        <time>2016-09-14T10:15:14Z</time>
      </trkpt>
      <trkpt lat="45.95339" lon="4.91432">
        <ele>298</ele>
        <time>2016-09-14T10:15:18Z</time>
      </trkpt>
      <trkpt lat="45.95339" lon="4.91429">
        <ele>298</ele>
        <time>2016-09-14T10:15:19Z</time>
      </trkpt>
      <trkpt lat="45.95338" lon="4.91419">
        <ele>298</ele>
        <time>2016-09-14T10:15:22Z</time>
      </trkpt>
      <trkpt lat="45.95337" lon="4.91414">
        <ele>298</ele>
        <time>2016-09-14T10:15:23Z</time>
      </trkpt>
      <trkpt lat="45.95336" lon="4.91402">
        <ele>298</ele>
        <time>2016-09-14T10:15:26Z</time>
      </trkpt>
      <trkpt lat="45.95335" lon="4.91397">
        <ele>298</ele>
        <time>2016-09-14T10:15:27Z</time>
      </trkpt>
      <trkpt lat="45.95333" lon="4.91389">
        <ele>298</ele>
        <time>2016-09-14T10:15:29Z</time>
      </trkpt>
      <trkpt lat="45.95331" lon="4.91384">
        <ele>298</ele>
        <time>2016-09-14T10:15:30Z</time>
      </trkpt>
      <trkpt lat="45.9533" lon="4.91374">
        <ele>298</ele>
        <time>2016-09-14T10:15:32Z</time>
      </trkpt>
      <trkpt lat="45.95329" lon="4.91368">
        <ele>298</ele>
        <time>2016-09-14T10:15:33Z</time>
      </trkpt>
      <trkpt lat="45.95327" lon="4.91359">
        <ele>298</ele>
        <time>2016-09-14T10:15:35Z</time>
      </trkpt>
      <trkpt lat="45.95326" lon="4.91355">
        <ele>297</ele>
        <time>2016-09-14T10:15:36Z</time>
      </trkpt>
      <trkpt lat="45.95323" lon="4.91345">
        <ele>297</ele>
        <time>2016-09-14T10:15:39Z</time>
      </trkpt>
      <trkpt lat="45.95322" lon="4.91341">
        <ele>297</ele>
        <time>2016-09-14T10:15:40Z</time>
      </trkpt>
      <trkpt lat="45.95321" lon="4.9133">
        <ele>297</ele>
        <time>2016-09-14T10:15:43Z</time>
      </trkpt>
      <trkpt lat="45.9532" lon="4.91327">
        <ele>297</ele>
        <time>2016-09-14T10:15:44Z</time>
      </trkpt>
      <trkpt lat="45.95318" lon="4.91317">
        <ele>298</ele>
        <time>2016-09-14T10:15:47Z</time>
      </trkpt>
      <trkpt lat="45.95317" lon="4.91313">
        <ele>298</ele>
        <time>2016-09-14T10:15:48Z</time>
      </trkpt>
      <trkpt lat="45.95316" lon="4.91302">
        <ele>298</ele>
        <time>2016-09-14T10:15:51Z</time>
      </trkpt>
      <trkpt lat="45.95316" lon="4.91298">
        <ele>298</ele>
        <time>2016-09-14T10:15:52Z</time>
      </trkpt>
      <trkpt lat="45.95314" lon="4.91289">
        <ele>298</ele>
        <time>2016-09-14T10:15:55Z</time>
      </trkpt>
      <trkpt lat="45.95313" lon="4.91285">
        <ele>298</ele>
        <time>2016-09-14T10:15:56Z</time>
      </trkpt>
      <trkpt lat="45.95311" lon="4.91274">
        <ele>298</ele>
        <time>2016-09-14T10:15:59Z</time>
      </trkpt>
      <trkpt lat="45.9531" lon="4.9127">
        <ele>298</ele>
        <time>2016-09-14T10:16:00Z</time>
      </trkpt>
      <trkpt lat="45.95308" lon="4.91259">
        <ele>298</ele>
        <time>2016-09-14T10:16:02Z</time>
      </trkpt>
      <trkpt lat="45.95307" lon="4.91254">
        <ele>298</ele>
        <time>2016-09-14T10:16:03Z</time>
      </trkpt>
      <trkpt lat="45.95304" lon="4.91243">
        <ele>299</ele>
        <time>2016-09-14T10:16:05Z</time>
      </trkpt>
      <trkpt lat="45.95303" lon="4.91239">
        <ele>299</ele>
        <time>2016-09-14T10:16:06Z</time>
      </trkpt>
      <trkpt lat="45.953" lon="4.91227">
        <ele>299</ele>
        <time>2016-09-14T10:16:09Z</time>
      </trkpt>
      <trkpt lat="45.95299" lon="4.91224">
        <ele>299</ele>
        <time>2016-09-14T10:16:10Z</time>
      </trkpt>
      <trkpt lat="45.95295" lon="4.91213">
        <ele>299</ele>
        <time>2016-09-14T10:16:14Z</time>
      </trkpt>
      <trkpt lat="45.95293" lon="4.9121">
        <ele>299</ele>
        <time>2016-09-14T10:16:15Z</time>
      </trkpt>
      <trkpt lat="45.95289" lon="4.912">
        <ele>299</ele>
        <time>2016-09-14T10:16:19Z</time>
      </trkpt>
      <trkpt lat="45.95287" lon="4.91196">
        <ele>299</ele>
        <time>2016-09-14T10:16:20Z</time>
      </trkpt>
      <trkpt lat="45.95283" lon="4.91186">
        <ele>299</ele>
        <time>2016-09-14T10:16:23Z</time>
      </trkpt>
      <trkpt lat="45.95283" lon="4.91183">
        <ele>299</ele>
        <time>2016-09-14T10:16:24Z</time>
      </trkpt>
      <trkpt lat="45.95279" lon="4.91173">
        <ele>299</ele>
        <time>2016-09-14T10:16:27Z</time>
      </trkpt>
      <trkpt lat="45.95278" lon="4.9117">
        <ele>299</ele>
        <time>2016-09-14T10:16:28Z</time>
      </trkpt>
      <trkpt lat="45.95274" lon="4.91162">
        <ele>299</ele>
        <time>2016-09-14T10:16:31Z</time>
      </trkpt>
      <trkpt lat="45.95271" lon="4.91157">
        <ele>299</ele>
        <time>2016-09-14T10:16:32Z</time>
      </trkpt>
      <trkpt lat="45.95265" lon="4.91148">
        <ele>299</ele>
        <time>2016-09-14T10:16:35Z</time>
      </trkpt>
      <trkpt lat="45.95263" lon="4.91144">
        <ele>299</ele>
        <time>2016-09-14T10:16:36Z</time>
      </trkpt>
      <trkpt lat="45.95259" lon="4.91133">
        <ele>299</ele>
        <time>2016-09-14T10:16:39Z</time>
      </trkpt>
      <trkpt lat="45.95257" lon="4.9113">
        <ele>299</ele>
        <time>2016-09-14T10:16:40Z</time>
      </trkpt>
      <trkpt lat="45.95253" lon="4.91122">
        <ele>299</ele>
        <time>2016-09-14T10:16:44Z</time>
      </trkpt>
      <trkpt lat="45.95251" lon="4.9112">
        <ele>299</ele>
        <time>2016-09-14T10:16:45Z</time>
      </trkpt>
      <trkpt lat="45.95245" lon="4.91111">
        <ele>298</ele>
        <time>2016-09-14T10:16:49Z</time>
      </trkpt>
      <trkpt lat="45.95244" lon="4.91108">
        <ele>298</ele>
        <time>2016-09-14T10:16:50Z</time>
      </trkpt>
      <trkpt lat="45.95239" lon="4.91099">
        <ele>298</ele>
        <time>2016-09-14T10:16:53Z</time>
      </trkpt>
      <trkpt lat="45.95238" lon="4.91097">
        <ele>298</ele>
        <time>2016-09-14T10:16:54Z</time>
      </trkpt>
      <trkpt lat="45.95232" lon="4.91089">
        <ele>298</ele>
        <time>2016-09-14T10:16:57Z</time>
      </trkpt>
      <trkpt lat="45.9523" lon="4.91087">
        <ele>298</ele>
        <time>2016-09-14T10:16:58Z</time>
      </trkpt>
      <trkpt lat="45.95223" lon="4.91085">
        <ele>298</ele>
        <time>2016-09-14T10:17:01Z</time>
      </trkpt>
      <trkpt lat="45.95219" lon="4.91086">
        <ele>298</ele>
        <time>2016-09-14T10:17:02Z</time>
      </trkpt>
      <trkpt lat="45.95212" lon="4.91084">
        <ele>298</ele>
        <time>2016-09-14T10:17:04Z</time>
      </trkpt>
      <trkpt lat="45.95209" lon="4.91082">
        <ele>297</ele>
        <time>2016-09-14T10:17:05Z</time>
      </trkpt>
      <trkpt lat="45.95203" lon="4.91077">
        <ele>297</ele>
        <time>2016-09-14T10:17:08Z</time>
      </trkpt>
      <trkpt lat="45.95201" lon="4.91075">
        <ele>297</ele>
        <time>2016-09-14T10:17:09Z</time>
      </trkpt>
      <trkpt lat="45.95194" lon="4.91068">
        <ele>297</ele>
        <time>2016-09-14T10:17:12Z</time>
      </trkpt>
      <trkpt lat="45.95192" lon="4.91065">
        <ele>297</ele>
        <time>2016-09-14T10:17:13Z</time>
      </trkpt>
      <trkpt lat="45.95189" lon="4.91057">
        <ele>297</ele>
        <time>2016-09-14T10:17:15Z</time>
      </trkpt>
      <trkpt lat="45.95186" lon="4.91054">
        <ele>297</ele>
        <time>2016-09-14T10:17:16Z</time>
      </trkpt>
      <trkpt lat="45.95181" lon="4.91045">
        <ele>297</ele>
        <time>2016-09-14T10:17:19Z</time>
      </trkpt>
      <trkpt lat="45.9518" lon="4.91043">
        <ele>297</ele>
        <time>2016-09-14T10:17:20Z</time>
      </trkpt>
      <trkpt lat="45.95173" lon="4.91041">
        <ele>297</ele>
        <time>2016-09-14T10:21:08Z</time>
      </trkpt>
      <trkpt lat="45.95165" lon="4.91035">
        <ele>297</ele>
        <time>2016-09-14T10:21:09Z</time>
      </trkpt>
      <trkpt lat="45.95173" lon="4.91037">
        <ele>297</ele>
        <time>2016-09-14T10:22:19Z</time>
      </trkpt>
      <trkpt lat="45.95174" lon="4.91037">
        <ele>297</ele>
        <time>2016-09-14T10:22:20Z</time>
      </trkpt>
      <trkpt lat="45.95183" lon="4.91036">
        <ele>297</ele>
        <time>2016-09-14T10:22:34Z</time>
      </trkpt>
      <trkpt lat="45.95184" lon="4.91036">
        <ele>297</ele>
        <time>2016-09-14T10:22:35Z</time>
      </trkpt>
      <trkpt lat="45.95184" lon="4.91024">
        <ele>297</ele>
        <time>2016-09-14T10:24:10Z</time>
      </trkpt>
      <trkpt lat="45.95184" lon="4.91022">
        <ele>297</ele>
        <time>2016-09-14T10:24:11Z</time>
      </trkpt>
      <trkpt lat="45.95183" lon="4.91012">
        <ele>298</ele>
        <time>2016-09-14T10:24:15Z</time>
      </trkpt>
      <trkpt lat="45.95182" lon="4.91008">
        <ele>298</ele>
        <time>2016-09-14T10:24:16Z</time>
      </trkpt>
      <trkpt lat="45.95181" lon="4.90998">
        <ele>298</ele>
        <time>2016-09-14T10:24:18Z</time>
      </trkpt>
      <trkpt lat="45.9518" lon="4.90993">
        <ele>298</ele>
        <time>2016-09-14T10:24:19Z</time>
      </trkpt>
      <trkpt lat="45.95178" lon="4.90987">
        <ele>298</ele>
        <time>2016-09-14T10:24:20Z</time>
      </trkpt>
      <trkpt lat="45.95177" lon="4.9098">
        <ele>298</ele>
        <time>2016-09-14T10:24:21Z</time>
      </trkpt>
      <trkpt lat="45.95175" lon="4.90973">
        <ele>298</ele>
        <time>2016-09-14T10:24:22Z</time>
      </trkpt>
      <trkpt lat="45.95175" lon="4.90966">
        <ele>298</ele>
        <time>2016-09-14T10:24:23Z</time>
      </trkpt>
      <trkpt lat="45.95174" lon="4.90959">
        <ele>298</ele>
        <time>2016-09-14T10:24:24Z</time>
      </trkpt>
      <trkpt lat="45.95175" lon="4.90952">
        <ele>297</ele>
        <time>2016-09-14T10:24:25Z</time>
      </trkpt>
      <trkpt lat="45.95175" lon="4.90945">
        <ele>297</ele>
        <time>2016-09-14T10:24:26Z</time>
      </trkpt>
      <trkpt lat="45.95175" lon="4.90937">
        <ele>297</ele>
        <time>2016-09-14T10:24:27Z</time>
      </trkpt>
      <trkpt lat="45.95176" lon="4.90929">
        <ele>297</ele>
        <time>2016-09-14T10:24:28Z</time>
      </trkpt>
      <trkpt lat="45.95176" lon="4.90921">
        <ele>297</ele>
        <time>2016-09-14T10:24:29Z</time>
      </trkpt>
      <trkpt lat="45.95177" lon="4.90913">
        <ele>297</ele>
        <time>2016-09-14T10:24:30Z</time>
      </trkpt>
      <trkpt lat="45.95178" lon="4.90905">
        <ele>298</ele>
        <time>2016-09-14T10:24:31Z</time>
      </trkpt>
      <trkpt lat="45.95179" lon="4.90898">
        <ele>298</ele>
        <time>2016-09-14T10:24:32Z</time>
      </trkpt>
      <trkpt lat="45.9518" lon="4.90891">
        <ele>298</ele>
        <time>2016-09-14T10:24:33Z</time>
      </trkpt>
      <trkpt lat="45.95181" lon="4.90884">
        <ele>298</ele>
        <time>2016-09-14T10:24:34Z</time>
      </trkpt>
      <trkpt lat="45.95182" lon="4.90877">
        <ele>298</ele>
        <time>2016-09-14T10:24:35Z</time>
      </trkpt>
      <trkpt lat="45.95183" lon="4.9087">
        <ele>298</ele>
        <time>2016-09-14T10:24:36Z</time>
      </trkpt>
      <trkpt lat="45.95184" lon="4.90863">
        <ele>298</ele>
        <time>2016-09-14T10:24:37Z</time>
      </trkpt>
      <trkpt lat="45.95185" lon="4.90856">
        <ele>298</ele>
        <time>2016-09-14T10:24:38Z</time>
      </trkpt>
      <trkpt lat="45.95186" lon="4.90849">
        <ele>298</ele>
        <time>2016-09-14T10:24:39Z</time>
      </trkpt>
      <trkpt lat="45.95187" lon="4.90842">
        <ele>298</ele>
        <time>2016-09-14T10:24:40Z</time>
      </trkpt>
      <trkpt lat="45.95187" lon="4.90835">
        <ele>298</ele>
        <time>2016-09-14T10:24:41Z</time>
      </trkpt>
      <trkpt lat="45.95187" lon="4.90827">
        <ele>298</ele>
        <time>2016-09-14T10:24:42Z</time>
      </trkpt>
      <trkpt lat="45.95187" lon="4.9082">
        <ele>298</ele>
        <time>2016-09-14T10:24:43Z</time>
      </trkpt>
      <trkpt lat="45.95187" lon="4.90813">
        <ele>298</ele>
        <time>2016-09-14T10:24:44Z</time>
      </trkpt>
      <trkpt lat="45.95186" lon="4.90806">
        <ele>298</ele>
        <time>2016-09-14T10:24:45Z</time>
      </trkpt>
      <trkpt lat="45.95184" lon="4.90798">
        <ele>298</ele>
        <time>2016-09-14T10:24:46Z</time>
      </trkpt>
      <trkpt lat="45.95181" lon="4.90792">
        <ele>298</ele>
        <time>2016-09-14T10:24:47Z</time>
      </trkpt>
      <trkpt lat="45.95179" lon="4.90785">
        <ele>298</ele>
        <time>2016-09-14T10:24:48Z</time>
      </trkpt>
      <trkpt lat="45.95178" lon="4.90778">
        <ele>298</ele>
        <time>2016-09-14T10:24:49Z</time>
      </trkpt>
      <trkpt lat="45.95178" lon="4.9077">
        <ele>298</ele>
        <time>2016-09-14T10:24:50Z</time>
      </trkpt>
      <trkpt lat="45.95179" lon="4.90763">
        <ele>298</ele>
        <time>2016-09-14T10:24:51Z</time>
      </trkpt>
      <trkpt lat="45.95179" lon="4.90755">
        <ele>298</ele>
        <time>2016-09-14T10:24:52Z</time>
      </trkpt>
      <trkpt lat="45.95179" lon="4.90747">
        <ele>297</ele>
        <time>2016-09-14T10:24:53Z</time>
      </trkpt>
      <trkpt lat="45.95179" lon="4.90739">
        <ele>297</ele>
        <time>2016-09-14T10:24:54Z</time>
      </trkpt>
      <trkpt lat="45.9518" lon="4.90731">
        <ele>297</ele>
        <time>2016-09-14T10:24:55Z</time>
      </trkpt>
      <trkpt lat="45.9518" lon="4.90724">
        <ele>297</ele>
        <time>2016-09-14T10:24:56Z</time>
      </trkpt>
      <trkpt lat="45.95181" lon="4.90716">
        <ele>297</ele>
        <time>2016-09-14T10:24:57Z</time>
      </trkpt>
      <trkpt lat="45.95181" lon="4.90708">
        <ele>297</ele>
        <time>2016-09-14T10:24:58Z</time>
      </trkpt>
      <trkpt lat="45.95181" lon="4.90701">
        <ele>297</ele>
        <time>2016-09-14T10:24:59Z</time>
      </trkpt>
      <trkpt lat="45.95182" lon="4.90693">
        <ele>297</ele>
        <time>2016-09-14T10:25:00Z</time>
      </trkpt>
      <trkpt lat="45.95183" lon="4.90685">
        <ele>297</ele>
        <time>2016-09-14T10:25:01Z</time>
      </trkpt>
      <trkpt lat="45.95184" lon="4.90677">
        <ele>297</ele>
        <time>2016-09-14T10:25:02Z</time>
      </trkpt>
      <trkpt lat="45.95185" lon="4.90669">
        <ele>296</ele>
        <time>2016-09-14T10:25:03Z</time>
      </trkpt>
      <trkpt lat="45.95185" lon="4.90661">
        <ele>296</ele>
        <time>2016-09-14T10:25:04Z</time>
      </trkpt>
      <trkpt lat="45.95186" lon="4.90652">
        <ele>296</ele>
        <time>2016-09-14T10:25:05Z</time>
      </trkpt>
      <trkpt lat="45.95186" lon="4.90644">
        <ele>296</ele>
        <time>2016-09-14T10:25:06Z</time>
      </trkpt>
      <trkpt lat="45.95186" lon="4.90635">
        <ele>295</ele>
        <time>2016-09-14T10:25:07Z</time>
      </trkpt>
      <trkpt lat="45.95187" lon="4.90627">
        <ele>295</ele>
        <time>2016-09-14T10:25:08Z</time>
      </trkpt>
      <trkpt lat="45.95187" lon="4.90618">
        <ele>295</ele>
        <time>2016-09-14T10:25:09Z</time>
      </trkpt>
      <trkpt lat="45.95187" lon="4.9061">
        <ele>295</ele>
        <time>2016-09-14T10:25:10Z</time>
      </trkpt>
      <trkpt lat="45.95188" lon="4.90602">
        <ele>295</ele>
        <time>2016-09-14T10:25:11Z</time>
      </trkpt>
      <trkpt lat="45.95188" lon="4.90594">
        <ele>295</ele>
        <time>2016-09-14T10:25:12Z</time>
      </trkpt>
      <trkpt lat="45.95189" lon="4.90586">
        <ele>295</ele>
        <time>2016-09-14T10:25:13Z</time>
      </trkpt>
      <trkpt lat="45.95189" lon="4.90579">
        <ele>293</ele>
        <time>2016-09-14T10:25:14Z</time>
      </trkpt>
      <trkpt lat="45.95189" lon="4.90571">
        <ele>293</ele>
        <time>2016-09-14T10:25:15Z</time>
      </trkpt>
      <trkpt lat="45.95191" lon="4.90561">
        <ele>293</ele>
        <time>2016-09-14T10:25:16Z</time>
      </trkpt>
      <trkpt lat="45.95191" lon="4.90552">
        <ele>293</ele>
        <time>2016-09-14T10:25:17Z</time>
      </trkpt>
      <trkpt lat="45.95192" lon="4.90543">
        <ele>293</ele>
        <time>2016-09-14T10:25:18Z</time>
      </trkpt>
      <trkpt lat="45.95192" lon="4.90535">
        <ele>293</ele>
        <time>2016-09-14T10:25:19Z</time>
      </trkpt>
      <trkpt lat="45.95193" lon="4.90526">
        <ele>292</ele>
        <time>2016-09-14T10:25:20Z</time>
      </trkpt>
      <trkpt lat="45.95193" lon="4.90518">
        <ele>292</ele>
        <time>2016-09-14T10:25:21Z</time>
      </trkpt>
      <trkpt lat="45.95194" lon="4.9051">
        <ele>292</ele>
        <time>2016-09-14T10:25:22Z</time>
      </trkpt>
      <trkpt lat="45.95194" lon="4.90502">
        <ele>292</ele>
        <time>2016-09-14T10:25:23Z</time>
      </trkpt>
      <trkpt lat="45.95194" lon="4.90493">
        <ele>290</ele>
        <time>2016-09-14T10:25:24Z</time>
      </trkpt>
      <trkpt lat="45.95195" lon="4.90485">
        <ele>290</ele>
        <time>2016-09-14T10:25:25Z</time>
      </trkpt>
      <trkpt lat="45.95195" lon="4.90476">
        <ele>290</ele>
        <time>2016-09-14T10:25:26Z</time>
      </trkpt>
      <trkpt lat="45.95195" lon="4.90467">
        <ele>290</ele>
        <time>2016-09-14T10:25:27Z</time>
      </trkpt>
      <trkpt lat="45.95195" lon="4.90459">
        <ele>290</ele>
        <time>2016-09-14T10:25:28Z</time>
      </trkpt>
      <trkpt lat="45.95195" lon="4.9045">
        <ele>290</ele>
        <time>2016-09-14T10:25:29Z</time>
      </trkpt>
      <trkpt lat="45.95195" lon="4.90441">
        <ele>290</ele>
        <time>2016-09-14T10:25:30Z</time>
      </trkpt>
      <trkpt lat="45.95195" lon="4.90432">
        <ele>289</ele>
        <time>2016-09-14T10:25:31Z</time>
      </trkpt>
      <trkpt lat="45.95195" lon="4.90423">
        <ele>289</ele>
        <time>2016-09-14T10:25:32Z</time>
      </trkpt>
      <trkpt lat="45.95195" lon="4.90414">
        <ele>288</ele>
        <time>2016-09-14T10:25:33Z</time>
      </trkpt>
      <trkpt lat="45.95196" lon="4.90406">
        <ele>288</ele>
        <time>2016-09-14T10:25:34Z</time>
      </trkpt>
      <trkpt lat="45.95196" lon="4.90397">
        <ele>288</ele>
        <time>2016-09-14T10:25:35Z</time>
      </trkpt>
      <trkpt lat="45.95197" lon="4.90388">
        <ele>288</ele>
        <time>2016-09-14T10:25:36Z</time>
      </trkpt>
      <trkpt lat="45.95199" lon="4.9038">
        <ele>288</ele>
        <time>2016-09-14T10:25:37Z</time>
      </trkpt>
      <trkpt lat="45.952" lon="4.90371">
        <ele>288</ele>
        <time>2016-09-14T10:25:38Z</time>
      </trkpt>
      <trkpt lat="45.95201" lon="4.90363">
        <ele>288</ele>
        <time>2016-09-14T10:25:39Z</time>
      </trkpt>
      <trkpt lat="45.95202" lon="4.90354">
        <ele>288</ele>
        <time>2016-09-14T10:25:40Z</time>
      </trkpt>
      <trkpt lat="45.95203" lon="4.90346">
        <ele>288</ele>
        <time>2016-09-14T10:25:41Z</time>
      </trkpt>
      <trkpt lat="45.95204" lon="4.90338">
        <ele>288</ele>
        <time>2016-09-14T10:25:42Z</time>
      </trkpt>
      <trkpt lat="45.95206" lon="4.90331">
        <ele>287</ele>
        <time>2016-09-14T10:25:43Z</time>
      </trkpt>
      <trkpt lat="45.95207" lon="4.90323">
        <ele>287</ele>
        <time>2016-09-14T10:25:44Z</time>
      </trkpt>
      <trkpt lat="45.95208" lon="4.90315">
        <ele>287</ele>
        <time>2016-09-14T10:25:45Z</time>
      </trkpt>
      <trkpt lat="45.9521" lon="4.90307">
        <ele>287</ele>
        <time>2016-09-14T10:25:46Z</time>
      </trkpt>
      <trkpt lat="45.95211" lon="4.90298">
        <ele>287</ele>
        <time>2016-09-14T10:25:47Z</time>
      </trkpt>
      <trkpt lat="45.95212" lon="4.90289">
        <ele>287</ele>
        <time>2016-09-14T10:25:48Z</time>
      </trkpt>
      <trkpt lat="45.95213" lon="4.90281">
        <ele>287</ele>
        <time>2016-09-14T10:25:49Z</time>
      </trkpt>
      <trkpt lat="45.95214" lon="4.90272">
        <ele>287</ele>
        <time>2016-09-14T10:25:50Z</time>
      </trkpt>
      <trkpt lat="45.95215" lon="4.90264">
        <ele>287</ele>
        <time>2016-09-14T10:25:51Z</time>
      </trkpt>
      <trkpt lat="45.95215" lon="4.90256">
        <ele>287</ele>
        <time>2016-09-14T10:25:52Z</time>
      </trkpt>
      <trkpt lat="45.95215" lon="4.90248">
        <ele>286</ele>
        <time>2016-09-14T10:25:53Z</time>
      </trkpt>
      <trkpt lat="45.95214" lon="4.90239">
        <ele>286</ele>
        <time>2016-09-14T10:25:54Z</time>
      </trkpt>
      <trkpt lat="45.95214" lon="4.90232">
        <ele>286</ele>
        <time>2016-09-14T10:25:55Z</time>
      </trkpt>
      <trkpt lat="45.95214" lon="4.90224">
        <ele>286</ele>
        <time>2016-09-14T10:25:56Z</time>
      </trkpt>
      <trkpt lat="45.95213" lon="4.90216">
        <ele>286</ele>
        <time>2016-09-14T10:25:57Z</time>
      </trkpt>
      <trkpt lat="45.95212" lon="4.90208">
        <ele>286</ele>
        <time>2016-09-14T10:25:58Z</time>
      </trkpt>
      <trkpt lat="45.95211" lon="4.902">
        <ele>286</ele>
        <time>2016-09-14T10:25:59Z</time>
      </trkpt>
      <trkpt lat="45.9521" lon="4.90192">
        <ele>286</ele>
        <time>2016-09-14T10:26:00Z</time>
      </trkpt>
      <trkpt lat="45.95208" lon="4.90184">
        <ele>287</ele>
        <time>2016-09-14T10:26:01Z</time>
      </trkpt>
      <trkpt lat="45.95205" lon="4.90177">
        <ele>287</ele>
        <time>2016-09-14T10:26:02Z</time>
      </trkpt>
      <trkpt lat="45.95201" lon="4.90172">
        <ele>287</ele>
        <time>2016-09-14T10:26:03Z</time>
      </trkpt>
      <trkpt lat="45.95196" lon="4.90168">
        <ele>287</ele>
        <time>2016-09-14T10:26:04Z</time>
      </trkpt>
      <trkpt lat="45.9519" lon="4.90167">
        <ele>287</ele>
        <time>2016-09-14T10:26:05Z</time>
      </trkpt>
      <trkpt lat="45.95184" lon="4.90167">
        <ele>287</ele>
        <time>2016-09-14T10:26:06Z</time>
      </trkpt>
      <trkpt lat="45.95178" lon="4.90169">
        <ele>287</ele>
        <time>2016-09-14T10:26:07Z</time>
      </trkpt>
      <trkpt lat="45.95173" lon="4.9017">
        <ele>287</ele>
        <time>2016-09-14T10:26:08Z</time>
      </trkpt>
      <trkpt lat="45.95167" lon="4.90171">
        <ele>287</ele>
        <time>2016-09-14T10:26:09Z</time>
      </trkpt>
      <trkpt lat="45.95161" lon="4.90172">
        <ele>287</ele>
        <time>2016-09-14T10:26:10Z</time>
      </trkpt>
      <trkpt lat="45.95155" lon="4.90172">
        <ele>287</ele>
        <time>2016-09-14T10:26:11Z</time>
      </trkpt>
      <trkpt lat="45.95149" lon="4.90171">
        <ele>287</ele>
        <time>2016-09-14T10:26:12Z</time>
      </trkpt>
      <trkpt lat="45.95143" lon="4.90169">
        <ele>287</ele>
        <time>2016-09-14T10:26:13Z</time>
      </trkpt>
      <trkpt lat="45.95137" lon="4.90167">
        <ele>287</ele>
        <time>2016-09-14T10:26:14Z</time>
      </trkpt>
      <trkpt lat="45.95131" lon="4.90165">
        <ele>286</ele>
        <time>2016-09-14T10:26:15Z</time>
      </trkpt>
      <trkpt lat="45.95125" lon="4.90161">
        <ele>286</ele>
        <time>2016-09-14T10:26:16Z</time>
      </trkpt>
      <trkpt lat="45.9512" lon="4.90158">
        <ele>286</ele>
        <time>2016-09-14T10:26:17Z</time>
      </trkpt>
      <trkpt lat="45.95115" lon="4.90153">
        <ele>286</ele>
        <time>2016-09-14T10:26:18Z</time>
      </trkpt>
      <trkpt lat="45.9511" lon="4.90148">
        <ele>286</ele>
        <time>2016-09-14T10:26:19Z</time>
      </trkpt>
      <trkpt lat="45.95105" lon="4.90143">
        <ele>286</ele>
        <time>2016-09-14T10:26:20Z</time>
      </trkpt>
      <trkpt lat="45.95101" lon="4.90137">
        <ele>286</ele>
        <time>2016-09-14T10:26:21Z</time>
      </trkpt>
      <trkpt lat="45.95096" lon="4.90132">
        <ele>286</ele>
        <time>2016-09-14T10:26:22Z</time>
      </trkpt>
      <trkpt lat="45.95092" lon="4.90127">
        <ele>286</ele>
        <time>2016-09-14T10:26:23Z</time>
      </trkpt>
      <trkpt lat="45.95088" lon="4.90121">
        <ele>286</ele>
        <time>2016-09-14T10:26:24Z</time>
      </trkpt>
      <trkpt lat="45.95083" lon="4.90116">
        <ele>285</ele>
        <time>2016-09-14T10:26:25Z</time>
      </trkpt>
      <trkpt lat="45.95079" lon="4.90111">
        <ele>285</ele>
        <time>2016-09-14T10:26:26Z</time>
      </trkpt>
      <trkpt lat="45.95075" lon="4.90106">
        <ele>285</ele>
        <time>2016-09-14T10:26:27Z</time>
      </trkpt>
      <trkpt lat="45.95071" lon="4.901">
        <ele>285</ele>
        <time>2016-09-14T10:26:28Z</time>
      </trkpt>
      <trkpt lat="45.95066" lon="4.90094">
        <ele>285</ele>
        <time>2016-09-14T10:26:29Z</time>
      </trkpt>
      <trkpt lat="45.95062" lon="4.90089">
        <ele>285</ele>
        <time>2016-09-14T10:26:30Z</time>
      </trkpt>
      <trkpt lat="45.95057" lon="4.90083">
        <ele>285</ele>
        <time>2016-09-14T10:26:31Z</time>
      </trkpt>
      <trkpt lat="45.95053" lon="4.90077">
        <ele>285</ele>
        <time>2016-09-14T10:26:32Z</time>
      </trkpt>
      <trkpt lat="45.95049" lon="4.90071">
        <ele>285</ele>
        <time>2016-09-14T10:26:33Z</time>
      </trkpt>
      <trkpt lat="45.95045" lon="4.90064">
        <ele>285</ele>
        <time>2016-09-14T10:26:34Z</time>
      </trkpt>
      <trkpt lat="45.9504" lon="4.90058">
        <ele>285</ele>
        <time>2016-09-14T10:26:35Z</time>
      </trkpt>
      <trkpt lat="45.95036" lon="4.90052">
        <ele>285</ele>
        <time>2016-09-14T10:26:36Z</time>
      </trkpt>
      <trkpt lat="45.95031" lon="4.90045">
        <ele>284</ele>
        <time>2016-09-14T10:26:37Z</time>
      </trkpt>
      <trkpt lat="45.95027" lon="4.90038">
        <ele>284</ele>
        <time>2016-09-14T10:26:38Z</time>
      </trkpt>
      <trkpt lat="45.95024" lon="4.90031">
        <ele>284</ele>
        <time>2016-09-14T10:26:39Z</time>
      </trkpt>
      <trkpt lat="45.9502" lon="4.90024">
        <ele>284</ele>
        <time>2016-09-14T10:26:40Z</time>
      </trkpt>
      <trkpt lat="45.95016" lon="4.90018">
        <ele>284</ele>
        <time>2016-09-14T10:26:41Z</time>
      </trkpt>
      <trkpt lat="45.95012" lon="4.90011">
        <ele>284</ele>
        <time>2016-09-14T10:26:42Z</time>
      </trkpt>
      <trkpt lat="45.95008" lon="4.90005">
        <ele>284</ele>
        <time>2016-09-14T10:26:43Z</time>
      </trkpt>
      <trkpt lat="45.95005" lon="4.89999">
        <ele>283</ele>
        <time>2016-09-14T10:26:44Z</time>
      </trkpt>
      <trkpt lat="45.95001" lon="4.89993">
        <ele>283</ele>
        <time>2016-09-14T10:26:45Z</time>
      </trkpt>
      <trkpt lat="45.94998" lon="4.89986">
        <ele>283</ele>
        <time>2016-09-14T10:26:46Z</time>
      </trkpt>
      <trkpt lat="45.94994" lon="4.89979">
        <ele>284</ele>
        <time>2016-09-14T10:26:47Z</time>
      </trkpt>
      <trkpt lat="45.9499" lon="4.89972">
        <ele>284</ele>
        <time>2016-09-14T10:26:48Z</time>
      </trkpt>
      <trkpt lat="45.94987" lon="4.89966">
        <ele>284</ele>
        <time>2016-09-14T10:26:49Z</time>
      </trkpt>
      <trkpt lat="45.94983" lon="4.89959">
        <ele>284</ele>
        <time>2016-09-14T10:26:50Z</time>
      </trkpt>
      <trkpt lat="45.94978" lon="4.89953">
        <ele>284</ele>
        <time>2016-09-14T10:26:51Z</time>
      </trkpt>
      <trkpt lat="45.94974" lon="4.89947">
        <ele>284</ele>
        <time>2016-09-14T10:26:52Z</time>
      </trkpt>
      <trkpt lat="45.9497" lon="4.89942">
        <ele>284</ele>
        <time>2016-09-14T10:26:53Z</time>
      </trkpt>
      <trkpt lat="45.94967" lon="4.89937">
        <ele>284</ele>
        <time>2016-09-14T10:26:54Z</time>
      </trkpt>
      <trkpt lat="45.94963" lon="4.89932">
        <ele>284</ele>
        <time>2016-09-14T10:26:55Z</time>
      </trkpt>
      <trkpt lat="45.94959" lon="4.89927">
        <ele>284</ele>
        <time>2016-09-14T10:26:56Z</time>
      </trkpt>
      <trkpt lat="45.94956" lon="4.89922">
        <ele>284</ele>
        <time>2016-09-14T10:26:57Z</time>
      </trkpt>
      <trkpt lat="45.94952" lon="4.89918">
        <ele>284</ele>
        <time>2016-09-14T10:26:58Z</time>
      </trkpt>
      <trkpt lat="45.94948" lon="4.89913">
        <ele>284</ele>
        <time>2016-09-14T10:26:59Z</time>
      </trkpt>
      <trkpt lat="45.94944" lon="4.89908">
        <ele>284</ele>
        <time>2016-09-14T10:27:00Z</time>
      </trkpt>
      <trkpt lat="45.9494" lon="4.89903">
        <ele>284</ele>
        <time>2016-09-14T10:27:01Z</time>
      </trkpt>
      <trkpt lat="45.94937" lon="4.89897">
        <ele>284</ele>
        <time>2016-09-14T10:27:02Z</time>
      </trkpt>
      <trkpt lat="45.94934" lon="4.8989">
        <ele>284</ele>
        <time>2016-09-14T10:27:03Z</time>
      </trkpt>
      <trkpt lat="45.94931" lon="4.89883">
        <ele>284</ele>
        <time>2016-09-14T10:27:04Z</time>
      </trkpt>
      <trkpt lat="45.94929" lon="4.89875">
        <ele>284</ele>
        <time>2016-09-14T10:27:05Z</time>
      </trkpt>
      <trkpt lat="45.94928" lon="4.89867">
        <ele>284</ele>
        <time>2016-09-14T10:27:06Z</time>
      </trkpt>
      <trkpt lat="45.94927" lon="4.89859">
        <ele>284</ele>
        <time>2016-09-14T10:27:07Z</time>
      </trkpt>
      <trkpt lat="45.94926" lon="4.89851">
        <ele>284</ele>
        <time>2016-09-14T10:27:08Z</time>
      </trkpt>
      <trkpt lat="45.94925" lon="4.89842">
        <ele>284</ele>
        <time>2016-09-14T10:27:09Z</time>
      </trkpt>
      <trkpt lat="45.94925" lon="4.89833">
        <ele>284</ele>
        <time>2016-09-14T10:27:10Z</time>
      </trkpt>
      <trkpt lat="45.94926" lon="4.89824">
        <ele>284</ele>
        <time>2016-09-14T10:27:11Z</time>
      </trkpt>
      <trkpt lat="45.94927" lon="4.89816">
        <ele>284</ele>
        <time>2016-09-14T10:27:12Z</time>
      </trkpt>
      <trkpt lat="45.94928" lon="4.89808">
        <ele>284</ele>
        <time>2016-09-14T10:27:13Z</time>
      </trkpt>
      <trkpt lat="45.9493" lon="4.898">
        <ele>284</ele>
        <time>2016-09-14T10:27:14Z</time>
      </trkpt>
      <trkpt lat="45.94931" lon="4.89792">
        <ele>284</ele>
        <time>2016-09-14T10:27:15Z</time>
      </trkpt>
      <trkpt lat="45.94933" lon="4.89785">
        <ele>284</ele>
        <time>2016-09-14T10:27:16Z</time>
      </trkpt>
      <trkpt lat="45.94935" lon="4.89778">
        <ele>284</ele>
        <time>2016-09-14T10:27:17Z</time>
      </trkpt>
      <trkpt lat="45.94936" lon="4.89771">
        <ele>284</ele>
        <time>2016-09-14T10:27:18Z</time>
      </trkpt>
      <trkpt lat="45.94938" lon="4.89763">
        <ele>284</ele>
        <time>2016-09-14T10:27:19Z</time>
      </trkpt>
      <trkpt lat="45.9494" lon="4.89756">
        <ele>284</ele>
        <time>2016-09-14T10:27:20Z</time>
      </trkpt>
      <trkpt lat="45.94941" lon="4.89749">
        <ele>284</ele>
        <time>2016-09-14T10:27:21Z</time>
      </trkpt>
      <trkpt lat="45.94943" lon="4.89741">
        <ele>284</ele>
        <time>2016-09-14T10:27:22Z</time>
      </trkpt>
      <trkpt lat="45.94945" lon="4.89734">
        <ele>284</ele>
        <time>2016-09-14T10:27:23Z</time>
      </trkpt>
      <trkpt lat="45.94947" lon="4.89726">
        <ele>284</ele>
        <time>2016-09-14T10:27:24Z</time>
      </trkpt>
      <trkpt lat="45.9495" lon="4.89719">
        <ele>284</ele>
        <time>2016-09-14T10:27:25Z</time>
      </trkpt>
      <trkpt lat="45.94952" lon="4.89711">
        <ele>284</ele>
        <time>2016-09-14T10:27:26Z</time>
      </trkpt>
      <trkpt lat="45.94954" lon="4.89703">
        <ele>284</ele>
        <time>2016-09-14T10:27:27Z</time>
      </trkpt>
      <trkpt lat="45.94957" lon="4.89695">
        <ele>284</ele>
        <time>2016-09-14T10:27:28Z</time>
      </trkpt>
      <trkpt lat="45.94958" lon="4.89687">
        <ele>284</ele>
        <time>2016-09-14T10:27:29Z</time>
      </trkpt>
      <trkpt lat="45.94961" lon="4.89678">
        <ele>284</ele>
        <time>2016-09-14T10:27:30Z</time>
      </trkpt>
      <trkpt lat="45.94963" lon="4.8967">
        <ele>284</ele>
        <time>2016-09-14T10:27:31Z</time>
      </trkpt>
      <trkpt lat="45.94965" lon="4.89662">
        <ele>285</ele>
        <time>2016-09-14T10:27:32Z</time>
      </trkpt>
      <trkpt lat="45.94967" lon="4.89654">
        <ele>285</ele>
        <time>2016-09-14T10:27:33Z</time>
      </trkpt>
      <trkpt lat="45.9497" lon="4.89646">
        <ele>285</ele>
        <time>2016-09-14T10:27:34Z</time>
      </trkpt>
      <trkpt lat="45.94972" lon="4.89638">
        <ele>285</ele>
        <time>2016-09-14T10:27:35Z</time>
      </trkpt>
      <trkpt lat="45.94974" lon="4.89631">
        <ele>285</ele>
        <time>2016-09-14T10:27:36Z</time>
      </trkpt>
      <trkpt lat="45.94976" lon="4.89623">
        <ele>285</ele>
        <time>2016-09-14T10:27:37Z</time>
      </trkpt>
      <trkpt lat="45.94978" lon="4.89615">
        <ele>285</ele>
        <time>2016-09-14T10:27:38Z</time>
      </trkpt>
      <trkpt lat="45.9498" lon="4.89607">
        <ele>285</ele>
        <time>2016-09-14T10:27:39Z</time>
      </trkpt>
      <trkpt lat="45.94982" lon="4.896">
        <ele>285</ele>
        <time>2016-09-14T10:27:40Z</time>
      </trkpt>
      <trkpt lat="45.94984" lon="4.89593">
        <ele>284</ele>
        <time>2016-09-14T10:27:41Z</time>
      </trkpt>
      <trkpt lat="45.94986" lon="4.89586">
        <ele>284</ele>
        <time>2016-09-14T10:27:42Z</time>
      </trkpt>
      <trkpt lat="45.94988" lon="4.89579">
        <ele>284</ele>
        <time>2016-09-14T10:27:43Z</time>
      </trkpt>
      <trkpt lat="45.94991" lon="4.89571">
        <ele>284</ele>
        <time>2016-09-14T10:27:44Z</time>
      </trkpt>
      <trkpt lat="45.94993" lon="4.89562">
        <ele>284</ele>
        <time>2016-09-14T10:27:45Z</time>
      </trkpt>
      <trkpt lat="45.94995" lon="4.89553">
        <ele>284</ele>
        <time>2016-09-14T10:27:46Z</time>
      </trkpt>
      <trkpt lat="45.94998" lon="4.89545">
        <ele>284</ele>
        <time>2016-09-14T10:27:47Z</time>
      </trkpt>
      <trkpt lat="45.95002" lon="4.89537">
        <ele>283</ele>
        <time>2016-09-14T10:27:48Z</time>
      </trkpt>
      <trkpt lat="45.95006" lon="4.8953">
        <ele>283</ele>
        <time>2016-09-14T10:27:49Z</time>
      </trkpt>
      <trkpt lat="45.95011" lon="4.89525">
        <ele>283</ele>
        <time>2016-09-14T10:27:50Z</time>
      </trkpt>
      <trkpt lat="45.95016" lon="4.89522">
        <ele>283</ele>
        <time>2016-09-14T10:27:51Z</time>
      </trkpt>
      <trkpt lat="45.95022" lon="4.89519">
        <ele>283</ele>
        <time>2016-09-14T10:27:52Z</time>
      </trkpt>
      <trkpt lat="45.95028" lon="4.89516">
        <ele>283</ele>
        <time>2016-09-14T10:27:53Z</time>
      </trkpt>
      <trkpt lat="45.95034" lon="4.89515">
        <ele>283</ele>
        <time>2016-09-14T10:27:54Z</time>
      </trkpt>
      <trkpt lat="45.9504" lon="4.89514">
        <ele>283</ele>
        <time>2016-09-14T10:27:55Z</time>
      </trkpt>
      <trkpt lat="45.95047" lon="4.89513">
        <ele>283</ele>
        <time>2016-09-14T10:27:56Z</time>
      </trkpt>
      <trkpt lat="45.95052" lon="4.89512">
        <ele>283</ele>
        <time>2016-09-14T10:27:57Z</time>
      </trkpt>
      <trkpt lat="45.95058" lon="4.8951">
        <ele>282</ele>
        <time>2016-09-14T10:27:58Z</time>
      </trkpt>
      <trkpt lat="45.95064" lon="4.89509">
        <ele>282</ele>
        <time>2016-09-14T10:27:59Z</time>
      </trkpt>
      <trkpt lat="45.9507" lon="4.89507">
        <ele>282</ele>
        <time>2016-09-14T10:28:00Z</time>
      </trkpt>
      <trkpt lat="45.95075" lon="4.89504">
        <ele>282</ele>
        <time>2016-09-14T10:28:01Z</time>
      </trkpt>
      <trkpt lat="45.9508" lon="4.895">
        <ele>282</ele>
        <time>2016-09-14T10:28:02Z</time>
      </trkpt>
      <trkpt lat="45.95084" lon="4.89494">
        <ele>282</ele>
        <time>2016-09-14T10:28:03Z</time>
      </trkpt>
      <trkpt lat="45.95086" lon="4.89485">
        <ele>282</ele>
        <time>2016-09-14T10:28:04Z</time>
      </trkpt>
      <trkpt lat="45.95087" lon="4.89476">
        <ele>282</ele>
        <time>2016-09-14T10:28:05Z</time>
      </trkpt>
      <trkpt lat="45.95086" lon="4.89468">
        <ele>282</ele>
        <time>2016-09-14T10:28:06Z</time>
      </trkpt>
      <trkpt lat="45.95084" lon="4.8946">
        <ele>282</ele>
        <time>2016-09-14T10:28:07Z</time>
      </trkpt>
      <trkpt lat="45.95082" lon="4.89452">
        <ele>282</ele>
        <time>2016-09-14T10:28:08Z</time>
      </trkpt>
      <trkpt lat="45.9508" lon="4.89443">
        <ele>282</ele>
        <time>2016-09-14T10:28:09Z</time>
      </trkpt>
      <trkpt lat="45.95079" lon="4.89434">
        <ele>282</ele>
        <time>2016-09-14T10:28:10Z</time>
      </trkpt>
      <trkpt lat="45.95077" lon="4.89426">
        <ele>282</ele>
        <time>2016-09-14T10:28:11Z</time>
      </trkpt>
      <trkpt lat="45.95076" lon="4.89417">
        <ele>282</ele>
        <time>2016-09-14T10:28:12Z</time>
      </trkpt>
      <trkpt lat="45.95075" lon="4.89409">
        <ele>282</ele>
        <time>2016-09-14T10:28:13Z</time>
      </trkpt>
      <trkpt lat="45.95074" lon="4.89401">
        <ele>283</ele>
        <time>2016-09-14T10:28:14Z</time>
      </trkpt>
      <trkpt lat="45.95073" lon="4.89393">
        <ele>283</ele>
        <time>2016-09-14T10:28:15Z</time>
      </trkpt>
      <trkpt lat="45.95073" lon="4.89386">
        <ele>283</ele>
        <time>2016-09-14T10:28:16Z</time>
      </trkpt>
      <trkpt lat="45.95073" lon="4.89378">
        <ele>283</ele>
        <time>2016-09-14T10:28:17Z</time>
      </trkpt>
      <trkpt lat="45.95073" lon="4.8937">
        <ele>283</ele>
        <time>2016-09-14T10:28:18Z</time>
      </trkpt>
      <trkpt lat="45.95073" lon="4.89362">
        <ele>283</ele>
        <time>2016-09-14T10:28:19Z</time>
      </trkpt>
      <trkpt lat="45.95073" lon="4.89353">
        <ele>283</ele>
        <time>2016-09-14T10:28:20Z</time>
      </trkpt>
      <trkpt lat="45.95072" lon="4.89345">
        <ele>283</ele>
        <time>2016-09-14T10:28:21Z</time>
      </trkpt>
      <trkpt lat="45.95072" lon="4.89336">
        <ele>283</ele>
        <time>2016-09-14T10:28:22Z</time>
      </trkpt>
      <trkpt lat="45.95072" lon="4.89328">
        <ele>283</ele>
        <time>2016-09-14T10:28:23Z</time>
      </trkpt>
      <trkpt lat="45.95072" lon="4.8932">
        <ele>283</ele>
        <time>2016-09-14T10:28:24Z</time>
      </trkpt>
      <trkpt lat="45.95072" lon="4.89312">
        <ele>283</ele>
        <time>2016-09-14T10:28:25Z</time>
      </trkpt>
      <trkpt lat="45.95073" lon="4.89305">
        <ele>283</ele>
        <time>2016-09-14T10:28:26Z</time>
      </trkpt>
      <trkpt lat="45.95073" lon="4.89298">
        <ele>283</ele>
        <time>2016-09-14T10:28:27Z</time>
      </trkpt>
      <trkpt lat="45.95073" lon="4.8929">
        <ele>283</ele>
        <time>2016-09-14T10:28:28Z</time>
      </trkpt>
      <trkpt lat="45.95073" lon="4.89283">
        <ele>283</ele>
        <time>2016-09-14T10:28:29Z</time>
      </trkpt>
      <trkpt lat="45.95073" lon="4.89275">
        <ele>283</ele>
        <time>2016-09-14T10:28:30Z</time>
      </trkpt>
      <trkpt lat="45.95074" lon="4.89268">
        <ele>283</ele>
        <time>2016-09-14T10:28:31Z</time>
      </trkpt>
      <trkpt lat="45.95074" lon="4.8926">
        <ele>283</ele>
        <time>2016-09-14T10:28:32Z</time>
      </trkpt>
      <trkpt lat="45.95075" lon="4.89252">
        <ele>283</ele>
        <time>2016-09-14T10:28:33Z</time>
      </trkpt>
      <trkpt lat="45.95075" lon="4.89244">
        <ele>283</ele>
        <time>2016-09-14T10:28:34Z</time>
      </trkpt>
      <trkpt lat="45.95075" lon="4.89235">
        <ele>284</ele>
        <time>2016-09-14T10:28:35Z</time>
      </trkpt>
      <trkpt lat="45.95075" lon="4.89227">
        <ele>284</ele>
        <time>2016-09-14T10:28:36Z</time>
      </trkpt>
      <trkpt lat="45.95076" lon="4.89218">
        <ele>284</ele>
        <time>2016-09-14T10:28:37Z</time>
      </trkpt>
      <trkpt lat="45.95076" lon="4.89209">
        <ele>284</ele>
        <time>2016-09-14T10:28:38Z</time>
      </trkpt>
      <trkpt lat="45.95076" lon="4.89201">
        <ele>284</ele>
        <time>2016-09-14T10:28:39Z</time>
      </trkpt>
      <trkpt lat="45.95075" lon="4.89193">
        <ele>284</ele>
        <time>2016-09-14T10:28:40Z</time>
      </trkpt>
      <trkpt lat="45.95076" lon="4.89186">
        <ele>284</ele>
        <time>2016-09-14T10:28:41Z</time>
      </trkpt>
      <trkpt lat="45.95076" lon="4.89179">
        <ele>284</ele>
        <time>2016-09-14T10:28:42Z</time>
      </trkpt>
      <trkpt lat="45.95077" lon="4.89171">
        <ele>284</ele>
        <time>2016-09-14T10:28:43Z</time>
      </trkpt>
      <trkpt lat="45.95077" lon="4.89163">
        <ele>284</ele>
        <time>2016-09-14T10:28:44Z</time>
      </trkpt>
      <trkpt lat="45.95079" lon="4.89156">
        <ele>284</ele>
        <time>2016-09-14T10:28:45Z</time>
      </trkpt>
      <trkpt lat="45.95079" lon="4.89148">
        <ele>284</ele>
        <time>2016-09-14T10:28:46Z</time>
      </trkpt>
      <trkpt lat="45.95079" lon="4.8914">
        <ele>285</ele>
        <time>2016-09-14T10:28:47Z</time>
      </trkpt>
      <trkpt lat="45.95081" lon="4.89132">
        <ele>285</ele>
        <time>2016-09-14T10:28:48Z</time>
      </trkpt>
      <trkpt lat="45.95082" lon="4.89124">
        <ele>285</ele>
        <time>2016-09-14T10:28:49Z</time>
      </trkpt>
      <trkpt lat="45.95083" lon="4.89117">
        <ele>285</ele>
        <time>2016-09-14T10:28:50Z</time>
      </trkpt>
      <trkpt lat="45.95084" lon="4.89109">
        <ele>283</ele>
        <time>2016-09-14T10:28:51Z</time>
      </trkpt>
      <trkpt lat="45.95087" lon="4.89101">
        <ele>283</ele>
        <time>2016-09-14T10:28:52Z</time>
      </trkpt>
      <trkpt lat="45.95088" lon="4.89095">
        <ele>284</ele>
        <time>2016-09-14T10:28:53Z</time>
      </trkpt>
      <trkpt lat="45.95088" lon="4.89087">
        <ele>284</ele>
        <time>2016-09-14T10:28:54Z</time>
      </trkpt>
      <trkpt lat="45.95089" lon="4.8908">
        <ele>284</ele>
        <time>2016-09-14T10:28:55Z</time>
      </trkpt>
      <trkpt lat="45.9509" lon="4.89071">
        <ele>284</ele>
        <time>2016-09-14T10:28:56Z</time>
      </trkpt>
      <trkpt lat="45.95091" lon="4.89063">
        <ele>284</ele>
        <time>2016-09-14T10:28:57Z</time>
      </trkpt>
      <trkpt lat="45.95092" lon="4.89053">
        <ele>284</ele>
        <time>2016-09-14T10:28:58Z</time>
      </trkpt>
      <trkpt lat="45.95093" lon="4.89045">
        <ele>284</ele>
        <time>2016-09-14T10:28:59Z</time>
      </trkpt>
      <trkpt lat="45.95093" lon="4.89038">
        <ele>284</ele>
        <time>2016-09-14T10:29:00Z</time>
      </trkpt>
      <trkpt lat="45.95093" lon="4.89031">
        <ele>284</ele>
        <time>2016-09-14T10:29:01Z</time>
      </trkpt>
      <trkpt lat="45.95094" lon="4.89019">
        <ele>284</ele>
        <time>2016-09-14T10:29:03Z</time>
      </trkpt>
      <trkpt lat="45.95095" lon="4.89012">
        <ele>284</ele>
        <time>2016-09-14T10:29:04Z</time>
      </trkpt>
      <trkpt lat="45.95095" lon="4.89006">
        <ele>284</ele>
        <time>2016-09-14T10:29:05Z</time>
      </trkpt>
      <trkpt lat="45.95095" lon="4.88999">
        <ele>285</ele>
        <time>2016-09-14T10:29:06Z</time>
      </trkpt>
      <trkpt lat="45.95096" lon="4.88992">
        <ele>285</ele>
        <time>2016-09-14T10:29:07Z</time>
      </trkpt>
      <trkpt lat="45.95096" lon="4.88985">
        <ele>285</ele>
        <time>2016-09-14T10:29:08Z</time>
      </trkpt>
      <trkpt lat="45.95096" lon="4.88978">
        <ele>284</ele>
        <time>2016-09-14T10:29:09Z</time>
      </trkpt>
      <trkpt lat="45.95096" lon="4.8897">
        <ele>284</ele>
        <time>2016-09-14T10:29:10Z</time>
      </trkpt>
      <trkpt lat="45.95097" lon="4.88962">
        <ele>284</ele>
        <time>2016-09-14T10:29:11Z</time>
      </trkpt>
      <trkpt lat="45.95097" lon="4.88955">
        <ele>284</ele>
        <time>2016-09-14T10:29:12Z</time>
      </trkpt>
      <trkpt lat="45.95098" lon="4.88947">
        <ele>285</ele>
        <time>2016-09-14T10:29:13Z</time>
      </trkpt>
      <trkpt lat="45.95098" lon="4.8894">
        <ele>285</ele>
        <time>2016-09-14T10:29:14Z</time>
      </trkpt>
      <trkpt lat="45.95099" lon="4.88934">
        <ele>285</ele>
        <time>2016-09-14T10:29:15Z</time>
      </trkpt>
      <trkpt lat="45.951" lon="4.88927">
        <ele>285</ele>
        <time>2016-09-14T10:29:16Z</time>
      </trkpt>
      <trkpt lat="45.951" lon="4.8892">
        <ele>285</ele>
        <time>2016-09-14T10:29:17Z</time>
      </trkpt>
      <trkpt lat="45.95101" lon="4.88913">
        <ele>285</ele>
        <time>2016-09-14T10:29:18Z</time>
      </trkpt>
      <trkpt lat="45.95102" lon="4.88907">
        <ele>285</ele>
        <time>2016-09-14T10:29:19Z</time>
      </trkpt>
      <trkpt lat="45.95102" lon="4.88899">
        <ele>285</ele>
        <time>2016-09-14T10:29:20Z</time>
      </trkpt>
      <trkpt lat="45.95103" lon="4.88892">
        <ele>285</ele>
        <time>2016-09-14T10:29:21Z</time>
      </trkpt>
      <trkpt lat="45.95103" lon="4.88884">
        <ele>285</ele>
        <time>2016-09-14T10:29:22Z</time>
      </trkpt>
      <trkpt lat="45.95104" lon="4.88875">
        <ele>285</ele>
        <time>2016-09-14T10:29:23Z</time>
      </trkpt>
      <trkpt lat="45.95104" lon="4.88868">
        <ele>285</ele>
        <time>2016-09-14T10:29:24Z</time>
      </trkpt>
      <trkpt lat="45.95104" lon="4.88862">
        <ele>285</ele>
        <time>2016-09-14T10:29:25Z</time>
      </trkpt>
      <trkpt lat="45.95104" lon="4.88855">
        <ele>285</ele>
        <time>2016-09-14T10:29:26Z</time>
      </trkpt>
      <trkpt lat="45.95106" lon="4.88843">
        <ele>285</ele>
        <time>2016-09-14T10:29:28Z</time>
      </trkpt>
      <trkpt lat="45.95106" lon="4.88837">
        <ele>285</ele>
        <time>2016-09-14T10:29:29Z</time>
      </trkpt>
      <trkpt lat="45.95106" lon="4.88831">
        <ele>286</ele>
        <time>2016-09-14T10:29:30Z</time>
      </trkpt>
      <trkpt lat="45.95106" lon="4.88823">
        <ele>286</ele>
        <time>2016-09-14T10:29:31Z</time>
      </trkpt>
      <trkpt lat="45.95106" lon="4.88816">
        <ele>286</ele>
        <time>2016-09-14T10:29:32Z</time>
      </trkpt>
      <trkpt lat="45.95107" lon="4.88808">
        <ele>286</ele>
        <time>2016-09-14T10:29:33Z</time>
      </trkpt>
      <trkpt lat="45.95107" lon="4.88801">
        <ele>286</ele>
        <time>2016-09-14T10:29:34Z</time>
      </trkpt>
      <trkpt lat="45.95108" lon="4.88794">
        <ele>286</ele>
        <time>2016-09-14T10:29:35Z</time>
      </trkpt>
      <trkpt lat="45.95109" lon="4.88786">
        <ele>287</ele>
        <time>2016-09-14T10:29:36Z</time>
      </trkpt>
      <trkpt lat="45.9511" lon="4.88779">
        <ele>287</ele>
        <time>2016-09-14T10:29:37Z</time>
      </trkpt>
      <trkpt lat="45.9511" lon="4.88772">
        <ele>287</ele>
        <time>2016-09-14T10:29:38Z</time>
      </trkpt>
      <trkpt lat="45.95109" lon="4.88765">
        <ele>287</ele>
        <time>2016-09-14T10:29:39Z</time>
      </trkpt>
      <trkpt lat="45.95109" lon="4.88758">
        <ele>287</ele>
        <time>2016-09-14T10:29:40Z</time>
      </trkpt>
      <trkpt lat="45.95109" lon="4.88751">
        <ele>287</ele>
        <time>2016-09-14T10:29:41Z</time>
      </trkpt>
      <trkpt lat="45.95108" lon="4.88744">
        <ele>288</ele>
        <time>2016-09-14T10:29:42Z</time>
      </trkpt>
      <trkpt lat="45.95108" lon="4.88737">
        <ele>288</ele>
        <time>2016-09-14T10:29:43Z</time>
      </trkpt>
      <trkpt lat="45.95108" lon="4.88731">
        <ele>288</ele>
        <time>2016-09-14T10:29:44Z</time>
      </trkpt>
      <trkpt lat="45.95108" lon="4.88724">
        <ele>289</ele>
        <time>2016-09-14T10:29:45Z</time>
      </trkpt>
      <trkpt lat="45.95108" lon="4.88712">
        <ele>289</ele>
        <time>2016-09-14T10:29:47Z</time>
      </trkpt>
      <trkpt lat="45.95108" lon="4.88705">
        <ele>289</ele>
        <time>2016-09-14T10:29:48Z</time>
      </trkpt>
      <trkpt lat="45.95107" lon="4.88693">
        <ele>289</ele>
        <time>2016-09-14T10:29:50Z</time>
      </trkpt>
      <trkpt lat="45.95107" lon="4.88687">
        <ele>289</ele>
        <time>2016-09-14T10:29:51Z</time>
      </trkpt>
      <trkpt lat="45.95107" lon="4.88675">
        <ele>289</ele>
        <time>2016-09-14T10:29:53Z</time>
      </trkpt>
      <trkpt lat="45.95107" lon="4.88669">
        <ele>289</ele>
        <time>2016-09-14T10:29:54Z</time>
      </trkpt>
      <trkpt lat="45.95107" lon="4.88658">
        <ele>290</ele>
        <time>2016-09-14T10:29:56Z</time>
      </trkpt>
      <trkpt lat="45.95108" lon="4.88652">
        <ele>290</ele>
        <time>2016-09-14T10:29:57Z</time>
      </trkpt>
      <trkpt lat="45.95108" lon="4.88641">
        <ele>290</ele>
        <time>2016-09-14T10:29:59Z</time>
      </trkpt>
      <trkpt lat="45.95108" lon="4.88636">
        <ele>290</ele>
        <time>2016-09-14T10:30:00Z</time>
      </trkpt>
      <trkpt lat="45.95109" lon="4.88625">
        <ele>290</ele>
        <time>2016-09-14T10:30:02Z</time>
      </trkpt>
      <trkpt lat="45.95109" lon="4.88619">
        <ele>290</ele>
        <time>2016-09-14T10:30:03Z</time>
      </trkpt>
      <trkpt lat="45.95111" lon="4.88608">
        <ele>290</ele>
        <time>2016-09-14T10:30:05Z</time>
      </trkpt>
      <trkpt lat="45.95111" lon="4.88603">
        <ele>290</ele>
        <time>2016-09-14T10:30:06Z</time>
      </trkpt>
      <trkpt lat="45.95111" lon="4.88591">
        <ele>290</ele>
        <time>2016-09-14T10:30:08Z</time>
      </trkpt>
      <trkpt lat="45.95111" lon="4.88586">
        <ele>290</ele>
        <time>2016-09-14T10:30:09Z</time>
      </trkpt>
      <trkpt lat="45.95111" lon="4.88575">
        <ele>291</ele>
        <time>2016-09-14T10:30:11Z</time>
      </trkpt>
      <trkpt lat="45.95111" lon="4.88569">
        <ele>291</ele>
        <time>2016-09-14T10:30:12Z</time>
      </trkpt>
      <trkpt lat="45.9511" lon="4.88557">
        <ele>291</ele>
        <time>2016-09-14T10:30:14Z</time>
      </trkpt>
      <trkpt lat="45.95109" lon="4.8855">
        <ele>291</ele>
        <time>2016-09-14T10:30:15Z</time>
      </trkpt>
      <trkpt lat="45.95109" lon="4.88543">
        <ele>291</ele>
        <time>2016-09-14T10:30:16Z</time>
      </trkpt>
      <trkpt lat="45.95108" lon="4.88537">
        <ele>291</ele>
        <time>2016-09-14T10:30:17Z</time>
      </trkpt>
      <trkpt lat="45.95106" lon="4.88531">
        <ele>291</ele>
        <time>2016-09-14T10:30:18Z</time>
      </trkpt>
      <trkpt lat="45.95105" lon="4.88525">
        <ele>291</ele>
        <time>2016-09-14T10:30:19Z</time>
      </trkpt>
      <trkpt lat="45.95104" lon="4.88519">
        <ele>291</ele>
        <time>2016-09-14T10:30:20Z</time>
      </trkpt>
      <trkpt lat="45.95102" lon="4.88512">
        <ele>290</ele>
        <time>2016-09-14T10:30:21Z</time>
      </trkpt>
      <trkpt lat="45.951" lon="4.885">
        <ele>290</ele>
        <time>2016-09-14T10:30:23Z</time>
      </trkpt>
      <trkpt lat="45.95099" lon="4.88495">
        <ele>291</ele>
        <time>2016-09-14T10:30:24Z</time>
      </trkpt>
      <trkpt lat="45.95097" lon="4.88486">
        <ele>291</ele>
        <time>2016-09-14T10:30:26Z</time>
      </trkpt>
      <trkpt lat="45.95095" lon="4.8848">
        <ele>291</ele>
        <time>2016-09-14T10:30:27Z</time>
      </trkpt>
      <trkpt lat="45.95095" lon="4.88469">
        <ele>291</ele>
        <time>2016-09-14T10:30:29Z</time>
      </trkpt>
      <trkpt lat="45.95095" lon="4.88462">
        <ele>291</ele>
        <time>2016-09-14T10:30:30Z</time>
      </trkpt>
      <trkpt lat="45.95095" lon="4.88455">
        <ele>291</ele>
        <time>2016-09-14T10:30:31Z</time>
      </trkpt>
      <trkpt lat="45.95095" lon="4.88448">
        <ele>291</ele>
        <time>2016-09-14T10:30:32Z</time>
      </trkpt>
      <trkpt lat="45.95097" lon="4.8844">
        <ele>291</ele>
        <time>2016-09-14T10:30:33Z</time>
      </trkpt>
      <trkpt lat="45.95098" lon="4.88433">
        <ele>291</ele>
        <time>2016-09-14T10:30:34Z</time>
      </trkpt>
      <trkpt lat="45.95101" lon="4.88421">
        <ele>291</ele>
        <time>2016-09-14T10:30:36Z</time>
      </trkpt>
      <trkpt lat="45.95102" lon="4.88415">
        <ele>290</ele>
        <time>2016-09-14T10:30:37Z</time>
      </trkpt>
      <trkpt lat="45.95104" lon="4.88404">
        <ele>290</ele>
        <time>2016-09-14T10:30:39Z</time>
      </trkpt>
      <trkpt lat="45.95105" lon="4.88398">
        <ele>291</ele>
        <time>2016-09-14T10:30:40Z</time>
      </trkpt>
      <trkpt lat="45.95106" lon="4.88385">
        <ele>290</ele>
        <time>2016-09-14T10:30:42Z</time>
      </trkpt>
      <trkpt lat="45.95107" lon="4.88379">
        <ele>290</ele>
        <time>2016-09-14T10:30:43Z</time>
      </trkpt>
      <trkpt lat="45.95108" lon="4.88373">
        <ele>290</ele>
        <time>2016-09-14T10:30:44Z</time>
      </trkpt>
      <trkpt lat="45.95109" lon="4.88366">
        <ele>290</ele>
        <time>2016-09-14T10:30:45Z</time>
      </trkpt>
      <trkpt lat="45.95109" lon="4.88359">
        <ele>290</ele>
        <time>2016-09-14T10:30:46Z</time>
      </trkpt>
      <trkpt lat="45.95111" lon="4.88351">
        <ele>290</ele>
        <time>2016-09-14T10:30:47Z</time>
      </trkpt>
      <trkpt lat="45.95113" lon="4.88344">
        <ele>290</ele>
        <time>2016-09-14T10:30:48Z</time>
      </trkpt>
      <trkpt lat="45.95114" lon="4.88336">
        <ele>290</ele>
        <time>2016-09-14T10:30:49Z</time>
      </trkpt>
      <trkpt lat="45.95116" lon="4.88328">
        <ele>289</ele>
        <time>2016-09-14T10:30:50Z</time>
      </trkpt>
      <trkpt lat="45.95118" lon="4.8832">
        <ele>289</ele>
        <time>2016-09-14T10:30:51Z</time>
      </trkpt>
      <trkpt lat="45.9512" lon="4.88311">
        <ele>289</ele>
        <time>2016-09-14T10:30:52Z</time>
      </trkpt>
      <trkpt lat="45.95121" lon="4.88303">
        <ele>289</ele>
        <time>2016-09-14T10:30:53Z</time>
      </trkpt>
      <trkpt lat="45.95122" lon="4.88294">
        <ele>289</ele>
        <time>2016-09-14T10:30:54Z</time>
      </trkpt>
      <trkpt lat="45.95123" lon="4.88285">
        <ele>289</ele>
        <time>2016-09-14T10:30:55Z</time>
      </trkpt>
      <trkpt lat="45.95125" lon="4.88274">
        <ele>289</ele>
        <time>2016-09-14T10:30:56Z</time>
      </trkpt>
      <trkpt lat="45.95126" lon="4.88266">
        <ele>289</ele>
        <time>2016-09-14T10:30:57Z</time>
      </trkpt>
      <trkpt lat="45.95126" lon="4.88257">
        <ele>289</ele>
        <time>2016-09-14T10:30:58Z</time>
      </trkpt>
      <trkpt lat="45.95125" lon="4.88249">
        <ele>287</ele>
        <time>2016-09-14T10:30:59Z</time>
      </trkpt>
      <trkpt lat="45.95125" lon="4.88241">
        <ele>287</ele>
        <time>2016-09-14T10:31:00Z</time>
      </trkpt>
      <trkpt lat="45.95125" lon="4.88234">
        <ele>287</ele>
        <time>2016-09-14T10:31:01Z</time>
      </trkpt>
      <trkpt lat="45.95125" lon="4.88226">
        <ele>287</ele>
        <time>2016-09-14T10:31:02Z</time>
      </trkpt>
      <trkpt lat="45.95126" lon="4.88218">
        <ele>287</ele>
        <time>2016-09-14T10:31:03Z</time>
      </trkpt>
      <trkpt lat="45.95129" lon="4.88209">
        <ele>287</ele>
        <time>2016-09-14T10:31:04Z</time>
      </trkpt>
      <trkpt lat="45.95132" lon="4.88201">
        <ele>287</ele>
        <time>2016-09-14T10:31:05Z</time>
      </trkpt>
      <trkpt lat="45.95137" lon="4.88194">
        <ele>287</ele>
        <time>2016-09-14T10:31:06Z</time>
      </trkpt>
      <trkpt lat="45.95142" lon="4.88189">
        <ele>286</ele>
        <time>2016-09-14T10:31:07Z</time>
      </trkpt>
      <trkpt lat="45.95146" lon="4.88183">
        <ele>286</ele>
        <time>2016-09-14T10:31:08Z</time>
      </trkpt>
      <trkpt lat="45.95151" lon="4.88179">
        <ele>286</ele>
        <time>2016-09-14T10:31:09Z</time>
      </trkpt>
      <trkpt lat="45.95157" lon="4.88177">
        <ele>286</ele>
        <time>2016-09-14T10:31:10Z</time>
      </trkpt>
      <trkpt lat="45.95161" lon="4.88174">
        <ele>286</ele>
        <time>2016-09-14T10:31:11Z</time>
      </trkpt>
      <trkpt lat="45.95166" lon="4.8817">
        <ele>285</ele>
        <time>2016-09-14T10:31:12Z</time>
      </trkpt>
      <trkpt lat="45.95169" lon="4.88164">
        <ele>285</ele>
        <time>2016-09-14T10:31:13Z</time>
      </trkpt>
      <trkpt lat="45.95172" lon="4.88157">
        <ele>284</ele>
        <time>2016-09-14T10:31:14Z</time>
      </trkpt>
      <trkpt lat="45.95173" lon="4.88148">
        <ele>283</ele>
        <time>2016-09-14T10:31:15Z</time>
      </trkpt>
      <trkpt lat="45.95174" lon="4.88141">
        <ele>283</ele>
        <time>2016-09-14T10:31:16Z</time>
      </trkpt>
      <trkpt lat="45.95176" lon="4.88133">
        <ele>283</ele>
        <time>2016-09-14T10:31:17Z</time>
      </trkpt>
      <trkpt lat="45.95178" lon="4.88125">
        <ele>282</ele>
        <time>2016-09-14T10:31:18Z</time>
      </trkpt>
      <trkpt lat="45.9518" lon="4.88118">
        <ele>282</ele>
        <time>2016-09-14T10:31:19Z</time>
      </trkpt>
      <trkpt lat="45.95181" lon="4.8811">
        <ele>282</ele>
        <time>2016-09-14T10:31:20Z</time>
      </trkpt>
      <trkpt lat="45.95183" lon="4.88103">
        <ele>282</ele>
        <time>2016-09-14T10:31:21Z</time>
      </trkpt>
      <trkpt lat="45.95185" lon="4.88095">
        <ele>282</ele>
        <time>2016-09-14T10:31:22Z</time>
      </trkpt>
      <trkpt lat="45.95187" lon="4.88087">
        <ele>282</ele>
        <time>2016-09-14T10:31:23Z</time>
      </trkpt>
      <trkpt lat="45.95189" lon="4.88079">
        <ele>281</ele>
        <time>2016-09-14T10:31:24Z</time>
      </trkpt>
      <trkpt lat="45.95191" lon="4.88071">
        <ele>281</ele>
        <time>2016-09-14T10:31:25Z</time>
      </trkpt>
      <trkpt lat="45.95193" lon="4.88063">
        <ele>281</ele>
        <time>2016-09-14T10:31:26Z</time>
      </trkpt>
      <trkpt lat="45.95196" lon="4.88055">
        <ele>281</ele>
        <time>2016-09-14T10:31:27Z</time>
      </trkpt>
      <trkpt lat="45.95199" lon="4.88046">
        <ele>281</ele>
        <time>2016-09-14T10:31:28Z</time>
      </trkpt>
      <trkpt lat="45.95203" lon="4.88039">
        <ele>281</ele>
        <time>2016-09-14T10:31:29Z</time>
      </trkpt>
      <trkpt lat="45.95207" lon="4.88031">
        <ele>281</ele>
        <time>2016-09-14T10:31:30Z</time>
      </trkpt>
      <trkpt lat="45.95212" lon="4.88024">
        <ele>281</ele>
        <time>2016-09-14T10:31:31Z</time>
      </trkpt>
      <trkpt lat="45.95217" lon="4.88017">
        <ele>281</ele>
        <time>2016-09-14T10:31:32Z</time>
      </trkpt>
      <trkpt lat="45.95222" lon="4.8801">
        <ele>281</ele>
        <time>2016-09-14T10:31:33Z</time>
      </trkpt>
      <trkpt lat="45.95227" lon="4.88004">
        <ele>281</ele>
        <time>2016-09-14T10:31:34Z</time>
      </trkpt>
      <trkpt lat="45.95231" lon="4.87997">
        <ele>281</ele>
        <time>2016-09-14T10:31:35Z</time>
      </trkpt>
      <trkpt lat="45.95236" lon="4.87991">
        <ele>281</ele>
        <time>2016-09-14T10:31:36Z</time>
      </trkpt>
      <trkpt lat="45.9524" lon="4.87985">
        <ele>281</ele>
        <time>2016-09-14T10:31:37Z</time>
      </trkpt>
      <trkpt lat="45.95244" lon="4.87979">
        <ele>281</ele>
        <time>2016-09-14T10:31:38Z</time>
      </trkpt>
      <trkpt lat="45.95248" lon="4.87974">
        <ele>282</ele>
        <time>2016-09-14T10:31:39Z</time>
      </trkpt>
      <trkpt lat="45.95251" lon="4.87968">
        <ele>280</ele>
        <time>2016-09-14T10:31:40Z</time>
      </trkpt>
      <trkpt lat="45.95255" lon="4.87962">
        <ele>280</ele>
        <time>2016-09-14T10:31:41Z</time>
      </trkpt>
      <trkpt lat="45.95258" lon="4.87955">
        <ele>280</ele>
        <time>2016-09-14T10:31:42Z</time>
      </trkpt>
      <trkpt lat="45.95261" lon="4.87948">
        <ele>280</ele>
        <time>2016-09-14T10:31:43Z</time>
      </trkpt>
      <trkpt lat="45.95263" lon="4.8794">
        <ele>280</ele>
        <time>2016-09-14T10:31:44Z</time>
      </trkpt>
      <trkpt lat="45.95264" lon="4.87931">
        <ele>281</ele>
        <time>2016-09-14T10:31:45Z</time>
      </trkpt>
      <trkpt lat="45.95265" lon="4.87922">
        <ele>281</ele>
        <time>2016-09-14T10:31:46Z</time>
      </trkpt>
      <trkpt lat="45.95265" lon="4.87912">
        <ele>281</ele>
        <time>2016-09-14T10:31:47Z</time>
      </trkpt>
      <trkpt lat="45.95264" lon="4.87903">
        <ele>281</ele>
        <time>2016-09-14T10:31:48Z</time>
      </trkpt>
      <trkpt lat="45.95263" lon="4.87894">
        <ele>281</ele>
        <time>2016-09-14T10:31:49Z</time>
      </trkpt>
      <trkpt lat="45.95261" lon="4.87885">
        <ele>281</ele>
        <time>2016-09-14T10:31:50Z</time>
      </trkpt>
      <trkpt lat="45.9526" lon="4.87876">
        <ele>280</ele>
        <time>2016-09-14T10:31:51Z</time>
      </trkpt>
      <trkpt lat="45.95258" lon="4.87868">
        <ele>281</ele>
        <time>2016-09-14T10:31:52Z</time>
      </trkpt>
      <trkpt lat="45.95256" lon="4.87859">
        <ele>281</ele>
        <time>2016-09-14T10:31:53Z</time>
      </trkpt>
      <trkpt lat="45.95255" lon="4.87851">
        <ele>281</ele>
        <time>2016-09-14T10:31:54Z</time>
      </trkpt>
      <trkpt lat="45.95253" lon="4.87843">
        <ele>281</ele>
        <time>2016-09-14T10:31:55Z</time>
      </trkpt>
      <trkpt lat="45.95252" lon="4.87835">
        <ele>282</ele>
        <time>2016-09-14T10:31:56Z</time>
      </trkpt>
      <trkpt lat="45.9525" lon="4.87826">
        <ele>281</ele>
        <time>2016-09-14T10:31:57Z</time>
      </trkpt>
      <trkpt lat="45.95249" lon="4.87817">
        <ele>282</ele>
        <time>2016-09-14T10:31:58Z</time>
      </trkpt>
      <trkpt lat="45.95247" lon="4.87808">
        <ele>282</ele>
        <time>2016-09-14T10:31:59Z</time>
      </trkpt>
      <trkpt lat="45.95246" lon="4.87799">
        <ele>282</ele>
        <time>2016-09-14T10:32:00Z</time>
      </trkpt>
      <trkpt lat="45.95244" lon="4.87789">
        <ele>282</ele>
        <time>2016-09-14T10:32:01Z</time>
      </trkpt>
      <trkpt lat="45.95243" lon="4.8778">
        <ele>282</ele>
        <time>2016-09-14T10:32:02Z</time>
      </trkpt>
      <trkpt lat="45.95241" lon="4.8777">
        <ele>282</ele>
        <time>2016-09-14T10:32:03Z</time>
      </trkpt>
      <trkpt lat="45.95239" lon="4.8776">
        <ele>281</ele>
        <time>2016-09-14T10:32:04Z</time>
      </trkpt>
      <trkpt lat="45.95238" lon="4.8775">
        <ele>280</ele>
        <time>2016-09-14T10:32:05Z</time>
      </trkpt>
      <trkpt lat="45.95236" lon="4.8774">
        <ele>280</ele>
        <time>2016-09-14T10:32:06Z</time>
      </trkpt>
      <trkpt lat="45.95233" lon="4.87731">
        <ele>280</ele>
        <time>2016-09-14T10:32:07Z</time>
      </trkpt>
      <trkpt lat="45.95231" lon="4.87721">
        <ele>279</ele>
        <time>2016-09-14T10:32:08Z</time>
      </trkpt>
      <trkpt lat="45.95229" lon="4.87712">
        <ele>279</ele>
        <time>2016-09-14T10:32:09Z</time>
      </trkpt>
      <trkpt lat="45.95227" lon="4.87702">
        <ele>279</ele>
        <time>2016-09-14T10:32:10Z</time>
      </trkpt>
      <trkpt lat="45.95226" lon="4.87691">
        <ele>279</ele>
        <time>2016-09-14T10:32:11Z</time>
      </trkpt>
      <trkpt lat="45.95225" lon="4.87681">
        <ele>278</ele>
        <time>2016-09-14T10:32:12Z</time>
      </trkpt>
      <trkpt lat="45.95223" lon="4.8767">
        <ele>278</ele>
        <time>2016-09-14T10:32:13Z</time>
      </trkpt>
      <trkpt lat="45.95222" lon="4.87659">
        <ele>276</ele>
        <time>2016-09-14T10:32:14Z</time>
      </trkpt>
      <trkpt lat="45.9522" lon="4.87648">
        <ele>276</ele>
        <time>2016-09-14T10:32:15Z</time>
      </trkpt>
      <trkpt lat="45.95219" lon="4.87636">
        <ele>276</ele>
        <time>2016-09-14T10:32:16Z</time>
      </trkpt>
      <trkpt lat="45.95217" lon="4.87625">
        <ele>276</ele>
        <time>2016-09-14T10:32:17Z</time>
      </trkpt>
      <trkpt lat="45.95216" lon="4.87613">
        <ele>276</ele>
        <time>2016-09-14T10:32:18Z</time>
      </trkpt>
      <trkpt lat="45.95215" lon="4.87601">
        <ele>276</ele>
        <time>2016-09-14T10:32:19Z</time>
      </trkpt>
      <trkpt lat="45.95215" lon="4.87589">
        <ele>276</ele>
        <time>2016-09-14T10:32:20Z</time>
      </trkpt>
      <trkpt lat="45.95214" lon="4.87576">
        <ele>274</ele>
        <time>2016-09-14T10:32:21Z</time>
      </trkpt>
      <trkpt lat="45.95213" lon="4.87563">
        <ele>274</ele>
        <time>2016-09-14T10:32:22Z</time>
      </trkpt>
      <trkpt lat="45.95211" lon="4.87551">
        <ele>274</ele>
        <time>2016-09-14T10:32:23Z</time>
      </trkpt>
      <trkpt lat="45.95209" lon="4.87538">
        <ele>274</ele>
        <time>2016-09-14T10:32:24Z</time>
      </trkpt>
      <trkpt lat="45.95207" lon="4.87525">
        <ele>274</ele>
        <time>2016-09-14T10:32:25Z</time>
      </trkpt>
      <trkpt lat="45.95204" lon="4.87513">
        <ele>273</ele>
        <time>2016-09-14T10:32:26Z</time>
      </trkpt>
      <trkpt lat="45.95201" lon="4.87501">
        <ele>273</ele>
        <time>2016-09-14T10:32:27Z</time>
      </trkpt>
      <trkpt lat="45.95198" lon="4.87489">
        <ele>272</ele>
        <time>2016-09-14T10:32:28Z</time>
      </trkpt>
      <trkpt lat="45.95195" lon="4.87477">
        <ele>272</ele>
        <time>2016-09-14T10:32:29Z</time>
      </trkpt>
      <trkpt lat="45.95193" lon="4.87466">
        <ele>272</ele>
        <time>2016-09-14T10:32:30Z</time>
      </trkpt>
      <trkpt lat="45.9519" lon="4.87455">
        <ele>272</ele>
        <time>2016-09-14T10:32:31Z</time>
      </trkpt>
      <trkpt lat="45.95187" lon="4.87444">
        <ele>272</ele>
        <time>2016-09-14T10:32:32Z</time>
      </trkpt>
      <trkpt lat="45.95186" lon="4.87434">
        <ele>271</ele>
        <time>2016-09-14T10:32:33Z</time>
      </trkpt>
      <trkpt lat="45.95183" lon="4.87424">
        <ele>271</ele>
        <time>2016-09-14T10:32:34Z</time>
      </trkpt>
      <trkpt lat="45.9518" lon="4.87414">
        <ele>271</ele>
        <time>2016-09-14T10:32:35Z</time>
      </trkpt>
      <trkpt lat="45.95178" lon="4.87405">
        <ele>271</ele>
        <time>2016-09-14T10:32:36Z</time>
      </trkpt>
      <trkpt lat="45.95175" lon="4.87397">
        <ele>271</ele>
        <time>2016-09-14T10:32:37Z</time>
      </trkpt>
      <trkpt lat="45.95173" lon="4.87388">
        <ele>271</ele>
        <time>2016-09-14T10:32:38Z</time>
      </trkpt>
      <trkpt lat="45.95171" lon="4.87379">
        <ele>271</ele>
        <time>2016-09-14T10:32:39Z</time>
      </trkpt>
      <trkpt lat="45.9517" lon="4.87369">
        <ele>271</ele>
        <time>2016-09-14T10:32:40Z</time>
      </trkpt>
      <trkpt lat="45.95168" lon="4.8736">
        <ele>271</ele>
        <time>2016-09-14T10:32:41Z</time>
      </trkpt>
      <trkpt lat="45.95165" lon="4.87351">
        <ele>272</ele>
        <time>2016-09-14T10:32:42Z</time>
      </trkpt>
      <trkpt lat="45.95163" lon="4.87341">
        <ele>272</ele>
        <time>2016-09-14T10:32:43Z</time>
      </trkpt>
      <trkpt lat="45.95161" lon="4.87331">
        <ele>272</ele>
        <time>2016-09-14T10:32:44Z</time>
      </trkpt>
      <trkpt lat="45.95159" lon="4.87321">
        <ele>273</ele>
        <time>2016-09-14T10:32:45Z</time>
      </trkpt>
      <trkpt lat="45.95156" lon="4.87311">
        <ele>273</ele>
        <time>2016-09-14T10:32:46Z</time>
      </trkpt>
      <trkpt lat="45.95154" lon="4.87302">
        <ele>274</ele>
        <time>2016-09-14T10:32:47Z</time>
      </trkpt>
      <trkpt lat="45.95153" lon="4.87292">
        <ele>274</ele>
        <time>2016-09-14T10:32:48Z</time>
      </trkpt>
      <trkpt lat="45.95151" lon="4.87282">
        <ele>274</ele>
        <time>2016-09-14T10:32:49Z</time>
      </trkpt>
      <trkpt lat="45.95149" lon="4.87273">
        <ele>274</ele>
        <time>2016-09-14T10:32:50Z</time>
      </trkpt>
      <trkpt lat="45.95147" lon="4.87264">
        <ele>274</ele>
        <time>2016-09-14T10:32:51Z</time>
      </trkpt>
      <trkpt lat="45.95145" lon="4.87255">
        <ele>274</ele>
        <time>2016-09-14T10:32:52Z</time>
      </trkpt>
      <trkpt lat="45.95143" lon="4.87247">
        <ele>275</ele>
        <time>2016-09-14T10:32:53Z</time>
      </trkpt>
      <trkpt lat="45.95141" lon="4.87239">
        <ele>275</ele>
        <time>2016-09-14T10:32:54Z</time>
      </trkpt>
      <trkpt lat="45.9514" lon="4.8723">
        <ele>276</ele>
        <time>2016-09-14T10:32:55Z</time>
      </trkpt>
      <trkpt lat="45.95138" lon="4.87222">
        <ele>276</ele>
        <time>2016-09-14T10:32:56Z</time>
      </trkpt>
      <trkpt lat="45.95136" lon="4.87213">
        <ele>276</ele>
        <time>2016-09-14T10:32:57Z</time>
      </trkpt>
      <trkpt lat="45.95134" lon="4.87205">
        <ele>276</ele>
        <time>2016-09-14T10:32:58Z</time>
      </trkpt>
      <trkpt lat="45.95132" lon="4.87197">
        <ele>276</ele>
        <time>2016-09-14T10:32:59Z</time>
      </trkpt>
      <trkpt lat="45.9513" lon="4.87189">
        <ele>276</ele>
        <time>2016-09-14T10:33:00Z</time>
      </trkpt>
      <trkpt lat="45.95129" lon="4.87181">
        <ele>276</ele>
        <time>2016-09-14T10:33:01Z</time>
      </trkpt>
      <trkpt lat="45.95127" lon="4.87173">
        <ele>276</ele>
        <time>2016-09-14T10:33:02Z</time>
      </trkpt>
      <trkpt lat="45.95126" lon="4.87165">
        <ele>276</ele>
        <time>2016-09-14T10:33:03Z</time>
      </trkpt>
      <trkpt lat="45.95125" lon="4.87158">
        <ele>276</ele>
        <time>2016-09-14T10:33:04Z</time>
      </trkpt>
      <trkpt lat="45.95123" lon="4.8715">
        <ele>276</ele>
        <time>2016-09-14T10:33:05Z</time>
      </trkpt>
      <trkpt lat="45.95121" lon="4.87143">
        <ele>276</ele>
        <time>2016-09-14T10:33:06Z</time>
      </trkpt>
      <trkpt lat="45.9512" lon="4.87136">
        <ele>276</ele>
        <time>2016-09-14T10:33:07Z</time>
      </trkpt>
      <trkpt lat="45.95119" lon="4.87128">
        <ele>276</ele>
        <time>2016-09-14T10:33:08Z</time>
      </trkpt>
      <trkpt lat="45.95117" lon="4.87121">
        <ele>276</ele>
        <time>2016-09-14T10:33:09Z</time>
      </trkpt>
      <trkpt lat="45.95115" lon="4.87113">
        <ele>276</ele>
        <time>2016-09-14T10:33:10Z</time>
      </trkpt>
      <trkpt lat="45.95113" lon="4.87105">
        <ele>277</ele>
        <time>2016-09-14T10:33:11Z</time>
      </trkpt>
      <trkpt lat="45.9511" lon="4.87098">
        <ele>277</ele>
        <time>2016-09-14T10:33:12Z</time>
      </trkpt>
      <trkpt lat="45.95108" lon="4.87091">
        <ele>277</ele>
        <time>2016-09-14T10:33:13Z</time>
      </trkpt>
      <trkpt lat="45.95105" lon="4.87083">
        <ele>277</ele>
        <time>2016-09-14T10:33:14Z</time>
      </trkpt>
      <trkpt lat="45.95103" lon="4.87076">
        <ele>277</ele>
        <time>2016-09-14T10:33:15Z</time>
      </trkpt>
      <trkpt lat="45.95101" lon="4.87069">
        <ele>277</ele>
        <time>2016-09-14T10:33:16Z</time>
      </trkpt>
      <trkpt lat="45.95097" lon="4.87062">
        <ele>277</ele>
        <time>2016-09-14T10:33:17Z</time>
      </trkpt>
      <trkpt lat="45.95094" lon="4.87056">
        <ele>277</ele>
        <time>2016-09-14T10:33:18Z</time>
      </trkpt>
      <trkpt lat="45.95091" lon="4.87049">
        <ele>277</ele>
        <time>2016-09-14T10:33:19Z</time>
      </trkpt>
      <trkpt lat="45.95087" lon="4.87043">
        <ele>277</ele>
        <time>2016-09-14T10:33:20Z</time>
      </trkpt>
      <trkpt lat="45.95084" lon="4.87036">
        <ele>277</ele>
        <time>2016-09-14T10:33:21Z</time>
      </trkpt>
      <trkpt lat="45.95081" lon="4.8703">
        <ele>277</ele>
        <time>2016-09-14T10:33:22Z</time>
      </trkpt>
      <trkpt lat="45.95077" lon="4.87023">
        <ele>277</ele>
        <time>2016-09-14T10:33:23Z</time>
      </trkpt>
      <trkpt lat="45.95074" lon="4.87016">
        <ele>277</ele>
        <time>2016-09-14T10:33:24Z</time>
      </trkpt>
      <trkpt lat="45.9507" lon="4.8701">
        <ele>277</ele>
        <time>2016-09-14T10:33:25Z</time>
      </trkpt>
      <trkpt lat="45.95067" lon="4.87003">
        <ele>277</ele>
        <time>2016-09-14T10:33:26Z</time>
      </trkpt>
      <trkpt lat="45.95063" lon="4.86996">
        <ele>276</ele>
        <time>2016-09-14T10:33:27Z</time>
      </trkpt>
      <trkpt lat="45.9506" lon="4.86988">
        <ele>276</ele>
        <time>2016-09-14T10:33:28Z</time>
      </trkpt>
      <trkpt lat="45.95057" lon="4.86981">
        <ele>276</ele>
        <time>2016-09-14T10:33:29Z</time>
      </trkpt>
      <trkpt lat="45.95055" lon="4.86973">
        <ele>276</ele>
        <time>2016-09-14T10:33:30Z</time>
      </trkpt>
      <trkpt lat="45.95052" lon="4.86965">
        <ele>276</ele>
        <time>2016-09-14T10:33:31Z</time>
      </trkpt>
      <trkpt lat="45.95049" lon="4.86956">
        <ele>276</ele>
        <time>2016-09-14T10:33:32Z</time>
      </trkpt>
      <trkpt lat="45.95047" lon="4.86948">
        <ele>276</ele>
        <time>2016-09-14T10:33:33Z</time>
      </trkpt>
      <trkpt lat="45.95044" lon="4.86939">
        <ele>276</ele>
        <time>2016-09-14T10:33:34Z</time>
      </trkpt>
      <trkpt lat="45.95041" lon="4.86931">
        <ele>276</ele>
        <time>2016-09-14T10:33:35Z</time>
      </trkpt>
      <trkpt lat="45.95038" lon="4.86923">
        <ele>276</ele>
        <time>2016-09-14T10:33:36Z</time>
      </trkpt>
      <trkpt lat="45.95035" lon="4.86915">
        <ele>275</ele>
        <time>2016-09-14T10:33:37Z</time>
      </trkpt>
      <trkpt lat="45.95032" lon="4.86907">
        <ele>275</ele>
        <time>2016-09-14T10:33:38Z</time>
      </trkpt>
      <trkpt lat="45.9503" lon="4.86899">
        <ele>275</ele>
        <time>2016-09-14T10:33:39Z</time>
      </trkpt>
      <trkpt lat="45.95028" lon="4.86891">
        <ele>275</ele>
        <time>2016-09-14T10:33:40Z</time>
      </trkpt>
      <trkpt lat="45.95024" lon="4.86884">
        <ele>275</ele>
        <time>2016-09-14T10:33:41Z</time>
      </trkpt>
      <trkpt lat="45.95022" lon="4.86876">
        <ele>275</ele>
        <time>2016-09-14T10:33:42Z</time>
      </trkpt>
      <trkpt lat="45.95019" lon="4.86868">
        <ele>275</ele>
        <time>2016-09-14T10:33:43Z</time>
      </trkpt>
      <trkpt lat="45.95016" lon="4.8686">
        <ele>275</ele>
        <time>2016-09-14T10:33:44Z</time>
      </trkpt>
      <trkpt lat="45.95013" lon="4.86852">
        <ele>275</ele>
        <time>2016-09-14T10:33:45Z</time>
      </trkpt>
      <trkpt lat="45.9501" lon="4.86844">
        <ele>276</ele>
        <time>2016-09-14T10:33:46Z</time>
      </trkpt>
      <trkpt lat="45.95006" lon="4.86835">
        <ele>276</ele>
        <time>2016-09-14T10:33:47Z</time>
      </trkpt>
      <trkpt lat="45.95003" lon="4.86827">
        <ele>276</ele>
        <time>2016-09-14T10:33:48Z</time>
      </trkpt>
      <trkpt lat="45.95" lon="4.86819">
        <ele>276</ele>
        <time>2016-09-14T10:33:49Z</time>
      </trkpt>
      <trkpt lat="45.94996" lon="4.86811">
        <ele>276</ele>
        <time>2016-09-14T10:33:50Z</time>
      </trkpt>
      <trkpt lat="45.94992" lon="4.86804">
        <ele>276</ele>
        <time>2016-09-14T10:33:51Z</time>
      </trkpt>
      <trkpt lat="45.94989" lon="4.86797">
        <ele>276</ele>
        <time>2016-09-14T10:33:52Z</time>
      </trkpt>
      <trkpt lat="45.94985" lon="4.8679">
        <ele>276</ele>
        <time>2016-09-14T10:33:53Z</time>
      </trkpt>
      <trkpt lat="45.94981" lon="4.86783">
        <ele>275</ele>
        <time>2016-09-14T10:33:54Z</time>
      </trkpt>
      <trkpt lat="45.94978" lon="4.86776">
        <ele>275</ele>
        <time>2016-09-14T10:33:55Z</time>
      </trkpt>
      <trkpt lat="45.94974" lon="4.8677">
        <ele>275</ele>
        <time>2016-09-14T10:33:56Z</time>
      </trkpt>
      <trkpt lat="45.9497" lon="4.86763">
        <ele>275</ele>
        <time>2016-09-14T10:33:57Z</time>
      </trkpt>
      <trkpt lat="45.94967" lon="4.86757">
        <ele>275</ele>
        <time>2016-09-14T10:33:58Z</time>
      </trkpt>
      <trkpt lat="45.94964" lon="4.86751">
        <ele>275</ele>
        <time>2016-09-14T10:33:59Z</time>
      </trkpt>
      <trkpt lat="45.94961" lon="4.86744">
        <ele>275</ele>
        <time>2016-09-14T10:34:00Z</time>
      </trkpt>
      <trkpt lat="45.94958" lon="4.86738">
        <ele>275</ele>
        <time>2016-09-14T10:34:01Z</time>
      </trkpt>
      <trkpt lat="45.94955" lon="4.86731">
        <ele>275</ele>
        <time>2016-09-14T10:34:02Z</time>
      </trkpt>
      <trkpt lat="45.94952" lon="4.86724">
        <ele>275</ele>
        <time>2016-09-14T10:34:03Z</time>
      </trkpt>
      <trkpt lat="45.9495" lon="4.86717">
        <ele>275</ele>
        <time>2016-09-14T10:34:04Z</time>
      </trkpt>
      <trkpt lat="45.94948" lon="4.86709">
        <ele>275</ele>
        <time>2016-09-14T10:34:05Z</time>
      </trkpt>
      <trkpt lat="45.94947" lon="4.86701">
        <ele>275</ele>
        <time>2016-09-14T10:34:06Z</time>
      </trkpt>
      <trkpt lat="45.94946" lon="4.86693">
        <ele>276</ele>
        <time>2016-09-14T10:34:07Z</time>
      </trkpt>
      <trkpt lat="45.94944" lon="4.86684">
        <ele>276</ele>
        <time>2016-09-14T10:34:08Z</time>
      </trkpt>
      <trkpt lat="45.94944" lon="4.86676">
        <ele>276</ele>
        <time>2016-09-14T10:34:09Z</time>
      </trkpt>
      <trkpt lat="45.94944" lon="4.86667">
        <ele>276</ele>
        <time>2016-09-14T10:34:10Z</time>
      </trkpt>
      <trkpt lat="45.94945" lon="4.86658">
        <ele>276</ele>
        <time>2016-09-14T10:34:11Z</time>
      </trkpt>
      <trkpt lat="45.94947" lon="4.8665">
        <ele>276</ele>
        <time>2016-09-14T10:34:12Z</time>
      </trkpt>
      <trkpt lat="45.9495" lon="4.86643">
        <ele>276</ele>
        <time>2016-09-14T10:34:13Z</time>
      </trkpt>
      <trkpt lat="45.94953" lon="4.86637">
        <ele>276</ele>
        <time>2016-09-14T10:34:14Z</time>
      </trkpt>
      <trkpt lat="45.94957" lon="4.86632">
        <ele>276</ele>
        <time>2016-09-14T10:34:15Z</time>
      </trkpt>
      <trkpt lat="45.94962" lon="4.86627">
        <ele>275</ele>
        <time>2016-09-14T10:34:16Z</time>
      </trkpt>
      <trkpt lat="45.94967" lon="4.86623">
        <ele>275</ele>
        <time>2016-09-14T10:34:17Z</time>
      </trkpt>
      <trkpt lat="45.94973" lon="4.86621">
        <ele>275</ele>
        <time>2016-09-14T10:34:18Z</time>
      </trkpt>
      <trkpt lat="45.94978" lon="4.86619">
        <ele>275</ele>
        <time>2016-09-14T10:34:19Z</time>
      </trkpt>
      <trkpt lat="45.94984" lon="4.86617">
        <ele>275</ele>
        <time>2016-09-14T10:34:20Z</time>
      </trkpt>
      <trkpt lat="45.9499" lon="4.86616">
        <ele>275</ele>
        <time>2016-09-14T10:34:21Z</time>
      </trkpt>
      <trkpt lat="45.94996" lon="4.86616">
        <ele>275</ele>
        <time>2016-09-14T10:34:22Z</time>
      </trkpt>
      <trkpt lat="45.95002" lon="4.86615">
        <ele>273</ele>
        <time>2016-09-14T10:34:23Z</time>
      </trkpt>
      <trkpt lat="45.95009" lon="4.86615">
        <ele>273</ele>
        <time>2016-09-14T10:34:24Z</time>
      </trkpt>
      <trkpt lat="45.95015" lon="4.86614">
        <ele>273</ele>
        <time>2016-09-14T10:34:25Z</time>
      </trkpt>
      <trkpt lat="45.95022" lon="4.86613">
        <ele>273</ele>
        <time>2016-09-14T10:34:26Z</time>
      </trkpt>
      <trkpt lat="45.95028" lon="4.86612">
        <ele>273</ele>
        <time>2016-09-14T10:34:27Z</time>
      </trkpt>
      <trkpt lat="45.95034" lon="4.8661">
        <ele>273</ele>
        <time>2016-09-14T10:34:28Z</time>
      </trkpt>
      <trkpt lat="45.95041" lon="4.86608">
        <ele>273</ele>
        <time>2016-09-14T10:34:29Z</time>
      </trkpt>
      <trkpt lat="45.95048" lon="4.86606">
        <ele>272</ele>
        <time>2016-09-14T10:34:30Z</time>
      </trkpt>
      <trkpt lat="45.95054" lon="4.86604">
        <ele>272</ele>
        <time>2016-09-14T10:34:31Z</time>
      </trkpt>
      <trkpt lat="45.95061" lon="4.86601">
        <ele>272</ele>
        <time>2016-09-14T10:34:32Z</time>
      </trkpt>
      <trkpt lat="45.95069" lon="4.86599">
        <ele>272</ele>
        <time>2016-09-14T10:34:33Z</time>
      </trkpt>
      <trkpt lat="45.95075" lon="4.86597">
        <ele>272</ele>
        <time>2016-09-14T10:34:34Z</time>
      </trkpt>
      <trkpt lat="45.95083" lon="4.86595">
        <ele>272</ele>
        <time>2016-09-14T10:34:35Z</time>
      </trkpt>
      <trkpt lat="45.9509" lon="4.86594">
        <ele>271</ele>
        <time>2016-09-14T10:34:36Z</time>
      </trkpt>
      <trkpt lat="45.95097" lon="4.86592">
        <ele>271</ele>
        <time>2016-09-14T10:34:37Z</time>
      </trkpt>
      <trkpt lat="45.95105" lon="4.86591">
        <ele>271</ele>
        <time>2016-09-14T10:34:38Z</time>
      </trkpt>
      <trkpt lat="45.95112" lon="4.86591">
        <ele>271</ele>
        <time>2016-09-14T10:34:39Z</time>
      </trkpt>
      <trkpt lat="45.9512" lon="4.8659">
        <ele>270</ele>
        <time>2016-09-14T10:34:40Z</time>
      </trkpt>
      <trkpt lat="45.95127" lon="4.86588">
        <ele>270</ele>
        <time>2016-09-14T10:34:41Z</time>
      </trkpt>
      <trkpt lat="45.95135" lon="4.86587">
        <ele>270</ele>
        <time>2016-09-14T10:34:42Z</time>
      </trkpt>
      <trkpt lat="45.95142" lon="4.86586">
        <ele>270</ele>
        <time>2016-09-14T10:34:43Z</time>
      </trkpt>
      <trkpt lat="45.95149" lon="4.86585">
        <ele>270</ele>
        <time>2016-09-14T10:34:44Z</time>
      </trkpt>
      <trkpt lat="45.95157" lon="4.86585">
        <ele>270</ele>
        <time>2016-09-14T10:34:45Z</time>
      </trkpt>
      <trkpt lat="45.95165" lon="4.86585">
        <ele>269</ele>
        <time>2016-09-14T10:34:46Z</time>
      </trkpt>
      <trkpt lat="45.95172" lon="4.86585">
        <ele>269</ele>
        <time>2016-09-14T10:34:47Z</time>
      </trkpt>
      <trkpt lat="45.9518" lon="4.86584">
        <ele>269</ele>
        <time>2016-09-14T10:34:48Z</time>
      </trkpt>
      <trkpt lat="45.95188" lon="4.86583">
        <ele>269</ele>
        <time>2016-09-14T10:34:49Z</time>
      </trkpt>
      <trkpt lat="45.95196" lon="4.86583">
        <ele>268</ele>
        <time>2016-09-14T10:34:50Z</time>
      </trkpt>
      <trkpt lat="45.95204" lon="4.86583">
        <ele>268</ele>
        <time>2016-09-14T10:34:51Z</time>
      </trkpt>
      <trkpt lat="45.95212" lon="4.86583">
        <ele>268</ele>
        <time>2016-09-14T10:34:52Z</time>
      </trkpt>
      <trkpt lat="45.9522" lon="4.86584">
        <ele>269</ele>
        <time>2016-09-14T10:34:53Z</time>
      </trkpt>
      <trkpt lat="45.95228" lon="4.86585">
        <ele>269</ele>
        <time>2016-09-14T10:34:54Z</time>
      </trkpt>
      <trkpt lat="45.95235" lon="4.86585">
        <ele>269</ele>
        <time>2016-09-14T10:34:55Z</time>
      </trkpt>
      <trkpt lat="45.95241" lon="4.86586">
        <ele>268</ele>
        <time>2016-09-14T10:34:56Z</time>
      </trkpt>
      <trkpt lat="45.95248" lon="4.86586">
        <ele>268</ele>
        <time>2016-09-14T10:34:57Z</time>
      </trkpt>
      <trkpt lat="45.95253" lon="4.86586">
        <ele>268</ele>
        <time>2016-09-14T10:34:58Z</time>
      </trkpt>
      <trkpt lat="45.95258" lon="4.86585">
        <ele>268</ele>
        <time>2016-09-14T10:34:59Z</time>
      </trkpt>
      <trkpt lat="45.95265" lon="4.86581">
        <ele>267</ele>
        <time>2016-09-14T10:35:01Z</time>
      </trkpt>
      <trkpt lat="45.95267" lon="4.86578">
        <ele>267</ele>
        <time>2016-09-14T10:35:02Z</time>
      </trkpt>
      <trkpt lat="45.95268" lon="4.86569">
        <ele>267</ele>
        <time>2016-09-14T10:35:04Z</time>
      </trkpt>
      <trkpt lat="45.95267" lon="4.86564">
        <ele>267</ele>
        <time>2016-09-14T10:35:05Z</time>
      </trkpt>
      <trkpt lat="45.95264" lon="4.8656">
        <ele>267</ele>
        <time>2016-09-14T10:35:06Z</time>
      </trkpt>
      <trkpt lat="45.9526" lon="4.86556">
        <ele>267</ele>
        <time>2016-09-14T10:35:07Z</time>
      </trkpt>
      <trkpt lat="45.95255" lon="4.86551">
        <ele>267</ele>
        <time>2016-09-14T10:35:08Z</time>
      </trkpt>
      <trkpt lat="45.95251" lon="4.86547">
        <ele>267</ele>
        <time>2016-09-14T10:35:09Z</time>
      </trkpt>
      <trkpt lat="45.95247" lon="4.86542">
        <ele>268</ele>
        <time>2016-09-14T10:35:10Z</time>
      </trkpt>
      <trkpt lat="45.95242" lon="4.86536">
        <ele>268</ele>
        <time>2016-09-14T10:35:11Z</time>
      </trkpt>
      <trkpt lat="45.95238" lon="4.86529">
        <ele>268</ele>
        <time>2016-09-14T10:35:12Z</time>
      </trkpt>
      <trkpt lat="45.95233" lon="4.86522">
        <ele>268</ele>
        <time>2016-09-14T10:35:13Z</time>
      </trkpt>
      <trkpt lat="45.95228" lon="4.86516">
        <ele>268</ele>
        <time>2016-09-14T10:35:14Z</time>
      </trkpt>
      <trkpt lat="45.95223" lon="4.86509">
        <ele>268</ele>
        <time>2016-09-14T10:35:15Z</time>
      </trkpt>
      <trkpt lat="45.95218" lon="4.86503">
        <ele>268</ele>
        <time>2016-09-14T10:35:16Z</time>
      </trkpt>
      <trkpt lat="45.95213" lon="4.86497">
        <ele>268</ele>
        <time>2016-09-14T10:35:17Z</time>
      </trkpt>
      <trkpt lat="45.95209" lon="4.86492">
        <ele>268</ele>
        <time>2016-09-14T10:35:18Z</time>
      </trkpt>
      <trkpt lat="45.95204" lon="4.86486">
        <ele>268</ele>
        <time>2016-09-14T10:35:19Z</time>
      </trkpt>
      <trkpt lat="45.952" lon="4.8648">
        <ele>268</ele>
        <time>2016-09-14T10:35:20Z</time>
      </trkpt>
      <trkpt lat="45.95195" lon="4.86475">
        <ele>268</ele>
        <time>2016-09-14T10:35:21Z</time>
      </trkpt>
      <trkpt lat="45.95191" lon="4.86469">
        <ele>268</ele>
        <time>2016-09-14T10:35:22Z</time>
      </trkpt>
      <trkpt lat="45.95186" lon="4.86463">
        <ele>268</ele>
        <time>2016-09-14T10:35:23Z</time>
      </trkpt>
      <trkpt lat="45.95182" lon="4.86459">
        <ele>268</ele>
        <time>2016-09-14T10:35:24Z</time>
      </trkpt>
      <trkpt lat="45.95178" lon="4.86455">
        <ele>268</ele>
        <time>2016-09-14T10:35:25Z</time>
      </trkpt>
      <trkpt lat="45.95174" lon="4.8645">
        <ele>268</ele>
        <time>2016-09-14T10:35:26Z</time>
      </trkpt>
      <trkpt lat="45.9517" lon="4.86446">
        <ele>267</ele>
        <time>2016-09-14T10:35:27Z</time>
      </trkpt>
      <trkpt lat="45.95166" lon="4.86442">
        <ele>268</ele>
        <time>2016-09-14T10:35:28Z</time>
      </trkpt>
      <trkpt lat="45.95163" lon="4.86438">
        <ele>268</ele>
        <time>2016-09-14T10:35:29Z</time>
      </trkpt>
      <trkpt lat="45.95159" lon="4.86434">
        <ele>268</ele>
        <time>2016-09-14T10:35:30Z</time>
      </trkpt>
      <trkpt lat="45.95156" lon="4.86429">
        <ele>268</ele>
        <time>2016-09-14T10:35:31Z</time>
      </trkpt>
      <trkpt lat="45.95152" lon="4.86424">
        <ele>268</ele>
        <time>2016-09-14T10:35:32Z</time>
      </trkpt>
      <trkpt lat="45.95149" lon="4.8642">
        <ele>268</ele>
        <time>2016-09-14T10:35:33Z</time>
      </trkpt>
      <trkpt lat="45.95145" lon="4.86415">
        <ele>268</ele>
        <time>2016-09-14T10:35:34Z</time>
      </trkpt>
      <trkpt lat="45.95141" lon="4.8641">
        <ele>268</ele>
        <time>2016-09-14T10:35:35Z</time>
      </trkpt>
      <trkpt lat="45.95137" lon="4.86406">
        <ele>268</ele>
        <time>2016-09-14T10:35:36Z</time>
      </trkpt>
      <trkpt lat="45.95133" lon="4.86401">
        <ele>268</ele>
        <time>2016-09-14T10:35:37Z</time>
      </trkpt>
      <trkpt lat="45.95129" lon="4.86397">
        <ele>268</ele>
        <time>2016-09-14T10:35:38Z</time>
      </trkpt>
      <trkpt lat="45.95126" lon="4.86392">
        <ele>268</ele>
        <time>2016-09-14T10:35:39Z</time>
      </trkpt>
      <trkpt lat="45.95122" lon="4.86388">
        <ele>269</ele>
        <time>2016-09-14T10:35:40Z</time>
      </trkpt>
      <trkpt lat="45.95118" lon="4.86384">
        <ele>269</ele>
        <time>2016-09-14T10:35:41Z</time>
      </trkpt>
      <trkpt lat="45.95114" lon="4.86379">
        <ele>269</ele>
        <time>2016-09-14T10:35:42Z</time>
      </trkpt>
      <trkpt lat="45.95111" lon="4.86374">
        <ele>269</ele>
        <time>2016-09-14T10:35:43Z</time>
      </trkpt>
      <trkpt lat="45.95107" lon="4.86369">
        <ele>269</ele>
        <time>2016-09-14T10:35:44Z</time>
      </trkpt>
      <trkpt lat="45.95103" lon="4.86365">
        <ele>269</ele>
        <time>2016-09-14T10:35:45Z</time>
      </trkpt>
      <trkpt lat="45.95099" lon="4.8636">
        <ele>269</ele>
        <time>2016-09-14T10:35:46Z</time>
      </trkpt>
      <trkpt lat="45.95095" lon="4.86355">
        <ele>269</ele>
        <time>2016-09-14T10:35:47Z</time>
      </trkpt>
      <trkpt lat="45.95091" lon="4.8635">
        <ele>269</ele>
        <time>2016-09-14T10:35:48Z</time>
      </trkpt>
      <trkpt lat="45.95087" lon="4.86345">
        <ele>269</ele>
        <time>2016-09-14T10:35:49Z</time>
      </trkpt>
      <trkpt lat="45.95083" lon="4.8634">
        <ele>270</ele>
        <time>2016-09-14T10:35:50Z</time>
      </trkpt>
      <trkpt lat="45.95079" lon="4.86335">
        <ele>269</ele>
        <time>2016-09-14T10:35:51Z</time>
      </trkpt>
      <trkpt lat="45.95075" lon="4.8633">
        <ele>270</ele>
        <time>2016-09-14T10:35:52Z</time>
      </trkpt>
      <trkpt lat="45.9507" lon="4.86325">
        <ele>270</ele>
        <time>2016-09-14T10:35:53Z</time>
      </trkpt>
      <trkpt lat="45.95066" lon="4.86319">
        <ele>270</ele>
        <time>2016-09-14T10:35:54Z</time>
      </trkpt>
      <trkpt lat="45.95062" lon="4.86314">
        <ele>270</ele>
        <time>2016-09-14T10:35:55Z</time>
      </trkpt>
      <trkpt lat="45.95058" lon="4.86309">
        <ele>271</ele>
        <time>2016-09-14T10:35:56Z</time>
      </trkpt>
      <trkpt lat="45.95054" lon="4.86304">
        <ele>271</ele>
        <time>2016-09-14T10:35:57Z</time>
      </trkpt>
      <trkpt lat="45.9505" lon="4.863">
        <ele>271</ele>
        <time>2016-09-14T10:35:58Z</time>
      </trkpt>
      <trkpt lat="45.95046" lon="4.86295">
        <ele>271</ele>
        <time>2016-09-14T10:35:59Z</time>
      </trkpt>
      <trkpt lat="45.95042" lon="4.8629">
        <ele>271</ele>
        <time>2016-09-14T10:36:00Z</time>
      </trkpt>
      <trkpt lat="45.95038" lon="4.86285">
        <ele>271</ele>
        <time>2016-09-14T10:36:01Z</time>
      </trkpt>
      <trkpt lat="45.95034" lon="4.8628">
        <ele>271</ele>
        <time>2016-09-14T10:36:02Z</time>
      </trkpt>
      <trkpt lat="45.9503" lon="4.86276">
        <ele>271</ele>
        <time>2016-09-14T10:36:03Z</time>
      </trkpt>
      <trkpt lat="45.95026" lon="4.86271">
        <ele>271</ele>
        <time>2016-09-14T10:36:04Z</time>
      </trkpt>
      <trkpt lat="45.95023" lon="4.86267">
        <ele>271</ele>
        <time>2016-09-14T10:36:05Z</time>
      </trkpt>
      <trkpt lat="45.95019" lon="4.86262">
        <ele>271</ele>
        <time>2016-09-14T10:36:06Z</time>
      </trkpt>
      <trkpt lat="45.95016" lon="4.86257">
        <ele>272</ele>
        <time>2016-09-14T10:36:07Z</time>
      </trkpt>
      <trkpt lat="45.95012" lon="4.86253">
        <ele>272</ele>
        <time>2016-09-14T10:36:08Z</time>
      </trkpt>
      <trkpt lat="45.95008" lon="4.86248">
        <ele>272</ele>
        <time>2016-09-14T10:36:09Z</time>
      </trkpt>
      <trkpt lat="45.95004" lon="4.86243">
        <ele>272</ele>
        <time>2016-09-14T10:36:10Z</time>
      </trkpt>
      <trkpt lat="45.95" lon="4.86238">
        <ele>272</ele>
        <time>2016-09-14T10:36:11Z</time>
      </trkpt>
      <trkpt lat="45.94996" lon="4.86233">
        <ele>272</ele>
        <time>2016-09-14T10:36:12Z</time>
      </trkpt>
      <trkpt lat="45.94991" lon="4.86228">
        <ele>272</ele>
        <time>2016-09-14T10:36:13Z</time>
      </trkpt>
      <trkpt lat="45.94987" lon="4.86223">
        <ele>272</ele>
        <time>2016-09-14T10:36:14Z</time>
      </trkpt>
      <trkpt lat="45.94984" lon="4.86218">
        <ele>272</ele>
        <time>2016-09-14T10:36:15Z</time>
      </trkpt>
      <trkpt lat="45.9498" lon="4.86214">
        <ele>272</ele>
        <time>2016-09-14T10:36:16Z</time>
      </trkpt>
      <trkpt lat="45.94976" lon="4.86209">
        <ele>272</ele>
        <time>2016-09-14T10:36:17Z</time>
      </trkpt>
      <trkpt lat="45.94973" lon="4.86205">
        <ele>272</ele>
        <time>2016-09-14T10:36:18Z</time>
      </trkpt>
      <trkpt lat="45.94969" lon="4.86201">
        <ele>272</ele>
        <time>2016-09-14T10:36:19Z</time>
      </trkpt>
      <trkpt lat="45.94966" lon="4.86196">
        <ele>272</ele>
        <time>2016-09-14T10:36:20Z</time>
      </trkpt>
      <trkpt lat="45.94963" lon="4.86191">
        <ele>272</ele>
        <time>2016-09-14T10:36:21Z</time>
      </trkpt>
      <trkpt lat="45.94959" lon="4.86186">
        <ele>272</ele>
        <time>2016-09-14T10:36:22Z</time>
      </trkpt>
      <trkpt lat="45.94956" lon="4.86182">
        <ele>273</ele>
        <time>2016-09-14T10:36:23Z</time>
      </trkpt>
      <trkpt lat="45.94952" lon="4.86177">
        <ele>273</ele>
        <time>2016-09-14T10:36:24Z</time>
      </trkpt>
      <trkpt lat="45.94949" lon="4.86173">
        <ele>273</ele>
        <time>2016-09-14T10:36:25Z</time>
      </trkpt>
      <trkpt lat="45.94945" lon="4.86169">
        <ele>273</ele>
        <time>2016-09-14T10:36:26Z</time>
      </trkpt>
      <trkpt lat="45.94942" lon="4.86165">
        <ele>273</ele>
        <time>2016-09-14T10:36:27Z</time>
      </trkpt>
      <trkpt lat="45.94938" lon="4.8616">
        <ele>273</ele>
        <time>2016-09-14T10:36:28Z</time>
      </trkpt>
      <trkpt lat="45.94935" lon="4.86156">
        <ele>273</ele>
        <time>2016-09-14T10:36:29Z</time>
      </trkpt>
      <trkpt lat="45.94931" lon="4.86151">
        <ele>273</ele>
        <time>2016-09-14T10:36:30Z</time>
      </trkpt>
      <trkpt lat="45.94927" lon="4.86146">
        <ele>273</ele>
        <time>2016-09-14T10:36:31Z</time>
      </trkpt>
      <trkpt lat="45.94924" lon="4.86141">
        <ele>273</ele>
        <time>2016-09-14T10:36:32Z</time>
      </trkpt>
      <trkpt lat="45.94921" lon="4.86136">
        <ele>273</ele>
        <time>2016-09-14T10:36:33Z</time>
      </trkpt>
      <trkpt lat="45.94919" lon="4.8613">
        <ele>273</ele>
        <time>2016-09-14T10:36:34Z</time>
      </trkpt>
      <trkpt lat="45.94916" lon="4.86125">
        <ele>274</ele>
        <time>2016-09-14T10:36:35Z</time>
      </trkpt>
      <trkpt lat="45.94913" lon="4.86119">
        <ele>274</ele>
        <time>2016-09-14T10:36:36Z</time>
      </trkpt>
      <trkpt lat="45.9491" lon="4.86114">
        <ele>274</ele>
        <time>2016-09-14T10:36:37Z</time>
      </trkpt>
      <trkpt lat="45.94907" lon="4.86109">
        <ele>274</ele>
        <time>2016-09-14T10:36:38Z</time>
      </trkpt>
      <trkpt lat="45.94905" lon="4.86103">
        <ele>274</ele>
        <time>2016-09-14T10:36:39Z</time>
      </trkpt>
      <trkpt lat="45.94902" lon="4.86097">
        <ele>274</ele>
        <time>2016-09-14T10:36:40Z</time>
      </trkpt>
      <trkpt lat="45.949" lon="4.86091">
        <ele>274</ele>
        <time>2016-09-14T10:36:41Z</time>
      </trkpt>
      <trkpt lat="45.94897" lon="4.86085">
        <ele>274</ele>
        <time>2016-09-14T10:36:42Z</time>
      </trkpt>
      <trkpt lat="45.94895" lon="4.86078">
        <ele>274</ele>
        <time>2016-09-14T10:36:43Z</time>
      </trkpt>
      <trkpt lat="45.94893" lon="4.86071">
        <ele>274</ele>
        <time>2016-09-14T10:36:44Z</time>
      </trkpt>
      <trkpt lat="45.94891" lon="4.86064">
        <ele>274</ele>
        <time>2016-09-14T10:36:45Z</time>
      </trkpt>
      <trkpt lat="45.94889" lon="4.86057">
        <ele>274</ele>
        <time>2016-09-14T10:36:46Z</time>
      </trkpt>
      <trkpt lat="45.94887" lon="4.8605">
        <ele>274</ele>
        <time>2016-09-14T10:36:47Z</time>
      </trkpt>
      <trkpt lat="45.94886" lon="4.86043">
        <ele>274</ele>
        <time>2016-09-14T10:36:48Z</time>
      </trkpt>
      <trkpt lat="45.94884" lon="4.86036">
        <ele>274</ele>
        <time>2016-09-14T10:36:49Z</time>
      </trkpt>
      <trkpt lat="45.94883" lon="4.86029">
        <ele>274</ele>
        <time>2016-09-14T10:36:50Z</time>
      </trkpt>
      <trkpt lat="45.94881" lon="4.86022">
        <ele>274</ele>
        <time>2016-09-14T10:36:51Z</time>
      </trkpt>
      <trkpt lat="45.94879" lon="4.86015">
        <ele>274</ele>
        <time>2016-09-14T10:36:52Z</time>
      </trkpt>
      <trkpt lat="45.94877" lon="4.86008">
        <ele>274</ele>
        <time>2016-09-14T10:36:53Z</time>
      </trkpt>
      <trkpt lat="45.94875" lon="4.86002">
        <ele>274</ele>
        <time>2016-09-14T10:36:54Z</time>
      </trkpt>
      <trkpt lat="45.94873" lon="4.85995">
        <ele>275</ele>
        <time>2016-09-14T10:36:55Z</time>
      </trkpt>
      <trkpt lat="45.94871" lon="4.85988">
        <ele>275</ele>
        <time>2016-09-14T10:36:56Z</time>
      </trkpt>
      <trkpt lat="45.94869" lon="4.85982">
        <ele>275</ele>
        <time>2016-09-14T10:36:57Z</time>
      </trkpt>
      <trkpt lat="45.94867" lon="4.85975">
        <ele>275</ele>
        <time>2016-09-14T10:36:58Z</time>
      </trkpt>
      <trkpt lat="45.94865" lon="4.85968">
        <ele>275</ele>
        <time>2016-09-14T10:36:59Z</time>
      </trkpt>
      <trkpt lat="45.94864" lon="4.85961">
        <ele>275</ele>
        <time>2016-09-14T10:37:00Z</time>
      </trkpt>
      <trkpt lat="45.94862" lon="4.85955">
        <ele>275</ele>
        <time>2016-09-14T10:37:01Z</time>
      </trkpt>
      <trkpt lat="45.9486" lon="4.85948">
        <ele>275</ele>
        <time>2016-09-14T10:37:02Z</time>
      </trkpt>
      <trkpt lat="45.94859" lon="4.85941">
        <ele>275</ele>
        <time>2016-09-14T10:37:03Z</time>
      </trkpt>
      <trkpt lat="45.94856" lon="4.85934">
        <ele>275</ele>
        <time>2016-09-14T10:37:04Z</time>
      </trkpt>
      <trkpt lat="45.94855" lon="4.85927">
        <ele>275</ele>
        <time>2016-09-14T10:37:05Z</time>
      </trkpt>
      <trkpt lat="45.94853" lon="4.8592">
        <ele>275</ele>
        <time>2016-09-14T10:37:06Z</time>
      </trkpt>
      <trkpt lat="45.94851" lon="4.85913">
        <ele>275</ele>
        <time>2016-09-14T10:37:07Z</time>
      </trkpt>
      <trkpt lat="45.94848" lon="4.85906">
        <ele>276</ele>
        <time>2016-09-14T10:37:08Z</time>
      </trkpt>
      <trkpt lat="45.94846" lon="4.85899">
        <ele>276</ele>
        <time>2016-09-14T10:37:09Z</time>
      </trkpt>
      <trkpt lat="45.94844" lon="4.85892">
        <ele>276</ele>
        <time>2016-09-14T10:37:10Z</time>
      </trkpt>
      <trkpt lat="45.94843" lon="4.85884">
        <ele>276</ele>
        <time>2016-09-14T10:37:11Z</time>
      </trkpt>
      <trkpt lat="45.94841" lon="4.85876">
        <ele>276</ele>
        <time>2016-09-14T10:37:12Z</time>
      </trkpt>
      <trkpt lat="45.94839" lon="4.85868">
        <ele>276</ele>
        <time>2016-09-14T10:37:13Z</time>
      </trkpt>
      <trkpt lat="45.94837" lon="4.85861">
        <ele>276</ele>
        <time>2016-09-14T10:37:14Z</time>
      </trkpt>
      <trkpt lat="45.94835" lon="4.85853">
        <ele>276</ele>
        <time>2016-09-14T10:37:15Z</time>
      </trkpt>
      <trkpt lat="45.94833" lon="4.85846">
        <ele>277</ele>
        <time>2016-09-14T10:37:16Z</time>
      </trkpt>
      <trkpt lat="45.94831" lon="4.85838">
        <ele>277</ele>
        <time>2016-09-14T10:37:17Z</time>
      </trkpt>
      <trkpt lat="45.94829" lon="4.85831">
        <ele>277</ele>
        <time>2016-09-14T10:37:18Z</time>
      </trkpt>
      <trkpt lat="45.94827" lon="4.85824">
        <ele>277</ele>
        <time>2016-09-14T10:37:19Z</time>
      </trkpt>
      <trkpt lat="45.94825" lon="4.85817">
        <ele>278</ele>
        <time>2016-09-14T10:37:20Z</time>
      </trkpt>
      <trkpt lat="45.94824" lon="4.8581">
        <ele>278</ele>
        <time>2016-09-14T10:37:21Z</time>
      </trkpt>
      <trkpt lat="45.94822" lon="4.85803">
        <ele>278</ele>
        <time>2016-09-14T10:37:22Z</time>
      </trkpt>
      <trkpt lat="45.9482" lon="4.85796">
        <ele>278</ele>
        <time>2016-09-14T10:37:23Z</time>
      </trkpt>
      <trkpt lat="45.94818" lon="4.85789">
        <ele>278</ele>
        <time>2016-09-14T10:37:24Z</time>
      </trkpt>
      <trkpt lat="45.94817" lon="4.85782">
        <ele>278</ele>
        <time>2016-09-14T10:37:25Z</time>
      </trkpt>
      <trkpt lat="45.94815" lon="4.85776">
        <ele>278</ele>
        <time>2016-09-14T10:37:26Z</time>
      </trkpt>
      <trkpt lat="45.94814" lon="4.85769">
        <ele>278</ele>
        <time>2016-09-14T10:37:27Z</time>
      </trkpt>
      <trkpt lat="45.94812" lon="4.85762">
        <ele>278</ele>
        <time>2016-09-14T10:37:28Z</time>
      </trkpt>
      <trkpt lat="45.9481" lon="4.85756">
        <ele>278</ele>
        <time>2016-09-14T10:37:29Z</time>
      </trkpt>
      <trkpt lat="45.94809" lon="4.85749">
        <ele>279</ele>
        <time>2016-09-14T10:37:30Z</time>
      </trkpt>
      <trkpt lat="45.94807" lon="4.85742">
        <ele>279</ele>
        <time>2016-09-14T10:37:31Z</time>
      </trkpt>
      <trkpt lat="45.94805" lon="4.85735">
        <ele>279</ele>
        <time>2016-09-14T10:37:32Z</time>
      </trkpt>
      <trkpt lat="45.94803" lon="4.85728">
        <ele>280</ele>
        <time>2016-09-14T10:37:33Z</time>
      </trkpt>
      <trkpt lat="45.94801" lon="4.85721">
        <ele>280</ele>
        <time>2016-09-14T10:37:34Z</time>
      </trkpt>
      <trkpt lat="45.94799" lon="4.85714">
        <ele>280</ele>
        <time>2016-09-14T10:37:35Z</time>
      </trkpt>
      <trkpt lat="45.94797" lon="4.85707">
        <ele>280</ele>
        <time>2016-09-14T10:37:36Z</time>
      </trkpt>
      <trkpt lat="45.94795" lon="4.857">
        <ele>280</ele>
        <time>2016-09-14T10:37:37Z</time>
      </trkpt>
      <trkpt lat="45.94793" lon="4.85694">
        <ele>280</ele>
        <time>2016-09-14T10:37:38Z</time>
      </trkpt>
      <trkpt lat="45.94792" lon="4.85688">
        <ele>280</ele>
        <time>2016-09-14T10:37:39Z</time>
      </trkpt>
      <trkpt lat="45.94789" lon="4.85676">
        <ele>280</ele>
        <time>2016-09-14T10:37:41Z</time>
      </trkpt>
      <trkpt lat="45.94788" lon="4.85671">
        <ele>280</ele>
        <time>2016-09-14T10:37:42Z</time>
      </trkpt>
      <trkpt lat="45.94785" lon="4.85659">
        <ele>281</ele>
        <time>2016-09-14T10:37:44Z</time>
      </trkpt>
      <trkpt lat="45.94783" lon="4.85652">
        <ele>281</ele>
        <time>2016-09-14T10:37:45Z</time>
      </trkpt>
      <trkpt lat="45.94781" lon="4.85645">
        <ele>281</ele>
        <time>2016-09-14T10:37:46Z</time>
      </trkpt>
      <trkpt lat="45.9478" lon="4.85639">
        <ele>281</ele>
        <time>2016-09-14T10:37:47Z</time>
      </trkpt>
      <trkpt lat="45.94778" lon="4.85632">
        <ele>280</ele>
        <time>2016-09-14T10:37:48Z</time>
      </trkpt>
      <trkpt lat="45.94776" lon="4.85625">
        <ele>280</ele>
        <time>2016-09-14T10:37:49Z</time>
      </trkpt>
      <trkpt lat="45.94774" lon="4.85618">
        <ele>280</ele>
        <time>2016-09-14T10:37:50Z</time>
      </trkpt>
      <trkpt lat="45.94773" lon="4.8561">
        <ele>280</ele>
        <time>2016-09-14T10:37:51Z</time>
      </trkpt>
      <trkpt lat="45.94773" lon="4.85602">
        <ele>280</ele>
        <time>2016-09-14T10:37:52Z</time>
      </trkpt>
      <trkpt lat="45.94771" lon="4.85593">
        <ele>280</ele>
        <time>2016-09-14T10:37:53Z</time>
      </trkpt>
      <trkpt lat="45.94769" lon="4.85584">
        <ele>280</ele>
        <time>2016-09-14T10:37:54Z</time>
      </trkpt>
      <trkpt lat="45.94767" lon="4.85575">
        <ele>279</ele>
        <time>2016-09-14T10:37:55Z</time>
      </trkpt>
      <trkpt lat="45.94765" lon="4.85566">
        <ele>279</ele>
        <time>2016-09-14T10:37:56Z</time>
      </trkpt>
      <trkpt lat="45.94764" lon="4.85556">
        <ele>278</ele>
        <time>2016-09-14T10:37:57Z</time>
      </trkpt>
      <trkpt lat="45.94762" lon="4.85546">
        <ele>278</ele>
        <time>2016-09-14T10:37:58Z</time>
      </trkpt>
      <trkpt lat="45.94761" lon="4.85535">
        <ele>278</ele>
        <time>2016-09-14T10:37:59Z</time>
      </trkpt>
      <trkpt lat="45.94759" lon="4.85524">
        <ele>277</ele>
        <time>2016-09-14T10:38:00Z</time>
      </trkpt>
      <trkpt lat="45.94757" lon="4.85513">
        <ele>277</ele>
        <time>2016-09-14T10:38:01Z</time>
      </trkpt>
      <trkpt lat="45.94756" lon="4.85502">
        <ele>276</ele>
        <time>2016-09-14T10:38:02Z</time>
      </trkpt>
      <trkpt lat="45.94754" lon="4.85491">
        <ele>276</ele>
        <time>2016-09-14T10:38:03Z</time>
      </trkpt>
      <trkpt lat="45.94753" lon="4.85479">
        <ele>275</ele>
        <time>2016-09-14T10:38:04Z</time>
      </trkpt>
      <trkpt lat="45.94751" lon="4.85467">
        <ele>275</ele>
        <time>2016-09-14T10:38:05Z</time>
      </trkpt>
      <trkpt lat="45.9475" lon="4.85455">
        <ele>274</ele>
        <time>2016-09-14T10:38:06Z</time>
      </trkpt>
      <trkpt lat="45.94748" lon="4.85443">
        <ele>274</ele>
        <time>2016-09-14T10:38:07Z</time>
      </trkpt>
      <trkpt lat="45.94747" lon="4.85431">
        <ele>273</ele>
        <time>2016-09-14T10:38:08Z</time>
      </trkpt>
      <trkpt lat="45.94746" lon="4.85419">
        <ele>273</ele>
        <time>2016-09-14T10:38:09Z</time>
      </trkpt>
      <trkpt lat="45.94744" lon="4.85407">
        <ele>272</ele>
        <time>2016-09-14T10:38:10Z</time>
      </trkpt>
      <trkpt lat="45.94743" lon="4.85395">
        <ele>272</ele>
        <time>2016-09-14T10:38:11Z</time>
      </trkpt>
      <trkpt lat="45.94742" lon="4.85384">
        <ele>272</ele>
        <time>2016-09-14T10:38:12Z</time>
      </trkpt>
      <trkpt lat="45.9474" lon="4.85372">
        <ele>271</ele>
        <time>2016-09-14T10:38:13Z</time>
      </trkpt>
      <trkpt lat="45.94739" lon="4.85361">
        <ele>271</ele>
        <time>2016-09-14T10:38:14Z</time>
      </trkpt>
      <trkpt lat="45.94737" lon="4.8535">
        <ele>271</ele>
        <time>2016-09-14T10:38:15Z</time>
      </trkpt>
      <trkpt lat="45.94736" lon="4.85339">
        <ele>271</ele>
        <time>2016-09-14T10:38:16Z</time>
      </trkpt>
      <trkpt lat="45.94735" lon="4.85328">
        <ele>270</ele>
        <time>2016-09-14T10:38:17Z</time>
      </trkpt>
      <trkpt lat="45.94734" lon="4.85318">
        <ele>270</ele>
        <time>2016-09-14T10:38:18Z</time>
      </trkpt>
      <trkpt lat="45.94733" lon="4.85308">
        <ele>270</ele>
        <time>2016-09-14T10:38:19Z</time>
      </trkpt>
      <trkpt lat="45.94732" lon="4.85298">
        <ele>270</ele>
        <time>2016-09-14T10:38:20Z</time>
      </trkpt>
      <trkpt lat="45.94731" lon="4.85288">
        <ele>269</ele>
        <time>2016-09-14T10:38:21Z</time>
      </trkpt>
      <trkpt lat="45.94731" lon="4.85279">
        <ele>269</ele>
        <time>2016-09-14T10:38:22Z</time>
      </trkpt>
      <trkpt lat="45.9473" lon="4.8527">
        <ele>269</ele>
        <time>2016-09-14T10:38:23Z</time>
      </trkpt>
      <trkpt lat="45.94729" lon="4.85261">
        <ele>269</ele>
        <time>2016-09-14T10:38:24Z</time>
      </trkpt>
      <trkpt lat="45.94728" lon="4.85252">
        <ele>269</ele>
        <time>2016-09-14T10:38:25Z</time>
      </trkpt>
      <trkpt lat="45.94727" lon="4.85243">
        <ele>269</ele>
        <time>2016-09-14T10:38:26Z</time>
      </trkpt>
      <trkpt lat="45.94726" lon="4.85235">
        <ele>269</ele>
        <time>2016-09-14T10:38:27Z</time>
      </trkpt>
      <trkpt lat="45.94725" lon="4.85227">
        <ele>269</ele>
        <time>2016-09-14T10:38:28Z</time>
      </trkpt>
      <trkpt lat="45.94724" lon="4.85218">
        <ele>269</ele>
        <time>2016-09-14T10:38:29Z</time>
      </trkpt>
      <trkpt lat="45.94723" lon="4.8521">
        <ele>269</ele>
        <time>2016-09-14T10:38:30Z</time>
      </trkpt>
      <trkpt lat="45.94722" lon="4.85201">
        <ele>269</ele>
        <time>2016-09-14T10:38:31Z</time>
      </trkpt>
      <trkpt lat="45.94721" lon="4.85192">
        <ele>269</ele>
        <time>2016-09-14T10:38:32Z</time>
      </trkpt>
      <trkpt lat="45.9472" lon="4.85183">
        <ele>269</ele>
        <time>2016-09-14T10:38:33Z</time>
      </trkpt>
      <trkpt lat="45.94718" lon="4.85174">
        <ele>269</ele>
        <time>2016-09-14T10:38:34Z</time>
      </trkpt>
      <trkpt lat="45.94717" lon="4.85164">
        <ele>269</ele>
        <time>2016-09-14T10:38:35Z</time>
      </trkpt>
      <trkpt lat="45.94716" lon="4.85155">
        <ele>269</ele>
        <time>2016-09-14T10:38:36Z</time>
      </trkpt>
      <trkpt lat="45.94715" lon="4.85146">
        <ele>269</ele>
        <time>2016-09-14T10:38:37Z</time>
      </trkpt>
      <trkpt lat="45.94714" lon="4.85137">
        <ele>269</ele>
        <time>2016-09-14T10:38:38Z</time>
      </trkpt>
      <trkpt lat="45.94713" lon="4.85128">
        <ele>269</ele>
        <time>2016-09-14T10:38:39Z</time>
      </trkpt>
      <trkpt lat="45.94713" lon="4.8512">
        <ele>269</ele>
        <time>2016-09-14T10:38:40Z</time>
      </trkpt>
      <trkpt lat="45.94711" lon="4.85112">
        <ele>269</ele>
        <time>2016-09-14T10:38:41Z</time>
      </trkpt>
      <trkpt lat="45.94711" lon="4.85104">
        <ele>269</ele>
        <time>2016-09-14T10:38:42Z</time>
      </trkpt>
      <trkpt lat="45.9471" lon="4.85096">
        <ele>269</ele>
        <time>2016-09-14T10:38:43Z</time>
      </trkpt>
      <trkpt lat="45.94709" lon="4.85089">
        <ele>269</ele>
        <time>2016-09-14T10:38:44Z</time>
      </trkpt>
      <trkpt lat="45.94708" lon="4.85081">
        <ele>269</ele>
        <time>2016-09-14T10:38:45Z</time>
      </trkpt>
      <trkpt lat="45.94707" lon="4.85073">
        <ele>269</ele>
        <time>2016-09-14T10:38:46Z</time>
      </trkpt>
      <trkpt lat="45.94707" lon="4.85064">
        <ele>269</ele>
        <time>2016-09-14T10:38:47Z</time>
      </trkpt>
      <trkpt lat="45.94706" lon="4.85056">
        <ele>269</ele>
        <time>2016-09-14T10:38:48Z</time>
      </trkpt>
      <trkpt lat="45.94705" lon="4.85048">
        <ele>269</ele>
        <time>2016-09-14T10:38:49Z</time>
      </trkpt>
      <trkpt lat="45.94704" lon="4.85039">
        <ele>269</ele>
        <time>2016-09-14T10:38:50Z</time>
      </trkpt>
      <trkpt lat="45.94704" lon="4.8503">
        <ele>269</ele>
        <time>2016-09-14T10:38:51Z</time>
      </trkpt>
      <trkpt lat="45.94703" lon="4.85021">
        <ele>269</ele>
        <time>2016-09-14T10:38:52Z</time>
      </trkpt>
      <trkpt lat="45.94702" lon="4.85012">
        <ele>269</ele>
        <time>2016-09-14T10:38:53Z</time>
      </trkpt>
      <trkpt lat="45.94701" lon="4.85003">
        <ele>269</ele>
        <time>2016-09-14T10:38:54Z</time>
      </trkpt>
      <trkpt lat="45.947" lon="4.84994">
        <ele>269</ele>
        <time>2016-09-14T10:38:55Z</time>
      </trkpt>
      <trkpt lat="45.94699" lon="4.84986">
        <ele>269</ele>
        <time>2016-09-14T10:38:56Z</time>
      </trkpt>
      <trkpt lat="45.94698" lon="4.84978">
        <ele>269</ele>
        <time>2016-09-14T10:38:57Z</time>
      </trkpt>
      <trkpt lat="45.94697" lon="4.84971">
        <ele>269</ele>
        <time>2016-09-14T10:38:58Z</time>
      </trkpt>
      <trkpt lat="45.94697" lon="4.84963">
        <ele>269</ele>
        <time>2016-09-14T10:38:59Z</time>
      </trkpt>
      <trkpt lat="45.94695" lon="4.84956">
        <ele>269</ele>
        <time>2016-09-14T10:39:00Z</time>
      </trkpt>
      <trkpt lat="45.94694" lon="4.84948">
        <ele>269</ele>
        <time>2016-09-14T10:39:01Z</time>
      </trkpt>
      <trkpt lat="45.94694" lon="4.8494">
        <ele>269</ele>
        <time>2016-09-14T10:39:02Z</time>
      </trkpt>
      <trkpt lat="45.94693" lon="4.84932">
        <ele>269</ele>
        <time>2016-09-14T10:39:03Z</time>
      </trkpt>
      <trkpt lat="45.94693" lon="4.84923">
        <ele>269</ele>
        <time>2016-09-14T10:39:04Z</time>
      </trkpt>
      <trkpt lat="45.94692" lon="4.84915">
        <ele>269</ele>
        <time>2016-09-14T10:39:05Z</time>
      </trkpt>
      <trkpt lat="45.94691" lon="4.84905">
        <ele>268</ele>
        <time>2016-09-14T10:39:06Z</time>
      </trkpt>
      <trkpt lat="45.9469" lon="4.84896">
        <ele>268</ele>
        <time>2016-09-14T10:39:07Z</time>
      </trkpt>
      <trkpt lat="45.94689" lon="4.84887">
        <ele>268</ele>
        <time>2016-09-14T10:39:08Z</time>
      </trkpt>
      <trkpt lat="45.94688" lon="4.84877">
        <ele>268</ele>
        <time>2016-09-14T10:39:09Z</time>
      </trkpt>
      <trkpt lat="45.94687" lon="4.84868">
        <ele>268</ele>
        <time>2016-09-14T10:39:10Z</time>
      </trkpt>
      <trkpt lat="45.94686" lon="4.8486">
        <ele>268</ele>
        <time>2016-09-14T10:39:11Z</time>
      </trkpt>
      <trkpt lat="45.94685" lon="4.84851">
        <ele>268</ele>
        <time>2016-09-14T10:39:12Z</time>
      </trkpt>
      <trkpt lat="45.94684" lon="4.84842">
        <ele>268</ele>
        <time>2016-09-14T10:39:13Z</time>
      </trkpt>
      <trkpt lat="45.94684" lon="4.84834">
        <ele>268</ele>
        <time>2016-09-14T10:39:14Z</time>
      </trkpt>
      <trkpt lat="45.94683" lon="4.84826">
        <ele>268</ele>
        <time>2016-09-14T10:39:15Z</time>
      </trkpt>
      <trkpt lat="45.94682" lon="4.84819">
        <ele>268</ele>
        <time>2016-09-14T10:39:16Z</time>
      </trkpt>
      <trkpt lat="45.94682" lon="4.84812">
        <ele>268</ele>
        <time>2016-09-14T10:39:17Z</time>
      </trkpt>
      <trkpt lat="45.94681" lon="4.84804">
        <ele>268</ele>
        <time>2016-09-14T10:39:18Z</time>
      </trkpt>
      <trkpt lat="45.9468" lon="4.84796">
        <ele>268</ele>
        <time>2016-09-14T10:39:19Z</time>
      </trkpt>
      <trkpt lat="45.94679" lon="4.84787">
        <ele>269</ele>
        <time>2016-09-14T10:39:20Z</time>
      </trkpt>
      <trkpt lat="45.94678" lon="4.84779">
        <ele>269</ele>
        <time>2016-09-14T10:39:21Z</time>
      </trkpt>
      <trkpt lat="45.94678" lon="4.8477">
        <ele>269</ele>
        <time>2016-09-14T10:39:22Z</time>
      </trkpt>
      <trkpt lat="45.94677" lon="4.84762">
        <ele>269</ele>
        <time>2016-09-14T10:39:23Z</time>
      </trkpt>
      <trkpt lat="45.94676" lon="4.84753">
        <ele>269</ele>
        <time>2016-09-14T10:39:24Z</time>
      </trkpt>
      <trkpt lat="45.94675" lon="4.84744">
        <ele>269</ele>
        <time>2016-09-14T10:39:25Z</time>
      </trkpt>
      <trkpt lat="45.94675" lon="4.84736">
        <ele>269</ele>
        <time>2016-09-14T10:39:26Z</time>
      </trkpt>
      <trkpt lat="45.94675" lon="4.84728">
        <ele>269</ele>
        <time>2016-09-14T10:39:27Z</time>
      </trkpt>
      <trkpt lat="45.94674" lon="4.8472">
        <ele>269</ele>
        <time>2016-09-14T10:39:28Z</time>
      </trkpt>
      <trkpt lat="45.94674" lon="4.84712">
        <ele>269</ele>
        <time>2016-09-14T10:39:29Z</time>
      </trkpt>
      <trkpt lat="45.94674" lon="4.84705">
        <ele>269</ele>
        <time>2016-09-14T10:39:30Z</time>
      </trkpt>
      <trkpt lat="45.94674" lon="4.84698">
        <ele>269</ele>
        <time>2016-09-14T10:39:31Z</time>
      </trkpt>
      <trkpt lat="45.94674" lon="4.8469">
        <ele>269</ele>
        <time>2016-09-14T10:39:32Z</time>
      </trkpt>
      <trkpt lat="45.94673" lon="4.84683">
        <ele>269</ele>
        <time>2016-09-14T10:39:33Z</time>
      </trkpt>
      <trkpt lat="45.94673" lon="4.84675">
        <ele>269</ele>
        <time>2016-09-14T10:39:34Z</time>
      </trkpt>
      <trkpt lat="45.94673" lon="4.84667">
        <ele>269</ele>
        <time>2016-09-14T10:39:35Z</time>
      </trkpt>
      <trkpt lat="45.94673" lon="4.84659">
        <ele>268</ele>
        <time>2016-09-14T10:39:36Z</time>
      </trkpt>
      <trkpt lat="45.94673" lon="4.84651">
        <ele>268</ele>
        <time>2016-09-14T10:39:37Z</time>
      </trkpt>
      <trkpt lat="45.94672" lon="4.84644">
        <ele>268</ele>
        <time>2016-09-14T10:39:38Z</time>
      </trkpt>
      <trkpt lat="45.94671" lon="4.84636">
        <ele>268</ele>
        <time>2016-09-14T10:39:39Z</time>
      </trkpt>
      <trkpt lat="45.94671" lon="4.84628">
        <ele>268</ele>
        <time>2016-09-14T10:39:40Z</time>
      </trkpt>
      <trkpt lat="45.9467" lon="4.84621">
        <ele>268</ele>
        <time>2016-09-14T10:39:41Z</time>
      </trkpt>
      <trkpt lat="45.9467" lon="4.84613">
        <ele>268</ele>
        <time>2016-09-14T10:39:42Z</time>
      </trkpt>
      <trkpt lat="45.9467" lon="4.84605">
        <ele>268</ele>
        <time>2016-09-14T10:39:43Z</time>
      </trkpt>
      <trkpt lat="45.9467" lon="4.84597">
        <ele>268</ele>
        <time>2016-09-14T10:39:44Z</time>
      </trkpt>
      <trkpt lat="45.94669" lon="4.84589">
        <ele>268</ele>
        <time>2016-09-14T10:39:45Z</time>
      </trkpt>
      <trkpt lat="45.94669" lon="4.8458">
        <ele>268</ele>
        <time>2016-09-14T10:39:46Z</time>
      </trkpt>
      <trkpt lat="45.94668" lon="4.84572">
        <ele>268</ele>
        <time>2016-09-14T10:39:47Z</time>
      </trkpt>
      <trkpt lat="45.94668" lon="4.84563">
        <ele>268</ele>
        <time>2016-09-14T10:39:48Z</time>
      </trkpt>
      <trkpt lat="45.94668" lon="4.84554">
        <ele>268</ele>
        <time>2016-09-14T10:39:49Z</time>
      </trkpt>
      <trkpt lat="45.94666" lon="4.84546">
        <ele>268</ele>
        <time>2016-09-14T10:39:50Z</time>
      </trkpt>
      <trkpt lat="45.94666" lon="4.84538">
        <ele>268</ele>
        <time>2016-09-14T10:39:51Z</time>
      </trkpt>
      <trkpt lat="45.94665" lon="4.84529">
        <ele>268</ele>
        <time>2016-09-14T10:39:52Z</time>
      </trkpt>
      <trkpt lat="45.94665" lon="4.84521">
        <ele>268</ele>
        <time>2016-09-14T10:39:53Z</time>
      </trkpt>
      <trkpt lat="45.94664" lon="4.84514">
        <ele>268</ele>
        <time>2016-09-14T10:39:54Z</time>
      </trkpt>
      <trkpt lat="45.94663" lon="4.84507">
        <ele>268</ele>
        <time>2016-09-14T10:39:55Z</time>
      </trkpt>
      <trkpt lat="45.94663" lon="4.84499">
        <ele>268</ele>
        <time>2016-09-14T10:39:56Z</time>
      </trkpt>
      <trkpt lat="45.94662" lon="4.84491">
        <ele>268</ele>
        <time>2016-09-14T10:39:57Z</time>
      </trkpt>
      <trkpt lat="45.94661" lon="4.84483">
        <ele>268</ele>
        <time>2016-09-14T10:39:58Z</time>
      </trkpt>
      <trkpt lat="45.9466" lon="4.84475">
        <ele>268</ele>
        <time>2016-09-14T10:39:59Z</time>
      </trkpt>
      <trkpt lat="45.94659" lon="4.84466">
        <ele>268</ele>
        <time>2016-09-14T10:40:00Z</time>
      </trkpt>
      <trkpt lat="45.94658" lon="4.84457">
        <ele>268</ele>
        <time>2016-09-14T10:40:01Z</time>
      </trkpt>
      <trkpt lat="45.94657" lon="4.84449">
        <ele>268</ele>
        <time>2016-09-14T10:40:02Z</time>
      </trkpt>
      <trkpt lat="45.94656" lon="4.84441">
        <ele>268</ele>
        <time>2016-09-14T10:40:03Z</time>
      </trkpt>
      <trkpt lat="45.94656" lon="4.84433">
        <ele>268</ele>
        <time>2016-09-14T10:40:04Z</time>
      </trkpt>
      <trkpt lat="45.94655" lon="4.84425">
        <ele>268</ele>
        <time>2016-09-14T10:40:05Z</time>
      </trkpt>
      <trkpt lat="45.94654" lon="4.84417">
        <ele>268</ele>
        <time>2016-09-14T10:40:06Z</time>
      </trkpt>
      <trkpt lat="45.94653" lon="4.8441">
        <ele>268</ele>
        <time>2016-09-14T10:40:07Z</time>
      </trkpt>
      <trkpt lat="45.94652" lon="4.84402">
        <ele>268</ele>
        <time>2016-09-14T10:40:08Z</time>
      </trkpt>
      <trkpt lat="45.94651" lon="4.84394">
        <ele>268</ele>
        <time>2016-09-14T10:40:09Z</time>
      </trkpt>
      <trkpt lat="45.9465" lon="4.84387">
        <ele>268</ele>
        <time>2016-09-14T10:40:10Z</time>
      </trkpt>
      <trkpt lat="45.94649" lon="4.84379">
        <ele>268</ele>
        <time>2016-09-14T10:40:11Z</time>
      </trkpt>
      <trkpt lat="45.94648" lon="4.84371">
        <ele>268</ele>
        <time>2016-09-14T10:40:12Z</time>
      </trkpt>
      <trkpt lat="45.94647" lon="4.84364">
        <ele>268</ele>
        <time>2016-09-14T10:40:13Z</time>
      </trkpt>
      <trkpt lat="45.94646" lon="4.84356">
        <ele>268</ele>
        <time>2016-09-14T10:40:14Z</time>
      </trkpt>
      <trkpt lat="45.94645" lon="4.84349">
        <ele>268</ele>
        <time>2016-09-14T10:40:15Z</time>
      </trkpt>
      <trkpt lat="45.94645" lon="4.84341">
        <ele>268</ele>
        <time>2016-09-14T10:40:16Z</time>
      </trkpt>
      <trkpt lat="45.94644" lon="4.84334">
        <ele>268</ele>
        <time>2016-09-14T10:40:17Z</time>
      </trkpt>
      <trkpt lat="45.94643" lon="4.84327">
        <ele>268</ele>
        <time>2016-09-14T10:40:18Z</time>
      </trkpt>
      <trkpt lat="45.94642" lon="4.84319">
        <ele>269</ele>
        <time>2016-09-14T10:40:19Z</time>
      </trkpt>
      <trkpt lat="45.94641" lon="4.84311">
        <ele>269</ele>
        <time>2016-09-14T10:40:20Z</time>
      </trkpt>
      <trkpt lat="45.94639" lon="4.84303">
        <ele>269</ele>
        <time>2016-09-14T10:40:21Z</time>
      </trkpt>
      <trkpt lat="45.94638" lon="4.84295">
        <ele>269</ele>
        <time>2016-09-14T10:40:22Z</time>
      </trkpt>
      <trkpt lat="45.94638" lon="4.84287">
        <ele>269</ele>
        <time>2016-09-14T10:40:23Z</time>
      </trkpt>
      <trkpt lat="45.94637" lon="4.84278">
        <ele>269</ele>
        <time>2016-09-14T10:40:24Z</time>
      </trkpt>
      <trkpt lat="45.94636" lon="4.8427">
        <ele>269</ele>
        <time>2016-09-14T10:40:25Z</time>
      </trkpt>
      <trkpt lat="45.94634" lon="4.84261">
        <ele>269</ele>
        <time>2016-09-14T10:40:26Z</time>
      </trkpt>
      <trkpt lat="45.94633" lon="4.84253">
        <ele>269</ele>
        <time>2016-09-14T10:40:27Z</time>
      </trkpt>
      <trkpt lat="45.94632" lon="4.84244">
        <ele>269</ele>
        <time>2016-09-14T10:40:28Z</time>
      </trkpt>
      <trkpt lat="45.94631" lon="4.84235">
        <ele>269</ele>
        <time>2016-09-14T10:40:29Z</time>
      </trkpt>
      <trkpt lat="45.9463" lon="4.84226">
        <ele>269</ele>
        <time>2016-09-14T10:40:30Z</time>
      </trkpt>
      <trkpt lat="45.94629" lon="4.84217">
        <ele>269</ele>
        <time>2016-09-14T10:40:31Z</time>
      </trkpt>
      <trkpt lat="45.94628" lon="4.84208">
        <ele>269</ele>
        <time>2016-09-14T10:40:32Z</time>
      </trkpt>
      <trkpt lat="45.94626" lon="4.84199">
        <ele>269</ele>
        <time>2016-09-14T10:40:33Z</time>
      </trkpt>
      <trkpt lat="45.94625" lon="4.8419">
        <ele>269</ele>
        <time>2016-09-14T10:40:34Z</time>
      </trkpt>
      <trkpt lat="45.94623" lon="4.84181">
        <ele>269</ele>
        <time>2016-09-14T10:40:35Z</time>
      </trkpt>
      <trkpt lat="45.94622" lon="4.84173">
        <ele>269</ele>
        <time>2016-09-14T10:40:36Z</time>
      </trkpt>
      <trkpt lat="45.94621" lon="4.84165">
        <ele>269</ele>
        <time>2016-09-14T10:40:37Z</time>
      </trkpt>
      <trkpt lat="45.9462" lon="4.84156">
        <ele>269</ele>
        <time>2016-09-14T10:40:38Z</time>
      </trkpt>
      <trkpt lat="45.94619" lon="4.84149">
        <ele>269</ele>
        <time>2016-09-14T10:40:39Z</time>
      </trkpt>
      <trkpt lat="45.94618" lon="4.84141">
        <ele>269</ele>
        <time>2016-09-14T10:40:40Z</time>
      </trkpt>
      <trkpt lat="45.94617" lon="4.84133">
        <ele>269</ele>
        <time>2016-09-14T10:40:41Z</time>
      </trkpt>
      <trkpt lat="45.94615" lon="4.84126">
        <ele>269</ele>
        <time>2016-09-14T10:40:42Z</time>
      </trkpt>
      <trkpt lat="45.94614" lon="4.84119">
        <ele>269</ele>
        <time>2016-09-14T10:40:43Z</time>
      </trkpt>
      <trkpt lat="45.94612" lon="4.84111">
        <ele>269</ele>
        <time>2016-09-14T10:40:44Z</time>
      </trkpt>
      <trkpt lat="45.94611" lon="4.84103">
        <ele>269</ele>
        <time>2016-09-14T10:40:45Z</time>
      </trkpt>
      <trkpt lat="45.9461" lon="4.84094">
        <ele>269</ele>
        <time>2016-09-14T10:40:46Z</time>
      </trkpt>
      <trkpt lat="45.94609" lon="4.84086">
        <ele>269</ele>
        <time>2016-09-14T10:40:47Z</time>
      </trkpt>
      <trkpt lat="45.94607" lon="4.84077">
        <ele>269</ele>
        <time>2016-09-14T10:40:48Z</time>
      </trkpt>
      <trkpt lat="45.94606" lon="4.84068">
        <ele>269</ele>
        <time>2016-09-14T10:40:49Z</time>
      </trkpt>
      <trkpt lat="45.94605" lon="4.8406">
        <ele>269</ele>
        <time>2016-09-14T10:40:50Z</time>
      </trkpt>
      <trkpt lat="45.94603" lon="4.84052">
        <ele>269</ele>
        <time>2016-09-14T10:40:51Z</time>
      </trkpt>
      <trkpt lat="45.94602" lon="4.84044">
        <ele>269</ele>
        <time>2016-09-14T10:40:52Z</time>
      </trkpt>
      <trkpt lat="45.946" lon="4.84035">
        <ele>269</ele>
        <time>2016-09-14T10:40:53Z</time>
      </trkpt>
      <trkpt lat="45.94599" lon="4.84027">
        <ele>269</ele>
        <time>2016-09-14T10:40:54Z</time>
      </trkpt>
      <trkpt lat="45.94598" lon="4.8402">
        <ele>269</ele>
        <time>2016-09-14T10:40:55Z</time>
      </trkpt>
      <trkpt lat="45.94597" lon="4.84013">
        <ele>269</ele>
        <time>2016-09-14T10:40:56Z</time>
      </trkpt>
      <trkpt lat="45.94596" lon="4.84005">
        <ele>269</ele>
        <time>2016-09-14T10:40:57Z</time>
      </trkpt>
      <trkpt lat="45.94595" lon="4.83998">
        <ele>269</ele>
        <time>2016-09-14T10:40:58Z</time>
      </trkpt>
      <trkpt lat="45.94594" lon="4.83991">
        <ele>269</ele>
        <time>2016-09-14T10:40:59Z</time>
      </trkpt>
      <trkpt lat="45.94592" lon="4.83983">
        <ele>268</ele>
        <time>2016-09-14T10:41:00Z</time>
      </trkpt>
      <trkpt lat="45.94591" lon="4.83975">
        <ele>268</ele>
        <time>2016-09-14T10:41:01Z</time>
      </trkpt>
      <trkpt lat="45.9459" lon="4.83966">
        <ele>268</ele>
        <time>2016-09-14T10:41:02Z</time>
      </trkpt>
      <trkpt lat="45.94588" lon="4.83958">
        <ele>268</ele>
        <time>2016-09-14T10:41:03Z</time>
      </trkpt>
      <trkpt lat="45.94587" lon="4.83949">
        <ele>268</ele>
        <time>2016-09-14T10:41:04Z</time>
      </trkpt>
      <trkpt lat="45.94585" lon="4.8394">
        <ele>268</ele>
        <time>2016-09-14T10:41:05Z</time>
      </trkpt>
      <trkpt lat="45.94584" lon="4.83931">
        <ele>268</ele>
        <time>2016-09-14T10:41:06Z</time>
      </trkpt>
      <trkpt lat="45.94583" lon="4.83921">
        <ele>268</ele>
        <time>2016-09-14T10:41:07Z</time>
      </trkpt>
      <trkpt lat="45.94581" lon="4.83911">
        <ele>268</ele>
        <time>2016-09-14T10:41:08Z</time>
      </trkpt>
      <trkpt lat="45.9458" lon="4.83901">
        <ele>268</ele>
        <time>2016-09-14T10:41:09Z</time>
      </trkpt>
      <trkpt lat="45.94578" lon="4.8389">
        <ele>267</ele>
        <time>2016-09-14T10:41:10Z</time>
      </trkpt>
      <trkpt lat="45.94576" lon="4.83879">
        <ele>267</ele>
        <time>2016-09-14T10:41:11Z</time>
      </trkpt>
      <trkpt lat="45.94574" lon="4.83868">
        <ele>267</ele>
        <time>2016-09-14T10:41:12Z</time>
      </trkpt>
      <trkpt lat="45.94573" lon="4.83857">
        <ele>266</ele>
        <time>2016-09-14T10:41:13Z</time>
      </trkpt>
      <trkpt lat="45.94571" lon="4.83846">
        <ele>266</ele>
        <time>2016-09-14T10:41:14Z</time>
      </trkpt>
      <trkpt lat="45.94569" lon="4.83834">
        <ele>266</ele>
        <time>2016-09-14T10:41:15Z</time>
      </trkpt>
      <trkpt lat="45.94568" lon="4.83823">
        <ele>264</ele>
        <time>2016-09-14T10:41:16Z</time>
      </trkpt>
      <trkpt lat="45.94566" lon="4.83812">
        <ele>264</ele>
        <time>2016-09-14T10:41:17Z</time>
      </trkpt>
      <trkpt lat="45.94565" lon="4.838">
        <ele>264</ele>
        <time>2016-09-14T10:41:18Z</time>
      </trkpt>
      <trkpt lat="45.94563" lon="4.83789">
        <ele>264</ele>
        <time>2016-09-14T10:41:19Z</time>
      </trkpt>
      <trkpt lat="45.94561" lon="4.83778">
        <ele>264</ele>
        <time>2016-09-14T10:41:20Z</time>
      </trkpt>
      <trkpt lat="45.9456" lon="4.83767">
        <ele>263</ele>
        <time>2016-09-14T10:41:21Z</time>
      </trkpt>
      <trkpt lat="45.94558" lon="4.83756">
        <ele>263</ele>
        <time>2016-09-14T10:41:22Z</time>
      </trkpt>
      <trkpt lat="45.94556" lon="4.83745">
        <ele>262</ele>
        <time>2016-09-14T10:41:23Z</time>
      </trkpt>
      <trkpt lat="45.94554" lon="4.83735">
        <ele>262</ele>
        <time>2016-09-14T10:41:24Z</time>
      </trkpt>
      <trkpt lat="45.94552" lon="4.83725">
        <ele>262</ele>
        <time>2016-09-14T10:41:25Z</time>
      </trkpt>
      <trkpt lat="45.9455" lon="4.83715">
        <ele>262</ele>
        <time>2016-09-14T10:41:26Z</time>
      </trkpt>
      <trkpt lat="45.94549" lon="4.83705">
        <ele>262</ele>
        <time>2016-09-14T10:41:27Z</time>
      </trkpt>
      <trkpt lat="45.94548" lon="4.83696">
        <ele>262</ele>
        <time>2016-09-14T10:41:28Z</time>
      </trkpt>
      <trkpt lat="45.94546" lon="4.83687">
        <ele>262</ele>
        <time>2016-09-14T10:41:29Z</time>
      </trkpt>
      <trkpt lat="45.94545" lon="4.83678">
        <ele>262</ele>
        <time>2016-09-14T10:41:30Z</time>
      </trkpt>
      <trkpt lat="45.94543" lon="4.83669">
        <ele>262</ele>
        <time>2016-09-14T10:41:31Z</time>
      </trkpt>
      <trkpt lat="45.94542" lon="4.8366">
        <ele>261</ele>
        <time>2016-09-14T10:41:32Z</time>
      </trkpt>
      <trkpt lat="45.94541" lon="4.83651">
        <ele>261</ele>
        <time>2016-09-14T10:41:33Z</time>
      </trkpt>
      <trkpt lat="45.9454" lon="4.83643">
        <ele>261</ele>
        <time>2016-09-14T10:41:34Z</time>
      </trkpt>
      <trkpt lat="45.94538" lon="4.83635">
        <ele>261</ele>
        <time>2016-09-14T10:41:35Z</time>
      </trkpt>
      <trkpt lat="45.94536" lon="4.83626">
        <ele>261</ele>
        <time>2016-09-14T10:41:36Z</time>
      </trkpt>
      <trkpt lat="45.94535" lon="4.83618">
        <ele>261</ele>
        <time>2016-09-14T10:41:37Z</time>
      </trkpt>
      <trkpt lat="45.94534" lon="4.83609">
        <ele>261</ele>
        <time>2016-09-14T10:41:38Z</time>
      </trkpt>
      <trkpt lat="45.94533" lon="4.83601">
        <ele>261</ele>
        <time>2016-09-14T10:41:39Z</time>
      </trkpt>
      <trkpt lat="45.94531" lon="4.83593">
        <ele>261</ele>
        <time>2016-09-14T10:41:40Z</time>
      </trkpt>
      <trkpt lat="45.94529" lon="4.83584">
        <ele>261</ele>
        <time>2016-09-14T10:41:41Z</time>
      </trkpt>
      <trkpt lat="45.94527" lon="4.83576">
        <ele>261</ele>
        <time>2016-09-14T10:41:42Z</time>
      </trkpt>
      <trkpt lat="45.94524" lon="4.83568">
        <ele>261</ele>
        <time>2016-09-14T10:41:43Z</time>
      </trkpt>
      <trkpt lat="45.94521" lon="4.8356">
        <ele>261</ele>
        <time>2016-09-14T10:41:44Z</time>
      </trkpt>
      <trkpt lat="45.94517" lon="4.83553">
        <ele>261</ele>
        <time>2016-09-14T10:41:45Z</time>
      </trkpt>
      <trkpt lat="45.94513" lon="4.83546">
        <ele>261</ele>
        <time>2016-09-14T10:41:46Z</time>
      </trkpt>
      <trkpt lat="45.94508" lon="4.83539">
        <ele>262</ele>
        <time>2016-09-14T10:41:47Z</time>
      </trkpt>
      <trkpt lat="45.94504" lon="4.83532">
        <ele>262</ele>
        <time>2016-09-14T10:41:48Z</time>
      </trkpt>
      <trkpt lat="45.945" lon="4.83526">
        <ele>262</ele>
        <time>2016-09-14T10:41:49Z</time>
      </trkpt>
      <trkpt lat="45.94496" lon="4.8352">
        <ele>262</ele>
        <time>2016-09-14T10:41:50Z</time>
      </trkpt>
      <trkpt lat="45.94492" lon="4.83514">
        <ele>262</ele>
        <time>2016-09-14T10:41:51Z</time>
      </trkpt>
      <trkpt lat="45.94488" lon="4.83508">
        <ele>262</ele>
        <time>2016-09-14T10:41:52Z</time>
      </trkpt>
      <trkpt lat="45.94485" lon="4.83503">
        <ele>262</ele>
        <time>2016-09-14T10:41:53Z</time>
      </trkpt>
      <trkpt lat="45.94482" lon="4.83497">
        <ele>263</ele>
        <time>2016-09-14T10:41:54Z</time>
      </trkpt>
      <trkpt lat="45.94479" lon="4.83492">
        <ele>263</ele>
        <time>2016-09-14T10:41:55Z</time>
      </trkpt>
      <trkpt lat="45.94475" lon="4.83486">
        <ele>263</ele>
        <time>2016-09-14T10:41:56Z</time>
      </trkpt>
      <trkpt lat="45.94472" lon="4.8348">
        <ele>263</ele>
        <time>2016-09-14T10:41:57Z</time>
      </trkpt>
      <trkpt lat="45.94468" lon="4.83474">
        <ele>263</ele>
        <time>2016-09-14T10:41:58Z</time>
      </trkpt>
      <trkpt lat="45.94465" lon="4.83469">
        <ele>263</ele>
        <time>2016-09-14T10:41:59Z</time>
      </trkpt>
      <trkpt lat="45.94462" lon="4.83463">
        <ele>263</ele>
        <time>2016-09-14T10:42:00Z</time>
      </trkpt>
      <trkpt lat="45.94459" lon="4.83457">
        <ele>263</ele>
        <time>2016-09-14T10:42:01Z</time>
      </trkpt>
      <trkpt lat="45.94456" lon="4.83451">
        <ele>263</ele>
        <time>2016-09-14T10:42:02Z</time>
      </trkpt>
      <trkpt lat="45.94452" lon="4.83445">
        <ele>263</ele>
        <time>2016-09-14T10:42:03Z</time>
      </trkpt>
      <trkpt lat="45.94449" lon="4.83439">
        <ele>263</ele>
        <time>2016-09-14T10:42:04Z</time>
      </trkpt>
      <trkpt lat="45.94446" lon="4.83433">
        <ele>263</ele>
        <time>2016-09-14T10:42:05Z</time>
      </trkpt>
      <trkpt lat="45.94443" lon="4.83427">
        <ele>264</ele>
        <time>2016-09-14T10:42:06Z</time>
      </trkpt>
      <trkpt lat="45.9444" lon="4.83421">
        <ele>264</ele>
        <time>2016-09-14T10:42:07Z</time>
      </trkpt>
      <trkpt lat="45.94437" lon="4.83415">
        <ele>264</ele>
        <time>2016-09-14T10:42:08Z</time>
      </trkpt>
      <trkpt lat="45.94434" lon="4.83409">
        <ele>264</ele>
        <time>2016-09-14T10:42:09Z</time>
      </trkpt>
      <trkpt lat="45.94431" lon="4.83403">
        <ele>264</ele>
        <time>2016-09-14T10:42:10Z</time>
      </trkpt>
      <trkpt lat="45.94429" lon="4.83397">
        <ele>264</ele>
        <time>2016-09-14T10:42:11Z</time>
      </trkpt>
      <trkpt lat="45.94426" lon="4.83391">
        <ele>264</ele>
        <time>2016-09-14T10:42:12Z</time>
      </trkpt>
      <trkpt lat="45.94423" lon="4.83385">
        <ele>264</ele>
        <time>2016-09-14T10:42:13Z</time>
      </trkpt>
      <trkpt lat="45.9442" lon="4.8338">
        <ele>264</ele>
        <time>2016-09-14T10:42:14Z</time>
      </trkpt>
      <trkpt lat="45.94417" lon="4.83374">
        <ele>264</ele>
        <time>2016-09-14T10:42:15Z</time>
      </trkpt>
      <trkpt lat="45.94414" lon="4.83368">
        <ele>264</ele>
        <time>2016-09-14T10:42:16Z</time>
      </trkpt>
      <trkpt lat="45.94412" lon="4.83362">
        <ele>264</ele>
        <time>2016-09-14T10:42:17Z</time>
      </trkpt>
      <trkpt lat="45.94409" lon="4.83357">
        <ele>263</ele>
        <time>2016-09-14T10:42:18Z</time>
      </trkpt>
      <trkpt lat="45.94407" lon="4.83351">
        <ele>263</ele>
        <time>2016-09-14T10:42:19Z</time>
      </trkpt>
      <trkpt lat="45.94405" lon="4.83345">
        <ele>263</ele>
        <time>2016-09-14T10:42:20Z</time>
      </trkpt>
      <trkpt lat="45.94403" lon="4.83339">
        <ele>263</ele>
        <time>2016-09-14T10:42:21Z</time>
      </trkpt>
      <trkpt lat="45.944" lon="4.83333">
        <ele>264</ele>
        <time>2016-09-14T10:42:22Z</time>
      </trkpt>
      <trkpt lat="45.94398" lon="4.83326">
        <ele>264</ele>
        <time>2016-09-14T10:42:23Z</time>
      </trkpt>
      <trkpt lat="45.94395" lon="4.8332">
        <ele>264</ele>
        <time>2016-09-14T10:42:24Z</time>
      </trkpt>
      <trkpt lat="45.94392" lon="4.83314">
        <ele>264</ele>
        <time>2016-09-14T10:42:25Z</time>
      </trkpt>
      <trkpt lat="45.94389" lon="4.83307">
        <ele>264</ele>
        <time>2016-09-14T10:42:26Z</time>
      </trkpt>
      <trkpt lat="45.94388" lon="4.83301">
        <ele>264</ele>
        <time>2016-09-14T10:42:27Z</time>
      </trkpt>
      <trkpt lat="45.94386" lon="4.83294">
        <ele>264</ele>
        <time>2016-09-14T10:42:28Z</time>
      </trkpt>
      <trkpt lat="45.94383" lon="4.83288">
        <ele>264</ele>
        <time>2016-09-14T10:42:29Z</time>
      </trkpt>
      <trkpt lat="45.94381" lon="4.83281">
        <ele>264</ele>
        <time>2016-09-14T10:42:30Z</time>
      </trkpt>
      <trkpt lat="45.94379" lon="4.83275">
        <ele>264</ele>
        <time>2016-09-14T10:42:31Z</time>
      </trkpt>
      <trkpt lat="45.94377" lon="4.83269">
        <ele>264</ele>
        <time>2016-09-14T10:42:32Z</time>
      </trkpt>
      <trkpt lat="45.94375" lon="4.83263">
        <ele>264</ele>
        <time>2016-09-14T10:42:33Z</time>
      </trkpt>
      <trkpt lat="45.94374" lon="4.83257">
        <ele>265</ele>
        <time>2016-09-14T10:42:34Z</time>
      </trkpt>
      <trkpt lat="45.94371" lon="4.83251">
        <ele>265</ele>
        <time>2016-09-14T10:42:35Z</time>
      </trkpt>
      <trkpt lat="45.94368" lon="4.8324">
        <ele>265</ele>
        <time>2016-09-14T10:42:37Z</time>
      </trkpt>
      <trkpt lat="45.94366" lon="4.83234">
        <ele>266</ele>
        <time>2016-09-14T10:42:38Z</time>
      </trkpt>
      <trkpt lat="45.94364" lon="4.83228">
        <ele>266</ele>
        <time>2016-09-14T10:42:39Z</time>
      </trkpt>
      <trkpt lat="45.94362" lon="4.83222">
        <ele>266</ele>
        <time>2016-09-14T10:42:40Z</time>
      </trkpt>
      <trkpt lat="45.9436" lon="4.83216">
        <ele>266</ele>
        <time>2016-09-14T10:42:41Z</time>
      </trkpt>
      <trkpt lat="45.94358" lon="4.8321">
        <ele>266</ele>
        <time>2016-09-14T10:42:42Z</time>
      </trkpt>
      <trkpt lat="45.94355" lon="4.83203">
        <ele>266</ele>
        <time>2016-09-14T10:42:43Z</time>
      </trkpt>
      <trkpt lat="45.94353" lon="4.83197">
        <ele>266</ele>
        <time>2016-09-14T10:42:44Z</time>
      </trkpt>
      <trkpt lat="45.94351" lon="4.8319">
        <ele>266</ele>
        <time>2016-09-14T10:42:45Z</time>
      </trkpt>
      <trkpt lat="45.94348" lon="4.83184">
        <ele>266</ele>
        <time>2016-09-14T10:42:46Z</time>
      </trkpt>
      <trkpt lat="45.94346" lon="4.83178">
        <ele>266</ele>
        <time>2016-09-14T10:42:47Z</time>
      </trkpt>
      <trkpt lat="45.94344" lon="4.83172">
        <ele>266</ele>
        <time>2016-09-14T10:42:48Z</time>
      </trkpt>
      <trkpt lat="45.94342" lon="4.83165">
        <ele>266</ele>
        <time>2016-09-14T10:42:49Z</time>
      </trkpt>
      <trkpt lat="45.9434" lon="4.83159">
        <ele>266</ele>
        <time>2016-09-14T10:42:50Z</time>
      </trkpt>
      <trkpt lat="45.94338" lon="4.83153">
        <ele>266</ele>
        <time>2016-09-14T10:42:51Z</time>
      </trkpt>
      <trkpt lat="45.94336" lon="4.83148">
        <ele>266</ele>
        <time>2016-09-14T10:42:52Z</time>
      </trkpt>
      <trkpt lat="45.94334" lon="4.83141">
        <ele>266</ele>
        <time>2016-09-14T10:42:53Z</time>
      </trkpt>
      <trkpt lat="45.94331" lon="4.83136">
        <ele>266</ele>
        <time>2016-09-14T10:42:54Z</time>
      </trkpt>
      <trkpt lat="45.94328" lon="4.8313">
        <ele>266</ele>
        <time>2016-09-14T10:42:55Z</time>
      </trkpt>
      <trkpt lat="45.94326" lon="4.83124">
        <ele>266</ele>
        <time>2016-09-14T10:42:56Z</time>
      </trkpt>
      <trkpt lat="45.94323" lon="4.83117">
        <ele>266</ele>
        <time>2016-09-14T10:42:57Z</time>
      </trkpt>
      <trkpt lat="45.94321" lon="4.8311">
        <ele>266</ele>
        <time>2016-09-14T10:42:58Z</time>
      </trkpt>
      <trkpt lat="45.94319" lon="4.83104">
        <ele>266</ele>
        <time>2016-09-14T10:42:59Z</time>
      </trkpt>
      <trkpt lat="45.94317" lon="4.83097">
        <ele>266</ele>
        <time>2016-09-14T10:43:00Z</time>
      </trkpt>
      <trkpt lat="45.94316" lon="4.8309">
        <ele>266</ele>
        <time>2016-09-14T10:43:01Z</time>
      </trkpt>
      <trkpt lat="45.94314" lon="4.83084">
        <ele>266</ele>
        <time>2016-09-14T10:43:02Z</time>
      </trkpt>
      <trkpt lat="45.94313" lon="4.83077">
        <ele>266</ele>
        <time>2016-09-14T10:43:03Z</time>
      </trkpt>
      <trkpt lat="45.94311" lon="4.8307">
        <ele>266</ele>
        <time>2016-09-14T10:43:04Z</time>
      </trkpt>
      <trkpt lat="45.94309" lon="4.83063">
        <ele>266</ele>
        <time>2016-09-14T10:43:05Z</time>
      </trkpt>
      <trkpt lat="45.94308" lon="4.83056">
        <ele>266</ele>
        <time>2016-09-14T10:43:06Z</time>
      </trkpt>
      <trkpt lat="45.94306" lon="4.83049">
        <ele>266</ele>
        <time>2016-09-14T10:43:07Z</time>
      </trkpt>
      <trkpt lat="45.94305" lon="4.83042">
        <ele>266</ele>
        <time>2016-09-14T10:43:08Z</time>
      </trkpt>
      <trkpt lat="45.94303" lon="4.83035">
        <ele>266</ele>
        <time>2016-09-14T10:43:09Z</time>
      </trkpt>
      <trkpt lat="45.94302" lon="4.83029">
        <ele>266</ele>
        <time>2016-09-14T10:43:10Z</time>
      </trkpt>
      <trkpt lat="45.94301" lon="4.83022">
        <ele>266</ele>
        <time>2016-09-14T10:43:11Z</time>
      </trkpt>
      <trkpt lat="45.94299" lon="4.83016">
        <ele>266</ele>
        <time>2016-09-14T10:43:12Z</time>
      </trkpt>
      <trkpt lat="45.94297" lon="4.83004">
        <ele>266</ele>
        <time>2016-09-14T10:43:14Z</time>
      </trkpt>
      <trkpt lat="45.94296" lon="4.82997">
        <ele>265</ele>
        <time>2016-09-14T10:43:15Z</time>
      </trkpt>
      <trkpt lat="45.94293" lon="4.82986">
        <ele>265</ele>
        <time>2016-09-14T10:43:17Z</time>
      </trkpt>
      <trkpt lat="45.94292" lon="4.8298">
        <ele>265</ele>
        <time>2016-09-14T10:43:18Z</time>
      </trkpt>
      <trkpt lat="45.94288" lon="4.82969">
        <ele>265</ele>
        <time>2016-09-14T10:43:20Z</time>
      </trkpt>
      <trkpt lat="45.94287" lon="4.82965">
        <ele>265</ele>
        <time>2016-09-14T10:43:21Z</time>
      </trkpt>
      <trkpt lat="45.94281" lon="4.82958">
        <ele>265</ele>
        <time>2016-09-14T10:43:23Z</time>
      </trkpt>
      <trkpt lat="45.94278" lon="4.82956">
        <ele>265</ele>
        <time>2016-09-14T10:43:24Z</time>
      </trkpt>
      <trkpt lat="45.9427" lon="4.82957">
        <ele>265</ele>
        <time>2016-09-14T10:43:26Z</time>
      </trkpt>
      <trkpt lat="45.94266" lon="4.8296">
        <ele>265</ele>
        <time>2016-09-14T10:43:27Z</time>
      </trkpt>
      <trkpt lat="45.94261" lon="4.82962">
        <ele>265</ele>
        <time>2016-09-14T10:43:28Z</time>
      </trkpt>
      <trkpt lat="45.94256" lon="4.82963">
        <ele>265</ele>
        <time>2016-09-14T10:43:29Z</time>
      </trkpt>
      <trkpt lat="45.94251" lon="4.82964">
        <ele>265</ele>
        <time>2016-09-14T10:43:30Z</time>
      </trkpt>
      <trkpt lat="45.94246" lon="4.82965">
        <ele>265</ele>
        <time>2016-09-14T10:43:31Z</time>
      </trkpt>
      <trkpt lat="45.9424" lon="4.82966">
        <ele>265</ele>
        <time>2016-09-14T10:43:32Z</time>
      </trkpt>
      <trkpt lat="45.94234" lon="4.82967">
        <ele>265</ele>
        <time>2016-09-14T10:43:33Z</time>
      </trkpt>
      <trkpt lat="45.94227" lon="4.82968">
        <ele>265</ele>
        <time>2016-09-14T10:43:34Z</time>
      </trkpt>
      <trkpt lat="45.9422" lon="4.8297">
        <ele>265</ele>
        <time>2016-09-14T10:43:35Z</time>
      </trkpt>
      <trkpt lat="45.94213" lon="4.82971">
        <ele>265</ele>
        <time>2016-09-14T10:43:36Z</time>
      </trkpt>
      <trkpt lat="45.94206" lon="4.82972">
        <ele>265</ele>
        <time>2016-09-14T10:43:37Z</time>
      </trkpt>
      <trkpt lat="45.94199" lon="4.82974">
        <ele>265</ele>
        <time>2016-09-14T10:43:38Z</time>
      </trkpt>
      <trkpt lat="45.94192" lon="4.82975">
        <ele>265</ele>
        <time>2016-09-14T10:43:39Z</time>
      </trkpt>
      <trkpt lat="45.94185" lon="4.82977">
        <ele>265</ele>
        <time>2016-09-14T10:43:40Z</time>
      </trkpt>
      <trkpt lat="45.94177" lon="4.82977">
        <ele>265</ele>
        <time>2016-09-14T10:43:41Z</time>
      </trkpt>
      <trkpt lat="45.94169" lon="4.82978">
        <ele>265</ele>
        <time>2016-09-14T10:43:42Z</time>
      </trkpt>
      <trkpt lat="45.94161" lon="4.82977">
        <ele>263</ele>
        <time>2016-09-14T10:43:43Z</time>
      </trkpt>
      <trkpt lat="45.94151" lon="4.82976">
        <ele>263</ele>
        <time>2016-09-14T10:43:44Z</time>
      </trkpt>
      <trkpt lat="45.94143" lon="4.82975">
        <ele>263</ele>
        <time>2016-09-14T10:43:45Z</time>
      </trkpt>
      <trkpt lat="45.94135" lon="4.82972">
        <ele>263</ele>
        <time>2016-09-14T10:43:46Z</time>
      </trkpt>
      <trkpt lat="45.94127" lon="4.8297">
        <ele>262</ele>
        <time>2016-09-14T10:43:47Z</time>
      </trkpt>
      <trkpt lat="45.94118" lon="4.82966">
        <ele>262</ele>
        <time>2016-09-14T10:43:48Z</time>
      </trkpt>
      <trkpt lat="45.94111" lon="4.82962">
        <ele>262</ele>
        <time>2016-09-14T10:43:49Z</time>
      </trkpt>
      <trkpt lat="45.94103" lon="4.82957">
        <ele>262</ele>
        <time>2016-09-14T10:43:50Z</time>
      </trkpt>
      <trkpt lat="45.94096" lon="4.82951">
        <ele>261</ele>
        <time>2016-09-14T10:43:51Z</time>
      </trkpt>
      <trkpt lat="45.94088" lon="4.82945">
        <ele>261</ele>
        <time>2016-09-14T10:43:52Z</time>
      </trkpt>
      <trkpt lat="45.94082" lon="4.82937">
        <ele>259</ele>
        <time>2016-09-14T10:43:53Z</time>
      </trkpt>
      <trkpt lat="45.94077" lon="4.82928">
        <ele>259</ele>
        <time>2016-09-14T10:43:54Z</time>
      </trkpt>
      <trkpt lat="45.94072" lon="4.82918">
        <ele>259</ele>
        <time>2016-09-14T10:43:55Z</time>
      </trkpt>
      <trkpt lat="45.94067" lon="4.82906">
        <ele>257</ele>
        <time>2016-09-14T10:43:56Z</time>
      </trkpt>
      <trkpt lat="45.9406" lon="4.82896">
        <ele>257</ele>
        <time>2016-09-14T10:43:57Z</time>
      </trkpt>
      <trkpt lat="45.94055" lon="4.82887">
        <ele>257</ele>
        <time>2016-09-14T10:43:58Z</time>
      </trkpt>
      <trkpt lat="45.9405" lon="4.82876">
        <ele>257</ele>
        <time>2016-09-14T10:43:59Z</time>
      </trkpt>
      <trkpt lat="45.94046" lon="4.82863">
        <ele>257</ele>
        <time>2016-09-14T10:44:00Z</time>
      </trkpt>
      <trkpt lat="45.9404" lon="4.82853">
        <ele>256</ele>
        <time>2016-09-14T10:44:01Z</time>
      </trkpt>
      <trkpt lat="45.94035" lon="4.82843">
        <ele>256</ele>
        <time>2016-09-14T10:44:02Z</time>
      </trkpt>
      <trkpt lat="45.9403" lon="4.82833">
        <ele>256</ele>
        <time>2016-09-14T10:44:03Z</time>
      </trkpt>
      <trkpt lat="45.94024" lon="4.82823">
        <ele>256</ele>
        <time>2016-09-14T10:44:04Z</time>
      </trkpt>
      <trkpt lat="45.94018" lon="4.82813">
        <ele>256</ele>
        <time>2016-09-14T10:44:05Z</time>
      </trkpt>
      <trkpt lat="45.94012" lon="4.82802">
        <ele>256</ele>
        <time>2016-09-14T10:44:06Z</time>
      </trkpt>
      <trkpt lat="45.94006" lon="4.82792">
        <ele>257</ele>
        <time>2016-09-14T10:44:07Z</time>
      </trkpt>
      <trkpt lat="45.94" lon="4.82783">
        <ele>252</ele>
        <time>2016-09-14T10:44:08Z</time>
      </trkpt>
      <trkpt lat="45.93993" lon="4.82774">
        <ele>253</ele>
        <time>2016-09-14T10:44:09Z</time>
      </trkpt>
      <trkpt lat="45.93986" lon="4.82767">
        <ele>253</ele>
        <time>2016-09-14T10:44:10Z</time>
      </trkpt>
      <trkpt lat="45.93979" lon="4.82762">
        <ele>252</ele>
        <time>2016-09-14T10:44:11Z</time>
      </trkpt>
      <trkpt lat="45.93971" lon="4.82762">
        <ele>251</ele>
        <time>2016-09-14T10:44:12Z</time>
      </trkpt>
      <trkpt lat="45.93963" lon="4.82764">
        <ele>251</ele>
        <time>2016-09-14T10:44:13Z</time>
      </trkpt>
      <trkpt lat="45.93954" lon="4.82769">
        <ele>250</ele>
        <time>2016-09-14T10:44:14Z</time>
      </trkpt>
      <trkpt lat="45.93947" lon="4.82776">
        <ele>249</ele>
        <time>2016-09-14T10:44:15Z</time>
      </trkpt>
      <trkpt lat="45.93941" lon="4.82784">
        <ele>249</ele>
        <time>2016-09-14T10:44:16Z</time>
      </trkpt>
      <trkpt lat="45.93934" lon="4.82792">
        <ele>249</ele>
        <time>2016-09-14T10:44:17Z</time>
      </trkpt>
      <trkpt lat="45.93926" lon="4.828">
        <ele>249</ele>
        <time>2016-09-14T10:44:18Z</time>
      </trkpt>
      <trkpt lat="45.93919" lon="4.82806">
        <ele>248</ele>
        <time>2016-09-14T10:44:19Z</time>
      </trkpt>
      <trkpt lat="45.93912" lon="4.82812">
        <ele>243</ele>
        <time>2016-09-14T10:44:20Z</time>
      </trkpt>
      <trkpt lat="45.93904" lon="4.82817">
        <ele>243</ele>
        <time>2016-09-14T10:44:21Z</time>
      </trkpt>
      <trkpt lat="45.93896" lon="4.82821">
        <ele>242</ele>
        <time>2016-09-14T10:44:22Z</time>
      </trkpt>
      <trkpt lat="45.93887" lon="4.82826">
        <ele>242</ele>
        <time>2016-09-14T10:44:23Z</time>
      </trkpt>
      <trkpt lat="45.93879" lon="4.8283">
        <ele>241</ele>
        <time>2016-09-14T10:44:24Z</time>
      </trkpt>
      <trkpt lat="45.93872" lon="4.82836">
        <ele>243</ele>
        <time>2016-09-14T10:44:25Z</time>
      </trkpt>
      <trkpt lat="45.93866" lon="4.82845">
        <ele>243</ele>
        <time>2016-09-14T10:44:26Z</time>
      </trkpt>
      <trkpt lat="45.93862" lon="4.82854">
        <ele>243</ele>
        <time>2016-09-14T10:44:27Z</time>
      </trkpt>
      <trkpt lat="45.93859" lon="4.82865">
        <ele>244</ele>
        <time>2016-09-14T10:44:28Z</time>
      </trkpt>
      <trkpt lat="45.93858" lon="4.82876">
        <ele>244</ele>
        <time>2016-09-14T10:44:29Z</time>
      </trkpt>
      <trkpt lat="45.93855" lon="4.82885">
        <ele>245</ele>
        <time>2016-09-14T10:44:30Z</time>
      </trkpt>
      <trkpt lat="45.93851" lon="4.82892">
        <ele>245</ele>
        <time>2016-09-14T10:44:31Z</time>
      </trkpt>
      <trkpt lat="45.93846" lon="4.82897">
        <ele>245</ele>
        <time>2016-09-14T10:44:32Z</time>
      </trkpt>
      <trkpt lat="45.93838" lon="4.82898">
        <ele>244</ele>
        <time>2016-09-14T10:44:34Z</time>
      </trkpt>
      <trkpt lat="45.93832" lon="4.82892">
        <ele>241</ele>
        <time>2016-09-14T10:44:35Z</time>
      </trkpt>
      <trkpt lat="45.93825" lon="4.82887">
        <ele>240</ele>
        <time>2016-09-14T10:44:36Z</time>
      </trkpt>
      <trkpt lat="45.93818" lon="4.82883">
        <ele>240</ele>
        <time>2016-09-14T10:44:37Z</time>
      </trkpt>
      <trkpt lat="45.93811" lon="4.82879">
        <ele>239</ele>
        <time>2016-09-14T10:44:38Z</time>
      </trkpt>
      <trkpt lat="45.93803" lon="4.82877">
        <ele>239</ele>
        <time>2016-09-14T10:44:39Z</time>
      </trkpt>
      <trkpt lat="45.93795" lon="4.82876">
        <ele>239</ele>
        <time>2016-09-14T10:44:40Z</time>
      </trkpt>
      <trkpt lat="45.93787" lon="4.82875">
        <ele>239</ele>
        <time>2016-09-14T10:44:41Z</time>
      </trkpt>
      <trkpt lat="45.93778" lon="4.82873">
        <ele>238</ele>
        <time>2016-09-14T10:44:42Z</time>
      </trkpt>
      <trkpt lat="45.93769" lon="4.82872">
        <ele>238</ele>
        <time>2016-09-14T10:44:43Z</time>
      </trkpt>
      <trkpt lat="45.9376" lon="4.8287">
        <ele>238</ele>
        <time>2016-09-14T10:44:44Z</time>
      </trkpt>
      <trkpt lat="45.93752" lon="4.82868">
        <ele>238</ele>
        <time>2016-09-14T10:44:45Z</time>
      </trkpt>
      <trkpt lat="45.93743" lon="4.82866">
        <ele>237</ele>
        <time>2016-09-14T10:44:46Z</time>
      </trkpt>
      <trkpt lat="45.93734" lon="4.82865">
        <ele>237</ele>
        <time>2016-09-14T10:44:47Z</time>
      </trkpt>
      <trkpt lat="45.93724" lon="4.82862">
        <ele>236</ele>
        <time>2016-09-14T10:44:48Z</time>
      </trkpt>
      <trkpt lat="45.93714" lon="4.8286">
        <ele>236</ele>
        <time>2016-09-14T10:44:49Z</time>
      </trkpt>
      <trkpt lat="45.93705" lon="4.82858">
        <ele>236</ele>
        <time>2016-09-14T10:44:50Z</time>
      </trkpt>
      <trkpt lat="45.93695" lon="4.82856">
        <ele>236</ele>
        <time>2016-09-14T10:44:51Z</time>
      </trkpt>
      <trkpt lat="45.93686" lon="4.82856">
        <ele>235</ele>
        <time>2016-09-14T10:44:52Z</time>
      </trkpt>
      <trkpt lat="45.93675" lon="4.82856">
        <ele>235</ele>
        <time>2016-09-14T10:44:53Z</time>
      </trkpt>
      <trkpt lat="45.93665" lon="4.82857">
        <ele>232</ele>
        <time>2016-09-14T10:44:54Z</time>
      </trkpt>
      <trkpt lat="45.93656" lon="4.82859">
        <ele>232</ele>
        <time>2016-09-14T10:44:55Z</time>
      </trkpt>
      <trkpt lat="45.93646" lon="4.82863">
        <ele>232</ele>
        <time>2016-09-14T10:44:56Z</time>
      </trkpt>
      <trkpt lat="45.93636" lon="4.82867">
        <ele>232</ele>
        <time>2016-09-14T10:44:57Z</time>
      </trkpt>
      <trkpt lat="45.93627" lon="4.8287">
        <ele>231</ele>
        <time>2016-09-14T10:44:58Z</time>
      </trkpt>
      <trkpt lat="45.93617" lon="4.82872">
        <ele>231</ele>
        <time>2016-09-14T10:44:59Z</time>
      </trkpt>
      <trkpt lat="45.93607" lon="4.82872">
        <ele>230</ele>
        <time>2016-09-14T10:45:00Z</time>
      </trkpt>
      <trkpt lat="45.93597" lon="4.8287">
        <ele>230</ele>
        <time>2016-09-14T10:45:01Z</time>
      </trkpt>
      <trkpt lat="45.93588" lon="4.82866">
        <ele>229</ele>
        <time>2016-09-14T10:45:02Z</time>
      </trkpt>
      <trkpt lat="45.9358" lon="4.82861">
        <ele>227</ele>
        <time>2016-09-14T10:45:03Z</time>
      </trkpt>
      <trkpt lat="45.93571" lon="4.82853">
        <ele>227</ele>
        <time>2016-09-14T10:45:04Z</time>
      </trkpt>
      <trkpt lat="45.93564" lon="4.82843">
        <ele>227</ele>
        <time>2016-09-14T10:45:05Z</time>
      </trkpt>
      <trkpt lat="45.93557" lon="4.82831">
        <ele>228</ele>
        <time>2016-09-14T10:45:06Z</time>
      </trkpt>
      <trkpt lat="45.93553" lon="4.82818">
        <ele>228</ele>
        <time>2016-09-14T10:45:07Z</time>
      </trkpt>
      <trkpt lat="45.9355" lon="4.82804">
        <ele>229</ele>
        <time>2016-09-14T10:45:08Z</time>
      </trkpt>
      <trkpt lat="45.93548" lon="4.82789">
        <ele>229</ele>
        <time>2016-09-14T10:45:09Z</time>
      </trkpt>
      <trkpt lat="45.93548" lon="4.82774">
        <ele>229</ele>
        <time>2016-09-14T10:45:10Z</time>
      </trkpt>
      <trkpt lat="45.93547" lon="4.8276">
        <ele>228</ele>
        <time>2016-09-14T10:45:11Z</time>
      </trkpt>
      <trkpt lat="45.93547" lon="4.82745">
        <ele>228</ele>
        <time>2016-09-14T10:45:12Z</time>
      </trkpt>
      <trkpt lat="45.93547" lon="4.8273">
        <ele>228</ele>
        <time>2016-09-14T10:45:13Z</time>
      </trkpt>
      <trkpt lat="45.93549" lon="4.82717">
        <ele>228</ele>
        <time>2016-09-14T10:45:14Z</time>
      </trkpt>
      <trkpt lat="45.93551" lon="4.82704">
        <ele>228</ele>
        <time>2016-09-14T10:45:15Z</time>
      </trkpt>
      <trkpt lat="45.93553" lon="4.82692">
        <ele>227</ele>
        <time>2016-09-14T10:45:16Z</time>
      </trkpt>
      <trkpt lat="45.93556" lon="4.82679">
        <ele>226</ele>
        <time>2016-09-14T10:45:17Z</time>
      </trkpt>
      <trkpt lat="45.93558" lon="4.82668">
        <ele>226</ele>
        <time>2016-09-14T10:45:18Z</time>
      </trkpt>
      <trkpt lat="45.9356" lon="4.82657">
        <ele>222</ele>
        <time>2016-09-14T10:45:19Z</time>
      </trkpt>
      <trkpt lat="45.93562" lon="4.82647">
        <ele>222</ele>
        <time>2016-09-14T10:45:20Z</time>
      </trkpt>
      <trkpt lat="45.93563" lon="4.82636">
        <ele>222</ele>
        <time>2016-09-14T10:45:21Z</time>
      </trkpt>
      <trkpt lat="45.93566" lon="4.82624">
        <ele>221</ele>
        <time>2016-09-14T10:45:22Z</time>
      </trkpt>
      <trkpt lat="45.93566" lon="4.82612">
        <ele>221</ele>
        <time>2016-09-14T10:45:23Z</time>
      </trkpt>
      <trkpt lat="45.93566" lon="4.826">
        <ele>220</ele>
        <time>2016-09-14T10:45:24Z</time>
      </trkpt>
      <trkpt lat="45.93566" lon="4.82588">
        <ele>219</ele>
        <time>2016-09-14T10:45:25Z</time>
      </trkpt>
      <trkpt lat="45.93566" lon="4.82576">
        <ele>216</ele>
        <time>2016-09-14T10:45:26Z</time>
      </trkpt>
      <trkpt lat="45.93566" lon="4.82564">
        <ele>216</ele>
        <time>2016-09-14T10:45:27Z</time>
      </trkpt>
      <trkpt lat="45.93566" lon="4.82551">
        <ele>216</ele>
        <time>2016-09-14T10:45:28Z</time>
      </trkpt>
      <trkpt lat="45.93565" lon="4.82539">
        <ele>216</ele>
        <time>2016-09-14T10:45:29Z</time>
      </trkpt>
      <trkpt lat="45.93563" lon="4.82526">
        <ele>216</ele>
        <time>2016-09-14T10:45:30Z</time>
      </trkpt>
      <trkpt lat="45.9356" lon="4.82514">
        <ele>215</ele>
        <time>2016-09-14T10:45:31Z</time>
      </trkpt>
      <trkpt lat="45.93557" lon="4.82503">
        <ele>215</ele>
        <time>2016-09-14T10:45:32Z</time>
      </trkpt>
      <trkpt lat="45.93552" lon="4.82492">
        <ele>214</ele>
        <time>2016-09-14T10:45:33Z</time>
      </trkpt>
      <trkpt lat="45.93547" lon="4.82481">
        <ele>214</ele>
        <time>2016-09-14T10:45:34Z</time>
      </trkpt>
      <trkpt lat="45.93542" lon="4.82471">
        <ele>213</ele>
        <time>2016-09-14T10:45:35Z</time>
      </trkpt>
      <trkpt lat="45.93537" lon="4.82462">
        <ele>213</ele>
        <time>2016-09-14T10:45:36Z</time>
      </trkpt>
      <trkpt lat="45.93531" lon="4.82452">
        <ele>213</ele>
        <time>2016-09-14T10:45:37Z</time>
      </trkpt>
      <trkpt lat="45.93526" lon="4.82443">
        <ele>212</ele>
        <time>2016-09-14T10:45:38Z</time>
      </trkpt>
      <trkpt lat="45.93521" lon="4.82435">
        <ele>211</ele>
        <time>2016-09-14T10:45:39Z</time>
      </trkpt>
      <trkpt lat="45.93516" lon="4.82426">
        <ele>210</ele>
        <time>2016-09-14T10:45:40Z</time>
      </trkpt>
      <trkpt lat="45.93513" lon="4.82415">
        <ele>210</ele>
        <time>2016-09-14T10:45:41Z</time>
      </trkpt>
      <trkpt lat="45.9351" lon="4.82405">
        <ele>210</ele>
        <time>2016-09-14T10:45:42Z</time>
      </trkpt>
      <trkpt lat="45.93508" lon="4.82393">
        <ele>211</ele>
        <time>2016-09-14T10:45:43Z</time>
      </trkpt>
      <trkpt lat="45.93507" lon="4.82382">
        <ele>211</ele>
        <time>2016-09-14T10:45:44Z</time>
      </trkpt>
      <trkpt lat="45.93506" lon="4.82372">
        <ele>211</ele>
        <time>2016-09-14T10:45:45Z</time>
      </trkpt>
      <trkpt lat="45.93504" lon="4.82361">
        <ele>211</ele>
        <time>2016-09-14T10:45:46Z</time>
      </trkpt>
      <trkpt lat="45.93502" lon="4.82351">
        <ele>211</ele>
        <time>2016-09-14T10:45:47Z</time>
      </trkpt>
      <trkpt lat="45.93501" lon="4.8234">
        <ele>210</ele>
        <time>2016-09-14T10:45:48Z</time>
      </trkpt>
      <trkpt lat="45.93499" lon="4.8233">
        <ele>209</ele>
        <time>2016-09-14T10:45:49Z</time>
      </trkpt>
      <trkpt lat="45.93496" lon="4.8232">
        <ele>208</ele>
        <time>2016-09-14T10:45:50Z</time>
      </trkpt>
      <trkpt lat="45.93494" lon="4.82309">
        <ele>207</ele>
        <time>2016-09-14T10:45:51Z</time>
      </trkpt>
      <trkpt lat="45.93492" lon="4.82298">
        <ele>207</ele>
        <time>2016-09-14T10:45:52Z</time>
      </trkpt>
      <trkpt lat="45.93491" lon="4.82288">
        <ele>207</ele>
        <time>2016-09-14T10:45:53Z</time>
      </trkpt>
      <trkpt lat="45.9349" lon="4.82278">
        <ele>207</ele>
        <time>2016-09-14T10:45:54Z</time>
      </trkpt>
      <trkpt lat="45.9349" lon="4.82268">
        <ele>207</ele>
        <time>2016-09-14T10:45:55Z</time>
      </trkpt>
      <trkpt lat="45.9349" lon="4.82259">
        <ele>207</ele>
        <time>2016-09-14T10:45:56Z</time>
      </trkpt>
      <trkpt lat="45.93489" lon="4.82248">
        <ele>206</ele>
        <time>2016-09-14T10:45:57Z</time>
      </trkpt>
      <trkpt lat="45.93488" lon="4.82238">
        <ele>206</ele>
        <time>2016-09-14T10:45:58Z</time>
      </trkpt>
      <trkpt lat="45.93488" lon="4.82227">
        <ele>205</ele>
        <time>2016-09-14T10:45:59Z</time>
      </trkpt>
      <trkpt lat="45.93488" lon="4.82216">
        <ele>205</ele>
        <time>2016-09-14T10:46:00Z</time>
      </trkpt>
      <trkpt lat="45.93487" lon="4.82205">
        <ele>204</ele>
        <time>2016-09-14T10:46:01Z</time>
      </trkpt>
      <trkpt lat="45.93487" lon="4.82195">
        <ele>204</ele>
        <time>2016-09-14T10:46:02Z</time>
      </trkpt>
      <trkpt lat="45.93488" lon="4.82184">
        <ele>204</ele>
        <time>2016-09-14T10:46:03Z</time>
      </trkpt>
      <trkpt lat="45.93487" lon="4.82173">
        <ele>204</ele>
        <time>2016-09-14T10:46:04Z</time>
      </trkpt>
      <trkpt lat="45.93487" lon="4.82162">
        <ele>203</ele>
        <time>2016-09-14T10:46:05Z</time>
      </trkpt>
      <trkpt lat="45.93488" lon="4.8215">
        <ele>202</ele>
        <time>2016-09-14T10:46:06Z</time>
      </trkpt>
      <trkpt lat="45.93488" lon="4.8214">
        <ele>202</ele>
        <time>2016-09-14T10:46:07Z</time>
      </trkpt>
      <trkpt lat="45.93488" lon="4.82129">
        <ele>201</ele>
        <time>2016-09-14T10:46:08Z</time>
      </trkpt>
      <trkpt lat="45.93488" lon="4.82117">
        <ele>201</ele>
        <time>2016-09-14T10:46:09Z</time>
      </trkpt>
      <trkpt lat="45.93488" lon="4.82105">
        <ele>201</ele>
        <time>2016-09-14T10:46:10Z</time>
      </trkpt>
      <trkpt lat="45.93487" lon="4.82093">
        <ele>201</ele>
        <time>2016-09-14T10:46:11Z</time>
      </trkpt>
      <trkpt lat="45.93485" lon="4.8208">
        <ele>200</ele>
        <time>2016-09-14T10:46:12Z</time>
      </trkpt>
      <trkpt lat="45.93484" lon="4.82068">
        <ele>199</ele>
        <time>2016-09-14T10:46:13Z</time>
      </trkpt>
      <trkpt lat="45.93484" lon="4.82056">
        <ele>199</ele>
        <time>2016-09-14T10:46:14Z</time>
      </trkpt>
      <trkpt lat="45.93483" lon="4.82044">
        <ele>198</ele>
        <time>2016-09-14T10:46:15Z</time>
      </trkpt>
      <trkpt lat="45.93483" lon="4.82031">
        <ele>198</ele>
        <time>2016-09-14T10:46:16Z</time>
      </trkpt>
      <trkpt lat="45.93484" lon="4.82018">
        <ele>198</ele>
        <time>2016-09-14T10:46:17Z</time>
      </trkpt>
      <trkpt lat="45.93486" lon="4.82005">
        <ele>197</ele>
        <time>2016-09-14T10:46:18Z</time>
      </trkpt>
      <trkpt lat="45.93487" lon="4.81992">
        <ele>196</ele>
        <time>2016-09-14T10:46:19Z</time>
      </trkpt>
      <trkpt lat="45.93489" lon="4.81979">
        <ele>195</ele>
        <time>2016-09-14T10:46:20Z</time>
      </trkpt>
      <trkpt lat="45.93491" lon="4.81965">
        <ele>195</ele>
        <time>2016-09-14T10:46:21Z</time>
      </trkpt>
      <trkpt lat="45.93494" lon="4.81952">
        <ele>195</ele>
        <time>2016-09-14T10:46:22Z</time>
      </trkpt>
      <trkpt lat="45.93498" lon="4.81939">
        <ele>194</ele>
        <time>2016-09-14T10:46:23Z</time>
      </trkpt>
      <trkpt lat="45.93501" lon="4.81927">
        <ele>195</ele>
        <time>2016-09-14T10:46:24Z</time>
      </trkpt>
      <trkpt lat="45.93505" lon="4.81916">
        <ele>194</ele>
        <time>2016-09-14T10:46:25Z</time>
      </trkpt>
      <trkpt lat="45.93509" lon="4.81904">
        <ele>195</ele>
        <time>2016-09-14T10:46:26Z</time>
      </trkpt>
      <trkpt lat="45.93513" lon="4.81893">
        <ele>195</ele>
        <time>2016-09-14T10:46:27Z</time>
      </trkpt>
      <trkpt lat="45.93518" lon="4.81882">
        <ele>195</ele>
        <time>2016-09-14T10:46:28Z</time>
      </trkpt>
      <trkpt lat="45.93521" lon="4.81871">
        <ele>195</ele>
        <time>2016-09-14T10:46:29Z</time>
      </trkpt>
      <trkpt lat="45.93525" lon="4.81859">
        <ele>195</ele>
        <time>2016-09-14T10:46:30Z</time>
      </trkpt>
      <trkpt lat="45.93527" lon="4.81847">
        <ele>195</ele>
        <time>2016-09-14T10:46:31Z</time>
      </trkpt>
      <trkpt lat="45.93529" lon="4.81835">
        <ele>194</ele>
        <time>2016-09-14T10:46:32Z</time>
      </trkpt>
      <trkpt lat="45.93531" lon="4.81823">
        <ele>193</ele>
        <time>2016-09-14T10:46:33Z</time>
      </trkpt>
      <trkpt lat="45.93531" lon="4.8181">
        <ele>193</ele>
        <time>2016-09-14T10:46:34Z</time>
      </trkpt>
      <trkpt lat="45.93532" lon="4.81797">
        <ele>193</ele>
        <time>2016-09-14T10:46:35Z</time>
      </trkpt>
      <trkpt lat="45.93532" lon="4.81785">
        <ele>193</ele>
        <time>2016-09-14T10:46:36Z</time>
      </trkpt>
      <trkpt lat="45.93532" lon="4.81772">
        <ele>193</ele>
        <time>2016-09-14T10:46:37Z</time>
      </trkpt>
      <trkpt lat="45.93532" lon="4.81759">
        <ele>193</ele>
        <time>2016-09-14T10:46:38Z</time>
      </trkpt>
      <trkpt lat="45.93533" lon="4.81746">
        <ele>192</ele>
        <time>2016-09-14T10:46:39Z</time>
      </trkpt>
      <trkpt lat="45.93533" lon="4.81733">
        <ele>192</ele>
        <time>2016-09-14T10:46:40Z</time>
      </trkpt>
      <trkpt lat="45.93533" lon="4.8172">
        <ele>192</ele>
        <time>2016-09-14T10:46:41Z</time>
      </trkpt>
      <trkpt lat="45.93533" lon="4.81708">
        <ele>192</ele>
        <time>2016-09-14T10:46:42Z</time>
      </trkpt>
      <trkpt lat="45.93534" lon="4.81696">
        <ele>192</ele>
        <time>2016-09-14T10:46:43Z</time>
      </trkpt>
      <trkpt lat="45.93534" lon="4.81683">
        <ele>192</ele>
        <time>2016-09-14T10:46:44Z</time>
      </trkpt>
      <trkpt lat="45.93535" lon="4.81671">
        <ele>192</ele>
        <time>2016-09-14T10:46:45Z</time>
      </trkpt>
      <trkpt lat="45.93535" lon="4.81659">
        <ele>191</ele>
        <time>2016-09-14T10:46:46Z</time>
      </trkpt>
      <trkpt lat="45.93536" lon="4.81648">
        <ele>191</ele>
        <time>2016-09-14T10:46:47Z</time>
      </trkpt>
      <trkpt lat="45.93538" lon="4.81636">
        <ele>191</ele>
        <time>2016-09-14T10:46:48Z</time>
      </trkpt>
      <trkpt lat="45.9354" lon="4.81625">
        <ele>191</ele>
        <time>2016-09-14T10:46:49Z</time>
      </trkpt>
      <trkpt lat="45.93542" lon="4.81615">
        <ele>191</ele>
        <time>2016-09-14T10:46:50Z</time>
      </trkpt>
      <trkpt lat="45.93546" lon="4.81606">
        <ele>191</ele>
        <time>2016-09-14T10:46:51Z</time>
      </trkpt>
      <trkpt lat="45.93549" lon="4.81597">
        <ele>191</ele>
        <time>2016-09-14T10:46:52Z</time>
      </trkpt>
      <trkpt lat="45.93552" lon="4.81588">
        <ele>191</ele>
        <time>2016-09-14T10:46:53Z</time>
      </trkpt>
      <trkpt lat="45.93555" lon="4.8158">
        <ele>190</ele>
        <time>2016-09-14T10:46:54Z</time>
      </trkpt>
      <trkpt lat="45.93558" lon="4.81573">
        <ele>190</ele>
        <time>2016-09-14T10:46:55Z</time>
      </trkpt>
      <trkpt lat="45.9356" lon="4.81565">
        <ele>190</ele>
        <time>2016-09-14T10:46:56Z</time>
      </trkpt>
      <trkpt lat="45.93563" lon="4.81559">
        <ele>190</ele>
        <time>2016-09-14T10:46:57Z</time>
      </trkpt>
      <trkpt lat="45.93566" lon="4.81552">
        <ele>190</ele>
        <time>2016-09-14T10:46:58Z</time>
      </trkpt>
      <trkpt lat="45.93569" lon="4.81547">
        <ele>190</ele>
        <time>2016-09-14T10:46:59Z</time>
      </trkpt>
      <trkpt lat="45.93571" lon="4.81541">
        <ele>190</ele>
        <time>2016-09-14T10:47:00Z</time>
      </trkpt>
      <trkpt lat="45.93574" lon="4.81535">
        <ele>190</ele>
        <time>2016-09-14T10:47:01Z</time>
      </trkpt>
      <trkpt lat="45.93577" lon="4.81529">
        <ele>190</ele>
        <time>2016-09-14T10:47:02Z</time>
      </trkpt>
      <trkpt lat="45.93579" lon="4.81523">
        <ele>190</ele>
        <time>2016-09-14T10:47:03Z</time>
      </trkpt>
      <trkpt lat="45.93582" lon="4.81517">
        <ele>190</ele>
        <time>2016-09-14T10:47:04Z</time>
      </trkpt>
      <trkpt lat="45.93585" lon="4.81511">
        <ele>192</ele>
        <time>2016-09-14T10:47:05Z</time>
      </trkpt>
      <trkpt lat="45.93587" lon="4.81505">
        <ele>192</ele>
        <time>2016-09-14T10:47:06Z</time>
      </trkpt>
      <trkpt lat="45.93589" lon="4.81499">
        <ele>192</ele>
        <time>2016-09-14T10:47:07Z</time>
      </trkpt>
      <trkpt lat="45.93591" lon="4.81493">
        <ele>192</ele>
        <time>2016-09-14T10:47:08Z</time>
      </trkpt>
      <trkpt lat="45.93593" lon="4.81486">
        <ele>192</ele>
        <time>2016-09-14T10:47:09Z</time>
      </trkpt>
      <trkpt lat="45.93594" lon="4.81478">
        <ele>192</ele>
        <time>2016-09-14T10:47:10Z</time>
      </trkpt>
      <trkpt lat="45.93595" lon="4.8147">
        <ele>193</ele>
        <time>2016-09-14T10:47:11Z</time>
      </trkpt>
      <trkpt lat="45.93596" lon="4.81463">
        <ele>193</ele>
        <time>2016-09-14T10:47:12Z</time>
      </trkpt>
      <trkpt lat="45.93597" lon="4.81455">
        <ele>193</ele>
        <time>2016-09-14T10:47:13Z</time>
      </trkpt>
      <trkpt lat="45.93598" lon="4.81447">
        <ele>192</ele>
        <time>2016-09-14T10:47:14Z</time>
      </trkpt>
      <trkpt lat="45.93599" lon="4.8144">
        <ele>192</ele>
        <time>2016-09-14T10:47:15Z</time>
      </trkpt>
      <trkpt lat="45.93599" lon="4.81433">
        <ele>192</ele>
        <time>2016-09-14T10:47:16Z</time>
      </trkpt>
      <trkpt lat="45.936" lon="4.81426">
        <ele>192</ele>
        <time>2016-09-14T10:47:17Z</time>
      </trkpt>
      <trkpt lat="45.936" lon="4.81418">
        <ele>192</ele>
        <time>2016-09-14T10:47:18Z</time>
      </trkpt>
      <trkpt lat="45.93601" lon="4.81411">
        <ele>192</ele>
        <time>2016-09-14T10:47:19Z</time>
      </trkpt>
      <trkpt lat="45.93602" lon="4.81403">
        <ele>192</ele>
        <time>2016-09-14T10:47:20Z</time>
      </trkpt>
      <trkpt lat="45.93603" lon="4.81395">
        <ele>192</ele>
        <time>2016-09-14T10:47:21Z</time>
      </trkpt>
      <trkpt lat="45.93603" lon="4.81387">
        <ele>192</ele>
        <time>2016-09-14T10:47:22Z</time>
      </trkpt>
      <trkpt lat="45.93603" lon="4.81379">
        <ele>192</ele>
        <time>2016-09-14T10:47:23Z</time>
      </trkpt>
      <trkpt lat="45.93602" lon="4.81371">
        <ele>192</ele>
        <time>2016-09-14T10:47:24Z</time>
      </trkpt>
      <trkpt lat="45.93603" lon="4.81363">
        <ele>192</ele>
        <time>2016-09-14T10:47:25Z</time>
      </trkpt>
      <trkpt lat="45.93604" lon="4.81356">
        <ele>192</ele>
        <time>2016-09-14T10:47:26Z</time>
      </trkpt>
      <trkpt lat="45.93604" lon="4.81348">
        <ele>192</ele>
        <time>2016-09-14T10:47:27Z</time>
      </trkpt>
      <trkpt lat="45.93604" lon="4.81341">
        <ele>191</ele>
        <time>2016-09-14T10:47:28Z</time>
      </trkpt>
      <trkpt lat="45.93605" lon="4.81334">
        <ele>191</ele>
        <time>2016-09-14T10:47:29Z</time>
      </trkpt>
      <trkpt lat="45.93606" lon="4.81327">
        <ele>191</ele>
        <time>2016-09-14T10:47:30Z</time>
      </trkpt>
      <trkpt lat="45.93607" lon="4.8132">
        <ele>191</ele>
        <time>2016-09-14T10:47:31Z</time>
      </trkpt>
      <trkpt lat="45.93608" lon="4.81313">
        <ele>191</ele>
        <time>2016-09-14T10:47:32Z</time>
      </trkpt>
      <trkpt lat="45.93608" lon="4.81307">
        <ele>191</ele>
        <time>2016-09-14T10:47:33Z</time>
      </trkpt>
      <trkpt lat="45.93609" lon="4.813">
        <ele>191</ele>
        <time>2016-09-14T10:47:34Z</time>
      </trkpt>
      <trkpt lat="45.93611" lon="4.81294">
        <ele>191</ele>
        <time>2016-09-14T10:47:35Z</time>
      </trkpt>
      <trkpt lat="45.93612" lon="4.81286">
        <ele>191</ele>
        <time>2016-09-14T10:47:36Z</time>
      </trkpt>
      <trkpt lat="45.93613" lon="4.81279">
        <ele>191</ele>
        <time>2016-09-14T10:47:37Z</time>
      </trkpt>
      <trkpt lat="45.93614" lon="4.81271">
        <ele>190</ele>
        <time>2016-09-14T10:47:38Z</time>
      </trkpt>
      <trkpt lat="45.93615" lon="4.81263">
        <ele>190</ele>
        <time>2016-09-14T10:47:39Z</time>
      </trkpt>
      <trkpt lat="45.93617" lon="4.81255">
        <ele>190</ele>
        <time>2016-09-14T10:47:40Z</time>
      </trkpt>
      <trkpt lat="45.93618" lon="4.81248">
        <ele>189</ele>
        <time>2016-09-14T10:47:41Z</time>
      </trkpt>
      <trkpt lat="45.93619" lon="4.81241">
        <ele>189</ele>
        <time>2016-09-14T10:47:42Z</time>
      </trkpt>
      <trkpt lat="45.93621" lon="4.81234">
        <ele>189</ele>
        <time>2016-09-14T10:47:43Z</time>
      </trkpt>
      <trkpt lat="45.93622" lon="4.81227">
        <ele>189</ele>
        <time>2016-09-14T10:47:44Z</time>
      </trkpt>
      <trkpt lat="45.93624" lon="4.81221">
        <ele>189</ele>
        <time>2016-09-14T10:47:45Z</time>
      </trkpt>
      <trkpt lat="45.93626" lon="4.81214">
        <ele>189</ele>
        <time>2016-09-14T10:47:46Z</time>
      </trkpt>
      <trkpt lat="45.93628" lon="4.81207">
        <ele>189</ele>
        <time>2016-09-14T10:47:47Z</time>
      </trkpt>
      <trkpt lat="45.9363" lon="4.812">
        <ele>189</ele>
        <time>2016-09-14T10:47:48Z</time>
      </trkpt>
      <trkpt lat="45.93632" lon="4.81194">
        <ele>189</ele>
        <time>2016-09-14T10:47:49Z</time>
      </trkpt>
      <trkpt lat="45.93634" lon="4.81188">
        <ele>189</ele>
        <time>2016-09-14T10:47:50Z</time>
      </trkpt>
      <trkpt lat="45.93637" lon="4.81176">
        <ele>190</ele>
        <time>2016-09-14T10:47:52Z</time>
      </trkpt>
      <trkpt lat="45.93638" lon="4.81171">
        <ele>190</ele>
        <time>2016-09-14T10:47:53Z</time>
      </trkpt>
      <trkpt lat="45.9364" lon="4.81161">
        <ele>189</ele>
        <time>2016-09-14T10:47:55Z</time>
      </trkpt>
      <trkpt lat="45.93641" lon="4.81155">
        <ele>189</ele>
        <time>2016-09-14T10:47:56Z</time>
      </trkpt>
      <trkpt lat="45.93644" lon="4.81143">
        <ele>189</ele>
        <time>2016-09-14T10:47:58Z</time>
      </trkpt>
      <trkpt lat="45.93645" lon="4.81136">
        <ele>189</ele>
        <time>2016-09-14T10:47:59Z</time>
      </trkpt>
      <trkpt lat="45.93646" lon="4.81129">
        <ele>189</ele>
        <time>2016-09-14T10:48:00Z</time>
      </trkpt>
      <trkpt lat="45.93648" lon="4.81121">
        <ele>189</ele>
        <time>2016-09-14T10:48:01Z</time>
      </trkpt>
      <trkpt lat="45.9365" lon="4.81114">
        <ele>189</ele>
        <time>2016-09-14T10:48:02Z</time>
      </trkpt>
      <trkpt lat="45.93652" lon="4.81106">
        <ele>189</ele>
        <time>2016-09-14T10:48:03Z</time>
      </trkpt>
      <trkpt lat="45.93654" lon="4.81099">
        <ele>190</ele>
        <time>2016-09-14T10:48:04Z</time>
      </trkpt>
      <trkpt lat="45.93655" lon="4.81092">
        <ele>190</ele>
        <time>2016-09-14T10:48:05Z</time>
      </trkpt>
      <trkpt lat="45.93657" lon="4.81085">
        <ele>190</ele>
        <time>2016-09-14T10:48:06Z</time>
      </trkpt>
      <trkpt lat="45.93659" lon="4.81078">
        <ele>190</ele>
        <time>2016-09-14T10:48:07Z</time>
      </trkpt>
      <trkpt lat="45.93661" lon="4.81071">
        <ele>190</ele>
        <time>2016-09-14T10:48:08Z</time>
      </trkpt>
      <trkpt lat="45.93664" lon="4.81064">
        <ele>190</ele>
        <time>2016-09-14T10:48:09Z</time>
      </trkpt>
      <trkpt lat="45.93666" lon="4.81056">
        <ele>189</ele>
        <time>2016-09-14T10:48:10Z</time>
      </trkpt>
      <trkpt lat="45.93668" lon="4.81049">
        <ele>192</ele>
        <time>2016-09-14T10:48:11Z</time>
      </trkpt>
      <trkpt lat="45.93671" lon="4.81041">
        <ele>192</ele>
        <time>2016-09-14T10:48:12Z</time>
      </trkpt>
      <trkpt lat="45.93673" lon="4.81032">
        <ele>192</ele>
        <time>2016-09-14T10:48:13Z</time>
      </trkpt>
      <trkpt lat="45.93675" lon="4.81025">
        <ele>192</ele>
        <time>2016-09-14T10:48:14Z</time>
      </trkpt>
      <trkpt lat="45.93678" lon="4.81017">
        <ele>191</ele>
        <time>2016-09-14T10:48:15Z</time>
      </trkpt>
      <trkpt lat="45.93681" lon="4.81009">
        <ele>191</ele>
        <time>2016-09-14T10:48:16Z</time>
      </trkpt>
      <trkpt lat="45.93684" lon="4.81001">
        <ele>191</ele>
        <time>2016-09-14T10:48:17Z</time>
      </trkpt>
      <trkpt lat="45.93686" lon="4.80994">
        <ele>190</ele>
        <time>2016-09-14T10:48:18Z</time>
      </trkpt>
      <trkpt lat="45.93689" lon="4.80987">
        <ele>191</ele>
        <time>2016-09-14T10:48:19Z</time>
      </trkpt>
      <trkpt lat="45.93691" lon="4.8098">
        <ele>191</ele>
        <time>2016-09-14T10:48:20Z</time>
      </trkpt>
      <trkpt lat="45.93694" lon="4.80974">
        <ele>191</ele>
        <time>2016-09-14T10:48:21Z</time>
      </trkpt>
      <trkpt lat="45.93696" lon="4.80968">
        <ele>191</ele>
        <time>2016-09-14T10:48:22Z</time>
      </trkpt>
      <trkpt lat="45.93699" lon="4.80961">
        <ele>191</ele>
        <time>2016-09-14T10:48:23Z</time>
      </trkpt>
      <trkpt lat="45.93702" lon="4.80954">
        <ele>191</ele>
        <time>2016-09-14T10:48:24Z</time>
      </trkpt>
      <trkpt lat="45.93705" lon="4.80947">
        <ele>191</ele>
        <time>2016-09-14T10:48:25Z</time>
      </trkpt>
      <trkpt lat="45.93708" lon="4.8094">
        <ele>191</ele>
        <time>2016-09-14T10:48:26Z</time>
      </trkpt>
      <trkpt lat="45.9371" lon="4.80934">
        <ele>191</ele>
        <time>2016-09-14T10:48:27Z</time>
      </trkpt>
      <trkpt lat="45.93713" lon="4.80929">
        <ele>191</ele>
        <time>2016-09-14T10:48:28Z</time>
      </trkpt>
      <trkpt lat="45.93716" lon="4.80923">
        <ele>191</ele>
        <time>2016-09-14T10:48:29Z</time>
      </trkpt>
      <trkpt lat="45.93718" lon="4.80916">
        <ele>190</ele>
        <time>2016-09-14T10:48:30Z</time>
      </trkpt>
      <trkpt lat="45.93721" lon="4.80909">
        <ele>190</ele>
        <time>2016-09-14T10:48:31Z</time>
      </trkpt>
      <trkpt lat="45.93724" lon="4.80902">
        <ele>191</ele>
        <time>2016-09-14T10:48:32Z</time>
      </trkpt>
      <trkpt lat="45.93726" lon="4.80895">
        <ele>191</ele>
        <time>2016-09-14T10:48:33Z</time>
      </trkpt>
      <trkpt lat="45.93728" lon="4.80888">
        <ele>191</ele>
        <time>2016-09-14T10:48:34Z</time>
      </trkpt>
      <trkpt lat="45.9373" lon="4.8088">
        <ele>191</ele>
        <time>2016-09-14T10:48:35Z</time>
      </trkpt>
      <trkpt lat="45.93732" lon="4.80873">
        <ele>191</ele>
        <time>2016-09-14T10:48:36Z</time>
      </trkpt>
      <trkpt lat="45.93733" lon="4.80866">
        <ele>191</ele>
        <time>2016-09-14T10:48:37Z</time>
      </trkpt>
      <trkpt lat="45.93735" lon="4.80859">
        <ele>191</ele>
        <time>2016-09-14T10:48:38Z</time>
      </trkpt>
      <trkpt lat="45.93737" lon="4.80852">
        <ele>191</ele>
        <time>2016-09-14T10:48:39Z</time>
      </trkpt>
      <trkpt lat="45.93738" lon="4.80845">
        <ele>191</ele>
        <time>2016-09-14T10:48:40Z</time>
      </trkpt>
      <trkpt lat="45.93739" lon="4.80838">
        <ele>192</ele>
        <time>2016-09-14T10:48:41Z</time>
      </trkpt>
      <trkpt lat="45.93741" lon="4.80831">
        <ele>191</ele>
        <time>2016-09-14T10:48:42Z</time>
      </trkpt>
      <trkpt lat="45.93743" lon="4.80824">
        <ele>191</ele>
        <time>2016-09-14T10:48:43Z</time>
      </trkpt>
      <trkpt lat="45.93744" lon="4.80817">
        <ele>191</ele>
        <time>2016-09-14T10:48:44Z</time>
      </trkpt>
      <trkpt lat="45.93746" lon="4.8081">
        <ele>190</ele>
        <time>2016-09-14T10:48:45Z</time>
      </trkpt>
      <trkpt lat="45.93748" lon="4.80804">
        <ele>190</ele>
        <time>2016-09-14T10:48:46Z</time>
      </trkpt>
      <trkpt lat="45.93749" lon="4.80797">
        <ele>190</ele>
        <time>2016-09-14T10:48:47Z</time>
      </trkpt>
      <trkpt lat="45.93751" lon="4.8079">
        <ele>193</ele>
        <time>2016-09-14T10:48:48Z</time>
      </trkpt>
      <trkpt lat="45.93752" lon="4.80782">
        <ele>193</ele>
        <time>2016-09-14T10:48:49Z</time>
      </trkpt>
      <trkpt lat="45.93754" lon="4.80775">
        <ele>193</ele>
        <time>2016-09-14T10:48:50Z</time>
      </trkpt>
      <trkpt lat="45.93756" lon="4.80768">
        <ele>192</ele>
        <time>2016-09-14T10:48:51Z</time>
      </trkpt>
      <trkpt lat="45.93758" lon="4.8076">
        <ele>192</ele>
        <time>2016-09-14T10:48:52Z</time>
      </trkpt>
      <trkpt lat="45.9376" lon="4.80753">
        <ele>192</ele>
        <time>2016-09-14T10:48:53Z</time>
      </trkpt>
      <trkpt lat="45.93762" lon="4.80746">
        <ele>191</ele>
        <time>2016-09-14T10:48:54Z</time>
      </trkpt>
      <trkpt lat="45.93765" lon="4.80739">
        <ele>191</ele>
        <time>2016-09-14T10:48:55Z</time>
      </trkpt>
      <trkpt lat="45.93767" lon="4.80732">
        <ele>192</ele>
        <time>2016-09-14T10:48:56Z</time>
      </trkpt>
      <trkpt lat="45.93769" lon="4.80725">
        <ele>192</ele>
        <time>2016-09-14T10:48:57Z</time>
      </trkpt>
      <trkpt lat="45.93771" lon="4.80719">
        <ele>192</ele>
        <time>2016-09-14T10:48:58Z</time>
      </trkpt>
      <trkpt lat="45.93772" lon="4.80712">
        <ele>192</ele>
        <time>2016-09-14T10:48:59Z</time>
      </trkpt>
      <trkpt lat="45.93774" lon="4.80705">
        <ele>192</ele>
        <time>2016-09-14T10:49:00Z</time>
      </trkpt>
      <trkpt lat="45.93775" lon="4.80698">
        <ele>192</ele>
        <time>2016-09-14T10:49:01Z</time>
      </trkpt>
      <trkpt lat="45.93776" lon="4.80691">
        <ele>192</ele>
        <time>2016-09-14T10:49:02Z</time>
      </trkpt>
      <trkpt lat="45.93777" lon="4.80684">
        <ele>192</ele>
        <time>2016-09-14T10:49:03Z</time>
      </trkpt>
      <trkpt lat="45.93779" lon="4.80678">
        <ele>192</ele>
        <time>2016-09-14T10:49:04Z</time>
      </trkpt>
      <trkpt lat="45.9378" lon="4.80672">
        <ele>192</ele>
        <time>2016-09-14T10:49:05Z</time>
      </trkpt>
      <trkpt lat="45.93781" lon="4.80665">
        <ele>192</ele>
        <time>2016-09-14T10:49:06Z</time>
      </trkpt>
      <trkpt lat="45.93782" lon="4.80657">
        <ele>192</ele>
        <time>2016-09-14T10:49:07Z</time>
      </trkpt>
      <trkpt lat="45.93784" lon="4.8065">
        <ele>192</ele>
        <time>2016-09-14T10:49:08Z</time>
      </trkpt>
      <trkpt lat="45.93785" lon="4.80642">
        <ele>192</ele>
        <time>2016-09-14T10:49:09Z</time>
      </trkpt>
      <trkpt lat="45.93786" lon="4.80634">
        <ele>192</ele>
        <time>2016-09-14T10:49:10Z</time>
      </trkpt>
      <trkpt lat="45.93788" lon="4.80628">
        <ele>192</ele>
        <time>2016-09-14T10:49:11Z</time>
      </trkpt>
      <trkpt lat="45.93789" lon="4.80621">
        <ele>192</ele>
        <time>2016-09-14T10:49:12Z</time>
      </trkpt>
      <trkpt lat="45.93791" lon="4.80613">
        <ele>192</ele>
        <time>2016-09-14T10:49:13Z</time>
      </trkpt>
      <trkpt lat="45.93793" lon="4.80606">
        <ele>192</ele>
        <time>2016-09-14T10:49:14Z</time>
      </trkpt>
      <trkpt lat="45.93794" lon="4.80598">
        <ele>192</ele>
        <time>2016-09-14T10:49:15Z</time>
      </trkpt>
      <trkpt lat="45.93796" lon="4.8059">
        <ele>192</ele>
        <time>2016-09-14T10:49:16Z</time>
      </trkpt>
      <trkpt lat="45.93797" lon="4.80583">
        <ele>192</ele>
        <time>2016-09-14T10:49:17Z</time>
      </trkpt>
      <trkpt lat="45.93799" lon="4.80575">
        <ele>192</ele>
        <time>2016-09-14T10:49:18Z</time>
      </trkpt>
      <trkpt lat="45.938" lon="4.80568">
        <ele>192</ele>
        <time>2016-09-14T10:49:19Z</time>
      </trkpt>
      <trkpt lat="45.93801" lon="4.80561">
        <ele>192</ele>
        <time>2016-09-14T10:49:20Z</time>
      </trkpt>
      <trkpt lat="45.93802" lon="4.80554">
        <ele>192</ele>
        <time>2016-09-14T10:49:21Z</time>
      </trkpt>
      <trkpt lat="45.93804" lon="4.80547">
        <ele>192</ele>
        <time>2016-09-14T10:49:22Z</time>
      </trkpt>
      <trkpt lat="45.93805" lon="4.8054">
        <ele>192</ele>
        <time>2016-09-14T10:49:23Z</time>
      </trkpt>
      <trkpt lat="45.93807" lon="4.80532">
        <ele>192</ele>
        <time>2016-09-14T10:49:24Z</time>
      </trkpt>
      <trkpt lat="45.93808" lon="4.80523">
        <ele>192</ele>
        <time>2016-09-14T10:49:25Z</time>
      </trkpt>
      <trkpt lat="45.93809" lon="4.80515">
        <ele>192</ele>
        <time>2016-09-14T10:49:26Z</time>
      </trkpt>
      <trkpt lat="45.9381" lon="4.80507">
        <ele>192</ele>
        <time>2016-09-14T10:49:27Z</time>
      </trkpt>
      <trkpt lat="45.93812" lon="4.805">
        <ele>193</ele>
        <time>2016-09-14T10:49:28Z</time>
      </trkpt>
      <trkpt lat="45.93814" lon="4.80493">
        <ele>193</ele>
        <time>2016-09-14T10:49:29Z</time>
      </trkpt>
      <trkpt lat="45.93816" lon="4.80485">
        <ele>193</ele>
        <time>2016-09-14T10:49:30Z</time>
      </trkpt>
      <trkpt lat="45.93818" lon="4.80478">
        <ele>193</ele>
        <time>2016-09-14T10:49:31Z</time>
      </trkpt>
      <trkpt lat="45.9382" lon="4.80472">
        <ele>193</ele>
        <time>2016-09-14T10:49:32Z</time>
      </trkpt>
      <trkpt lat="45.93822" lon="4.80464">
        <ele>193</ele>
        <time>2016-09-14T10:49:33Z</time>
      </trkpt>
      <trkpt lat="45.93824" lon="4.80457">
        <ele>194</ele>
        <time>2016-09-14T10:49:34Z</time>
      </trkpt>
      <trkpt lat="45.93826" lon="4.8045">
        <ele>194</ele>
        <time>2016-09-14T10:49:35Z</time>
      </trkpt>
      <trkpt lat="45.93827" lon="4.80444">
        <ele>194</ele>
        <time>2016-09-14T10:49:36Z</time>
      </trkpt>
      <trkpt lat="45.93829" lon="4.80438">
        <ele>194</ele>
        <time>2016-09-14T10:49:37Z</time>
      </trkpt>
      <trkpt lat="45.93834" lon="4.80427">
        <ele>196</ele>
        <time>2016-09-14T10:49:39Z</time>
      </trkpt>
      <trkpt lat="45.93837" lon="4.80421">
        <ele>196</ele>
        <time>2016-09-14T10:49:40Z</time>
      </trkpt>
      <trkpt lat="45.9384" lon="4.80416">
        <ele>196</ele>
        <time>2016-09-14T10:49:41Z</time>
      </trkpt>
      <trkpt lat="45.93844" lon="4.8041">
        <ele>196</ele>
        <time>2016-09-14T10:49:42Z</time>
      </trkpt>
      <trkpt lat="45.93847" lon="4.80405">
        <ele>196</ele>
        <time>2016-09-14T10:49:43Z</time>
      </trkpt>
      <trkpt lat="45.9385" lon="4.80401">
        <ele>196</ele>
        <time>2016-09-14T10:49:44Z</time>
      </trkpt>
      <trkpt lat="45.93857" lon="4.80393">
        <ele>197</ele>
        <time>2016-09-14T10:49:46Z</time>
      </trkpt>
      <trkpt lat="45.93859" lon="4.80389">
        <ele>197</ele>
        <time>2016-09-14T10:49:47Z</time>
      </trkpt>
      <trkpt lat="45.93865" lon="4.80382">
        <ele>197</ele>
        <time>2016-09-14T10:49:49Z</time>
      </trkpt>
      <trkpt lat="45.93868" lon="4.80379">
        <ele>197</ele>
        <time>2016-09-14T10:49:50Z</time>
      </trkpt>
      <trkpt lat="45.93875" lon="4.80374">
        <ele>197</ele>
        <time>2016-09-14T10:49:52Z</time>
      </trkpt>
      <trkpt lat="45.93878" lon="4.80372">
        <ele>197</ele>
        <time>2016-09-14T10:49:53Z</time>
      </trkpt>
      <trkpt lat="45.93885" lon="4.80367">
        <ele>197</ele>
        <time>2016-09-14T10:49:55Z</time>
      </trkpt>
      <trkpt lat="45.93888" lon="4.80364">
        <ele>197</ele>
        <time>2016-09-14T10:49:56Z</time>
      </trkpt>
      <trkpt lat="45.93893" lon="4.80356">
        <ele>197</ele>
        <time>2016-09-14T10:49:58Z</time>
      </trkpt>
      <trkpt lat="45.93895" lon="4.80351">
        <ele>198</ele>
        <time>2016-09-14T10:49:59Z</time>
      </trkpt>
      <trkpt lat="45.93899" lon="4.80341">
        <ele>198</ele>
        <time>2016-09-14T10:50:01Z</time>
      </trkpt>
      <trkpt lat="45.93901" lon="4.80336">
        <ele>198</ele>
        <time>2016-09-14T10:50:02Z</time>
      </trkpt>
      <trkpt lat="45.93903" lon="4.80326">
        <ele>197</ele>
        <time>2016-09-14T10:50:04Z</time>
      </trkpt>
      <trkpt lat="45.93905" lon="4.80321">
        <ele>197</ele>
        <time>2016-09-14T10:50:05Z</time>
      </trkpt>
      <trkpt lat="45.93907" lon="4.80311">
        <ele>197</ele>
        <time>2016-09-14T10:50:07Z</time>
      </trkpt>
      <trkpt lat="45.93908" lon="4.80305">
        <ele>197</ele>
        <time>2016-09-14T10:50:08Z</time>
      </trkpt>
      <trkpt lat="45.9391" lon="4.80294">
        <ele>197</ele>
        <time>2016-09-14T10:50:10Z</time>
      </trkpt>
      <trkpt lat="45.93911" lon="4.80289">
        <ele>197</ele>
        <time>2016-09-14T10:50:11Z</time>
      </trkpt>
      <trkpt lat="45.93912" lon="4.80279">
        <ele>197</ele>
        <time>2016-09-14T10:50:13Z</time>
      </trkpt>
      <trkpt lat="45.93913" lon="4.80274">
        <ele>198</ele>
        <time>2016-09-14T10:50:14Z</time>
      </trkpt>
      <trkpt lat="45.93915" lon="4.80263">
        <ele>198</ele>
        <time>2016-09-14T10:50:16Z</time>
      </trkpt>
      <trkpt lat="45.93915" lon="4.80258">
        <ele>199</ele>
        <time>2016-09-14T10:50:17Z</time>
      </trkpt>
      <trkpt lat="45.93917" lon="4.80249">
        <ele>200</ele>
        <time>2016-09-14T10:50:19Z</time>
      </trkpt>
      <trkpt lat="45.93917" lon="4.80244">
        <ele>201</ele>
        <time>2016-09-14T10:50:20Z</time>
      </trkpt>
      <trkpt lat="45.93918" lon="4.80235">
        <ele>202</ele>
        <time>2016-09-14T10:50:22Z</time>
      </trkpt>
      <trkpt lat="45.93919" lon="4.8023">
        <ele>203</ele>
        <time>2016-09-14T10:50:23Z</time>
      </trkpt>
      <trkpt lat="45.93921" lon="4.80221">
        <ele>203</ele>
        <time>2016-09-14T10:50:25Z</time>
      </trkpt>
      <trkpt lat="45.93922" lon="4.80217">
        <ele>204</ele>
        <time>2016-09-14T10:50:26Z</time>
      </trkpt>
      <trkpt lat="45.93923" lon="4.80208">
        <ele>204</ele>
        <time>2016-09-14T10:50:28Z</time>
      </trkpt>
      <trkpt lat="45.93924" lon="4.80204">
        <ele>204</ele>
        <time>2016-09-14T10:50:29Z</time>
      </trkpt>
      <trkpt lat="45.93925" lon="4.80195">
        <ele>205</ele>
        <time>2016-09-14T10:50:31Z</time>
      </trkpt>
      <trkpt lat="45.93926" lon="4.80191">
        <ele>205</ele>
        <time>2016-09-14T10:50:32Z</time>
      </trkpt>
      <trkpt lat="45.93927" lon="4.80179">
        <ele>205</ele>
        <time>2016-09-14T10:50:35Z</time>
      </trkpt>
      <trkpt lat="45.93927" lon="4.80175">
        <ele>205</ele>
        <time>2016-09-14T10:50:36Z</time>
      </trkpt>
      <trkpt lat="45.93931" lon="4.80164">
        <ele>206</ele>
        <time>2016-09-14T10:50:39Z</time>
      </trkpt>
      <trkpt lat="45.93932" lon="4.8016">
        <ele>207</ele>
        <time>2016-09-14T10:50:40Z</time>
      </trkpt>
      <trkpt lat="45.93932" lon="4.8015">
        <ele>207</ele>
        <time>2016-09-14T10:50:42Z</time>
      </trkpt>
      <trkpt lat="45.93932" lon="4.80145">
        <ele>207</ele>
        <time>2016-09-14T10:50:43Z</time>
      </trkpt>
      <trkpt lat="45.93933" lon="4.80134">
        <ele>208</ele>
        <time>2016-09-14T10:50:46Z</time>
      </trkpt>
      <trkpt lat="45.93933" lon="4.80131">
        <ele>208</ele>
        <time>2016-09-14T10:50:47Z</time>
      </trkpt>
      <trkpt lat="45.93937" lon="4.80121">
        <ele>208</ele>
        <time>2016-09-14T10:50:53Z</time>
      </trkpt>
      <trkpt lat="45.93938" lon="4.8012">
        <ele>208</ele>
        <time>2016-09-14T10:50:54Z</time>
      </trkpt>
      <trkpt lat="45.93938" lon="4.80119">
        <ele>208</ele>
        <time>2016-09-14T10:50:55Z</time>
      </trkpt>
      <trkpt lat="45.93941" lon="4.80115">
        <ele>209</ele>
        <time>2016-09-14T10:51:04Z</time>
      </trkpt>
      <trkpt lat="45.93942" lon="4.80113">
        <ele>209</ele>
        <time>2016-09-14T10:51:05Z</time>
      </trkpt>
      <trkpt lat="45.93944" lon="4.80104">
        <ele>209</ele>
        <time>2016-09-14T10:51:07Z</time>
      </trkpt>
      <trkpt lat="45.93944" lon="4.80099">
        <ele>209</ele>
        <time>2016-09-14T10:51:08Z</time>
      </trkpt>
      <trkpt lat="45.93944" lon="4.80086">
        <ele>208</ele>
        <time>2016-09-14T10:51:10Z</time>
      </trkpt>
      <trkpt lat="45.93944" lon="4.80079">
        <ele>208</ele>
        <time>2016-09-14T10:51:11Z</time>
      </trkpt>
      <trkpt lat="45.93945" lon="4.80067">
        <ele>208</ele>
        <time>2016-09-14T10:51:13Z</time>
      </trkpt>
      <trkpt lat="45.93946" lon="4.80061">
        <ele>208</ele>
        <time>2016-09-14T10:51:14Z</time>
      </trkpt>
      <trkpt lat="45.93946" lon="4.80054">
        <ele>208</ele>
        <time>2016-09-14T10:51:15Z</time>
      </trkpt>
      <trkpt lat="45.93947" lon="4.80047">
        <ele>208</ele>
        <time>2016-09-14T10:51:16Z</time>
      </trkpt>
      <trkpt lat="45.93947" lon="4.8004">
        <ele>208</ele>
        <time>2016-09-14T10:51:17Z</time>
      </trkpt>
      <trkpt lat="45.93948" lon="4.80033">
        <ele>207</ele>
        <time>2016-09-14T10:51:18Z</time>
      </trkpt>
      <trkpt lat="45.93948" lon="4.80026">
        <ele>207</ele>
        <time>2016-09-14T10:51:19Z</time>
      </trkpt>
      <trkpt lat="45.9395" lon="4.80019">
        <ele>207</ele>
        <time>2016-09-14T10:51:20Z</time>
      </trkpt>
      <trkpt lat="45.9395" lon="4.80011">
        <ele>207</ele>
        <time>2016-09-14T10:51:21Z</time>
      </trkpt>
      <trkpt lat="45.93951" lon="4.80003">
        <ele>207</ele>
        <time>2016-09-14T10:51:22Z</time>
      </trkpt>
      <trkpt lat="45.93952" lon="4.79996">
        <ele>205</ele>
        <time>2016-09-14T10:51:23Z</time>
      </trkpt>
      <trkpt lat="45.93952" lon="4.79988">
        <ele>205</ele>
        <time>2016-09-14T10:51:24Z</time>
      </trkpt>
      <trkpt lat="45.93953" lon="4.7998">
        <ele>205</ele>
        <time>2016-09-14T10:51:25Z</time>
      </trkpt>
      <trkpt lat="45.93955" lon="4.79973">
        <ele>205</ele>
        <time>2016-09-14T10:51:26Z</time>
      </trkpt>
      <trkpt lat="45.93956" lon="4.79965">
        <ele>205</ele>
        <time>2016-09-14T10:51:27Z</time>
      </trkpt>
      <trkpt lat="45.93956" lon="4.79957">
        <ele>205</ele>
        <time>2016-09-14T10:51:28Z</time>
      </trkpt>
      <trkpt lat="45.93958" lon="4.79949">
        <ele>205</ele>
        <time>2016-09-14T10:51:29Z</time>
      </trkpt>
      <trkpt lat="45.9396" lon="4.79942">
        <ele>205</ele>
        <time>2016-09-14T10:51:30Z</time>
      </trkpt>
      <trkpt lat="45.93961" lon="4.79935">
        <ele>205</ele>
        <time>2016-09-14T10:51:31Z</time>
      </trkpt>
      <trkpt lat="45.93962" lon="4.79928">
        <ele>206</ele>
        <time>2016-09-14T10:51:32Z</time>
      </trkpt>
      <trkpt lat="45.93962" lon="4.7992">
        <ele>206</ele>
        <time>2016-09-14T10:51:33Z</time>
      </trkpt>
      <trkpt lat="45.93963" lon="4.79913">
        <ele>206</ele>
        <time>2016-09-14T10:51:34Z</time>
      </trkpt>
      <trkpt lat="45.93965" lon="4.79905">
        <ele>206</ele>
        <time>2016-09-14T10:51:35Z</time>
      </trkpt>
      <trkpt lat="45.93966" lon="4.79897">
        <ele>206</ele>
        <time>2016-09-14T10:51:36Z</time>
      </trkpt>
      <trkpt lat="45.93968" lon="4.79889">
        <ele>206</ele>
        <time>2016-09-14T10:51:37Z</time>
      </trkpt>
      <trkpt lat="45.9397" lon="4.79881">
        <ele>206</ele>
        <time>2016-09-14T10:51:38Z</time>
      </trkpt>
      <trkpt lat="45.93972" lon="4.79874">
        <ele>206</ele>
        <time>2016-09-14T10:51:39Z</time>
      </trkpt>
      <trkpt lat="45.93973" lon="4.79866">
        <ele>206</ele>
        <time>2016-09-14T10:51:40Z</time>
      </trkpt>
      <trkpt lat="45.93974" lon="4.79858">
        <ele>206</ele>
        <time>2016-09-14T10:51:41Z</time>
      </trkpt>
      <trkpt lat="45.93975" lon="4.79851">
        <ele>207</ele>
        <time>2016-09-14T10:51:42Z</time>
      </trkpt>
      <trkpt lat="45.93976" lon="4.79843">
        <ele>207</ele>
        <time>2016-09-14T10:51:43Z</time>
      </trkpt>
      <trkpt lat="45.93977" lon="4.79836">
        <ele>207</ele>
        <time>2016-09-14T10:51:44Z</time>
      </trkpt>
      <trkpt lat="45.93978" lon="4.79827">
        <ele>207</ele>
        <time>2016-09-14T10:51:45Z</time>
      </trkpt>
      <trkpt lat="45.93979" lon="4.79819">
        <ele>207</ele>
        <time>2016-09-14T10:51:46Z</time>
      </trkpt>
      <trkpt lat="45.9398" lon="4.79811">
        <ele>207</ele>
        <time>2016-09-14T10:51:47Z</time>
      </trkpt>
      <trkpt lat="45.93981" lon="4.79803">
        <ele>207</ele>
        <time>2016-09-14T10:51:48Z</time>
      </trkpt>
      <trkpt lat="45.93981" lon="4.79795">
        <ele>207</ele>
        <time>2016-09-14T10:51:49Z</time>
      </trkpt>
      <trkpt lat="45.93982" lon="4.79787">
        <ele>207</ele>
        <time>2016-09-14T10:51:50Z</time>
      </trkpt>
      <trkpt lat="45.93981" lon="4.79779">
        <ele>207</ele>
        <time>2016-09-14T10:51:51Z</time>
      </trkpt>
      <trkpt lat="45.93981" lon="4.7977">
        <ele>207</ele>
        <time>2016-09-14T10:51:52Z</time>
      </trkpt>
      <trkpt lat="45.9398" lon="4.79762">
        <ele>207</ele>
        <time>2016-09-14T10:51:53Z</time>
      </trkpt>
      <trkpt lat="45.93979" lon="4.79753">
        <ele>207</ele>
        <time>2016-09-14T10:51:54Z</time>
      </trkpt>
      <trkpt lat="45.93979" lon="4.79746">
        <ele>207</ele>
        <time>2016-09-14T10:51:55Z</time>
      </trkpt>
      <trkpt lat="45.93978" lon="4.79739">
        <ele>207</ele>
        <time>2016-09-14T10:51:56Z</time>
      </trkpt>
      <trkpt lat="45.93976" lon="4.79732">
        <ele>207</ele>
        <time>2016-09-14T10:51:57Z</time>
      </trkpt>
      <trkpt lat="45.93975" lon="4.79725">
        <ele>207</ele>
        <time>2016-09-14T10:51:58Z</time>
      </trkpt>
      <trkpt lat="45.93974" lon="4.79718">
        <ele>207</ele>
        <time>2016-09-14T10:51:59Z</time>
      </trkpt>
      <trkpt lat="45.93974" lon="4.79711">
        <ele>207</ele>
        <time>2016-09-14T10:52:00Z</time>
      </trkpt>
      <trkpt lat="45.93974" lon="4.79703">
        <ele>207</ele>
        <time>2016-09-14T10:52:01Z</time>
      </trkpt>
      <trkpt lat="45.93974" lon="4.79696">
        <ele>207</ele>
        <time>2016-09-14T10:52:02Z</time>
      </trkpt>
      <trkpt lat="45.93973" lon="4.79689">
        <ele>207</ele>
        <time>2016-09-14T10:52:03Z</time>
      </trkpt>
      <trkpt lat="45.93973" lon="4.79682">
        <ele>208</ele>
        <time>2016-09-14T10:52:04Z</time>
      </trkpt>
      <trkpt lat="45.93972" lon="4.79674">
        <ele>208</ele>
        <time>2016-09-14T10:52:05Z</time>
      </trkpt>
      <trkpt lat="45.93971" lon="4.79666">
        <ele>208</ele>
        <time>2016-09-14T10:52:06Z</time>
      </trkpt>
      <trkpt lat="45.93969" lon="4.79659">
        <ele>208</ele>
        <time>2016-09-14T10:52:07Z</time>
      </trkpt>
      <trkpt lat="45.93968" lon="4.79651">
        <ele>208</ele>
        <time>2016-09-14T10:52:08Z</time>
      </trkpt>
      <trkpt lat="45.93967" lon="4.79643">
        <ele>207</ele>
        <time>2016-09-14T10:52:09Z</time>
      </trkpt>
      <trkpt lat="45.93965" lon="4.79637">
        <ele>207</ele>
        <time>2016-09-14T10:52:10Z</time>
      </trkpt>
      <trkpt lat="45.93964" lon="4.7963">
        <ele>207</ele>
        <time>2016-09-14T10:52:11Z</time>
      </trkpt>
      <trkpt lat="45.93964" lon="4.79622">
        <ele>207</ele>
        <time>2016-09-14T10:52:12Z</time>
      </trkpt>
      <trkpt lat="45.93962" lon="4.79614">
        <ele>207</ele>
        <time>2016-09-14T10:52:13Z</time>
      </trkpt>
      <trkpt lat="45.93961" lon="4.79605">
        <ele>207</ele>
        <time>2016-09-14T10:52:14Z</time>
      </trkpt>
      <trkpt lat="45.9396" lon="4.79596">
        <ele>207</ele>
        <time>2016-09-14T10:52:15Z</time>
      </trkpt>
      <trkpt lat="45.9396" lon="4.79587">
        <ele>207</ele>
        <time>2016-09-14T10:52:16Z</time>
      </trkpt>
      <trkpt lat="45.93959" lon="4.79578">
        <ele>206</ele>
        <time>2016-09-14T10:52:17Z</time>
      </trkpt>
      <trkpt lat="45.93958" lon="4.79569">
        <ele>205</ele>
        <time>2016-09-14T10:52:18Z</time>
      </trkpt>
      <trkpt lat="45.93957" lon="4.79559">
        <ele>205</ele>
        <time>2016-09-14T10:52:19Z</time>
      </trkpt>
      <trkpt lat="45.93956" lon="4.7955">
        <ele>205</ele>
        <time>2016-09-14T10:52:20Z</time>
      </trkpt>
      <trkpt lat="45.93956" lon="4.79541">
        <ele>205</ele>
        <time>2016-09-14T10:52:21Z</time>
      </trkpt>
      <trkpt lat="45.93956" lon="4.79531">
        <ele>205</ele>
        <time>2016-09-14T10:52:22Z</time>
      </trkpt>
      <trkpt lat="45.93956" lon="4.79521">
        <ele>204</ele>
        <time>2016-09-14T10:52:23Z</time>
      </trkpt>
      <trkpt lat="45.93956" lon="4.79511">
        <ele>204</ele>
        <time>2016-09-14T10:52:24Z</time>
      </trkpt>
      <trkpt lat="45.93957" lon="4.795">
        <ele>204</ele>
        <time>2016-09-14T10:52:25Z</time>
      </trkpt>
      <trkpt lat="45.93957" lon="4.79491">
        <ele>203</ele>
        <time>2016-09-14T10:52:26Z</time>
      </trkpt>
      <trkpt lat="45.93956" lon="4.79481">
        <ele>203</ele>
        <time>2016-09-14T10:52:27Z</time>
      </trkpt>
      <trkpt lat="45.93956" lon="4.7947">
        <ele>203</ele>
        <time>2016-09-14T10:52:28Z</time>
      </trkpt>
      <trkpt lat="45.93956" lon="4.7946">
        <ele>203</ele>
        <time>2016-09-14T10:52:29Z</time>
      </trkpt>
      <trkpt lat="45.93956" lon="4.7945">
        <ele>203</ele>
        <time>2016-09-14T10:52:30Z</time>
      </trkpt>
      <trkpt lat="45.93957" lon="4.7944">
        <ele>203</ele>
        <time>2016-09-14T10:52:31Z</time>
      </trkpt>
      <trkpt lat="45.93957" lon="4.79429">
        <ele>203</ele>
        <time>2016-09-14T10:52:32Z</time>
      </trkpt>
      <trkpt lat="45.93958" lon="4.79418">
        <ele>203</ele>
        <time>2016-09-14T10:52:33Z</time>
      </trkpt>
      <trkpt lat="45.93958" lon="4.79407">
        <ele>202</ele>
        <time>2016-09-14T10:52:34Z</time>
      </trkpt>
      <trkpt lat="45.93958" lon="4.79394">
        <ele>201</ele>
        <time>2016-09-14T10:52:35Z</time>
      </trkpt>
      <trkpt lat="45.93957" lon="4.79381">
        <ele>201</ele>
        <time>2016-09-14T10:52:36Z</time>
      </trkpt>
      <trkpt lat="45.93958" lon="4.7937">
        <ele>201</ele>
        <time>2016-09-14T10:52:37Z</time>
      </trkpt>
      <trkpt lat="45.93958" lon="4.79359">
        <ele>201</ele>
        <time>2016-09-14T10:52:38Z</time>
      </trkpt>
      <trkpt lat="45.93958" lon="4.79347">
        <ele>201</ele>
        <time>2016-09-14T10:52:39Z</time>
      </trkpt>
      <trkpt lat="45.93958" lon="4.79334">
        <ele>201</ele>
        <time>2016-09-14T10:52:40Z</time>
      </trkpt>
      <trkpt lat="45.93957" lon="4.79322">
        <ele>199</ele>
        <time>2016-09-14T10:52:41Z</time>
      </trkpt>
      <trkpt lat="45.93957" lon="4.79311">
        <ele>199</ele>
        <time>2016-09-14T10:52:42Z</time>
      </trkpt>
      <trkpt lat="45.93956" lon="4.793">
        <ele>199</ele>
        <time>2016-09-14T10:52:43Z</time>
      </trkpt>
      <trkpt lat="45.93955" lon="4.79289">
        <ele>199</ele>
        <time>2016-09-14T10:52:44Z</time>
      </trkpt>
      <trkpt lat="45.93955" lon="4.79278">
        <ele>198</ele>
        <time>2016-09-14T10:52:45Z</time>
      </trkpt>
      <trkpt lat="45.93955" lon="4.79268">
        <ele>198</ele>
        <time>2016-09-14T10:52:46Z</time>
      </trkpt>
      <trkpt lat="45.93955" lon="4.79256">
        <ele>198</ele>
        <time>2016-09-14T10:52:47Z</time>
      </trkpt>
      <trkpt lat="45.93955" lon="4.79245">
        <ele>197</ele>
        <time>2016-09-14T10:52:48Z</time>
      </trkpt>
      <trkpt lat="45.93955" lon="4.79235">
        <ele>197</ele>
        <time>2016-09-14T10:52:49Z</time>
      </trkpt>
      <trkpt lat="45.93954" lon="4.79224">
        <ele>197</ele>
        <time>2016-09-14T10:52:50Z</time>
      </trkpt>
      <trkpt lat="45.93954" lon="4.79213">
        <ele>197</ele>
        <time>2016-09-14T10:52:51Z</time>
      </trkpt>
      <trkpt lat="45.93954" lon="4.79203">
        <ele>197</ele>
        <time>2016-09-14T10:52:52Z</time>
      </trkpt>
      <trkpt lat="45.93953" lon="4.79192">
        <ele>197</ele>
        <time>2016-09-14T10:52:53Z</time>
      </trkpt>
      <trkpt lat="45.93953" lon="4.79182">
        <ele>197</ele>
        <time>2016-09-14T10:52:54Z</time>
      </trkpt>
      <trkpt lat="45.93953" lon="4.79171">
        <ele>197</ele>
        <time>2016-09-14T10:52:55Z</time>
      </trkpt>
      <trkpt lat="45.93953" lon="4.7916">
        <ele>197</ele>
        <time>2016-09-14T10:52:56Z</time>
      </trkpt>
      <trkpt lat="45.93953" lon="4.79149">
        <ele>197</ele>
        <time>2016-09-14T10:52:57Z</time>
      </trkpt>
      <trkpt lat="45.93953" lon="4.79138">
        <ele>197</ele>
        <time>2016-09-14T10:52:58Z</time>
      </trkpt>
      <trkpt lat="45.93953" lon="4.79127">
        <ele>197</ele>
        <time>2016-09-14T10:52:59Z</time>
      </trkpt>
      <trkpt lat="45.93952" lon="4.79117">
        <ele>197</ele>
        <time>2016-09-14T10:53:00Z</time>
      </trkpt>
      <trkpt lat="45.93952" lon="4.79106">
        <ele>197</ele>
        <time>2016-09-14T10:53:01Z</time>
      </trkpt>
      <trkpt lat="45.93952" lon="4.79096">
        <ele>197</ele>
        <time>2016-09-14T10:53:02Z</time>
      </trkpt>
      <trkpt lat="45.93952" lon="4.79085">
        <ele>197</ele>
        <time>2016-09-14T10:53:03Z</time>
      </trkpt>
      <trkpt lat="45.93952" lon="4.79075">
        <ele>196</ele>
        <time>2016-09-14T10:53:04Z</time>
      </trkpt>
      <trkpt lat="45.93952" lon="4.79065">
        <ele>196</ele>
        <time>2016-09-14T10:53:05Z</time>
      </trkpt>
      <trkpt lat="45.93952" lon="4.79054">
        <ele>196</ele>
        <time>2016-09-14T10:53:06Z</time>
      </trkpt>
      <trkpt lat="45.93952" lon="4.79043">
        <ele>196</ele>
        <time>2016-09-14T10:53:07Z</time>
      </trkpt>
      <trkpt lat="45.93951" lon="4.79032">
        <ele>196</ele>
        <time>2016-09-14T10:53:08Z</time>
      </trkpt>
      <trkpt lat="45.9395" lon="4.79021">
        <ele>195</ele>
        <time>2016-09-14T10:53:09Z</time>
      </trkpt>
      <trkpt lat="45.9395" lon="4.7901">
        <ele>195</ele>
        <time>2016-09-14T10:53:10Z</time>
      </trkpt>
      <trkpt lat="45.93949" lon="4.78998">
        <ele>194</ele>
        <time>2016-09-14T10:53:11Z</time>
      </trkpt>
      <trkpt lat="45.93948" lon="4.78988">
        <ele>194</ele>
        <time>2016-09-14T10:53:12Z</time>
      </trkpt>
      <trkpt lat="45.93947" lon="4.78977">
        <ele>194</ele>
        <time>2016-09-14T10:53:13Z</time>
      </trkpt>
      <trkpt lat="45.93947" lon="4.78966">
        <ele>194</ele>
        <time>2016-09-14T10:53:14Z</time>
      </trkpt>
      <trkpt lat="45.93947" lon="4.78954">
        <ele>194</ele>
        <time>2016-09-14T10:53:15Z</time>
      </trkpt>
      <trkpt lat="45.93947" lon="4.78942">
        <ele>194</ele>
        <time>2016-09-14T10:53:16Z</time>
      </trkpt>
      <trkpt lat="45.93947" lon="4.78932">
        <ele>194</ele>
        <time>2016-09-14T10:53:17Z</time>
      </trkpt>
      <trkpt lat="45.93947" lon="4.78922">
        <ele>194</ele>
        <time>2016-09-14T10:53:18Z</time>
      </trkpt>
      <trkpt lat="45.93946" lon="4.78911">
        <ele>193</ele>
        <time>2016-09-14T10:53:19Z</time>
      </trkpt>
      <trkpt lat="45.93946" lon="4.78901">
        <ele>194</ele>
        <time>2016-09-14T10:53:20Z</time>
      </trkpt>
      <trkpt lat="45.93945" lon="4.7889">
        <ele>194</ele>
        <time>2016-09-14T10:53:21Z</time>
      </trkpt>
      <trkpt lat="45.93944" lon="4.7888">
        <ele>194</ele>
        <time>2016-09-14T10:53:22Z</time>
      </trkpt>
      <trkpt lat="45.93944" lon="4.7887">
        <ele>194</ele>
        <time>2016-09-14T10:53:23Z</time>
      </trkpt>
      <trkpt lat="45.93944" lon="4.7886">
        <ele>194</ele>
        <time>2016-09-14T10:53:24Z</time>
      </trkpt>
      <trkpt lat="45.93943" lon="4.78851">
        <ele>194</ele>
        <time>2016-09-14T10:53:25Z</time>
      </trkpt>
      <trkpt lat="45.93943" lon="4.78842">
        <ele>194</ele>
        <time>2016-09-14T10:53:26Z</time>
      </trkpt>
      <trkpt lat="45.93942" lon="4.78833">
        <ele>194</ele>
        <time>2016-09-14T10:53:27Z</time>
      </trkpt>
      <trkpt lat="45.93941" lon="4.78823">
        <ele>194</ele>
        <time>2016-09-14T10:53:28Z</time>
      </trkpt>
      <trkpt lat="45.93941" lon="4.78814">
        <ele>194</ele>
        <time>2016-09-14T10:53:29Z</time>
      </trkpt>
      <trkpt lat="45.93941" lon="4.78805">
        <ele>194</ele>
        <time>2016-09-14T10:53:30Z</time>
      </trkpt>
      <trkpt lat="45.93941" lon="4.78796">
        <ele>194</ele>
        <time>2016-09-14T10:53:31Z</time>
      </trkpt>
      <trkpt lat="45.93941" lon="4.78787">
        <ele>194</ele>
        <time>2016-09-14T10:53:32Z</time>
      </trkpt>
      <trkpt lat="45.9394" lon="4.78778">
        <ele>194</ele>
        <time>2016-09-14T10:53:33Z</time>
      </trkpt>
      <trkpt lat="45.9394" lon="4.7877">
        <ele>194</ele>
        <time>2016-09-14T10:53:34Z</time>
      </trkpt>
      <trkpt lat="45.9394" lon="4.78761">
        <ele>193</ele>
        <time>2016-09-14T10:53:35Z</time>
      </trkpt>
      <trkpt lat="45.9394" lon="4.78753">
        <ele>193</ele>
        <time>2016-09-14T10:53:36Z</time>
      </trkpt>
      <trkpt lat="45.93939" lon="4.78744">
        <ele>193</ele>
        <time>2016-09-14T10:53:37Z</time>
      </trkpt>
      <trkpt lat="45.93939" lon="4.78735">
        <ele>194</ele>
        <time>2016-09-14T10:53:38Z</time>
      </trkpt>
      <trkpt lat="45.93939" lon="4.78725">
        <ele>194</ele>
        <time>2016-09-14T10:53:39Z</time>
      </trkpt>
      <trkpt lat="45.93939" lon="4.78716">
        <ele>194</ele>
        <time>2016-09-14T10:53:40Z</time>
      </trkpt>
      <trkpt lat="45.9394" lon="4.78707">
        <ele>194</ele>
        <time>2016-09-14T10:53:41Z</time>
      </trkpt>
      <trkpt lat="45.93941" lon="4.78698">
        <ele>194</ele>
        <time>2016-09-14T10:53:42Z</time>
      </trkpt>
      <trkpt lat="45.93942" lon="4.7869">
        <ele>194</ele>
        <time>2016-09-14T10:53:43Z</time>
      </trkpt>
      <trkpt lat="45.93941" lon="4.78682">
        <ele>194</ele>
        <time>2016-09-14T10:53:44Z</time>
      </trkpt>
      <trkpt lat="45.93941" lon="4.78674">
        <ele>194</ele>
        <time>2016-09-14T10:53:45Z</time>
      </trkpt>
      <trkpt lat="45.93941" lon="4.78666">
        <ele>194</ele>
        <time>2016-09-14T10:53:46Z</time>
      </trkpt>
      <trkpt lat="45.93941" lon="4.78657">
        <ele>195</ele>
        <time>2016-09-14T10:53:47Z</time>
      </trkpt>
      <trkpt lat="45.93941" lon="4.78649">
        <ele>195</ele>
        <time>2016-09-14T10:53:48Z</time>
      </trkpt>
      <trkpt lat="45.93941" lon="4.78641">
        <ele>195</ele>
        <time>2016-09-14T10:53:49Z</time>
      </trkpt>
      <trkpt lat="45.93942" lon="4.78633">
        <ele>196</ele>
        <time>2016-09-14T10:53:50Z</time>
      </trkpt>
      <trkpt lat="45.93942" lon="4.78625">
        <ele>196</ele>
        <time>2016-09-14T10:53:51Z</time>
      </trkpt>
      <trkpt lat="45.93941" lon="4.78616">
        <ele>196</ele>
        <time>2016-09-14T10:53:52Z</time>
      </trkpt>
      <trkpt lat="45.93941" lon="4.78608">
        <ele>196</ele>
        <time>2016-09-14T10:53:53Z</time>
      </trkpt>
      <trkpt lat="45.93941" lon="4.78599">
        <ele>196</ele>
        <time>2016-09-14T10:53:54Z</time>
      </trkpt>
      <trkpt lat="45.9394" lon="4.78591">
        <ele>196</ele>
        <time>2016-09-14T10:53:55Z</time>
      </trkpt>
      <trkpt lat="45.93939" lon="4.78583">
        <ele>196</ele>
        <time>2016-09-14T10:53:56Z</time>
      </trkpt>
      <trkpt lat="45.93939" lon="4.78576">
        <ele>196</ele>
        <time>2016-09-14T10:53:57Z</time>
      </trkpt>
      <trkpt lat="45.93938" lon="4.7857">
        <ele>196</ele>
        <time>2016-09-14T10:53:58Z</time>
      </trkpt>
      <trkpt lat="45.93934" lon="4.78559">
        <ele>197</ele>
        <time>2016-09-14T10:54:15Z</time>
      </trkpt>
      <trkpt lat="45.93934" lon="4.78557">
        <ele>197</ele>
        <time>2016-09-14T10:54:16Z</time>
      </trkpt>
      <trkpt lat="45.93935" lon="4.78548">
        <ele>197</ele>
        <time>2016-09-14T10:54:19Z</time>
      </trkpt>
      <trkpt lat="45.93935" lon="4.78544">
        <ele>197</ele>
        <time>2016-09-14T10:54:20Z</time>
      </trkpt>
      <trkpt lat="45.93935" lon="4.78535">
        <ele>197</ele>
        <time>2016-09-14T10:54:22Z</time>
      </trkpt>
      <trkpt lat="45.93935" lon="4.7853">
        <ele>197</ele>
        <time>2016-09-14T10:54:23Z</time>
      </trkpt>
      <trkpt lat="45.93936" lon="4.78519">
        <ele>197</ele>
        <time>2016-09-14T10:54:25Z</time>
      </trkpt>
      <trkpt lat="45.93937" lon="4.78513">
        <ele>197</ele>
        <time>2016-09-14T10:54:26Z</time>
      </trkpt>
      <trkpt lat="45.93938" lon="4.78501">
        <ele>197</ele>
        <time>2016-09-14T10:54:28Z</time>
      </trkpt>
      <trkpt lat="45.9394" lon="4.78494">
        <ele>197</ele>
        <time>2016-09-14T10:54:29Z</time>
      </trkpt>
      <trkpt lat="45.93941" lon="4.78482">
        <ele>197</ele>
        <time>2016-09-14T10:54:31Z</time>
      </trkpt>
      <trkpt lat="45.93943" lon="4.78476">
        <ele>197</ele>
        <time>2016-09-14T10:54:32Z</time>
      </trkpt>
      <trkpt lat="45.93943" lon="4.78469">
        <ele>197</ele>
        <time>2016-09-14T10:54:33Z</time>
      </trkpt>
      <trkpt lat="45.93944" lon="4.78462">
        <ele>197</ele>
        <time>2016-09-14T10:54:34Z</time>
      </trkpt>
      <trkpt lat="45.93945" lon="4.78455">
        <ele>197</ele>
        <time>2016-09-14T10:54:35Z</time>
      </trkpt>
      <trkpt lat="45.93946" lon="4.78448">
        <ele>197</ele>
        <time>2016-09-14T10:54:36Z</time>
      </trkpt>
      <trkpt lat="45.93947" lon="4.7844">
        <ele>197</ele>
        <time>2016-09-14T10:54:37Z</time>
      </trkpt>
      <trkpt lat="45.93948" lon="4.78432">
        <ele>197</ele>
        <time>2016-09-14T10:54:38Z</time>
      </trkpt>
      <trkpt lat="45.9395" lon="4.78424">
        <ele>197</ele>
        <time>2016-09-14T10:54:39Z</time>
      </trkpt>
      <trkpt lat="45.93951" lon="4.78417">
        <ele>196</ele>
        <time>2016-09-14T10:54:40Z</time>
      </trkpt>
      <trkpt lat="45.93952" lon="4.7841">
        <ele>196</ele>
        <time>2016-09-14T10:54:41Z</time>
      </trkpt>
      <trkpt lat="45.93954" lon="4.78403">
        <ele>196</ele>
        <time>2016-09-14T10:54:42Z</time>
      </trkpt>
      <trkpt lat="45.93956" lon="4.78395">
        <ele>197</ele>
        <time>2016-09-14T10:54:43Z</time>
      </trkpt>
      <trkpt lat="45.93957" lon="4.78388">
        <ele>197</ele>
        <time>2016-09-14T10:54:44Z</time>
      </trkpt>
      <trkpt lat="45.93957" lon="4.78381">
        <ele>196</ele>
        <time>2016-09-14T10:54:45Z</time>
      </trkpt>
      <trkpt lat="45.93958" lon="4.78374">
        <ele>196</ele>
        <time>2016-09-14T10:54:46Z</time>
      </trkpt>
      <trkpt lat="45.93959" lon="4.78367">
        <ele>196</ele>
        <time>2016-09-14T10:54:47Z</time>
      </trkpt>
      <trkpt lat="45.9396" lon="4.78359">
        <ele>196</ele>
        <time>2016-09-14T10:54:48Z</time>
      </trkpt>
      <trkpt lat="45.93961" lon="4.78351">
        <ele>196</ele>
        <time>2016-09-14T10:54:49Z</time>
      </trkpt>
      <trkpt lat="45.93963" lon="4.78342">
        <ele>197</ele>
        <time>2016-09-14T10:54:50Z</time>
      </trkpt>
      <trkpt lat="45.93964" lon="4.78334">
        <ele>197</ele>
        <time>2016-09-14T10:54:51Z</time>
      </trkpt>
      <trkpt lat="45.93965" lon="4.78327">
        <ele>196</ele>
        <time>2016-09-14T10:54:52Z</time>
      </trkpt>
      <trkpt lat="45.93967" lon="4.78321">
        <ele>196</ele>
        <time>2016-09-14T10:54:53Z</time>
      </trkpt>
      <trkpt lat="45.93968" lon="4.78314">
        <ele>196</ele>
        <time>2016-09-14T10:54:54Z</time>
      </trkpt>
      <trkpt lat="45.93969" lon="4.78302">
        <ele>196</ele>
        <time>2016-09-14T10:54:56Z</time>
      </trkpt>
      <trkpt lat="45.9397" lon="4.78295">
        <ele>196</ele>
        <time>2016-09-14T10:54:57Z</time>
      </trkpt>
      <trkpt lat="45.93971" lon="4.78289">
        <ele>196</ele>
        <time>2016-09-14T10:54:58Z</time>
      </trkpt>
      <trkpt lat="45.93972" lon="4.78282">
        <ele>196</ele>
        <time>2016-09-14T10:54:59Z</time>
      </trkpt>
      <trkpt lat="45.93973" lon="4.78275">
        <ele>196</ele>
        <time>2016-09-14T10:55:00Z</time>
      </trkpt>
      <trkpt lat="45.93975" lon="4.78268">
        <ele>196</ele>
        <time>2016-09-14T10:55:01Z</time>
      </trkpt>
      <trkpt lat="45.93976" lon="4.78261">
        <ele>196</ele>
        <time>2016-09-14T10:55:02Z</time>
      </trkpt>
      <trkpt lat="45.93977" lon="4.78254">
        <ele>196</ele>
        <time>2016-09-14T10:55:03Z</time>
      </trkpt>
      <trkpt lat="45.93977" lon="4.78247">
        <ele>197</ele>
        <time>2016-09-14T10:55:04Z</time>
      </trkpt>
      <trkpt lat="45.93978" lon="4.78241">
        <ele>197</ele>
        <time>2016-09-14T10:55:05Z</time>
      </trkpt>
      <trkpt lat="45.93979" lon="4.78234">
        <ele>197</ele>
        <time>2016-09-14T10:55:06Z</time>
      </trkpt>
      <trkpt lat="45.93979" lon="4.78227">
        <ele>197</ele>
        <time>2016-09-14T10:55:07Z</time>
      </trkpt>
      <trkpt lat="45.93981" lon="4.7822">
        <ele>197</ele>
        <time>2016-09-14T10:55:08Z</time>
      </trkpt>
      <trkpt lat="45.93982" lon="4.78213">
        <ele>197</ele>
        <time>2016-09-14T10:55:09Z</time>
      </trkpt>
      <trkpt lat="45.93983" lon="4.78206">
        <ele>197</ele>
        <time>2016-09-14T10:55:10Z</time>
      </trkpt>
      <trkpt lat="45.93984" lon="4.782">
        <ele>197</ele>
        <time>2016-09-14T10:55:11Z</time>
      </trkpt>
      <trkpt lat="45.93986" lon="4.78193">
        <ele>197</ele>
        <time>2016-09-14T10:55:12Z</time>
      </trkpt>
      <trkpt lat="45.93987" lon="4.78187">
        <ele>198</ele>
        <time>2016-09-14T10:55:13Z</time>
      </trkpt>
      <trkpt lat="45.9399" lon="4.78178">
        <ele>199</ele>
        <time>2016-09-14T10:55:15Z</time>
      </trkpt>
      <trkpt lat="45.93991" lon="4.78175">
        <ele>199</ele>
        <time>2016-09-14T10:55:16Z</time>
      </trkpt>
      <trkpt lat="45.93995" lon="4.78165">
        <ele>200</ele>
        <time>2016-09-14T10:55:19Z</time>
      </trkpt>
      <trkpt lat="45.93995" lon="4.7816">
        <ele>199</ele>
        <time>2016-09-14T10:55:20Z</time>
      </trkpt>
      <trkpt lat="45.93993" lon="4.78148">
        <ele>198</ele>
        <time>2016-09-14T10:55:22Z</time>
      </trkpt>
      <trkpt lat="45.93993" lon="4.78142">
        <ele>198</ele>
        <time>2016-09-14T10:55:23Z</time>
      </trkpt>
      <trkpt lat="45.93995" lon="4.7813">
        <ele>197</ele>
        <time>2016-09-14T10:55:25Z</time>
      </trkpt>
      <trkpt lat="45.93996" lon="4.78123">
        <ele>197</ele>
        <time>2016-09-14T10:55:26Z</time>
      </trkpt>
      <trkpt lat="45.93998" lon="4.78111">
        <ele>197</ele>
        <time>2016-09-14T10:55:28Z</time>
      </trkpt>
      <trkpt lat="45.93999" lon="4.78104">
        <ele>197</ele>
        <time>2016-09-14T10:55:29Z</time>
      </trkpt>
      <trkpt lat="45.94001" lon="4.78098">
        <ele>201</ele>
        <time>2016-09-14T10:55:30Z</time>
      </trkpt>
      <trkpt lat="45.94002" lon="4.78092">
        <ele>201</ele>
        <time>2016-09-14T10:55:31Z</time>
      </trkpt>
      <trkpt lat="45.94003" lon="4.78085">
        <ele>200</ele>
        <time>2016-09-14T10:55:32Z</time>
      </trkpt>
      <trkpt lat="45.94005" lon="4.78078">
        <ele>200</ele>
        <time>2016-09-14T10:55:33Z</time>
      </trkpt>
      <trkpt lat="45.94006" lon="4.78072">
        <ele>201</ele>
        <time>2016-09-14T10:55:34Z</time>
      </trkpt>
      <trkpt lat="45.94007" lon="4.78065">
        <ele>201</ele>
        <time>2016-09-14T10:55:35Z</time>
      </trkpt>
      <trkpt lat="45.94009" lon="4.78058">
        <ele>201</ele>
        <time>2016-09-14T10:55:36Z</time>
      </trkpt>
      <trkpt lat="45.94011" lon="4.78052">
        <ele>201</ele>
        <time>2016-09-14T10:55:37Z</time>
      </trkpt>
      <trkpt lat="45.94013" lon="4.7804">
        <ele>201</ele>
        <time>2016-09-14T10:55:39Z</time>
      </trkpt>
      <trkpt lat="45.94014" lon="4.78034">
        <ele>201</ele>
        <time>2016-09-14T10:55:40Z</time>
      </trkpt>
      <trkpt lat="45.94015" lon="4.78027">
        <ele>201</ele>
        <time>2016-09-14T10:55:41Z</time>
      </trkpt>
      <trkpt lat="45.94016" lon="4.7802">
        <ele>201</ele>
        <time>2016-09-14T10:55:42Z</time>
      </trkpt>
      <trkpt lat="45.94017" lon="4.78013">
        <ele>200</ele>
        <time>2016-09-14T10:55:43Z</time>
      </trkpt>
      <trkpt lat="45.94018" lon="4.78006">
        <ele>200</ele>
        <time>2016-09-14T10:55:44Z</time>
      </trkpt>
      <trkpt lat="45.94019" lon="4.77999">
        <ele>199</ele>
        <time>2016-09-14T10:55:45Z</time>
      </trkpt>
      <trkpt lat="45.94021" lon="4.77992">
        <ele>200</ele>
        <time>2016-09-14T10:55:46Z</time>
      </trkpt>
      <trkpt lat="45.94022" lon="4.77984">
        <ele>200</ele>
        <time>2016-09-14T10:55:47Z</time>
      </trkpt>
      <trkpt lat="45.94023" lon="4.77977">
        <ele>200</ele>
        <time>2016-09-14T10:55:48Z</time>
      </trkpt>
      <trkpt lat="45.94024" lon="4.77969">
        <ele>200</ele>
        <time>2016-09-14T10:55:49Z</time>
      </trkpt>
      <trkpt lat="45.94026" lon="4.77963">
        <ele>200</ele>
        <time>2016-09-14T10:55:50Z</time>
      </trkpt>
      <trkpt lat="45.94028" lon="4.77952">
        <ele>200</ele>
        <time>2016-09-14T10:55:52Z</time>
      </trkpt>
      <trkpt lat="45.9403" lon="4.77946">
        <ele>200</ele>
        <time>2016-09-14T10:55:53Z</time>
      </trkpt>
      <trkpt lat="45.94031" lon="4.77935">
        <ele>200</ele>
        <time>2016-09-14T10:55:55Z</time>
      </trkpt>
      <trkpt lat="45.94029" lon="4.7793">
        <ele>200</ele>
        <time>2016-09-14T10:55:56Z</time>
      </trkpt>
      <trkpt lat="45.94024" lon="4.77927">
        <ele>199</ele>
        <time>2016-09-14T10:55:57Z</time>
      </trkpt>
      <trkpt lat="45.94018" lon="4.77926">
        <ele>198</ele>
        <time>2016-09-14T10:55:58Z</time>
      </trkpt>
      <trkpt lat="45.94013" lon="4.77927">
        <ele>198</ele>
        <time>2016-09-14T10:55:59Z</time>
      </trkpt>
      <trkpt lat="45.94007" lon="4.77928">
        <ele>197</ele>
        <time>2016-09-14T10:56:00Z</time>
      </trkpt>
      <trkpt lat="45.94001" lon="4.77929">
        <ele>197</ele>
        <time>2016-09-14T10:56:01Z</time>
      </trkpt>
      <trkpt lat="45.93994" lon="4.77931">
        <ele>192</ele>
        <time>2016-09-14T10:56:02Z</time>
      </trkpt>
      <trkpt lat="45.93987" lon="4.77934">
        <ele>192</ele>
        <time>2016-09-14T10:56:03Z</time>
      </trkpt>
      <trkpt lat="45.9398" lon="4.77938">
        <ele>191</ele>
        <time>2016-09-14T10:56:04Z</time>
      </trkpt>
      <trkpt lat="45.93973" lon="4.77943">
        <ele>191</ele>
        <time>2016-09-14T10:56:05Z</time>
      </trkpt>
      <trkpt lat="45.93965" lon="4.77949">
        <ele>190</ele>
        <time>2016-09-14T10:56:06Z</time>
      </trkpt>
      <trkpt lat="45.93957" lon="4.77954">
        <ele>190</ele>
        <time>2016-09-14T10:56:07Z</time>
      </trkpt>
      <trkpt lat="45.9395" lon="4.77959">
        <ele>189</ele>
        <time>2016-09-14T10:56:08Z</time>
      </trkpt>
      <trkpt lat="45.93942" lon="4.77965">
        <ele>189</ele>
        <time>2016-09-14T10:56:09Z</time>
      </trkpt>
      <trkpt lat="45.93935" lon="4.77971">
        <ele>189</ele>
        <time>2016-09-14T10:56:10Z</time>
      </trkpt>
      <trkpt lat="45.93927" lon="4.77977">
        <ele>188</ele>
        <time>2016-09-14T10:56:11Z</time>
      </trkpt>
      <trkpt lat="45.93919" lon="4.77982">
        <ele>188</ele>
        <time>2016-09-14T10:56:12Z</time>
      </trkpt>
      <trkpt lat="45.93912" lon="4.77987">
        <ele>183</ele>
        <time>2016-09-14T10:56:13Z</time>
      </trkpt>
      <trkpt lat="45.93906" lon="4.77993">
        <ele>183</ele>
        <time>2016-09-14T10:56:14Z</time>
      </trkpt>
      <trkpt lat="45.93901" lon="4.77997">
        <ele>183</ele>
        <time>2016-09-14T10:56:15Z</time>
      </trkpt>
      <trkpt lat="45.93896" lon="4.78003">
        <ele>185</ele>
        <time>2016-09-14T10:56:16Z</time>
      </trkpt>
      <trkpt lat="45.93893" lon="4.78008">
        <ele>184</ele>
        <time>2016-09-14T10:56:17Z</time>
      </trkpt>
      <trkpt lat="45.9389" lon="4.78013">
        <ele>184</ele>
        <time>2016-09-14T10:56:18Z</time>
      </trkpt>
      <trkpt lat="45.93884" lon="4.78019">
        <ele>184</ele>
        <time>2016-09-14T10:56:20Z</time>
      </trkpt>
      <trkpt lat="45.93883" lon="4.78021">
        <ele>184</ele>
        <time>2016-09-14T10:56:21Z</time>
      </trkpt>
      <trkpt lat="45.93884" lon="4.78019">
        <ele>184</ele>
        <time>2016-09-14T10:56:22Z</time>
      </trkpt>
      <trkpt lat="45.93884" lon="4.78019">
        <ele>184</ele>
        <time>2016-09-14T10:56:23Z</time>
      </trkpt>
      <trkpt lat="45.93884" lon="4.78019">
        <ele>184</ele>
        <time>2016-09-14T10:56:33Z</time>
      </trkpt>
      <trkpt lat="45.93883" lon="4.78019">
        <ele>184</ele>
        <time>2016-09-14T10:56:34Z</time>
      </trkpt>
      <trkpt lat="45.93883" lon="4.78018">
        <ele>184</ele>
        <time>2016-09-14T10:56:35Z</time>
      </trkpt>
      <trkpt lat="45.93882" lon="4.78018">
        <ele>184</ele>
        <time>2016-09-14T10:56:36Z</time>
      </trkpt>
      <trkpt lat="45.9388" lon="4.78016">
        <ele>184</ele>
        <time>2016-09-14T10:56:40Z</time>
      </trkpt>
      <trkpt lat="45.93878" lon="4.78013">
        <ele>184</ele>
        <time>2016-09-14T10:56:41Z</time>
      </trkpt>
      <trkpt lat="45.93872" lon="4.78004">
        <ele>183</ele>
        <time>2016-09-14T10:56:44Z</time>
      </trkpt>
      <trkpt lat="45.93868" lon="4.78">
        <ele>180</ele>
        <time>2016-09-14T10:56:45Z</time>
      </trkpt>
      <trkpt lat="45.93859" lon="4.77997">
        <ele>179</ele>
        <time>2016-09-14T10:56:47Z</time>
      </trkpt>
      <trkpt lat="45.93855" lon="4.77995">
        <ele>179</ele>
        <time>2016-09-14T10:56:48Z</time>
      </trkpt>
      <trkpt lat="45.93851" lon="4.77992">
        <ele>179</ele>
        <time>2016-09-14T10:56:49Z</time>
      </trkpt>
      <trkpt lat="45.93848" lon="4.77987">
        <ele>179</ele>
        <time>2016-09-14T10:56:50Z</time>
      </trkpt>
      <trkpt lat="45.93844" lon="4.77982">
        <ele>178</ele>
        <time>2016-09-14T10:56:51Z</time>
      </trkpt>
      <trkpt lat="45.93841" lon="4.77976">
        <ele>178</ele>
        <time>2016-09-14T10:56:52Z</time>
      </trkpt>
      <trkpt lat="45.93838" lon="4.77971">
        <ele>178</ele>
        <time>2016-09-14T10:56:53Z</time>
      </trkpt>
      <trkpt lat="45.93834" lon="4.77966">
        <ele>177</ele>
        <time>2016-09-14T10:56:54Z</time>
      </trkpt>
      <trkpt lat="45.9383" lon="4.77961">
        <ele>171</ele>
        <time>2016-09-14T10:56:55Z</time>
      </trkpt>
      <trkpt lat="45.93826" lon="4.77956">
        <ele>170</ele>
        <time>2016-09-14T10:56:56Z</time>
      </trkpt>
      <trkpt lat="45.93822" lon="4.77951">
        <ele>170</ele>
        <time>2016-09-14T10:56:57Z</time>
      </trkpt>
      <trkpt lat="45.93818" lon="4.77946">
        <ele>169</ele>
        <time>2016-09-14T10:56:58Z</time>
      </trkpt>
      <trkpt lat="45.93814" lon="4.77941">
        <ele>169</ele>
        <time>2016-09-14T10:56:59Z</time>
      </trkpt>
      <trkpt lat="45.93811" lon="4.77937">
        <ele>169</ele>
        <time>2016-09-14T10:57:00Z</time>
      </trkpt>
      <trkpt lat="45.93808" lon="4.77932">
        <ele>168</ele>
        <time>2016-09-14T10:57:01Z</time>
      </trkpt>
      <trkpt lat="45.93804" lon="4.77928">
        <ele>168</ele>
        <time>2016-09-14T10:57:02Z</time>
      </trkpt>
      <trkpt lat="45.93801" lon="4.77923">
        <ele>168</ele>
        <time>2016-09-14T10:57:03Z</time>
      </trkpt>
      <trkpt lat="45.93797" lon="4.77919">
        <ele>168</ele>
        <time>2016-09-14T10:57:04Z</time>
      </trkpt>
      <trkpt lat="45.93793" lon="4.77915">
        <ele>166</ele>
        <time>2016-09-14T10:57:05Z</time>
      </trkpt>
      <trkpt lat="45.93789" lon="4.7791">
        <ele>166</ele>
        <time>2016-09-14T10:57:06Z</time>
      </trkpt>
      <trkpt lat="45.93785" lon="4.77905">
        <ele>166</ele>
        <time>2016-09-14T10:57:07Z</time>
      </trkpt>
      <trkpt lat="45.93781" lon="4.77901">
        <ele>166</ele>
        <time>2016-09-14T10:57:08Z</time>
      </trkpt>
      <trkpt lat="45.93777" lon="4.77896">
        <ele>166</ele>
        <time>2016-09-14T10:57:09Z</time>
      </trkpt>
      <trkpt lat="45.93773" lon="4.7789">
        <ele>166</ele>
        <time>2016-09-14T10:57:10Z</time>
      </trkpt>
      <trkpt lat="45.93769" lon="4.77885">
        <ele>166</ele>
        <time>2016-09-14T10:57:11Z</time>
      </trkpt>
      <trkpt lat="45.93764" lon="4.7788">
        <ele>166</ele>
        <time>2016-09-14T10:57:12Z</time>
      </trkpt>
      <trkpt lat="45.9376" lon="4.77875">
        <ele>166</ele>
        <time>2016-09-14T10:57:13Z</time>
      </trkpt>
      <trkpt lat="45.93756" lon="4.7787">
        <ele>166</ele>
        <time>2016-09-14T10:57:14Z</time>
      </trkpt>
      <trkpt lat="45.93752" lon="4.77865">
        <ele>166</ele>
        <time>2016-09-14T10:57:15Z</time>
      </trkpt>
      <trkpt lat="45.93748" lon="4.7786">
        <ele>167</ele>
        <time>2016-09-14T10:57:16Z</time>
      </trkpt>
      <trkpt lat="45.93744" lon="4.77855">
        <ele>167</ele>
        <time>2016-09-14T10:57:17Z</time>
      </trkpt>
      <trkpt lat="45.9374" lon="4.7785">
        <ele>167</ele>
        <time>2016-09-14T10:57:18Z</time>
      </trkpt>
      <trkpt lat="45.93736" lon="4.77844">
        <ele>167</ele>
        <time>2016-09-14T10:57:19Z</time>
      </trkpt>
      <trkpt lat="45.93732" lon="4.77839">
        <ele>167</ele>
        <time>2016-09-14T10:57:20Z</time>
      </trkpt>
      <trkpt lat="45.93728" lon="4.77833">
        <ele>168</ele>
        <time>2016-09-14T10:57:21Z</time>
      </trkpt>
      <trkpt lat="45.93723" lon="4.77827">
        <ele>168</ele>
        <time>2016-09-14T10:57:22Z</time>
      </trkpt>
      <trkpt lat="45.93717" lon="4.77822">
        <ele>169</ele>
        <time>2016-09-14T10:57:23Z</time>
      </trkpt>
      <trkpt lat="45.93712" lon="4.77817">
        <ele>169</ele>
        <time>2016-09-14T10:57:24Z</time>
      </trkpt>
      <trkpt lat="45.93707" lon="4.7781">
        <ele>169</ele>
        <time>2016-09-14T10:57:25Z</time>
      </trkpt>
      <trkpt lat="45.93702" lon="4.77803">
        <ele>169</ele>
        <time>2016-09-14T10:57:26Z</time>
      </trkpt>
      <trkpt lat="45.93698" lon="4.77797">
        <ele>169</ele>
        <time>2016-09-14T10:57:27Z</time>
      </trkpt>
      <trkpt lat="45.93693" lon="4.77791">
        <ele>169</ele>
        <time>2016-09-14T10:57:28Z</time>
      </trkpt>
      <trkpt lat="45.93688" lon="4.77784">
        <ele>170</ele>
        <time>2016-09-14T10:57:29Z</time>
      </trkpt>
      <trkpt lat="45.93683" lon="4.77777">
        <ele>170</ele>
        <time>2016-09-14T10:57:30Z</time>
      </trkpt>
      <trkpt lat="45.93678" lon="4.7777">
        <ele>170</ele>
        <time>2016-09-14T10:57:31Z</time>
      </trkpt>
      <trkpt lat="45.93673" lon="4.77762">
        <ele>170</ele>
        <time>2016-09-14T10:57:32Z</time>
      </trkpt>
      <trkpt lat="45.93668" lon="4.77754">
        <ele>171</ele>
        <time>2016-09-14T10:57:33Z</time>
      </trkpt>
      <trkpt lat="45.93663" lon="4.77746">
        <ele>171</ele>
        <time>2016-09-14T10:57:34Z</time>
      </trkpt>
      <trkpt lat="45.93658" lon="4.77737">
        <ele>170</ele>
        <time>2016-09-14T10:57:35Z</time>
      </trkpt>
      <trkpt lat="45.93653" lon="4.77728">
        <ele>170</ele>
        <time>2016-09-14T10:57:36Z</time>
      </trkpt>
      <trkpt lat="45.93647" lon="4.77718">
        <ele>170</ele>
        <time>2016-09-14T10:57:37Z</time>
      </trkpt>
      <trkpt lat="45.93642" lon="4.77709">
        <ele>170</ele>
        <time>2016-09-14T10:57:38Z</time>
      </trkpt>
      <trkpt lat="45.93636" lon="4.77698">
        <ele>169</ele>
        <time>2016-09-14T10:57:39Z</time>
      </trkpt>
      <trkpt lat="45.93631" lon="4.77688">
        <ele>169</ele>
        <time>2016-09-14T10:57:40Z</time>
      </trkpt>
      <trkpt lat="45.93626" lon="4.77678">
        <ele>169</ele>
        <time>2016-09-14T10:57:41Z</time>
      </trkpt>
      <trkpt lat="45.93621" lon="4.77668">
        <ele>169</ele>
        <time>2016-09-14T10:57:42Z</time>
      </trkpt>
      <trkpt lat="45.93616" lon="4.77657">
        <ele>169</ele>
        <time>2016-09-14T10:57:43Z</time>
      </trkpt>
      <trkpt lat="45.93612" lon="4.77647">
        <ele>169</ele>
        <time>2016-09-14T10:57:44Z</time>
      </trkpt>
      <trkpt lat="45.93608" lon="4.77637">
        <ele>169</ele>
        <time>2016-09-14T10:57:45Z</time>
      </trkpt>
      <trkpt lat="45.93604" lon="4.77627">
        <ele>169</ele>
        <time>2016-09-14T10:57:46Z</time>
      </trkpt>
      <trkpt lat="45.936" lon="4.77617">
        <ele>170</ele>
        <time>2016-09-14T10:57:47Z</time>
      </trkpt>
      <trkpt lat="45.93597" lon="4.77607">
        <ele>170</ele>
        <time>2016-09-14T10:57:48Z</time>
      </trkpt>
      <trkpt lat="45.93594" lon="4.77597">
        <ele>170</ele>
        <time>2016-09-14T10:57:49Z</time>
      </trkpt>
      <trkpt lat="45.93591" lon="4.77588">
        <ele>170</ele>
        <time>2016-09-14T10:57:50Z</time>
      </trkpt>
      <trkpt lat="45.93589" lon="4.77578">
        <ele>170</ele>
        <time>2016-09-14T10:57:51Z</time>
      </trkpt>
      <trkpt lat="45.93586" lon="4.7757">
        <ele>170</ele>
        <time>2016-09-14T10:57:52Z</time>
      </trkpt>
      <trkpt lat="45.93583" lon="4.77561">
        <ele>169</ele>
        <time>2016-09-14T10:57:53Z</time>
      </trkpt>
      <trkpt lat="45.93581" lon="4.77552">
        <ele>169</ele>
        <time>2016-09-14T10:57:54Z</time>
      </trkpt>
      <trkpt lat="45.93579" lon="4.77543">
        <ele>169</ele>
        <time>2016-09-14T10:57:55Z</time>
      </trkpt>
      <trkpt lat="45.93577" lon="4.77535">
        <ele>169</ele>
        <time>2016-09-14T10:57:56Z</time>
      </trkpt>
      <trkpt lat="45.93575" lon="4.77527">
        <ele>169</ele>
        <time>2016-09-14T10:57:57Z</time>
      </trkpt>
      <trkpt lat="45.93573" lon="4.77518">
        <ele>169</ele>
        <time>2016-09-14T10:57:58Z</time>
      </trkpt>
      <trkpt lat="45.93571" lon="4.7751">
        <ele>169</ele>
        <time>2016-09-14T10:57:59Z</time>
      </trkpt>
      <trkpt lat="45.93569" lon="4.77502">
        <ele>169</ele>
        <time>2016-09-14T10:58:00Z</time>
      </trkpt>
      <trkpt lat="45.93567" lon="4.77493">
        <ele>169</ele>
        <time>2016-09-14T10:58:01Z</time>
      </trkpt>
      <trkpt lat="45.93565" lon="4.77485">
        <ele>169</ele>
        <time>2016-09-14T10:58:02Z</time>
      </trkpt>
      <trkpt lat="45.93562" lon="4.77476">
        <ele>169</ele>
        <time>2016-09-14T10:58:03Z</time>
      </trkpt>
      <trkpt lat="45.9356" lon="4.77468">
        <ele>169</ele>
        <time>2016-09-14T10:58:04Z</time>
      </trkpt>
      <trkpt lat="45.93558" lon="4.77459">
        <ele>169</ele>
        <time>2016-09-14T10:58:05Z</time>
      </trkpt>
      <trkpt lat="45.93556" lon="4.7745">
        <ele>169</ele>
        <time>2016-09-14T10:58:06Z</time>
      </trkpt>
      <trkpt lat="45.93554" lon="4.77441">
        <ele>169</ele>
        <time>2016-09-14T10:58:07Z</time>
      </trkpt>
      <trkpt lat="45.93552" lon="4.77432">
        <ele>169</ele>
        <time>2016-09-14T10:58:08Z</time>
      </trkpt>
      <trkpt lat="45.9355" lon="4.77423">
        <ele>170</ele>
        <time>2016-09-14T10:58:09Z</time>
      </trkpt>
      <trkpt lat="45.93549" lon="4.77414">
        <ele>170</ele>
        <time>2016-09-14T10:58:10Z</time>
      </trkpt>
      <trkpt lat="45.93547" lon="4.77406">
        <ele>170</ele>
        <time>2016-09-14T10:58:11Z</time>
      </trkpt>
      <trkpt lat="45.93545" lon="4.77398">
        <ele>170</ele>
        <time>2016-09-14T10:58:12Z</time>
      </trkpt>
      <trkpt lat="45.93544" lon="4.7739">
        <ele>170</ele>
        <time>2016-09-14T10:58:13Z</time>
      </trkpt>
      <trkpt lat="45.93542" lon="4.77383">
        <ele>170</ele>
        <time>2016-09-14T10:58:14Z</time>
      </trkpt>
      <trkpt lat="45.93541" lon="4.77375">
        <ele>170</ele>
        <time>2016-09-14T10:58:15Z</time>
      </trkpt>
      <trkpt lat="45.9354" lon="4.77367">
        <ele>170</ele>
        <time>2016-09-14T10:58:16Z</time>
      </trkpt>
      <trkpt lat="45.93538" lon="4.77359">
        <ele>170</ele>
        <time>2016-09-14T10:58:17Z</time>
      </trkpt>
      <trkpt lat="45.93536" lon="4.77351">
        <ele>170</ele>
        <time>2016-09-14T10:58:18Z</time>
      </trkpt>
      <trkpt lat="45.93535" lon="4.77342">
        <ele>170</ele>
        <time>2016-09-14T10:58:19Z</time>
      </trkpt>
      <trkpt lat="45.93532" lon="4.77334">
        <ele>170</ele>
        <time>2016-09-14T10:58:20Z</time>
      </trkpt>
      <trkpt lat="45.9353" lon="4.77325">
        <ele>170</ele>
        <time>2016-09-14T10:58:21Z</time>
      </trkpt>
      <trkpt lat="45.93528" lon="4.77317">
        <ele>170</ele>
        <time>2016-09-14T10:58:22Z</time>
      </trkpt>
      <trkpt lat="45.93527" lon="4.77309">
        <ele>170</ele>
        <time>2016-09-14T10:58:23Z</time>
      </trkpt>
      <trkpt lat="45.93525" lon="4.77301">
        <ele>170</ele>
        <time>2016-09-14T10:58:24Z</time>
      </trkpt>
      <trkpt lat="45.93524" lon="4.77294">
        <ele>170</ele>
        <time>2016-09-14T10:58:25Z</time>
      </trkpt>
      <trkpt lat="45.93523" lon="4.77286">
        <ele>170</ele>
        <time>2016-09-14T10:58:26Z</time>
      </trkpt>
      <trkpt lat="45.93522" lon="4.77279">
        <ele>170</ele>
        <time>2016-09-14T10:58:27Z</time>
      </trkpt>
      <trkpt lat="45.9352" lon="4.77272">
        <ele>170</ele>
        <time>2016-09-14T10:58:28Z</time>
      </trkpt>
      <trkpt lat="45.93518" lon="4.77265">
        <ele>170</ele>
        <time>2016-09-14T10:58:29Z</time>
      </trkpt>
      <trkpt lat="45.93517" lon="4.77258">
        <ele>170</ele>
        <time>2016-09-14T10:58:30Z</time>
      </trkpt>
      <trkpt lat="45.93515" lon="4.7725">
        <ele>170</ele>
        <time>2016-09-14T10:58:31Z</time>
      </trkpt>
      <trkpt lat="45.93513" lon="4.77243">
        <ele>169</ele>
        <time>2016-09-14T10:58:32Z</time>
      </trkpt>
      <trkpt lat="45.93512" lon="4.77235">
        <ele>169</ele>
        <time>2016-09-14T10:58:33Z</time>
      </trkpt>
      <trkpt lat="45.93511" lon="4.77227">
        <ele>169</ele>
        <time>2016-09-14T10:58:34Z</time>
      </trkpt>
      <trkpt lat="45.93509" lon="4.77219">
        <ele>169</ele>
        <time>2016-09-14T10:58:35Z</time>
      </trkpt>
      <trkpt lat="45.93507" lon="4.77211">
        <ele>169</ele>
        <time>2016-09-14T10:58:36Z</time>
      </trkpt>
      <trkpt lat="45.93505" lon="4.77203">
        <ele>169</ele>
        <time>2016-09-14T10:58:37Z</time>
      </trkpt>
      <trkpt lat="45.93503" lon="4.77196">
        <ele>169</ele>
        <time>2016-09-14T10:58:38Z</time>
      </trkpt>
      <trkpt lat="45.93501" lon="4.77189">
        <ele>169</ele>
        <time>2016-09-14T10:58:39Z</time>
      </trkpt>
      <trkpt lat="45.93499" lon="4.77181">
        <ele>169</ele>
        <time>2016-09-14T10:58:40Z</time>
      </trkpt>
      <trkpt lat="45.93498" lon="4.77174">
        <ele>169</ele>
        <time>2016-09-14T10:58:41Z</time>
      </trkpt>
      <trkpt lat="45.93496" lon="4.77168">
        <ele>169</ele>
        <time>2016-09-14T10:58:42Z</time>
      </trkpt>
      <trkpt lat="45.93495" lon="4.77161">
        <ele>169</ele>
        <time>2016-09-14T10:58:43Z</time>
      </trkpt>
      <trkpt lat="45.93493" lon="4.77153">
        <ele>169</ele>
        <time>2016-09-14T10:58:44Z</time>
      </trkpt>
      <trkpt lat="45.93491" lon="4.77146">
        <ele>169</ele>
        <time>2016-09-14T10:58:45Z</time>
      </trkpt>
      <trkpt lat="45.9349" lon="4.77139">
        <ele>169</ele>
        <time>2016-09-14T10:58:46Z</time>
      </trkpt>
      <trkpt lat="45.93488" lon="4.77132">
        <ele>169</ele>
        <time>2016-09-14T10:58:47Z</time>
      </trkpt>
      <trkpt lat="45.93487" lon="4.77124">
        <ele>169</ele>
        <time>2016-09-14T10:58:48Z</time>
      </trkpt>
      <trkpt lat="45.93485" lon="4.77117">
        <ele>169</ele>
        <time>2016-09-14T10:58:49Z</time>
      </trkpt>
      <trkpt lat="45.93484" lon="4.77109">
        <ele>169</ele>
        <time>2016-09-14T10:58:50Z</time>
      </trkpt>
      <trkpt lat="45.93482" lon="4.77101">
        <ele>169</ele>
        <time>2016-09-14T10:58:51Z</time>
      </trkpt>
      <trkpt lat="45.93481" lon="4.77094">
        <ele>169</ele>
        <time>2016-09-14T10:58:52Z</time>
      </trkpt>
      <trkpt lat="45.9348" lon="4.77086">
        <ele>169</ele>
        <time>2016-09-14T10:58:53Z</time>
      </trkpt>
      <trkpt lat="45.93479" lon="4.77079">
        <ele>170</ele>
        <time>2016-09-14T10:58:54Z</time>
      </trkpt>
      <trkpt lat="45.93478" lon="4.77071">
        <ele>170</ele>
        <time>2016-09-14T10:58:55Z</time>
      </trkpt>
      <trkpt lat="45.93477" lon="4.77064">
        <ele>170</ele>
        <time>2016-09-14T10:58:56Z</time>
      </trkpt>
      <trkpt lat="45.93475" lon="4.77057">
        <ele>170</ele>
        <time>2016-09-14T10:58:57Z</time>
      </trkpt>
      <trkpt lat="45.93474" lon="4.77049">
        <ele>170</ele>
        <time>2016-09-14T10:58:58Z</time>
      </trkpt>
      <trkpt lat="45.93472" lon="4.77041">
        <ele>170</ele>
        <time>2016-09-14T10:58:59Z</time>
      </trkpt>
      <trkpt lat="45.93471" lon="4.77034">
        <ele>170</ele>
        <time>2016-09-14T10:59:00Z</time>
      </trkpt>
      <trkpt lat="45.93469" lon="4.77026">
        <ele>170</ele>
        <time>2016-09-14T10:59:01Z</time>
      </trkpt>
      <trkpt lat="45.93468" lon="4.77018">
        <ele>170</ele>
        <time>2016-09-14T10:59:02Z</time>
      </trkpt>
      <trkpt lat="45.93467" lon="4.77011">
        <ele>170</ele>
        <time>2016-09-14T10:59:03Z</time>
      </trkpt>
      <trkpt lat="45.93465" lon="4.77004">
        <ele>170</ele>
        <time>2016-09-14T10:59:04Z</time>
      </trkpt>
      <trkpt lat="45.93464" lon="4.76997">
        <ele>170</ele>
        <time>2016-09-14T10:59:05Z</time>
      </trkpt>
      <trkpt lat="45.93463" lon="4.7699">
        <ele>170</ele>
        <time>2016-09-14T10:59:06Z</time>
      </trkpt>
      <trkpt lat="45.93462" lon="4.76982">
        <ele>170</ele>
        <time>2016-09-14T10:59:07Z</time>
      </trkpt>
      <trkpt lat="45.93461" lon="4.76975">
        <ele>170</ele>
        <time>2016-09-14T10:59:08Z</time>
      </trkpt>
      <trkpt lat="45.9346" lon="4.76967">
        <ele>170</ele>
        <time>2016-09-14T10:59:09Z</time>
      </trkpt>
      <trkpt lat="45.93458" lon="4.76959">
        <ele>170</ele>
        <time>2016-09-14T10:59:10Z</time>
      </trkpt>
      <trkpt lat="45.93457" lon="4.7695">
        <ele>170</ele>
        <time>2016-09-14T10:59:11Z</time>
      </trkpt>
      <trkpt lat="45.93455" lon="4.76943">
        <ele>170</ele>
        <time>2016-09-14T10:59:12Z</time>
      </trkpt>
      <trkpt lat="45.93454" lon="4.76935">
        <ele>170</ele>
        <time>2016-09-14T10:59:13Z</time>
      </trkpt>
      <trkpt lat="45.93452" lon="4.76927">
        <ele>170</ele>
        <time>2016-09-14T10:59:14Z</time>
      </trkpt>
      <trkpt lat="45.93451" lon="4.7692">
        <ele>170</ele>
        <time>2016-09-14T10:59:15Z</time>
      </trkpt>
      <trkpt lat="45.9345" lon="4.76913">
        <ele>170</ele>
        <time>2016-09-14T10:59:16Z</time>
      </trkpt>
      <trkpt lat="45.93448" lon="4.76906">
        <ele>170</ele>
        <time>2016-09-14T10:59:17Z</time>
      </trkpt>
      <trkpt lat="45.93446" lon="4.76899">
        <ele>170</ele>
        <time>2016-09-14T10:59:18Z</time>
      </trkpt>
      <trkpt lat="45.93444" lon="4.76892">
        <ele>170</ele>
        <time>2016-09-14T10:59:19Z</time>
      </trkpt>
      <trkpt lat="45.93442" lon="4.76885">
        <ele>170</ele>
        <time>2016-09-14T10:59:20Z</time>
      </trkpt>
      <trkpt lat="45.9344" lon="4.76879">
        <ele>170</ele>
        <time>2016-09-14T10:59:21Z</time>
      </trkpt>
      <trkpt lat="45.93438" lon="4.76872">
        <ele>171</ele>
        <time>2016-09-14T10:59:22Z</time>
      </trkpt>
      <trkpt lat="45.93436" lon="4.76866">
        <ele>171</ele>
        <time>2016-09-14T10:59:23Z</time>
      </trkpt>
      <trkpt lat="45.93433" lon="4.7686">
        <ele>171</ele>
        <time>2016-09-14T10:59:24Z</time>
      </trkpt>
      <trkpt lat="45.9343" lon="4.76854">
        <ele>171</ele>
        <time>2016-09-14T10:59:25Z</time>
      </trkpt>
      <trkpt lat="45.93427" lon="4.76848">
        <ele>171</ele>
        <time>2016-09-14T10:59:26Z</time>
      </trkpt>
      <trkpt lat="45.93424" lon="4.76842">
        <ele>171</ele>
        <time>2016-09-14T10:59:27Z</time>
      </trkpt>
      <trkpt lat="45.9342" lon="4.76835">
        <ele>172</ele>
        <time>2016-09-14T10:59:28Z</time>
      </trkpt>
      <trkpt lat="45.93417" lon="4.76829">
        <ele>172</ele>
        <time>2016-09-14T10:59:29Z</time>
      </trkpt>
      <trkpt lat="45.93413" lon="4.76822">
        <ele>172</ele>
        <time>2016-09-14T10:59:30Z</time>
      </trkpt>
      <trkpt lat="45.9341" lon="4.76816">
        <ele>172</ele>
        <time>2016-09-14T10:59:31Z</time>
      </trkpt>
      <trkpt lat="45.93406" lon="4.7681">
        <ele>172</ele>
        <time>2016-09-14T10:59:32Z</time>
      </trkpt>
      <trkpt lat="45.93402" lon="4.76805">
        <ele>172</ele>
        <time>2016-09-14T10:59:33Z</time>
      </trkpt>
      <trkpt lat="45.93398" lon="4.768">
        <ele>172</ele>
        <time>2016-09-14T10:59:34Z</time>
      </trkpt>
      <trkpt lat="45.93394" lon="4.76794">
        <ele>172</ele>
        <time>2016-09-14T10:59:35Z</time>
      </trkpt>
      <trkpt lat="45.9339" lon="4.7679">
        <ele>172</ele>
        <time>2016-09-14T10:59:36Z</time>
      </trkpt>
      <trkpt lat="45.93386" lon="4.76786">
        <ele>172</ele>
        <time>2016-09-14T10:59:37Z</time>
      </trkpt>
      <trkpt lat="45.93382" lon="4.76781">
        <ele>172</ele>
        <time>2016-09-14T10:59:38Z</time>
      </trkpt>
      <trkpt lat="45.93378" lon="4.76777">
        <ele>172</ele>
        <time>2016-09-14T10:59:39Z</time>
      </trkpt>
      <trkpt lat="45.93372" lon="4.76772">
        <ele>172</ele>
        <time>2016-09-14T10:59:40Z</time>
      </trkpt>
      <trkpt lat="45.93367" lon="4.76768">
        <ele>172</ele>
        <time>2016-09-14T10:59:41Z</time>
      </trkpt>
      <trkpt lat="45.93362" lon="4.76763">
        <ele>172</ele>
        <time>2016-09-14T10:59:42Z</time>
      </trkpt>
      <trkpt lat="45.93358" lon="4.76759">
        <ele>172</ele>
        <time>2016-09-14T10:59:43Z</time>
      </trkpt>
      <trkpt lat="45.93354" lon="4.76754">
        <ele>172</ele>
        <time>2016-09-14T10:59:44Z</time>
      </trkpt>
      <trkpt lat="45.93349" lon="4.7675">
        <ele>172</ele>
        <time>2016-09-14T10:59:45Z</time>
      </trkpt>
      <trkpt lat="45.93345" lon="4.76746">
        <ele>172</ele>
        <time>2016-09-14T10:59:46Z</time>
      </trkpt>
      <trkpt lat="45.93341" lon="4.76742">
        <ele>172</ele>
        <time>2016-09-14T10:59:47Z</time>
      </trkpt>
      <trkpt lat="45.93337" lon="4.76738">
        <ele>172</ele>
        <time>2016-09-14T10:59:48Z</time>
      </trkpt>
      <trkpt lat="45.93333" lon="4.76734">
        <ele>172</ele>
        <time>2016-09-14T10:59:49Z</time>
      </trkpt>
      <trkpt lat="45.93329" lon="4.7673">
        <ele>172</ele>
        <time>2016-09-14T10:59:50Z</time>
      </trkpt>
      <trkpt lat="45.93325" lon="4.76726">
        <ele>172</ele>
        <time>2016-09-14T10:59:51Z</time>
      </trkpt>
      <trkpt lat="45.93322" lon="4.76723">
        <ele>172</ele>
        <time>2016-09-14T10:59:52Z</time>
      </trkpt>
      <trkpt lat="45.93314" lon="4.76715">
        <ele>172</ele>
        <time>2016-09-14T10:59:54Z</time>
      </trkpt>
      <trkpt lat="45.93311" lon="4.76712">
        <ele>172</ele>
        <time>2016-09-14T10:59:55Z</time>
      </trkpt>
      <trkpt lat="45.93304" lon="4.76705">
        <ele>172</ele>
        <time>2016-09-14T10:59:57Z</time>
      </trkpt>
      <trkpt lat="45.93301" lon="4.76701">
        <ele>172</ele>
        <time>2016-09-14T10:59:58Z</time>
      </trkpt>
      <trkpt lat="45.93294" lon="4.76694">
        <ele>172</ele>
        <time>2016-09-14T11:00:00Z</time>
      </trkpt>
      <trkpt lat="45.93291" lon="4.7669">
        <ele>172</ele>
        <time>2016-09-14T11:00:01Z</time>
      </trkpt>
      <trkpt lat="45.93283" lon="4.76683">
        <ele>172</ele>
        <time>2016-09-14T11:00:03Z</time>
      </trkpt>
      <trkpt lat="45.9328" lon="4.7668">
        <ele>172</ele>
        <time>2016-09-14T11:00:04Z</time>
      </trkpt>
      <trkpt lat="45.93276" lon="4.76676">
        <ele>172</ele>
        <time>2016-09-14T11:00:05Z</time>
      </trkpt>
      <trkpt lat="45.93272" lon="4.76672">
        <ele>172</ele>
        <time>2016-09-14T11:00:06Z</time>
      </trkpt>
      <trkpt lat="45.93268" lon="4.76668">
        <ele>172</ele>
        <time>2016-09-14T11:00:07Z</time>
      </trkpt>
      <trkpt lat="45.93264" lon="4.76664">
        <ele>171</ele>
        <time>2016-09-14T11:00:08Z</time>
      </trkpt>
      <trkpt lat="45.9326" lon="4.76661">
        <ele>171</ele>
        <time>2016-09-14T11:00:09Z</time>
      </trkpt>
      <trkpt lat="45.93256" lon="4.76657">
        <ele>171</ele>
        <time>2016-09-14T11:00:10Z</time>
      </trkpt>
      <trkpt lat="45.93252" lon="4.76654">
        <ele>171</ele>
        <time>2016-09-14T11:00:11Z</time>
      </trkpt>
      <trkpt lat="45.93248" lon="4.76651">
        <ele>171</ele>
        <time>2016-09-14T11:00:12Z</time>
      </trkpt>
      <trkpt lat="45.93243" lon="4.76647">
        <ele>171</ele>
        <time>2016-09-14T11:00:13Z</time>
      </trkpt>
      <trkpt lat="45.93239" lon="4.76644">
        <ele>171</ele>
        <time>2016-09-14T11:00:14Z</time>
      </trkpt>
      <trkpt lat="45.93234" lon="4.76639">
        <ele>171</ele>
        <time>2016-09-14T11:00:15Z</time>
      </trkpt>
      <trkpt lat="45.9323" lon="4.76635">
        <ele>171</ele>
        <time>2016-09-14T11:00:16Z</time>
      </trkpt>
      <trkpt lat="45.93226" lon="4.76631">
        <ele>170</ele>
        <time>2016-09-14T11:00:17Z</time>
      </trkpt>
      <trkpt lat="45.93223" lon="4.76626">
        <ele>170</ele>
        <time>2016-09-14T11:00:18Z</time>
      </trkpt>
      <trkpt lat="45.93219" lon="4.76622">
        <ele>170</ele>
        <time>2016-09-14T11:00:19Z</time>
      </trkpt>
      <trkpt lat="45.93215" lon="4.76618">
        <ele>170</ele>
        <time>2016-09-14T11:00:20Z</time>
      </trkpt>
      <trkpt lat="45.93211" lon="4.76615">
        <ele>170</ele>
        <time>2016-09-14T11:00:21Z</time>
      </trkpt>
      <trkpt lat="45.93207" lon="4.76611">
        <ele>170</ele>
        <time>2016-09-14T11:00:22Z</time>
      </trkpt>
      <trkpt lat="45.93204" lon="4.76607">
        <ele>170</ele>
        <time>2016-09-14T11:00:23Z</time>
      </trkpt>
      <trkpt lat="45.932" lon="4.76603">
        <ele>170</ele>
        <time>2016-09-14T11:00:24Z</time>
      </trkpt>
      <trkpt lat="45.93196" lon="4.76599">
        <ele>170</ele>
        <time>2016-09-14T11:00:25Z</time>
      </trkpt>
      <trkpt lat="45.93192" lon="4.76595">
        <ele>170</ele>
        <time>2016-09-14T11:00:26Z</time>
      </trkpt>
      <trkpt lat="45.93188" lon="4.7659">
        <ele>171</ele>
        <time>2016-09-14T11:00:27Z</time>
      </trkpt>
      <trkpt lat="45.93184" lon="4.76586">
        <ele>171</ele>
        <time>2016-09-14T11:00:28Z</time>
      </trkpt>
      <trkpt lat="45.93179" lon="4.76581">
        <ele>170</ele>
        <time>2016-09-14T11:00:29Z</time>
      </trkpt>
      <trkpt lat="45.93174" lon="4.76577">
        <ele>170</ele>
        <time>2016-09-14T11:00:30Z</time>
      </trkpt>
      <trkpt lat="45.9317" lon="4.76572">
        <ele>170</ele>
        <time>2016-09-14T11:00:31Z</time>
      </trkpt>
      <trkpt lat="45.93166" lon="4.76568">
        <ele>170</ele>
        <time>2016-09-14T11:00:32Z</time>
      </trkpt>
      <trkpt lat="45.93162" lon="4.76564">
        <ele>170</ele>
        <time>2016-09-14T11:00:33Z</time>
      </trkpt>
      <trkpt lat="45.93158" lon="4.76561">
        <ele>170</ele>
        <time>2016-09-14T11:00:34Z</time>
      </trkpt>
      <trkpt lat="45.93154" lon="4.76557">
        <ele>170</ele>
        <time>2016-09-14T11:00:35Z</time>
      </trkpt>
      <trkpt lat="45.93151" lon="4.76553">
        <ele>170</ele>
        <time>2016-09-14T11:00:36Z</time>
      </trkpt>
      <trkpt lat="45.93144" lon="4.76545">
        <ele>170</ele>
        <time>2016-09-14T11:00:38Z</time>
      </trkpt>
      <trkpt lat="45.93141" lon="4.76542">
        <ele>170</ele>
        <time>2016-09-14T11:00:39Z</time>
      </trkpt>
      <trkpt lat="45.93138" lon="4.76537">
        <ele>170</ele>
        <time>2016-09-14T11:00:40Z</time>
      </trkpt>
      <trkpt lat="45.93133" lon="4.76532">
        <ele>170</ele>
        <time>2016-09-14T11:00:41Z</time>
      </trkpt>
      <trkpt lat="45.93129" lon="4.76527">
        <ele>170</ele>
        <time>2016-09-14T11:00:42Z</time>
      </trkpt>
      <trkpt lat="45.93125" lon="4.76522">
        <ele>170</ele>
        <time>2016-09-14T11:00:43Z</time>
      </trkpt>
      <trkpt lat="45.9312" lon="4.76517">
        <ele>170</ele>
        <time>2016-09-14T11:00:44Z</time>
      </trkpt>
      <trkpt lat="45.93115" lon="4.76512">
        <ele>170</ele>
        <time>2016-09-14T11:00:45Z</time>
      </trkpt>
      <trkpt lat="45.9311" lon="4.76508">
        <ele>170</ele>
        <time>2016-09-14T11:00:46Z</time>
      </trkpt>
      <trkpt lat="45.93105" lon="4.76503">
        <ele>170</ele>
        <time>2016-09-14T11:00:47Z</time>
      </trkpt>
      <trkpt lat="45.93101" lon="4.76498">
        <ele>170</ele>
        <time>2016-09-14T11:00:48Z</time>
      </trkpt>
      <trkpt lat="45.93096" lon="4.76494">
        <ele>170</ele>
        <time>2016-09-14T11:00:49Z</time>
      </trkpt>
      <trkpt lat="45.93092" lon="4.7649">
        <ele>170</ele>
        <time>2016-09-14T11:00:50Z</time>
      </trkpt>
      <trkpt lat="45.93087" lon="4.76485">
        <ele>170</ele>
        <time>2016-09-14T11:00:51Z</time>
      </trkpt>
      <trkpt lat="45.93081" lon="4.76479">
        <ele>169</ele>
        <time>2016-09-14T11:00:52Z</time>
      </trkpt>
      <trkpt lat="45.93076" lon="4.76474">
        <ele>169</ele>
        <time>2016-09-14T11:00:53Z</time>
      </trkpt>
      <trkpt lat="45.93071" lon="4.76469">
        <ele>169</ele>
        <time>2016-09-14T11:00:54Z</time>
      </trkpt>
      <trkpt lat="45.93067" lon="4.76465">
        <ele>169</ele>
        <time>2016-09-14T11:00:55Z</time>
      </trkpt>
      <trkpt lat="45.93062" lon="4.7646">
        <ele>169</ele>
        <time>2016-09-14T11:00:56Z</time>
      </trkpt>
      <trkpt lat="45.93057" lon="4.76455">
        <ele>169</ele>
        <time>2016-09-14T11:00:57Z</time>
      </trkpt>
      <trkpt lat="45.93053" lon="4.7645">
        <ele>169</ele>
        <time>2016-09-14T11:00:58Z</time>
      </trkpt>
      <trkpt lat="45.93048" lon="4.76446">
        <ele>169</ele>
        <time>2016-09-14T11:00:59Z</time>
      </trkpt>
      <trkpt lat="45.93043" lon="4.76441">
        <ele>169</ele>
        <time>2016-09-14T11:01:00Z</time>
      </trkpt>
      <trkpt lat="45.93038" lon="4.76437">
        <ele>169</ele>
        <time>2016-09-14T11:01:01Z</time>
      </trkpt>
      <trkpt lat="45.93034" lon="4.76433">
        <ele>169</ele>
        <time>2016-09-14T11:01:02Z</time>
      </trkpt>
      <trkpt lat="45.9303" lon="4.76428">
        <ele>169</ele>
        <time>2016-09-14T11:01:03Z</time>
      </trkpt>
      <trkpt lat="45.93026" lon="4.76424">
        <ele>169</ele>
        <time>2016-09-14T11:01:04Z</time>
      </trkpt>
      <trkpt lat="45.93023" lon="4.7642">
        <ele>169</ele>
        <time>2016-09-14T11:01:05Z</time>
      </trkpt>
      <trkpt lat="45.93019" lon="4.76416">
        <ele>169</ele>
        <time>2016-09-14T11:01:06Z</time>
      </trkpt>
      <trkpt lat="45.93015" lon="4.76412">
        <ele>169</ele>
        <time>2016-09-14T11:01:07Z</time>
      </trkpt>
      <trkpt lat="45.93011" lon="4.76408">
        <ele>169</ele>
        <time>2016-09-14T11:01:08Z</time>
      </trkpt>
      <trkpt lat="45.93006" lon="4.76403">
        <ele>169</ele>
        <time>2016-09-14T11:01:09Z</time>
      </trkpt>
      <trkpt lat="45.93002" lon="4.76398">
        <ele>169</ele>
        <time>2016-09-14T11:01:10Z</time>
      </trkpt>
      <trkpt lat="45.92997" lon="4.76393">
        <ele>169</ele>
        <time>2016-09-14T11:01:11Z</time>
      </trkpt>
      <trkpt lat="45.92992" lon="4.76388">
        <ele>169</ele>
        <time>2016-09-14T11:01:12Z</time>
      </trkpt>
      <trkpt lat="45.92987" lon="4.76383">
        <ele>169</ele>
        <time>2016-09-14T11:01:13Z</time>
      </trkpt>
      <trkpt lat="45.92982" lon="4.76379">
        <ele>169</ele>
        <time>2016-09-14T11:01:14Z</time>
      </trkpt>
      <trkpt lat="45.92977" lon="4.76374">
        <ele>169</ele>
        <time>2016-09-14T11:01:15Z</time>
      </trkpt>
      <trkpt lat="45.92972" lon="4.7637">
        <ele>169</ele>
        <time>2016-09-14T11:01:16Z</time>
      </trkpt>
      <trkpt lat="45.92968" lon="4.76366">
        <ele>169</ele>
        <time>2016-09-14T11:01:17Z</time>
      </trkpt>
      <trkpt lat="45.92963" lon="4.76362">
        <ele>169</ele>
        <time>2016-09-14T11:01:18Z</time>
      </trkpt>
      <trkpt lat="45.92958" lon="4.76357">
        <ele>169</ele>
        <time>2016-09-14T11:01:19Z</time>
      </trkpt>
      <trkpt lat="45.92954" lon="4.76353">
        <ele>169</ele>
        <time>2016-09-14T11:01:20Z</time>
      </trkpt>
      <trkpt lat="45.92949" lon="4.76349">
        <ele>169</ele>
        <time>2016-09-14T11:01:21Z</time>
      </trkpt>
      <trkpt lat="45.92945" lon="4.76344">
        <ele>169</ele>
        <time>2016-09-14T11:01:22Z</time>
      </trkpt>
      <trkpt lat="45.9294" lon="4.7634">
        <ele>169</ele>
        <time>2016-09-14T11:01:23Z</time>
      </trkpt>
      <trkpt lat="45.92936" lon="4.76336">
        <ele>169</ele>
        <time>2016-09-14T11:01:24Z</time>
      </trkpt>
      <trkpt lat="45.92931" lon="4.76332">
        <ele>169</ele>
        <time>2016-09-14T11:01:25Z</time>
      </trkpt>
      <trkpt lat="45.92926" lon="4.76328">
        <ele>169</ele>
        <time>2016-09-14T11:01:26Z</time>
      </trkpt>
      <trkpt lat="45.92921" lon="4.76324">
        <ele>169</ele>
        <time>2016-09-14T11:01:27Z</time>
      </trkpt>
      <trkpt lat="45.92916" lon="4.76319">
        <ele>169</ele>
        <time>2016-09-14T11:01:28Z</time>
      </trkpt>
      <trkpt lat="45.92911" lon="4.76314">
        <ele>169</ele>
        <time>2016-09-14T11:01:29Z</time>
      </trkpt>
      <trkpt lat="45.92906" lon="4.76309">
        <ele>169</ele>
        <time>2016-09-14T11:01:30Z</time>
      </trkpt>
      <trkpt lat="45.92902" lon="4.76303">
        <ele>169</ele>
        <time>2016-09-14T11:01:31Z</time>
      </trkpt>
      <trkpt lat="45.92897" lon="4.76298">
        <ele>169</ele>
        <time>2016-09-14T11:01:32Z</time>
      </trkpt>
      <trkpt lat="45.92892" lon="4.76293">
        <ele>169</ele>
        <time>2016-09-14T11:01:33Z</time>
      </trkpt>
      <trkpt lat="45.92887" lon="4.76288">
        <ele>169</ele>
        <time>2016-09-14T11:01:34Z</time>
      </trkpt>
      <trkpt lat="45.92882" lon="4.76283">
        <ele>169</ele>
        <time>2016-09-14T11:01:35Z</time>
      </trkpt>
      <trkpt lat="45.92877" lon="4.76278">
        <ele>169</ele>
        <time>2016-09-14T11:01:36Z</time>
      </trkpt>
      <trkpt lat="45.92872" lon="4.76274">
        <ele>169</ele>
        <time>2016-09-14T11:01:37Z</time>
      </trkpt>
      <trkpt lat="45.92868" lon="4.76269">
        <ele>169</ele>
        <time>2016-09-14T11:01:38Z</time>
      </trkpt>
      <trkpt lat="45.92864" lon="4.76265">
        <ele>169</ele>
        <time>2016-09-14T11:01:39Z</time>
      </trkpt>
      <trkpt lat="45.9286" lon="4.76261">
        <ele>169</ele>
        <time>2016-09-14T11:01:40Z</time>
      </trkpt>
      <trkpt lat="45.92856" lon="4.76257">
        <ele>169</ele>
        <time>2016-09-14T11:01:41Z</time>
      </trkpt>
      <trkpt lat="45.92852" lon="4.76253">
        <ele>169</ele>
        <time>2016-09-14T11:01:42Z</time>
      </trkpt>
      <trkpt lat="45.92847" lon="4.76249">
        <ele>169</ele>
        <time>2016-09-14T11:01:43Z</time>
      </trkpt>
      <trkpt lat="45.92843" lon="4.76244">
        <ele>169</ele>
        <time>2016-09-14T11:01:44Z</time>
      </trkpt>
      <trkpt lat="45.92838" lon="4.76239">
        <ele>169</ele>
        <time>2016-09-14T11:01:45Z</time>
      </trkpt>
      <trkpt lat="45.92834" lon="4.76235">
        <ele>169</ele>
        <time>2016-09-14T11:01:46Z</time>
      </trkpt>
      <trkpt lat="45.92829" lon="4.7623">
        <ele>168</ele>
        <time>2016-09-14T11:01:47Z</time>
      </trkpt>
      <trkpt lat="45.92824" lon="4.76225">
        <ele>168</ele>
        <time>2016-09-14T11:01:48Z</time>
      </trkpt>
      <trkpt lat="45.9282" lon="4.76222">
        <ele>168</ele>
        <time>2016-09-14T11:01:49Z</time>
      </trkpt>
      <trkpt lat="45.92816" lon="4.76218">
        <ele>168</ele>
        <time>2016-09-14T11:01:50Z</time>
      </trkpt>
      <trkpt lat="45.92811" lon="4.76214">
        <ele>168</ele>
        <time>2016-09-14T11:01:51Z</time>
      </trkpt>
      <trkpt lat="45.92806" lon="4.7621">
        <ele>168</ele>
        <time>2016-09-14T11:01:52Z</time>
      </trkpt>
      <trkpt lat="45.92802" lon="4.76205">
        <ele>168</ele>
        <time>2016-09-14T11:01:53Z</time>
      </trkpt>
      <trkpt lat="45.92797" lon="4.76201">
        <ele>168</ele>
        <time>2016-09-14T11:01:54Z</time>
      </trkpt>
      <trkpt lat="45.92792" lon="4.76196">
        <ele>168</ele>
        <time>2016-09-14T11:01:55Z</time>
      </trkpt>
      <trkpt lat="45.92788" lon="4.76192">
        <ele>168</ele>
        <time>2016-09-14T11:01:56Z</time>
      </trkpt>
      <trkpt lat="45.92783" lon="4.76187">
        <ele>168</ele>
        <time>2016-09-14T11:01:57Z</time>
      </trkpt>
      <trkpt lat="45.92779" lon="4.76182">
        <ele>167</ele>
        <time>2016-09-14T11:01:58Z</time>
      </trkpt>
      <trkpt lat="45.92774" lon="4.76178">
        <ele>167</ele>
        <time>2016-09-14T11:01:59Z</time>
      </trkpt>
      <trkpt lat="45.9277" lon="4.76174">
        <ele>167</ele>
        <time>2016-09-14T11:02:00Z</time>
      </trkpt>
      <trkpt lat="45.92765" lon="4.7617">
        <ele>167</ele>
        <time>2016-09-14T11:02:01Z</time>
      </trkpt>
      <trkpt lat="45.92759" lon="4.76167">
        <ele>167</ele>
        <time>2016-09-14T11:02:02Z</time>
      </trkpt>
      <trkpt lat="45.92754" lon="4.76163">
        <ele>167</ele>
        <time>2016-09-14T11:02:03Z</time>
      </trkpt>
      <trkpt lat="45.92749" lon="4.76157">
        <ele>167</ele>
        <time>2016-09-14T11:02:04Z</time>
      </trkpt>
      <trkpt lat="45.92743" lon="4.76152">
        <ele>168</ele>
        <time>2016-09-14T11:02:05Z</time>
      </trkpt>
      <trkpt lat="45.92738" lon="4.76147">
        <ele>168</ele>
        <time>2016-09-14T11:02:06Z</time>
      </trkpt>
      <trkpt lat="45.92732" lon="4.76143">
        <ele>168</ele>
        <time>2016-09-14T11:02:07Z</time>
      </trkpt>
      <trkpt lat="45.92727" lon="4.76139">
        <ele>168</ele>
        <time>2016-09-14T11:02:08Z</time>
      </trkpt>
      <trkpt lat="45.92722" lon="4.76135">
        <ele>168</ele>
        <time>2016-09-14T11:02:09Z</time>
      </trkpt>
      <trkpt lat="45.92717" lon="4.76131">
        <ele>168</ele>
        <time>2016-09-14T11:02:10Z</time>
      </trkpt>
      <trkpt lat="45.92712" lon="4.76127">
        <ele>168</ele>
        <time>2016-09-14T11:02:11Z</time>
      </trkpt>
      <trkpt lat="45.92707" lon="4.76123">
        <ele>169</ele>
        <time>2016-09-14T11:02:12Z</time>
      </trkpt>
      <trkpt lat="45.92702" lon="4.7612">
        <ele>169</ele>
        <time>2016-09-14T11:02:13Z</time>
      </trkpt>
      <trkpt lat="45.92697" lon="4.76117">
        <ele>169</ele>
        <time>2016-09-14T11:02:14Z</time>
      </trkpt>
      <trkpt lat="45.92692" lon="4.76113">
        <ele>169</ele>
        <time>2016-09-14T11:02:15Z</time>
      </trkpt>
      <trkpt lat="45.92688" lon="4.7611">
        <ele>169</ele>
        <time>2016-09-14T11:02:16Z</time>
      </trkpt>
      <trkpt lat="45.92683" lon="4.76106">
        <ele>169</ele>
        <time>2016-09-14T11:02:17Z</time>
      </trkpt>
      <trkpt lat="45.92679" lon="4.76103">
        <ele>169</ele>
        <time>2016-09-14T11:02:18Z</time>
      </trkpt>
      <trkpt lat="45.92674" lon="4.76099">
        <ele>169</ele>
        <time>2016-09-14T11:02:19Z</time>
      </trkpt>
      <trkpt lat="45.92669" lon="4.76096">
        <ele>169</ele>
        <time>2016-09-14T11:02:20Z</time>
      </trkpt>
      <trkpt lat="45.92664" lon="4.76093">
        <ele>170</ele>
        <time>2016-09-14T11:02:21Z</time>
      </trkpt>
      <trkpt lat="45.9266" lon="4.7609">
        <ele>170</ele>
        <time>2016-09-14T11:02:22Z</time>
      </trkpt>
      <trkpt lat="45.92655" lon="4.76086">
        <ele>170</ele>
        <time>2016-09-14T11:02:23Z</time>
      </trkpt>
      <trkpt lat="45.92651" lon="4.76082">
        <ele>170</ele>
        <time>2016-09-14T11:02:24Z</time>
      </trkpt>
      <trkpt lat="45.92646" lon="4.76079">
        <ele>170</ele>
        <time>2016-09-14T11:02:25Z</time>
      </trkpt>
      <trkpt lat="45.92642" lon="4.76075">
        <ele>170</ele>
        <time>2016-09-14T11:02:26Z</time>
      </trkpt>
      <trkpt lat="45.92638" lon="4.76072">
        <ele>170</ele>
        <time>2016-09-14T11:02:27Z</time>
      </trkpt>
      <trkpt lat="45.92633" lon="4.76069">
        <ele>170</ele>
        <time>2016-09-14T11:02:28Z</time>
      </trkpt>
      <trkpt lat="45.92629" lon="4.76066">
        <ele>170</ele>
        <time>2016-09-14T11:02:29Z</time>
      </trkpt>
      <trkpt lat="45.92625" lon="4.76062">
        <ele>171</ele>
        <time>2016-09-14T11:02:30Z</time>
      </trkpt>
      <trkpt lat="45.9262" lon="4.76059">
        <ele>171</ele>
        <time>2016-09-14T11:02:31Z</time>
      </trkpt>
      <trkpt lat="45.92616" lon="4.76056">
        <ele>171</ele>
        <time>2016-09-14T11:02:32Z</time>
      </trkpt>
      <trkpt lat="45.92612" lon="4.76053">
        <ele>171</ele>
        <time>2016-09-14T11:02:33Z</time>
      </trkpt>
      <trkpt lat="45.92604" lon="4.76049">
        <ele>171</ele>
        <time>2016-09-14T11:02:35Z</time>
      </trkpt>
      <trkpt lat="45.926" lon="4.76046">
        <ele>171</ele>
        <time>2016-09-14T11:02:36Z</time>
      </trkpt>
      <trkpt lat="45.92592" lon="4.7604">
        <ele>171</ele>
        <time>2016-09-14T11:02:38Z</time>
      </trkpt>
      <trkpt lat="45.92588" lon="4.76038">
        <ele>171</ele>
        <time>2016-09-14T11:02:39Z</time>
      </trkpt>
      <trkpt lat="45.92581" lon="4.76032">
        <ele>172</ele>
        <time>2016-09-14T11:02:41Z</time>
      </trkpt>
      <trkpt lat="45.92577" lon="4.7603">
        <ele>172</ele>
        <time>2016-09-14T11:02:42Z</time>
      </trkpt>
      <trkpt lat="45.9257" lon="4.76025">
        <ele>172</ele>
        <time>2016-09-14T11:02:44Z</time>
      </trkpt>
      <trkpt lat="45.92566" lon="4.76022">
        <ele>172</ele>
        <time>2016-09-14T11:02:45Z</time>
      </trkpt>
      <trkpt lat="45.92562" lon="4.76019">
        <ele>172</ele>
        <time>2016-09-14T11:02:46Z</time>
      </trkpt>
      <trkpt lat="45.92558" lon="4.76017">
        <ele>172</ele>
        <time>2016-09-14T11:02:47Z</time>
      </trkpt>
      <trkpt lat="45.92553" lon="4.76014">
        <ele>172</ele>
        <time>2016-09-14T11:02:48Z</time>
      </trkpt>
      <trkpt lat="45.92549" lon="4.76011">
        <ele>172</ele>
        <time>2016-09-14T11:02:49Z</time>
      </trkpt>
      <trkpt lat="45.92542" lon="4.76005">
        <ele>172</ele>
        <time>2016-09-14T11:02:51Z</time>
      </trkpt>
      <trkpt lat="45.92538" lon="4.76002">
        <ele>172</ele>
        <time>2016-09-14T11:02:52Z</time>
      </trkpt>
      <trkpt lat="45.9253" lon="4.75996">
        <ele>172</ele>
        <time>2016-09-14T11:02:54Z</time>
      </trkpt>
      <trkpt lat="45.92526" lon="4.75994">
        <ele>172</ele>
        <time>2016-09-14T11:02:55Z</time>
      </trkpt>
      <trkpt lat="45.92522" lon="4.75991">
        <ele>172</ele>
        <time>2016-09-14T11:02:56Z</time>
      </trkpt>
      <trkpt lat="45.92518" lon="4.75988">
        <ele>172</ele>
        <time>2016-09-14T11:02:57Z</time>
      </trkpt>
      <trkpt lat="45.92514" lon="4.75985">
        <ele>172</ele>
        <time>2016-09-14T11:02:58Z</time>
      </trkpt>
      <trkpt lat="45.9251" lon="4.75982">
        <ele>172</ele>
        <time>2016-09-14T11:02:59Z</time>
      </trkpt>
      <trkpt lat="45.92505" lon="4.75979">
        <ele>172</ele>
        <time>2016-09-14T11:03:00Z</time>
      </trkpt>
      <trkpt lat="45.92501" lon="4.75977">
        <ele>172</ele>
        <time>2016-09-14T11:03:01Z</time>
      </trkpt>
      <trkpt lat="45.92493" lon="4.75971">
        <ele>172</ele>
        <time>2016-09-14T11:03:03Z</time>
      </trkpt>
      <trkpt lat="45.92488" lon="4.75968">
        <ele>172</ele>
        <time>2016-09-14T11:03:04Z</time>
      </trkpt>
      <trkpt lat="45.92484" lon="4.75965">
        <ele>172</ele>
        <time>2016-09-14T11:03:05Z</time>
      </trkpt>
      <trkpt lat="45.9248" lon="4.75962">
        <ele>172</ele>
        <time>2016-09-14T11:03:06Z</time>
      </trkpt>
      <trkpt lat="45.92476" lon="4.7596">
        <ele>172</ele>
        <time>2016-09-14T11:03:07Z</time>
      </trkpt>
      <trkpt lat="45.92472" lon="4.75957">
        <ele>172</ele>
        <time>2016-09-14T11:03:08Z</time>
      </trkpt>
      <trkpt lat="45.92467" lon="4.75954">
        <ele>172</ele>
        <time>2016-09-14T11:03:09Z</time>
      </trkpt>
      <trkpt lat="45.92462" lon="4.75951">
        <ele>172</ele>
        <time>2016-09-14T11:03:10Z</time>
      </trkpt>
      <trkpt lat="45.92458" lon="4.75948">
        <ele>172</ele>
        <time>2016-09-14T11:03:11Z</time>
      </trkpt>
      <trkpt lat="45.92453" lon="4.75944">
        <ele>172</ele>
        <time>2016-09-14T11:03:12Z</time>
      </trkpt>
      <trkpt lat="45.92448" lon="4.75941">
        <ele>172</ele>
        <time>2016-09-14T11:03:13Z</time>
      </trkpt>
      <trkpt lat="45.92443" lon="4.75938">
        <ele>172</ele>
        <time>2016-09-14T11:03:14Z</time>
      </trkpt>
      <trkpt lat="45.92438" lon="4.75934">
        <ele>172</ele>
        <time>2016-09-14T11:03:15Z</time>
      </trkpt>
      <trkpt lat="45.92433" lon="4.75931">
        <ele>172</ele>
        <time>2016-09-14T11:03:16Z</time>
      </trkpt>
      <trkpt lat="45.92427" lon="4.75927">
        <ele>172</ele>
        <time>2016-09-14T11:03:17Z</time>
      </trkpt>
      <trkpt lat="45.92422" lon="4.75924">
        <ele>172</ele>
        <time>2016-09-14T11:03:18Z</time>
      </trkpt>
      <trkpt lat="45.92416" lon="4.7592">
        <ele>172</ele>
        <time>2016-09-14T11:03:19Z</time>
      </trkpt>
      <trkpt lat="45.92411" lon="4.75916">
        <ele>172</ele>
        <time>2016-09-14T11:03:20Z</time>
      </trkpt>
      <trkpt lat="45.92405" lon="4.75911">
        <ele>172</ele>
        <time>2016-09-14T11:03:21Z</time>
      </trkpt>
      <trkpt lat="45.92399" lon="4.75907">
        <ele>173</ele>
        <time>2016-09-14T11:03:22Z</time>
      </trkpt>
      <trkpt lat="45.92394" lon="4.75904">
        <ele>173</ele>
        <time>2016-09-14T11:03:23Z</time>
      </trkpt>
      <trkpt lat="45.92388" lon="4.759">
        <ele>173</ele>
        <time>2016-09-14T11:03:24Z</time>
      </trkpt>
      <trkpt lat="45.92383" lon="4.75896">
        <ele>173</ele>
        <time>2016-09-14T11:03:25Z</time>
      </trkpt>
      <trkpt lat="45.92378" lon="4.75893">
        <ele>173</ele>
        <time>2016-09-14T11:03:26Z</time>
      </trkpt>
      <trkpt lat="45.92373" lon="4.75889">
        <ele>173</ele>
        <time>2016-09-14T11:03:27Z</time>
      </trkpt>
      <trkpt lat="45.92368" lon="4.75886">
        <ele>173</ele>
        <time>2016-09-14T11:03:28Z</time>
      </trkpt>
      <trkpt lat="45.92363" lon="4.75882">
        <ele>173</ele>
        <time>2016-09-14T11:03:29Z</time>
      </trkpt>
      <trkpt lat="45.92358" lon="4.75879">
        <ele>173</ele>
        <time>2016-09-14T11:03:30Z</time>
      </trkpt>
      <trkpt lat="45.92353" lon="4.75876">
        <ele>173</ele>
        <time>2016-09-14T11:03:31Z</time>
      </trkpt>
      <trkpt lat="45.92348" lon="4.75873">
        <ele>173</ele>
        <time>2016-09-14T11:03:32Z</time>
      </trkpt>
      <trkpt lat="45.92343" lon="4.7587">
        <ele>173</ele>
        <time>2016-09-14T11:03:33Z</time>
      </trkpt>
      <trkpt lat="45.92338" lon="4.75867">
        <ele>173</ele>
        <time>2016-09-14T11:03:34Z</time>
      </trkpt>
      <trkpt lat="45.92333" lon="4.75864">
        <ele>173</ele>
        <time>2016-09-14T11:03:35Z</time>
      </trkpt>
      <trkpt lat="45.92328" lon="4.75861">
        <ele>173</ele>
        <time>2016-09-14T11:03:36Z</time>
      </trkpt>
      <trkpt lat="45.92324" lon="4.75858">
        <ele>173</ele>
        <time>2016-09-14T11:03:37Z</time>
      </trkpt>
      <trkpt lat="45.92319" lon="4.75854">
        <ele>173</ele>
        <time>2016-09-14T11:03:38Z</time>
      </trkpt>
      <trkpt lat="45.92315" lon="4.75851">
        <ele>173</ele>
        <time>2016-09-14T11:03:39Z</time>
      </trkpt>
      <trkpt lat="45.9231" lon="4.75848">
        <ele>173</ele>
        <time>2016-09-14T11:03:40Z</time>
      </trkpt>
      <trkpt lat="45.92305" lon="4.75845">
        <ele>173</ele>
        <time>2016-09-14T11:03:41Z</time>
      </trkpt>
      <trkpt lat="45.923" lon="4.75843">
        <ele>173</ele>
        <time>2016-09-14T11:03:42Z</time>
      </trkpt>
      <trkpt lat="45.92295" lon="4.7584">
        <ele>173</ele>
        <time>2016-09-14T11:03:43Z</time>
      </trkpt>
      <trkpt lat="45.9229" lon="4.75837">
        <ele>173</ele>
        <time>2016-09-14T11:03:44Z</time>
      </trkpt>
      <trkpt lat="45.92285" lon="4.75834">
        <ele>173</ele>
        <time>2016-09-14T11:03:45Z</time>
      </trkpt>
      <trkpt lat="45.9228" lon="4.7583">
        <ele>174</ele>
        <time>2016-09-14T11:03:46Z</time>
      </trkpt>
      <trkpt lat="45.92275" lon="4.75825">
        <ele>174</ele>
        <time>2016-09-14T11:03:47Z</time>
      </trkpt>
      <trkpt lat="45.92271" lon="4.7582">
        <ele>174</ele>
        <time>2016-09-14T11:03:48Z</time>
      </trkpt>
      <trkpt lat="45.92267" lon="4.75814">
        <ele>174</ele>
        <time>2016-09-14T11:03:49Z</time>
      </trkpt>
      <trkpt lat="45.92264" lon="4.75807">
        <ele>174</ele>
        <time>2016-09-14T11:03:50Z</time>
      </trkpt>
      <trkpt lat="45.92261" lon="4.758">
        <ele>174</ele>
        <time>2016-09-14T11:03:51Z</time>
      </trkpt>
      <trkpt lat="45.92259" lon="4.75794">
        <ele>174</ele>
        <time>2016-09-14T11:03:52Z</time>
      </trkpt>
      <trkpt lat="45.92258" lon="4.75787">
        <ele>174</ele>
        <time>2016-09-14T11:03:53Z</time>
      </trkpt>
      <trkpt lat="45.92256" lon="4.7578">
        <ele>174</ele>
        <time>2016-09-14T11:03:54Z</time>
      </trkpt>
      <trkpt lat="45.92255" lon="4.75773">
        <ele>174</ele>
        <time>2016-09-14T11:03:55Z</time>
      </trkpt>
      <trkpt lat="45.92254" lon="4.75766">
        <ele>174</ele>
        <time>2016-09-14T11:03:56Z</time>
      </trkpt>
      <trkpt lat="45.92253" lon="4.75758">
        <ele>174</ele>
        <time>2016-09-14T11:03:57Z</time>
      </trkpt>
      <trkpt lat="45.92252" lon="4.75751">
        <ele>174</ele>
        <time>2016-09-14T11:03:58Z</time>
      </trkpt>
      <trkpt lat="45.92251" lon="4.75743">
        <ele>174</ele>
        <time>2016-09-14T11:03:59Z</time>
      </trkpt>
      <trkpt lat="45.92249" lon="4.75735">
        <ele>174</ele>
        <time>2016-09-14T11:04:00Z</time>
      </trkpt>
      <trkpt lat="45.92247" lon="4.75728">
        <ele>174</ele>
        <time>2016-09-14T11:04:01Z</time>
      </trkpt>
      <trkpt lat="45.92244" lon="4.75721">
        <ele>174</ele>
        <time>2016-09-14T11:04:02Z</time>
      </trkpt>
      <trkpt lat="45.92241" lon="4.75715">
        <ele>174</ele>
        <time>2016-09-14T11:04:03Z</time>
      </trkpt>
      <trkpt lat="45.92237" lon="4.75709">
        <ele>174</ele>
        <time>2016-09-14T11:04:04Z</time>
      </trkpt>
      <trkpt lat="45.92234" lon="4.75704">
        <ele>174</ele>
        <time>2016-09-14T11:04:05Z</time>
      </trkpt>
      <trkpt lat="45.92229" lon="4.75698">
        <ele>174</ele>
        <time>2016-09-14T11:04:06Z</time>
      </trkpt>
      <trkpt lat="45.92225" lon="4.75694">
        <ele>174</ele>
        <time>2016-09-14T11:04:07Z</time>
      </trkpt>
      <trkpt lat="45.9222" lon="4.75689">
        <ele>174</ele>
        <time>2016-09-14T11:04:08Z</time>
      </trkpt>
      <trkpt lat="45.92215" lon="4.75685">
        <ele>174</ele>
        <time>2016-09-14T11:04:09Z</time>
      </trkpt>
      <trkpt lat="45.9221" lon="4.7568">
        <ele>174</ele>
        <time>2016-09-14T11:04:10Z</time>
      </trkpt>
      <trkpt lat="45.92205" lon="4.75675">
        <ele>174</ele>
        <time>2016-09-14T11:04:11Z</time>
      </trkpt>
      <trkpt lat="45.922" lon="4.7567">
        <ele>174</ele>
        <time>2016-09-14T11:04:12Z</time>
      </trkpt>
      <trkpt lat="45.92195" lon="4.75665">
        <ele>174</ele>
        <time>2016-09-14T11:04:13Z</time>
      </trkpt>
      <trkpt lat="45.9219" lon="4.75659">
        <ele>174</ele>
        <time>2016-09-14T11:04:14Z</time>
      </trkpt>
      <trkpt lat="45.92184" lon="4.75654">
        <ele>174</ele>
        <time>2016-09-14T11:04:15Z</time>
      </trkpt>
      <trkpt lat="45.9218" lon="4.75649">
        <ele>174</ele>
        <time>2016-09-14T11:04:16Z</time>
      </trkpt>
      <trkpt lat="45.92175" lon="4.75644">
        <ele>174</ele>
        <time>2016-09-14T11:04:17Z</time>
      </trkpt>
      <trkpt lat="45.9217" lon="4.7564">
        <ele>174</ele>
        <time>2016-09-14T11:04:18Z</time>
      </trkpt>
      <trkpt lat="45.92166" lon="4.75635">
        <ele>174</ele>
        <time>2016-09-14T11:04:19Z</time>
      </trkpt>
      <trkpt lat="45.92161" lon="4.75631">
        <ele>174</ele>
        <time>2016-09-14T11:04:20Z</time>
      </trkpt>
      <trkpt lat="45.92157" lon="4.75627">
        <ele>174</ele>
        <time>2016-09-14T11:04:21Z</time>
      </trkpt>
      <trkpt lat="45.92153" lon="4.75622">
        <ele>174</ele>
        <time>2016-09-14T11:04:22Z</time>
      </trkpt>
      <trkpt lat="45.92149" lon="4.75619">
        <ele>174</ele>
        <time>2016-09-14T11:04:23Z</time>
      </trkpt>
      <trkpt lat="45.92144" lon="4.75615">
        <ele>174</ele>
        <time>2016-09-14T11:04:24Z</time>
      </trkpt>
      <trkpt lat="45.9214" lon="4.75611">
        <ele>174</ele>
        <time>2016-09-14T11:04:25Z</time>
      </trkpt>
      <trkpt lat="45.92136" lon="4.75607">
        <ele>174</ele>
        <time>2016-09-14T11:04:26Z</time>
      </trkpt>
      <trkpt lat="45.92131" lon="4.75602">
        <ele>174</ele>
        <time>2016-09-14T11:04:27Z</time>
      </trkpt>
      <trkpt lat="45.92127" lon="4.75598">
        <ele>174</ele>
        <time>2016-09-14T11:04:28Z</time>
      </trkpt>
      <trkpt lat="45.92124" lon="4.75593">
        <ele>174</ele>
        <time>2016-09-14T11:04:29Z</time>
      </trkpt>
      <trkpt lat="45.92121" lon="4.75588">
        <ele>174</ele>
        <time>2016-09-14T11:04:30Z</time>
      </trkpt>
      <trkpt lat="45.92116" lon="4.75578">
        <ele>174</ele>
        <time>2016-09-14T11:04:32Z</time>
      </trkpt>
      <trkpt lat="45.92116" lon="4.75573">
        <ele>174</ele>
        <time>2016-09-14T11:04:33Z</time>
      </trkpt>
      <trkpt lat="45.92119" lon="4.75562">
        <ele>174</ele>
        <time>2016-09-14T11:04:35Z</time>
      </trkpt>
      <trkpt lat="45.92122" lon="4.75557">
        <ele>174</ele>
        <time>2016-09-14T11:04:36Z</time>
      </trkpt>
      <trkpt lat="45.92125" lon="4.75551">
        <ele>174</ele>
        <time>2016-09-14T11:04:37Z</time>
      </trkpt>
      <trkpt lat="45.92128" lon="4.75545">
        <ele>174</ele>
        <time>2016-09-14T11:04:38Z</time>
      </trkpt>
      <trkpt lat="45.92131" lon="4.75538">
        <ele>174</ele>
        <time>2016-09-14T11:04:39Z</time>
      </trkpt>
      <trkpt lat="45.92134" lon="4.75532">
        <ele>174</ele>
        <time>2016-09-14T11:04:40Z</time>
      </trkpt>
      <trkpt lat="45.92137" lon="4.75526">
        <ele>174</ele>
        <time>2016-09-14T11:04:41Z</time>
      </trkpt>
      <trkpt lat="45.92141" lon="4.7552">
        <ele>174</ele>
        <time>2016-09-14T11:04:42Z</time>
      </trkpt>
      <trkpt lat="45.92145" lon="4.75514">
        <ele>174</ele>
        <time>2016-09-14T11:04:43Z</time>
      </trkpt>
      <trkpt lat="45.92147" lon="4.75507">
        <ele>175</ele>
        <time>2016-09-14T11:04:44Z</time>
      </trkpt>
      <trkpt lat="45.9215" lon="4.755">
        <ele>175</ele>
        <time>2016-09-14T11:04:45Z</time>
      </trkpt>
      <trkpt lat="45.92153" lon="4.75494">
        <ele>175</ele>
        <time>2016-09-14T11:04:46Z</time>
      </trkpt>
      <trkpt lat="45.92155" lon="4.75488">
        <ele>175</ele>
        <time>2016-09-14T11:04:47Z</time>
      </trkpt>
      <trkpt lat="45.92158" lon="4.75482">
        <ele>176</ele>
        <time>2016-09-14T11:04:48Z</time>
      </trkpt>
      <trkpt lat="45.9216" lon="4.75475">
        <ele>176</ele>
        <time>2016-09-14T11:04:49Z</time>
      </trkpt>
      <trkpt lat="45.92163" lon="4.75469">
        <ele>176</ele>
        <time>2016-09-14T11:04:50Z</time>
      </trkpt>
      <trkpt lat="45.92166" lon="4.75463">
        <ele>176</ele>
        <time>2016-09-14T11:04:51Z</time>
      </trkpt>
      <trkpt lat="45.92168" lon="4.75456">
        <ele>176</ele>
        <time>2016-09-14T11:04:52Z</time>
      </trkpt>
      <trkpt lat="45.92171" lon="4.75449">
        <ele>176</ele>
        <time>2016-09-14T11:04:53Z</time>
      </trkpt>
      <trkpt lat="45.92173" lon="4.75442">
        <ele>176</ele>
        <time>2016-09-14T11:04:54Z</time>
      </trkpt>
      <trkpt lat="45.92176" lon="4.75436">
        <ele>177</ele>
        <time>2016-09-14T11:04:55Z</time>
      </trkpt>
      <trkpt lat="45.92179" lon="4.7543">
        <ele>177</ele>
        <time>2016-09-14T11:04:56Z</time>
      </trkpt>
      <trkpt lat="45.92182" lon="4.75423">
        <ele>177</ele>
        <time>2016-09-14T11:04:57Z</time>
      </trkpt>
      <trkpt lat="45.92184" lon="4.75417">
        <ele>177</ele>
        <time>2016-09-14T11:04:58Z</time>
      </trkpt>
      <trkpt lat="45.92187" lon="4.7541">
        <ele>177</ele>
        <time>2016-09-14T11:04:59Z</time>
      </trkpt>
      <trkpt lat="45.9219" lon="4.75403">
        <ele>177</ele>
        <time>2016-09-14T11:05:00Z</time>
      </trkpt>
      <trkpt lat="45.92193" lon="4.75397">
        <ele>177</ele>
        <time>2016-09-14T11:05:01Z</time>
      </trkpt>
      <trkpt lat="45.92195" lon="4.75391">
        <ele>177</ele>
        <time>2016-09-14T11:05:02Z</time>
      </trkpt>
      <trkpt lat="45.92198" lon="4.75384">
        <ele>177</ele>
        <time>2016-09-14T11:05:03Z</time>
      </trkpt>
      <trkpt lat="45.92201" lon="4.75377">
        <ele>177</ele>
        <time>2016-09-14T11:05:04Z</time>
      </trkpt>
      <trkpt lat="45.92204" lon="4.75369">
        <ele>177</ele>
        <time>2016-09-14T11:05:05Z</time>
      </trkpt>
      <trkpt lat="45.92205" lon="4.7536">
        <ele>177</ele>
        <time>2016-09-14T11:05:06Z</time>
      </trkpt>
      <trkpt lat="45.92207" lon="4.75352">
        <ele>177</ele>
        <time>2016-09-14T11:05:07Z</time>
      </trkpt>
      <trkpt lat="45.92209" lon="4.75344">
        <ele>177</ele>
        <time>2016-09-14T11:05:08Z</time>
      </trkpt>
      <trkpt lat="45.9221" lon="4.75336">
        <ele>177</ele>
        <time>2016-09-14T11:05:09Z</time>
      </trkpt>
      <trkpt lat="45.92211" lon="4.75326">
        <ele>176</ele>
        <time>2016-09-14T11:05:10Z</time>
      </trkpt>
      <trkpt lat="45.92212" lon="4.75318">
        <ele>176</ele>
        <time>2016-09-14T11:05:11Z</time>
      </trkpt>
      <trkpt lat="45.92213" lon="4.75308">
        <ele>176</ele>
        <time>2016-09-14T11:05:12Z</time>
      </trkpt>
      <trkpt lat="45.92213" lon="4.75299">
        <ele>176</ele>
        <time>2016-09-14T11:05:13Z</time>
      </trkpt>
      <trkpt lat="45.92213" lon="4.75289">
        <ele>176</ele>
        <time>2016-09-14T11:05:14Z</time>
      </trkpt>
      <trkpt lat="45.92213" lon="4.75279">
        <ele>176</ele>
        <time>2016-09-14T11:05:15Z</time>
      </trkpt>
      <trkpt lat="45.92213" lon="4.75269">
        <ele>176</ele>
        <time>2016-09-14T11:05:16Z</time>
      </trkpt>
      <trkpt lat="45.92214" lon="4.75259">
        <ele>176</ele>
        <time>2016-09-14T11:05:17Z</time>
      </trkpt>
      <trkpt lat="45.92214" lon="4.7525">
        <ele>175</ele>
        <time>2016-09-14T11:05:18Z</time>
      </trkpt>
      <trkpt lat="45.92215" lon="4.7524">
        <ele>175</ele>
        <time>2016-09-14T11:05:19Z</time>
      </trkpt>
      <trkpt lat="45.92216" lon="4.7523">
        <ele>175</ele>
        <time>2016-09-14T11:05:20Z</time>
      </trkpt>
      <trkpt lat="45.92217" lon="4.7522">
        <ele>175</ele>
        <time>2016-09-14T11:05:21Z</time>
      </trkpt>
      <trkpt lat="45.92218" lon="4.75209">
        <ele>175</ele>
        <time>2016-09-14T11:05:22Z</time>
      </trkpt>
      <trkpt lat="45.92221" lon="4.75199">
        <ele>175</ele>
        <time>2016-09-14T11:05:23Z</time>
      </trkpt>
      <trkpt lat="45.92223" lon="4.75189">
        <ele>175</ele>
        <time>2016-09-14T11:05:24Z</time>
      </trkpt>
      <trkpt lat="45.92226" lon="4.7518">
        <ele>175</ele>
        <time>2016-09-14T11:05:25Z</time>
      </trkpt>
      <trkpt lat="45.9223" lon="4.75171">
        <ele>175</ele>
        <time>2016-09-14T11:05:26Z</time>
      </trkpt>
      <trkpt lat="45.92234" lon="4.75162">
        <ele>174</ele>
        <time>2016-09-14T11:05:27Z</time>
      </trkpt>
      <trkpt lat="45.92238" lon="4.75154">
        <ele>174</ele>
        <time>2016-09-14T11:05:28Z</time>
      </trkpt>
      <trkpt lat="45.92242" lon="4.75146">
        <ele>174</ele>
        <time>2016-09-14T11:05:29Z</time>
      </trkpt>
      <trkpt lat="45.92247" lon="4.75139">
        <ele>174</ele>
        <time>2016-09-14T11:05:30Z</time>
      </trkpt>
      <trkpt lat="45.92252" lon="4.75132">
        <ele>174</ele>
        <time>2016-09-14T11:05:31Z</time>
      </trkpt>
      <trkpt lat="45.92257" lon="4.75126">
        <ele>174</ele>
        <time>2016-09-14T11:05:32Z</time>
      </trkpt>
      <trkpt lat="45.92262" lon="4.75121">
        <ele>174</ele>
        <time>2016-09-14T11:05:33Z</time>
      </trkpt>
      <trkpt lat="45.92267" lon="4.75115">
        <ele>174</ele>
        <time>2016-09-14T11:05:34Z</time>
      </trkpt>
      <trkpt lat="45.92272" lon="4.75109">
        <ele>174</ele>
        <time>2016-09-14T11:05:35Z</time>
      </trkpt>
      <trkpt lat="45.92277" lon="4.75103">
        <ele>173</ele>
        <time>2016-09-14T11:05:36Z</time>
      </trkpt>
      <trkpt lat="45.92282" lon="4.75098">
        <ele>173</ele>
        <time>2016-09-14T11:05:37Z</time>
      </trkpt>
      <trkpt lat="45.92287" lon="4.75092">
        <ele>173</ele>
        <time>2016-09-14T11:05:38Z</time>
      </trkpt>
      <trkpt lat="45.92292" lon="4.75087">
        <ele>173</ele>
        <time>2016-09-14T11:05:39Z</time>
      </trkpt>
      <trkpt lat="45.92297" lon="4.75082">
        <ele>172</ele>
        <time>2016-09-14T11:05:40Z</time>
      </trkpt>
      <trkpt lat="45.92302" lon="4.75077">
        <ele>172</ele>
        <time>2016-09-14T11:05:41Z</time>
      </trkpt>
      <trkpt lat="45.92307" lon="4.75071">
        <ele>172</ele>
        <time>2016-09-14T11:05:42Z</time>
      </trkpt>
      <trkpt lat="45.92312" lon="4.75064">
        <ele>172</ele>
        <time>2016-09-14T11:05:43Z</time>
      </trkpt>
      <trkpt lat="45.92317" lon="4.75057">
        <ele>172</ele>
        <time>2016-09-14T11:05:44Z</time>
      </trkpt>
      <trkpt lat="45.92321" lon="4.75049">
        <ele>172</ele>
        <time>2016-09-14T11:05:45Z</time>
      </trkpt>
      <trkpt lat="45.92325" lon="4.75041">
        <ele>171</ele>
        <time>2016-09-14T11:05:46Z</time>
      </trkpt>
      <trkpt lat="45.92329" lon="4.75033">
        <ele>171</ele>
        <time>2016-09-14T11:05:47Z</time>
      </trkpt>
      <trkpt lat="45.92333" lon="4.75025">
        <ele>171</ele>
        <time>2016-09-14T11:05:48Z</time>
      </trkpt>
      <trkpt lat="45.92337" lon="4.75018">
        <ele>170</ele>
        <time>2016-09-14T11:05:49Z</time>
      </trkpt>
      <trkpt lat="45.9234" lon="4.75011">
        <ele>170</ele>
        <time>2016-09-14T11:05:50Z</time>
      </trkpt>
      <trkpt lat="45.92344" lon="4.75004">
        <ele>170</ele>
        <time>2016-09-14T11:05:51Z</time>
      </trkpt>
      <trkpt lat="45.92347" lon="4.74996">
        <ele>170</ele>
        <time>2016-09-14T11:05:52Z</time>
      </trkpt>
      <trkpt lat="45.9235" lon="4.74989">
        <ele>170</ele>
        <time>2016-09-14T11:05:53Z</time>
      </trkpt>
      <trkpt lat="45.92353" lon="4.74982">
        <ele>170</ele>
        <time>2016-09-14T11:05:54Z</time>
      </trkpt>
      <trkpt lat="45.92357" lon="4.74975">
        <ele>170</ele>
        <time>2016-09-14T11:05:55Z</time>
      </trkpt>
      <trkpt lat="45.9236" lon="4.74968">
        <ele>170</ele>
        <time>2016-09-14T11:05:56Z</time>
      </trkpt>
      <trkpt lat="45.92363" lon="4.74961">
        <ele>170</ele>
        <time>2016-09-14T11:05:57Z</time>
      </trkpt>
      <trkpt lat="45.92365" lon="4.74954">
        <ele>170</ele>
        <time>2016-09-14T11:05:58Z</time>
      </trkpt>
      <trkpt lat="45.92368" lon="4.74947">
        <ele>170</ele>
        <time>2016-09-14T11:05:59Z</time>
      </trkpt>
      <trkpt lat="45.92371" lon="4.7494">
        <ele>170</ele>
        <time>2016-09-14T11:06:00Z</time>
      </trkpt>
      <trkpt lat="45.92374" lon="4.74933">
        <ele>170</ele>
        <time>2016-09-14T11:06:01Z</time>
      </trkpt>
      <trkpt lat="45.92377" lon="4.74925">
        <ele>170</ele>
        <time>2016-09-14T11:06:02Z</time>
      </trkpt>
      <trkpt lat="45.9238" lon="4.74917">
        <ele>170</ele>
        <time>2016-09-14T11:06:03Z</time>
      </trkpt>
      <trkpt lat="45.92383" lon="4.7491">
        <ele>171</ele>
        <time>2016-09-14T11:06:04Z</time>
      </trkpt>
      <trkpt lat="45.92386" lon="4.74902">
        <ele>171</ele>
        <time>2016-09-14T11:06:05Z</time>
      </trkpt>
      <trkpt lat="45.92389" lon="4.74894">
        <ele>171</ele>
        <time>2016-09-14T11:06:06Z</time>
      </trkpt>
      <trkpt lat="45.92392" lon="4.74886">
        <ele>171</ele>
        <time>2016-09-14T11:06:07Z</time>
      </trkpt>
      <trkpt lat="45.92394" lon="4.74878">
        <ele>171</ele>
        <time>2016-09-14T11:06:08Z</time>
      </trkpt>
      <trkpt lat="45.92397" lon="4.74871">
        <ele>171</ele>
        <time>2016-09-14T11:06:09Z</time>
      </trkpt>
      <trkpt lat="45.924" lon="4.74865">
        <ele>171</ele>
        <time>2016-09-14T11:06:10Z</time>
      </trkpt>
      <trkpt lat="45.92402" lon="4.74857">
        <ele>171</ele>
        <time>2016-09-14T11:06:11Z</time>
      </trkpt>
      <trkpt lat="45.92404" lon="4.7485">
        <ele>171</ele>
        <time>2016-09-14T11:06:12Z</time>
      </trkpt>
      <trkpt lat="45.92406" lon="4.74843">
        <ele>171</ele>
        <time>2016-09-14T11:06:13Z</time>
      </trkpt>
      <trkpt lat="45.92408" lon="4.74835">
        <ele>171</ele>
        <time>2016-09-14T11:06:14Z</time>
      </trkpt>
      <trkpt lat="45.9241" lon="4.74826">
        <ele>171</ele>
        <time>2016-09-14T11:06:15Z</time>
      </trkpt>
      <trkpt lat="45.92412" lon="4.74818">
        <ele>171</ele>
        <time>2016-09-14T11:06:16Z</time>
      </trkpt>
      <trkpt lat="45.92414" lon="4.7481">
        <ele>171</ele>
        <time>2016-09-14T11:06:17Z</time>
      </trkpt>
      <trkpt lat="45.92416" lon="4.74802">
        <ele>171</ele>
        <time>2016-09-14T11:06:18Z</time>
      </trkpt>
      <trkpt lat="45.92417" lon="4.74794">
        <ele>171</ele>
        <time>2016-09-14T11:06:19Z</time>
      </trkpt>
      <trkpt lat="45.92419" lon="4.74786">
        <ele>171</ele>
        <time>2016-09-14T11:06:20Z</time>
      </trkpt>
      <trkpt lat="45.9242" lon="4.74778">
        <ele>171</ele>
        <time>2016-09-14T11:06:21Z</time>
      </trkpt>
      <trkpt lat="45.92422" lon="4.74771">
        <ele>171</ele>
        <time>2016-09-14T11:06:22Z</time>
      </trkpt>
      <trkpt lat="45.92425" lon="4.74763">
        <ele>171</ele>
        <time>2016-09-14T11:06:23Z</time>
      </trkpt>
      <trkpt lat="45.92428" lon="4.74756">
        <ele>171</ele>
        <time>2016-09-14T11:06:24Z</time>
      </trkpt>
      <trkpt lat="45.9243" lon="4.74748">
        <ele>171</ele>
        <time>2016-09-14T11:06:25Z</time>
      </trkpt>
      <trkpt lat="45.92432" lon="4.74739">
        <ele>171</ele>
        <time>2016-09-14T11:06:26Z</time>
      </trkpt>
      <trkpt lat="45.92435" lon="4.74731">
        <ele>171</ele>
        <time>2016-09-14T11:06:27Z</time>
      </trkpt>
      <trkpt lat="45.92438" lon="4.74723">
        <ele>171</ele>
        <time>2016-09-14T11:06:28Z</time>
      </trkpt>
      <trkpt lat="45.9244" lon="4.74715">
        <ele>171</ele>
        <time>2016-09-14T11:06:29Z</time>
      </trkpt>
      <trkpt lat="45.92443" lon="4.74708">
        <ele>171</ele>
        <time>2016-09-14T11:06:30Z</time>
      </trkpt>
      <trkpt lat="45.92446" lon="4.74701">
        <ele>171</ele>
        <time>2016-09-14T11:06:31Z</time>
      </trkpt>
      <trkpt lat="45.92449" lon="4.74695">
        <ele>171</ele>
        <time>2016-09-14T11:06:32Z</time>
      </trkpt>
      <trkpt lat="45.92452" lon="4.74688">
        <ele>171</ele>
        <time>2016-09-14T11:06:33Z</time>
      </trkpt>
      <trkpt lat="45.92455" lon="4.74682">
        <ele>171</ele>
        <time>2016-09-14T11:06:34Z</time>
      </trkpt>
      <trkpt lat="45.92458" lon="4.74676">
        <ele>171</ele>
        <time>2016-09-14T11:06:35Z</time>
      </trkpt>
      <trkpt lat="45.92461" lon="4.7467">
        <ele>171</ele>
        <time>2016-09-14T11:06:36Z</time>
      </trkpt>
      <trkpt lat="45.92464" lon="4.74664">
        <ele>171</ele>
        <time>2016-09-14T11:06:37Z</time>
      </trkpt>
      <trkpt lat="45.92469" lon="4.74657">
        <ele>171</ele>
        <time>2016-09-14T11:06:38Z</time>
      </trkpt>
      <trkpt lat="45.92473" lon="4.7465">
        <ele>171</ele>
        <time>2016-09-14T11:06:39Z</time>
      </trkpt>
      <trkpt lat="45.92478" lon="4.74645">
        <ele>171</ele>
        <time>2016-09-14T11:06:40Z</time>
      </trkpt>
      <trkpt lat="45.92483" lon="4.7464">
        <ele>171</ele>
        <time>2016-09-14T11:06:41Z</time>
      </trkpt>
      <trkpt lat="45.92487" lon="4.74634">
        <ele>171</ele>
        <time>2016-09-14T11:06:42Z</time>
      </trkpt>
      <trkpt lat="45.92491" lon="4.74628">
        <ele>171</ele>
        <time>2016-09-14T11:06:43Z</time>
      </trkpt>
      <trkpt lat="45.92495" lon="4.74622">
        <ele>171</ele>
        <time>2016-09-14T11:06:44Z</time>
      </trkpt>
      <trkpt lat="45.925" lon="4.74616">
        <ele>171</ele>
        <time>2016-09-14T11:06:45Z</time>
      </trkpt>
      <trkpt lat="45.92505" lon="4.74611">
        <ele>170</ele>
        <time>2016-09-14T11:06:46Z</time>
      </trkpt>
      <trkpt lat="45.92509" lon="4.74605">
        <ele>171</ele>
        <time>2016-09-14T11:06:47Z</time>
      </trkpt>
      <trkpt lat="45.92513" lon="4.746">
        <ele>171</ele>
        <time>2016-09-14T11:06:48Z</time>
      </trkpt>
      <trkpt lat="45.92518" lon="4.74595">
        <ele>171</ele>
        <time>2016-09-14T11:06:49Z</time>
      </trkpt>
      <trkpt lat="45.92522" lon="4.74589">
        <ele>171</ele>
        <time>2016-09-14T11:06:50Z</time>
      </trkpt>
      <trkpt lat="45.92527" lon="4.74584">
        <ele>170</ele>
        <time>2016-09-14T11:06:51Z</time>
      </trkpt>
      <trkpt lat="45.92531" lon="4.74578">
        <ele>171</ele>
        <time>2016-09-14T11:06:52Z</time>
      </trkpt>
      <trkpt lat="45.92535" lon="4.74572">
        <ele>171</ele>
        <time>2016-09-14T11:06:53Z</time>
      </trkpt>
      <trkpt lat="45.9254" lon="4.74566">
        <ele>171</ele>
        <time>2016-09-14T11:06:54Z</time>
      </trkpt>
      <trkpt lat="45.92544" lon="4.74559">
        <ele>170</ele>
        <time>2016-09-14T11:06:55Z</time>
      </trkpt>
      <trkpt lat="45.92548" lon="4.74552">
        <ele>170</ele>
        <time>2016-09-14T11:06:56Z</time>
      </trkpt>
      <trkpt lat="45.92552" lon="4.74545">
        <ele>170</ele>
        <time>2016-09-14T11:06:57Z</time>
      </trkpt>
      <trkpt lat="45.92556" lon="4.74538">
        <ele>170</ele>
        <time>2016-09-14T11:06:58Z</time>
      </trkpt>
      <trkpt lat="45.9256" lon="4.74531">
        <ele>170</ele>
        <time>2016-09-14T11:06:59Z</time>
      </trkpt>
      <trkpt lat="45.92564" lon="4.74524">
        <ele>170</ele>
        <time>2016-09-14T11:07:00Z</time>
      </trkpt>
      <trkpt lat="45.92568" lon="4.74517">
        <ele>170</ele>
        <time>2016-09-14T11:07:01Z</time>
      </trkpt>
      <trkpt lat="45.92571" lon="4.7451">
        <ele>170</ele>
        <time>2016-09-14T11:07:02Z</time>
      </trkpt>
      <trkpt lat="45.92575" lon="4.74503">
        <ele>170</ele>
        <time>2016-09-14T11:07:03Z</time>
      </trkpt>
      <trkpt lat="45.92578" lon="4.74497">
        <ele>170</ele>
        <time>2016-09-14T11:07:04Z</time>
      </trkpt>
      <trkpt lat="45.92582" lon="4.7449">
        <ele>170</ele>
        <time>2016-09-14T11:07:05Z</time>
      </trkpt>
      <trkpt lat="45.92585" lon="4.74484">
        <ele>170</ele>
        <time>2016-09-14T11:07:06Z</time>
      </trkpt>
      <trkpt lat="45.92588" lon="4.74477">
        <ele>170</ele>
        <time>2016-09-14T11:07:07Z</time>
      </trkpt>
      <trkpt lat="45.92591" lon="4.74472">
        <ele>170</ele>
        <time>2016-09-14T11:07:08Z</time>
      </trkpt>
      <trkpt lat="45.92594" lon="4.74466">
        <ele>170</ele>
        <time>2016-09-14T11:07:09Z</time>
      </trkpt>
      <trkpt lat="45.92598" lon="4.74459">
        <ele>170</ele>
        <time>2016-09-14T11:07:10Z</time>
      </trkpt>
      <trkpt lat="45.92601" lon="4.74453">
        <ele>170</ele>
        <time>2016-09-14T11:07:11Z</time>
      </trkpt>
      <trkpt lat="45.92605" lon="4.74446">
        <ele>170</ele>
        <time>2016-09-14T11:07:12Z</time>
      </trkpt>
      <trkpt lat="45.92609" lon="4.74439">
        <ele>170</ele>
        <time>2016-09-14T11:07:13Z</time>
      </trkpt>
      <trkpt lat="45.92613" lon="4.74432">
        <ele>170</ele>
        <time>2016-09-14T11:07:14Z</time>
      </trkpt>
      <trkpt lat="45.92617" lon="4.74424">
        <ele>170</ele>
        <time>2016-09-14T11:07:15Z</time>
      </trkpt>
      <trkpt lat="45.92621" lon="4.74417">
        <ele>170</ele>
        <time>2016-09-14T11:07:16Z</time>
      </trkpt>
      <trkpt lat="45.92625" lon="4.74411">
        <ele>170</ele>
        <time>2016-09-14T11:07:17Z</time>
      </trkpt>
      <trkpt lat="45.92628" lon="4.74404">
        <ele>170</ele>
        <time>2016-09-14T11:07:18Z</time>
      </trkpt>
      <trkpt lat="45.92631" lon="4.74398">
        <ele>170</ele>
        <time>2016-09-14T11:07:19Z</time>
      </trkpt>
      <trkpt lat="45.92635" lon="4.74392">
        <ele>170</ele>
        <time>2016-09-14T11:07:20Z</time>
      </trkpt>
      <trkpt lat="45.92638" lon="4.74386">
        <ele>170</ele>
        <time>2016-09-14T11:07:21Z</time>
      </trkpt>
      <trkpt lat="45.92642" lon="4.7438">
        <ele>170</ele>
        <time>2016-09-14T11:07:22Z</time>
      </trkpt>
      <trkpt lat="45.92645" lon="4.74374">
        <ele>171</ele>
        <time>2016-09-14T11:07:23Z</time>
      </trkpt>
      <trkpt lat="45.92648" lon="4.74368">
        <ele>171</ele>
        <time>2016-09-14T11:07:24Z</time>
      </trkpt>
      <trkpt lat="45.92652" lon="4.74362">
        <ele>171</ele>
        <time>2016-09-14T11:07:25Z</time>
      </trkpt>
      <trkpt lat="45.92655" lon="4.74356">
        <ele>171</ele>
        <time>2016-09-14T11:07:26Z</time>
      </trkpt>
      <trkpt lat="45.92658" lon="4.7435">
        <ele>171</ele>
        <time>2016-09-14T11:07:27Z</time>
      </trkpt>
      <trkpt lat="45.92662" lon="4.74343">
        <ele>171</ele>
        <time>2016-09-14T11:07:28Z</time>
      </trkpt>
      <trkpt lat="45.92666" lon="4.74336">
        <ele>171</ele>
        <time>2016-09-14T11:07:29Z</time>
      </trkpt>
      <trkpt lat="45.92669" lon="4.74329">
        <ele>171</ele>
        <time>2016-09-14T11:07:30Z</time>
      </trkpt>
      <trkpt lat="45.92673" lon="4.74322">
        <ele>171</ele>
        <time>2016-09-14T11:07:31Z</time>
      </trkpt>
      <trkpt lat="45.92677" lon="4.74315">
        <ele>171</ele>
        <time>2016-09-14T11:07:32Z</time>
      </trkpt>
      <trkpt lat="45.92681" lon="4.74308">
        <ele>171</ele>
        <time>2016-09-14T11:07:33Z</time>
      </trkpt>
      <trkpt lat="45.92684" lon="4.74301">
        <ele>171</ele>
        <time>2016-09-14T11:07:34Z</time>
      </trkpt>
      <trkpt lat="45.92687" lon="4.74295">
        <ele>171</ele>
        <time>2016-09-14T11:07:35Z</time>
      </trkpt>
      <trkpt lat="45.92691" lon="4.74289">
        <ele>171</ele>
        <time>2016-09-14T11:07:36Z</time>
      </trkpt>
      <trkpt lat="45.92694" lon="4.74283">
        <ele>171</ele>
        <time>2016-09-14T11:07:37Z</time>
      </trkpt>
      <trkpt lat="45.92697" lon="4.74277">
        <ele>171</ele>
        <time>2016-09-14T11:07:38Z</time>
      </trkpt>
      <trkpt lat="45.92701" lon="4.74271">
        <ele>171</ele>
        <time>2016-09-14T11:07:39Z</time>
      </trkpt>
      <trkpt lat="45.92704" lon="4.74265">
        <ele>171</ele>
        <time>2016-09-14T11:07:40Z</time>
      </trkpt>
      <trkpt lat="45.92708" lon="4.74259">
        <ele>171</ele>
        <time>2016-09-14T11:07:41Z</time>
      </trkpt>
      <trkpt lat="45.92712" lon="4.74254">
        <ele>171</ele>
        <time>2016-09-14T11:07:42Z</time>
      </trkpt>
      <trkpt lat="45.92715" lon="4.74248">
        <ele>171</ele>
        <time>2016-09-14T11:07:43Z</time>
      </trkpt>
      <trkpt lat="45.92719" lon="4.74241">
        <ele>171</ele>
        <time>2016-09-14T11:07:44Z</time>
      </trkpt>
      <trkpt lat="45.92723" lon="4.74236">
        <ele>171</ele>
        <time>2016-09-14T11:07:45Z</time>
      </trkpt>
      <trkpt lat="45.92726" lon="4.7423">
        <ele>171</ele>
        <time>2016-09-14T11:07:46Z</time>
      </trkpt>
      <trkpt lat="45.9273" lon="4.74225">
        <ele>171</ele>
        <time>2016-09-14T11:07:47Z</time>
      </trkpt>
      <trkpt lat="45.92734" lon="4.74219">
        <ele>171</ele>
        <time>2016-09-14T11:07:48Z</time>
      </trkpt>
      <trkpt lat="45.92738" lon="4.74214">
        <ele>171</ele>
        <time>2016-09-14T11:07:49Z</time>
      </trkpt>
      <trkpt lat="45.92742" lon="4.74209">
        <ele>171</ele>
        <time>2016-09-14T11:07:50Z</time>
      </trkpt>
      <trkpt lat="45.92745" lon="4.74204">
        <ele>171</ele>
        <time>2016-09-14T11:07:51Z</time>
      </trkpt>
      <trkpt lat="45.9275" lon="4.74198">
        <ele>171</ele>
        <time>2016-09-14T11:07:52Z</time>
      </trkpt>
      <trkpt lat="45.92754" lon="4.74193">
        <ele>172</ele>
        <time>2016-09-14T11:07:53Z</time>
      </trkpt>
      <trkpt lat="45.92758" lon="4.74187">
        <ele>172</ele>
        <time>2016-09-14T11:07:54Z</time>
      </trkpt>
      <trkpt lat="45.92763" lon="4.74182">
        <ele>172</ele>
        <time>2016-09-14T11:07:55Z</time>
      </trkpt>
      <trkpt lat="45.92768" lon="4.74177">
        <ele>172</ele>
        <time>2016-09-14T11:07:56Z</time>
      </trkpt>
      <trkpt lat="45.92773" lon="4.74171">
        <ele>172</ele>
        <time>2016-09-14T11:07:57Z</time>
      </trkpt>
      <trkpt lat="45.92778" lon="4.74166">
        <ele>172</ele>
        <time>2016-09-14T11:07:58Z</time>
      </trkpt>
      <trkpt lat="45.92783" lon="4.74161">
        <ele>172</ele>
        <time>2016-09-14T11:07:59Z</time>
      </trkpt>
      <trkpt lat="45.92788" lon="4.74156">
        <ele>172</ele>
        <time>2016-09-14T11:08:00Z</time>
      </trkpt>
      <trkpt lat="45.92792" lon="4.74151">
        <ele>172</ele>
        <time>2016-09-14T11:08:01Z</time>
      </trkpt>
      <trkpt lat="45.92797" lon="4.74147">
        <ele>172</ele>
        <time>2016-09-14T11:08:02Z</time>
      </trkpt>
      <trkpt lat="45.92801" lon="4.74142">
        <ele>172</ele>
        <time>2016-09-14T11:08:03Z</time>
      </trkpt>
      <trkpt lat="45.92806" lon="4.74137">
        <ele>172</ele>
        <time>2016-09-14T11:08:04Z</time>
      </trkpt>
      <trkpt lat="45.9281" lon="4.74132">
        <ele>172</ele>
        <time>2016-09-14T11:08:05Z</time>
      </trkpt>
      <trkpt lat="45.92815" lon="4.74128">
        <ele>172</ele>
        <time>2016-09-14T11:08:06Z</time>
      </trkpt>
      <trkpt lat="45.92819" lon="4.74124">
        <ele>172</ele>
        <time>2016-09-14T11:08:07Z</time>
      </trkpt>
      <trkpt lat="45.92823" lon="4.74119">
        <ele>172</ele>
        <time>2016-09-14T11:08:08Z</time>
      </trkpt>
      <trkpt lat="45.92827" lon="4.74115">
        <ele>171</ele>
        <time>2016-09-14T11:08:09Z</time>
      </trkpt>
      <trkpt lat="45.92831" lon="4.7411">
        <ele>171</ele>
        <time>2016-09-14T11:08:10Z</time>
      </trkpt>
      <trkpt lat="45.92835" lon="4.74106">
        <ele>171</ele>
        <time>2016-09-14T11:08:11Z</time>
      </trkpt>
      <trkpt lat="45.92839" lon="4.74102">
        <ele>171</ele>
        <time>2016-09-14T11:08:12Z</time>
      </trkpt>
      <trkpt lat="45.92845" lon="4.74093">
        <ele>171</ele>
        <time>2016-09-14T11:08:14Z</time>
      </trkpt>
      <trkpt lat="45.92848" lon="4.74089">
        <ele>171</ele>
        <time>2016-09-14T11:08:15Z</time>
      </trkpt>
      <trkpt lat="45.92852" lon="4.74084">
        <ele>171</ele>
        <time>2016-09-14T11:08:16Z</time>
      </trkpt>
      <trkpt lat="45.92857" lon="4.74078">
        <ele>172</ele>
        <time>2016-09-14T11:08:17Z</time>
      </trkpt>
      <trkpt lat="45.92861" lon="4.74073">
        <ele>172</ele>
        <time>2016-09-14T11:08:18Z</time>
      </trkpt>
      <trkpt lat="45.92865" lon="4.74069">
        <ele>172</ele>
        <time>2016-09-14T11:08:19Z</time>
      </trkpt>
      <trkpt lat="45.92868" lon="4.74065">
        <ele>172</ele>
        <time>2016-09-14T11:08:20Z</time>
      </trkpt>
      <trkpt lat="45.92872" lon="4.7406">
        <ele>172</ele>
        <time>2016-09-14T11:08:21Z</time>
      </trkpt>
      <trkpt lat="45.92877" lon="4.74057">
        <ele>172</ele>
        <time>2016-09-14T11:08:22Z</time>
      </trkpt>
      <trkpt lat="45.92881" lon="4.74055">
        <ele>172</ele>
        <time>2016-09-14T11:08:23Z</time>
      </trkpt>
      <trkpt lat="45.92887" lon="4.74054">
        <ele>172</ele>
        <time>2016-09-14T11:08:24Z</time>
      </trkpt>
      <trkpt lat="45.92892" lon="4.74054">
        <ele>172</ele>
        <time>2016-09-14T11:08:25Z</time>
      </trkpt>
      <trkpt lat="45.92898" lon="4.74054">
        <ele>172</ele>
        <time>2016-09-14T11:08:26Z</time>
      </trkpt>
      <trkpt lat="45.92904" lon="4.74053">
        <ele>172</ele>
        <time>2016-09-14T11:08:27Z</time>
      </trkpt>
      <trkpt lat="45.92909" lon="4.74051">
        <ele>172</ele>
        <time>2016-09-14T11:08:28Z</time>
      </trkpt>
      <trkpt lat="45.92914" lon="4.74046">
        <ele>172</ele>
        <time>2016-09-14T11:08:29Z</time>
      </trkpt>
      <trkpt lat="45.92918" lon="4.74039">
        <ele>172</ele>
        <time>2016-09-14T11:08:30Z</time>
      </trkpt>
      <trkpt lat="45.9292" lon="4.74031">
        <ele>172</ele>
        <time>2016-09-14T11:08:31Z</time>
      </trkpt>
      <trkpt lat="45.9292" lon="4.74021">
        <ele>172</ele>
        <time>2016-09-14T11:08:32Z</time>
      </trkpt>
      <trkpt lat="45.92918" lon="4.74011">
        <ele>172</ele>
        <time>2016-09-14T11:08:33Z</time>
      </trkpt>
      <trkpt lat="45.92915" lon="4.74003">
        <ele>172</ele>
        <time>2016-09-14T11:08:34Z</time>
      </trkpt>
      <trkpt lat="45.9291" lon="4.73995">
        <ele>172</ele>
        <time>2016-09-14T11:08:35Z</time>
      </trkpt>
      <trkpt lat="45.92905" lon="4.73989">
        <ele>172</ele>
        <time>2016-09-14T11:08:36Z</time>
      </trkpt>
      <trkpt lat="45.92899" lon="4.73985">
        <ele>172</ele>
        <time>2016-09-14T11:08:37Z</time>
      </trkpt>
      <trkpt lat="45.92894" lon="4.73979">
        <ele>172</ele>
        <time>2016-09-14T11:08:38Z</time>
      </trkpt>
      <trkpt lat="45.9289" lon="4.73973">
        <ele>172</ele>
        <time>2016-09-14T11:08:39Z</time>
      </trkpt>
      <trkpt lat="45.92888" lon="4.73966">
        <ele>172</ele>
        <time>2016-09-14T11:08:40Z</time>
      </trkpt>
      <trkpt lat="45.92886" lon="4.73957">
        <ele>172</ele>
        <time>2016-09-14T11:08:41Z</time>
      </trkpt>
      <trkpt lat="45.92886" lon="4.73947">
        <ele>172</ele>
        <time>2016-09-14T11:08:42Z</time>
      </trkpt>
      <trkpt lat="45.92885" lon="4.73937">
        <ele>172</ele>
        <time>2016-09-14T11:08:43Z</time>
      </trkpt>
      <trkpt lat="45.92884" lon="4.73926">
        <ele>172</ele>
        <time>2016-09-14T11:08:44Z</time>
      </trkpt>
      <trkpt lat="45.92883" lon="4.73915">
        <ele>173</ele>
        <time>2016-09-14T11:08:45Z</time>
      </trkpt>
      <trkpt lat="45.92882" lon="4.73905">
        <ele>173</ele>
        <time>2016-09-14T11:08:46Z</time>
      </trkpt>
      <trkpt lat="45.9288" lon="4.73894">
        <ele>173</ele>
        <time>2016-09-14T11:08:47Z</time>
      </trkpt>
      <trkpt lat="45.92879" lon="4.73884">
        <ele>173</ele>
        <time>2016-09-14T11:08:48Z</time>
      </trkpt>
      <trkpt lat="45.92877" lon="4.73875">
        <ele>173</ele>
        <time>2016-09-14T11:08:49Z</time>
      </trkpt>
      <trkpt lat="45.92874" lon="4.73865">
        <ele>173</ele>
        <time>2016-09-14T11:08:50Z</time>
      </trkpt>
      <trkpt lat="45.92872" lon="4.73857">
        <ele>173</ele>
        <time>2016-09-14T11:08:51Z</time>
      </trkpt>
      <trkpt lat="45.92869" lon="4.73848">
        <ele>173</ele>
        <time>2016-09-14T11:08:52Z</time>
      </trkpt>
      <trkpt lat="45.92866" lon="4.73839">
        <ele>173</ele>
        <time>2016-09-14T11:08:53Z</time>
      </trkpt>
      <trkpt lat="45.92864" lon="4.73831">
        <ele>173</ele>
        <time>2016-09-14T11:08:54Z</time>
      </trkpt>
      <trkpt lat="45.92861" lon="4.73822">
        <ele>173</ele>
        <time>2016-09-14T11:08:55Z</time>
      </trkpt>
      <trkpt lat="45.92857" lon="4.73814">
        <ele>173</ele>
        <time>2016-09-14T11:08:56Z</time>
      </trkpt>
      <trkpt lat="45.92854" lon="4.73807">
        <ele>173</ele>
        <time>2016-09-14T11:08:57Z</time>
      </trkpt>
      <trkpt lat="45.9285" lon="4.738">
        <ele>173</ele>
        <time>2016-09-14T11:08:58Z</time>
      </trkpt>
      <trkpt lat="45.92845" lon="4.73795">
        <ele>173</ele>
        <time>2016-09-14T11:08:59Z</time>
      </trkpt>
      <trkpt lat="45.92841" lon="4.7379">
        <ele>173</ele>
        <time>2016-09-14T11:09:00Z</time>
      </trkpt>
      <trkpt lat="45.92836" lon="4.73786">
        <ele>173</ele>
        <time>2016-09-14T11:09:01Z</time>
      </trkpt>
      <trkpt lat="45.92831" lon="4.73782">
        <ele>173</ele>
        <time>2016-09-14T11:09:02Z</time>
      </trkpt>
      <trkpt lat="45.92826" lon="4.73778">
        <ele>173</ele>
        <time>2016-09-14T11:09:03Z</time>
      </trkpt>
      <trkpt lat="45.92821" lon="4.73775">
        <ele>173</ele>
        <time>2016-09-14T11:09:04Z</time>
      </trkpt>
      <trkpt lat="45.92817" lon="4.73773">
        <ele>173</ele>
        <time>2016-09-14T11:09:05Z</time>
      </trkpt>
      <trkpt lat="45.92812" lon="4.73771">
        <ele>173</ele>
        <time>2016-09-14T11:09:06Z</time>
      </trkpt>
      <trkpt lat="45.92808" lon="4.73769">
        <ele>173</ele>
        <time>2016-09-14T11:09:07Z</time>
      </trkpt>
      <trkpt lat="45.928" lon="4.73764">
        <ele>173</ele>
        <time>2016-09-14T11:09:09Z</time>
      </trkpt>
      <trkpt lat="45.92796" lon="4.73762">
        <ele>173</ele>
        <time>2016-09-14T11:09:10Z</time>
      </trkpt>
      <trkpt lat="45.92788" lon="4.73756">
        <ele>173</ele>
        <time>2016-09-14T11:09:12Z</time>
      </trkpt>
      <trkpt lat="45.92785" lon="4.73752">
        <ele>173</ele>
        <time>2016-09-14T11:09:13Z</time>
      </trkpt>
      <trkpt lat="45.92779" lon="4.73743">
        <ele>172</ele>
        <time>2016-09-14T11:09:15Z</time>
      </trkpt>
      <trkpt lat="45.92775" lon="4.73739">
        <ele>172</ele>
        <time>2016-09-14T11:09:16Z</time>
      </trkpt>
      <trkpt lat="45.9277" lon="4.73736">
        <ele>172</ele>
        <time>2016-09-14T11:09:17Z</time>
      </trkpt>
      <trkpt lat="45.92766" lon="4.73733">
        <ele>172</ele>
        <time>2016-09-14T11:09:18Z</time>
      </trkpt>
      <trkpt lat="45.92762" lon="4.73732">
        <ele>172</ele>
        <time>2016-09-14T11:09:19Z</time>
      </trkpt>
      <trkpt lat="45.92757" lon="4.73731">
        <ele>172</ele>
        <time>2016-09-14T11:09:20Z</time>
      </trkpt>
      <trkpt lat="45.9275" lon="4.73729">
        <ele>173</ele>
        <time>2016-09-14T11:09:22Z</time>
      </trkpt>
      <trkpt lat="45.92745" lon="4.73727">
        <ele>173</ele>
        <time>2016-09-14T11:09:23Z</time>
      </trkpt>
      <trkpt lat="45.92737" lon="4.73725">
        <ele>173</ele>
        <time>2016-09-14T11:09:25Z</time>
      </trkpt>
      <trkpt lat="45.92732" lon="4.73723">
        <ele>173</ele>
        <time>2016-09-14T11:09:26Z</time>
      </trkpt>
      <trkpt lat="45.92724" lon="4.7372">
        <ele>173</ele>
        <time>2016-09-14T11:09:28Z</time>
      </trkpt>
      <trkpt lat="45.92719" lon="4.73719">
        <ele>173</ele>
        <time>2016-09-14T11:09:29Z</time>
      </trkpt>
      <trkpt lat="45.92711" lon="4.73717">
        <ele>173</ele>
        <time>2016-09-14T11:09:31Z</time>
      </trkpt>
      <trkpt lat="45.92706" lon="4.73715">
        <ele>173</ele>
        <time>2016-09-14T11:09:32Z</time>
      </trkpt>
      <trkpt lat="45.92702" lon="4.73714">
        <ele>173</ele>
        <time>2016-09-14T11:09:33Z</time>
      </trkpt>
      <trkpt lat="45.92697" lon="4.73713">
        <ele>173</ele>
        <time>2016-09-14T11:09:34Z</time>
      </trkpt>
      <trkpt lat="45.92692" lon="4.73712">
        <ele>173</ele>
        <time>2016-09-14T11:09:35Z</time>
      </trkpt>
      <trkpt lat="45.92688" lon="4.7371">
        <ele>173</ele>
        <time>2016-09-14T11:09:36Z</time>
      </trkpt>
      <trkpt lat="45.92683" lon="4.73709">
        <ele>173</ele>
        <time>2016-09-14T11:09:37Z</time>
      </trkpt>
      <trkpt lat="45.92678" lon="4.73708">
        <ele>173</ele>
        <time>2016-09-14T11:09:38Z</time>
      </trkpt>
      <trkpt lat="45.92673" lon="4.73707">
        <ele>174</ele>
        <time>2016-09-14T11:09:39Z</time>
      </trkpt>
      <trkpt lat="45.92669" lon="4.73705">
        <ele>174</ele>
        <time>2016-09-14T11:09:40Z</time>
      </trkpt>
      <trkpt lat="45.92661" lon="4.737">
        <ele>173</ele>
        <time>2016-09-14T11:09:42Z</time>
      </trkpt>
      <trkpt lat="45.92657" lon="4.73697">
        <ele>173</ele>
        <time>2016-09-14T11:09:43Z</time>
      </trkpt>
      <trkpt lat="45.9265" lon="4.7369">
        <ele>173</ele>
        <time>2016-09-14T11:09:45Z</time>
      </trkpt>
      <trkpt lat="45.92646" lon="4.73685">
        <ele>173</ele>
        <time>2016-09-14T11:09:46Z</time>
      </trkpt>
      <trkpt lat="45.92642" lon="4.7368">
        <ele>173</ele>
        <time>2016-09-14T11:09:47Z</time>
      </trkpt>
      <trkpt lat="45.92639" lon="4.73674">
        <ele>173</ele>
        <time>2016-09-14T11:09:48Z</time>
      </trkpt>
      <trkpt lat="45.92635" lon="4.73667">
        <ele>173</ele>
        <time>2016-09-14T11:09:49Z</time>
      </trkpt>
      <trkpt lat="45.92632" lon="4.73661">
        <ele>173</ele>
        <time>2016-09-14T11:09:50Z</time>
      </trkpt>
      <trkpt lat="45.92629" lon="4.73655">
        <ele>173</ele>
        <time>2016-09-14T11:09:51Z</time>
      </trkpt>
      <trkpt lat="45.92626" lon="4.73649">
        <ele>173</ele>
        <time>2016-09-14T11:09:52Z</time>
      </trkpt>
      <trkpt lat="45.92624" lon="4.73643">
        <ele>173</ele>
        <time>2016-09-14T11:09:53Z</time>
      </trkpt>
      <trkpt lat="45.92621" lon="4.73638">
        <ele>173</ele>
        <time>2016-09-14T11:09:54Z</time>
      </trkpt>
      <trkpt lat="45.92616" lon="4.7363">
        <ele>173</ele>
        <time>2016-09-14T11:09:56Z</time>
      </trkpt>
      <trkpt lat="45.92612" lon="4.73627">
        <ele>173</ele>
        <time>2016-09-14T11:09:57Z</time>
      </trkpt>
      <trkpt lat="45.92607" lon="4.73624">
        <ele>173</ele>
        <time>2016-09-14T11:09:58Z</time>
      </trkpt>
      <trkpt lat="45.92603" lon="4.73623">
        <ele>173</ele>
        <time>2016-09-14T11:09:59Z</time>
      </trkpt>
      <trkpt lat="45.92598" lon="4.73622">
        <ele>173</ele>
        <time>2016-09-14T11:10:00Z</time>
      </trkpt>
      <trkpt lat="45.92594" lon="4.73622">
        <ele>173</ele>
        <time>2016-09-14T11:10:01Z</time>
      </trkpt>
      <trkpt lat="45.92585" lon="4.73622">
        <ele>173</ele>
        <time>2016-09-14T11:10:03Z</time>
      </trkpt>
      <trkpt lat="45.9258" lon="4.73622">
        <ele>173</ele>
        <time>2016-09-14T11:10:04Z</time>
      </trkpt>
      <trkpt lat="45.92576" lon="4.73623">
        <ele>173</ele>
        <time>2016-09-14T11:10:05Z</time>
      </trkpt>
      <trkpt lat="45.92571" lon="4.73624">
        <ele>173</ele>
        <time>2016-09-14T11:10:06Z</time>
      </trkpt>
      <trkpt lat="45.92567" lon="4.73625">
        <ele>173</ele>
        <time>2016-09-14T11:10:07Z</time>
      </trkpt>
      <trkpt lat="45.92562" lon="4.73626">
        <ele>173</ele>
        <time>2016-09-14T11:10:08Z</time>
      </trkpt>
      <trkpt lat="45.92557" lon="4.73628">
        <ele>173</ele>
        <time>2016-09-14T11:10:09Z</time>
      </trkpt>
      <trkpt lat="45.92553" lon="4.7363">
        <ele>173</ele>
        <time>2016-09-14T11:10:10Z</time>
      </trkpt>
      <trkpt lat="45.92548" lon="4.73632">
        <ele>173</ele>
        <time>2016-09-14T11:10:11Z</time>
      </trkpt>
      <trkpt lat="45.92543" lon="4.73634">
        <ele>173</ele>
        <time>2016-09-14T11:10:12Z</time>
      </trkpt>
      <trkpt lat="45.92537" lon="4.73635">
        <ele>173</ele>
        <time>2016-09-14T11:10:13Z</time>
      </trkpt>
      <trkpt lat="45.92533" lon="4.73636">
        <ele>173</ele>
        <time>2016-09-14T11:10:14Z</time>
      </trkpt>
      <trkpt lat="45.92528" lon="4.73636">
        <ele>173</ele>
        <time>2016-09-14T11:10:15Z</time>
      </trkpt>
      <trkpt lat="45.92523" lon="4.73637">
        <ele>173</ele>
        <time>2016-09-14T11:10:16Z</time>
      </trkpt>
      <trkpt lat="45.92514" lon="4.73639">
        <ele>174</ele>
        <time>2016-09-14T11:10:18Z</time>
      </trkpt>
      <trkpt lat="45.9251" lon="4.7364">
        <ele>174</ele>
        <time>2016-09-14T11:10:19Z</time>
      </trkpt>
      <trkpt lat="45.92503" lon="4.7364">
        <ele>174</ele>
        <time>2016-09-14T11:10:21Z</time>
      </trkpt>
      <trkpt lat="45.925" lon="4.73641">
        <ele>174</ele>
        <time>2016-09-14T11:10:22Z</time>
      </trkpt>
      <trkpt lat="45.92493" lon="4.73641">
        <ele>174</ele>
        <time>2016-09-14T11:10:24Z</time>
      </trkpt>
      <trkpt lat="45.92489" lon="4.73642">
        <ele>174</ele>
        <time>2016-09-14T11:10:25Z</time>
      </trkpt>
      <trkpt lat="45.92481" lon="4.73642">
        <ele>174</ele>
        <time>2016-09-14T11:10:27Z</time>
      </trkpt>
      <trkpt lat="45.92477" lon="4.73643">
        <ele>174</ele>
        <time>2016-09-14T11:10:28Z</time>
      </trkpt>
      <trkpt lat="45.92471" lon="4.73649">
        <ele>174</ele>
        <time>2016-09-14T11:10:30Z</time>
      </trkpt>
      <trkpt lat="45.92468" lon="4.73653">
        <ele>174</ele>
        <time>2016-09-14T11:10:31Z</time>
      </trkpt>
      <trkpt lat="45.92466" lon="4.73663">
        <ele>174</ele>
        <time>2016-09-14T11:10:33Z</time>
      </trkpt>
      <trkpt lat="45.92466" lon="4.73669">
        <ele>174</ele>
        <time>2016-09-14T11:10:34Z</time>
      </trkpt>
      <trkpt lat="45.92466" lon="4.73677">
        <ele>174</ele>
        <time>2016-09-14T11:10:36Z</time>
      </trkpt>
      <trkpt lat="45.92466" lon="4.73682">
        <ele>174</ele>
        <time>2016-09-14T11:10:37Z</time>
      </trkpt>
      <trkpt lat="45.92465" lon="4.73692">
        <ele>174</ele>
        <time>2016-09-14T11:10:39Z</time>
      </trkpt>
      <trkpt lat="45.92465" lon="4.73696">
        <ele>174</ele>
        <time>2016-09-14T11:10:40Z</time>
      </trkpt>
      <trkpt lat="45.92464" lon="4.73709">
        <ele>174</ele>
        <time>2016-09-14T11:11:19.808Z</time>
      </trkpt>
    </trkseg>
  </trk>
</gpx>